<?xml version='1.0' encoding='UTF-8'?><gpx version="1.1" creator="JPX - https://github.com/jenetics/jpx" xmlns="http://www.topografix.com/GPX/1/1"><trk><trkseg><trkpt lat="44.773593871944804" lon="10.262714678961627"><ele>86.0</ele><time>2026-04-19T07:10:40Z</time></trkpt><trkpt lat="44.77360308912881" lon="10.262812891459234"><ele>86.0</ele><time>2026-04-19T07:10:42Z</time></trkpt><trkpt lat="44.77365037417456" lon="10.262881837113834"><ele>86.0</ele><time>2026-04-19T07:10:44Z</time></trkpt><trkpt lat="44.77370207968789" lon="10.262959748282936"><ele>86.0</ele><time>2026-04-19T07:10:47Z</time></trkpt><trkpt lat="44.773765969520966" lon="10.262982114764947"><ele>86.0</ele><time>2026-04-19T07:10:56Z</time></trkpt><trkpt lat="44.773859315370736" lon="10.263015645950919"><ele>86.0</ele><time>2026-04-19T07:10:59Z</time></trkpt><trkpt lat="44.773943631290706" lon="10.263059227264495"><ele>86.0</ele><time>2026-04-19T07:11:02Z</time></trkpt><trkpt lat="44.77401283630421" lon="10.263113084499283"><ele>86.0</ele><time>2026-04-19T07:11:05Z</time></trkpt><trkpt lat="44.77400404639852" lon="10.263212347765942"><ele>86.0</ele><time>2026-04-19T07:11:11Z</time></trkpt><trkpt lat="44.77398503048625" lon="10.263335365705315"><ele>86.0</ele><time>2026-04-19T07:11:57.999Z</time></trkpt><trkpt lat="44.77395912155806" lon="10.26344419406255"><ele>86.0</ele><time>2026-04-19T07:11:59.999Z</time></trkpt><trkpt lat="44.773917878020455" lon="10.263513409023908"><ele>86.0</ele><time>2026-04-19T07:12:01.999Z</time></trkpt><trkpt lat="44.77385627565552" lon="10.263544174825938"><ele>86.0</ele><time>2026-04-19T07:12:03.999Z</time></trkpt><trkpt lat="44.77377315721083" lon="10.263450783888018"><ele>86.0</ele><time>2026-04-19T07:12:05.999Z</time></trkpt><trkpt lat="44.77373639852376" lon="10.263353613865945"><ele>86.0</ele><time>2026-04-19T07:12:06.999Z</time></trkpt><trkpt lat="44.77369230109108" lon="10.263252866780409"><ele>86.0</ele><time>2026-04-19T07:12:07.999Z</time></trkpt><trkpt lat="44.77363586455158" lon="10.263139337416616"><ele>86.0</ele><time>2026-04-19T07:12:08.999Z</time></trkpt><trkpt lat="44.773577681959274" lon="10.263024991855618"><ele>86.0</ele><time>2026-04-19T07:12:09.999Z</time></trkpt><trkpt lat="44.773525253500644" lon="10.262915114067566"><ele>86.0</ele><time>2026-04-19T07:12:10.999Z</time></trkpt><trkpt lat="44.77346667232067" lon="10.262797047068618"><ele>86.0</ele><time>2026-04-19T07:12:11.999Z</time></trkpt><trkpt lat="44.773405827748334" lon="10.26267610814653"><ele>86.0</ele><time>2026-04-19T07:12:12.999Z</time></trkpt><trkpt lat="44.773345587695296" lon="10.26255609213512"><ele>86.0</ele><time>2026-04-19T07:12:13.999Z</time></trkpt><trkpt lat="44.773289706691855" lon="10.262437691193368"><ele>86.4</ele><time>2026-04-19T07:12:14.999Z</time></trkpt><trkpt lat="44.773232040934595" lon="10.262320765974009"><ele>86.8</ele><time>2026-04-19T07:12:15.999Z</time></trkpt><trkpt lat="44.77317714990136" lon="10.262204830476716"><ele>87.2</ele><time>2026-04-19T07:12:16.999Z</time></trkpt><trkpt lat="44.77312449163125" lon="10.262085305233331"><ele>87.60000000000001</ele><time>2026-04-19T07:12:17.999Z</time></trkpt><trkpt lat="44.77307742684634" lon="10.261979455232337"><ele>88.0</ele><time>2026-04-19T07:12:18.999Z</time></trkpt><trkpt lat="44.773037198464586" lon="10.261888205141005"><ele>88.0</ele><time>2026-04-19T07:12:19.999Z</time></trkpt><trkpt lat="44.77298644069934" lon="10.261793305176274"><ele>88.0</ele><time>2026-04-19T07:12:20.999Z</time></trkpt><trkpt lat="44.7729384469771" lon="10.261689801729938"><ele>88.0</ele><time>2026-04-19T07:12:21.999Z</time></trkpt><trkpt lat="44.77290105144987" lon="10.26161141495085"><ele>88.0</ele><time>2026-04-19T07:12:22.999Z</time></trkpt><trkpt lat="44.77274697067838" lon="10.261693351555609"><ele>88.0</ele><time>2026-04-19T07:12:23.999Z</time></trkpt><trkpt lat="44.77264563771623" lon="10.261763136750325"><ele>88.5</ele><time>2026-04-19T07:12:24.999Z</time></trkpt><trkpt lat="44.772541266847426" lon="10.26187249886206"><ele>89.0</ele><time>2026-04-19T07:12:25.999Z</time></trkpt><trkpt lat="44.77244413100157" lon="10.261988762746348"><ele>89.5</ele><time>2026-04-19T07:12:26.999Z</time></trkpt><trkpt lat="44.772347568957834" lon="10.26209503174209"><ele>90.0</ele><time>2026-04-19T07:12:27.999Z</time></trkpt><trkpt lat="44.772237625335556" lon="10.262182733254326"><ele>90.0</ele><time>2026-04-19T07:12:28.999Z</time></trkpt><trkpt lat="44.77212821991928" lon="10.262285258847031"><ele>90.0</ele><time>2026-04-19T07:12:29.999Z</time></trkpt><trkpt lat="44.77202340082747" lon="10.262383486519862"><ele>90.0</ele><time>2026-04-19T07:12:30.999Z</time></trkpt><trkpt lat="44.7719254119418" lon="10.262475313495463"><ele>90.0</ele><time>2026-04-19T07:12:31.999Z</time></trkpt><trkpt lat="44.77183737906472" lon="10.262584425102855"><ele>90.0</ele><time>2026-04-19T07:12:32.999Z</time></trkpt><trkpt lat="44.77173875460154" lon="10.262670084186723"><ele>90.0</ele><time>2026-04-19T07:12:33.999Z</time></trkpt><trkpt lat="44.77165158546916" lon="10.262750219491517"><ele>90.0</ele><time>2026-04-19T07:12:34.999Z</time></trkpt><trkpt lat="44.77155695646056" lon="10.262838962510617"><ele>90.0</ele><time>2026-04-19T07:12:35.999Z</time></trkpt><trkpt lat="44.77145805572909" lon="10.262936200317437"><ele>90.0</ele><time>2026-04-19T07:12:36.999Z</time></trkpt><trkpt lat="44.77135445548366" lon="10.26303295088839"><ele>90.0</ele><time>2026-04-19T07:12:37.999Z</time></trkpt><trkpt lat="44.77125856330163" lon="10.263126181102239"><ele>90.0</ele><time>2026-04-19T07:12:38.999Z</time></trkpt><trkpt lat="44.77115266121981" lon="10.263198466999738"><ele>90.0</ele><time>2026-04-19T07:12:39.999Z</time></trkpt><trkpt lat="44.77104122673654" lon="10.263230562818151"><ele>90.0</ele><time>2026-04-19T07:12:40.999Z</time></trkpt><trkpt lat="44.770914723100674" lon="10.263214469438692"><ele>90.0</ele><time>2026-04-19T07:12:41.999Z</time></trkpt><trkpt lat="44.77080189583173" lon="10.263117304519273"><ele>90.0</ele><time>2026-04-19T07:12:42.999Z</time></trkpt><trkpt lat="44.77068749791759" lon="10.263043491389602"><ele>90.0</ele><time>2026-04-19T07:12:43.999Z</time></trkpt><trkpt lat="44.77058978269876" lon="10.262964753935314"><ele>90.0</ele><time>2026-04-19T07:12:45Z</time></trkpt><trkpt lat="44.77049844865537" lon="10.262905260359036"><ele>90.0</ele><time>2026-04-19T07:12:46Z</time></trkpt><trkpt lat="44.77041164995015" lon="10.262821436495436"><ele>90.0</ele><time>2026-04-19T07:12:47Z</time></trkpt><trkpt lat="44.77031275773878" lon="10.262685069928596"><ele>90.0</ele><time>2026-04-19T07:12:48Z</time></trkpt><trkpt lat="44.77024431429667" lon="10.262491618325663"><ele>90.33333333333333</ele><time>2026-04-19T07:12:49Z</time></trkpt><trkpt lat="44.770149076035615" lon="10.262306136294484"><ele>90.66666666666666</ele><time>2026-04-19T07:12:50Z</time></trkpt><trkpt lat="44.7700592798227" lon="10.262109541280992"><ele>91.0</ele><time>2026-04-19T07:12:51Z</time></trkpt><trkpt lat="44.76996874517254" lon="10.26191053810249"><ele>91.0</ele><time>2026-04-19T07:12:52Z</time></trkpt><trkpt lat="44.769873607310686" lon="10.261722067445652"><ele>91.0</ele><time>2026-04-19T07:12:53Z</time></trkpt><trkpt lat="44.76978300844031" lon="10.261534529124472"><ele>91.0</ele><time>2026-04-19T07:12:54Z</time></trkpt><trkpt lat="44.769694665327464" lon="10.261349246261313"><ele>91.33333333333333</ele><time>2026-04-19T07:12:55Z</time></trkpt><trkpt lat="44.76959926750099" lon="10.261158333926927"><ele>91.66666666666667</ele><time>2026-04-19T07:12:56Z</time></trkpt><trkpt lat="44.769495665321536" lon="10.260946215805793"><ele>92.0</ele><time>2026-04-19T07:12:57Z</time></trkpt><trkpt lat="44.76938217238945" lon="10.26071305544275"><ele>92.33333333333334</ele><time>2026-04-19T07:12:58Z</time></trkpt><trkpt lat="44.76926240177316" lon="10.260454996182853"><ele>92.66666666666667</ele><time>2026-04-19T07:12:59Z</time></trkpt><trkpt lat="44.769146015722136" lon="10.26020869295307"><ele>93.0</ele><time>2026-04-19T07:13:00Z</time></trkpt><trkpt lat="44.769026812747505" lon="10.259964653284241"><ele>93.0</ele><time>2026-04-19T07:13:01Z</time></trkpt><trkpt lat="44.76891600284861" lon="10.25972490130448"><ele>93.0</ele><time>2026-04-19T07:13:02Z</time></trkpt><trkpt lat="44.76880592517267" lon="10.259480434462953"><ele>93.0</ele><time>2026-04-19T07:13:03Z</time></trkpt><trkpt lat="44.76869254220795" lon="10.259238930632085"><ele>93.0</ele><time>2026-04-19T07:13:04Z</time></trkpt><trkpt lat="44.768576049658876" lon="10.25900425728127"><ele>93.0</ele><time>2026-04-19T07:13:05Z</time></trkpt><trkpt lat="44.768466496908246" lon="10.258772720151578"><ele>93.0</ele><time>2026-04-19T07:13:06Z</time></trkpt><trkpt lat="44.768357930467744" lon="10.258544176425735"><ele>93.0</ele><time>2026-04-19T07:13:07Z</time></trkpt><trkpt lat="44.768252446630676" lon="10.25831108686857"><ele>93.0</ele><time>2026-04-19T07:13:08Z</time></trkpt><trkpt lat="44.76814769989348" lon="10.2580832932633"><ele>93.0</ele><time>2026-04-19T07:13:09Z</time></trkpt><trkpt lat="44.76804233103057" lon="10.257856392682372"><ele>93.0</ele><time>2026-04-19T07:13:10Z</time></trkpt><trkpt lat="44.76793800722963" lon="10.257626423634177"><ele>93.0</ele><time>2026-04-19T07:13:11Z</time></trkpt><trkpt lat="44.76783478055977" lon="10.25740130002827"><ele>93.0</ele><time>2026-04-19T07:13:12Z</time></trkpt><trkpt lat="44.76773165320182" lon="10.257171740968188"><ele>93.66666666666667</ele><time>2026-04-19T07:13:13Z</time></trkpt><trkpt lat="44.76762877870932" lon="10.25695171955603"><ele>94.33333333333334</ele><time>2026-04-19T07:13:14Z</time></trkpt><trkpt lat="44.76753020063238" lon="10.256737996286699"><ele>95.0</ele><time>2026-04-19T07:13:15Z</time></trkpt><trkpt lat="44.76743813043462" lon="10.256533862650818"><ele>95.0</ele><time>2026-04-19T07:13:16Z</time></trkpt><trkpt lat="44.767346098774055" lon="10.256336169302152"><ele>95.0</ele><time>2026-04-19T07:13:17Z</time></trkpt><trkpt lat="44.76725899553561" lon="10.256146945530672"><ele>95.0</ele><time>2026-04-19T07:13:18Z</time></trkpt><trkpt lat="44.767180437156206" lon="10.255974178930728"><ele>95.0</ele><time>2026-04-19T07:13:19Z</time></trkpt><trkpt lat="44.76710038729147" lon="10.255803097340646"><ele>95.0</ele><time>2026-04-19T07:13:20Z</time></trkpt><trkpt lat="44.767022158181526" lon="10.255630675547877"><ele>95.0</ele><time>2026-04-19T07:13:21Z</time></trkpt><trkpt lat="44.766939096040915" lon="10.25545514335089"><ele>95.0</ele><time>2026-04-19T07:13:22Z</time></trkpt><trkpt lat="44.76685911517278" lon="10.255275510421386"><ele>95.0</ele><time>2026-04-19T07:13:23Z</time></trkpt><trkpt lat="44.766777305305155" lon="10.25510496669276"><ele>95.0</ele><time>2026-04-19T07:13:24Z</time></trkpt><trkpt lat="44.766699443841965" lon="10.254935276292427"><ele>95.0</ele><time>2026-04-19T07:13:25Z</time></trkpt><trkpt lat="44.766618119318586" lon="10.254759468358941"><ele>95.0</ele><time>2026-04-19T07:13:26Z</time></trkpt><trkpt lat="44.766540655658005" lon="10.254577257865048"><ele>95.33333333333334</ele><time>2026-04-19T07:13:27Z</time></trkpt><trkpt lat="44.76645774177747" lon="10.25439021140452"><ele>95.66666666666667</ele><time>2026-04-19T07:13:28Z</time></trkpt><trkpt lat="44.766372163096136" lon="10.254204872372428"><ele>96.0</ele><time>2026-04-19T07:13:29Z</time></trkpt><trkpt lat="44.76628743840987" lon="10.254016822167191"><ele>97.0</ele><time>2026-04-19T07:13:30Z</time></trkpt><trkpt lat="44.766203284113914" lon="10.253835309398369"><ele>98.0</ele><time>2026-04-19T07:13:31Z</time></trkpt><trkpt lat="44.766118317240775" lon="10.253653910302209"><ele>99.0</ele><time>2026-04-19T07:13:32Z</time></trkpt><trkpt lat="44.76603530637287" lon="10.253469245660504"><ele>98.66666666666666</ele><time>2026-04-19T07:13:33Z</time></trkpt><trkpt lat="44.7659464152148" lon="10.253280798551362"><ele>98.33333333333333</ele><time>2026-04-19T07:13:34Z</time></trkpt><trkpt lat="44.76585912740885" lon="10.253101103810069"><ele>98.0</ele><time>2026-04-19T07:13:35Z</time></trkpt><trkpt lat="44.76577513985484" lon="10.25291489790284"><ele>98.0</ele><time>2026-04-19T07:13:36Z</time></trkpt><trkpt lat="44.76569346777572" lon="10.252734222487348"><ele>98.0</ele><time>2026-04-19T07:13:37Z</time></trkpt><trkpt lat="44.76560448522275" lon="10.252545255608018"><ele>98.0</ele><time>2026-04-19T07:13:38Z</time></trkpt><trkpt lat="44.76551552295588" lon="10.252352109928696"><ele>97.66666666666666</ele><time>2026-04-19T07:13:39Z</time></trkpt><trkpt lat="44.76543131929027" lon="10.252162264610066"><ele>97.33333333333334</ele><time>2026-04-19T07:13:40Z</time></trkpt><trkpt lat="44.76534071951002" lon="10.251965914596182"><ele>97.0</ele><time>2026-04-19T07:13:41Z</time></trkpt><trkpt lat="44.76525294526226" lon="10.251768510827432"><ele>97.33333333333334</ele><time>2026-04-19T07:13:42Z</time></trkpt><trkpt lat="44.76516208925569" lon="10.251571686566948"><ele>97.66666666666666</ele><time>2026-04-19T07:13:43Z</time></trkpt><trkpt lat="44.76507482795426" lon="10.251371432810203"><ele>98.0</ele><time>2026-04-19T07:13:44Z</time></trkpt><trkpt lat="44.764985756814916" lon="10.251172254908443"><ele>98.0</ele><time>2026-04-19T07:13:45Z</time></trkpt><trkpt lat="44.76489871531698" lon="10.250980824320346"><ele>98.0</ele><time>2026-04-19T07:13:46Z</time></trkpt><trkpt lat="44.76480956753558" lon="10.250786274541102"><ele>98.0</ele><time>2026-04-19T07:13:47Z</time></trkpt><trkpt lat="44.76472266968636" lon="10.250595034751088"><ele>98.0</ele><time>2026-04-19T07:13:48Z</time></trkpt><trkpt lat="44.76463829016423" lon="10.250402346441128"><ele>98.0</ele><time>2026-04-19T07:13:49Z</time></trkpt><trkpt lat="44.76455583995108" lon="10.250221050660633"><ele>98.0</ele><time>2026-04-19T07:13:50Z</time></trkpt><trkpt lat="44.76447408174889" lon="10.250044836292236"><ele>98.0</ele><time>2026-04-19T07:13:51Z</time></trkpt><trkpt lat="44.76440132607889" lon="10.249887134494012"><ele>98.0</ele><time>2026-04-19T07:13:52Z</time></trkpt><trkpt lat="44.76433973905806" lon="10.24975221848334"><ele>98.0</ele><time>2026-04-19T07:13:53Z</time></trkpt><trkpt lat="44.764279829771894" lon="10.249622682232571"><ele>98.0</ele><time>2026-04-19T07:13:54Z</time></trkpt><trkpt lat="44.76422796212448" lon="10.249499092614137"><ele>98.60000000000001</ele><time>2026-04-19T07:13:55Z</time></trkpt><trkpt lat="44.76417639608299" lon="10.249382905800816"><ele>99.2</ele><time>2026-04-19T07:13:56Z</time></trkpt><trkpt lat="44.76412176868597" lon="10.249263552706754"><ele>99.8</ele><time>2026-04-19T07:13:57Z</time></trkpt><trkpt lat="44.764062811610636" lon="10.249134372992424"><ele>100.4</ele><time>2026-04-19T07:13:57.999Z</time></trkpt><trkpt lat="44.763996702040245" lon="10.248997931538465"><ele>101.0</ele><time>2026-04-19T07:13:58.999Z</time></trkpt><trkpt lat="44.763924038677324" lon="10.248849813737747"><ele>101.0</ele><time>2026-04-19T07:13:59.999Z</time></trkpt><trkpt lat="44.7638501546223" lon="10.248692466835106"><ele>101.0</ele><time>2026-04-19T07:14:00.999Z</time></trkpt><trkpt lat="44.763779285015126" lon="10.248541973409472"><ele>101.0</ele><time>2026-04-19T07:14:01.999Z</time></trkpt><trkpt lat="44.76371048391618" lon="10.248397154632753"><ele>101.0</ele><time>2026-04-19T07:14:02.999Z</time></trkpt><trkpt lat="44.7636437464213" lon="10.248251053866793"><ele>101.25</ele><time>2026-04-19T07:14:03.999Z</time></trkpt><trkpt lat="44.763569919894465" lon="10.248094641704569"><ele>101.5</ele><time>2026-04-19T07:14:04.999Z</time></trkpt><trkpt lat="44.763493154532085" lon="10.247935972020803"><ele>101.75</ele><time>2026-04-19T07:14:05.999Z</time></trkpt><trkpt lat="44.76341439919224" lon="10.247773244827002"><ele>102.0</ele><time>2026-04-19T07:14:06.999Z</time></trkpt><trkpt lat="44.76333780630692" lon="10.247605076271174"><ele>102.25</ele><time>2026-04-19T07:14:07.999Z</time></trkpt><trkpt lat="44.76325541921281" lon="10.2474423323441"><ele>102.5</ele><time>2026-04-19T07:14:08.999Z</time></trkpt><trkpt lat="44.76317085073412" lon="10.24726225066091"><ele>102.75</ele><time>2026-04-19T07:14:09.999Z</time></trkpt><trkpt lat="44.763083648541226" lon="10.247086208488025"><ele>103.0</ele><time>2026-04-19T07:14:10.999Z</time></trkpt><trkpt lat="44.762995639495934" lon="10.246905492693434"><ele>103.0</ele><time>2026-04-19T07:14:11.999Z</time></trkpt><trkpt lat="44.76290892716975" lon="10.246725187645339"><ele>103.0</ele><time>2026-04-19T07:14:12.999Z</time></trkpt><trkpt lat="44.76282368137774" lon="10.246543535966556"><ele>103.0</ele><time>2026-04-19T07:14:13.999Z</time></trkpt><trkpt lat="44.76273676712471" lon="10.246363910927911"><ele>103.33333333333334</ele><time>2026-04-19T07:14:14.999Z</time></trkpt><trkpt lat="44.76265463406251" lon="10.246181813044194"><ele>103.66666666666666</ele><time>2026-04-19T07:14:15.999Z</time></trkpt><trkpt lat="44.762569707246186" lon="10.245989893213494"><ele>104.0</ele><time>2026-04-19T07:14:16.999Z</time></trkpt><trkpt lat="44.76248411241625" lon="10.245805363453488"><ele>103.33333333333333</ele><time>2026-04-19T07:14:17.999Z</time></trkpt><trkpt lat="44.762399031225854" lon="10.245615695117245"><ele>102.66666666666666</ele><time>2026-04-19T07:14:18.999Z</time></trkpt><trkpt lat="44.762317547473394" lon="10.245428263714146"><ele>102.0</ele><time>2026-04-19T07:14:19.999Z</time></trkpt><trkpt lat="44.762232070831665" lon="10.245232114287205"><ele>102.0</ele><time>2026-04-19T07:14:20.999Z</time></trkpt><trkpt lat="44.76214687571692" lon="10.24504123369601"><ele>102.0</ele><time>2026-04-19T07:14:21.999Z</time></trkpt><trkpt lat="44.76205936457561" lon="10.244843245706159"><ele>102.0</ele><time>2026-04-19T07:14:22.999Z</time></trkpt><trkpt lat="44.76197089633168" lon="10.244653438161457"><ele>102.0</ele><time>2026-04-19T07:14:23.999Z</time></trkpt><trkpt lat="44.761884567841186" lon="10.244472684478339"><ele>102.0</ele><time>2026-04-19T07:14:24.999Z</time></trkpt><trkpt lat="44.761797877225845" lon="10.244296804096031"><ele>102.0</ele><time>2026-04-19T07:14:25.999Z</time></trkpt><trkpt lat="44.761710853373145" lon="10.244112958305342"><ele>102.33333333333334</ele><time>2026-04-19T07:14:26.999Z</time></trkpt><trkpt lat="44.76162293475021" lon="10.243924373420512"><ele>102.66666666666667</ele><time>2026-04-19T07:14:27.999Z</time></trkpt><trkpt lat="44.76153216295416" lon="10.243730874585866"><ele>103.0</ele><time>2026-04-19T07:14:28.999Z</time></trkpt><trkpt lat="44.76143618751114" lon="10.2435334276074"><ele>103.0</ele><time>2026-04-19T07:14:29.999Z</time></trkpt><trkpt lat="44.761337070189754" lon="10.243333362514504"><ele>103.0</ele><time>2026-04-19T07:14:30.999Z</time></trkpt><trkpt lat="44.761235220288775" lon="10.24312850944944"><ele>103.0</ele><time>2026-04-19T07:14:31.999Z</time></trkpt><trkpt lat="44.76113373291667" lon="10.242927169657793"><ele>105.0</ele><time>2026-04-19T07:14:32.999Z</time></trkpt><trkpt lat="44.76103050245293" lon="10.24271826375296"><ele>107.0</ele><time>2026-04-19T07:14:33.999Z</time></trkpt><trkpt lat="44.7609299736306" lon="10.24250705315009"><ele>109.0</ele><time>2026-04-19T07:14:34.999Z</time></trkpt><trkpt lat="44.760829891341686" lon="10.242292410615772"><ele>109.0</ele><time>2026-04-19T07:14:35.999Z</time></trkpt><trkpt lat="44.76073276855585" lon="10.242076884032134"><ele>109.0</ele><time>2026-04-19T07:14:36.999Z</time></trkpt><trkpt lat="44.76063566857781" lon="10.241869711855054"><ele>109.0</ele><time>2026-04-19T07:14:37.999Z</time></trkpt><trkpt lat="44.760537315502994" lon="10.24166735842044"><ele>109.0</ele><time>2026-04-19T07:14:38.999Z</time></trkpt><trkpt lat="44.76044034071712" lon="10.241472307786488"><ele>109.0</ele><time>2026-04-19T07:14:39.999Z</time></trkpt><trkpt lat="44.76035846080616" lon="10.241258282053087"><ele>109.0</ele><time>2026-04-19T07:14:40.999Z</time></trkpt><trkpt lat="44.76026362353429" lon="10.24105524014809"><ele>109.66666666666667</ele><time>2026-04-19T07:14:41.999Z</time></trkpt><trkpt lat="44.76016472777819" lon="10.240842328343419"><ele>110.33333333333334</ele><time>2026-04-19T07:14:42.999Z</time></trkpt><trkpt lat="44.76006478989972" lon="10.240627172973111"><ele>111.0</ele><time>2026-04-19T07:14:43.999Z</time></trkpt><trkpt lat="44.75995982475905" lon="10.24040119445404"><ele>111.33333333333334</ele><time>2026-04-19T07:14:44.999Z</time></trkpt><trkpt lat="44.75985280381347" lon="10.240170789949056"><ele>111.66666666666667</ele><time>2026-04-19T07:14:45.999Z</time></trkpt><trkpt lat="44.7597266943829" lon="10.239938074998376"><ele>112.0</ele><time>2026-04-19T07:14:46.999Z</time></trkpt><trkpt lat="44.75961248184173" lon="10.239688740637405"><ele>110.66666666666667</ele><time>2026-04-19T07:14:47.999Z</time></trkpt><trkpt lat="44.759510282552824" lon="10.239428765817374"><ele>109.33333333333334</ele><time>2026-04-19T07:14:48.999Z</time></trkpt><trkpt lat="44.75939862097368" lon="10.23918609105458"><ele>108.0</ele><time>2026-04-19T07:14:49.999Z</time></trkpt><trkpt lat="44.759293554896075" lon="10.238958603755924"><ele>108.0</ele><time>2026-04-19T07:14:51Z</time></trkpt><trkpt lat="44.75917333774175" lon="10.238743159058425"><ele>108.0</ele><time>2026-04-19T07:14:52Z</time></trkpt><trkpt lat="44.759083524879735" lon="10.238505243134481"><ele>108.0</ele><time>2026-04-19T07:14:53Z</time></trkpt><trkpt lat="44.75898448968023" lon="10.238291215289536"><ele>108.0</ele><time>2026-04-19T07:14:54Z</time></trkpt><trkpt lat="44.75889721275513" lon="10.238102599872308"><ele>108.0</ele><time>2026-04-19T07:14:55Z</time></trkpt><trkpt lat="44.75881320052501" lon="10.237917535488096"><ele>108.0</ele><time>2026-04-19T07:14:56Z</time></trkpt><trkpt lat="44.75870874636678" lon="10.237729389455094"><ele>108.0</ele><time>2026-04-19T07:14:57Z</time></trkpt><trkpt lat="44.758643972596715" lon="10.237550761849931"><ele>108.00000000000001</ele><time>2026-04-19T07:14:58Z</time></trkpt><trkpt lat="44.7585853328263" lon="10.237422876873165"><ele>108.00000000000001</ele><time>2026-04-19T07:14:59Z</time></trkpt><trkpt lat="44.75853141053348" lon="10.237344315427567"><ele>108.0</ele><time>2026-04-19T07:15:00Z</time></trkpt><trkpt lat="44.75848599128558" lon="10.237248118058556"><ele>108.0</ele><time>2026-04-19T07:15:01Z</time></trkpt><trkpt lat="44.7584620394494" lon="10.237152166156566"><ele>108.0</ele><time>2026-04-19T07:15:02Z</time></trkpt><trkpt lat="44.75842291110736" lon="10.237066478004163"><ele>108.0</ele><time>2026-04-19T07:15:04Z</time></trkpt><trkpt lat="44.758377667395365" lon="10.236966911537666"><ele>108.0</ele><time>2026-04-19T07:15:09Z</time></trkpt><trkpt lat="44.758251472879955" lon="10.237053126848501"><ele>108.0</ele><time>2026-04-19T07:15:22Z</time></trkpt><trkpt lat="44.75822009102101" lon="10.23697318236127"><ele>108.0</ele><time>2026-04-19T07:20:48.999Z</time></trkpt><trkpt lat="44.75817126188916" lon="10.236893602438288"><ele>108.0</ele><time>2026-04-19T07:20:50.999Z</time></trkpt><trkpt lat="44.75817633652061" lon="10.236780120646669"><ele>108.0</ele><time>2026-04-19T07:20:53.999Z</time></trkpt><trkpt lat="44.75821755488455" lon="10.236703074975404"><ele>108.00000000000001</ele><time>2026-04-19T07:20:59.999Z</time></trkpt><trkpt lat="44.758211494889466" lon="10.236601729362942"><ele>108.00000000000001</ele><time>2026-04-19T07:21:00.999Z</time></trkpt><trkpt lat="44.75814612721684" lon="10.236477015653744"><ele>108.0</ele><time>2026-04-19T07:21:01.999Z</time></trkpt><trkpt lat="44.75808546494083" lon="10.236353513992734"><ele>108.0</ele><time>2026-04-19T07:21:02.999Z</time></trkpt><trkpt lat="44.75801690085978" lon="10.236209735389071"><ele>108.0</ele><time>2026-04-19T07:21:03.999Z</time></trkpt><trkpt lat="44.757942872218855" lon="10.236058900773973"><ele>108.0</ele><time>2026-04-19T07:21:04.999Z</time></trkpt><trkpt lat="44.75787516564927" lon="10.235870454579144"><ele>108.0</ele><time>2026-04-19T07:21:05.999Z</time></trkpt><trkpt lat="44.75778932207172" lon="10.235684116667237"><ele>108.0</ele><time>2026-04-19T07:21:06.999Z</time></trkpt><trkpt lat="44.757699808884205" lon="10.23548981334359"><ele>109.0</ele><time>2026-04-19T07:21:07.999Z</time></trkpt><trkpt lat="44.75760261130106" lon="10.235304987112231"><ele>110.0</ele><time>2026-04-19T07:21:09Z</time></trkpt><trkpt lat="44.757515112270454" lon="10.235099648518366"><ele>111.0</ele><time>2026-04-19T07:21:10Z</time></trkpt><trkpt lat="44.75742078172013" lon="10.234893745908261"><ele>111.0</ele><time>2026-04-19T07:21:11Z</time></trkpt><trkpt lat="44.75731948088118" lon="10.234697772904145"><ele>111.0</ele><time>2026-04-19T07:21:12Z</time></trkpt><trkpt lat="44.757225967232124" lon="10.234491531071093"><ele>111.0</ele><time>2026-04-19T07:21:13Z</time></trkpt><trkpt lat="44.757130034543685" lon="10.234289180943932"><ele>111.0</ele><time>2026-04-19T07:21:14Z</time></trkpt><trkpt lat="44.75702982156735" lon="10.234075236999573"><ele>111.0</ele><time>2026-04-19T07:21:15Z</time></trkpt><trkpt lat="44.756933104968326" lon="10.233864187672717"><ele>111.0</ele><time>2026-04-19T07:21:16Z</time></trkpt><trkpt lat="44.75685031459782" lon="10.23367427018995"><ele>111.0</ele><time>2026-04-19T07:21:17Z</time></trkpt><trkpt lat="44.756765854254475" lon="10.2334937219126"><ele>111.0</ele><time>2026-04-19T07:21:18Z</time></trkpt><trkpt lat="44.756681596178616" lon="10.233310891622644"><ele>111.0</ele><time>2026-04-19T07:21:19Z</time></trkpt><trkpt lat="44.756601319565334" lon="10.233132104759457"><ele>110.25</ele><time>2026-04-19T07:21:20Z</time></trkpt><trkpt lat="44.756522286832244" lon="10.23295443110233"><ele>109.5</ele><time>2026-04-19T07:21:21Z</time></trkpt><trkpt lat="44.7564459281879" lon="10.232785093647271"><ele>108.75</ele><time>2026-04-19T07:21:22Z</time></trkpt><trkpt lat="44.7563762075211" lon="10.232613170908955"><ele>108.0</ele><time>2026-04-19T07:21:23Z</time></trkpt><trkpt lat="44.75631304857241" lon="10.232434597308874"><ele>107.75</ele><time>2026-04-19T07:21:24Z</time></trkpt><trkpt lat="44.75625809049711" lon="10.232253844998025"><ele>107.5</ele><time>2026-04-19T07:21:25Z</time></trkpt><trkpt lat="44.75621519542486" lon="10.232068719947224"><ele>107.25</ele><time>2026-04-19T07:21:26Z</time></trkpt><trkpt lat="44.75617939279859" lon="10.231882195451005"><ele>107.0</ele><time>2026-04-19T07:21:27Z</time></trkpt><trkpt lat="44.756151803101375" lon="10.231712261794913"><ele>107.0</ele><time>2026-04-19T07:21:28Z</time></trkpt><trkpt lat="44.75614002324962" lon="10.231547249303818"><ele>107.0</ele><time>2026-04-19T07:21:29Z</time></trkpt><trkpt lat="44.75614874866269" lon="10.231379971509869"><ele>107.0</ele><time>2026-04-19T07:21:30Z</time></trkpt><trkpt lat="44.75615787325147" lon="10.231207016998152"><ele>107.0</ele><time>2026-04-19T07:21:31Z</time></trkpt><trkpt lat="44.75614364875249" lon="10.23105398458432"><ele>107.75</ele><time>2026-04-19T07:21:32Z</time></trkpt><trkpt lat="44.75609250649878" lon="10.230924114493604"><ele>108.5</ele><time>2026-04-19T07:21:33Z</time></trkpt><trkpt lat="44.756012013199914" lon="10.23079794882145"><ele>109.25</ele><time>2026-04-19T07:21:34Z</time></trkpt><trkpt lat="44.75588046233304" lon="10.230740356300478"><ele>110.0</ele><time>2026-04-19T07:21:35Z</time></trkpt><trkpt lat="44.75572991218374" lon="10.230778075017046"><ele>110.66666666666666</ele><time>2026-04-19T07:21:36Z</time></trkpt><trkpt lat="44.755635367189086" lon="10.230648931897006"><ele>111.33333333333334</ele><time>2026-04-19T07:21:37Z</time></trkpt><trkpt lat="44.755492760130956" lon="10.230624649586217"><ele>112.0</ele><time>2026-04-19T07:21:38Z</time></trkpt><trkpt lat="44.75538088210946" lon="10.230419018153933"><ele>112.0</ele><time>2026-04-19T07:21:39Z</time></trkpt><trkpt lat="44.755275892844175" lon="10.230240573235823"><ele>112.0</ele><time>2026-04-19T07:21:40Z</time></trkpt><trkpt lat="44.755184000559005" lon="10.230044146016867"><ele>112.0</ele><time>2026-04-19T07:21:41Z</time></trkpt><trkpt lat="44.75510624987859" lon="10.229876097731795"><ele>112.0</ele><time>2026-04-19T07:21:42Z</time></trkpt><trkpt lat="44.75502687026122" lon="10.229704528671563"><ele>112.0</ele><time>2026-04-19T07:21:43Z</time></trkpt><trkpt lat="44.75493374178682" lon="10.229538470204291"><ele>112.0</ele><time>2026-04-19T07:21:44Z</time></trkpt><trkpt lat="44.75485901593446" lon="10.229353007645804"><ele>112.0</ele><time>2026-04-19T07:21:45Z</time></trkpt><trkpt lat="44.75477509736042" lon="10.229172823363049"><ele>112.0</ele><time>2026-04-19T07:21:46Z</time></trkpt><trkpt lat="44.75468955356637" lon="10.228993177896418"><ele>112.0</ele><time>2026-04-19T07:21:47Z</time></trkpt><trkpt lat="44.75460237515764" lon="10.22881011448465"><ele>112.0</ele><time>2026-04-19T07:21:48Z</time></trkpt><trkpt lat="44.75451960172211" lon="10.228627444584816"><ele>112.0</ele><time>2026-04-19T07:21:49Z</time></trkpt><trkpt lat="44.75443997470827" lon="10.228447082170252"><ele>112.0</ele><time>2026-04-19T07:21:50Z</time></trkpt><trkpt lat="44.754359619612835" lon="10.228270339258591"><ele>112.0</ele><time>2026-04-19T07:21:51Z</time></trkpt><trkpt lat="44.75427810267532" lon="10.228098642881006"><ele>112.0</ele><time>2026-04-19T07:21:52Z</time></trkpt><trkpt lat="44.754202478410065" lon="10.227940484180754"><ele>112.39999999999999</ele><time>2026-04-19T07:21:53Z</time></trkpt><trkpt lat="44.754142416635574" lon="10.227794245420155"><ele>112.79999999999998</ele><time>2026-04-19T07:21:54Z</time></trkpt><trkpt lat="44.75409015806029" lon="10.22765344435457"><ele>113.2</ele><time>2026-04-19T07:21:55Z</time></trkpt><trkpt lat="44.7540649932479" lon="10.227514443507676"><ele>113.6</ele><time>2026-04-19T07:21:56Z</time></trkpt><trkpt lat="44.75405832611224" lon="10.227374182179812"><ele>114.0</ele><time>2026-04-19T07:21:57Z</time></trkpt><trkpt lat="44.75407233762439" lon="10.227249119576168"><ele>114.2</ele><time>2026-04-19T07:21:58Z</time></trkpt><trkpt lat="44.75410326826103" lon="10.227137347161113"><ele>114.4</ele><time>2026-04-19T07:21:59Z</time></trkpt><trkpt lat="44.754092640686274" lon="10.227030493400589"><ele>114.6</ele><time>2026-04-19T07:22:00Z</time></trkpt><trkpt lat="44.75402878005069" lon="10.226947128936933"><ele>114.8</ele><time>2026-04-19T07:22:01Z</time></trkpt><trkpt lat="44.75393009625381" lon="10.226944270280246"><ele>115.0</ele><time>2026-04-19T07:22:02Z</time></trkpt><trkpt lat="44.75382796692366" lon="10.22690891247623"><ele>115.0</ele><time>2026-04-19T07:22:03Z</time></trkpt><trkpt lat="44.75371983650155" lon="10.226864493065609"><ele>115.0</ele><time>2026-04-19T07:22:04Z</time></trkpt><trkpt lat="44.753611135426176" lon="10.226789974352332"><ele>115.0</ele><time>2026-04-19T07:22:05Z</time></trkpt><trkpt lat="44.7535427270008" lon="10.226583991938112"><ele>115.0</ele><time>2026-04-19T07:22:06Z</time></trkpt><trkpt lat="44.75347668703972" lon="10.226420381009676"><ele>115.5</ele><time>2026-04-19T07:22:07Z</time></trkpt><trkpt lat="44.75341039412612" lon="10.226251401917716"><ele>116.0</ele><time>2026-04-19T07:22:08Z</time></trkpt><trkpt lat="44.753336261201085" lon="10.226083510007125"><ele>116.5</ele><time>2026-04-19T07:22:09Z</time></trkpt><trkpt lat="44.75326054871173" lon="10.22591393369442"><ele>117.0</ele><time>2026-04-19T07:22:10Z</time></trkpt><trkpt lat="44.75318084593559" lon="10.225733109601073"><ele>116.75</ele><time>2026-04-19T07:22:11Z</time></trkpt><trkpt lat="44.75309837958166" lon="10.225563070370043"><ele>116.5</ele><time>2026-04-19T07:22:12Z</time></trkpt><trkpt lat="44.75301942869893" lon="10.225381703640538"><ele>116.25</ele><time>2026-04-19T07:22:13Z</time></trkpt><trkpt lat="44.75293736325802" lon="10.22520772666281"><ele>116.0</ele><time>2026-04-19T07:22:14Z</time></trkpt><trkpt lat="44.7528547098284" lon="10.22503772452238"><ele>116.0</ele><time>2026-04-19T07:22:15Z</time></trkpt><trkpt lat="44.752776552661324" lon="10.2248916895081"><ele>116.0</ele><time>2026-04-19T07:22:16Z</time></trkpt><trkpt lat="44.75270021242787" lon="10.224769430343198"><ele>116.0</ele><time>2026-04-19T07:22:17Z</time></trkpt><trkpt lat="44.75263750428989" lon="10.224673633440036"><ele>116.0</ele><time>2026-04-19T07:22:18Z</time></trkpt><trkpt lat="44.75259649700648" lon="10.224596968192149"><ele>116.0</ele><time>2026-04-19T07:22:19Z</time></trkpt><trkpt lat="44.75260687933127" lon="10.224489462200967"><ele>115.99999999999999</ele><time>2026-04-19T07:22:20Z</time></trkpt><trkpt lat="44.752575753034556" lon="10.224390042823423"><ele>116.0</ele><time>2026-04-19T07:22:20.999Z</time></trkpt><trkpt lat="44.75253435728099" lon="10.224294192201379"><ele>116.0</ele><time>2026-04-19T07:22:21.999Z</time></trkpt><trkpt lat="44.752441249875986" lon="10.224281251799846"><ele>116.0</ele><time>2026-04-19T07:22:22.999Z</time></trkpt><trkpt lat="44.752362724002474" lon="10.224338807671806"><ele>115.99999999999999</ele><time>2026-04-19T07:22:23.999Z</time></trkpt><trkpt lat="44.75228856279288" lon="10.22437232621936"><ele>116.0</ele><time>2026-04-19T07:22:24.999Z</time></trkpt><trkpt lat="44.75219900552321" lon="10.22437720545155"><ele>116.0</ele><time>2026-04-19T07:22:25.999Z</time></trkpt><trkpt lat="44.752096861254046" lon="10.224360052836108"><ele>116.0</ele><time>2026-04-19T07:22:26.999Z</time></trkpt><trkpt lat="44.75198609545067" lon="10.224333797052923"><ele>116.0</ele><time>2026-04-19T07:22:27.999Z</time></trkpt><trkpt lat="44.75187421960188" lon="10.224316732283418"><ele>116.0</ele><time>2026-04-19T07:22:28.999Z</time></trkpt><trkpt lat="44.75175579954954" lon="10.224301048870245"><ele>116.0</ele><time>2026-04-19T07:22:29.999Z</time></trkpt><trkpt lat="44.75163265802393" lon="10.224283489024058"><ele>116.25</ele><time>2026-04-19T07:22:30.999Z</time></trkpt><trkpt lat="44.75150967279266" lon="10.224272044171366"><ele>116.5</ele><time>2026-04-19T07:22:31.999Z</time></trkpt><trkpt lat="44.75139392607176" lon="10.22426033405807"><ele>116.75</ele><time>2026-04-19T07:22:32.999Z</time></trkpt><trkpt lat="44.75128386272049" lon="10.224245047818355"><ele>117.0</ele><time>2026-04-19T07:22:33.999Z</time></trkpt><trkpt lat="44.751170246665886" lon="10.224228393207929"><ele>117.0</ele><time>2026-04-19T07:22:34.999Z</time></trkpt><trkpt lat="44.751055740212145" lon="10.224195691794655"><ele>116.99999999999999</ele><time>2026-04-19T07:22:35.999Z</time></trkpt><trkpt lat="44.75096275206977" lon="10.224184116752806"><ele>116.99999999999999</ele><time>2026-04-19T07:22:36.999Z</time></trkpt><trkpt lat="44.75087807661449" lon="10.224173576463304"><ele>117.0</ele><time>2026-04-19T07:22:37.999Z</time></trkpt><trkpt lat="44.75079485822744" lon="10.224163217538303"><ele>117.0</ele><time>2026-04-19T07:22:38.999Z</time></trkpt><trkpt lat="44.75070834778748" lon="10.22417437834411"><ele>117.0</ele><time>2026-04-19T07:22:39.999Z</time></trkpt><trkpt lat="44.75062318095316" lon="10.224151458430864"><ele>117.0</ele><time>2026-04-19T07:22:40.999Z</time></trkpt><trkpt lat="44.75053833906379" lon="10.224147937061039"><ele>117.0</ele><time>2026-04-19T07:22:41.999Z</time></trkpt><trkpt lat="44.75044855229225" lon="10.22413345389678"><ele>117.0</ele><time>2026-04-19T07:22:42.999Z</time></trkpt><trkpt lat="44.75036139386072" lon="10.224115193274303"><ele>117.0</ele><time>2026-04-19T07:22:43.999Z</time></trkpt><trkpt lat="44.75027084148261" lon="10.22409648539065"><ele>117.0</ele><time>2026-04-19T07:22:44.999Z</time></trkpt><trkpt lat="44.75019072055421" lon="10.224080022069204"><ele>117.0</ele><time>2026-04-19T07:22:45.999Z</time></trkpt><trkpt lat="44.750112508473805" lon="10.224071666680475"><ele>116.99999999999999</ele><time>2026-04-19T07:22:46.999Z</time></trkpt><trkpt lat="44.75003835629916" lon="10.22404555918437"><ele>116.99999999999999</ele><time>2026-04-19T07:22:47.999Z</time></trkpt><trkpt lat="44.74993575468336" lon="10.224044537834937"><ele>117.0</ele><time>2026-04-19T07:22:48.999Z</time></trkpt><trkpt lat="44.74981562486387" lon="10.224037053658085"><ele>117.0</ele><time>2026-04-19T07:22:49.999Z</time></trkpt><trkpt lat="44.74969422018653" lon="10.224010204964591"><ele>117.0</ele><time>2026-04-19T07:22:50.999Z</time></trkpt><trkpt lat="44.74955941844634" lon="10.223992438524807"><ele>117.0</ele><time>2026-04-19T07:22:51.999Z</time></trkpt><trkpt lat="44.74941994051852" lon="10.22398558454568"><ele>117.0</ele><time>2026-04-19T07:22:52.999Z</time></trkpt><trkpt lat="44.74928040189779" lon="10.223964000015336"><ele>117.0</ele><time>2026-04-19T07:22:53.999Z</time></trkpt><trkpt lat="44.749127782473565" lon="10.223939877845721"><ele>117.25</ele><time>2026-04-19T07:22:54.999Z</time></trkpt><trkpt lat="44.74896842852914" lon="10.223931109234695"><ele>117.5</ele><time>2026-04-19T07:22:55.999Z</time></trkpt><trkpt lat="44.7488199430585" lon="10.223903607599759"><ele>117.75</ele><time>2026-04-19T07:22:56.999Z</time></trkpt><trkpt lat="44.748691033034184" lon="10.223895941242729"><ele>118.0</ele><time>2026-04-19T07:22:57.999Z</time></trkpt><trkpt lat="44.74854435272284" lon="10.223875104709196"><ele>118.33333333333334</ele><time>2026-04-19T07:22:58.999Z</time></trkpt><trkpt lat="44.74839944193069" lon="10.223863846049394"><ele>118.66666666666666</ele><time>2026-04-19T07:22:59.999Z</time></trkpt><trkpt lat="44.74825020131513" lon="10.223847211705252"><ele>119.0</ele><time>2026-04-19T07:23:00.999Z</time></trkpt><trkpt lat="44.748092068114644" lon="10.223827646100059"><ele>119.0</ele><time>2026-04-19T07:23:01.999Z</time></trkpt><trkpt lat="44.74793624586146" lon="10.223808158728733"><ele>119.0</ele><time>2026-04-19T07:23:02.999Z</time></trkpt><trkpt lat="44.74776563954939" lon="10.223781997626665"><ele>119.0</ele><time>2026-04-19T07:23:03.999Z</time></trkpt><trkpt lat="44.74758595220604" lon="10.22375939507451"><ele>119.66666666666666</ele><time>2026-04-19T07:23:04.999Z</time></trkpt><trkpt lat="44.74741205908482" lon="10.223734530928"><ele>120.33333333333334</ele><time>2026-04-19T07:23:05.999Z</time></trkpt><trkpt lat="44.74724024800021" lon="10.223713728578625"><ele>121.0</ele><time>2026-04-19T07:23:06.999Z</time></trkpt><trkpt lat="44.747064516753824" lon="10.223694890513585"><ele>121.0</ele><time>2026-04-19T07:23:07.999Z</time></trkpt><trkpt lat="44.74688049541952" lon="10.223672310422481"><ele>121.0</ele><time>2026-04-19T07:23:08.999Z</time></trkpt><trkpt lat="44.746700485231635" lon="10.223655966930012"><ele>121.0</ele><time>2026-04-19T07:23:09.999Z</time></trkpt><trkpt lat="44.74652177356062" lon="10.223635944421746"><ele>121.0</ele><time>2026-04-19T07:23:10.999Z</time></trkpt><trkpt lat="44.746348062409275" lon="10.223632035005638"><ele>121.0</ele><time>2026-04-19T07:23:11.999Z</time></trkpt><trkpt lat="44.7461701863387" lon="10.223641150044168"><ele>121.0</ele><time>2026-04-19T07:23:12.999Z</time></trkpt><trkpt lat="44.745983635143425" lon="10.22367083037292"><ele>121.33333333333334</ele><time>2026-04-19T07:23:13.999Z</time></trkpt><trkpt lat="44.74578764618177" lon="10.223726386743326"><ele>121.66666666666666</ele><time>2026-04-19T07:23:15Z</time></trkpt><trkpt lat="44.74560046950308" lon="10.223810790169031"><ele>122.0</ele><time>2026-04-19T07:23:16Z</time></trkpt><trkpt lat="44.74541975459576" lon="10.223924095719015"><ele>122.0</ele><time>2026-04-19T07:23:17Z</time></trkpt><trkpt lat="44.74524780864759" lon="10.224045334798165"><ele>122.0</ele><time>2026-04-19T07:23:18Z</time></trkpt><trkpt lat="44.745088662126115" lon="10.224166020920382"><ele>122.0</ele><time>2026-04-19T07:23:19Z</time></trkpt><trkpt lat="44.744932621142176" lon="10.224289852765256"><ele>122.33333333333333</ele><time>2026-04-19T07:23:20Z</time></trkpt><trkpt lat="44.74478920324996" lon="10.2243991712198"><ele>122.66666666666666</ele><time>2026-04-19T07:23:21Z</time></trkpt><trkpt lat="44.744658887285695" lon="10.224496605453966"><ele>123.0</ele><time>2026-04-19T07:23:22Z</time></trkpt><trkpt lat="44.74453280452888" lon="10.224580261334955"><ele>123.0</ele><time>2026-04-19T07:23:23Z</time></trkpt><trkpt lat="44.74441672002158" lon="10.224663300981332"><ele>123.0</ele><time>2026-04-19T07:23:24Z</time></trkpt><trkpt lat="44.74430616940797" lon="10.22473189615727"><ele>123.0</ele><time>2026-04-19T07:23:25Z</time></trkpt><trkpt lat="44.74419523221567" lon="10.224766075964354"><ele>123.0</ele><time>2026-04-19T07:23:26Z</time></trkpt><trkpt lat="44.744083866248666" lon="10.224793585333597"><ele>123.25</ele><time>2026-04-19T07:23:27Z</time></trkpt><trkpt lat="44.743967525500246" lon="10.224844552358887"><ele>123.5</ele><time>2026-04-19T07:23:28Z</time></trkpt><trkpt lat="44.743844798356406" lon="10.224881044182954"><ele>123.75</ele><time>2026-04-19T07:23:29Z</time></trkpt><trkpt lat="44.74372129529184" lon="10.224860268493059"><ele>124.0</ele><time>2026-04-19T07:23:30Z</time></trkpt><trkpt lat="44.743599915650776" lon="10.224866160319491"><ele>124.0</ele><time>2026-04-19T07:23:31Z</time></trkpt><trkpt lat="44.74348458859499" lon="10.22488337760723"><ele>124.0</ele><time>2026-04-19T07:23:32Z</time></trkpt><trkpt lat="44.74337796849634" lon="10.224878137633242"><ele>124.0</ele><time>2026-04-19T07:23:33Z</time></trkpt><trkpt lat="44.74327338522578" lon="10.224884219827924"><ele>124.0</ele><time>2026-04-19T07:23:34Z</time></trkpt><trkpt lat="44.74314411088795" lon="10.224891737954165"><ele>124.0</ele><time>2026-04-19T07:23:35Z</time></trkpt><trkpt lat="44.742995457019546" lon="10.224900123414116"><ele>124.0</ele><time>2026-04-19T07:23:36Z</time></trkpt><trkpt lat="44.74284444625034" lon="10.224923015709981"><ele>124.0</ele><time>2026-04-19T07:23:37Z</time></trkpt><trkpt lat="44.74269535278846" lon="10.22492676452303"><ele>124.5</ele><time>2026-04-19T07:23:38Z</time></trkpt><trkpt lat="44.74255138263073" lon="10.224935830341805"><ele>125.0</ele><time>2026-04-19T07:23:39Z</time></trkpt><trkpt lat="44.74240092203899" lon="10.224950341591875"><ele>125.5</ele><time>2026-04-19T07:23:40Z</time></trkpt><trkpt lat="44.742250214097616" lon="10.224960031703862"><ele>126.0</ele><time>2026-04-19T07:23:41Z</time></trkpt><trkpt lat="44.742105105828685" lon="10.224970035737796"><ele>126.0</ele><time>2026-04-19T07:23:42Z</time></trkpt><trkpt lat="44.74198005149928" lon="10.224977011905901"><ele>126.0</ele><time>2026-04-19T07:23:43Z</time></trkpt><trkpt lat="44.741868424415145" lon="10.224984915376353"><ele>126.0</ele><time>2026-04-19T07:23:44Z</time></trkpt><trkpt lat="44.74176749282316" lon="10.224991424006262"><ele>126.0</ele><time>2026-04-19T07:23:45Z</time></trkpt><trkpt lat="44.74166424340239" lon="10.224998216869297"><ele>126.0</ele><time>2026-04-19T07:23:46Z</time></trkpt><trkpt lat="44.74155355349928" lon="10.225002540900778"><ele>126.25</ele><time>2026-04-19T07:23:47Z</time></trkpt><trkpt lat="44.74144063238065" lon="10.225008559832144"><ele>126.5</ele><time>2026-04-19T07:23:48Z</time></trkpt><trkpt lat="44.74132917245612" lon="10.225012179707711"><ele>126.75</ele><time>2026-04-19T07:23:49Z</time></trkpt><trkpt lat="44.74121352173619" lon="10.225019686311578"><ele>127.0</ele><time>2026-04-19T07:23:50Z</time></trkpt><trkpt lat="44.74109713455529" lon="10.225032685787335"><ele>127.25</ele><time>2026-04-19T07:23:51Z</time></trkpt><trkpt lat="44.740970219617644" lon="10.225041728885145"><ele>127.5</ele><time>2026-04-19T07:23:52Z</time></trkpt><trkpt lat="44.74084678668634" lon="10.225044026355175"><ele>127.75</ele><time>2026-04-19T07:23:53Z</time></trkpt><trkpt lat="44.74072037095409" lon="10.225033709195701"><ele>128.0</ele><time>2026-04-19T07:23:54Z</time></trkpt><trkpt lat="44.740594970429704" lon="10.225063975946593"><ele>128.0</ele><time>2026-04-19T07:23:55Z</time></trkpt><trkpt lat="44.74046531343162" lon="10.225048539408808"><ele>128.0</ele><time>2026-04-19T07:23:56Z</time></trkpt><trkpt lat="44.740325600473554" lon="10.225077674341987"><ele>128.0</ele><time>2026-04-19T07:23:57Z</time></trkpt><trkpt lat="44.74018068447665" lon="10.225065089036626"><ele>128.0</ele><time>2026-04-19T07:23:58Z</time></trkpt><trkpt lat="44.74003200344867" lon="10.225073734036007"><ele>128.0</ele><time>2026-04-19T07:23:59Z</time></trkpt><trkpt lat="44.73986086394392" lon="10.225083810960037"><ele>128.0</ele><time>2026-04-19T07:24:00Z</time></trkpt><trkpt lat="44.739653382686164" lon="10.22509611544619"><ele>128.0</ele><time>2026-04-19T07:24:01Z</time></trkpt><trkpt lat="44.73944486862599" lon="10.225116315988245"><ele>127.66666666666666</ele><time>2026-04-19T07:24:02Z</time></trkpt><trkpt lat="44.739248026552424" lon="10.225124322743804"><ele>127.33333333333334</ele><time>2026-04-19T07:24:03Z</time></trkpt><trkpt lat="44.739052829303525" lon="10.225144752198435"><ele>127.0</ele><time>2026-04-19T07:24:04Z</time></trkpt><trkpt lat="44.73885967444016" lon="10.225162062474512"><ele>127.0</ele><time>2026-04-19T07:24:05Z</time></trkpt><trkpt lat="44.73866344098447" lon="10.225171635641521"><ele>127.0</ele><time>2026-04-19T07:24:06Z</time></trkpt><trkpt lat="44.7384633256666" lon="10.22517909733685"><ele>127.0</ele><time>2026-04-19T07:24:07Z</time></trkpt><trkpt lat="44.73825888777555" lon="10.225193784145326"><ele>127.33333333333334</ele><time>2026-04-19T07:24:08Z</time></trkpt><trkpt lat="44.738054195953886" lon="10.225211058279156"><ele>127.66666666666666</ele><time>2026-04-19T07:24:09Z</time></trkpt><trkpt lat="44.73785676030461" lon="10.225224565691267"><ele>128.0</ele><time>2026-04-19T07:24:10Z</time></trkpt><trkpt lat="44.73765441461731" lon="10.22523506627349"><ele>129.0</ele><time>2026-04-19T07:24:11Z</time></trkpt><trkpt lat="44.73744670910684" lon="10.225245342091865"><ele>130.0</ele><time>2026-04-19T07:24:12Z</time></trkpt><trkpt lat="44.73724442678782" lon="10.225253283746085"><ele>131.0</ele><time>2026-04-19T07:24:13Z</time></trkpt><trkpt lat="44.737040903675286" lon="10.225260561603115"><ele>131.33333333333331</ele><time>2026-04-19T07:24:14Z</time></trkpt><trkpt lat="44.73684246399334" lon="10.225275286016515"><ele>131.66666666666666</ele><time>2026-04-19T07:24:15Z</time></trkpt><trkpt lat="44.73664808434052" lon="10.225288113938982"><ele>132.0</ele><time>2026-04-19T07:24:16Z</time></trkpt><trkpt lat="44.736455907180265" lon="10.22530377480166"><ele>132.0</ele><time>2026-04-19T07:24:17Z</time></trkpt><trkpt lat="44.736278100970715" lon="10.225317556370511"><ele>132.0</ele><time>2026-04-19T07:24:18Z</time></trkpt><trkpt lat="44.73608530797636" lon="10.225311890578745"><ele>132.0</ele><time>2026-04-19T07:24:19Z</time></trkpt><trkpt lat="44.73588062011169" lon="10.225324774938004"><ele>132.5</ele><time>2026-04-19T07:24:20Z</time></trkpt><trkpt lat="44.73565108947947" lon="10.225339223060603"><ele>133.0</ele><time>2026-04-19T07:24:21Z</time></trkpt><trkpt lat="44.735412826332684" lon="10.225354220857014"><ele>133.5</ele><time>2026-04-19T07:24:22Z</time></trkpt><trkpt lat="44.7351627240304" lon="10.225369963893023"><ele>134.0</ele><time>2026-04-19T07:24:23Z</time></trkpt><trkpt lat="44.73490137505626" lon="10.225387443723719"><ele>134.0</ele><time>2026-04-19T07:24:24Z</time></trkpt><trkpt lat="44.734634491136305" lon="10.225405556486912"><ele>134.0</ele><time>2026-04-19T07:24:25Z</time></trkpt><trkpt lat="44.73437719138159" lon="10.225424538047475"><ele>134.0</ele><time>2026-04-19T07:24:26Z</time></trkpt><trkpt lat="44.73412184295346" lon="10.2254652129632"><ele>134.0</ele><time>2026-04-19T07:24:27Z</time></trkpt><trkpt lat="44.73387468107842" lon="10.225481563293888"><ele>134.0</ele><time>2026-04-19T07:24:28Z</time></trkpt><trkpt lat="44.73363730147112" lon="10.225499763005038"><ele>134.0</ele><time>2026-04-19T07:24:29Z</time></trkpt><trkpt lat="44.73339729361531" lon="10.225498637107602"><ele>135.5</ele><time>2026-04-19T07:24:30Z</time></trkpt><trkpt lat="44.73314791079541" lon="10.225518720695677"><ele>137.0</ele><time>2026-04-19T07:24:30.999Z</time></trkpt><trkpt lat="44.732896656148256" lon="10.22556323312509"><ele>138.0</ele><time>2026-04-19T07:24:31.999Z</time></trkpt><trkpt lat="44.73264194599583" lon="10.225584985910059"><ele>139.0</ele><time>2026-04-19T07:24:32.999Z</time></trkpt><trkpt lat="44.732397332584675" lon="10.225609208650194"><ele>139.0</ele><time>2026-04-19T07:24:33.999Z</time></trkpt><trkpt lat="44.73215008486853" lon="10.225636059974407"><ele>139.0</ele><time>2026-04-19T07:24:34.999Z</time></trkpt><trkpt lat="44.73191222391738" lon="10.225666817536826"><ele>142.0</ele><time>2026-04-19T07:24:35.999Z</time></trkpt><trkpt lat="44.73167266319658" lon="10.225726268585383"><ele>145.0</ele><time>2026-04-19T07:24:36.999Z</time></trkpt><trkpt lat="44.73144175052375" lon="10.225825058737334"><ele>145.0</ele><time>2026-04-19T07:24:37.999Z</time></trkpt><trkpt lat="44.7312196657104" lon="10.225960318356778"><ele>145.0</ele><time>2026-04-19T07:24:38.999Z</time></trkpt><trkpt lat="44.730993622802046" lon="10.226069618260231"><ele>144.5</ele><time>2026-04-19T07:24:39.999Z</time></trkpt><trkpt lat="44.73076859711992" lon="10.226187909879668"><ele>144.0</ele><time>2026-04-19T07:24:40.999Z</time></trkpt><trkpt lat="44.730528412905414" lon="10.226281533695568"><ele>144.0</ele><time>2026-04-19T07:24:41.999Z</time></trkpt><trkpt lat="44.73027648091555" lon="10.226339584044872"><ele>144.0</ele><time>2026-04-19T07:24:42.999Z</time></trkpt><trkpt lat="44.73002644436913" lon="10.22638749754065"><ele>142.5</ele><time>2026-04-19T07:24:43.999Z</time></trkpt><trkpt lat="44.72978801519277" lon="10.226446418981606"><ele>141.0</ele><time>2026-04-19T07:24:44.999Z</time></trkpt><trkpt lat="44.72955891670127" lon="10.226490788272375"><ele>142.5</ele><time>2026-04-19T07:24:45.999Z</time></trkpt><trkpt lat="44.72933576556207" lon="10.226530226061326"><ele>144.0</ele><time>2026-04-19T07:24:46.999Z</time></trkpt><trkpt lat="44.729100654644704" lon="10.226550396575997"><ele>144.0</ele><time>2026-04-19T07:24:47.999Z</time></trkpt><trkpt lat="44.72886697802699" lon="10.22661724491319"><ele>144.0</ele><time>2026-04-19T07:24:48.999Z</time></trkpt><trkpt lat="44.7286336171866" lon="10.226660218742909"><ele>147.0</ele><time>2026-04-19T07:24:49.999Z</time></trkpt><trkpt lat="44.72840083207708" lon="10.226712160247741"><ele>150.0</ele><time>2026-04-19T07:24:50.999Z</time></trkpt><trkpt lat="44.72816661388515" lon="10.22677089831462"><ele>150.0</ele><time>2026-04-19T07:24:51.999Z</time></trkpt><trkpt lat="44.72792393997964" lon="10.226832683132972"><ele>150.0</ele><time>2026-04-19T07:24:52.999Z</time></trkpt><trkpt lat="44.72767265327571" lon="10.226870483783058"><ele>149.66666666666666</ele><time>2026-04-19T07:24:53.999Z</time></trkpt><trkpt lat="44.727450312389095" lon="10.226924480790984"><ele>149.33333333333331</ele><time>2026-04-19T07:24:54.999Z</time></trkpt><trkpt lat="44.72723589217591" lon="10.226976552217963"><ele>149.0</ele><time>2026-04-19T07:24:55.999Z</time></trkpt><trkpt lat="44.72703550438887" lon="10.22702555983539"><ele>148.66666666666666</ele><time>2026-04-19T07:24:56.999Z</time></trkpt><trkpt lat="44.72684509529862" lon="10.227072713187786"><ele>148.33333333333334</ele><time>2026-04-19T07:24:57.999Z</time></trkpt><trkpt lat="44.726648418290296" lon="10.227120287791394"><ele>148.0</ele><time>2026-04-19T07:24:58.999Z</time></trkpt><trkpt lat="44.72646389144261" lon="10.227184715612172"><ele>148.0</ele><time>2026-04-19T07:24:59.999Z</time></trkpt><trkpt lat="44.72629620230822" lon="10.227226981736935"><ele>148.0</ele><time>2026-04-19T07:25:00.999Z</time></trkpt><trkpt lat="44.726137225934366" lon="10.22726686619866"><ele>148.0</ele><time>2026-04-19T07:25:01.999Z</time></trkpt><trkpt lat="44.72599425383703" lon="10.227278933439772"><ele>148.0</ele><time>2026-04-19T07:25:02.999Z</time></trkpt><trkpt lat="44.7258837734814" lon="10.22730567492513"><ele>148.0</ele><time>2026-04-19T07:25:03.999Z</time></trkpt><trkpt lat="44.725796147207866" lon="10.227326887599713"><ele>148.0</ele><time>2026-04-19T07:25:04.999Z</time></trkpt><trkpt lat="44.725719117373814" lon="10.227345535070299"><ele>148.0</ele><time>2026-04-19T07:25:05.999Z</time></trkpt><trkpt lat="44.725638106578" lon="10.22736514624721"><ele>148.0</ele><time>2026-04-19T07:25:06.999Z</time></trkpt><trkpt lat="44.725545137888666" lon="10.227387652193814"><ele>149.0</ele><time>2026-04-19T07:25:07.999Z</time></trkpt><trkpt lat="44.72542873327901" lon="10.227415831548432"><ele>150.0</ele><time>2026-04-19T07:25:08.999Z</time></trkpt><trkpt lat="44.72529556252089" lon="10.22744806966794"><ele>151.0</ele><time>2026-04-19T07:25:09.999Z</time></trkpt><trkpt lat="44.725158966091506" lon="10.227481137079423"><ele>152.0</ele><time>2026-04-19T07:25:10.999Z</time></trkpt><trkpt lat="44.72501846454894" lon="10.227515149835966"><ele>152.0</ele><time>2026-04-19T07:25:11.999Z</time></trkpt><trkpt lat="44.72487760570144" lon="10.227563697315578"><ele>152.0</ele><time>2026-04-19T07:25:12.999Z</time></trkpt><trkpt lat="44.72473675454407" lon="10.22760043399046"><ele>152.0</ele><time>2026-04-19T07:25:13.999Z</time></trkpt><trkpt lat="44.72459297863104" lon="10.22763443892231"><ele>152.0</ele><time>2026-04-19T07:25:14.999Z</time></trkpt><trkpt lat="44.72445931577718" lon="10.227670933216144"><ele>152.5</ele><time>2026-04-19T07:25:15.999Z</time></trkpt><trkpt lat="44.724325084855835" lon="10.227693512692442"><ele>153.0</ele><time>2026-04-19T07:25:16.999Z</time></trkpt><trkpt lat="44.72418817122594" lon="10.227729608247603"><ele>153.5</ele><time>2026-04-19T07:25:17.999Z</time></trkpt><trkpt lat="44.72405331539382" lon="10.227766906363394"><ele>154.0</ele><time>2026-04-19T07:25:18.999Z</time></trkpt><trkpt lat="44.72393049901384" lon="10.227805399265806"><ele>154.0</ele><time>2026-04-19T07:25:19.999Z</time></trkpt><trkpt lat="44.723829712091046" lon="10.227828589332633"><ele>154.0</ele><time>2026-04-19T07:25:21Z</time></trkpt><trkpt lat="44.7237083258001" lon="10.227859359672582"><ele>154.0</ele><time>2026-04-19T07:25:22Z</time></trkpt><trkpt lat="44.723640339923996" lon="10.227887232794162"><ele>154.0</ele><time>2026-04-19T07:25:23Z</time></trkpt><trkpt lat="44.72357697245049" lon="10.227908938275656"><ele>154.0</ele><time>2026-04-19T07:25:24Z</time></trkpt><trkpt lat="44.723462726553684" lon="10.227934627301142"><ele>154.0</ele><time>2026-04-19T07:25:26Z</time></trkpt><trkpt lat="44.72339058662014" lon="10.227949691921461"><ele>154.0</ele><time>2026-04-19T07:25:27Z</time></trkpt><trkpt lat="44.723307621956046" lon="10.227972263961709"><ele>154.0</ele><time>2026-04-19T07:25:28Z</time></trkpt><trkpt lat="44.72321336981642" lon="10.227997720406053"><ele>154.0</ele><time>2026-04-19T07:25:29Z</time></trkpt><trkpt lat="44.72311211668911" lon="10.228024427633303"><ele>154.0</ele><time>2026-04-19T07:25:30Z</time></trkpt><trkpt lat="44.72300509324918" lon="10.228054477325475"><ele>154.0</ele><time>2026-04-19T07:25:31Z</time></trkpt><trkpt lat="44.72290082978758" lon="10.228080531537328"><ele>154.0</ele><time>2026-04-19T07:25:32Z</time></trkpt><trkpt lat="44.72280295174335" lon="10.228113220754437"><ele>154.0</ele><time>2026-04-19T07:25:33Z</time></trkpt><trkpt lat="44.7227217521402" lon="10.228151901798471"><ele>154.0</ele><time>2026-04-19T07:25:34Z</time></trkpt><trkpt lat="44.722641950537714" lon="10.22816683612138"><ele>154.0</ele><time>2026-04-19T07:25:35Z</time></trkpt><trkpt lat="44.72255451233424" lon="10.228144237663717"><ele>153.8</ele><time>2026-04-19T07:25:36Z</time></trkpt><trkpt lat="44.72246649103583" lon="10.228101001023948"><ele>153.60000000000002</ele><time>2026-04-19T07:25:37Z</time></trkpt><trkpt lat="44.72236781164781" lon="10.228086673574147"><ele>153.4</ele><time>2026-04-19T07:25:38Z</time></trkpt><trkpt lat="44.72226902348301" lon="10.228104196136186"><ele>153.20000000000002</ele><time>2026-04-19T07:25:39Z</time></trkpt><trkpt lat="44.72217195596995" lon="10.228109022694664"><ele>153.0</ele><time>2026-04-19T07:25:40Z</time></trkpt><trkpt lat="44.72207314071113" lon="10.228083999668701"><ele>153.0</ele><time>2026-04-19T07:25:41Z</time></trkpt><trkpt lat="44.72196675107004" lon="10.228036060591233"><ele>153.0</ele><time>2026-04-19T07:25:42Z</time></trkpt><trkpt lat="44.721845944316534" lon="10.228016930404014"><ele>153.0</ele><time>2026-04-19T07:25:43Z</time></trkpt><trkpt lat="44.721711066829734" lon="10.228022183932849"><ele>153.0</ele><time>2026-04-19T07:25:44Z</time></trkpt><trkpt lat="44.72157316782545" lon="10.22804139153896"><ele>154.25</ele><time>2026-04-19T07:25:45Z</time></trkpt><trkpt lat="44.72142941862022" lon="10.228055500220455"><ele>155.5</ele><time>2026-04-19T07:25:46Z</time></trkpt><trkpt lat="44.721275394933905" lon="10.228043746896358"><ele>156.75</ele><time>2026-04-19T07:25:47Z</time></trkpt><trkpt lat="44.72113063740708" lon="10.228026225869526"><ele>158.0</ele><time>2026-04-19T07:25:48Z</time></trkpt><trkpt lat="44.720976914925274" lon="10.228009932356809"><ele>159.0</ele><time>2026-04-19T07:25:49Z</time></trkpt><trkpt lat="44.72081521135356" lon="10.228001168326712"><ele>160.0</ele><time>2026-04-19T07:25:50Z</time></trkpt><trkpt lat="44.72064868930969" lon="10.22799632256319"><ele>161.0</ele><time>2026-04-19T07:25:51Z</time></trkpt><trkpt lat="44.72047703918685" lon="10.227991530683223"><ele>161.0</ele><time>2026-04-19T07:25:52Z</time></trkpt><trkpt lat="44.7203093655416" lon="10.227983226769785"><ele>161.0</ele><time>2026-04-19T07:25:53Z</time></trkpt><trkpt lat="44.720146462317835" lon="10.227978361438934"><ele>161.0</ele><time>2026-04-19T07:25:54Z</time></trkpt><trkpt lat="44.71998625470103" lon="10.22797405206006"><ele>162.0</ele><time>2026-04-19T07:25:55Z</time></trkpt><trkpt lat="44.71983120977941" lon="10.227970041567948"><ele>163.0</ele><time>2026-04-19T07:25:56Z</time></trkpt><trkpt lat="44.71967255566669" lon="10.22797745895233"><ele>164.0</ele><time>2026-04-19T07:25:57Z</time></trkpt><trkpt lat="44.71950800622296" lon="10.227973930396626"><ele>165.33333333333331</ele><time>2026-04-19T07:25:58Z</time></trkpt><trkpt lat="44.719349880505455" lon="10.2279366511667"><ele>166.66666666666666</ele><time>2026-04-19T07:25:59Z</time></trkpt><trkpt lat="44.719176914905816" lon="10.227893646195122"><ele>168.0</ele><time>2026-04-19T07:26:00Z</time></trkpt><trkpt lat="44.718998765105226" lon="10.227848185342168"><ele>168.0</ele><time>2026-04-19T07:26:01Z</time></trkpt><trkpt lat="44.71881147123661" lon="10.22780761797533"><ele>168.0</ele><time>2026-04-19T07:26:02Z</time></trkpt><trkpt lat="44.71863354639166" lon="10.227765197965716"><ele>168.0</ele><time>2026-04-19T07:26:03Z</time></trkpt><trkpt lat="44.718471154487744" lon="10.227720812641667"><ele>168.33333333333334</ele><time>2026-04-19T07:26:04Z</time></trkpt><trkpt lat="44.71830444388043" lon="10.227676425436687"><ele>168.66666666666669</ele><time>2026-04-19T07:26:05Z</time></trkpt><trkpt lat="44.71815134014882" lon="10.227627702969983"><ele>169.0</ele><time>2026-04-19T07:26:06Z</time></trkpt><trkpt lat="44.71798993536428" lon="10.227562443407848"><ele>169.0</ele><time>2026-04-19T07:26:07Z</time></trkpt><trkpt lat="44.71783892077545" lon="10.227454419758113"><ele>169.0</ele><time>2026-04-19T07:26:08Z</time></trkpt><trkpt lat="44.71769246194393" lon="10.227300132680336"><ele>169.0</ele><time>2026-04-19T07:26:09Z</time></trkpt><trkpt lat="44.717567174562646" lon="10.227115653549786"><ele>168.33333333333334</ele><time>2026-04-19T07:26:10Z</time></trkpt><trkpt lat="44.7174365754002" lon="10.226943108767633"><ele>167.66666666666666</ele><time>2026-04-19T07:26:11Z</time></trkpt><trkpt lat="44.71730687337213" lon="10.226781225965373"><ele>167.0</ele><time>2026-04-19T07:26:12Z</time></trkpt><trkpt lat="44.71718112621237" lon="10.226630560699645"><ele>167.0</ele><time>2026-04-19T07:26:13Z</time></trkpt><trkpt lat="44.71705966476921" lon="10.226485209500789"><ele>167.0</ele><time>2026-04-19T07:26:14Z</time></trkpt><trkpt lat="44.716965114887635" lon="10.226345447698828"><ele>167.0</ele><time>2026-04-19T07:26:15Z</time></trkpt><trkpt lat="44.71687206087168" lon="10.226257148423054"><ele>167.0</ele><time>2026-04-19T07:26:16Z</time></trkpt><trkpt lat="44.71683407650973" lon="10.226131146430957"><ele>167.0</ele><time>2026-04-19T07:26:17Z</time></trkpt><trkpt lat="44.71683121854061" lon="10.226000244406027"><ele>167.0</ele><time>2026-04-19T07:26:18Z</time></trkpt><trkpt lat="44.71682769774349" lon="10.22588369820336"><ele>167.0</ele><time>2026-04-19T07:26:19Z</time></trkpt><trkpt lat="44.7167747831619" lon="10.225784936572584"><ele>167.0</ele><time>2026-04-19T07:26:20Z</time></trkpt><trkpt lat="44.71667370827785" lon="10.225710063743241"><ele>167.0</ele><time>2026-04-19T07:26:21Z</time></trkpt><trkpt lat="44.716570721744944" lon="10.225670188726767"><ele>167.0</ele><time>2026-04-19T07:26:22Z</time></trkpt><trkpt lat="44.71644512316457" lon="10.225769123105776"><ele>167.0</ele><time>2026-04-19T07:26:23Z</time></trkpt><trkpt lat="44.71630790087463" lon="10.225767126011698"><ele>167.0</ele><time>2026-04-19T07:26:24Z</time></trkpt><trkpt lat="44.716139448361865" lon="10.225691408280735"><ele>167.0</ele><time>2026-04-19T07:26:25Z</time></trkpt><trkpt lat="44.71596039006682" lon="10.225618914951555"><ele>167.0</ele><time>2026-04-19T07:26:26Z</time></trkpt><trkpt lat="44.71577139978215" lon="10.225570912504248"><ele>167.0</ele><time>2026-04-19T07:26:27Z</time></trkpt><trkpt lat="44.71559447005571" lon="10.225519603831396"><ele>167.0</ele><time>2026-04-19T07:26:28Z</time></trkpt><trkpt lat="44.71541845718073" lon="10.225466705612458"><ele>167.0</ele><time>2026-04-19T07:26:29Z</time></trkpt><trkpt lat="44.71525026629941" lon="10.22541276877989"><ele>167.0</ele><time>2026-04-19T07:26:30Z</time></trkpt><trkpt lat="44.715083831085686" lon="10.225365616458307"><ele>168.0</ele><time>2026-04-19T07:26:31Z</time></trkpt><trkpt lat="44.71491687768723" lon="10.22531985048574"><ele>169.0</ele><time>2026-04-19T07:26:32Z</time></trkpt><trkpt lat="44.7147605634666" lon="10.225276152784346"><ele>170.0</ele><time>2026-04-19T07:26:33Z</time></trkpt><trkpt lat="44.71460672444483" lon="10.225226566729377"><ele>170.0</ele><time>2026-04-19T07:26:34Z</time></trkpt><trkpt lat="44.71448218039755" lon="10.225194716485793"><ele>170.0</ele><time>2026-04-19T07:26:35Z</time></trkpt><trkpt lat="44.714409273153166" lon="10.225164764968953"><ele>170.0</ele><time>2026-04-19T07:26:36Z</time></trkpt><trkpt lat="44.7143427367086" lon="10.225132449813023"><ele>170.0</ele><time>2026-04-19T07:26:37.999Z</time></trkpt><trkpt lat="44.714278601263715" lon="10.225095884720522"><ele>170.0</ele><time>2026-04-19T07:26:39.999Z</time></trkpt><trkpt lat="44.71418418549754" lon="10.22508339783508"><ele>170.0</ele><time>2026-04-19T07:26:40.999Z</time></trkpt><trkpt lat="44.71405455928528" lon="10.225082229293506"><ele>171.0</ele><time>2026-04-19T07:26:41.999Z</time></trkpt><trkpt lat="44.713921471528366" lon="10.225046784285897"><ele>172.0</ele><time>2026-04-19T07:26:42.999Z</time></trkpt><trkpt lat="44.71377301170356" lon="10.225024589968205"><ele>173.0</ele><time>2026-04-19T07:26:43.999Z</time></trkpt><trkpt lat="44.71361331391829" lon="10.225000862838872"><ele>174.0</ele><time>2026-04-19T07:26:44.999Z</time></trkpt><trkpt lat="44.713442591687866" lon="10.224976037602481"><ele>174.33333333333334</ele><time>2026-04-19T07:26:45.999Z</time></trkpt><trkpt lat="44.71325591035128" lon="10.224967096263846"><ele>174.66666666666669</ele><time>2026-04-19T07:26:46.999Z</time></trkpt><trkpt lat="44.71307244841492" lon="10.22494284749537"><ele>175.0</ele><time>2026-04-19T07:26:47.999Z</time></trkpt><trkpt lat="44.71288277475747" lon="10.224920347486506"><ele>174.66666666666669</ele><time>2026-04-19T07:26:48.999Z</time></trkpt><trkpt lat="44.71269849917429" lon="10.224880357510445"><ele>174.33333333333334</ele><time>2026-04-19T07:26:49.999Z</time></trkpt><trkpt lat="44.71250657242796" lon="10.224855135364662"><ele>174.0</ele><time>2026-04-19T07:26:50.999Z</time></trkpt><trkpt lat="44.712319925075356" lon="10.224829385982812"><ele>174.66666666666666</ele><time>2026-04-19T07:26:51.999Z</time></trkpt><trkpt lat="44.712149028285005" lon="10.22480547313145"><ele>175.33333333333331</ele><time>2026-04-19T07:26:52.999Z</time></trkpt><trkpt lat="44.71197089540832" lon="10.224795889324335"><ele>176.0</ele><time>2026-04-19T07:26:53.999Z</time></trkpt><trkpt lat="44.711799127837715" lon="10.224765237586302"><ele>176.33333333333331</ele><time>2026-04-19T07:26:54.999Z</time></trkpt><trkpt lat="44.71162584914022" lon="10.224737466933027"><ele>176.66666666666666</ele><time>2026-04-19T07:26:55.999Z</time></trkpt><trkpt lat="44.711455485612206" lon="10.224719275678053"><ele>177.0</ele><time>2026-04-19T07:26:56.999Z</time></trkpt><trkpt lat="44.71128509736772" lon="10.22470427713401"><ele>177.0</ele><time>2026-04-19T07:26:57.999Z</time></trkpt><trkpt lat="44.71110938685685" lon="10.224679668792641"><ele>177.0</ele><time>2026-04-19T07:26:58.999Z</time></trkpt><trkpt lat="44.71092662157752" lon="10.224662425070505"><ele>177.0</ele><time>2026-04-19T07:26:59.999Z</time></trkpt><trkpt lat="44.7107504795867" lon="10.224637371794877"><ele>177.33333333333334</ele><time>2026-04-19T07:27:00.999Z</time></trkpt><trkpt lat="44.71057285207798" lon="10.224610220315496"><ele>177.66666666666669</ele><time>2026-04-19T07:27:01.999Z</time></trkpt><trkpt lat="44.71039665199886" lon="10.224590958654868"><ele>178.0</ele><time>2026-04-19T07:27:02.999Z</time></trkpt><trkpt lat="44.710227223282686" lon="10.224545315638498"><ele>178.0</ele><time>2026-04-19T07:27:03.999Z</time></trkpt><trkpt lat="44.71004479803685" lon="10.224519710808789"><ele>178.0</ele><time>2026-04-19T07:27:04.999Z</time></trkpt><trkpt lat="44.709867595179865" lon="10.224494589697333"><ele>178.0</ele><time>2026-04-19T07:27:05.999Z</time></trkpt><trkpt lat="44.70968310806441" lon="10.22449119444251"><ele>178.0</ele><time>2026-04-19T07:27:06.999Z</time></trkpt><trkpt lat="44.70949214591368" lon="10.22444180427203"><ele>178.0</ele><time>2026-04-19T07:27:07.999Z</time></trkpt><trkpt lat="44.70929031000741" lon="10.224413813245144"><ele>178.0</ele><time>2026-04-19T07:27:08.999Z</time></trkpt><trkpt lat="44.709087788000446" lon="10.224385727063869"><ele>178.33333333333334</ele><time>2026-04-19T07:27:09.999Z</time></trkpt><trkpt lat="44.70888989689449" lon="10.224369856806254"><ele>178.66666666666666</ele><time>2026-04-19T07:27:10.999Z</time></trkpt><trkpt lat="44.70869031739698" lon="10.224349147023522"><ele>179.0</ele><time>2026-04-19T07:27:11.999Z</time></trkpt><trkpt lat="44.70849600429659" lon="10.224303657260819"><ele>179.33333333333331</ele><time>2026-04-19T07:27:12.999Z</time></trkpt><trkpt lat="44.70830428405614" lon="10.224277070966256"><ele>179.66666666666666</ele><time>2026-04-19T07:27:13.999Z</time></trkpt><trkpt lat="44.70811138977573" lon="10.224250890293607"><ele>180.0</ele><time>2026-04-19T07:27:14.999Z</time></trkpt><trkpt lat="44.70792027640391" lon="10.224225022821848"><ele>181.33333333333334</ele><time>2026-04-19T07:27:15.999Z</time></trkpt><trkpt lat="44.70772667566577" lon="10.224220467640336"><ele>182.66666666666669</ele><time>2026-04-19T07:27:16.999Z</time></trkpt><trkpt lat="44.70753513159285" lon="10.224187372485591"><ele>184.0</ele><time>2026-04-19T07:27:17.999Z</time></trkpt><trkpt lat="44.707340903566084" lon="10.22416581569677"><ele>184.0</ele><time>2026-04-19T07:27:18.999Z</time></trkpt><trkpt lat="44.707147780610995" lon="10.224120716369331"><ele>184.0</ele><time>2026-04-19T07:27:19.999Z</time></trkpt><trkpt lat="44.706956423876704" lon="10.22409555208701"><ele>184.0</ele><time>2026-04-19T07:27:20.999Z</time></trkpt><trkpt lat="44.70677509406035" lon="10.224071706377037"><ele>186.0</ele><time>2026-04-19T07:27:21.999Z</time></trkpt><trkpt lat="44.70658315954301" lon="10.224062988696216"><ele>188.0</ele><time>2026-04-19T07:27:22.999Z</time></trkpt><trkpt lat="44.70639492325536" lon="10.224029401503707"><ele>190.0</ele><time>2026-04-19T07:27:23.999Z</time></trkpt><trkpt lat="44.706225120114006" lon="10.22401297029835"><ele>190.66666666666669</ele><time>2026-04-19T07:27:24.999Z</time></trkpt><trkpt lat="44.70605234482046" lon="10.223986745613244"><ele>191.33333333333334</ele><time>2026-04-19T07:27:25.999Z</time></trkpt><trkpt lat="44.70587651233889" lon="10.223960237184121"><ele>192.0</ele><time>2026-04-19T07:27:27Z</time></trkpt><trkpt lat="44.70569968484043" lon="10.223939705205215"><ele>192.0</ele><time>2026-04-19T07:27:28Z</time></trkpt><trkpt lat="44.7055330508323" lon="10.223926418993269"><ele>192.0</ele><time>2026-04-19T07:27:29Z</time></trkpt><trkpt lat="44.705383867516325" lon="10.22392164114194"><ele>192.0</ele><time>2026-04-19T07:27:30Z</time></trkpt><trkpt lat="44.7052538856018" lon="10.223896109974152"><ele>192.0</ele><time>2026-04-19T07:27:31Z</time></trkpt><trkpt lat="44.70514257870332" lon="10.223892184915282"><ele>193.0</ele><time>2026-04-19T07:27:32Z</time></trkpt><trkpt lat="44.705024369233215" lon="10.22388962219119"><ele>194.0</ele><time>2026-04-19T07:27:33Z</time></trkpt><trkpt lat="44.704898146251054" lon="10.223891514427898"><ele>195.0</ele><time>2026-04-19T07:27:34Z</time></trkpt><trkpt lat="44.70476842915483" lon="10.223897044362587"><ele>196.0</ele><time>2026-04-19T07:27:35Z</time></trkpt><trkpt lat="44.704632134994846" lon="10.223902388178248"><ele>196.0</ele><time>2026-04-19T07:27:36Z</time></trkpt><trkpt lat="44.704488515778486" lon="10.223884234048574"><ele>196.0</ele><time>2026-04-19T07:27:37Z</time></trkpt><trkpt lat="44.70434518251987" lon="10.223862414999918"><ele>196.0</ele><time>2026-04-19T07:27:38Z</time></trkpt><trkpt lat="44.704205047777656" lon="10.22380581641102"><ele>196.0</ele><time>2026-04-19T07:27:39Z</time></trkpt><trkpt lat="44.70406183971801" lon="10.223719649850757"><ele>197.0</ele><time>2026-04-19T07:27:40Z</time></trkpt><trkpt lat="44.703910575092905" lon="10.223612103796134"><ele>198.0</ele><time>2026-04-19T07:27:41Z</time></trkpt><trkpt lat="44.70374813402181" lon="10.223493623250322"><ele>199.0</ele><time>2026-04-19T07:27:42Z</time></trkpt><trkpt lat="44.703570202112694" lon="10.223391738720219"><ele>197.66666666666666</ele><time>2026-04-19T07:27:43Z</time></trkpt><trkpt lat="44.70339021770537" lon="10.223263555183383"><ele>196.33333333333331</ele><time>2026-04-19T07:27:44Z</time></trkpt><trkpt lat="44.70322003416194" lon="10.223140279934894"><ele>195.0</ele><time>2026-04-19T07:27:45Z</time></trkpt><trkpt lat="44.70306046826637" lon="10.223007236770059"><ele>195.0</ele><time>2026-04-19T07:27:46Z</time></trkpt><trkpt lat="44.70287457870858" lon="10.22287575646469"><ele>195.0</ele><time>2026-04-19T07:27:47Z</time></trkpt><trkpt lat="44.70268846441403" lon="10.222746111903417"><ele>195.0</ele><time>2026-04-19T07:27:48Z</time></trkpt><trkpt lat="44.7024913764633" lon="10.222641519680705"><ele>193.66666666666666</ele><time>2026-04-19T07:27:49Z</time></trkpt><trkpt lat="44.70229009426536" lon="10.222533350265277"><ele>192.33333333333331</ele><time>2026-04-19T07:27:50Z</time></trkpt><trkpt lat="44.70207011505818" lon="10.222452010803993"><ele>191.0</ele><time>2026-04-19T07:27:51Z</time></trkpt><trkpt lat="44.70184911506847" lon="10.222394850652837"><ele>192.0</ele><time>2026-04-19T07:27:52Z</time></trkpt><trkpt lat="44.701624760704604" lon="10.222332214521812"><ele>193.0</ele><time>2026-04-19T07:27:53Z</time></trkpt><trkpt lat="44.701398085327355" lon="10.222264694264544"><ele>193.0</ele><time>2026-04-19T07:27:54Z</time></trkpt><trkpt lat="44.701195802397734" lon="10.222192681753752"><ele>193.0</ele><time>2026-04-19T07:27:55Z</time></trkpt><trkpt lat="44.70101439866685" lon="10.222143551771026"><ele>193.0</ele><time>2026-04-19T07:27:56Z</time></trkpt><trkpt lat="44.700849130577865" lon="10.22211088314985"><ele>192.33333333333331</ele><time>2026-04-19T07:27:57Z</time></trkpt><trkpt lat="44.70068972917662" lon="10.222125130760006"><ele>191.66666666666666</ele><time>2026-04-19T07:27:58Z</time></trkpt><trkpt lat="44.70052085697477" lon="10.222185146588423"><ele>191.0</ele><time>2026-04-19T07:27:59Z</time></trkpt><trkpt lat="44.70035357698464" lon="10.222268583087029"><ele>191.0</ele><time>2026-04-19T07:28:00Z</time></trkpt><trkpt lat="44.70017831502575" lon="10.222290254864724"><ele>191.0</ele><time>2026-04-19T07:28:01Z</time></trkpt><trkpt lat="44.70001003672085" lon="10.222314447077258"><ele>191.0</ele><time>2026-04-19T07:28:02Z</time></trkpt><trkpt lat="44.69983570980727" lon="10.222314140049162"><ele>191.0</ele><time>2026-04-19T07:28:03Z</time></trkpt><trkpt lat="44.69965638302603" lon="10.222274480533649"><ele>191.0</ele><time>2026-04-19T07:28:04Z</time></trkpt><trkpt lat="44.69946993450682" lon="10.222227592106192"><ele>191.0</ele><time>2026-04-19T07:28:05Z</time></trkpt><trkpt lat="44.699296545261426" lon="10.22214636285171"><ele>191.33333333333331</ele><time>2026-04-19T07:28:06Z</time></trkpt><trkpt lat="44.69912925288696" lon="10.222085288363186"><ele>191.66666666666666</ele><time>2026-04-19T07:28:07Z</time></trkpt><trkpt lat="44.69896483096062" lon="10.222025211032244"><ele>192.0</ele><time>2026-04-19T07:28:08Z</time></trkpt><trkpt lat="44.69881636605307" lon="10.221944036785272"><ele>192.0</ele><time>2026-04-19T07:28:09Z</time></trkpt><trkpt lat="44.69869709430337" lon="10.221910905819104"><ele>192.0</ele><time>2026-04-19T07:28:10Z</time></trkpt><trkpt lat="44.69859927547089" lon="10.221863199921184"><ele>192.0</ele><time>2026-04-19T07:28:11Z</time></trkpt><trkpt lat="44.69850450576252" lon="10.221883759098755"><ele>192.0</ele><time>2026-04-19T07:28:12Z</time></trkpt><trkpt lat="44.698409651892916" lon="10.221975688060347"><ele>192.0</ele><time>2026-04-19T07:28:13Z</time></trkpt><trkpt lat="44.698351076406496" lon="10.22214598853699"><ele>189.33333333333334</ele><time>2026-04-19T07:28:14Z</time></trkpt><trkpt lat="44.69832072458801" lon="10.2223704628337"><ele>186.66666666666669</ele><time>2026-04-19T07:28:15Z</time></trkpt><trkpt lat="44.698244696682934" lon="10.2225719936854"><ele>184.0</ele><time>2026-04-19T07:28:16Z</time></trkpt><trkpt lat="44.69817890748194" lon="10.22275661058585"><ele>184.0</ele><time>2026-04-19T07:28:17Z</time></trkpt><trkpt lat="44.69812161844826" lon="10.222896562581754"><ele>184.0</ele><time>2026-04-19T07:28:18Z</time></trkpt><trkpt lat="44.69806821745942" lon="10.222972085284002"><ele>184.0</ele><time>2026-04-19T07:28:19Z</time></trkpt><trkpt lat="44.69800689357932" lon="10.223010332323696"><ele>184.0</ele><time>2026-04-19T07:28:21Z</time></trkpt><trkpt lat="44.69791091980341" lon="10.222891395177879"><ele>184.0</ele><time>2026-04-19T07:28:22Z</time></trkpt><trkpt lat="44.697813130673744" lon="10.222810804038287"><ele>185.0</ele><time>2026-04-19T07:28:23Z</time></trkpt><trkpt lat="44.69769680307385" lon="10.222727627957939"><ele>186.0</ele><time>2026-04-19T07:28:24Z</time></trkpt><trkpt lat="44.697559703735564" lon="10.222627749135164"><ele>187.0</ele><time>2026-04-19T07:28:25Z</time></trkpt><trkpt lat="44.69739617409068" lon="10.222508910529974"><ele>187.0</ele><time>2026-04-19T07:28:26Z</time></trkpt><trkpt lat="44.69721059701277" lon="10.222387146181886"><ele>187.0</ele><time>2026-04-19T07:28:27Z</time></trkpt><trkpt lat="44.69703884206951" lon="10.222234034048903"><ele>187.0</ele><time>2026-04-19T07:28:28Z</time></trkpt><trkpt lat="44.69683867103039" lon="10.222084110394569"><ele>188.0</ele><time>2026-04-19T07:28:29Z</time></trkpt><trkpt lat="44.69661917131561" lon="10.221920080611152"><ele>189.0</ele><time>2026-04-19T07:28:30Z</time></trkpt><trkpt lat="44.696394760870646" lon="10.221752840947223"><ele>189.0</ele><time>2026-04-19T07:28:31Z</time></trkpt><trkpt lat="44.696180527949615" lon="10.221619509043874"><ele>189.0</ele><time>2026-04-19T07:28:32Z</time></trkpt><trkpt lat="44.69599296054294" lon="10.221453404184246"><ele>189.33333333333334</ele><time>2026-04-19T07:28:33Z</time></trkpt><trkpt lat="44.695802439874114" lon="10.221312426480011"><ele>189.66666666666669</ele><time>2026-04-19T07:28:34Z</time></trkpt><trkpt lat="44.69560879198505" lon="10.221169331609499"><ele>190.0</ele><time>2026-04-19T07:28:35Z</time></trkpt><trkpt lat="44.69541919545288" lon="10.221028902210431"><ele>190.0</ele><time>2026-04-19T07:28:36Z</time></trkpt><trkpt lat="44.695225428337054" lon="10.220885287384048"><ele>190.0</ele><time>2026-04-19T07:28:37Z</time></trkpt><trkpt lat="44.69503849611067" lon="10.220746738433007"><ele>190.0</ele><time>2026-04-19T07:28:38Z</time></trkpt><trkpt lat="44.69485462764092" lon="10.220609796011809"><ele>190.0</ele><time>2026-04-19T07:28:39Z</time></trkpt><trkpt lat="44.6946698708344" lon="10.22047201447516"><ele>190.0</ele><time>2026-04-19T07:28:40Z</time></trkpt><trkpt lat="44.694472784679625" lon="10.220342763707423"><ele>190.0</ele><time>2026-04-19T07:28:41Z</time></trkpt><trkpt lat="44.69428687199146" lon="10.220206908558824"><ele>191.0</ele><time>2026-04-19T07:28:42Z</time></trkpt><trkpt lat="44.694099409587956" lon="10.220070438840672"><ele>192.0</ele><time>2026-04-19T07:28:43Z</time></trkpt><trkpt lat="44.69391063806456" lon="10.219928533556313"><ele>193.0</ele><time>2026-04-19T07:28:43.999Z</time></trkpt><trkpt lat="44.693719450718994" lon="10.219789250794099"><ele>193.66666666666666</ele><time>2026-04-19T07:28:44.999Z</time></trkpt><trkpt lat="44.693523987683946" lon="10.21964444971474"><ele>194.33333333333331</ele><time>2026-04-19T07:28:45.999Z</time></trkpt><trkpt lat="44.69332725179027" lon="10.219497346989707"><ele>195.0</ele><time>2026-04-19T07:28:46.999Z</time></trkpt><trkpt lat="44.69313063284996" lon="10.219352655105983"><ele>195.0</ele><time>2026-04-19T07:28:47.999Z</time></trkpt><trkpt lat="44.69293649975025" lon="10.219210573782902"><ele>195.0</ele><time>2026-04-19T07:28:48.999Z</time></trkpt><trkpt lat="44.692737557562964" lon="10.21906397762793"><ele>195.0</ele><time>2026-04-19T07:28:49.999Z</time></trkpt><trkpt lat="44.69253177447375" lon="10.218912091731601"><ele>195.5</ele><time>2026-04-19T07:28:50.999Z</time></trkpt><trkpt lat="44.692323649875014" lon="10.218758928140863"><ele>196.0</ele><time>2026-04-19T07:28:51.999Z</time></trkpt><trkpt lat="44.69211109381633" lon="10.218599266605992"><ele>197.0</ele><time>2026-04-19T07:28:52.999Z</time></trkpt><trkpt lat="44.69189979767577" lon="10.218438503055767"><ele>198.0</ele><time>2026-04-19T07:28:53.999Z</time></trkpt><trkpt lat="44.691686972399296" lon="10.218281450850297"><ele>197.0</ele><time>2026-04-19T07:28:54.999Z</time></trkpt><trkpt lat="44.691475097477756" lon="10.2181250794275"><ele>196.0</ele><time>2026-04-19T07:28:55.999Z</time></trkpt><trkpt lat="44.691262122670445" lon="10.217971211180783"><ele>197.0</ele><time>2026-04-19T07:28:56.999Z</time></trkpt><trkpt lat="44.691046577640414" lon="10.21781417677925"><ele>198.0</ele><time>2026-04-19T07:28:57.999Z</time></trkpt><trkpt lat="44.69082689431474" lon="10.217651430514783"><ele>198.0</ele><time>2026-04-19T07:28:58.999Z</time></trkpt><trkpt lat="44.69060975780502" lon="10.217484718403817"><ele>198.0</ele><time>2026-04-19T07:28:59.999Z</time></trkpt><trkpt lat="44.69039417665619" lon="10.21732184438699"><ele>200.0</ele><time>2026-04-19T07:29:00.999Z</time></trkpt><trkpt lat="44.690171762774504" lon="10.217158661553247"><ele>202.0</ele><time>2026-04-19T07:29:01.999Z</time></trkpt><trkpt lat="44.689957751672644" lon="10.217003246266296"><ele>202.0</ele><time>2026-04-19T07:29:02.999Z</time></trkpt><trkpt lat="44.68974779744502" lon="10.216847892200477"><ele>202.0</ele><time>2026-04-19T07:29:03.999Z</time></trkpt><trkpt lat="44.68954545974965" lon="10.216677586964064"><ele>202.5</ele><time>2026-04-19T07:29:04.999Z</time></trkpt><trkpt lat="44.68933640958522" lon="10.216521413416496"><ele>203.0</ele><time>2026-04-19T07:29:05.999Z</time></trkpt><trkpt lat="44.68913248236112" lon="10.216368517784392"><ele>203.0</ele><time>2026-04-19T07:29:06.999Z</time></trkpt><trkpt lat="44.6889248557902" lon="10.216213056094311"><ele>203.0</ele><time>2026-04-19T07:29:07.999Z</time></trkpt><trkpt lat="44.68871699732246" lon="10.216082332472244"><ele>202.0</ele><time>2026-04-19T07:29:08.999Z</time></trkpt><trkpt lat="44.68851211116208" lon="10.215923050171469"><ele>201.0</ele><time>2026-04-19T07:29:09.999Z</time></trkpt><trkpt lat="44.688318913272546" lon="10.215732040576524"><ele>200.5</ele><time>2026-04-19T07:29:10.999Z</time></trkpt><trkpt lat="44.68813054684046" lon="10.215539271737157"><ele>200.0</ele><time>2026-04-19T07:29:11.999Z</time></trkpt><trkpt lat="44.68794470963298" lon="10.215345095693223"><ele>200.0</ele><time>2026-04-19T07:29:12.999Z</time></trkpt><trkpt lat="44.68777354194397" lon="10.215168727472372"><ele>200.0</ele><time>2026-04-19T07:29:13.999Z</time></trkpt><trkpt lat="44.68759840968784" lon="10.215009129691799"><ele>200.0</ele><time>2026-04-19T07:29:14.999Z</time></trkpt><trkpt lat="44.687440828534754" lon="10.214850082569347"><ele>201.0</ele><time>2026-04-19T07:29:15.999Z</time></trkpt><trkpt lat="44.68728787577497" lon="10.214665214227598"><ele>202.0</ele><time>2026-04-19T07:29:16.999Z</time></trkpt><trkpt lat="44.68712800244339" lon="10.214499474932367"><ele>203.0</ele><time>2026-04-19T07:29:17.999Z</time></trkpt><trkpt lat="44.6869692484347" lon="10.214335233839945"><ele>203.66666666666669</ele><time>2026-04-19T07:29:18.999Z</time></trkpt><trkpt lat="44.686808170142214" lon="10.214168588032802"><ele>204.33333333333331</ele><time>2026-04-19T07:29:19.999Z</time></trkpt><trkpt lat="44.68664860667359" lon="10.214003230842014"><ele>205.0</ele><time>2026-04-19T07:29:20.999Z</time></trkpt><trkpt lat="44.68648446138431" lon="10.213832671819187"><ele>205.0</ele><time>2026-04-19T07:29:21.999Z</time></trkpt><trkpt lat="44.68632518586112" lon="10.213667172929666"><ele>205.0</ele><time>2026-04-19T07:29:22.999Z</time></trkpt><trkpt lat="44.686161013172494" lon="10.213496585509965"><ele>205.0</ele><time>2026-04-19T07:29:23.999Z</time></trkpt><trkpt lat="44.685987832690316" lon="10.213318839278317"><ele>206.5</ele><time>2026-04-19T07:29:24.999Z</time></trkpt><trkpt lat="44.68579913797681" lon="10.213125933733362"><ele>208.0</ele><time>2026-04-19T07:29:25.999Z</time></trkpt><trkpt lat="44.685597724200136" lon="10.212920025044907"><ele>208.0</ele><time>2026-04-19T07:29:26.999Z</time></trkpt><trkpt lat="44.685387245122875" lon="10.212704839042589"><ele>208.0</ele><time>2026-04-19T07:29:27.999Z</time></trkpt><trkpt lat="44.6851706601445" lon="10.212483410595281"><ele>209.5</ele><time>2026-04-19T07:29:28.999Z</time></trkpt><trkpt lat="44.684927305243896" lon="10.212277424749402"><ele>211.0</ele><time>2026-04-19T07:29:29.999Z</time></trkpt><trkpt lat="44.6847023051128" lon="10.212037731131153"><ele>211.0</ele><time>2026-04-19T07:29:30.999Z</time></trkpt><trkpt lat="44.68447327661727" lon="10.211790548886817"><ele>211.0</ele><time>2026-04-19T07:29:31.999Z</time></trkpt><trkpt lat="44.68424001333547" lon="10.2115433521216"><ele>210.5</ele><time>2026-04-19T07:29:33Z</time></trkpt><trkpt lat="44.68399784067927" lon="10.211292635105407"><ele>210.0</ele><time>2026-04-19T07:29:34Z</time></trkpt><trkpt lat="44.68376375868718" lon="10.211053178576519"><ele>210.5</ele><time>2026-04-19T07:29:35Z</time></trkpt><trkpt lat="44.683519963601206" lon="10.210802632902876"><ele>211.0</ele><time>2026-04-19T07:29:36Z</time></trkpt><trkpt lat="44.68327581818624" lon="10.210552468517257"><ele>211.0</ele><time>2026-04-19T07:29:37Z</time></trkpt><trkpt lat="44.68302955576434" lon="10.210297711729154"><ele>211.0</ele><time>2026-04-19T07:29:38Z</time></trkpt><trkpt lat="44.68278383667049" lon="10.21004306785904"><ele>213.5</ele><time>2026-04-19T07:29:39Z</time></trkpt><trkpt lat="44.68253747873681" lon="10.209787233367"><ele>216.0</ele><time>2026-04-19T07:29:40Z</time></trkpt><trkpt lat="44.68228798856724" lon="10.209531074695953"><ele>216.0</ele><time>2026-04-19T07:29:41Z</time></trkpt><trkpt lat="44.68203696170227" lon="10.20927560421121"><ele>216.0</ele><time>2026-04-19T07:29:42Z</time></trkpt><trkpt lat="44.68178093510212" lon="10.209017535498011"><ele>215.0</ele><time>2026-04-19T07:29:43Z</time></trkpt><trkpt lat="44.68152975301856" lon="10.208762785823614"><ele>214.0</ele><time>2026-04-19T07:29:44Z</time></trkpt><trkpt lat="44.6812730409747" lon="10.20850313694201"><ele>214.0</ele><time>2026-04-19T07:29:45Z</time></trkpt><trkpt lat="44.68102184107715" lon="10.208244925255979"><ele>214.0</ele><time>2026-04-19T07:29:46Z</time></trkpt><trkpt lat="44.68076932561912" lon="10.20798479660338"><ele>214.0</ele><time>2026-04-19T07:29:47Z</time></trkpt><trkpt lat="44.68051819102087" lon="10.207728826422663"><ele>214.0</ele><time>2026-04-19T07:29:48Z</time></trkpt><trkpt lat="44.68026484520392" lon="10.207468524224318"><ele>216.5</ele><time>2026-04-19T07:29:49Z</time></trkpt><trkpt lat="44.680016238363386" lon="10.207215406128014"><ele>219.0</ele><time>2026-04-19T07:29:50Z</time></trkpt><trkpt lat="44.67977154723713" lon="10.206964378287301"><ele>219.0</ele><time>2026-04-19T07:29:51Z</time></trkpt><trkpt lat="44.67952983812133" lon="10.206712219743425"><ele>219.0</ele><time>2026-04-19T07:29:52Z</time></trkpt><trkpt lat="44.679287362548585" lon="10.206456203745203"><ele>220.0</ele><time>2026-04-19T07:29:53Z</time></trkpt><trkpt lat="44.67904961534726" lon="10.20620994626711"><ele>221.0</ele><time>2026-04-19T07:29:54Z</time></trkpt><trkpt lat="44.678814047190585" lon="10.205968728458016"><ele>221.0</ele><time>2026-04-19T07:29:55Z</time></trkpt><trkpt lat="44.67857347329571" lon="10.205731229581815"><ele>221.0</ele><time>2026-04-19T07:29:56Z</time></trkpt><trkpt lat="44.67834088133934" lon="10.205491972997368"><ele>223.5</ele><time>2026-04-19T07:29:57Z</time></trkpt><trkpt lat="44.67810262661501" lon="10.20524973913998"><ele>226.0</ele><time>2026-04-19T07:29:58Z</time></trkpt><trkpt lat="44.677872187538775" lon="10.20501289891288"><ele>226.0</ele><time>2026-04-19T07:29:59Z</time></trkpt><trkpt lat="44.67763717201648" lon="10.204775079583031"><ele>226.0</ele><time>2026-04-19T07:30:00Z</time></trkpt><trkpt lat="44.67739882255401" lon="10.204533031343772"><ele>226.0</ele><time>2026-04-19T07:30:01Z</time></trkpt><trkpt lat="44.67716891177805" lon="10.204298575748913"><ele>226.0</ele><time>2026-04-19T07:30:02Z</time></trkpt><trkpt lat="44.676938904906436" lon="10.2040655020186"><ele>227.5</ele><time>2026-04-19T07:30:03Z</time></trkpt><trkpt lat="44.67670504387005" lon="10.20382782986498"><ele>229.0</ele><time>2026-04-19T07:30:04Z</time></trkpt><trkpt lat="44.67649056289254" lon="10.203613343405026"><ele>229.0</ele><time>2026-04-19T07:30:05Z</time></trkpt><trkpt lat="44.67629318558845" lon="10.203413899778173"><ele>229.0</ele><time>2026-04-19T07:30:06Z</time></trkpt><trkpt lat="44.67608445426729" lon="10.203203668664987"><ele>227.5</ele><time>2026-04-19T07:30:07Z</time></trkpt><trkpt lat="44.675866277842424" lon="10.20299561445585"><ele>226.0</ele><time>2026-04-19T07:30:08Z</time></trkpt><trkpt lat="44.675641438318785" lon="10.202795215654175"><ele>226.0</ele><time>2026-04-19T07:30:09Z</time></trkpt><trkpt lat="44.675405796100314" lon="10.202605466145217"><ele>226.0</ele><time>2026-04-19T07:30:10Z</time></trkpt><trkpt lat="44.675164897103116" lon="10.202428934937776"><ele>226.0</ele><time>2026-04-19T07:30:11Z</time></trkpt><trkpt lat="44.67491812951576" lon="10.2022506487075"><ele>226.0</ele><time>2026-04-19T07:30:12Z</time></trkpt><trkpt lat="44.67468305076616" lon="10.202068989334805"><ele>226.0</ele><time>2026-04-19T07:30:13Z</time></trkpt><trkpt lat="44.67445032636128" lon="10.201885017089042"><ele>226.0</ele><time>2026-04-19T07:30:14Z</time></trkpt><trkpt lat="44.67421547605403" lon="10.201702761594959"><ele>227.0</ele><time>2026-04-19T07:30:15Z</time></trkpt><trkpt lat="44.67398991500517" lon="10.201529065214643"><ele>228.0</ele><time>2026-04-19T07:30:16Z</time></trkpt><trkpt lat="44.67376208908719" lon="10.201353599180532"><ele>229.5</ele><time>2026-04-19T07:30:17Z</time></trkpt><trkpt lat="44.67355294551762" lon="10.201187269581142"><ele>231.0</ele><time>2026-04-19T07:30:18Z</time></trkpt><trkpt lat="44.67336246782119" lon="10.201019839676864"><ele>231.0</ele><time>2026-04-19T07:30:19Z</time></trkpt><trkpt lat="44.673194520617706" lon="10.200820789528033"><ele>231.0</ele><time>2026-04-19T07:30:20Z</time></trkpt><trkpt lat="44.67305756642283" lon="10.200564020580547"><ele>231.0</ele><time>2026-04-19T07:30:21Z</time></trkpt><trkpt lat="44.67292630029174" lon="10.200263433058275"><ele>231.0</ele><time>2026-04-19T07:30:22Z</time></trkpt><trkpt lat="44.672776342329946" lon="10.199972711189021"><ele>231.0</ele><time>2026-04-19T07:30:23Z</time></trkpt><trkpt lat="44.672619809966115" lon="10.199697777162951"><ele>230.5</ele><time>2026-04-19T07:30:24Z</time></trkpt><trkpt lat="44.672465759003686" lon="10.199419543391508"><ele>230.0</ele><time>2026-04-19T07:30:25Z</time></trkpt><trkpt lat="44.67231849225411" lon="10.199146862599978"><ele>231.0</ele><time>2026-04-19T07:30:26Z</time></trkpt><trkpt lat="44.67217032510301" lon="10.198869527828457"><ele>232.0</ele><time>2026-04-19T07:30:27Z</time></trkpt><trkpt lat="44.67202710655746" lon="10.198607210280437"><ele>232.66666666666666</ele><time>2026-04-19T07:30:28Z</time></trkpt><trkpt lat="44.67188810369435" lon="10.198357945046528"><ele>233.33333333333331</ele><time>2026-04-19T07:30:29Z</time></trkpt><trkpt lat="44.671756891036786" lon="10.198120300389755"><ele>234.0</ele><time>2026-04-19T07:30:30Z</time></trkpt><trkpt lat="44.67162897638314" lon="10.197886728661626"><ele>235.0</ele><time>2026-04-19T07:30:31Z</time></trkpt><trkpt lat="44.67151545627418" lon="10.197682496052874"><ele>236.0</ele><time>2026-04-19T07:30:32Z</time></trkpt><trkpt lat="44.67139844731188" lon="10.19748193215987"><ele>237.0</ele><time>2026-04-19T07:30:33Z</time></trkpt><trkpt lat="44.671272100622105" lon="10.197262410151536"><ele>237.33333333333331</ele><time>2026-04-19T07:30:34Z</time></trkpt><trkpt lat="44.67116765209391" lon="10.197014163071998"><ele>237.66666666666666</ele><time>2026-04-19T07:30:35Z</time></trkpt><trkpt lat="44.67100736762268" lon="10.196816261091799"><ele>238.0</ele><time>2026-04-19T07:30:36Z</time></trkpt><trkpt lat="44.67083395304128" lon="10.196628718279774"><ele>239.0</ele><time>2026-04-19T07:30:37Z</time></trkpt><trkpt lat="44.67063447941905" lon="10.196435418575065"><ele>240.0</ele><time>2026-04-19T07:30:38Z</time></trkpt><trkpt lat="44.67043587549959" lon="10.196200025950253"><ele>240.5</ele><time>2026-04-19T07:30:39Z</time></trkpt><trkpt lat="44.670224889353165" lon="10.195977421363125"><ele>241.0</ele><time>2026-04-19T07:30:40Z</time></trkpt><trkpt lat="44.67000222186419" lon="10.19577449362671"><ele>242.0</ele><time>2026-04-19T07:30:41Z</time></trkpt><trkpt lat="44.669796079534876" lon="10.195547893584004"><ele>243.0</ele><time>2026-04-19T07:30:42Z</time></trkpt><trkpt lat="44.66958819275122" lon="10.195330971390229"><ele>242.5</ele><time>2026-04-19T07:30:43Z</time></trkpt><trkpt lat="44.669379411992054" lon="10.195113312205853"><ele>242.0</ele><time>2026-04-19T07:30:44Z</time></trkpt><trkpt lat="44.66916877670727" lon="10.194895015537334"><ele>242.5</ele><time>2026-04-19T07:30:45Z</time></trkpt><trkpt lat="44.66896147749425" lon="10.194681080804594"><ele>243.0</ele><time>2026-04-19T07:30:46Z</time></trkpt><trkpt lat="44.66875730509094" lon="10.194474785981074"><ele>242.0</ele><time>2026-04-19T07:30:46.999Z</time></trkpt><trkpt lat="44.6685685716407" lon="10.194251494594699"><ele>241.0</ele><time>2026-04-19T07:30:47.999Z</time></trkpt><trkpt lat="44.668375381122196" lon="10.194050749207022"><ele>242.0</ele><time>2026-04-19T07:30:48.999Z</time></trkpt><trkpt lat="44.66816933935088" lon="10.193863593440321"><ele>243.0</ele><time>2026-04-19T07:30:49.999Z</time></trkpt><trkpt lat="44.66798325112965" lon="10.193661997142947"><ele>243.0</ele><time>2026-04-19T07:30:50.999Z</time></trkpt><trkpt lat="44.66780698249968" lon="10.193477501502464"><ele>243.0</ele><time>2026-04-19T07:30:51.999Z</time></trkpt><trkpt lat="44.66762949530337" lon="10.193298443480188"><ele>243.0</ele><time>2026-04-19T07:30:52.999Z</time></trkpt><trkpt lat="44.667448232420874" lon="10.19311235548213"><ele>244.33333333333331</ele><time>2026-04-19T07:30:53.999Z</time></trkpt><trkpt lat="44.66727771014605" lon="10.192927094075117"><ele>245.66666666666666</ele><time>2026-04-19T07:30:54.999Z</time></trkpt><trkpt lat="44.66711784218024" lon="10.192752882820146"><ele>247.0</ele><time>2026-04-19T07:30:55.999Z</time></trkpt><trkpt lat="44.66697475908884" lon="10.192591273341778"><ele>247.0</ele><time>2026-04-19T07:30:56.999Z</time></trkpt><trkpt lat="44.6668355787072" lon="10.192430030243425"><ele>247.0</ele><time>2026-04-19T07:30:57.999Z</time></trkpt><trkpt lat="44.66671383734225" lon="10.19229199929999"><ele>247.0</ele><time>2026-04-19T07:30:58.999Z</time></trkpt><trkpt lat="44.6665778903417" lon="10.192139438116303"><ele>247.66666666666666</ele><time>2026-04-19T07:30:59.999Z</time></trkpt><trkpt lat="44.66644721186732" lon="10.191991856439522"><ele>248.33333333333331</ele><time>2026-04-19T07:31:00.999Z</time></trkpt><trkpt lat="44.66633908980925" lon="10.191842260782533"><ele>249.0</ele><time>2026-04-19T07:31:01.999Z</time></trkpt><trkpt lat="44.666218993949926" lon="10.191730573040628"><ele>249.0</ele><time>2026-04-19T07:31:02.999Z</time></trkpt><trkpt lat="44.66611623227559" lon="10.191610745920217"><ele>248.99999999999997</ele><time>2026-04-19T07:31:03.999Z</time></trkpt><trkpt lat="44.66601809189983" lon="10.191499682986214"><ele>248.99999999999997</ele><time>2026-04-19T07:31:04.999Z</time></trkpt><trkpt lat="44.6659383010774" lon="10.191408490410266"><ele>249.0</ele><time>2026-04-19T07:31:05.999Z</time></trkpt><trkpt lat="44.66588110725864" lon="10.191342248669903"><ele>249.0</ele><time>2026-04-19T07:31:06.999Z</time></trkpt><trkpt lat="44.66581845409978" lon="10.191251962235063"><ele>248.79999999999998</ele><time>2026-04-19T07:31:08.999Z</time></trkpt><trkpt lat="44.665854727696214" lon="10.191137687406718"><ele>248.59999999999997</ele><time>2026-04-19T07:31:10.999Z</time></trkpt><trkpt lat="44.66591458830675" lon="10.191096387869774"><ele>248.4</ele><time>2026-04-19T07:31:11.999Z</time></trkpt><trkpt lat="44.6659873535969" lon="10.191025010892822"><ele>248.2</ele><time>2026-04-19T07:31:12.999Z</time></trkpt><trkpt lat="44.666067750795584" lon="10.190936730357985"><ele>248.0</ele><time>2026-04-19T07:31:13.999Z</time></trkpt><trkpt lat="44.66616378693262" lon="10.190836842766684"><ele>249.25</ele><time>2026-04-19T07:31:14.999Z</time></trkpt><trkpt lat="44.66626555878014" lon="10.19073703434342"><ele>250.5</ele><time>2026-04-19T07:31:15.999Z</time></trkpt><trkpt lat="44.66636478752735" lon="10.190638010064923"><ele>251.75</ele><time>2026-04-19T07:31:16.999Z</time></trkpt><trkpt lat="44.66645867705915" lon="10.190537619605793"><ele>253.0</ele><time>2026-04-19T07:31:17.999Z</time></trkpt><trkpt lat="44.66655611801256" lon="10.190435204392092"><ele>254.33333333333331</ele><time>2026-04-19T07:31:18.999Z</time></trkpt><trkpt lat="44.66665441567709" lon="10.190348707928244"><ele>255.66666666666666</ele><time>2026-04-19T07:31:19.999Z</time></trkpt><trkpt lat="44.66673181516047" lon="10.19027188047441"><ele>257.0</ele><time>2026-04-19T07:31:20.999Z</time></trkpt><trkpt lat="44.66678405053674" lon="10.190217976694042"><ele>258.3333333333333</ele><time>2026-04-19T07:31:21.999Z</time></trkpt><trkpt lat="44.66685716304285" lon="10.190153179019612"><ele>259.6666666666667</ele><time>2026-04-19T07:31:23.999Z</time></trkpt><trkpt lat="44.666870628985876" lon="10.190040824069873"><ele>261.0</ele><time>2026-04-19T07:31:25.999Z</time></trkpt><trkpt lat="44.66678466851096" lon="10.190000937858585"><ele>261.0</ele><time>2026-04-19T07:31:26.999Z</time></trkpt><trkpt lat="44.66671665666338" lon="10.190059496623299"><ele>261.0</ele><time>2026-04-19T07:31:27.999Z</time></trkpt><trkpt lat="44.6666346909217" lon="10.189988503166573"><ele>261.0</ele><time>2026-04-19T07:31:29.999Z</time></trkpt><trkpt lat="44.666567173961035" lon="10.18993110363059"><ele>261.0</ele><time>2026-04-19T07:31:30.999Z</time></trkpt><trkpt lat="44.666492595096116" lon="10.189864389828253"><ele>261.0</ele><time>2026-04-19T07:31:31.999Z</time></trkpt><trkpt lat="44.66642220823172" lon="10.189805708654898"><ele>261.0</ele><time>2026-04-19T07:31:32.999Z</time></trkpt><trkpt lat="44.66634773354972" lon="10.189761731696398"><ele>262.5</ele><time>2026-04-19T07:31:34.999Z</time></trkpt><trkpt lat="44.66640959457701" lon="10.189683072628842"><ele>264.0</ele><time>2026-04-19T07:31:36.999Z</time></trkpt><trkpt lat="44.66644466709374" lon="10.189608709244398"><ele>265.5</ele><time>2026-04-19T07:31:37.999Z</time></trkpt><trkpt lat="44.66647406848493" lon="10.189505923442908"><ele>267.0</ele><time>2026-04-19T07:31:39Z</time></trkpt><trkpt lat="44.666517798649174" lon="10.1894098058107"><ele>268.5</ele><time>2026-04-19T07:31:40Z</time></trkpt><trkpt lat="44.66650822342583" lon="10.189270918162151"><ele>270.0</ele><time>2026-04-19T07:31:41Z</time></trkpt><trkpt lat="44.66648775918824" lon="10.189135012086181"><ele>270.0</ele><time>2026-04-19T07:31:42Z</time></trkpt><trkpt lat="44.66644347043606" lon="10.18901650512267"><ele>270.0</ele><time>2026-04-19T07:31:43Z</time></trkpt><trkpt lat="44.666417971967704" lon="10.188912387269617"><ele>270.0</ele><time>2026-04-19T07:31:44Z</time></trkpt><trkpt lat="44.66647536908359" lon="10.188787813139658"><ele>270.0</ele><time>2026-04-19T07:31:45Z</time></trkpt><trkpt lat="44.66651880151617" lon="10.188605163524052"><ele>270.0</ele><time>2026-04-19T07:31:46Z</time></trkpt><trkpt lat="44.666565017937536" lon="10.18840947024033"><ele>272.25</ele><time>2026-04-19T07:31:47Z</time></trkpt><trkpt lat="44.666598960639696" lon="10.188189847335993"><ele>274.5</ele><time>2026-04-19T07:31:48Z</time></trkpt><trkpt lat="44.666639966807985" lon="10.187994175973511"><ele>276.75</ele><time>2026-04-19T07:31:49Z</time></trkpt><trkpt lat="44.666716759104595" lon="10.187836156901673"><ele>279.0</ele><time>2026-04-19T07:31:50Z</time></trkpt><trkpt lat="44.66680896577373" lon="10.187753639220524"><ele>280.59999999999997</ele><time>2026-04-19T07:31:51Z</time></trkpt><trkpt lat="44.66691236014751" lon="10.187656381106583"><ele>282.2</ele><time>2026-04-19T07:31:52Z</time></trkpt><trkpt lat="44.66698891329014" lon="10.18755121602935"><ele>283.79999999999995</ele><time>2026-04-19T07:31:53Z</time></trkpt><trkpt lat="44.66703839623779" lon="10.18748631062839"><ele>285.4</ele><time>2026-04-19T07:31:54Z</time></trkpt><trkpt lat="44.666988430715875" lon="10.187337446858328"><ele>287.0</ele><time>2026-04-19T07:31:55Z</time></trkpt><trkpt lat="44.666914328323884" lon="10.187215245086254"><ele>292.6666666666667</ele><time>2026-04-19T07:31:56Z</time></trkpt><trkpt lat="44.66683805971831" lon="10.187053410916404"><ele>298.3333333333333</ele><time>2026-04-19T07:31:57Z</time></trkpt><trkpt lat="44.66674830800749" lon="10.186871179328607"><ele>304.0</ele><time>2026-04-19T07:31:58Z</time></trkpt><trkpt lat="44.66663699669787" lon="10.186686721264877"><ele>310.0</ele><time>2026-04-19T07:31:59Z</time></trkpt><trkpt lat="44.666533023656264" lon="10.18647278561361"><ele>316.0</ele><time>2026-04-19T07:32:00Z</time></trkpt><trkpt lat="44.66643022019316" lon="10.186268519794298"><ele>322.0</ele><time>2026-04-19T07:32:01Z</time></trkpt><trkpt lat="44.66631360646822" lon="10.186118663349706"><ele>322.0</ele><time>2026-04-19T07:32:02Z</time></trkpt><trkpt lat="44.66618566062472" lon="10.186005091663773"><ele>322.0</ele><time>2026-04-19T07:32:03Z</time></trkpt><trkpt lat="44.66608601479752" lon="10.185873388648501"><ele>322.0</ele><time>2026-04-19T07:32:04Z</time></trkpt><trkpt lat="44.66602793945124" lon="10.185738404469033"><ele>322.0</ele><time>2026-04-19T07:32:05Z</time></trkpt><trkpt lat="44.66597965999661" lon="10.185553069905012"><ele>323.0</ele><time>2026-04-19T07:32:06Z</time></trkpt><trkpt lat="44.665950538949055" lon="10.185358846801114"><ele>324.0</ele><time>2026-04-19T07:32:07Z</time></trkpt><trkpt lat="44.665956858556044" lon="10.185155440334366"><ele>325.0</ele><time>2026-04-19T07:32:08Z</time></trkpt><trkpt lat="44.66594610541075" lon="10.184957625404524"><ele>326.0</ele><time>2026-04-19T07:32:09Z</time></trkpt><trkpt lat="44.66592203557607" lon="10.184786510204603"><ele>326.0</ele><time>2026-04-19T07:32:10Z</time></trkpt><trkpt lat="44.66582960830094" lon="10.184619539700853"><ele>326.0</ele><time>2026-04-19T07:32:11Z</time></trkpt><trkpt lat="44.665684355571095" lon="10.184472501006214"><ele>326.0</ele><time>2026-04-19T07:32:12Z</time></trkpt><trkpt lat="44.6655771653422" lon="10.184315377036636"><ele>326.0</ele><time>2026-04-19T07:32:13Z</time></trkpt><trkpt lat="44.66550685691929" lon="10.184199489760053"><ele>326.0</ele><time>2026-04-19T07:32:14Z</time></trkpt><trkpt lat="44.665498596262715" lon="10.184045193124652"><ele>326.0</ele><time>2026-04-19T07:32:16Z</time></trkpt><trkpt lat="44.66557137647897" lon="10.18398338466703"><ele>326.0</ele><time>2026-04-19T07:32:17Z</time></trkpt><trkpt lat="44.66566256377793" lon="10.183966388764933"><ele>326.0</ele><time>2026-04-19T07:32:18Z</time></trkpt><trkpt lat="44.665753500002715" lon="10.184093020934114"><ele>326.0</ele><time>2026-04-19T07:32:19Z</time></trkpt><trkpt lat="44.66588844219588" lon="10.184211658505324"><ele>326.0</ele><time>2026-04-19T07:32:20Z</time></trkpt><trkpt lat="44.66604217364188" lon="10.184363337398466"><ele>326.0</ele><time>2026-04-19T07:32:21Z</time></trkpt><trkpt lat="44.66618193698336" lon="10.184486703128226"><ele>330.20000000000005</ele><time>2026-04-19T07:32:22Z</time></trkpt><trkpt lat="44.66628940547885" lon="10.184553941511009"><ele>334.40000000000003</ele><time>2026-04-19T07:32:23Z</time></trkpt><trkpt lat="44.666360431679244" lon="10.184531849352675"><ele>338.6</ele><time>2026-04-19T07:32:24Z</time></trkpt><trkpt lat="44.66641093906074" lon="10.184438942101304"><ele>342.8</ele><time>2026-04-19T07:32:25Z</time></trkpt><trkpt lat="44.66641906185779" lon="10.184298778337888"><ele>347.0</ele><time>2026-04-19T07:32:26Z</time></trkpt><trkpt lat="44.666356286322824" lon="10.184150836135435"><ele>344.6666666666667</ele><time>2026-04-19T07:32:27Z</time></trkpt><trkpt lat="44.66623792944469" lon="10.184001357399577"><ele>342.3333333333333</ele><time>2026-04-19T07:32:28Z</time></trkpt><trkpt lat="44.666110437178006" lon="10.18381196866198"><ele>340.0</ele><time>2026-04-19T07:32:29Z</time></trkpt><trkpt lat="44.66595836439294" lon="10.183625449408305"><ele>340.0</ele><time>2026-04-19T07:32:30Z</time></trkpt><trkpt lat="44.66584271142844" lon="10.183456847398032"><ele>340.0</ele><time>2026-04-19T07:32:31Z</time></trkpt><trkpt lat="44.665766166035596" lon="10.18330341329321"><ele>340.0</ele><time>2026-04-19T07:32:32Z</time></trkpt><trkpt lat="44.66573091672116" lon="10.183185499995638"><ele>340.0</ele><time>2026-04-19T07:32:33Z</time></trkpt><trkpt lat="44.66576560576015" lon="10.183049783742012"><ele>341.5</ele><time>2026-04-19T07:32:34Z</time></trkpt><trkpt lat="44.665812193616794" lon="10.182868006756332"><ele>343.0</ele><time>2026-04-19T07:32:35Z</time></trkpt><trkpt lat="44.665867983284656" lon="10.182658949424757"><ele>344.5</ele><time>2026-04-19T07:32:36Z</time></trkpt><trkpt lat="44.66592117103647" lon="10.18248796885264"><ele>346.0</ele><time>2026-04-19T07:32:37Z</time></trkpt><trkpt lat="44.66597921927279" lon="10.182375141593393"><ele>346.0</ele><time>2026-04-19T07:32:38Z</time></trkpt><trkpt lat="44.66608474405369" lon="10.182365116112743"><ele>346.0</ele><time>2026-04-19T07:32:40Z</time></trkpt><trkpt lat="44.666137961586294" lon="10.182510359178899"><ele>346.0</ele><time>2026-04-19T07:32:41Z</time></trkpt><trkpt lat="44.666227472313764" lon="10.182656377823891"><ele>346.0</ele><time>2026-04-19T07:32:42Z</time></trkpt><trkpt lat="44.6663472348693" lon="10.182798768361089"><ele>350.66666666666663</ele><time>2026-04-19T07:32:43Z</time></trkpt><trkpt lat="44.66648819097287" lon="10.18295076496076"><ele>355.3333333333333</ele><time>2026-04-19T07:32:44Z</time></trkpt><trkpt lat="44.666645434446714" lon="10.183094021953506"><ele>360.0</ele><time>2026-04-19T07:32:45Z</time></trkpt><trkpt lat="44.66679553399898" lon="10.183233512527192"><ele>360.0</ele><time>2026-04-19T07:32:46Z</time></trkpt><trkpt lat="44.66692292642004" lon="10.183377611313897"><ele>360.0</ele><time>2026-04-19T07:32:47Z</time></trkpt><trkpt lat="44.66702245127105" lon="10.18352517148689"><ele>360.0</ele><time>2026-04-19T07:32:48Z</time></trkpt><trkpt lat="44.66709590805835" lon="10.18361107635557"><ele>360.0</ele><time>2026-04-19T07:32:49Z</time></trkpt><trkpt lat="44.667166509644765" lon="10.183611911274081"><ele>368.0</ele><time>2026-04-19T07:32:50Z</time></trkpt><trkpt lat="44.667226832375896" lon="10.183543417534352"><ele>376.0</ele><time>2026-04-19T07:32:51Z</time></trkpt><trkpt lat="44.66724995328699" lon="10.183413298436992"><ele>384.0</ele><time>2026-04-19T07:32:52Z</time></trkpt><trkpt lat="44.66722302556393" lon="10.183233105651256"><ele>392.0</ele><time>2026-04-19T07:32:53Z</time></trkpt><trkpt lat="44.66720221983509" lon="10.18301490361122"><ele>394.5</ele><time>2026-04-19T07:32:53.999Z</time></trkpt><trkpt lat="44.66716218825518" lon="10.182804794605376"><ele>397.0</ele><time>2026-04-19T07:32:54.999Z</time></trkpt><trkpt lat="44.66710334885416" lon="10.182611774191011"><ele>399.5</ele><time>2026-04-19T07:32:55.999Z</time></trkpt><trkpt lat="44.66705995596838" lon="10.182451979042751"><ele>402.0</ele><time>2026-04-19T07:32:56.999Z</time></trkpt><trkpt lat="44.6670707468867" lon="10.182322167893403"><ele>406.0</ele><time>2026-04-19T07:32:57.999Z</time></trkpt><trkpt lat="44.667112275454805" lon="10.182133796698018"><ele>410.0</ele><time>2026-04-19T07:32:58.999Z</time></trkpt><trkpt lat="44.66709990404755" lon="10.18191009657694"><ele>414.0</ele><time>2026-04-19T07:32:59.999Z</time></trkpt><trkpt lat="44.667072240843744" lon="10.181697719398752"><ele>415.5</ele><time>2026-04-19T07:33:00.999Z</time></trkpt><trkpt lat="44.667038584493724" lon="10.181499226215767"><ele>417.0</ele><time>2026-04-19T07:33:01.999Z</time></trkpt><trkpt lat="44.66699947766996" lon="10.181311536049005"><ele>418.5</ele><time>2026-04-19T07:33:02.999Z</time></trkpt><trkpt lat="44.6669837440321" lon="10.181116860639731"><ele>420.0</ele><time>2026-04-19T07:33:03.999Z</time></trkpt><trkpt lat="44.666935061416225" lon="10.180901237521443"><ele>419.0</ele><time>2026-04-19T07:33:04.999Z</time></trkpt><trkpt lat="44.6668656601995" lon="10.180708010046356"><ele>418.0</ele><time>2026-04-19T07:33:05.999Z</time></trkpt><trkpt lat="44.66678673196531" lon="10.180525018614137"><ele>417.0</ele><time>2026-04-19T07:33:06.999Z</time></trkpt><trkpt lat="44.666697118016714" lon="10.180384621765828"><ele>416.0</ele><time>2026-04-19T07:33:07.999Z</time></trkpt><trkpt lat="44.66660339828501" lon="10.180250864933672"><ele>416.0</ele><time>2026-04-19T07:33:08.999Z</time></trkpt><trkpt lat="44.66650777517595" lon="10.180116716417878"><ele>416.0</ele><time>2026-04-19T07:33:09.999Z</time></trkpt><trkpt lat="44.66640356397334" lon="10.17997337130258"><ele>416.0</ele><time>2026-04-19T07:33:10.999Z</time></trkpt><trkpt lat="44.66630975358631" lon="10.17984540348039"><ele>416.0</ele><time>2026-04-19T07:33:11.999Z</time></trkpt><trkpt lat="44.666241692409095" lon="10.179735748366195"><ele>419.0</ele><time>2026-04-19T07:33:12.999Z</time></trkpt><trkpt lat="44.666199602801015" lon="10.179602900572217"><ele>422.0</ele><time>2026-04-19T07:33:13.999Z</time></trkpt><trkpt lat="44.666187846850306" lon="10.179432220449307"><ele>425.0</ele><time>2026-04-19T07:33:14.999Z</time></trkpt><trkpt lat="44.666206941898935" lon="10.179245163955558"><ele>428.0</ele><time>2026-04-19T07:33:15.999Z</time></trkpt><trkpt lat="44.66625576402468" lon="10.179025693852903"><ele>428.25</ele><time>2026-04-19T07:33:16.999Z</time></trkpt><trkpt lat="44.66629480672644" lon="10.178832776944859"><ele>428.5</ele><time>2026-04-19T07:33:17.999Z</time></trkpt><trkpt lat="44.66629080202125" lon="10.178635153035827"><ele>428.75</ele><time>2026-04-19T07:33:18.999Z</time></trkpt><trkpt lat="44.6662380555817" lon="10.178437558725307"><ele>429.0</ele><time>2026-04-19T07:33:19.999Z</time></trkpt><trkpt lat="44.6661410438028" lon="10.178243706266521"><ele>425.66666666666663</ele><time>2026-04-19T07:33:20.999Z</time></trkpt><trkpt lat="44.66605224419199" lon="10.178047012684411"><ele>422.3333333333333</ele><time>2026-04-19T07:33:21.999Z</time></trkpt><trkpt lat="44.66595421666846" lon="10.177853536260738"><ele>419.0</ele><time>2026-04-19T07:33:22.999Z</time></trkpt><trkpt lat="44.66586752217241" lon="10.177675326132995"><ele>419.0</ele><time>2026-04-19T07:33:23.999Z</time></trkpt><trkpt lat="44.66579950577507" lon="10.177510704053844"><ele>419.0</ele><time>2026-04-19T07:33:24.999Z</time></trkpt><trkpt lat="44.665757422403374" lon="10.177351213201158"><ele>419.0</ele><time>2026-04-19T07:33:25.999Z</time></trkpt><trkpt lat="44.66574175519818" lon="10.177187987164611"><ele>419.0</ele><time>2026-04-19T07:33:26.999Z</time></trkpt><trkpt lat="44.665788422242095" lon="10.177030895101387"><ele>421.3333333333333</ele><time>2026-04-19T07:33:27.999Z</time></trkpt><trkpt lat="44.66583960276977" lon="10.176833807898655"><ele>423.66666666666663</ele><time>2026-04-19T07:33:28.999Z</time></trkpt><trkpt lat="44.665890450636006" lon="10.176614636763484"><ele>426.0</ele><time>2026-04-19T07:33:29.999Z</time></trkpt><trkpt lat="44.66594862427992" lon="10.176384167519435"><ele>427.75</ele><time>2026-04-19T07:33:30.999Z</time></trkpt><trkpt lat="44.66600607277522" lon="10.17616184563267"><ele>429.5</ele><time>2026-04-19T07:33:31.999Z</time></trkpt><trkpt lat="44.66605307196553" lon="10.175969731841164"><ele>431.25</ele><time>2026-04-19T07:33:32.999Z</time></trkpt><trkpt lat="44.66608552203678" lon="10.175805894431633"><ele>433.0</ele><time>2026-04-19T07:33:33.999Z</time></trkpt><trkpt lat="44.666095366009905" lon="10.175621909787884"><ele>435.5</ele><time>2026-04-19T07:33:34.999Z</time></trkpt><trkpt lat="44.66606820444225" lon="10.175424118988433"><ele>438.0</ele><time>2026-04-19T07:33:35.999Z</time></trkpt><trkpt lat="44.66603282103769" lon="10.175218788690024"><ele>440.5</ele><time>2026-04-19T07:33:36.999Z</time></trkpt><trkpt lat="44.6660660294468" lon="10.17500910771452"><ele>443.0</ele><time>2026-04-19T07:33:37.999Z</time></trkpt><trkpt lat="44.66609641280697" lon="10.174783561859567"><ele>445.0</ele><time>2026-04-19T07:33:38.999Z</time></trkpt><trkpt lat="44.66610470163192" lon="10.174564813792362"><ele>447.0</ele><time>2026-04-19T07:33:39.999Z</time></trkpt><trkpt lat="44.666094383621704" lon="10.174364996592422"><ele>449.0</ele><time>2026-04-19T07:33:40.999Z</time></trkpt><trkpt lat="44.666046559800556" lon="10.174153587801953"><ele>447.66666666666663</ele><time>2026-04-19T07:33:41.999Z</time></trkpt><trkpt lat="44.66598095303039" lon="10.17393266073964"><ele>446.33333333333337</ele><time>2026-04-19T07:33:42.999Z</time></trkpt><trkpt lat="44.66593418611491" lon="10.173696003410633"><ele>445.0</ele><time>2026-04-19T07:33:43.999Z</time></trkpt><trkpt lat="44.66588089902856" lon="10.17348095595038"><ele>445.0</ele><time>2026-04-19T07:33:45Z</time></trkpt><trkpt lat="44.665827306484516" lon="10.173264118348365"><ele>445.0</ele><time>2026-04-19T07:33:46Z</time></trkpt><trkpt lat="44.665774405055224" lon="10.1730488642859"><ele>445.0</ele><time>2026-04-19T07:33:47Z</time></trkpt><trkpt lat="44.66571012374495" lon="10.172862075764819"><ele>442.5</ele><time>2026-04-19T07:33:48Z</time></trkpt><trkpt lat="44.66566008111054" lon="10.172716509671256"><ele>440.0</ele><time>2026-04-19T07:33:49Z</time></trkpt><trkpt lat="44.665583114151445" lon="10.172625805172428"><ele>437.5</ele><time>2026-04-19T07:33:50Z</time></trkpt><trkpt lat="44.66547058736221" lon="10.172586421156527"><ele>435.0</ele><time>2026-04-19T07:33:51Z</time></trkpt><trkpt lat="44.66532638776562" lon="10.172588997697472"><ele>438.8</ele><time>2026-04-19T07:33:52Z</time></trkpt><trkpt lat="44.66519419486416" lon="10.172547431979575"><ele>442.6</ele><time>2026-04-19T07:33:53Z</time></trkpt><trkpt lat="44.665107990942985" lon="10.172486394852491"><ele>446.4</ele><time>2026-04-19T07:33:54Z</time></trkpt><trkpt lat="44.66506726552611" lon="10.172386045908041"><ele>450.2</ele><time>2026-04-19T07:33:55Z</time></trkpt><trkpt lat="44.66507717224345" lon="10.172266363571346"><ele>454.0</ele><time>2026-04-19T07:33:56Z</time></trkpt><trkpt lat="44.665140400036805" lon="10.172134853410087"><ele>454.0</ele><time>2026-04-19T07:33:57Z</time></trkpt><trkpt lat="44.66526227915968" lon="10.172030434994108"><ele>454.0</ele><time>2026-04-19T07:33:58Z</time></trkpt><trkpt lat="44.665369374867176" lon="10.171899740881925"><ele>454.0</ele><time>2026-04-19T07:33:59Z</time></trkpt><trkpt lat="44.66542972845138" lon="10.171794870930745"><ele>454.0</ele><time>2026-04-19T07:34:00Z</time></trkpt><trkpt lat="44.66544202266964" lon="10.171673036425416"><ele>451.0</ele><time>2026-04-19T07:34:01Z</time></trkpt><trkpt lat="44.66540564857613" lon="10.171493087220238"><ele>448.0</ele><time>2026-04-19T07:34:02Z</time></trkpt><trkpt lat="44.665338032099164" lon="10.171291042328498"><ele>445.0</ele><time>2026-04-19T07:34:03Z</time></trkpt><trkpt lat="44.6652440546374" lon="10.171091909689668"><ele>445.0</ele><time>2026-04-19T07:34:04Z</time></trkpt><trkpt lat="44.66512754766028" lon="10.170904498105315"><ele>445.0</ele><time>2026-04-19T07:34:05Z</time></trkpt><trkpt lat="44.66503156991479" lon="10.170699584854043"><ele>445.0</ele><time>2026-04-19T07:34:06Z</time></trkpt><trkpt lat="44.664908418792116" lon="10.170538930174745"><ele>439.33333333333337</ele><time>2026-04-19T07:34:07Z</time></trkpt><trkpt lat="44.664789041854256" lon="10.170390705700715"><ele>433.66666666666663</ele><time>2026-04-19T07:34:08Z</time></trkpt><trkpt lat="44.66465981312297" lon="10.170275443204384"><ele>428.0</ele><time>2026-04-19T07:34:09Z</time></trkpt><trkpt lat="44.664531519601155" lon="10.170206578562754"><ele>426.66666666666663</ele><time>2026-04-19T07:34:10Z</time></trkpt><trkpt lat="44.664411751114535" lon="10.170112349507006"><ele>425.33333333333337</ele><time>2026-04-19T07:34:11Z</time></trkpt><trkpt lat="44.66430640515858" lon="10.16997001622595"><ele>424.0</ele><time>2026-04-19T07:34:12Z</time></trkpt><trkpt lat="44.664181052545494" lon="10.169801951269784"><ele>424.0</ele><time>2026-04-19T07:34:13Z</time></trkpt><trkpt lat="44.66405564079589" lon="10.169670591014734"><ele>424.0</ele><time>2026-04-19T07:34:14Z</time></trkpt><trkpt lat="44.66393318629013" lon="10.169566898687632"><ele>424.0</ele><time>2026-04-19T07:34:15Z</time></trkpt><trkpt lat="44.66378734495183" lon="10.169502916097715"><ele>424.0</ele><time>2026-04-19T07:34:16Z</time></trkpt><trkpt lat="44.66362409323221" lon="10.169478681881591"><ele>424.0</ele><time>2026-04-19T07:34:17Z</time></trkpt><trkpt lat="44.66349233088773" lon="10.169418763016697"><ele>424.0</ele><time>2026-04-19T07:34:18Z</time></trkpt><trkpt lat="44.6634046658524" lon="10.169369420759997"><ele>424.0</ele><time>2026-04-19T07:34:19Z</time></trkpt><trkpt lat="44.66335631016701" lon="10.169294587313354"><ele>428.5</ele><time>2026-04-19T07:34:20Z</time></trkpt><trkpt lat="44.66333117782928" lon="10.169191791068295"><ele>433.0</ele><time>2026-04-19T07:34:21Z</time></trkpt><trkpt lat="44.663354642857755" lon="10.169046010723292"><ele>437.5</ele><time>2026-04-19T07:34:22Z</time></trkpt><trkpt lat="44.66340353298221" lon="10.168883868711609"><ele>442.0</ele><time>2026-04-19T07:34:23Z</time></trkpt><trkpt lat="44.66349156803615" lon="10.16872617854812"><ele>443.25</ele><time>2026-04-19T07:34:24Z</time></trkpt><trkpt lat="44.66357490199237" lon="10.168555312961022"><ele>444.5</ele><time>2026-04-19T07:34:25Z</time></trkpt><trkpt lat="44.663649416665194" lon="10.168427956839809"><ele>445.75</ele><time>2026-04-19T07:34:26Z</time></trkpt><trkpt lat="44.66368366212582" lon="10.16827883926553"><ele>447.0</ele><time>2026-04-19T07:34:27Z</time></trkpt><trkpt lat="44.66368167873208" lon="10.168093260068328"><ele>439.0</ele><time>2026-04-19T07:34:28Z</time></trkpt><trkpt lat="44.66368880448257" lon="10.1678934192037"><ele>431.0</ele><time>2026-04-19T07:34:29Z</time></trkpt><trkpt lat="44.66369627457299" lon="10.167641223322748"><ele>423.0</ele><time>2026-04-19T07:34:30Z</time></trkpt><trkpt lat="44.66369859002743" lon="10.167420971986216"><ele>425.33333333333337</ele><time>2026-04-19T07:34:31Z</time></trkpt><trkpt lat="44.663715065429294" lon="10.16722918163767"><ele>427.6666666666667</ele><time>2026-04-19T07:34:32Z</time></trkpt><trkpt lat="44.663783535985985" lon="10.167030857808886"><ele>430.0</ele><time>2026-04-19T07:34:33Z</time></trkpt><trkpt lat="44.66383352020281" lon="10.166799484726365"><ele>430.0</ele><time>2026-04-19T07:34:34Z</time></trkpt><trkpt lat="44.66390833417262" lon="10.166596028324546"><ele>430.0</ele><time>2026-04-19T07:34:35Z</time></trkpt><trkpt lat="44.66397960429946" lon="10.16643065039205"><ele>430.0</ele><time>2026-04-19T07:34:36Z</time></trkpt><trkpt lat="44.66406188063366" lon="10.166299427416112"><ele>430.0</ele><time>2026-04-19T07:34:37Z</time></trkpt><trkpt lat="44.66418757837394" lon="10.166232075883425"><ele>431.0</ele><time>2026-04-19T07:34:38Z</time></trkpt><trkpt lat="44.664305388451126" lon="10.166119783438544"><ele>432.0</ele><time>2026-04-19T07:34:39Z</time></trkpt><trkpt lat="44.664398828590606" lon="10.166035092439703"><ele>433.0</ele><time>2026-04-19T07:34:40Z</time></trkpt><trkpt lat="44.664474636607395" lon="10.165884923085363"><ele>434.0</ele><time>2026-04-19T07:34:41Z</time></trkpt><trkpt lat="44.66452505084675" lon="10.165672492513623"><ele>435.25</ele><time>2026-04-19T07:34:42Z</time></trkpt><trkpt lat="44.66456415401812" lon="10.165485130226978"><ele>436.5</ele><time>2026-04-19T07:34:43Z</time></trkpt><trkpt lat="44.66462249958226" lon="10.165364825073334"><ele>437.75</ele><time>2026-04-19T07:34:44Z</time></trkpt><trkpt lat="44.664675981973204" lon="10.165253147206526"><ele>439.0</ele><time>2026-04-19T07:34:45Z</time></trkpt><trkpt lat="44.66475629228298" lon="10.165119764621245"><ele>439.0</ele><time>2026-04-19T07:34:46Z</time></trkpt><trkpt lat="44.66486710125376" lon="10.16494981829097"><ele>439.0</ele><time>2026-04-19T07:34:47Z</time></trkpt><trkpt lat="44.66498652306651" lon="10.164786313909122"><ele>439.0</ele><time>2026-04-19T07:34:48Z</time></trkpt><trkpt lat="44.66512036681946" lon="10.164629731025034"><ele>436.6666666666667</ele><time>2026-04-19T07:34:49Z</time></trkpt><trkpt lat="44.66526365924544" lon="10.164473106078399"><ele>434.33333333333337</ele><time>2026-04-19T07:34:50Z</time></trkpt><trkpt lat="44.66541441478845" lon="10.164313881080448"><ele>432.0</ele><time>2026-04-19T07:34:51Z</time></trkpt><trkpt lat="44.66556803054313" lon="10.164147804030936"><ele>431.0</ele><time>2026-04-19T07:34:52Z</time></trkpt><trkpt lat="44.66572084650639" lon="10.16397628630399"><ele>430.0</ele><time>2026-04-19T07:34:53Z</time></trkpt><trkpt lat="44.665859327777945" lon="10.163826718148893"><ele>429.0</ele><time>2026-04-19T07:34:54Z</time></trkpt><trkpt lat="44.665981597966606" lon="10.163700489135074"><ele>429.0</ele><time>2026-04-19T07:34:55Z</time></trkpt><trkpt lat="44.66609923586188" lon="10.163556733129438"><ele>429.0</ele><time>2026-04-19T07:34:56Z</time></trkpt><trkpt lat="44.66620407718388" lon="10.163369544341482"><ele>429.0</ele><time>2026-04-19T07:34:57Z</time></trkpt><trkpt lat="44.66630133302569" lon="10.163136482789598"><ele>429.66666666666663</ele><time>2026-04-19T07:34:58Z</time></trkpt><trkpt lat="44.66640521611105" lon="10.162944037741095"><ele>430.3333333333333</ele><time>2026-04-19T07:34:59Z</time></trkpt><trkpt lat="44.66647760220927" lon="10.162748381542835"><ele>431.0</ele><time>2026-04-19T07:35:00Z</time></trkpt><trkpt lat="44.6665511460419" lon="10.162570850775236"><ele>431.0</ele><time>2026-04-19T07:35:01Z</time></trkpt><trkpt lat="44.66658543162738" lon="10.162454000975764"><ele>431.0</ele><time>2026-04-19T07:35:02Z</time></trkpt><trkpt lat="44.666613559450354" lon="10.162265244646356"><ele>431.0</ele><time>2026-04-19T07:35:04Z</time></trkpt><trkpt lat="44.66663113736086" lon="10.162103002540627"><ele>431.0</ele><time>2026-04-19T07:35:05Z</time></trkpt><trkpt lat="44.66660589402708" lon="10.161920489685032"><ele>427.66666666666663</ele><time>2026-04-19T07:35:05.999Z</time></trkpt><trkpt lat="44.66653589489121" lon="10.161701665565667"><ele>424.33333333333337</ele><time>2026-04-19T07:35:06.999Z</time></trkpt><trkpt lat="44.66643384055819" lon="10.161458407085508"><ele>421.0</ele><time>2026-04-19T07:35:07.999Z</time></trkpt><trkpt lat="44.666356499072705" lon="10.161203402683242"><ele>417.33333333333337</ele><time>2026-04-19T07:35:08.999Z</time></trkpt><trkpt lat="44.666271062548724" lon="10.160984156849647"><ele>413.66666666666663</ele><time>2026-04-19T07:35:09.999Z</time></trkpt><trkpt lat="44.66617357854447" lon="10.160797296334069"><ele>410.0</ele><time>2026-04-19T07:35:10.999Z</time></trkpt><trkpt lat="44.666091157032284" lon="10.160627156785033"><ele>408.2</ele><time>2026-04-19T07:35:11.999Z</time></trkpt><trkpt lat="44.66603635551003" lon="10.16050262167873"><ele>406.4</ele><time>2026-04-19T07:35:12.999Z</time></trkpt><trkpt lat="44.666005463035006" lon="10.160419322081955"><ele>404.6</ele><time>2026-04-19T07:35:13.999Z</time></trkpt><trkpt lat="44.66603180398718" lon="10.16027118496145"><ele>402.8</ele><time>2026-04-19T07:35:15.999Z</time></trkpt><trkpt lat="44.666102086763004" lon="10.160222460444475"><ele>401.0</ele><time>2026-04-19T07:35:16.999Z</time></trkpt><trkpt lat="44.66621052056993" lon="10.160270428022546"><ele>399.8</ele><time>2026-04-19T07:35:17.999Z</time></trkpt><trkpt lat="44.666272156147734" lon="10.16043839488162"><ele>398.6</ele><time>2026-04-19T07:35:18.999Z</time></trkpt><trkpt lat="44.66634998548648" lon="10.160506537173802"><ele>397.4</ele><time>2026-04-19T07:35:19.999Z</time></trkpt><trkpt lat="44.66646535902791" lon="10.16051782676542"><ele>396.2</ele><time>2026-04-19T07:35:21.999Z</time></trkpt><trkpt lat="44.66648143387046" lon="10.160378379770536"><ele>395.0</ele><time>2026-04-19T07:35:22.999Z</time></trkpt><trkpt lat="44.66643615753984" lon="10.160275033840565"><ele>395.0</ele><time>2026-04-19T07:35:23.999Z</time></trkpt><trkpt lat="44.66633157684702" lon="10.160159041775813"><ele>395.0</ele><time>2026-04-19T07:35:24.999Z</time></trkpt><trkpt lat="44.6662145515179" lon="10.160002767326429"><ele>395.0</ele><time>2026-04-19T07:35:25.999Z</time></trkpt><trkpt lat="44.666114025328305" lon="10.159849077414336"><ele>395.0</ele><time>2026-04-19T07:35:26.999Z</time></trkpt><trkpt lat="44.6660309708471" lon="10.15969559335356"><ele>395.16666666666663</ele><time>2026-04-19T07:35:27.999Z</time></trkpt><trkpt lat="44.66598867266837" lon="10.159564834242936"><ele>395.3333333333333</ele><time>2026-04-19T07:35:28.999Z</time></trkpt><trkpt lat="44.66598288271089" lon="10.159449306017112"><ele>395.5</ele><time>2026-04-19T07:35:29.999Z</time></trkpt><trkpt lat="44.66597228943985" lon="10.159310743417807"><ele>395.66666666666663</ele><time>2026-04-19T07:35:30.999Z</time></trkpt><trkpt lat="44.665972833559955" lon="10.159182030070424"><ele>395.8333333333333</ele><time>2026-04-19T07:35:31.999Z</time></trkpt><trkpt lat="44.66600112768849" lon="10.159091149975673"><ele>396.0</ele><time>2026-04-19T07:35:32.999Z</time></trkpt><trkpt lat="44.66607591818381" lon="10.159032961790025"><ele>394.6</ele><time>2026-04-19T07:35:33.999Z</time></trkpt><trkpt lat="44.66616456572634" lon="10.15893869755104"><ele>393.20000000000005</ele><time>2026-04-19T07:35:34.999Z</time></trkpt><trkpt lat="44.66623432758615" lon="10.158871457343547"><ele>391.79999999999995</ele><time>2026-04-19T07:35:35.999Z</time></trkpt><trkpt lat="44.666332521516445" lon="10.15876570502842"><ele>390.4</ele><time>2026-04-19T07:35:37.999Z</time></trkpt><trkpt lat="44.66640294349374" lon="10.15868859687151"><ele>389.0</ele><time>2026-04-19T07:35:38.999Z</time></trkpt><trkpt lat="44.66647708601461" lon="10.15859969352822"><ele>389.0</ele><time>2026-04-19T07:35:39.999Z</time></trkpt><trkpt lat="44.66655828277551" lon="10.158496380250842"><ele>389.0</ele><time>2026-04-19T07:35:40.999Z</time></trkpt><trkpt lat="44.66662871100884" lon="10.158367361252642"><ele>389.0</ele><time>2026-04-19T07:35:41.999Z</time></trkpt><trkpt lat="44.66670396497081" lon="10.158233577871341"><ele>389.0</ele><time>2026-04-19T07:35:42.999Z</time></trkpt><trkpt lat="44.666753715599725" lon="10.158066851853562"><ele>388.0</ele><time>2026-04-19T07:35:43.999Z</time></trkpt><trkpt lat="44.66677136107165" lon="10.157871037426402"><ele>387.0</ele><time>2026-04-19T07:35:44.999Z</time></trkpt><trkpt lat="44.666749512988986" lon="10.157671944712424"><ele>386.0</ele><time>2026-04-19T07:35:45.999Z</time></trkpt><trkpt lat="44.66669683909737" lon="10.157487607540316"><ele>385.0</ele><time>2026-04-19T07:35:46.999Z</time></trkpt><trkpt lat="44.666607500347816" lon="10.157321701916016"><ele>380.33333333333337</ele><time>2026-04-19T07:35:47.999Z</time></trkpt><trkpt lat="44.6664777590863" lon="10.15717281333807"><ele>375.6666666666667</ele><time>2026-04-19T07:35:48.999Z</time></trkpt><trkpt lat="44.666354022145704" lon="10.157003838443194"><ele>371.0</ele><time>2026-04-19T07:35:49.999Z</time></trkpt><trkpt lat="44.6662358060202" lon="10.156853400089204"><ele>371.0</ele><time>2026-04-19T07:35:51Z</time></trkpt><trkpt lat="44.666116914956035" lon="10.156696597989681"><ele>371.0</ele><time>2026-04-19T07:35:52Z</time></trkpt><trkpt lat="44.66602357694981" lon="10.156550208471293"><ele>371.0</ele><time>2026-04-19T07:35:53Z</time></trkpt><trkpt lat="44.66598129684574" lon="10.156421062556634"><ele>371.0</ele><time>2026-04-19T07:35:54Z</time></trkpt><trkpt lat="44.66597775390477" lon="10.156273653491313"><ele>372.0</ele><time>2026-04-19T07:35:55Z</time></trkpt><trkpt lat="44.66600527960394" lon="10.15609407930368"><ele>373.0</ele><time>2026-04-19T07:35:56Z</time></trkpt><trkpt lat="44.666027671068065" lon="10.155859468724476"><ele>374.0</ele><time>2026-04-19T07:35:57Z</time></trkpt><trkpt lat="44.666049164389825" lon="10.155613563779443"><ele>375.6666666666667</ele><time>2026-04-19T07:35:58Z</time></trkpt><trkpt lat="44.666051153250876" lon="10.155386757633059"><ele>377.3333333333333</ele><time>2026-04-19T07:35:59Z</time></trkpt><trkpt lat="44.66602660503274" lon="10.155183308921067"><ele>379.0</ele><time>2026-04-19T07:36:00Z</time></trkpt><trkpt lat="44.66596855647133" lon="10.154971967328072"><ele>379.0</ele><time>2026-04-19T07:36:01Z</time></trkpt><trkpt lat="44.66594685109899" lon="10.154789856574151"><ele>379.0</ele><time>2026-04-19T07:36:02Z</time></trkpt><trkpt lat="44.66596193496192" lon="10.154637352885132"><ele>379.0</ele><time>2026-04-19T07:36:03Z</time></trkpt><trkpt lat="44.6659830899198" lon="10.154447962206225"><ele>379.0</ele><time>2026-04-19T07:36:04Z</time></trkpt><trkpt lat="44.666028862551634" lon="10.154238658079672"><ele>379.0</ele><time>2026-04-19T07:36:05Z</time></trkpt><trkpt lat="44.66606308175112" lon="10.154017247033213"><ele>379.0</ele><time>2026-04-19T07:36:06Z</time></trkpt><trkpt lat="44.666082341486394" lon="10.153790567090779"><ele>379.0</ele><time>2026-04-19T07:36:07Z</time></trkpt><trkpt lat="44.66611836138366" lon="10.153575761954253"><ele>383.66666666666663</ele><time>2026-04-19T07:36:08Z</time></trkpt><trkpt lat="44.66616587579196" lon="10.15338197162149"><ele>388.3333333333333</ele><time>2026-04-19T07:36:09Z</time></trkpt><trkpt lat="44.666246860688275" lon="10.15319890437604"><ele>393.0</ele><time>2026-04-19T07:36:10Z</time></trkpt><trkpt lat="44.66632931533001" lon="10.152990078136652"><ele>393.66666666666663</ele><time>2026-04-19T07:36:11Z</time></trkpt><trkpt lat="44.66641236423599" lon="10.152780721429401"><ele>394.3333333333333</ele><time>2026-04-19T07:36:12Z</time></trkpt><trkpt lat="44.66647603158942" lon="10.15255171973057"><ele>395.0</ele><time>2026-04-19T07:36:13Z</time></trkpt><trkpt lat="44.666533027740606" lon="10.1523307436628"><ele>396.25</ele><time>2026-04-19T07:36:14Z</time></trkpt><trkpt lat="44.666596583133575" lon="10.152118369914705"><ele>397.5</ele><time>2026-04-19T07:36:15Z</time></trkpt><trkpt lat="44.66665890008311" lon="10.151928180511746"><ele>398.75</ele><time>2026-04-19T07:36:16Z</time></trkpt><trkpt lat="44.66670825370339" lon="10.151762628718485"><ele>400.0</ele><time>2026-04-19T07:36:17Z</time></trkpt><trkpt lat="44.666731227635516" lon="10.151638055425241"><ele>401.0</ele><time>2026-04-19T07:36:18Z</time></trkpt><trkpt lat="44.66671066099764" lon="10.15153647375637"><ele>402.0</ele><time>2026-04-19T07:36:19Z</time></trkpt><trkpt lat="44.66665443238831" lon="10.151441559432325"><ele>403.0</ele><time>2026-04-19T07:36:20Z</time></trkpt><trkpt lat="44.666555078370166" lon="10.151352550037492"><ele>404.0</ele><time>2026-04-19T07:36:21Z</time></trkpt><trkpt lat="44.666443046720026" lon="10.151224246208168"><ele>405.0</ele><time>2026-04-19T07:36:22Z</time></trkpt><trkpt lat="44.666323169469926" lon="10.151089616660391"><ele>405.0</ele><time>2026-04-19T07:36:23Z</time></trkpt><trkpt lat="44.66621770881387" lon="10.15092520412651"><ele>405.0</ele><time>2026-04-19T07:36:24Z</time></trkpt><trkpt lat="44.666122892865474" lon="10.1507574682411"><ele>405.0</ele><time>2026-04-19T07:36:25Z</time></trkpt><trkpt lat="44.666037566894516" lon="10.150579022039098"><ele>399.25</ele><time>2026-04-19T07:36:26Z</time></trkpt><trkpt lat="44.66597100518838" lon="10.150389171127676"><ele>393.5</ele><time>2026-04-19T07:36:27Z</time></trkpt><trkpt lat="44.66595996287561" lon="10.150241876676876"><ele>387.75</ele><time>2026-04-19T07:36:28Z</time></trkpt><trkpt lat="44.66598155843411" lon="10.150112945790335"><ele>382.0</ele><time>2026-04-19T07:36:29Z</time></trkpt><trkpt lat="44.666059863055054" lon="10.149998738501624"><ele>384.75</ele><time>2026-04-19T07:36:30Z</time></trkpt><trkpt lat="44.66618439044371" lon="10.149911526801251"><ele>387.5</ele><time>2026-04-19T07:36:31Z</time></trkpt><trkpt lat="44.66630042543106" lon="10.149794743057589"><ele>390.25</ele><time>2026-04-19T07:36:32Z</time></trkpt><trkpt lat="44.666379701433506" lon="10.149668707981267"><ele>393.0</ele><time>2026-04-19T07:36:33Z</time></trkpt><trkpt lat="44.6664310487243" lon="10.149530065608388"><ele>393.0</ele><time>2026-04-19T07:36:34Z</time></trkpt><trkpt lat="44.6664368260045" lon="10.149366800535542"><ele>393.0</ele><time>2026-04-19T07:36:35Z</time></trkpt><trkpt lat="44.66639643890245" lon="10.149208792712253"><ele>393.0</ele><time>2026-04-19T07:36:36Z</time></trkpt><trkpt lat="44.666323484013006" lon="10.149077078109576"><ele>393.0</ele><time>2026-04-19T07:36:37Z</time></trkpt><trkpt lat="44.666244539285785" lon="10.148923909670534"><ele>393.0</ele><time>2026-04-19T07:36:38Z</time></trkpt><trkpt lat="44.666197712332725" lon="10.148738796014133"><ele>393.0</ele><time>2026-04-19T07:36:39Z</time></trkpt><trkpt lat="44.666142520801344" lon="10.148523808785722"><ele>393.0</ele><time>2026-04-19T07:36:40Z</time></trkpt><trkpt lat="44.666054862382964" lon="10.148315162260849"><ele>388.0</ele><time>2026-04-19T07:36:41Z</time></trkpt><trkpt lat="44.6659667643529" lon="10.148141340045386"><ele>383.0</ele><time>2026-04-19T07:36:42Z</time></trkpt><trkpt lat="44.665899195892905" lon="10.147965960425003"><ele>378.0</ele><time>2026-04-19T07:36:43Z</time></trkpt><trkpt lat="44.665865323441984" lon="10.147806927161012"><ele>373.0</ele><time>2026-04-19T07:36:44Z</time></trkpt><trkpt lat="44.66588033233648" lon="10.147667784071459"><ele>373.0</ele><time>2026-04-19T07:36:45Z</time></trkpt><trkpt lat="44.665920793170194" lon="10.147569813299839"><ele>373.0</ele><time>2026-04-19T07:36:46Z</time></trkpt><trkpt lat="44.66593169330686" lon="10.147475861254279"><ele>373.0</ele><time>2026-04-19T07:36:47Z</time></trkpt><trkpt lat="44.665976170485635" lon="10.147340866944093"><ele>373.0</ele><time>2026-04-19T07:36:49Z</time></trkpt><trkpt lat="44.66604989835025" lon="10.147264924870653"><ele>373.0</ele><time>2026-04-19T07:36:51Z</time></trkpt><trkpt lat="44.666143335685994" lon="10.147247868243882"><ele>373.0</ele><time>2026-04-19T07:36:52Z</time></trkpt><trkpt lat="44.666262705329125" lon="10.147239308613294"><ele>368.0</ele><time>2026-04-19T07:36:53Z</time></trkpt><trkpt lat="44.66640962436847" lon="10.147253348389881"><ele>363.0</ele><time>2026-04-19T07:36:54Z</time></trkpt><trkpt lat="44.66656736251882" lon="10.147233714898752"><ele>358.0</ele><time>2026-04-19T07:36:55Z</time></trkpt><trkpt lat="44.666706424084396" lon="10.147164388634605"><ele>358.0</ele><time>2026-04-19T07:36:56Z</time></trkpt><trkpt lat="44.666813543337014" lon="10.147129951669061"><ele>358.0</ele><time>2026-04-19T07:36:57Z</time></trkpt><trkpt lat="44.66689044498964" lon="10.14711909487974"><ele>358.0</ele><time>2026-04-19T07:36:58Z</time></trkpt><trkpt lat="44.66695473473529" lon="10.14715139167656"><ele>358.0</ele><time>2026-04-19T07:36:59Z</time></trkpt><trkpt lat="44.667007108680515" lon="10.1472316934903"><ele>358.0</ele><time>2026-04-19T07:37:00Z</time></trkpt><trkpt lat="44.667091693901284" lon="10.147358601620496"><ele>356.75</ele><time>2026-04-19T07:37:01Z</time></trkpt><trkpt lat="44.667228749994955" lon="10.1474372481855"><ele>355.5</ele><time>2026-04-19T07:37:02Z</time></trkpt><trkpt lat="44.667372739202555" lon="10.147441272473758"><ele>354.25</ele><time>2026-04-19T07:37:03Z</time></trkpt><trkpt lat="44.66748662886382" lon="10.147388140476544"><ele>353.0</ele><time>2026-04-19T07:37:04Z</time></trkpt><trkpt lat="44.667594745558176" lon="10.147277690811636"><ele>353.0</ele><time>2026-04-19T07:37:05Z</time></trkpt><trkpt lat="44.6677349990751" lon="10.147172049631575"><ele>353.0</ele><time>2026-04-19T07:37:06Z</time></trkpt><trkpt lat="44.667871094456146" lon="10.147050174814954"><ele>353.0</ele><time>2026-04-19T07:37:07Z</time></trkpt><trkpt lat="44.66800748236701" lon="10.146950252982084"><ele>355.0</ele><time>2026-04-19T07:37:08Z</time></trkpt><trkpt lat="44.66814101405262" lon="10.146893603054382"><ele>357.0</ele><time>2026-04-19T07:37:08.999Z</time></trkpt><trkpt lat="44.66826118610599" lon="10.146879998709508"><ele>359.0</ele><time>2026-04-19T07:37:09.999Z</time></trkpt><trkpt lat="44.66838837882933" lon="10.146856513316477"><ele>361.0</ele><time>2026-04-19T07:37:10.999Z</time></trkpt><trkpt lat="44.66851181609816" lon="10.146822023651376"><ele>361.0</ele><time>2026-04-19T07:37:11.999Z</time></trkpt><trkpt lat="44.6686073204573" lon="10.146735738955451"><ele>361.0</ele><time>2026-04-19T07:37:12.999Z</time></trkpt><trkpt lat="44.66866825865791" lon="10.146608002584506"><ele>361.0</ele><time>2026-04-19T07:37:13.999Z</time></trkpt><trkpt lat="44.668705560063124" lon="10.146430120260924"><ele>361.0</ele><time>2026-04-19T07:37:14.999Z</time></trkpt><trkpt lat="44.66873581441672" lon="10.146214543221365"><ele>363.3333333333333</ele><time>2026-04-19T07:37:15.999Z</time></trkpt><trkpt lat="44.668804763928776" lon="10.146011077346161"><ele>365.6666666666667</ele><time>2026-04-19T07:37:16.999Z</time></trkpt><trkpt lat="44.668866178805715" lon="10.145806622179762"><ele>368.0</ele><time>2026-04-19T07:37:17.999Z</time></trkpt><trkpt lat="44.66888175706526" lon="10.145612890389765"><ele>368.0</ele><time>2026-04-19T07:37:18.999Z</time></trkpt><trkpt lat="44.66887688331285" lon="10.145431108801601"><ele>368.0</ele><time>2026-04-19T07:37:19.999Z</time></trkpt><trkpt lat="44.66884565612483" lon="10.145265309917356"><ele>368.0</ele><time>2026-04-19T07:37:20.999Z</time></trkpt><trkpt lat="44.66878158631012" lon="10.145122293952717"><ele>368.0</ele><time>2026-04-19T07:37:21.999Z</time></trkpt><trkpt lat="44.66870662051182" lon="10.14500715003881"><ele>368.0</ele><time>2026-04-19T07:37:22.999Z</time></trkpt><trkpt lat="44.66866410806552" lon="10.14490676771267"><ele>368.0</ele><time>2026-04-19T07:37:23.999Z</time></trkpt><trkpt lat="44.668711060372836" lon="10.144751945782975"><ele>368.0</ele><time>2026-04-19T07:37:25.999Z</time></trkpt><trkpt lat="44.66876035454018" lon="10.144590162528452"><ele>368.0</ele><time>2026-04-19T07:37:26.999Z</time></trkpt><trkpt lat="44.66878070558461" lon="10.144451640184839"><ele>368.0</ele><time>2026-04-19T07:37:27.999Z</time></trkpt><trkpt lat="44.66874513959" lon="10.144299654349023"><ele>367.5</ele><time>2026-04-19T07:37:28.999Z</time></trkpt><trkpt lat="44.668711546360946" lon="10.144123014531164"><ele>367.0</ele><time>2026-04-19T07:37:29.999Z</time></trkpt><trkpt lat="44.66868170271126" lon="10.143942513676702"><ele>366.5</ele><time>2026-04-19T07:37:30.999Z</time></trkpt><trkpt lat="44.668684687233345" lon="10.143789315289741"><ele>366.0</ele><time>2026-04-19T07:37:31.999Z</time></trkpt><trkpt lat="44.668722802588015" lon="10.143660617763656"><ele>364.0</ele><time>2026-04-19T07:37:32.999Z</time></trkpt><trkpt lat="44.668803979482625" lon="10.143567816456917"><ele>362.0</ele><time>2026-04-19T07:37:33.999Z</time></trkpt><trkpt lat="44.668851701111265" lon="10.14343391199554"><ele>360.0</ele><time>2026-04-19T07:37:34.999Z</time></trkpt><trkpt lat="44.66889985592642" lon="10.143315724021045"><ele>358.0</ele><time>2026-04-19T07:37:35.999Z</time></trkpt><trkpt lat="44.66890425297481" lon="10.14320277746494"><ele>356.0</ele><time>2026-04-19T07:37:36.999Z</time></trkpt><trkpt lat="44.66885309120837" lon="10.143054677665315"><ele>352.5</ele><time>2026-04-19T07:37:37.999Z</time></trkpt><trkpt lat="44.66884229304961" lon="10.142909332100905"><ele>349.0</ele><time>2026-04-19T07:37:38.999Z</time></trkpt><trkpt lat="44.66886872861346" lon="10.142787097915647"><ele>345.5</ele><time>2026-04-19T07:37:39.999Z</time></trkpt><trkpt lat="44.6689318899828" lon="10.142640570709451"><ele>342.0</ele><time>2026-04-19T07:37:40.999Z</time></trkpt><trkpt lat="44.669028649741705" lon="10.142511778623943"><ele>342.0</ele><time>2026-04-19T07:37:41.999Z</time></trkpt><trkpt lat="44.66913133402011" lon="10.142428752786696"><ele>342.0</ele><time>2026-04-19T07:37:42.999Z</time></trkpt><trkpt lat="44.66918177553414" lon="10.142371494791433"><ele>342.0</ele><time>2026-04-19T07:37:43.999Z</time></trkpt><trkpt lat="44.66925006552945" lon="10.142311430817044"><ele>342.0</ele><time>2026-04-19T07:37:45.999Z</time></trkpt><trkpt lat="44.66933529706587" lon="10.142236044603257"><ele>342.0</ele><time>2026-04-19T07:37:59Z</time></trkpt><trkpt lat="44.66938780464819" lon="10.142123929831234"><ele>339.6</ele><time>2026-04-19T07:38:01Z</time></trkpt><trkpt lat="44.66944167588002" lon="10.142004673259505"><ele>337.20000000000005</ele><time>2026-04-19T07:38:03Z</time></trkpt><trkpt lat="44.669452352347676" lon="10.141850735309571"><ele>334.8</ele><time>2026-04-19T07:38:05Z</time></trkpt><trkpt lat="44.669454159022344" lon="10.14173339675162"><ele>332.4</ele><time>2026-04-19T07:38:07Z</time></trkpt><trkpt lat="44.669446192329616" lon="10.141613944998634"><ele>330.0</ele><time>2026-04-19T07:38:09Z</time></trkpt><trkpt lat="44.66943902885299" lon="10.141463398584152"><ele>328.6666666666667</ele><time>2026-04-19T07:38:11Z</time></trkpt><trkpt lat="44.669440305130884" lon="10.14130971872986"><ele>327.3333333333333</ele><time>2026-04-19T07:38:13Z</time></trkpt><trkpt lat="44.669444112883276" lon="10.141217040750368"><ele>326.0</ele><time>2026-04-19T07:38:14Z</time></trkpt><trkpt lat="44.6694480328423" lon="10.141120385819843"><ele>324.66666666666663</ele><time>2026-04-19T07:38:15Z</time></trkpt><trkpt lat="44.66943580016186" lon="10.141013740373578"><ele>323.3333333333333</ele><time>2026-04-19T07:38:16Z</time></trkpt><trkpt lat="44.6694537709917" lon="10.140916359715053"><ele>322.0</ele><time>2026-04-19T07:38:17Z</time></trkpt><trkpt lat="44.669455746317325" lon="10.140826998373685"><ele>322.0</ele><time>2026-04-19T07:38:18Z</time></trkpt><trkpt lat="44.66944111078535" lon="10.140722811382638"><ele>322.0</ele><time>2026-04-19T07:38:19Z</time></trkpt><trkpt lat="44.66945814333525" lon="10.140620039207429"><ele>322.0</ele><time>2026-04-19T07:38:20Z</time></trkpt><trkpt lat="44.669456251012754" lon="10.140450119227657"><ele>322.0</ele><time>2026-04-19T07:38:22Z</time></trkpt><trkpt lat="44.669451938130074" lon="10.140359434563843"><ele>322.0</ele><time>2026-04-19T07:38:23Z</time></trkpt><trkpt lat="44.66943655482285" lon="10.140255103535031"><ele>322.0</ele><time>2026-04-19T07:38:24Z</time></trkpt><trkpt lat="44.66940001652534" lon="10.140163136715659"><ele>322.14285714285717</ele><time>2026-04-19T07:38:25Z</time></trkpt><trkpt lat="44.66936722227636" lon="10.140077163827893"><ele>322.2857142857143</ele><time>2026-04-19T07:38:26Z</time></trkpt><trkpt lat="44.66933092543392" lon="10.139984725125164"><ele>322.42857142857144</ele><time>2026-04-19T07:38:27Z</time></trkpt><trkpt lat="44.669300225908756" lon="10.139903425218826"><ele>322.57142857142856</ele><time>2026-04-19T07:38:28Z</time></trkpt><trkpt lat="44.669270602293" lon="10.13981725714631"><ele>322.7142857142857</ele><time>2026-04-19T07:38:29Z</time></trkpt><trkpt lat="44.669243676455885" lon="10.139732063169877"><ele>322.8571428571429</ele><time>2026-04-19T07:38:30Z</time></trkpt><trkpt lat="44.66921680768082" lon="10.13964442960864"><ele>323.0</ele><time>2026-04-19T07:38:31Z</time></trkpt><trkpt lat="44.669191910054714" lon="10.139553509067525"><ele>322.6666666666667</ele><time>2026-04-19T07:38:32Z</time></trkpt><trkpt lat="44.66916857323182" lon="10.13946490394808"><ele>322.33333333333337</ele><time>2026-04-19T07:38:33Z</time></trkpt><trkpt lat="44.66914608099062" lon="10.139374475585944"><ele>322.0</ele><time>2026-04-19T07:38:34Z</time></trkpt><trkpt lat="44.66912374933004" lon="10.139276564903442"><ele>321.6666666666667</ele><time>2026-04-19T07:38:35Z</time></trkpt><trkpt lat="44.66909820476029" lon="10.139107116937723"><ele>321.3333333333333</ele><time>2026-04-19T07:38:37Z</time></trkpt><trkpt lat="44.66908999091477" lon="10.139005381360597"><ele>321.0</ele><time>2026-04-19T07:38:38Z</time></trkpt><trkpt lat="44.66910203438415" lon="10.13891766132014"><ele>319.5</ele><time>2026-04-19T07:38:39Z</time></trkpt><trkpt lat="44.669146092549894" lon="10.138757220580679"><ele>318.0</ele><time>2026-04-19T07:38:41Z</time></trkpt><trkpt lat="44.66917460998045" lon="10.138673719932424"><ele>316.5</ele><time>2026-04-19T07:38:42Z</time></trkpt><trkpt lat="44.6691962804615" lon="10.13857904411807"><ele>315.0</ele><time>2026-04-19T07:38:43Z</time></trkpt><trkpt lat="44.669242980680544" lon="10.138485964263348"><ele>313.5</ele><time>2026-04-19T07:38:44Z</time></trkpt><trkpt lat="44.66928676498017" lon="10.138391436565007"><ele>312.0</ele><time>2026-04-19T07:38:45Z</time></trkpt><trkpt lat="44.669344562478024" lon="10.138316964119758"><ele>312.0</ele><time>2026-04-19T07:38:46Z</time></trkpt><trkpt lat="44.66937536035122" lon="10.138222975077731"><ele>312.0</ele><time>2026-04-19T07:38:47Z</time></trkpt><trkpt lat="44.669426891092186" lon="10.138142761545353"><ele>312.0</ele><time>2026-04-19T07:38:48Z</time></trkpt><trkpt lat="44.669471469611175" lon="10.138044340607625"><ele>312.0</ele><time>2026-04-19T07:38:49Z</time></trkpt><trkpt lat="44.66951279498882" lon="10.137948025339083"><ele>312.0</ele><time>2026-04-19T07:38:50Z</time></trkpt><trkpt lat="44.66956278081511" lon="10.137855224475112"><ele>312.0</ele><time>2026-04-19T07:38:51Z</time></trkpt><trkpt lat="44.66959912047048" lon="10.137753429710761"><ele>311.8333333333333</ele><time>2026-04-19T07:38:52Z</time></trkpt><trkpt lat="44.66963996955098" lon="10.13766323166547"><ele>311.6666666666667</ele><time>2026-04-19T07:38:53Z</time></trkpt><trkpt lat="44.66967308860325" lon="10.137565041436229"><ele>311.5</ele><time>2026-04-19T07:38:54Z</time></trkpt><trkpt lat="44.669692658082255" lon="10.137457320043152"><ele>311.33333333333337</ele><time>2026-04-19T07:38:55Z</time></trkpt><trkpt lat="44.6697154470565" lon="10.137352478440866"><ele>311.1666666666667</ele><time>2026-04-19T07:38:56Z</time></trkpt><trkpt lat="44.66972998296297" lon="10.137265322444195"><ele>311.0</ele><time>2026-04-19T07:38:57Z</time></trkpt><trkpt lat="44.66975161383851" lon="10.137125458351841"><ele>310.2</ele><time>2026-04-19T07:38:59Z</time></trkpt><trkpt lat="44.66978356504505" lon="10.136987271757341"><ele>309.40000000000003</ele><time>2026-04-19T07:39:01Z</time></trkpt><trkpt lat="44.66979420540259" lon="10.13683424405437"><ele>308.6</ele><time>2026-04-19T07:39:03Z</time></trkpt><trkpt lat="44.669827796358966" lon="10.13671345129622"><ele>307.8</ele><time>2026-04-19T07:39:04Z</time></trkpt><trkpt lat="44.66985034815016" lon="10.13657327266943"><ele>307.0</ele><time>2026-04-19T07:39:05Z</time></trkpt><trkpt lat="44.66986032936183" lon="10.136435124838608"><ele>305.66666666666663</ele><time>2026-04-19T07:39:06Z</time></trkpt><trkpt lat="44.669891420907696" lon="10.136315958896732"><ele>304.3333333333333</ele><time>2026-04-19T07:39:07Z</time></trkpt><trkpt lat="44.669906590466375" lon="10.136211030014199"><ele>303.0</ele><time>2026-04-19T07:39:08Z</time></trkpt><trkpt lat="44.66991908303429" lon="10.13610491671332"><ele>301.6666666666667</ele><time>2026-04-19T07:39:09Z</time></trkpt><trkpt lat="44.66993775266981" lon="10.136000782837133"><ele>300.33333333333337</ele><time>2026-04-19T07:39:10Z</time></trkpt><trkpt lat="44.66995944822969" lon="10.135901936288112"><ele>299.0</ele><time>2026-04-19T07:39:11Z</time></trkpt><trkpt lat="44.66997724275322" lon="10.135782250918243"><ele>298.1666666666667</ele><time>2026-04-19T07:39:11.999Z</time></trkpt><trkpt lat="44.66999658997896" lon="10.135684223926571"><ele>297.33333333333337</ele><time>2026-04-19T07:39:12.999Z</time></trkpt><trkpt lat="44.67001263038375" lon="10.135574944560057"><ele>296.5</ele><time>2026-04-19T07:39:13.999Z</time></trkpt><trkpt lat="44.6700268634768" lon="10.135461470209355"><ele>295.6666666666667</ele><time>2026-04-19T07:39:14.999Z</time></trkpt><trkpt lat="44.67003755928037" lon="10.135348779642303"><ele>294.8333333333333</ele><time>2026-04-19T07:39:15.999Z</time></trkpt><trkpt lat="44.67007368479005" lon="10.13523658127858"><ele>294.0</ele><time>2026-04-19T07:39:16.999Z</time></trkpt><trkpt lat="44.67009971421068" lon="10.135114365971232"><ele>294.0</ele><time>2026-04-19T07:39:17.999Z</time></trkpt><trkpt lat="44.670130013053885" lon="10.134998958341834"><ele>294.0</ele><time>2026-04-19T07:39:18.999Z</time></trkpt><trkpt lat="44.670168777481784" lon="10.134885210501942"><ele>294.0</ele><time>2026-04-19T07:39:19.999Z</time></trkpt><trkpt lat="44.67021200205921" lon="10.134788298929578"><ele>294.0</ele><time>2026-04-19T07:39:20.999Z</time></trkpt><trkpt lat="44.67025567290659" lon="10.134695113555917"><ele>294.0</ele><time>2026-04-19T07:39:21.999Z</time></trkpt><trkpt lat="44.67030547396063" lon="10.134603097251908"><ele>294.0</ele><time>2026-04-19T07:39:22.999Z</time></trkpt><trkpt lat="44.67035588213602" lon="10.134494258191426"><ele>293.8</ele><time>2026-04-19T07:39:23.999Z</time></trkpt><trkpt lat="44.67042536835433" lon="10.134395731230864"><ele>293.59999999999997</ele><time>2026-04-19T07:39:24.999Z</time></trkpt><trkpt lat="44.67050111171258" lon="10.13430223044092"><ele>293.4</ele><time>2026-04-19T07:39:25.999Z</time></trkpt><trkpt lat="44.67057985738541" lon="10.134209844841958"><ele>293.2</ele><time>2026-04-19T07:39:26.999Z</time></trkpt><trkpt lat="44.670657154991865" lon="10.134130836731996"><ele>293.0</ele><time>2026-04-19T07:39:27.999Z</time></trkpt><trkpt lat="44.67073060559703" lon="10.134057302011923"><ele>292.6666666666667</ele><time>2026-04-19T07:39:28.999Z</time></trkpt><trkpt lat="44.67081421453784" lon="10.13398487201864"><ele>292.33333333333337</ele><time>2026-04-19T07:39:29.999Z</time></trkpt><trkpt lat="44.670890473917964" lon="10.133933199763351"><ele>292.0</ele><time>2026-04-19T07:39:30.999Z</time></trkpt><trkpt lat="44.67095454830136" lon="10.133878602925446"><ele>291.6666666666667</ele><time>2026-04-19T07:39:31.999Z</time></trkpt><trkpt lat="44.671018514123205" lon="10.133803896502046"><ele>291.3333333333333</ele><time>2026-04-19T07:39:33.999Z</time></trkpt><trkpt lat="44.671073826494" lon="10.133720338000554"><ele>291.0</ele><time>2026-04-19T07:39:35.999Z</time></trkpt><trkpt lat="44.671146225242545" lon="10.133580670558604"><ele>291.0</ele><time>2026-04-19T07:39:37.999Z</time></trkpt><trkpt lat="44.671202734222746" lon="10.133512193851445"><ele>291.0</ele><time>2026-04-19T07:39:38.999Z</time></trkpt><trkpt lat="44.671252151016674" lon="10.133444793817487"><ele>291.0</ele><time>2026-04-19T07:39:39.999Z</time></trkpt><trkpt lat="44.671320377123564" lon="10.133369387098526"><ele>291.0</ele><time>2026-04-19T07:39:40.999Z</time></trkpt><trkpt lat="44.67137932513127" lon="10.133280102663358"><ele>291.0</ele><time>2026-04-19T07:39:41.999Z</time></trkpt><trkpt lat="44.67146835952867" lon="10.133213212392556"><ele>291.0</ele><time>2026-04-19T07:39:42.999Z</time></trkpt><trkpt lat="44.67154087083505" lon="10.13314189408964"><ele>291.2</ele><time>2026-04-19T07:39:43.999Z</time></trkpt><trkpt lat="44.67161491978802" lon="10.133049361390585"><ele>291.40000000000003</ele><time>2026-04-19T07:39:44.999Z</time></trkpt><trkpt lat="44.67169794655202" lon="10.132974915769926"><ele>291.6</ele><time>2026-04-19T07:39:45.999Z</time></trkpt><trkpt lat="44.6717763827671" lon="10.1328928012644"><ele>291.8</ele><time>2026-04-19T07:39:46.999Z</time></trkpt><trkpt lat="44.671856306745696" lon="10.132817194888652"><ele>292.0</ele><time>2026-04-19T07:39:47.999Z</time></trkpt><trkpt lat="44.671932637840406" lon="10.132747550688082"><ele>292.0</ele><time>2026-04-19T07:39:48.999Z</time></trkpt><trkpt lat="44.672008832504844" lon="10.13268305093365"><ele>292.0</ele><time>2026-04-19T07:39:49.999Z</time></trkpt><trkpt lat="44.67207748288777" lon="10.132578609981634"><ele>292.0</ele><time>2026-04-19T07:39:50.999Z</time></trkpt><trkpt lat="44.67213478641443" lon="10.132494745222653"><ele>292.0</ele><time>2026-04-19T07:39:51.999Z</time></trkpt><trkpt lat="44.67218618080032" lon="10.132428244204611"><ele>292.0</ele><time>2026-04-19T07:39:52.999Z</time></trkpt><trkpt lat="44.672237118043846" lon="10.132335448486081"><ele>292.0</ele><time>2026-04-19T07:39:53.999Z</time></trkpt><trkpt lat="44.67227551331504" lon="10.132263052343312"><ele>291.8333333333333</ele><time>2026-04-19T07:39:54.999Z</time></trkpt><trkpt lat="44.67231752203704" lon="10.132180454208012"><ele>291.66666666666663</ele><time>2026-04-19T07:39:55.999Z</time></trkpt><trkpt lat="44.672378140634436" lon="10.132077487672618"><ele>291.5</ele><time>2026-04-19T07:39:56.999Z</time></trkpt><trkpt lat="44.67243975210189" lon="10.131985371290716"><ele>291.3333333333333</ele><time>2026-04-19T07:39:57.999Z</time></trkpt><trkpt lat="44.6725181504399" lon="10.131891776152854"><ele>291.1666666666667</ele><time>2026-04-19T07:39:58.999Z</time></trkpt><trkpt lat="44.67256345348525" lon="10.131829366455749"><ele>291.0</ele><time>2026-04-19T07:39:59.999Z</time></trkpt><trkpt lat="44.672622145892994" lon="10.131737511113622"><ele>291.0</ele><time>2026-04-19T07:40:00.999Z</time></trkpt><trkpt lat="44.672709584862055" lon="10.1316532568112"><ele>291.0</ele><time>2026-04-19T07:40:01.999Z</time></trkpt><trkpt lat="44.67279885186011" lon="10.131633218133306"><ele>291.0</ele><time>2026-04-19T07:40:03Z</time></trkpt><trkpt lat="44.67287592403701" lon="10.131609750387945"><ele>291.0</ele><time>2026-04-19T07:40:04Z</time></trkpt><trkpt lat="44.67296257123064" lon="10.131594349429934"><ele>291.0</ele><time>2026-04-19T07:40:05Z</time></trkpt><trkpt lat="44.67303955996245" lon="10.131567158002284"><ele>291.0</ele><time>2026-04-19T07:40:06Z</time></trkpt><trkpt lat="44.67311686944143" lon="10.131556889197016"><ele>292.3333333333333</ele><time>2026-04-19T07:40:07Z</time></trkpt><trkpt lat="44.67319642164472" lon="10.13151558118195"><ele>293.6666666666667</ele><time>2026-04-19T07:40:08Z</time></trkpt><trkpt lat="44.6732599328041" lon="10.131440750290245"><ele>295.0</ele><time>2026-04-19T07:40:09Z</time></trkpt><trkpt lat="44.67333060536673" lon="10.131371280757778"><ele>296.33333333333337</ele><time>2026-04-19T07:40:10Z</time></trkpt><trkpt lat="44.673391623753965" lon="10.131275871768056"><ele>297.6666666666667</ele><time>2026-04-19T07:40:11Z</time></trkpt><trkpt lat="44.67344108268498" lon="10.131220086383168"><ele>299.0</ele><time>2026-04-19T07:40:12Z</time></trkpt><trkpt lat="44.673500468112195" lon="10.131180928443634"><ele>299.0</ele><time>2026-04-19T07:40:13Z</time></trkpt><trkpt lat="44.673557103452495" lon="10.131130417971091"><ele>299.0</ele><time>2026-04-19T07:40:14Z</time></trkpt><trkpt lat="44.6736211172293" lon="10.131109797076391"><ele>299.0</ele><time>2026-04-19T07:40:15Z</time></trkpt><trkpt lat="44.673689074965566" lon="10.131064788943602"><ele>299.0</ele><time>2026-04-19T07:40:16Z</time></trkpt><trkpt lat="44.67373688235044" lon="10.130978317979304"><ele>299.0</ele><time>2026-04-19T07:40:17Z</time></trkpt><trkpt lat="44.67378361604049" lon="10.130872365408885"><ele>299.0</ele><time>2026-04-19T07:40:18Z</time></trkpt><trkpt lat="44.673812087858856" lon="10.130771137454094"><ele>300.5</ele><time>2026-04-19T07:40:19Z</time></trkpt><trkpt lat="44.673833632575196" lon="10.13068177049609"><ele>302.0</ele><time>2026-04-19T07:40:20Z</time></trkpt><trkpt lat="44.673854262643026" lon="10.130568619332971"><ele>303.5</ele><time>2026-04-19T07:40:21Z</time></trkpt><trkpt lat="44.673876851181255" lon="10.13044642112639"><ele>305.0</ele><time>2026-04-19T07:40:22Z</time></trkpt><trkpt lat="44.673903225967784" lon="10.130309949543218"><ele>306.5</ele><time>2026-04-19T07:40:23Z</time></trkpt><trkpt lat="44.673927101026074" lon="10.13019202605179"><ele>308.0</ele><time>2026-04-19T07:40:24Z</time></trkpt><trkpt lat="44.67394926412972" lon="10.130086154742916"><ele>308.0</ele><time>2026-04-19T07:40:25Z</time></trkpt><trkpt lat="44.67397700994354" lon="10.129981169071929"><ele>308.0</ele><time>2026-04-19T07:40:26Z</time></trkpt><trkpt lat="44.67401329136598" lon="10.129878522032959"><ele>308.0</ele><time>2026-04-19T07:40:27Z</time></trkpt><trkpt lat="44.67405426815399" lon="10.129801198515972"><ele>308.0</ele><time>2026-04-19T07:40:28Z</time></trkpt><trkpt lat="44.67410029310162" lon="10.129728438871703"><ele>308.0</ele><time>2026-04-19T07:40:29Z</time></trkpt><trkpt lat="44.67414282600973" lon="10.129647390390465"><ele>308.0</ele><time>2026-04-19T07:40:30Z</time></trkpt><trkpt lat="44.67421147736274" lon="10.12958572968935"><ele>307.6</ele><time>2026-04-19T07:40:31Z</time></trkpt><trkpt lat="44.67429384211583" lon="10.129559430085315"><ele>307.20000000000005</ele><time>2026-04-19T07:40:32Z</time></trkpt><trkpt lat="44.67436712127645" lon="10.129524805673768"><ele>306.8</ele><time>2026-04-19T07:40:33Z</time></trkpt><trkpt lat="44.67445724600923" lon="10.129527678732725"><ele>306.40000000000003</ele><time>2026-04-19T07:40:34Z</time></trkpt><trkpt lat="44.674538861794595" lon="10.129518566496083"><ele>306.0</ele><time>2026-04-19T07:40:35Z</time></trkpt><trkpt lat="44.67466293707527" lon="10.129466490472346"><ele>306.0</ele><time>2026-04-19T07:40:37Z</time></trkpt><trkpt lat="44.67473099088974" lon="10.12946415077954"><ele>306.0</ele><time>2026-04-19T07:40:38Z</time></trkpt><trkpt lat="44.67483638414996" lon="10.129468290824963"><ele>306.0</ele><time>2026-04-19T07:40:40Z</time></trkpt><trkpt lat="44.6749255021168" lon="10.129497655151736"><ele>306.0</ele><time>2026-04-19T07:40:42Z</time></trkpt><trkpt lat="44.67498834929902" lon="10.129552866036265"><ele>306.0</ele><time>2026-04-19T07:40:43Z</time></trkpt><trkpt lat="44.67505991527537" lon="10.129625871481489"><ele>306.0</ele><time>2026-04-19T07:40:44Z</time></trkpt><trkpt lat="44.675137000445574" lon="10.129702208012628"><ele>306.0</ele><time>2026-04-19T07:40:45Z</time></trkpt><trkpt lat="44.67521757136158" lon="10.129758830098265"><ele>306.0</ele><time>2026-04-19T07:40:46Z</time></trkpt><trkpt lat="44.67530461321728" lon="10.129787404178874"><ele>306.0</ele><time>2026-04-19T07:40:47Z</time></trkpt><trkpt lat="44.675406611167595" lon="10.12980171827071"><ele>306.0</ele><time>2026-04-19T07:40:48Z</time></trkpt><trkpt lat="44.67551065742522" lon="10.12980841109198"><ele>306.0</ele><time>2026-04-19T07:40:49Z</time></trkpt><trkpt lat="44.67559898956347" lon="10.129809956322893"><ele>305.6666666666667</ele><time>2026-04-19T07:40:50Z</time></trkpt><trkpt lat="44.67568496029252" lon="10.129815280385957"><ele>305.3333333333333</ele><time>2026-04-19T07:40:51Z</time></trkpt><trkpt lat="44.675764041126726" lon="10.129816608840137"><ele>305.0</ele><time>2026-04-19T07:40:52Z</time></trkpt><trkpt lat="44.675835039331645" lon="10.129817990122493"><ele>304.66666666666663</ele><time>2026-04-19T07:40:53Z</time></trkpt><trkpt lat="44.675928257008216" lon="10.1298126365998"><ele>304.3333333333333</ele><time>2026-04-19T07:40:55Z</time></trkpt><trkpt lat="44.676002548423256" lon="10.12976809513065"><ele>304.0</ele><time>2026-04-19T07:40:57Z</time></trkpt><trkpt lat="44.676010124206535" lon="10.129652087660963"><ele>304.0</ele><time>2026-04-19T07:40:58Z</time></trkpt><trkpt lat="44.67601242096548" lon="10.129539815671022"><ele>304.0</ele><time>2026-04-19T07:41:00Z</time></trkpt><trkpt lat="44.67591863063063" lon="10.129462737370334"><ele>304.0</ele><time>2026-04-19T07:41:02Z</time></trkpt><trkpt lat="44.675855916675594" lon="10.129486165109364"><ele>304.0</ele><time>2026-04-19T07:41:03Z</time></trkpt><trkpt lat="44.67572142777449" lon="10.129492505113548"><ele>304.0</ele><time>2026-04-19T07:41:05Z</time></trkpt><trkpt lat="44.675649332938264" lon="10.12946942314597"><ele>304.0</ele><time>2026-04-19T07:41:06Z</time></trkpt><trkpt lat="44.675531563927" lon="10.129417987808942"><ele>304.0</ele><time>2026-04-19T07:41:08Z</time></trkpt><trkpt lat="44.67548425158723" lon="10.129354020859354"><ele>304.0</ele><time>2026-04-19T07:41:09Z</time></trkpt><trkpt lat="44.67542134847668" lon="10.129275764594695"><ele>304.0</ele><time>2026-04-19T07:41:10Z</time></trkpt><trkpt lat="44.675373827896806" lon="10.12919279126149"><ele>304.0</ele><time>2026-04-19T07:41:11Z</time></trkpt><trkpt lat="44.67535211673657" lon="10.129098191300953"><ele>304.0</ele><time>2026-04-19T07:41:12Z</time></trkpt><trkpt lat="44.675363852635385" lon="10.128955085301811"><ele>302.5</ele><time>2026-04-19T07:41:14Z</time></trkpt><trkpt lat="44.67540994931844" lon="10.128881903864695"><ele>301.0</ele><time>2026-04-19T07:41:15Z</time></trkpt><trkpt lat="44.67544838016816" lon="10.128766737488512"><ele>299.5</ele><time>2026-04-19T07:41:15.999Z</time></trkpt><trkpt lat="44.67547338627857" lon="10.128647238881944"><ele>298.0</ele><time>2026-04-19T07:41:16.999Z</time></trkpt><trkpt lat="44.675518836592616" lon="10.12853401399268"><ele>296.5</ele><time>2026-04-19T07:41:17.999Z</time></trkpt><trkpt lat="44.675532582211744" lon="10.128414290227399"><ele>295.0</ele><time>2026-04-19T07:41:18.999Z</time></trkpt><trkpt lat="44.67553571038314" lon="10.128307883884942"><ele>294.7142857142857</ele><time>2026-04-19T07:41:19.999Z</time></trkpt><trkpt lat="44.675531602078344" lon="10.128205448565696"><ele>294.42857142857144</ele><time>2026-04-19T07:41:20.999Z</time></trkpt><trkpt lat="44.67552331720779" lon="10.128103663320296"><ele>294.1428571428571</ele><time>2026-04-19T07:41:21.999Z</time></trkpt><trkpt lat="44.67551898465324" lon="10.128008131167311"><ele>293.8571428571429</ele><time>2026-04-19T07:41:22.999Z</time></trkpt><trkpt lat="44.67552660674187" lon="10.12791175598041"><ele>293.57142857142856</ele><time>2026-04-19T07:41:23.999Z</time></trkpt><trkpt lat="44.67554838691406" lon="10.127814209654705"><ele>293.2857142857143</ele><time>2026-04-19T07:41:24.999Z</time></trkpt><trkpt lat="44.67557800444061" lon="10.127732868216128"><ele>293.0</ele><time>2026-04-19T07:41:25.999Z</time></trkpt><trkpt lat="44.67564379830021" lon="10.127628650735037"><ele>293.0</ele><time>2026-04-19T07:41:27.999Z</time></trkpt><trkpt lat="44.67569469832299" lon="10.127533408830482"><ele>293.0</ele><time>2026-04-19T07:41:29.999Z</time></trkpt><trkpt lat="44.67578071037916" lon="10.127409022968934"><ele>293.0</ele><time>2026-04-19T07:41:31.999Z</time></trkpt><trkpt lat="44.675827265577745" lon="10.127326026629332"><ele>293.0</ele><time>2026-04-19T07:41:32.999Z</time></trkpt><trkpt lat="44.67588858687119" lon="10.127247907632395"><ele>293.0</ele><time>2026-04-19T07:41:33.999Z</time></trkpt><trkpt lat="44.67595972088582" lon="10.127159755754416"><ele>292.83333333333337</ele><time>2026-04-19T07:41:34.999Z</time></trkpt><trkpt lat="44.67602395567877" lon="10.127081254212195"><ele>292.6666666666667</ele><time>2026-04-19T07:41:35.999Z</time></trkpt><trkpt lat="44.676090099121545" lon="10.126988435053585"><ele>292.5</ele><time>2026-04-19T07:41:36.999Z</time></trkpt><trkpt lat="44.676141892473765" lon="10.126910831354095"><ele>292.3333333333333</ele><time>2026-04-19T07:41:37.999Z</time></trkpt><trkpt lat="44.67619230806826" lon="10.12681279002791"><ele>292.16666666666663</ele><time>2026-04-19T07:41:38.999Z</time></trkpt><trkpt lat="44.67625783000997" lon="10.126722587035509"><ele>292.0</ele><time>2026-04-19T07:41:39.999Z</time></trkpt><trkpt lat="44.67630527610172" lon="10.126628754522018"><ele>295.6</ele><time>2026-04-19T07:41:40.999Z</time></trkpt><trkpt lat="44.67635818701924" lon="10.12652450265965"><ele>299.2</ele><time>2026-04-19T07:41:41.999Z</time></trkpt><trkpt lat="44.67640991884296" lon="10.126422574014162"><ele>302.8</ele><time>2026-04-19T07:41:42.999Z</time></trkpt><trkpt lat="44.67646023521126" lon="10.12632343444747"><ele>306.4</ele><time>2026-04-19T07:41:43.999Z</time></trkpt><trkpt lat="44.67651188597658" lon="10.126222977921717"><ele>310.0</ele><time>2026-04-19T07:41:44.999Z</time></trkpt><trkpt lat="44.67656835515686" lon="10.126112621067517"><ele>310.0</ele><time>2026-04-19T07:41:45.999Z</time></trkpt><trkpt lat="44.676620818570576" lon="10.12601247784165"><ele>310.0</ele><time>2026-04-19T07:41:46.999Z</time></trkpt><trkpt lat="44.67667776201793" lon="10.125904888028282"><ele>310.0</ele><time>2026-04-19T07:41:47.999Z</time></trkpt><trkpt lat="44.67673455719858" lon="10.125802234700485"><ele>310.0</ele><time>2026-04-19T07:41:48.999Z</time></trkpt><trkpt lat="44.676788434703354" lon="10.125692408206845"><ele>310.0</ele><time>2026-04-19T07:41:49.999Z</time></trkpt><trkpt lat="44.6768587057943" lon="10.12559707195779"><ele>309.66666666666663</ele><time>2026-04-19T07:41:50.999Z</time></trkpt><trkpt lat="44.67693144432288" lon="10.125499985175658"><ele>309.3333333333333</ele><time>2026-04-19T07:41:51.999Z</time></trkpt><trkpt lat="44.67700074544487" lon="10.125412608588945"><ele>309.0</ele><time>2026-04-19T07:41:52.999Z</time></trkpt><trkpt lat="44.67708950057336" lon="10.125301301707783"><ele>308.6666666666667</ele><time>2026-04-19T07:41:54.999Z</time></trkpt><trkpt lat="44.67713607964328" lon="10.125239474883308"><ele>308.33333333333337</ele><time>2026-04-19T07:41:55.999Z</time></trkpt><trkpt lat="44.67717115622941" lon="10.12515115302302"><ele>308.0</ele><time>2026-04-19T07:41:56.999Z</time></trkpt><trkpt lat="44.677206517733495" lon="10.125012151003201"><ele>306.0</ele><time>2026-04-19T07:41:58.999Z</time></trkpt><trkpt lat="44.67715045142024" lon="10.124855566292602"><ele>304.0</ele><time>2026-04-19T07:42:00.999Z</time></trkpt><trkpt lat="44.677080744362" lon="10.12480336044575"><ele>302.0</ele><time>2026-04-19T07:42:01.999Z</time></trkpt><trkpt lat="44.67699676945111" lon="10.12477647434578"><ele>300.0</ele><time>2026-04-19T07:42:02.999Z</time></trkpt><trkpt lat="44.67691674725577" lon="10.124802736423609"><ele>298.0</ele><time>2026-04-19T07:42:03.999Z</time></trkpt><trkpt lat="44.67684721347481" lon="10.124822847633967"><ele>296.0</ele><time>2026-04-19T07:42:04.999Z</time></trkpt><trkpt lat="44.67677368988091" lon="10.12485649052269"><ele>296.0</ele><time>2026-04-19T07:42:05.999Z</time></trkpt><trkpt lat="44.67669805260133" lon="10.124889479549413"><ele>296.0</ele><time>2026-04-19T07:42:06.999Z</time></trkpt><trkpt lat="44.676618871011925" lon="10.124915072069452"><ele>296.0</ele><time>2026-04-19T07:42:07.999Z</time></trkpt><trkpt lat="44.67653272290032" lon="10.124951565203295"><ele>296.0</ele><time>2026-04-19T07:42:09Z</time></trkpt><trkpt lat="44.676456663173404" lon="10.124985627734159"><ele>296.0</ele><time>2026-04-19T07:42:10Z</time></trkpt><trkpt lat="44.6763792277428" lon="10.125018872856781"><ele>296.0</ele><time>2026-04-19T07:42:11Z</time></trkpt><trkpt lat="44.67631755185237" lon="10.125040011585376"><ele>296.0</ele><time>2026-04-19T07:42:12Z</time></trkpt><trkpt lat="44.67621233002059" lon="10.125061230551662"><ele>296.0</ele><time>2026-04-19T07:42:14Z</time></trkpt><trkpt lat="44.67610122343229" lon="10.125065759832102"><ele>296.0</ele><time>2026-04-19T07:42:16Z</time></trkpt><trkpt lat="44.67603898764006" lon="10.125004168038402"><ele>296.0</ele><time>2026-04-19T07:42:18Z</time></trkpt><trkpt lat="44.676068347057736" lon="10.124861661076897"><ele>296.0</ele><time>2026-04-19T07:42:20Z</time></trkpt><trkpt lat="44.67611599447516" lon="10.124740786639844"><ele>296.0</ele><time>2026-04-19T07:42:22Z</time></trkpt><trkpt lat="44.67620209978966" lon="10.124607989771468"><ele>296.0</ele><time>2026-04-19T07:42:24Z</time></trkpt><trkpt lat="44.67626690664484" lon="10.12453202842246"><ele>296.0</ele><time>2026-04-19T07:42:25Z</time></trkpt><trkpt lat="44.676313032880756" lon="10.124449990719318"><ele>296.0</ele><time>2026-04-19T07:42:26Z</time></trkpt><trkpt lat="44.67636063418044" lon="10.12436403084752"><ele>296.0</ele><time>2026-04-19T07:42:27Z</time></trkpt><trkpt lat="44.676394649928035" lon="10.12426460697771"><ele>296.0</ele><time>2026-04-19T07:42:28Z</time></trkpt><trkpt lat="44.676445746420576" lon="10.124184448335464"><ele>296.0</ele><time>2026-04-19T07:42:29Z</time></trkpt><trkpt lat="44.67649050051916" lon="10.12409756751279"><ele>296.0</ele><time>2026-04-19T07:42:30Z</time></trkpt><trkpt lat="44.676539656508396" lon="10.124003928923582"><ele>296.0</ele><time>2026-04-19T07:42:31Z</time></trkpt><trkpt lat="44.67659048976104" lon="10.123915194918789"><ele>296.0</ele><time>2026-04-19T07:42:32Z</time></trkpt><trkpt lat="44.67664474428997" lon="10.123807565812774"><ele>296.0</ele><time>2026-04-19T07:42:33Z</time></trkpt><trkpt lat="44.6766996072705" lon="10.123713117344288"><ele>296.0</ele><time>2026-04-19T07:42:34Z</time></trkpt><trkpt lat="44.67675246621181" lon="10.123623486422861"><ele>294.5</ele><time>2026-04-19T07:42:35Z</time></trkpt><trkpt lat="44.67680167330294" lon="10.123530645011575"><ele>293.0</ele><time>2026-04-19T07:42:36Z</time></trkpt><trkpt lat="44.67685461951225" lon="10.123439750356257"><ele>291.5</ele><time>2026-04-19T07:42:37Z</time></trkpt><trkpt lat="44.676903087810054" lon="10.123359949970567"><ele>290.0</ele><time>2026-04-19T07:42:38Z</time></trkpt><trkpt lat="44.67695283419085" lon="10.12327968330786"><ele>288.5</ele><time>2026-04-19T07:42:39Z</time></trkpt><trkpt lat="44.67699513520697" lon="10.123196307426745"><ele>287.0</ele><time>2026-04-19T07:42:40Z</time></trkpt><trkpt lat="44.67704340796511" lon="10.123100389777264"><ele>285.5</ele><time>2026-04-19T07:42:41Z</time></trkpt><trkpt lat="44.67709239619701" lon="10.122996076473816"><ele>284.0</ele><time>2026-04-19T07:42:42Z</time></trkpt><trkpt lat="44.677142055128954" lon="10.12287933469318"><ele>282.5</ele><time>2026-04-19T07:42:43Z</time></trkpt><trkpt lat="44.67719949263569" lon="10.12277602399522"><ele>281.0</ele><time>2026-04-19T07:42:44Z</time></trkpt><trkpt lat="44.677256375043605" lon="10.122697754818958"><ele>279.5</ele><time>2026-04-19T07:42:45Z</time></trkpt><trkpt lat="44.67728705598049" lon="10.122606655226962"><ele>278.0</ele><time>2026-04-19T07:42:46Z</time></trkpt><trkpt lat="44.67736417133411" lon="10.122495808051601"><ele>278.0</ele><time>2026-04-19T07:42:48Z</time></trkpt><trkpt lat="44.677421195442435" lon="10.122413637995807"><ele>278.0</ele><time>2026-04-19T07:42:50Z</time></trkpt><trkpt lat="44.677465898029894" lon="10.122345238407497"><ele>278.0</ele><time>2026-04-19T07:42:52Z</time></trkpt><trkpt lat="44.677525628997316" lon="10.122263897142265"><ele>278.0</ele><time>2026-04-19T07:42:55Z</time></trkpt><trkpt lat="44.6775847781929" lon="10.122180062692642"><ele>278.0</ele><time>2026-04-19T07:42:58Z</time></trkpt><trkpt lat="44.67764499820298" lon="10.122099083392845"><ele>278.0</ele><time>2026-04-19T07:43:01Z</time></trkpt><trkpt lat="44.67769640324783" lon="10.12203972644133"><ele>278.0</ele><time>2026-04-19T07:43:03Z</time></trkpt><trkpt lat="44.677762457221625" lon="10.121952550782366"><ele>278.0</ele><time>2026-04-19T07:43:06Z</time></trkpt><trkpt lat="44.677834438757195" lon="10.121858576522124"><ele>278.0</ele><time>2026-04-19T07:43:09Z</time></trkpt><trkpt lat="44.67788610803507" lon="10.121802696257362"><ele>278.0</ele><time>2026-04-19T07:43:11Z</time></trkpt><trkpt lat="44.677942634930425" lon="10.121726283280811"><ele>278.0</ele><time>2026-04-19T07:43:14Z</time></trkpt><trkpt lat="44.67799214079265" lon="10.121651768591642"><ele>278.0</ele><time>2026-04-19T07:43:17Z</time></trkpt><trkpt lat="44.67804399655696" lon="10.121574164144583"><ele>279.6666666666667</ele><time>2026-04-19T07:43:19Z</time></trkpt><trkpt lat="44.678106536076896" lon="10.121509264612078"><ele>281.33333333333337</ele><time>2026-04-19T07:43:21Z</time></trkpt><trkpt lat="44.678165240538135" lon="10.12143471149324"><ele>283.0</ele><time>2026-04-19T07:43:23Z</time></trkpt><trkpt lat="44.67823038660211" lon="10.121360531192623"><ele>284.6666666666667</ele><time>2026-04-19T07:43:24.999Z</time></trkpt><trkpt lat="44.67829572561105" lon="10.1213046299368"><ele>286.3333333333333</ele><time>2026-04-19T07:43:26.999Z</time></trkpt><trkpt lat="44.67834565399856" lon="10.121239350691425"><ele>288.0</ele><time>2026-04-19T07:43:28.999Z</time></trkpt><trkpt lat="44.6784263385436" lon="10.121157755711948"><ele>288.0</ele><time>2026-04-19T07:43:30.999Z</time></trkpt><trkpt lat="44.67848622066747" lon="10.12110937271901"><ele>288.0</ele><time>2026-04-19T07:43:31.999Z</time></trkpt><trkpt lat="44.678575513286695" lon="10.121021621960763"><ele>288.0</ele><time>2026-04-19T07:43:33.999Z</time></trkpt><trkpt lat="44.6786368493252" lon="10.120967944387353"><ele>288.0</ele><time>2026-04-19T07:43:35.999Z</time></trkpt><trkpt lat="44.67870965888063" lon="10.120901758514238"><ele>288.0</ele><time>2026-04-19T07:43:38.999Z</time></trkpt><trkpt lat="44.67877516840623" lon="10.120829098986764"><ele>288.0</ele><time>2026-04-19T07:43:41.999Z</time></trkpt><trkpt lat="44.67883479537236" lon="10.120760846810102"><ele>286.0</ele><time>2026-04-19T07:43:43.999Z</time></trkpt><trkpt lat="44.67891097436478" lon="10.120699994223928"><ele>284.0</ele><time>2026-04-19T07:43:45.999Z</time></trkpt><trkpt lat="44.67898464489957" lon="10.12057145679822"><ele>282.0</ele><time>2026-04-19T07:43:47.999Z</time></trkpt><trkpt lat="44.67903616348716" lon="10.120461556882214"><ele>280.0</ele><time>2026-04-19T07:43:49.999Z</time></trkpt><trkpt lat="44.6790787141447" lon="10.120331538750955"><ele>278.0</ele><time>2026-04-19T07:43:51.999Z</time></trkpt><trkpt lat="44.67914372782357" lon="10.120202672894981"><ele>278.0</ele><time>2026-04-19T07:43:53.999Z</time></trkpt><trkpt lat="44.67920194650878" lon="10.120084319629143"><ele>278.0</ele><time>2026-04-19T07:43:55.999Z</time></trkpt><trkpt lat="44.67926160413353" lon="10.119965917654167"><ele>278.0</ele><time>2026-04-19T07:43:57.999Z</time></trkpt><trkpt lat="44.67930832230894" lon="10.11983239232785"><ele>278.0</ele><time>2026-04-19T07:43:59.999Z</time></trkpt><trkpt lat="44.67932881048585" lon="10.11974838750332"><ele>278.0</ele><time>2026-04-19T07:44:00.999Z</time></trkpt><trkpt lat="44.679370899142306" lon="10.11967010419241"><ele>278.0</ele><time>2026-04-19T07:44:01.999Z</time></trkpt><trkpt lat="44.679398209969115" lon="10.119580756229674"><ele>277.83333333333337</ele><time>2026-04-19T07:44:02.999Z</time></trkpt><trkpt lat="44.679426583012" lon="10.119487933162299"><ele>277.6666666666667</ele><time>2026-04-19T07:44:03.999Z</time></trkpt><trkpt lat="44.67945109237361" lon="10.119337973610584"><ele>277.5</ele><time>2026-04-19T07:44:05.999Z</time></trkpt><trkpt lat="44.679489999542604" lon="10.1191976013503"><ele>277.3333333333333</ele><time>2026-04-19T07:44:07.999Z</time></trkpt><trkpt lat="44.67950504044358" lon="10.119101621017498"><ele>277.16666666666663</ele><time>2026-04-19T07:44:09.999Z</time></trkpt><trkpt lat="44.6795407384435" lon="10.118990902769628"><ele>277.0</ele><time>2026-04-19T07:44:11.999Z</time></trkpt><trkpt lat="44.67957794535781" lon="10.118842443487704"><ele>278.2</ele><time>2026-04-19T07:44:13.999Z</time></trkpt><trkpt lat="44.67964796894301" lon="10.118685808897462"><ele>279.4</ele><time>2026-04-19T07:44:16Z</time></trkpt><trkpt lat="44.6797094166451" lon="10.118620080925531"><ele>280.6</ele><time>2026-04-19T07:44:17Z</time></trkpt><trkpt lat="44.67977879439773" lon="10.118562361858176"><ele>281.8</ele><time>2026-04-19T07:44:18Z</time></trkpt><trkpt lat="44.67984472047532" lon="10.118492588337288"><ele>283.0</ele><time>2026-04-19T07:44:19Z</time></trkpt><trkpt lat="44.67990721820819" lon="10.118415056673339"><ele>283.0</ele><time>2026-04-19T07:44:20Z</time></trkpt><trkpt lat="44.67996566296765" lon="10.118337958853148"><ele>283.0</ele><time>2026-04-19T07:44:21Z</time></trkpt><trkpt lat="44.68001844936049" lon="10.118266251826663"><ele>283.0</ele><time>2026-04-19T07:44:22Z</time></trkpt><trkpt lat="44.680069841139456" lon="10.118192556219313"><ele>283.0</ele><time>2026-04-19T07:44:23Z</time></trkpt><trkpt lat="44.680118293506574" lon="10.118120203366248"><ele>283.0</ele><time>2026-04-19T07:44:24Z</time></trkpt><trkpt lat="44.68016666647538" lon="10.118043182172466"><ele>283.0</ele><time>2026-04-19T07:44:25Z</time></trkpt><trkpt lat="44.68021142730121" lon="10.11795804924968"><ele>283.0</ele><time>2026-04-19T07:44:26Z</time></trkpt><trkpt lat="44.68025557380679" lon="10.117874625634375"><ele>284.3333333333333</ele><time>2026-04-19T07:44:27Z</time></trkpt><trkpt lat="44.68030001012807" lon="10.117800345227547"><ele>285.66666666666663</ele><time>2026-04-19T07:44:28Z</time></trkpt><trkpt lat="44.680351838797876" lon="10.117728699167726"><ele>287.0</ele><time>2026-04-19T07:44:29Z</time></trkpt><trkpt lat="44.68040895292501" lon="10.11765202878834"><ele>288.3333333333333</ele><time>2026-04-19T07:44:30Z</time></trkpt><trkpt lat="44.68046010557137" lon="10.1175882825205"><ele>289.6666666666667</ele><time>2026-04-19T07:44:31Z</time></trkpt><trkpt lat="44.68056512535916" lon="10.117482616993886"><ele>291.0</ele><time>2026-04-19T07:44:33Z</time></trkpt><trkpt lat="44.68063238624185" lon="10.1174344051439"><ele>290.3333333333333</ele><time>2026-04-19T07:44:34Z</time></trkpt><trkpt lat="44.680712551687236" lon="10.117382820530732"><ele>289.6666666666667</ele><time>2026-04-19T07:44:35Z</time></trkpt><trkpt lat="44.68079676946594" lon="10.117340220767606"><ele>289.0</ele><time>2026-04-19T07:44:36Z</time></trkpt><trkpt lat="44.68088703980358" lon="10.11733975492167"><ele>288.33333333333337</ele><time>2026-04-19T07:44:37Z</time></trkpt><trkpt lat="44.68097539834181" lon="10.117319154296919"><ele>287.6666666666667</ele><time>2026-04-19T07:44:38Z</time></trkpt><trkpt lat="44.68105427426415" lon="10.117289316600376"><ele>287.0</ele><time>2026-04-19T07:44:39Z</time></trkpt><trkpt lat="44.68113380723648" lon="10.117251816950397"><ele>290.1666666666667</ele><time>2026-04-19T07:44:40Z</time></trkpt><trkpt lat="44.681199026590924" lon="10.117171899426776"><ele>293.33333333333337</ele><time>2026-04-19T07:44:41Z</time></trkpt><trkpt lat="44.68126315539848" lon="10.117097268076753"><ele>296.5</ele><time>2026-04-19T07:44:42Z</time></trkpt><trkpt lat="44.681330458561334" lon="10.117019325057521"><ele>299.6666666666667</ele><time>2026-04-19T07:44:43Z</time></trkpt><trkpt lat="44.68133351366829" lon="10.116883746920156"><ele>302.8333333333333</ele><time>2026-04-19T07:44:44Z</time></trkpt><trkpt lat="44.68137836260865" lon="10.116767449177132"><ele>306.0</ele><time>2026-04-19T07:44:45Z</time></trkpt><trkpt lat="44.68141256728078" lon="10.116678440778271"><ele>306.0</ele><time>2026-04-19T07:44:46Z</time></trkpt><trkpt lat="44.681457763795066" lon="10.116576344883944"><ele>306.0</ele><time>2026-04-19T07:44:47Z</time></trkpt><trkpt lat="44.68149287093923" lon="10.116499864292134"><ele>306.0</ele><time>2026-04-19T07:44:48Z</time></trkpt><trkpt lat="44.68154144714483" lon="10.116420711473259"><ele>306.0</ele><time>2026-04-19T07:44:49Z</time></trkpt><trkpt lat="44.68161038438248" lon="10.116355766434166"><ele>306.0</ele><time>2026-04-19T07:44:50Z</time></trkpt><trkpt lat="44.681696663974996" lon="10.11628895261657"><ele>306.0</ele><time>2026-04-19T07:44:51Z</time></trkpt><trkpt lat="44.68177742965728" lon="10.116210052251175"><ele>306.0</ele><time>2026-04-19T07:44:52Z</time></trkpt><trkpt lat="44.68185036594499" lon="10.1161368013726"><ele>306.0</ele><time>2026-04-19T07:44:53Z</time></trkpt><trkpt lat="44.6819082247529" lon="10.116060710912127"><ele>306.0</ele><time>2026-04-19T07:44:54Z</time></trkpt><trkpt lat="44.6819197083872" lon="10.115926560172172"><ele>306.0</ele><time>2026-04-19T07:44:55Z</time></trkpt><trkpt lat="44.68195649425781" lon="10.115811814648593"><ele>306.0</ele><time>2026-04-19T07:44:56Z</time></trkpt><trkpt lat="44.681982208883745" lon="10.115698479009094"><ele>306.0</ele><time>2026-04-19T07:44:57Z</time></trkpt><trkpt lat="44.68202677692422" lon="10.115613793535879"><ele>308.2</ele><time>2026-04-19T07:44:58Z</time></trkpt><trkpt lat="44.68208969594707" lon="10.115536862559747"><ele>310.40000000000003</ele><time>2026-04-19T07:44:59Z</time></trkpt><trkpt lat="44.682157236423755" lon="10.115454776682014"><ele>312.6</ele><time>2026-04-19T07:45:00Z</time></trkpt><trkpt lat="44.682247398940866" lon="10.115390064613464"><ele>314.8</ele><time>2026-04-19T07:45:01Z</time></trkpt><trkpt lat="44.682335837153865" lon="10.115333707697872"><ele>317.0</ele><time>2026-04-19T07:45:02Z</time></trkpt><trkpt lat="44.68241664112734" lon="10.115281690473205"><ele>317.0</ele><time>2026-04-19T07:45:03Z</time></trkpt><trkpt lat="44.68249672044775" lon="10.115254943381952"><ele>317.0</ele><time>2026-04-19T07:45:04Z</time></trkpt><trkpt lat="44.682553452243" lon="10.115203574960969"><ele>317.0</ele><time>2026-04-19T07:45:05Z</time></trkpt><trkpt lat="44.68261272807459" lon="10.115046691565542"><ele>317.0</ele><time>2026-04-19T07:45:07Z</time></trkpt><trkpt lat="44.68254293885378" lon="10.114935618271462"><ele>317.0</ele><time>2026-04-19T07:45:08Z</time></trkpt><trkpt lat="44.682519280526854" lon="10.114828420381643"><ele>318.0</ele><time>2026-04-19T07:45:09Z</time></trkpt><trkpt lat="44.6824884986923" lon="10.114708675497656"><ele>319.0</ele><time>2026-04-19T07:45:10Z</time></trkpt><trkpt lat="44.682476840654104" lon="10.114592749757072"><ele>320.0</ele><time>2026-04-19T07:45:11Z</time></trkpt><trkpt lat="44.682448749434606" lon="10.114460681568614"><ele>321.0</ele><time>2026-04-19T07:45:12Z</time></trkpt><trkpt lat="44.68238845173683" lon="10.114313806778435"><ele>322.0</ele><time>2026-04-19T07:45:13Z</time></trkpt><trkpt lat="44.68232941217041" lon="10.114168195000149"><ele>323.0</ele><time>2026-04-19T07:45:14Z</time></trkpt><trkpt lat="44.68225130192988" lon="10.114012076026324"><ele>324.0</ele><time>2026-04-19T07:45:15Z</time></trkpt><trkpt lat="44.6821600159694" lon="10.113855700195966"><ele>325.0</ele><time>2026-04-19T07:45:16Z</time></trkpt><trkpt lat="44.682080392829" lon="10.113701536237855"><ele>326.0</ele><time>2026-04-19T07:45:17Z</time></trkpt><trkpt lat="44.68199948638688" lon="10.113561989808652"><ele>325.33333333333337</ele><time>2026-04-19T07:45:18Z</time></trkpt><trkpt lat="44.681911482321134" lon="10.113476734240837"><ele>324.6666666666667</ele><time>2026-04-19T07:45:19Z</time></trkpt><trkpt lat="44.681870299602316" lon="10.113391678582383"><ele>324.0</ele><time>2026-04-19T07:45:20Z</time></trkpt><trkpt lat="44.681821879205806" lon="10.113332885473156"><ele>323.3333333333333</ele><time>2026-04-19T07:45:21Z</time></trkpt><trkpt lat="44.68176774386982" lon="10.113263793720078"><ele>322.66666666666663</ele><time>2026-04-19T07:45:22Z</time></trkpt><trkpt lat="44.68171385012618" lon="10.113175417581987"><ele>322.0</ele><time>2026-04-19T07:45:23Z</time></trkpt><trkpt lat="44.68165804581835" lon="10.113073126283703"><ele>321.8</ele><time>2026-04-19T07:45:24Z</time></trkpt><trkpt lat="44.68167802347164" lon="10.112946765535423"><ele>321.6</ele><time>2026-04-19T07:45:25Z</time></trkpt><trkpt lat="44.681725454921946" lon="10.112813961949787"><ele>321.40000000000003</ele><time>2026-04-19T07:45:26Z</time></trkpt><trkpt lat="44.681729310608205" lon="10.112644219045487"><ele>321.20000000000005</ele><time>2026-04-19T07:45:27Z</time></trkpt><trkpt lat="44.68169659250008" lon="10.112496970399286"><ele>321.0</ele><time>2026-04-19T07:45:28Z</time></trkpt><trkpt lat="44.68167106574071" lon="10.112352923756783"><ele>320.40000000000003</ele><time>2026-04-19T07:45:29Z</time></trkpt><trkpt lat="44.68164942608589" lon="10.112213595035143"><ele>319.8</ele><time>2026-04-19T07:45:30Z</time></trkpt><trkpt lat="44.68162428031561" lon="10.112078338534022"><ele>319.20000000000005</ele><time>2026-04-19T07:45:31Z</time></trkpt><trkpt lat="44.68160752816785" lon="10.111942255030144"><ele>318.6</ele><time>2026-04-19T07:45:32Z</time></trkpt><trkpt lat="44.68159200527396" lon="10.111810909992741"><ele>318.0</ele><time>2026-04-19T07:45:33Z</time></trkpt><trkpt lat="44.681566507375145" lon="10.111686704391195"><ele>317.4</ele><time>2026-04-19T07:45:34Z</time></trkpt><trkpt lat="44.681588425123394" lon="10.111563238707454"><ele>316.8</ele><time>2026-04-19T07:45:35Z</time></trkpt><trkpt lat="44.681577883612206" lon="10.111439395210613"><ele>316.2</ele><time>2026-04-19T07:45:36Z</time></trkpt><trkpt lat="44.68159706559042" lon="10.111315704458086"><ele>315.6</ele><time>2026-04-19T07:45:37Z</time></trkpt><trkpt lat="44.68160485827841" lon="10.111182450392329"><ele>315.0</ele><time>2026-04-19T07:45:38Z</time></trkpt><trkpt lat="44.68161947618365" lon="10.111040653126897"><ele>315.0</ele><time>2026-04-19T07:45:38.999Z</time></trkpt><trkpt lat="44.681646351271596" lon="10.110897707749238"><ele>315.0</ele><time>2026-04-19T07:45:39.999Z</time></trkpt><trkpt lat="44.68172586050341" lon="10.110788935558515"><ele>315.0</ele><time>2026-04-19T07:45:40.999Z</time></trkpt><trkpt lat="44.681804744535285" lon="10.11068839720755"><ele>315.0</ele><time>2026-04-19T07:45:41.999Z</time></trkpt><trkpt lat="44.681884749416525" lon="10.110582126762305"><ele>315.0</ele><time>2026-04-19T07:45:42.999Z</time></trkpt><trkpt lat="44.68198778404819" lon="10.110555558744318"><ele>313.4</ele><time>2026-04-19T07:45:43.999Z</time></trkpt><trkpt lat="44.68209300057183" lon="10.11051404106029"><ele>311.8</ele><time>2026-04-19T07:45:44.999Z</time></trkpt><trkpt lat="44.68219625821167" lon="10.110507534616639"><ele>310.2</ele><time>2026-04-19T07:45:45.999Z</time></trkpt><trkpt lat="44.682290592916964" lon="10.110478443788738"><ele>308.6</ele><time>2026-04-19T07:45:46.999Z</time></trkpt><trkpt lat="44.68238210807953" lon="10.110434354833341"><ele>307.0</ele><time>2026-04-19T07:45:47.999Z</time></trkpt><trkpt lat="44.682474633491594" lon="10.110379817431717"><ele>307.0</ele><time>2026-04-19T07:45:48.999Z</time></trkpt><trkpt lat="44.682580130341506" lon="10.110316036674723"><ele>307.0</ele><time>2026-04-19T07:45:49.999Z</time></trkpt><trkpt lat="44.682691709487976" lon="10.110245491663315"><ele>307.0</ele><time>2026-04-19T07:45:50.999Z</time></trkpt><trkpt lat="44.68281939458025" lon="10.110182037539404"><ele>307.0</ele><time>2026-04-19T07:45:51.999Z</time></trkpt><trkpt lat="44.68294463419193" lon="10.110099202942386"><ele>304.3333333333333</ele><time>2026-04-19T07:45:52.999Z</time></trkpt><trkpt lat="44.68307900652377" lon="10.110013337464876"><ele>301.6666666666667</ele><time>2026-04-19T07:45:53.999Z</time></trkpt><trkpt lat="44.683212497816626" lon="10.109932017484468"><ele>299.0</ele><time>2026-04-19T07:45:54.999Z</time></trkpt><trkpt lat="44.68335962847151" lon="10.10984220314241"><ele>299.0</ele><time>2026-04-19T07:45:55.999Z</time></trkpt><trkpt lat="44.68350124196811" lon="10.109769248750768"><ele>299.0</ele><time>2026-04-19T07:45:56.999Z</time></trkpt><trkpt lat="44.683656601788954" lon="10.10966762094989"><ele>299.0</ele><time>2026-04-19T07:45:57.999Z</time></trkpt><trkpt lat="44.68380240226492" lon="10.109575962489442"><ele>296.33333333333337</ele><time>2026-04-19T07:45:58.999Z</time></trkpt><trkpt lat="44.683958440089114" lon="10.109478484065782"><ele>293.6666666666667</ele><time>2026-04-19T07:45:59.999Z</time></trkpt><trkpt lat="44.684110737579154" lon="10.109382413608765"><ele>291.0</ele><time>2026-04-19T07:46:00.999Z</time></trkpt><trkpt lat="44.684264336459904" lon="10.109287046426243"><ele>291.0</ele><time>2026-04-19T07:46:01.999Z</time></trkpt><trkpt lat="44.68441653767124" lon="10.109195355545252"><ele>291.0</ele><time>2026-04-19T07:46:02.999Z</time></trkpt><trkpt lat="44.68456471406283" lon="10.109109442057528"><ele>291.0</ele><time>2026-04-19T07:46:03.999Z</time></trkpt><trkpt lat="44.68470032691491" lon="10.109021919836056"><ele>289.25</ele><time>2026-04-19T07:46:04.999Z</time></trkpt><trkpt lat="44.68483153631521" lon="10.108930257449437"><ele>287.5</ele><time>2026-04-19T07:46:05.999Z</time></trkpt><trkpt lat="44.68496405474272" lon="10.108848394320916"><ele>285.75</ele><time>2026-04-19T07:46:06.999Z</time></trkpt><trkpt lat="44.685091201947536" lon="10.108777136529962"><ele>284.0</ele><time>2026-04-19T07:46:07.999Z</time></trkpt><trkpt lat="44.685212160244085" lon="10.108705450331827"><ele>282.75</ele><time>2026-04-19T07:46:08.999Z</time></trkpt><trkpt lat="44.685326630638876" lon="10.108622999475823"><ele>281.5</ele><time>2026-04-19T07:46:09.999Z</time></trkpt><trkpt lat="44.68544824743281" lon="10.108570540784301"><ele>280.25</ele><time>2026-04-19T07:46:10.999Z</time></trkpt><trkpt lat="44.685551167976875" lon="10.108481914075304"><ele>279.0</ele><time>2026-04-19T07:46:11.999Z</time></trkpt><trkpt lat="44.68566171613477" lon="10.108424595545834"><ele>279.0</ele><time>2026-04-19T07:46:12.999Z</time></trkpt><trkpt lat="44.685782950996725" lon="10.108348506638238"><ele>279.0</ele><time>2026-04-19T07:46:13.999Z</time></trkpt><trkpt lat="44.68591526523231" lon="10.108263035436158"><ele>279.0</ele><time>2026-04-19T07:46:14.999Z</time></trkpt><trkpt lat="44.686058793068156" lon="10.108181242313604"><ele>279.0</ele><time>2026-04-19T07:46:15.999Z</time></trkpt><trkpt lat="44.68620221546902" lon="10.108091966135225"><ele>276.3333333333333</ele><time>2026-04-19T07:46:16.999Z</time></trkpt><trkpt lat="44.686348460252425" lon="10.108001606336867"><ele>273.66666666666663</ele><time>2026-04-19T07:46:17.999Z</time></trkpt><trkpt lat="44.68649758862542" lon="10.10791207809853"><ele>271.0</ele><time>2026-04-19T07:46:18.999Z</time></trkpt><trkpt lat="44.68663659698714" lon="10.107829481856458"><ele>271.0</ele><time>2026-04-19T07:46:19.999Z</time></trkpt><trkpt lat="44.686762941202005" lon="10.107734027593956"><ele>271.0</ele><time>2026-04-19T07:46:21Z</time></trkpt><trkpt lat="44.68686370751295" lon="10.107582318591707"><ele>271.0</ele><time>2026-04-19T07:46:22Z</time></trkpt><trkpt lat="44.6869276559768" lon="10.107374103638463"><ele>270.0</ele><time>2026-04-19T07:46:23Z</time></trkpt><trkpt lat="44.68700221901029" lon="10.107170554971898"><ele>269.0</ele><time>2026-04-19T07:46:24Z</time></trkpt><trkpt lat="44.68706460138633" lon="10.106972290212285"><ele>268.0</ele><time>2026-04-19T07:46:25Z</time></trkpt><trkpt lat="44.6871286729244" lon="10.106783975559761"><ele>268.0</ele><time>2026-04-19T07:46:26Z</time></trkpt><trkpt lat="44.687196824495544" lon="10.106591031242264"><ele>268.0</ele><time>2026-04-19T07:46:27Z</time></trkpt><trkpt lat="44.68726031361859" lon="10.106407475143197"><ele>268.0</ele><time>2026-04-19T07:46:28Z</time></trkpt><trkpt lat="44.68731079599072" lon="10.106242500014245"><ele>268.0</ele><time>2026-04-19T07:46:29Z</time></trkpt><trkpt lat="44.68735052040881" lon="10.10613121081959"><ele>266.66666666666663</ele><time>2026-04-19T07:46:30Z</time></trkpt><trkpt lat="44.6874049808775" lon="10.106038678652649"><ele>265.3333333333333</ele><time>2026-04-19T07:46:31Z</time></trkpt><trkpt lat="44.687482028329995" lon="10.105988294885048"><ele>264.0</ele><time>2026-04-19T07:46:32Z</time></trkpt><trkpt lat="44.68757175289292" lon="10.105994248684791"><ele>262.6666666666667</ele><time>2026-04-19T07:46:33Z</time></trkpt><trkpt lat="44.687666994233126" lon="10.106024049859068"><ele>261.33333333333337</ele><time>2026-04-19T07:46:34Z</time></trkpt><trkpt lat="44.68773522244721" lon="10.105967242791062"><ele>260.0</ele><time>2026-04-19T07:46:36Z</time></trkpt><trkpt lat="44.68771934713269" lon="10.105856109774317"><ele>260.0</ele><time>2026-04-19T07:46:37Z</time></trkpt><trkpt lat="44.68763720237978" lon="10.105809521266412"><ele>260.0</ele><time>2026-04-19T07:46:38Z</time></trkpt><trkpt lat="44.687509719869766" lon="10.105831073015747"><ele>260.0</ele><time>2026-04-19T07:46:40Z</time></trkpt><trkpt lat="44.687445182141744" lon="10.105810286261127"><ele>260.0</ele><time>2026-04-19T07:46:41Z</time></trkpt><trkpt lat="44.68736530160511" lon="10.105785902787447"><ele>260.0</ele><time>2026-04-19T07:46:42Z</time></trkpt><trkpt lat="44.68728536995869" lon="10.105746548802196"><ele>256.83333333333337</ele><time>2026-04-19T07:46:44Z</time></trkpt><trkpt lat="44.68730751381697" lon="10.105661193311352"><ele>253.66666666666669</ele><time>2026-04-19T07:46:46Z</time></trkpt><trkpt lat="44.68739322588929" lon="10.105636729007802"><ele>250.5</ele><time>2026-04-19T07:46:47Z</time></trkpt><trkpt lat="44.68749696364733" lon="10.105643909288132"><ele>247.33333333333331</ele><time>2026-04-19T07:46:48Z</time></trkpt><trkpt lat="44.68759223461605" lon="10.105620026401686"><ele>244.16666666666666</ele><time>2026-04-19T07:46:49Z</time></trkpt><trkpt lat="44.68768608466901" lon="10.105590002891676"><ele>241.0</ele><time>2026-04-19T07:46:50Z</time></trkpt><trkpt lat="44.68777193193316" lon="10.105556709743057"><ele>241.0</ele><time>2026-04-19T07:46:51Z</time></trkpt><trkpt lat="44.6878636714627" lon="10.105528143948241"><ele>241.00000000000003</ele><time>2026-04-19T07:46:52Z</time></trkpt><trkpt lat="44.68796416463796" lon="10.10549145696158"><ele>241.00000000000003</ele><time>2026-04-19T07:46:53Z</time></trkpt><trkpt lat="44.68806725768189" lon="10.105457344007892"><ele>241.0</ele><time>2026-04-19T07:46:54Z</time></trkpt><trkpt lat="44.68814884511877" lon="10.105386126173501"><ele>241.0</ele><time>2026-04-19T07:46:55Z</time></trkpt><trkpt lat="44.68821844735498" lon="10.105247860435028"><ele>241.0</ele><time>2026-04-19T07:46:56Z</time></trkpt><trkpt lat="44.68831624683012" lon="10.105110555044588"><ele>241.00000000000003</ele><time>2026-04-19T07:46:57Z</time></trkpt><trkpt lat="44.68837128153242" lon="10.104991982806121"><ele>241.00000000000003</ele><time>2026-04-19T07:46:58Z</time></trkpt><trkpt lat="44.68842719177479" lon="10.104902240434951"><ele>241.0</ele><time>2026-04-19T07:46:59Z</time></trkpt><trkpt lat="44.68849769792501" lon="10.104859708133548"><ele>241.0</ele><time>2026-04-19T07:47:00Z</time></trkpt><trkpt lat="44.68858051420359" lon="10.104863639947224"><ele>238.4</ele><time>2026-04-19T07:47:01Z</time></trkpt><trkpt lat="44.68869098877732" lon="10.10487843445634"><ele>235.8</ele><time>2026-04-19T07:47:02Z</time></trkpt><trkpt lat="44.68880338258583" lon="10.104899717673455"><ele>233.20000000000002</ele><time>2026-04-19T07:47:03Z</time></trkpt><trkpt lat="44.6888917595298" lon="10.104906264526281"><ele>230.60000000000002</ele><time>2026-04-19T07:47:04Z</time></trkpt><trkpt lat="44.68897403975324" lon="10.104898771368195"><ele>228.0</ele><time>2026-04-19T07:47:06Z</time></trkpt><trkpt lat="44.688958947198785" lon="10.104719711896522"><ele>228.0</ele><time>2026-04-19T07:47:07Z</time></trkpt><trkpt lat="44.688884696175904" lon="10.104652662693773"><ele>228.0</ele><time>2026-04-19T07:47:08Z</time></trkpt><trkpt lat="44.68878305845834" lon="10.104637210989312"><ele>228.0</ele><time>2026-04-19T07:47:09Z</time></trkpt><trkpt lat="44.68870858201804" lon="10.104600890351435"><ele>228.0</ele><time>2026-04-19T07:47:10Z</time></trkpt><trkpt lat="44.68862525161994" lon="10.104557060132482"><ele>228.0</ele><time>2026-04-19T07:47:11Z</time></trkpt><trkpt lat="44.688547222941104" lon="10.104506679619623"><ele>228.0</ele><time>2026-04-19T07:47:12Z</time></trkpt><trkpt lat="44.688472774622845" lon="10.104460329887488"><ele>227.16666666666666</ele><time>2026-04-19T07:47:13Z</time></trkpt><trkpt lat="44.688389049750704" lon="10.104463753805073"><ele>226.33333333333331</ele><time>2026-04-19T07:47:14Z</time></trkpt><trkpt lat="44.688308667771956" lon="10.104459334615623"><ele>225.5</ele><time>2026-04-19T07:47:15Z</time></trkpt><trkpt lat="44.688220786008806" lon="10.104461259653036"><ele>224.66666666666666</ele><time>2026-04-19T07:47:16Z</time></trkpt><trkpt lat="44.68812982420861" lon="10.104457567170416"><ele>223.83333333333331</ele><time>2026-04-19T07:47:17Z</time></trkpt><trkpt lat="44.688037414586226" lon="10.104455618530563"><ele>223.0</ele><time>2026-04-19T07:47:18Z</time></trkpt><trkpt lat="44.68793123089622" lon="10.10444092007191"><ele>223.0</ele><time>2026-04-19T07:47:19Z</time></trkpt><trkpt lat="44.68780848723423" lon="10.104427900118996"><ele>223.0</ele><time>2026-04-19T07:47:20Z</time></trkpt><trkpt lat="44.68768369023045" lon="10.104417110957044"><ele>223.0</ele><time>2026-04-19T07:47:21Z</time></trkpt><trkpt lat="44.6875793053618" lon="10.104412323776387"><ele>223.0</ele><time>2026-04-19T07:47:22Z</time></trkpt><trkpt lat="44.68747289771468" lon="10.10440140349605"><ele>222.83333333333331</ele><time>2026-04-19T07:47:23Z</time></trkpt><trkpt lat="44.68737109577542" lon="10.104393621297165"><ele>222.66666666666666</ele><time>2026-04-19T07:47:24Z</time></trkpt><trkpt lat="44.68727612180035" lon="10.104388751155039"><ele>222.5</ele><time>2026-04-19T07:47:25Z</time></trkpt><trkpt lat="44.68721039054782" lon="10.104355556905858"><ele>222.33333333333331</ele><time>2026-04-19T07:47:26Z</time></trkpt><trkpt lat="44.68713487674908" lon="10.104278997974703"><ele>222.16666666666666</ele><time>2026-04-19T07:47:28Z</time></trkpt><trkpt lat="44.68717302382196" lon="10.104175666078408"><ele>222.0</ele><time>2026-04-19T07:47:29Z</time></trkpt><trkpt lat="44.68726822133684" lon="10.10411662583787"><ele>218.75</ele><time>2026-04-19T07:47:30Z</time></trkpt><trkpt lat="44.68738655503837" lon="10.104060679119572"><ele>215.5</ele><time>2026-04-19T07:47:31Z</time></trkpt><trkpt lat="44.687495915805854" lon="10.10399961061965"><ele>212.25</ele><time>2026-04-19T07:47:32Z</time></trkpt><trkpt lat="44.68759612608683" lon="10.1039553242076"><ele>209.0</ele><time>2026-04-19T07:47:33Z</time></trkpt><trkpt lat="44.68769049373198" lon="10.103874259306057"><ele>208.83333333333334</ele><time>2026-04-19T07:47:34Z</time></trkpt><trkpt lat="44.687792911652515" lon="10.103819491675381"><ele>208.66666666666669</ele><time>2026-04-19T07:47:35Z</time></trkpt><trkpt lat="44.68788788167848" lon="10.103756478828627"><ele>208.5</ele><time>2026-04-19T07:47:35.999Z</time></trkpt><trkpt lat="44.687966219127674" lon="10.103718230057988"><ele>208.33333333333331</ele><time>2026-04-19T07:47:36.999Z</time></trkpt><trkpt lat="44.688019532440286" lon="10.103658759518817"><ele>208.16666666666666</ele><time>2026-04-19T07:47:37.999Z</time></trkpt><trkpt lat="44.688067194337876" lon="10.103593789298777"><ele>208.0</ele><time>2026-04-19T07:47:38.999Z</time></trkpt><trkpt lat="44.68810613039118" lon="10.103502300442281"><ele>208.0</ele><time>2026-04-19T07:47:39.999Z</time></trkpt><trkpt lat="44.68815393602133" lon="10.103395145703567"><ele>208.0</ele><time>2026-04-19T07:47:40.999Z</time></trkpt><trkpt lat="44.68821309112149" lon="10.103295471982122"><ele>208.0</ele><time>2026-04-19T07:47:41.999Z</time></trkpt><trkpt lat="44.68828676337409" lon="10.103205796238607"><ele>208.0</ele><time>2026-04-19T07:47:42.999Z</time></trkpt><trkpt lat="44.68838422971567" lon="10.103135140814977"><ele>208.0</ele><time>2026-04-19T07:47:43.999Z</time></trkpt><trkpt lat="44.688491325038285" lon="10.103073590050066"><ele>205.0</ele><time>2026-04-19T07:47:44.999Z</time></trkpt><trkpt lat="44.688598786643944" lon="10.103020900913794"><ele>202.0</ele><time>2026-04-19T07:47:45.999Z</time></trkpt><trkpt lat="44.68870109248734" lon="10.10295252271251"><ele>199.0</ele><time>2026-04-19T07:47:46.999Z</time></trkpt><trkpt lat="44.68880685269258" lon="10.102879872876589"><ele>196.0</ele><time>2026-04-19T07:47:47.999Z</time></trkpt><trkpt lat="44.68890361068764" lon="10.102822402658774"><ele>196.0</ele><time>2026-04-19T07:47:48.999Z</time></trkpt><trkpt lat="44.688986837371615" lon="10.10277159549073"><ele>196.0</ele><time>2026-04-19T07:47:49.999Z</time></trkpt><trkpt lat="44.68903106529706" lon="10.102621794230242"><ele>196.0</ele><time>2026-04-19T07:47:51.999Z</time></trkpt><trkpt lat="44.688933658248644" lon="10.102468158542477"><ele>196.0</ele><time>2026-04-19T07:47:53.999Z</time></trkpt><trkpt lat="44.688838693030974" lon="10.102492988403357"><ele>196.0</ele><time>2026-04-19T07:47:54.999Z</time></trkpt><trkpt lat="44.68875651082648" lon="10.102588313479353"><ele>195.99999999999997</ele><time>2026-04-19T07:47:55.999Z</time></trkpt><trkpt lat="44.6886959335233" lon="10.102618989653614"><ele>196.0</ele><time>2026-04-19T07:47:56.999Z</time></trkpt><trkpt lat="44.688596620324674" lon="10.102597148108623"><ele>196.0</ele><time>2026-04-19T07:47:58.999Z</time></trkpt><trkpt lat="44.68847812925756" lon="10.102572310903907"><ele>196.0</ele><time>2026-04-19T07:48:00.999Z</time></trkpt><trkpt lat="44.68839739534389" lon="10.102552518054184"><ele>195.99999999999997</ele><time>2026-04-19T07:48:01.999Z</time></trkpt><trkpt lat="44.688323416812125" lon="10.102555287232384"><ele>196.0</ele><time>2026-04-19T07:48:02.999Z</time></trkpt><trkpt lat="44.688248161248445" lon="10.102545609809034"><ele>196.20000000000002</ele><time>2026-04-19T07:48:03.999Z</time></trkpt><trkpt lat="44.68817015222967" lon="10.102511062298552"><ele>196.4</ele><time>2026-04-19T07:48:04.999Z</time></trkpt><trkpt lat="44.68808522783226" lon="10.102511931542724"><ele>196.6</ele><time>2026-04-19T07:48:05.999Z</time></trkpt><trkpt lat="44.688037811008186" lon="10.102436529824425"><ele>196.8</ele><time>2026-04-19T07:48:06.999Z</time></trkpt><trkpt lat="44.68808883454729" lon="10.102300144394288"><ele>197.0</ele><time>2026-04-19T07:48:08.999Z</time></trkpt><trkpt lat="44.68822295717935" lon="10.10221964694669"><ele>194.8</ele><time>2026-04-19T07:48:10.999Z</time></trkpt><trkpt lat="44.68830951997722" lon="10.102164648700956"><ele>192.6</ele><time>2026-04-19T07:48:11.999Z</time></trkpt><trkpt lat="44.6884016966611" lon="10.102111519171801"><ele>190.4</ele><time>2026-04-19T07:48:12.999Z</time></trkpt><trkpt lat="44.68849407180347" lon="10.102062593372088"><ele>188.20000000000002</ele><time>2026-04-19T07:48:13.999Z</time></trkpt><trkpt lat="44.6885879483363" lon="10.102019097877601"><ele>186.0</ele><time>2026-04-19T07:48:14.999Z</time></trkpt><trkpt lat="44.68868200364266" lon="10.101982028386287"><ele>185.66666666666666</ele><time>2026-04-19T07:48:15.999Z</time></trkpt><trkpt lat="44.688763047332486" lon="10.10194881145627"><ele>185.33333333333334</ele><time>2026-04-19T07:48:16.999Z</time></trkpt><trkpt lat="44.68884479590619" lon="10.101915305610772"><ele>185.0</ele><time>2026-04-19T07:48:17.999Z</time></trkpt><trkpt lat="44.68892722602048" lon="10.101885703949707"><ele>184.66666666666669</ele><time>2026-04-19T07:48:18.999Z</time></trkpt><trkpt lat="44.68900176427804" lon="10.101870864952414"><ele>184.33333333333334</ele><time>2026-04-19T07:48:19.999Z</time></trkpt><trkpt lat="44.689080307418784" lon="10.101850185038682"><ele>184.0</ele><time>2026-04-19T07:48:20.999Z</time></trkpt><trkpt lat="44.689154976411004" lon="10.101856072061594"><ele>184.0</ele><time>2026-04-19T07:48:21.999Z</time></trkpt><trkpt lat="44.689229653360194" lon="10.10186743518395"><ele>184.0</ele><time>2026-04-19T07:48:22.999Z</time></trkpt><trkpt lat="44.689301674408014" lon="10.101874893689313"><ele>184.0</ele><time>2026-04-19T07:48:23.999Z</time></trkpt><trkpt lat="44.68937176218053" lon="10.101864569104624"><ele>184.0</ele><time>2026-04-19T07:48:24.999Z</time></trkpt><trkpt lat="44.689421285633784" lon="10.101798743763588"><ele>184.0</ele><time>2026-04-19T07:48:25.999Z</time></trkpt><trkpt lat="44.68940759196985" lon="10.101687100079584"><ele>184.0</ele><time>2026-04-19T07:48:27Z</time></trkpt><trkpt lat="44.689366023952246" lon="10.101601771413192"><ele>184.0</ele><time>2026-04-19T07:48:28Z</time></trkpt><trkpt lat="44.68930342873722" lon="10.101513570109052"><ele>182.0</ele><time>2026-04-19T07:48:29Z</time></trkpt><trkpt lat="44.689240019306716" lon="10.101420421139236"><ele>180.0</ele><time>2026-04-19T07:48:30Z</time></trkpt><trkpt lat="44.689199148149676" lon="10.101314627365985"><ele>178.0</ele><time>2026-04-19T07:48:31Z</time></trkpt><trkpt lat="44.689161103301885" lon="10.101189551146428"><ele>176.0</ele><time>2026-04-19T07:48:32Z</time></trkpt><trkpt lat="44.6891206123239" lon="10.101066096636224"><ele>174.0</ele><time>2026-04-19T07:48:33Z</time></trkpt><trkpt lat="44.689082210719405" lon="10.100945464527769"><ele>174.0</ele><time>2026-04-19T07:48:34Z</time></trkpt><trkpt lat="44.68905395652302" lon="10.100833431766294"><ele>174.0</ele><time>2026-04-19T07:48:35Z</time></trkpt><trkpt lat="44.68903654290733" lon="10.100737595063206"><ele>174.0</ele><time>2026-04-19T07:48:36Z</time></trkpt><trkpt lat="44.68903437866308" lon="10.100643785119578"><ele>174.0</ele><time>2026-04-19T07:48:37Z</time></trkpt><trkpt lat="44.68905778334222" lon="10.100561239133782"><ele>174.0</ele><time>2026-04-19T07:48:38Z</time></trkpt><trkpt lat="44.68909046238483" lon="10.100475889366082"><ele>174.0</ele><time>2026-04-19T07:48:39Z</time></trkpt><trkpt lat="44.689127525413234" lon="10.100391125075086"><ele>174.0</ele><time>2026-04-19T07:48:40Z</time></trkpt><trkpt lat="44.68917225453404" lon="10.100316965068584"><ele>173.16666666666666</ele><time>2026-04-19T07:48:41Z</time></trkpt><trkpt lat="44.68922904397254" lon="10.100242230968142"><ele>172.33333333333334</ele><time>2026-04-19T07:48:42Z</time></trkpt><trkpt lat="44.689290621113436" lon="10.100171478729644"><ele>171.5</ele><time>2026-04-19T07:48:43Z</time></trkpt><trkpt lat="44.68936140412346" lon="10.10010513113614"><ele>170.66666666666669</ele><time>2026-04-19T07:48:44Z</time></trkpt><trkpt lat="44.689427303857244" lon="10.10005944019015"><ele>169.83333333333334</ele><time>2026-04-19T07:48:45Z</time></trkpt><trkpt lat="44.68948469759542" lon="10.100012272213581"><ele>169.0</ele><time>2026-04-19T07:48:46Z</time></trkpt><trkpt lat="44.689568617994865" lon="10.099934947313224"><ele>167.6</ele><time>2026-04-19T07:48:48Z</time></trkpt><trkpt lat="44.68962217483431" lon="10.099887239504707"><ele>166.2</ele><time>2026-04-19T07:48:49Z</time></trkpt><trkpt lat="44.68969352331745" lon="10.099823208001128"><ele>164.79999999999998</ele><time>2026-04-19T07:48:50Z</time></trkpt><trkpt lat="44.6897745317772" lon="10.099724596894735"><ele>163.39999999999998</ele><time>2026-04-19T07:48:51Z</time></trkpt><trkpt lat="44.68986525795398" lon="10.099641315332313"><ele>162.0</ele><time>2026-04-19T07:48:52Z</time></trkpt><trkpt lat="44.689962991321195" lon="10.099577623257744"><ele>162.0</ele><time>2026-04-19T07:48:53Z</time></trkpt><trkpt lat="44.69003655206439" lon="10.099481918695382"><ele>162.0</ele><time>2026-04-19T07:48:54Z</time></trkpt><trkpt lat="44.69011720872128" lon="10.099409620760117"><ele>162.0</ele><time>2026-04-19T07:48:55Z</time></trkpt><trkpt lat="44.690191626345815" lon="10.099345305108052"><ele>162.0</ele><time>2026-04-19T07:48:56Z</time></trkpt><trkpt lat="44.690251419562934" lon="10.099296215878427"><ele>162.0</ele><time>2026-04-19T07:48:57Z</time></trkpt><trkpt lat="44.69031355223547" lon="10.099268685156755"><ele>162.0</ele><time>2026-04-19T07:48:59Z</time></trkpt><trkpt lat="44.69036999131322" lon="10.099228258196915"><ele>161.5</ele><time>2026-04-19T07:49:03Z</time></trkpt><trkpt lat="44.6903384256595" lon="10.099022037062637"><ele>161.0</ele><time>2026-04-19T07:49:05Z</time></trkpt><trkpt lat="44.69031459166637" lon="10.098938086488323"><ele>160.5</ele><time>2026-04-19T07:49:06Z</time></trkpt><trkpt lat="44.69029140527664" lon="10.098832697181335"><ele>160.0</ele><time>2026-04-19T07:49:07Z</time></trkpt><trkpt lat="44.690268144253714" lon="10.098731861778395"><ele>159.5</ele><time>2026-04-19T07:49:08Z</time></trkpt><trkpt lat="44.69024456089324" lon="10.098641858473652"><ele>159.0</ele><time>2026-04-19T07:49:09Z</time></trkpt><trkpt lat="44.69020941536634" lon="10.098497788825314"><ele>158.5</ele><time>2026-04-19T07:49:11Z</time></trkpt><trkpt lat="44.69026748464549" lon="10.098391347937547"><ele>158.0</ele><time>2026-04-19T07:49:13Z</time></trkpt><trkpt lat="44.69032970939851" lon="10.09836596078908"><ele>157.5</ele><time>2026-04-19T07:49:14Z</time></trkpt><trkpt lat="44.69040691087213" lon="10.09845185238732"><ele>157.0</ele><time>2026-04-19T07:49:15Z</time></trkpt><trkpt lat="44.69047182379432" lon="10.09851176499806"><ele>156.5</ele><time>2026-04-19T07:49:16Z</time></trkpt><trkpt lat="44.690544711863026" lon="10.098567499366027"><ele>156.0</ele><time>2026-04-19T07:49:17Z</time></trkpt><trkpt lat="44.690615991355095" lon="10.098618322268528"><ele>156.0</ele><time>2026-04-19T07:49:18Z</time></trkpt><trkpt lat="44.69066873646899" lon="10.098668208486476"><ele>156.0</ele><time>2026-04-19T07:49:19Z</time></trkpt><trkpt lat="44.6907706996572" lon="10.098765301945088"><ele>156.0</ele><time>2026-04-19T07:49:21Z</time></trkpt><trkpt lat="44.690880241273994" lon="10.09886348309277"><ele>156.0</ele><time>2026-04-19T07:49:23Z</time></trkpt><trkpt lat="44.690938504132596" lon="10.09891502514089"><ele>156.0</ele><time>2026-04-19T07:49:24Z</time></trkpt><trkpt lat="44.690993188332534" lon="10.09896889662749"><ele>156.0</ele><time>2026-04-19T07:49:25Z</time></trkpt><trkpt lat="44.6910500300749" lon="10.099024911654649"><ele>156.0</ele><time>2026-04-19T07:49:26Z</time></trkpt><trkpt lat="44.69111139273265" lon="10.099079209373274"><ele>156.0</ele><time>2026-04-19T07:49:27Z</time></trkpt><trkpt lat="44.69117030519888" lon="10.09914352741953"><ele>156.0</ele><time>2026-04-19T07:49:28Z</time></trkpt><trkpt lat="44.69123075736206" lon="10.09920638998737"><ele>156.0</ele><time>2026-04-19T07:49:29Z</time></trkpt><trkpt lat="44.69129507510341" lon="10.09927170005749"><ele>156.0</ele><time>2026-04-19T07:49:30Z</time></trkpt><trkpt lat="44.691353725332455" lon="10.099328239069184"><ele>156.0</ele><time>2026-04-19T07:49:31Z</time></trkpt><trkpt lat="44.69141065370301" lon="10.099379644710858"><ele>154.5</ele><time>2026-04-19T07:49:32Z</time></trkpt><trkpt lat="44.691461651349975" lon="10.099433900049284"><ele>153.0</ele><time>2026-04-19T07:49:33Z</time></trkpt><trkpt lat="44.691533303884476" lon="10.099546976953597"><ele>151.5</ele><time>2026-04-19T07:49:35Z</time></trkpt><trkpt lat="44.69159497320814" lon="10.099652626716765"><ele>150.0</ele><time>2026-04-19T07:49:37Z</time></trkpt><trkpt lat="44.69164312917746" lon="10.099734117751316"><ele>148.5</ele><time>2026-04-19T07:49:39Z</time></trkpt><trkpt lat="44.69159823337889" lon="10.09961868952558"><ele>147.0</ele><time>2026-04-19T07:49:41.999Z</time></trkpt><trkpt lat="44.69167209079494" lon="10.099598587351903"><ele>147.0</ele><time>2026-04-19T07:49:43.999Z</time></trkpt><trkpt lat="44.69143628144134" lon="10.099364751124915"><ele>147.0</ele><time>2026-04-19T07:49:45.999Z</time></trkpt><trkpt lat="44.69134859090004" lon="10.099287950202823"><ele>147.0</ele><time>2026-04-19T07:49:47.999Z</time></trkpt><trkpt lat="44.69124093897722" lon="10.099180300662951"><ele>147.0</ele><time>2026-04-19T07:49:49.999Z</time></trkpt><trkpt lat="44.69118358687676" lon="10.099124886369918"><ele>147.0</ele><time>2026-04-19T07:49:50.999Z</time></trkpt><trkpt lat="44.6911282618648" lon="10.09906644049742"><ele>147.0</ele><time>2026-04-19T07:49:51.999Z</time></trkpt><trkpt lat="44.69107523167706" lon="10.099010802124319"><ele>147.0</ele><time>2026-04-19T07:49:52.999Z</time></trkpt><trkpt lat="44.69101754450603" lon="10.098954423674144"><ele>147.0</ele><time>2026-04-19T07:49:53.999Z</time></trkpt><trkpt lat="44.69095869378914" lon="10.098908506451275"><ele>147.0</ele><time>2026-04-19T07:49:54.999Z</time></trkpt><trkpt lat="44.69090202422257" lon="10.098849067552264"><ele>147.0</ele><time>2026-04-19T07:49:55.999Z</time></trkpt><trkpt lat="44.6908424696153" lon="10.0987989652754"><ele>148.5</ele><time>2026-04-19T07:49:56.999Z</time></trkpt><trkpt lat="44.69078904822801" lon="10.098747257023133"><ele>150.0</ele><time>2026-04-19T07:49:57.999Z</time></trkpt><trkpt lat="44.69068514349757" lon="10.098653490308267"><ele>151.5</ele><time>2026-04-19T07:49:59.999Z</time></trkpt><trkpt lat="44.69063123479386" lon="10.098602642286203"><ele>153.0</ele><time>2026-04-19T07:50:00.999Z</time></trkpt><trkpt lat="44.69057887177084" lon="10.098547777029031"><ele>154.5</ele><time>2026-04-19T07:50:01.999Z</time></trkpt><trkpt lat="44.690521576811946" lon="10.098490317372768"><ele>156.0</ele><time>2026-04-19T07:50:02.999Z</time></trkpt><trkpt lat="44.69045981929644" lon="10.098437088716283"><ele>156.0</ele><time>2026-04-19T07:50:03.999Z</time></trkpt><trkpt lat="44.69040515755005" lon="10.098392954340424"><ele>156.0</ele><time>2026-04-19T07:50:04.999Z</time></trkpt><trkpt lat="44.690314238587405" lon="10.098315863494932"><ele>156.0</ele><time>2026-04-19T07:50:06.999Z</time></trkpt><trkpt lat="44.69020672439846" lon="10.09822799496307"><ele>156.0</ele><time>2026-04-19T07:50:08.999Z</time></trkpt><trkpt lat="44.690107721654165" lon="10.098116372916005"><ele>156.0</ele><time>2026-04-19T07:50:10.999Z</time></trkpt><trkpt lat="44.69005881315179" lon="10.09801952715378"><ele>155.8</ele><time>2026-04-19T07:50:11.999Z</time></trkpt><trkpt lat="44.69000440874009" lon="10.097922886236796"><ele>155.6</ele><time>2026-04-19T07:50:12.999Z</time></trkpt><trkpt lat="44.689935379782106" lon="10.097840982725375"><ele>155.4</ele><time>2026-04-19T07:50:13.999Z</time></trkpt><trkpt lat="44.68986196793596" lon="10.097742911136677"><ele>155.2</ele><time>2026-04-19T07:50:14.999Z</time></trkpt><trkpt lat="44.6897730935447" lon="10.09764429250356"><ele>155.0</ele><time>2026-04-19T07:50:15.999Z</time></trkpt><trkpt lat="44.68966800436198" lon="10.097570283234191"><ele>155.0</ele><time>2026-04-19T07:50:16.999Z</time></trkpt><trkpt lat="44.689554223400684" lon="10.097512784270743"><ele>155.0</ele><time>2026-04-19T07:50:17.999Z</time></trkpt><trkpt lat="44.68943386982714" lon="10.097468156849768"><ele>155.0</ele><time>2026-04-19T07:50:18.999Z</time></trkpt><trkpt lat="44.68930635838615" lon="10.097437249160587"><ele>155.0</ele><time>2026-04-19T07:50:19.999Z</time></trkpt><trkpt lat="44.68918082168031" lon="10.097399041000639"><ele>151.5</ele><time>2026-04-19T07:50:20.999Z</time></trkpt><trkpt lat="44.689056983902624" lon="10.09736388333796"><ele>148.0</ele><time>2026-04-19T07:50:21.999Z</time></trkpt><trkpt lat="44.688930599368554" lon="10.097330439621523"><ele>144.5</ele><time>2026-04-19T07:50:22.999Z</time></trkpt><trkpt lat="44.688796008500496" lon="10.097298029709014"><ele>141.0</ele><time>2026-04-19T07:50:23.999Z</time></trkpt><trkpt lat="44.6886549522145" lon="10.097263820289653"><ele>141.0</ele><time>2026-04-19T07:50:24.999Z</time></trkpt><trkpt lat="44.68851193278822" lon="10.097228898994096"><ele>141.0</ele><time>2026-04-19T07:50:25.999Z</time></trkpt><trkpt lat="44.688366343956524" lon="10.097196014666933"><ele>141.0</ele><time>2026-04-19T07:50:26.999Z</time></trkpt><trkpt lat="44.68822112764378" lon="10.097159618845962"><ele>141.0</ele><time>2026-04-19T07:50:27.999Z</time></trkpt><trkpt lat="44.688080169586954" lon="10.097125022343896"><ele>141.0</ele><time>2026-04-19T07:50:28.999Z</time></trkpt><trkpt lat="44.687941190762174" lon="10.09709181818747"><ele>141.0</ele><time>2026-04-19T07:50:29.999Z</time></trkpt><trkpt lat="44.687803376410976" lon="10.097064089986608"><ele>141.0</ele><time>2026-04-19T07:50:30.999Z</time></trkpt><trkpt lat="44.68766593138247" lon="10.097037110560867"><ele>141.0</ele><time>2026-04-19T07:50:31.999Z</time></trkpt><trkpt lat="44.68752890967932" lon="10.097011004614142"><ele>141.25</ele><time>2026-04-19T07:50:33Z</time></trkpt><trkpt lat="44.68739801050286" lon="10.096982776830325"><ele>141.5</ele><time>2026-04-19T07:50:34Z</time></trkpt><trkpt lat="44.68726613650772" lon="10.096962161267086"><ele>141.75</ele><time>2026-04-19T07:50:35Z</time></trkpt><trkpt lat="44.68712781627486" lon="10.096938679672625"><ele>142.0</ele><time>2026-04-19T07:50:36Z</time></trkpt><trkpt lat="44.68699340521931" lon="10.096904148521027"><ele>142.75</ele><time>2026-04-19T07:50:37Z</time></trkpt><trkpt lat="44.686863088864705" lon="10.096872527291808"><ele>143.5</ele><time>2026-04-19T07:50:38Z</time></trkpt><trkpt lat="44.68673059236063" lon="10.096841487855755"><ele>144.25</ele><time>2026-04-19T07:50:39Z</time></trkpt><trkpt lat="44.686598058785705" lon="10.09681131083686"><ele>145.0</ele><time>2026-04-19T07:50:40Z</time></trkpt><trkpt lat="44.68646450198154" lon="10.096780296293641"><ele>145.0</ele><time>2026-04-19T07:50:41Z</time></trkpt><trkpt lat="44.68632935989539" lon="10.096748427813807"><ele>145.0</ele><time>2026-04-19T07:50:42Z</time></trkpt><trkpt lat="44.686194418475" lon="10.096717196771488"><ele>145.0</ele><time>2026-04-19T07:50:43Z</time></trkpt><trkpt lat="44.68605809836085" lon="10.09668778573973"><ele>145.0</ele><time>2026-04-19T07:50:44Z</time></trkpt><trkpt lat="44.68591993327338" lon="10.096657936265837"><ele>144.75</ele><time>2026-04-19T07:50:45Z</time></trkpt><trkpt lat="44.6857813383259" lon="10.096626452324365"><ele>144.5</ele><time>2026-04-19T07:50:46Z</time></trkpt><trkpt lat="44.6856440057944" lon="10.096597469472334"><ele>144.25</ele><time>2026-04-19T07:50:47Z</time></trkpt><trkpt lat="44.685506703069144" lon="10.09656834666728"><ele>144.0</ele><time>2026-04-19T07:50:48Z</time></trkpt><trkpt lat="44.6853671375628" lon="10.096536126406832"><ele>144.25</ele><time>2026-04-19T07:50:49Z</time></trkpt><trkpt lat="44.68522672697494" lon="10.096502404944474"><ele>144.5</ele><time>2026-04-19T07:50:50Z</time></trkpt><trkpt lat="44.68508671361002" lon="10.09647302081741"><ele>144.75</ele><time>2026-04-19T07:50:51Z</time></trkpt><trkpt lat="44.68494755473648" lon="10.09644833539605"><ele>145.0</ele><time>2026-04-19T07:50:52Z</time></trkpt><trkpt lat="44.684804975015076" lon="10.09641981101514"><ele>145.0</ele><time>2026-04-19T07:50:53Z</time></trkpt><trkpt lat="44.68466440381642" lon="10.096390346672315"><ele>145.0</ele><time>2026-04-19T07:50:54Z</time></trkpt><trkpt lat="44.68452219912177" lon="10.096361356600054"><ele>145.0</ele><time>2026-04-19T07:50:55Z</time></trkpt><trkpt lat="44.68437483298895" lon="10.096326896240287"><ele>145.0</ele><time>2026-04-19T07:50:56Z</time></trkpt><trkpt lat="44.68422542522162" lon="10.096293729098802"><ele>145.33333333333334</ele><time>2026-04-19T07:50:57Z</time></trkpt><trkpt lat="44.68407353336639" lon="10.09625654967692"><ele>145.66666666666666</ele><time>2026-04-19T07:50:58Z</time></trkpt><trkpt lat="44.68391752737752" lon="10.096218798067465"><ele>146.0</ele><time>2026-04-19T07:50:59Z</time></trkpt><trkpt lat="44.68376575420715" lon="10.096181820350315"><ele>146.0</ele><time>2026-04-19T07:51:00Z</time></trkpt><trkpt lat="44.683610865536885" lon="10.096148393551875"><ele>146.0</ele><time>2026-04-19T07:51:01Z</time></trkpt><trkpt lat="44.68345815172175" lon="10.096113654766848"><ele>146.0</ele><time>2026-04-19T07:51:02Z</time></trkpt><trkpt lat="44.6833051930147" lon="10.096078850609505"><ele>146.0</ele><time>2026-04-19T07:51:03Z</time></trkpt><trkpt lat="44.68315257676822" lon="10.096041184711613"><ele>146.0</ele><time>2026-04-19T07:51:04Z</time></trkpt><trkpt lat="44.683001773664536" lon="10.096006028612772"><ele>146.0</ele><time>2026-04-19T07:51:05Z</time></trkpt><trkpt lat="44.68284947859481" lon="10.095975258748979"><ele>147.0</ele><time>2026-04-19T07:51:06Z</time></trkpt><trkpt lat="44.68269688256824" lon="10.095944321977367"><ele>148.0</ele><time>2026-04-19T07:51:07Z</time></trkpt><trkpt lat="44.68254555462769" lon="10.095914827891718"><ele>149.0</ele><time>2026-04-19T07:51:08Z</time></trkpt><trkpt lat="44.682394971193816" lon="10.095882590403722"><ele>149.0</ele><time>2026-04-19T07:51:09Z</time></trkpt><trkpt lat="44.68224572563249" lon="10.095848271104495"><ele>149.0</ele><time>2026-04-19T07:51:10Z</time></trkpt><trkpt lat="44.68209589942905" lon="10.095810537152259"><ele>149.0</ele><time>2026-04-19T07:51:11Z</time></trkpt><trkpt lat="44.68195061895316" lon="10.09577226211216"><ele>148.0</ele><time>2026-04-19T07:51:12Z</time></trkpt><trkpt lat="44.681800048435996" lon="10.095730870865431"><ele>147.0</ele><time>2026-04-19T07:51:13Z</time></trkpt><trkpt lat="44.681650840022314" lon="10.095681460384046"><ele>146.0</ele><time>2026-04-19T07:51:14Z</time></trkpt><trkpt lat="44.6815067020026" lon="10.095625111709102"><ele>146.0</ele><time>2026-04-19T07:51:15Z</time></trkpt><trkpt lat="44.68136279363504" lon="10.095563946142805"><ele>146.0</ele><time>2026-04-19T07:51:16Z</time></trkpt><trkpt lat="44.681220629209754" lon="10.095501016156993"><ele>146.0</ele><time>2026-04-19T07:51:17Z</time></trkpt><trkpt lat="44.681078044803606" lon="10.09543375893366"><ele>145.66666666666666</ele><time>2026-04-19T07:51:18Z</time></trkpt><trkpt lat="44.680934652966" lon="10.095364581558917"><ele>145.33333333333334</ele><time>2026-04-19T07:51:19Z</time></trkpt><trkpt lat="44.68079526168962" lon="10.095293800703118"><ele>145.0</ele><time>2026-04-19T07:51:20Z</time></trkpt><trkpt lat="44.6806532511379" lon="10.095219024271845"><ele>145.0</ele><time>2026-04-19T07:51:21Z</time></trkpt><trkpt lat="44.68050994499485" lon="10.095143769701497"><ele>145.0</ele><time>2026-04-19T07:51:22Z</time></trkpt><trkpt lat="44.68036283302873" lon="10.09506550983098"><ele>145.0</ele><time>2026-04-19T07:51:23Z</time></trkpt><trkpt lat="44.68021429392229" lon="10.094984861984976"><ele>146.0</ele><time>2026-04-19T07:51:24Z</time></trkpt><trkpt lat="44.68006739626326" lon="10.094904409889242"><ele>147.0</ele><time>2026-04-19T07:51:25Z</time></trkpt><trkpt lat="44.67992698523093" lon="10.09482326524816"><ele>148.0</ele><time>2026-04-19T07:51:26Z</time></trkpt><trkpt lat="44.67979780585235" lon="10.09473949321195"><ele>148.0</ele><time>2026-04-19T07:51:27Z</time></trkpt><trkpt lat="44.679678749471044" lon="10.094657720367652"><ele>148.0</ele><time>2026-04-19T07:51:28Z</time></trkpt><trkpt lat="44.67956762233939" lon="10.094576208063183"><ele>148.0</ele><time>2026-04-19T07:51:29Z</time></trkpt><trkpt lat="44.6794670978914" lon="10.094495399664261"><ele>148.0</ele><time>2026-04-19T07:51:30Z</time></trkpt><trkpt lat="44.679391037841725" lon="10.094400374438269"><ele>148.0</ele><time>2026-04-19T07:51:31Z</time></trkpt><trkpt lat="44.67933285519591" lon="10.094299995463743"><ele>148.0</ele><time>2026-04-19T07:51:32Z</time></trkpt><trkpt lat="44.679269769785165" lon="10.094207813959297"><ele>148.0</ele><time>2026-04-19T07:51:33Z</time></trkpt><trkpt lat="44.679197168045526" lon="10.09415815037404"><ele>148.0</ele><time>2026-04-19T07:51:34Z</time></trkpt><trkpt lat="44.67911549640854" lon="10.094170085558783"><ele>148.0</ele><time>2026-04-19T07:51:35Z</time></trkpt><trkpt lat="44.67904990034179" lon="10.094258649992883"><ele>148.0</ele><time>2026-04-19T07:51:36Z</time></trkpt><trkpt lat="44.67898461023054" lon="10.094385668128467"><ele>148.0</ele><time>2026-04-19T07:51:37Z</time></trkpt><trkpt lat="44.67888096335167" lon="10.094489052759574"><ele>148.0</ele><time>2026-04-19T07:51:38Z</time></trkpt><trkpt lat="44.67875758225825" lon="10.094563663638821"><ele>148.0</ele><time>2026-04-19T07:51:39Z</time></trkpt><trkpt lat="44.67862175591197" lon="10.09464005092395"><ele>148.0</ele><time>2026-04-19T07:51:40Z</time></trkpt><trkpt lat="44.67847412116907" lon="10.09472022019791"><ele>148.0</ele><time>2026-04-19T07:51:41Z</time></trkpt><trkpt lat="44.67832164063195" lon="10.094804817587635"><ele>148.0</ele><time>2026-04-19T07:51:42Z</time></trkpt><trkpt lat="44.67817543770669" lon="10.094886368143344"><ele>148.0</ele><time>2026-04-19T07:51:42.999Z</time></trkpt><trkpt lat="44.678035260903236" lon="10.094960788874195"><ele>148.5</ele><time>2026-04-19T07:51:43.999Z</time></trkpt><trkpt lat="44.67789458052266" lon="10.095035407018418"><ele>149.0</ele><time>2026-04-19T07:51:44.999Z</time></trkpt><trkpt lat="44.677755657354204" lon="10.095106137817623"><ele>149.5</ele><time>2026-04-19T07:51:45.999Z</time></trkpt><trkpt lat="44.6776162750548" lon="10.09517778740264"><ele>150.0</ele><time>2026-04-19T07:51:46.999Z</time></trkpt><trkpt lat="44.67748055253923" lon="10.095248616204103"><ele>150.75</ele><time>2026-04-19T07:51:47.999Z</time></trkpt><trkpt lat="44.677352051571205" lon="10.095314010190181"><ele>151.5</ele><time>2026-04-19T07:51:48.999Z</time></trkpt><trkpt lat="44.67723377382916" lon="10.095377396662952"><ele>152.25</ele><time>2026-04-19T07:51:49.999Z</time></trkpt><trkpt lat="44.677112271259034" lon="10.095445645744812"><ele>153.0</ele><time>2026-04-19T07:51:50.999Z</time></trkpt><trkpt lat="44.676991891003915" lon="10.095505029709077"><ele>153.4</ele><time>2026-04-19T07:51:51.999Z</time></trkpt><trkpt lat="44.67688863714255" lon="10.095569818219339"><ele>153.8</ele><time>2026-04-19T07:51:52.999Z</time></trkpt><trkpt lat="44.67679609026129" lon="10.095623481546593"><ele>154.2</ele><time>2026-04-19T07:51:53.999Z</time></trkpt><trkpt lat="44.67671548276712" lon="10.095663988039668"><ele>154.6</ele><time>2026-04-19T07:51:54.999Z</time></trkpt><trkpt lat="44.6766388024058" lon="10.095680881661718"><ele>155.0</ele><time>2026-04-19T07:51:55.999Z</time></trkpt><trkpt lat="44.6765307513586" lon="10.0956705837949"><ele>155.0</ele><time>2026-04-19T07:51:57.999Z</time></trkpt><trkpt lat="44.676464047296996" lon="10.095712481846022"><ele>155.0</ele><time>2026-04-19T07:51:59.999Z</time></trkpt><trkpt lat="44.6764193225872" lon="10.095799571674343"><ele>155.0</ele><time>2026-04-19T07:52:12.999Z</time></trkpt><trkpt lat="44.676308357232166" lon="10.095871480064739"><ele>155.0</ele><time>2026-04-19T07:52:14.999Z</time></trkpt><trkpt lat="44.67623140534724" lon="10.095910597345535"><ele>155.0</ele><time>2026-04-19T07:52:15.999Z</time></trkpt><trkpt lat="44.67614003941426" lon="10.095957349584419"><ele>155.4</ele><time>2026-04-19T07:52:16.999Z</time></trkpt><trkpt lat="44.676045024339984" lon="10.09600444608148"><ele>155.8</ele><time>2026-04-19T07:52:17.999Z</time></trkpt><trkpt lat="44.67594372196208" lon="10.09605436431919"><ele>156.2</ele><time>2026-04-19T07:52:18.999Z</time></trkpt><trkpt lat="44.67583796683521" lon="10.096109306437608"><ele>156.6</ele><time>2026-04-19T07:52:19.999Z</time></trkpt><trkpt lat="44.67573655496409" lon="10.096156793026612"><ele>157.0</ele><time>2026-04-19T07:52:20.999Z</time></trkpt><trkpt lat="44.67562830700015" lon="10.096205329563077"><ele>157.0</ele><time>2026-04-19T07:52:21.999Z</time></trkpt><trkpt lat="44.67551327879647" lon="10.09626483149417"><ele>157.0</ele><time>2026-04-19T07:52:22.999Z</time></trkpt><trkpt lat="44.67538717226991" lon="10.096331141591351"><ele>157.0</ele><time>2026-04-19T07:52:23.999Z</time></trkpt><trkpt lat="44.67525561318959" lon="10.096395253098288"><ele>157.0</ele><time>2026-04-19T07:52:24.999Z</time></trkpt><trkpt lat="44.67511452485541" lon="10.096467839368104"><ele>156.75</ele><time>2026-04-19T07:52:25.999Z</time></trkpt><trkpt lat="44.67495845114285" lon="10.096541730260135"><ele>156.5</ele><time>2026-04-19T07:52:26.999Z</time></trkpt><trkpt lat="44.67482001876498" lon="10.096618887002974"><ele>156.25</ele><time>2026-04-19T07:52:27.999Z</time></trkpt><trkpt lat="44.67474542044983" lon="10.096667311317868"><ele>156.0</ele><time>2026-04-19T07:52:28.999Z</time></trkpt><trkpt lat="44.6746127422054" lon="10.096727790806673"><ele>156.0</ele><time>2026-04-19T07:52:29.999Z</time></trkpt><trkpt lat="44.67450454449589" lon="10.096781185456745"><ele>156.0</ele><time>2026-04-19T07:52:30.999Z</time></trkpt><trkpt lat="44.6743983612888" lon="10.096844619743676"><ele>156.0</ele><time>2026-04-19T07:52:31.999Z</time></trkpt><trkpt lat="44.67428744466682" lon="10.096902809270846"><ele>156.0</ele><time>2026-04-19T07:52:32.999Z</time></trkpt><trkpt lat="44.67417143128338" lon="10.096955797596177"><ele>156.8</ele><time>2026-04-19T07:52:33.999Z</time></trkpt><trkpt lat="44.67407363025297" lon="10.09700901337698"><ele>157.6</ele><time>2026-04-19T07:52:34.999Z</time></trkpt><trkpt lat="44.67398872587365" lon="10.097053873067043"><ele>158.4</ele><time>2026-04-19T07:52:35.999Z</time></trkpt><trkpt lat="44.673911497045374" lon="10.097094690853558"><ele>159.2</ele><time>2026-04-19T07:52:36.999Z</time></trkpt><trkpt lat="44.67383344527892" lon="10.097140274842676"><ele>160.0</ele><time>2026-04-19T07:52:37.999Z</time></trkpt><trkpt lat="44.67374493146138" lon="10.097191087994743"><ele>160.0</ele><time>2026-04-19T07:52:39Z</time></trkpt><trkpt lat="44.673652388783935" lon="10.097241246577228"><ele>160.0</ele><time>2026-04-19T07:52:40Z</time></trkpt><trkpt lat="44.673550723825485" lon="10.097295617895433"><ele>160.0</ele><time>2026-04-19T07:52:41Z</time></trkpt><trkpt lat="44.673431694960406" lon="10.097358511511832"><ele>160.0</ele><time>2026-04-19T07:52:42Z</time></trkpt><trkpt lat="44.673296349707975" lon="10.097427139350083"><ele>160.0</ele><time>2026-04-19T07:52:43Z</time></trkpt><trkpt lat="44.67314530575862" lon="10.097505231239223"><ele>160.0</ele><time>2026-04-19T07:52:44Z</time></trkpt><trkpt lat="44.67299263571514" lon="10.097577172843389"><ele>160.0</ele><time>2026-04-19T07:52:45Z</time></trkpt><trkpt lat="44.67285108982361" lon="10.097654618653463"><ele>161.75</ele><time>2026-04-19T07:52:46Z</time></trkpt><trkpt lat="44.672719270067404" lon="10.09772156328918"><ele>163.5</ele><time>2026-04-19T07:52:47Z</time></trkpt><trkpt lat="44.67259325413113" lon="10.09778362831819"><ele>165.25</ele><time>2026-04-19T07:52:48Z</time></trkpt><trkpt lat="44.672456520518075" lon="10.097819354588504"><ele>167.0</ele><time>2026-04-19T07:52:49Z</time></trkpt><trkpt lat="44.672340262547706" lon="10.097829254052689"><ele>167.0</ele><time>2026-04-19T07:52:50Z</time></trkpt><trkpt lat="44.67225241486907" lon="10.097751943330445"><ele>167.0</ele><time>2026-04-19T07:52:51Z</time></trkpt><trkpt lat="44.67219168365912" lon="10.097601693880284"><ele>167.0</ele><time>2026-04-19T07:52:52Z</time></trkpt><trkpt lat="44.67219319046687" lon="10.097380439680121"><ele>167.0</ele><time>2026-04-19T07:52:53Z</time></trkpt><trkpt lat="44.67217145851175" lon="10.097136780555624"><ele>168.0</ele><time>2026-04-19T07:52:54Z</time></trkpt><trkpt lat="44.672156481239085" lon="10.09689491568531"><ele>169.0</ele><time>2026-04-19T07:52:55Z</time></trkpt><trkpt lat="44.67210052402151" lon="10.096673759391253"><ele>170.0</ele><time>2026-04-19T07:52:56Z</time></trkpt><trkpt lat="44.67199561545128" lon="10.096463364916456"><ele>172.66666666666666</ele><time>2026-04-19T07:52:57Z</time></trkpt><trkpt lat="44.671825560774536" lon="10.096277802295539"><ele>175.33333333333334</ele><time>2026-04-19T07:52:58Z</time></trkpt><trkpt lat="44.671631638112174" lon="10.096112955655501"><ele>178.0</ele><time>2026-04-19T07:52:59Z</time></trkpt><trkpt lat="44.671474592757285" lon="10.095974537986791"><ele>178.0</ele><time>2026-04-19T07:53:00Z</time></trkpt><trkpt lat="44.67135136673847" lon="10.095869889972104"><ele>178.0</ele><time>2026-04-19T07:53:01Z</time></trkpt><trkpt lat="44.67123424949092" lon="10.095836817667488"><ele>178.0</ele><time>2026-04-19T07:53:02Z</time></trkpt><trkpt lat="44.671104926885214" lon="10.095885658760727"><ele>178.0</ele><time>2026-04-19T07:53:03Z</time></trkpt><trkpt lat="44.67098003579721" lon="10.09603840096032"><ele>179.66666666666669</ele><time>2026-04-19T07:53:04Z</time></trkpt><trkpt lat="44.67088261311685" lon="10.096266936074109"><ele>181.33333333333334</ele><time>2026-04-19T07:53:05Z</time></trkpt><trkpt lat="44.670791954541336" lon="10.096534052938654"><ele>183.0</ele><time>2026-04-19T07:53:06Z</time></trkpt><trkpt lat="44.67066851344913" lon="10.096771848693635"><ele>183.33333333333334</ele><time>2026-04-19T07:53:07Z</time></trkpt><trkpt lat="44.67057300221568" lon="10.09701722815199"><ele>183.66666666666669</ele><time>2026-04-19T07:53:08Z</time></trkpt><trkpt lat="44.67045612850033" lon="10.097237436600958"><ele>184.0</ele><time>2026-04-19T07:53:09Z</time></trkpt><trkpt lat="44.67032391135922" lon="10.097461161783626"><ele>187.33333333333334</ele><time>2026-04-19T07:53:10Z</time></trkpt><trkpt lat="44.670169852433766" lon="10.097664036806277"><ele>190.66666666666669</ele><time>2026-04-19T07:53:11Z</time></trkpt><trkpt lat="44.670018290127345" lon="10.097831211244463"><ele>194.0</ele><time>2026-04-19T07:53:12Z</time></trkpt><trkpt lat="44.66990195733975" lon="10.098020370226967"><ele>192.66666666666669</ele><time>2026-04-19T07:53:13Z</time></trkpt><trkpt lat="44.6698115233442" lon="10.09825414223898"><ele>191.33333333333334</ele><time>2026-04-19T07:53:14Z</time></trkpt><trkpt lat="44.66972809226392" lon="10.098460436662556"><ele>190.0</ele><time>2026-04-19T07:53:15Z</time></trkpt><trkpt lat="44.66962207433152" lon="10.098600678346887"><ele>190.0</ele><time>2026-04-19T07:53:16Z</time></trkpt><trkpt lat="44.6695285772209" lon="10.09869033780206"><ele>190.0</ele><time>2026-04-19T07:53:17Z</time></trkpt><trkpt lat="44.66942842741264" lon="10.098702347038625"><ele>190.0</ele><time>2026-04-19T07:53:18Z</time></trkpt><trkpt lat="44.669319313753306" lon="10.098702615357663"><ele>190.0</ele><time>2026-04-19T07:53:19Z</time></trkpt><trkpt lat="44.6692378839009" lon="10.098547356062738"><ele>193.0</ele><time>2026-04-19T07:53:20Z</time></trkpt><trkpt lat="44.669174518608706" lon="10.098392517447124"><ele>196.0</ele><time>2026-04-19T07:53:21Z</time></trkpt><trkpt lat="44.66922277142058" lon="10.098173744504185"><ele>199.0</ele><time>2026-04-19T07:53:22Z</time></trkpt><trkpt lat="44.669258560289805" lon="10.097940167301163"><ele>200.66666666666666</ele><time>2026-04-19T07:53:23Z</time></trkpt><trkpt lat="44.6693161546803" lon="10.097704280583196"><ele>202.33333333333331</ele><time>2026-04-19T07:53:24Z</time></trkpt><trkpt lat="44.669354229685844" lon="10.097473024671608"><ele>204.0</ele><time>2026-04-19T07:53:25Z</time></trkpt><trkpt lat="44.66939530271221" lon="10.097232098477134"><ele>205.66666666666669</ele><time>2026-04-19T07:53:26Z</time></trkpt><trkpt lat="44.669438748770126" lon="10.096991886348833"><ele>207.33333333333334</ele><time>2026-04-19T07:53:27Z</time></trkpt><trkpt lat="44.66947339412104" lon="10.096778206154758"><ele>209.0</ele><time>2026-04-19T07:53:28Z</time></trkpt><trkpt lat="44.66950322226297" lon="10.096582681682122"><ele>209.66666666666669</ele><time>2026-04-19T07:53:29Z</time></trkpt><trkpt lat="44.669497004545" lon="10.09639140591557"><ele>210.33333333333331</ele><time>2026-04-19T07:53:30Z</time></trkpt><trkpt lat="44.669430829814104" lon="10.09619122728954"><ele>211.0</ele><time>2026-04-19T07:53:31Z</time></trkpt><trkpt lat="44.66929476558137" lon="10.095987099095268"><ele>211.0</ele><time>2026-04-19T07:53:32Z</time></trkpt><trkpt lat="44.66914317908528" lon="10.095778743915298"><ele>211.0</ele><time>2026-04-19T07:53:33Z</time></trkpt><trkpt lat="44.668993380210594" lon="10.095594025128905"><ele>211.0</ele><time>2026-04-19T07:53:34Z</time></trkpt><trkpt lat="44.66882201370716" lon="10.095432540961639"><ele>210.66666666666666</ele><time>2026-04-19T07:53:35Z</time></trkpt><trkpt lat="44.66863005562761" lon="10.09531488440284"><ele>210.33333333333331</ele><time>2026-04-19T07:53:36Z</time></trkpt><trkpt lat="44.66843864771984" lon="10.095244716381712"><ele>210.0</ele><time>2026-04-19T07:53:37Z</time></trkpt><trkpt lat="44.668240951194505" lon="10.095170500295703"><ele>213.0</ele><time>2026-04-19T07:53:38Z</time></trkpt><trkpt lat="44.66804884155339" lon="10.095053908184346"><ele>216.0</ele><time>2026-04-19T07:53:39Z</time></trkpt><trkpt lat="44.66785356659611" lon="10.094967365759715"><ele>219.0</ele><time>2026-04-19T07:53:40Z</time></trkpt><trkpt lat="44.66768893505456" lon="10.094828566022542"><ele>221.0</ele><time>2026-04-19T07:53:41Z</time></trkpt><trkpt lat="44.667529348754975" lon="10.0946903717895"><ele>223.0</ele><time>2026-04-19T07:53:42Z</time></trkpt><trkpt lat="44.66735772805569" lon="10.094562676933238"><ele>225.0</ele><time>2026-04-19T07:53:43Z</time></trkpt><trkpt lat="44.6671880385428" lon="10.094415102610144"><ele>225.0</ele><time>2026-04-19T07:53:44Z</time></trkpt><trkpt lat="44.66702135231761" lon="10.09427915356976"><ele>225.0</ele><time>2026-04-19T07:53:45Z</time></trkpt><trkpt lat="44.666868122284924" lon="10.094123893124932"><ele>225.0</ele><time>2026-04-19T07:53:46Z</time></trkpt><trkpt lat="44.66670201899427" lon="10.094009410853431"><ele>228.0</ele><time>2026-04-19T07:53:47Z</time></trkpt><trkpt lat="44.66655854008404" lon="10.093859721586053"><ele>231.0</ele><time>2026-04-19T07:53:48Z</time></trkpt><trkpt lat="44.666424005421824" lon="10.093741987015244"><ele>234.0</ele><time>2026-04-19T07:53:48.999Z</time></trkpt><trkpt lat="44.66630394822068" lon="10.093619348178658"><ele>234.0</ele><time>2026-04-19T07:53:49.999Z</time></trkpt><trkpt lat="44.66620043270126" lon="10.093478844816811"><ele>234.0</ele><time>2026-04-19T07:53:50.999Z</time></trkpt><trkpt lat="44.66610014149491" lon="10.093360201784169"><ele>234.0</ele><time>2026-04-19T07:53:51.999Z</time></trkpt><trkpt lat="44.666014779013736" lon="10.093224483169196"><ele>234.0</ele><time>2026-04-19T07:53:52.999Z</time></trkpt><trkpt lat="44.66591778857788" lon="10.09311416430851"><ele>235.75</ele><time>2026-04-19T07:53:53.999Z</time></trkpt><trkpt lat="44.665804504121766" lon="10.093037621633076"><ele>237.5</ele><time>2026-04-19T07:53:54.999Z</time></trkpt><trkpt lat="44.665674050345025" lon="10.093029932785631"><ele>239.25</ele><time>2026-04-19T07:53:55.999Z</time></trkpt><trkpt lat="44.66554567728059" lon="10.093074578589306"><ele>241.0</ele><time>2026-04-19T07:53:56.999Z</time></trkpt><trkpt lat="44.665428164463876" lon="10.093129756233418"><ele>241.0</ele><time>2026-04-19T07:53:57.999Z</time></trkpt><trkpt lat="44.665303702746165" lon="10.0931701974681"><ele>241.0</ele><time>2026-04-19T07:53:58.999Z</time></trkpt><trkpt lat="44.665178690964865" lon="10.093193405487595"><ele>241.0</ele><time>2026-04-19T07:53:59.999Z</time></trkpt><trkpt lat="44.665049303292186" lon="10.093198127543749"><ele>241.0</ele><time>2026-04-19T07:54:00.999Z</time></trkpt><trkpt lat="44.66492512452982" lon="10.09318991669978"><ele>243.75</ele><time>2026-04-19T07:54:01.999Z</time></trkpt><trkpt lat="44.664798990894155" lon="10.093180250636351"><ele>246.5</ele><time>2026-04-19T07:54:02.999Z</time></trkpt><trkpt lat="44.66467616623395" lon="10.093159467191581"><ele>249.25</ele><time>2026-04-19T07:54:03.999Z</time></trkpt><trkpt lat="44.66454841354648" lon="10.093141318119187"><ele>252.0</ele><time>2026-04-19T07:54:04.999Z</time></trkpt><trkpt lat="44.664421331410445" lon="10.09311692079524"><ele>254.0</ele><time>2026-04-19T07:54:05.999Z</time></trkpt><trkpt lat="44.66428420452097" lon="10.093095717948156"><ele>256.0</ele><time>2026-04-19T07:54:06.999Z</time></trkpt><trkpt lat="44.66414823830308" lon="10.093071185652676"><ele>258.0</ele><time>2026-04-19T07:54:07.999Z</time></trkpt><trkpt lat="44.66401206491656" lon="10.093050952870458"><ele>260.0</ele><time>2026-04-19T07:54:08.999Z</time></trkpt><trkpt lat="44.663881600017476" lon="10.093028035705963"><ele>260.0</ele><time>2026-04-19T07:54:09.999Z</time></trkpt><trkpt lat="44.66374671295341" lon="10.093005360556733"><ele>260.0</ele><time>2026-04-19T07:54:10.999Z</time></trkpt><trkpt lat="44.663618410211356" lon="10.092983477969165"><ele>260.0</ele><time>2026-04-19T07:54:11.999Z</time></trkpt><trkpt lat="44.66349856807789" lon="10.092963878162331"><ele>260.0</ele><time>2026-04-19T07:54:12.999Z</time></trkpt><trkpt lat="44.66339194867069" lon="10.092932450844673"><ele>261.75</ele><time>2026-04-19T07:54:13.999Z</time></trkpt><trkpt lat="44.66328602239896" lon="10.092882221688383"><ele>263.5</ele><time>2026-04-19T07:54:14.999Z</time></trkpt><trkpt lat="44.663190575604666" lon="10.092789850446044"><ele>265.25</ele><time>2026-04-19T07:54:15.999Z</time></trkpt><trkpt lat="44.66310545796755" lon="10.09267529444238"><ele>267.0</ele><time>2026-04-19T07:54:16.999Z</time></trkpt><trkpt lat="44.66303080908258" lon="10.092526583453829"><ele>267.4</ele><time>2026-04-19T07:54:17.999Z</time></trkpt><trkpt lat="44.662977855383076" lon="10.09238353785425"><ele>267.79999999999995</ele><time>2026-04-19T07:54:18.999Z</time></trkpt><trkpt lat="44.662934761977674" lon="10.092252103040892"><ele>268.2</ele><time>2026-04-19T07:54:19.999Z</time></trkpt><trkpt lat="44.66289902134769" lon="10.092139095627696"><ele>268.59999999999997</ele><time>2026-04-19T07:54:20.999Z</time></trkpt><trkpt lat="44.66285955797721" lon="10.092063853777718"><ele>269.0</ele><time>2026-04-19T07:54:21.999Z</time></trkpt><trkpt lat="44.66281847828889" lon="10.091915249404579"><ele>269.0</ele><time>2026-04-19T07:54:23.999Z</time></trkpt><trkpt lat="44.662793112314" lon="10.091833365489475"><ele>269.0</ele><time>2026-04-19T07:54:24.999Z</time></trkpt><trkpt lat="44.66276084591378" lon="10.091732662238922"><ele>269.0</ele><time>2026-04-19T07:54:25.999Z</time></trkpt><trkpt lat="44.662725272387064" lon="10.091622759600197"><ele>269.0</ele><time>2026-04-19T07:54:26.999Z</time></trkpt><trkpt lat="44.6626817986839" lon="10.091499282959726"><ele>269.0</ele><time>2026-04-19T07:54:27.999Z</time></trkpt><trkpt lat="44.66264365368343" lon="10.091376621327893"><ele>269.0</ele><time>2026-04-19T07:54:28.999Z</time></trkpt><trkpt lat="44.6626058012618" lon="10.0912456831269"><ele>272.5</ele><time>2026-04-19T07:54:29.999Z</time></trkpt><trkpt lat="44.662575084199055" lon="10.09111208490149"><ele>276.0</ele><time>2026-04-19T07:54:30.999Z</time></trkpt><trkpt lat="44.66260667831395" lon="10.090948860909238"><ele>279.5</ele><time>2026-04-19T07:54:31.999Z</time></trkpt><trkpt lat="44.66267430816996" lon="10.090781861062096"><ele>283.0</ele><time>2026-04-19T07:54:32.999Z</time></trkpt><trkpt lat="44.66276999793235" lon="10.090579407159263"><ele>284.3333333333333</ele><time>2026-04-19T07:54:33.999Z</time></trkpt><trkpt lat="44.66291144432636" lon="10.090382289263152"><ele>285.6666666666667</ele><time>2026-04-19T07:54:34.999Z</time></trkpt><trkpt lat="44.66302679007879" lon="10.090187550349677"><ele>287.0</ele><time>2026-04-19T07:54:35.999Z</time></trkpt><trkpt lat="44.66310838829519" lon="10.09003196346218"><ele>289.4</ele><time>2026-04-19T07:54:36.999Z</time></trkpt><trkpt lat="44.6631731140984" lon="10.08991708330401"><ele>291.79999999999995</ele><time>2026-04-19T07:54:37.999Z</time></trkpt><trkpt lat="44.66320219812716" lon="10.089800508363371"><ele>294.2</ele><time>2026-04-19T07:54:38.999Z</time></trkpt><trkpt lat="44.66318897594927" lon="10.089659485659913"><ele>296.59999999999997</ele><time>2026-04-19T07:54:39.999Z</time></trkpt><trkpt lat="44.663133884995105" lon="10.08949201816038"><ele>299.0</ele><time>2026-04-19T07:54:40.999Z</time></trkpt><trkpt lat="44.66302644432025" lon="10.089386924554852"><ele>299.0</ele><time>2026-04-19T07:54:41.999Z</time></trkpt><trkpt lat="44.66287903488105" lon="10.089346562805144"><ele>299.0</ele><time>2026-04-19T07:54:42.999Z</time></trkpt><trkpt lat="44.66269632325524" lon="10.089356296397455"><ele>299.0</ele><time>2026-04-19T07:54:43.999Z</time></trkpt><trkpt lat="44.66250723861434" lon="10.089341432489153"><ele>300.33333333333337</ele><time>2026-04-19T07:54:45Z</time></trkpt><trkpt lat="44.66233085295064" lon="10.089323848506726"><ele>301.6666666666667</ele><time>2026-04-19T07:54:46Z</time></trkpt><trkpt lat="44.66217531273339" lon="10.089322074383556"><ele>303.0</ele><time>2026-04-19T07:54:47Z</time></trkpt><trkpt lat="44.66200276472845" lon="10.089377449244555"><ele>305.3333333333333</ele><time>2026-04-19T07:54:48Z</time></trkpt><trkpt lat="44.66182629370976" lon="10.089514405268158"><ele>307.66666666666663</ele><time>2026-04-19T07:54:49Z</time></trkpt><trkpt lat="44.66164926746077" lon="10.089694327137696"><ele>310.0</ele><time>2026-04-19T07:54:50Z</time></trkpt><trkpt lat="44.66147968667538" lon="10.089862810219797"><ele>308.0</ele><time>2026-04-19T07:54:51Z</time></trkpt><trkpt lat="44.66131481393933" lon="10.089993422103133"><ele>306.0</ele><time>2026-04-19T07:54:52Z</time></trkpt><trkpt lat="44.661182971863774" lon="10.090121291490556"><ele>304.0</ele><time>2026-04-19T07:54:53Z</time></trkpt><trkpt lat="44.66108956567656" lon="10.090301395619512"><ele>309.3333333333333</ele><time>2026-04-19T07:54:54Z</time></trkpt><trkpt lat="44.66103468949288" lon="10.09057043811544"><ele>314.6666666666667</ele><time>2026-04-19T07:54:55Z</time></trkpt><trkpt lat="44.66103123803618" lon="10.09089097654484"><ele>320.0</ele><time>2026-04-19T07:54:56Z</time></trkpt><trkpt lat="44.66103352675986" lon="10.091201578655312"><ele>321.33333333333337</ele><time>2026-04-19T07:54:57Z</time></trkpt><trkpt lat="44.66102288871624" lon="10.091484773104844"><ele>322.6666666666667</ele><time>2026-04-19T07:54:58Z</time></trkpt><trkpt lat="44.661025242522705" lon="10.091730223845818"><ele>324.0</ele><time>2026-04-19T07:54:59Z</time></trkpt><trkpt lat="44.661033078818534" lon="10.091933124468381"><ele>324.0</ele><time>2026-04-19T07:55:00Z</time></trkpt><trkpt lat="44.66104125367016" lon="10.09208679152344"><ele>324.0</ele><time>2026-04-19T07:55:01Z</time></trkpt><trkpt lat="44.661026569326964" lon="10.092204183279263"><ele>324.0</ele><time>2026-04-19T07:55:02Z</time></trkpt><trkpt lat="44.660961913512246" lon="10.092273592173392"><ele>324.0</ele><time>2026-04-19T07:55:03Z</time></trkpt><trkpt lat="44.66086176333064" lon="10.09226550471043"><ele>324.0</ele><time>2026-04-19T07:55:04Z</time></trkpt><trkpt lat="44.66078268843217" lon="10.092177474372894"><ele>324.0</ele><time>2026-04-19T07:55:05Z</time></trkpt><trkpt lat="44.66079356474496" lon="10.09198798487965"><ele>324.0</ele><time>2026-04-19T07:55:06Z</time></trkpt><trkpt lat="44.660768256120235" lon="10.091792966958694"><ele>324.0</ele><time>2026-04-19T07:55:07Z</time></trkpt><trkpt lat="44.66075557141114" lon="10.091569691731435"><ele>324.0</ele><time>2026-04-19T07:55:08Z</time></trkpt><trkpt lat="44.660706039230185" lon="10.091347058148846"><ele>324.0</ele><time>2026-04-19T07:55:09Z</time></trkpt><trkpt lat="44.66064290981616" lon="10.091124741526322"><ele>324.0</ele><time>2026-04-19T07:55:10Z</time></trkpt><trkpt lat="44.66057892653481" lon="10.090903864833855"><ele>324.0</ele><time>2026-04-19T07:55:11Z</time></trkpt><trkpt lat="44.660511885833905" lon="10.09067908900165"><ele>322.6666666666667</ele><time>2026-04-19T07:55:12Z</time></trkpt><trkpt lat="44.66040767363974" lon="10.090444206136139"><ele>321.33333333333337</ele><time>2026-04-19T07:55:13Z</time></trkpt><trkpt lat="44.66032666036065" lon="10.090259152674918"><ele>320.0</ele><time>2026-04-19T07:55:14Z</time></trkpt><trkpt lat="44.66021023144273" lon="10.090025922003045"><ele>330.0</ele><time>2026-04-19T07:55:15Z</time></trkpt><trkpt lat="44.66006914276212" lon="10.089716248915428"><ele>340.0</ele><time>2026-04-19T07:55:16Z</time></trkpt><trkpt lat="44.65993311359852" lon="10.089427207124194"><ele>340.0</ele><time>2026-04-19T07:55:17Z</time></trkpt><trkpt lat="44.65980151286204" lon="10.08911959978111"><ele>340.0</ele><time>2026-04-19T07:55:18Z</time></trkpt><trkpt lat="44.65972171684726" lon="10.088812737168443"><ele>342.0</ele><time>2026-04-19T07:55:19Z</time></trkpt><trkpt lat="44.65964824327903" lon="10.088579400600178"><ele>344.0</ele><time>2026-04-19T07:55:20Z</time></trkpt><trkpt lat="44.65959052869949" lon="10.08838051959284"><ele>346.0</ele><time>2026-04-19T07:55:21Z</time></trkpt><trkpt lat="44.65958494697069" lon="10.088181256919398"><ele>347.66666666666663</ele><time>2026-04-19T07:55:22Z</time></trkpt><trkpt lat="44.659624533207854" lon="10.087988071281593"><ele>349.3333333333333</ele><time>2026-04-19T07:55:23Z</time></trkpt><trkpt lat="44.65970732116601" lon="10.08775907100761"><ele>351.0</ele><time>2026-04-19T07:55:24Z</time></trkpt><trkpt lat="44.65979081388146" lon="10.087508316414747"><ele>351.25</ele><time>2026-04-19T07:55:25Z</time></trkpt><trkpt lat="44.65988592377509" lon="10.087308643504974"><ele>351.5</ele><time>2026-04-19T07:55:26Z</time></trkpt><trkpt lat="44.65996025278773" lon="10.087158382419258"><ele>351.75</ele><time>2026-04-19T07:55:27Z</time></trkpt><trkpt lat="44.660023155954015" lon="10.087050153475777"><ele>352.0</ele><time>2026-04-19T07:55:28Z</time></trkpt><trkpt lat="44.66004397538641" lon="10.086956177752313"><ele>352.0</ele><time>2026-04-19T07:55:29Z</time></trkpt><trkpt lat="44.66004147722442" lon="10.086859773642788"><ele>352.0</ele><time>2026-04-19T07:55:30Z</time></trkpt><trkpt lat="44.65995226203297" lon="10.086775295361198"><ele>352.0</ele><time>2026-04-19T07:55:31Z</time></trkpt><trkpt lat="44.659849563450564" lon="10.08677652106434"><ele>352.0</ele><time>2026-04-19T07:55:32Z</time></trkpt><trkpt lat="44.65975545636804" lon="10.086870748415544"><ele>352.0</ele><time>2026-04-19T07:55:33Z</time></trkpt><trkpt lat="44.659646162141655" lon="10.08702418309807"><ele>352.0</ele><time>2026-04-19T07:55:34Z</time></trkpt><trkpt lat="44.6595056496177" lon="10.087179056334724"><ele>352.0</ele><time>2026-04-19T07:55:35Z</time></trkpt><trkpt lat="44.65935673296376" lon="10.087326094052418"><ele>352.0</ele><time>2026-04-19T07:55:36Z</time></trkpt><trkpt lat="44.65921022691998" lon="10.08747542955108"><ele>358.0</ele><time>2026-04-19T07:55:37Z</time></trkpt><trkpt lat="44.659059904382154" lon="10.08763900369225"><ele>364.0</ele><time>2026-04-19T07:55:38Z</time></trkpt><trkpt lat="44.6589093025566" lon="10.08780055898426"><ele>370.0</ele><time>2026-04-19T07:55:39Z</time></trkpt><trkpt lat="44.65877885938365" lon="10.087982679723646"><ele>370.0</ele><time>2026-04-19T07:55:40Z</time></trkpt><trkpt lat="44.65867616466988" lon="10.08820217326279"><ele>370.0</ele><time>2026-04-19T07:55:41Z</time></trkpt><trkpt lat="44.65860007984657" lon="10.088449503569713"><ele>370.0</ele><time>2026-04-19T07:55:42Z</time></trkpt><trkpt lat="44.658542129251785" lon="10.088688186326173"><ele>375.3333333333333</ele><time>2026-04-19T07:55:43Z</time></trkpt><trkpt lat="44.6584962023852" lon="10.088912807060437"><ele>380.66666666666663</ele><time>2026-04-19T07:55:44Z</time></trkpt><trkpt lat="44.65849101002534" lon="10.089135169994993"><ele>386.0</ele><time>2026-04-19T07:55:45Z</time></trkpt><trkpt lat="44.658525462493394" lon="10.08933334582334"><ele>386.0</ele><time>2026-04-19T07:55:46Z</time></trkpt><trkpt lat="44.658581505386124" lon="10.089505964782095"><ele>386.0</ele><time>2026-04-19T07:55:47Z</time></trkpt><trkpt lat="44.65864020175437" lon="10.089641086989115"><ele>386.0</ele><time>2026-04-19T07:55:48Z</time></trkpt><trkpt lat="44.658667019302705" lon="10.089747201026563"><ele>386.0</ele><time>2026-04-19T07:55:49Z</time></trkpt><trkpt lat="44.6586509635019" lon="10.08984438025133"><ele>386.0</ele><time>2026-04-19T07:55:50Z</time></trkpt><trkpt lat="44.65857504988332" lon="10.089912519741985"><ele>386.0</ele><time>2026-04-19T07:55:51Z</time></trkpt><trkpt lat="44.65847438023958" lon="10.08992152762181"><ele>386.0</ele><time>2026-04-19T07:55:52Z</time></trkpt><trkpt lat="44.65838886702766" lon="10.089813884354058"><ele>386.0</ele><time>2026-04-19T07:55:53Z</time></trkpt><trkpt lat="44.65839428301338" lon="10.089610725807235"><ele>386.0</ele><time>2026-04-19T07:55:54Z</time></trkpt><trkpt lat="44.658341153216526" lon="10.08938748588065"><ele>386.0</ele><time>2026-04-19T07:55:55Z</time></trkpt><trkpt lat="44.658277327854144" lon="10.089155926023537"><ele>386.0</ele><time>2026-04-19T07:55:56Z</time></trkpt><trkpt lat="44.658211068255284" lon="10.088940966628833"><ele>386.0</ele><time>2026-04-19T07:55:56.999Z</time></trkpt><trkpt lat="44.65816555053966" lon="10.088705763602364"><ele>386.3333333333333</ele><time>2026-04-19T07:55:57.999Z</time></trkpt><trkpt lat="44.65811644084783" lon="10.08846934295576"><ele>386.66666666666663</ele><time>2026-04-19T07:55:58.999Z</time></trkpt><trkpt lat="44.6581022244448" lon="10.088225495817635"><ele>387.0</ele><time>2026-04-19T07:55:59.999Z</time></trkpt><trkpt lat="44.65810875999756" lon="10.087984391670812"><ele>386.25</ele><time>2026-04-19T07:56:00.999Z</time></trkpt><trkpt lat="44.658102888212966" lon="10.087762601499907"><ele>385.5</ele><time>2026-04-19T07:56:01.999Z</time></trkpt><trkpt lat="44.658135512513525" lon="10.087585689272222"><ele>384.75</ele><time>2026-04-19T07:56:02.999Z</time></trkpt><trkpt lat="44.658157105572165" lon="10.08742054831324"><ele>384.0</ele><time>2026-04-19T07:56:03.999Z</time></trkpt><trkpt lat="44.65814296635646" lon="10.087304192593075"><ele>384.0</ele><time>2026-04-19T07:56:04.999Z</time></trkpt><trkpt lat="44.6581084803855" lon="10.087213991293648"><ele>384.0</ele><time>2026-04-19T07:56:05.999Z</time></trkpt><trkpt lat="44.65799188854158" lon="10.087219653044155"><ele>384.0</ele><time>2026-04-19T07:56:06.999Z</time></trkpt><trkpt lat="44.657912368776906" lon="10.087297006489841"><ele>384.0</ele><time>2026-04-19T07:56:07.999Z</time></trkpt><trkpt lat="44.65787856347764" lon="10.087448595985585"><ele>384.0</ele><time>2026-04-19T07:56:08.999Z</time></trkpt><trkpt lat="44.65786211546889" lon="10.087648099872963"><ele>386.33333333333337</ele><time>2026-04-19T07:56:09.999Z</time></trkpt><trkpt lat="44.65779660243579" lon="10.087856071249606"><ele>388.6666666666667</ele><time>2026-04-19T07:56:10.999Z</time></trkpt><trkpt lat="44.65771575359322" lon="10.0880813869684"><ele>391.0</ele><time>2026-04-19T07:56:11.999Z</time></trkpt><trkpt lat="44.65767759813933" lon="10.088286753232955"><ele>395.0</ele><time>2026-04-19T07:56:12.999Z</time></trkpt><trkpt lat="44.65767795035482" lon="10.088453093648214"><ele>399.0</ele><time>2026-04-19T07:56:13.999Z</time></trkpt><trkpt lat="44.65765400996648" lon="10.088553025305414"><ele>403.0</ele><time>2026-04-19T07:56:14.999Z</time></trkpt><trkpt lat="44.657586693786726" lon="10.088591077832305"><ele>407.0</ele><time>2026-04-19T07:56:15.999Z</time></trkpt><trkpt lat="44.657493080214735" lon="10.088545967738058"><ele>411.0</ele><time>2026-04-19T07:56:16.999Z</time></trkpt><trkpt lat="44.657470409820746" lon="10.088397960999345"><ele>411.0</ele><time>2026-04-19T07:56:17.999Z</time></trkpt><trkpt lat="44.65749817217086" lon="10.08827662699469"><ele>411.0</ele><time>2026-04-19T07:56:18.999Z</time></trkpt><trkpt lat="44.65754169123234" lon="10.08811230212425"><ele>411.0</ele><time>2026-04-19T07:56:19.999Z</time></trkpt><trkpt lat="44.65760199883225" lon="10.087934428747461"><ele>411.0</ele><time>2026-04-19T07:56:20.999Z</time></trkpt><trkpt lat="44.657634724185534" lon="10.087758561607455"><ele>411.25</ele><time>2026-04-19T07:56:21.999Z</time></trkpt><trkpt lat="44.657646757165054" lon="10.08761951555818"><ele>411.5</ele><time>2026-04-19T07:56:22.999Z</time></trkpt><trkpt lat="44.65761354621433" lon="10.087482086029675"><ele>411.75</ele><time>2026-04-19T07:56:23.999Z</time></trkpt><trkpt lat="44.657526375637694" lon="10.087364796004884"><ele>412.0</ele><time>2026-04-19T07:56:24.999Z</time></trkpt><trkpt lat="44.65738825507484" lon="10.087310136437097"><ele>409.75</ele><time>2026-04-19T07:56:25.999Z</time></trkpt><trkpt lat="44.65721725498688" lon="10.087290314066978"><ele>407.5</ele><time>2026-04-19T07:56:26.999Z</time></trkpt><trkpt lat="44.65706228406428" lon="10.087274663766134"><ele>405.25</ele><time>2026-04-19T07:56:27.999Z</time></trkpt><trkpt lat="44.65694440454744" lon="10.087227988473288"><ele>403.0</ele><time>2026-04-19T07:56:28.999Z</time></trkpt><trkpt lat="44.65688592220011" lon="10.087068824386453"><ele>407.0</ele><time>2026-04-19T07:56:29.999Z</time></trkpt><trkpt lat="44.65686291499456" lon="10.086907574408691"><ele>411.0</ele><time>2026-04-19T07:56:30.999Z</time></trkpt><trkpt lat="44.656816335939986" lon="10.08673492859468"><ele>415.0</ele><time>2026-04-19T07:56:31.999Z</time></trkpt><trkpt lat="44.65678274297197" lon="10.086529521006943"><ele>419.0</ele><time>2026-04-19T07:56:32.999Z</time></trkpt><trkpt lat="44.65673302787506" lon="10.086330203443868"><ele>419.0</ele><time>2026-04-19T07:56:33.999Z</time></trkpt><trkpt lat="44.65669076408954" lon="10.086131983257948"><ele>419.0</ele><time>2026-04-19T07:56:34.999Z</time></trkpt><trkpt lat="44.65662695201529" lon="10.085984518871866"><ele>419.0</ele><time>2026-04-19T07:56:35.999Z</time></trkpt><trkpt lat="44.65652045385342" lon="10.085907458392054"><ele>419.0</ele><time>2026-04-19T07:56:36.999Z</time></trkpt><trkpt lat="44.656351013146455" lon="10.08589631684167"><ele>419.0</ele><time>2026-04-19T07:56:37.999Z</time></trkpt><trkpt lat="44.656165410393655" lon="10.085896270853828"><ele>419.0</ele><time>2026-04-19T07:56:38.999Z</time></trkpt><trkpt lat="44.65601213312484" lon="10.085850340871037"><ele>419.0</ele><time>2026-04-19T07:56:39.999Z</time></trkpt><trkpt lat="44.65588302308352" lon="10.08581081461005"><ele>423.0</ele><time>2026-04-19T07:56:40.999Z</time></trkpt><trkpt lat="44.65578673109316" lon="10.085731917115323"><ele>427.0</ele><time>2026-04-19T07:56:41.999Z</time></trkpt><trkpt lat="44.655731426105156" lon="10.085602141725625"><ele>431.0</ele><time>2026-04-19T07:56:42.999Z</time></trkpt><trkpt lat="44.65574950007196" lon="10.08542049417047"><ele>435.0</ele><time>2026-04-19T07:56:43.999Z</time></trkpt><trkpt lat="44.655747067875026" lon="10.085175148584367"><ele>434.0</ele><time>2026-04-19T07:56:44.999Z</time></trkpt><trkpt lat="44.655732815055885" lon="10.08492217027327"><ele>433.0</ele><time>2026-04-19T07:56:45.999Z</time></trkpt><trkpt lat="44.65573374474711" lon="10.08469077871778"><ele>432.0</ele><time>2026-04-19T07:56:46.999Z</time></trkpt><trkpt lat="44.65572799683584" lon="10.084460743805375"><ele>432.0</ele><time>2026-04-19T07:56:47.999Z</time></trkpt><trkpt lat="44.655716398355196" lon="10.084266833923444"><ele>432.0</ele><time>2026-04-19T07:56:48.999Z</time></trkpt><trkpt lat="44.655659569876406" lon="10.084113214409825"><ele>432.0</ele><time>2026-04-19T07:56:49.999Z</time></trkpt><trkpt lat="44.655566373517715" lon="10.083995370381352"><ele>432.0</ele><time>2026-04-19T07:56:51Z</time></trkpt><trkpt lat="44.655429636019335" lon="10.083964797430806"><ele>431.66666666666663</ele><time>2026-04-19T07:56:52Z</time></trkpt><trkpt lat="44.655274415644776" lon="10.084011179703312"><ele>431.3333333333333</ele><time>2026-04-19T07:56:53Z</time></trkpt><trkpt lat="44.65511587347869" lon="10.084053685167097"><ele>431.0</ele><time>2026-04-19T07:56:54Z</time></trkpt><trkpt lat="44.65496955573713" lon="10.084017188372593"><ele>431.0</ele><time>2026-04-19T07:56:55Z</time></trkpt><trkpt lat="44.654834516043834" lon="10.08396064011172"><ele>431.0</ele><time>2026-04-19T07:56:56Z</time></trkpt><trkpt lat="44.6547275349404" lon="10.08384115277035"><ele>431.0</ele><time>2026-04-19T07:56:57Z</time></trkpt><trkpt lat="44.65462088156524" lon="10.083696474646251"><ele>431.0</ele><time>2026-04-19T07:56:58Z</time></trkpt><trkpt lat="44.654506225453" lon="10.083566830662622"><ele>436.66666666666663</ele><time>2026-04-19T07:56:59Z</time></trkpt><trkpt lat="44.65438273299877" lon="10.08344848259598"><ele>442.33333333333337</ele><time>2026-04-19T07:57:00Z</time></trkpt><trkpt lat="44.654218780581225" lon="10.083386508314916"><ele>448.0</ele><time>2026-04-19T07:57:01Z</time></trkpt><trkpt lat="44.654031293354706" lon="10.083345935920006"><ele>447.33333333333337</ele><time>2026-04-19T07:57:02Z</time></trkpt><trkpt lat="44.653873123286964" lon="10.083238244488056"><ele>446.66666666666663</ele><time>2026-04-19T07:57:03Z</time></trkpt><trkpt lat="44.65371478202453" lon="10.083132767278208"><ele>446.0</ele><time>2026-04-19T07:57:04Z</time></trkpt><trkpt lat="44.65356529206473" lon="10.08302194663114"><ele>446.0</ele><time>2026-04-19T07:57:05Z</time></trkpt><trkpt lat="44.65342639633979" lon="10.08291393660362"><ele>446.0</ele><time>2026-04-19T07:57:06Z</time></trkpt><trkpt lat="44.653282228024096" lon="10.082826578458924"><ele>446.0</ele><time>2026-04-19T07:57:07Z</time></trkpt><trkpt lat="44.65313416531206" lon="10.082735975946347"><ele>446.0</ele><time>2026-04-19T07:57:08Z</time></trkpt><trkpt lat="44.65294361688444" lon="10.082836323370097"><ele>446.0</ele><time>2026-04-19T07:57:09Z</time></trkpt><trkpt lat="44.65278048708542" lon="10.08287772106489"><ele>446.0</ele><time>2026-04-19T07:57:10Z</time></trkpt><trkpt lat="44.65263781098527" lon="10.082864414737587"><ele>445.25</ele><time>2026-04-19T07:57:11Z</time></trkpt><trkpt lat="44.65250241172751" lon="10.08280656308548"><ele>444.5</ele><time>2026-04-19T07:57:12Z</time></trkpt><trkpt lat="44.65239649843747" lon="10.08268331645044"><ele>443.75</ele><time>2026-04-19T07:57:13Z</time></trkpt><trkpt lat="44.65234410756735" lon="10.082540789905044"><ele>443.0</ele><time>2026-04-19T07:57:14Z</time></trkpt><trkpt lat="44.65228505145087" lon="10.082360511241118"><ele>443.0</ele><time>2026-04-19T07:57:15Z</time></trkpt><trkpt lat="44.652212704016485" lon="10.082187397945228"><ele>443.0</ele><time>2026-04-19T07:57:16Z</time></trkpt><trkpt lat="44.652131451218644" lon="10.082015809675434"><ele>443.0</ele><time>2026-04-19T07:57:17Z</time></trkpt><trkpt lat="44.65198964362076" lon="10.081846894266098"><ele>449.3333333333333</ele><time>2026-04-19T07:57:18Z</time></trkpt><trkpt lat="44.651824792629476" lon="10.081726328107598"><ele>455.66666666666663</ele><time>2026-04-19T07:57:19Z</time></trkpt><trkpt lat="44.6516224237205" lon="10.081644672633804"><ele>462.0</ele><time>2026-04-19T07:57:20Z</time></trkpt><trkpt lat="44.65139037865197" lon="10.081619087667251"><ele>460.5</ele><time>2026-04-19T07:57:21Z</time></trkpt><trkpt lat="44.6511326042795" lon="10.081591850447362"><ele>459.0</ele><time>2026-04-19T07:57:22Z</time></trkpt><trkpt lat="44.65086382403773" lon="10.081553488299035"><ele>459.0</ele><time>2026-04-19T07:57:23Z</time></trkpt><trkpt lat="44.650649582088796" lon="10.081516269156971"><ele>459.0</ele><time>2026-04-19T07:57:24Z</time></trkpt><trkpt lat="44.65046918731966" lon="10.08142701134954"><ele>459.0</ele><time>2026-04-19T07:57:25Z</time></trkpt><trkpt lat="44.6502696001706" lon="10.081245441359252"><ele>466.0</ele><time>2026-04-19T07:57:26Z</time></trkpt><trkpt lat="44.65006226186831" lon="10.081066542065704"><ele>473.0</ele><time>2026-04-19T07:57:27Z</time></trkpt><trkpt lat="44.64985793197771" lon="10.080946562205249"><ele>473.0</ele><time>2026-04-19T07:57:28Z</time></trkpt><trkpt lat="44.64961572012097" lon="10.080894252198783"><ele>473.0</ele><time>2026-04-19T07:57:29Z</time></trkpt><trkpt lat="44.64937753700768" lon="10.080855452744883"><ele>471.66666666666663</ele><time>2026-04-19T07:57:30Z</time></trkpt><trkpt lat="44.649187960729954" lon="10.080770800940716"><ele>470.33333333333337</ele><time>2026-04-19T07:57:31Z</time></trkpt><trkpt lat="44.64903034408408" lon="10.08072980794947"><ele>469.0</ele><time>2026-04-19T07:57:32Z</time></trkpt><trkpt lat="44.64887934208181" lon="10.080800284101361"><ele>473.6666666666667</ele><time>2026-04-19T07:57:33Z</time></trkpt><trkpt lat="44.648733397595734" lon="10.080986412923737"><ele>478.33333333333337</ele><time>2026-04-19T07:57:34Z</time></trkpt><trkpt lat="44.64857668351654" lon="10.081230134341444"><ele>483.0</ele><time>2026-04-19T07:57:35Z</time></trkpt><trkpt lat="44.64840575967467" lon="10.081474016036003"><ele>486.66666666666663</ele><time>2026-04-19T07:57:36Z</time></trkpt><trkpt lat="44.64823492888448" lon="10.081692711954455"><ele>490.3333333333333</ele><time>2026-04-19T07:57:37Z</time></trkpt><trkpt lat="44.64809032284092" lon="10.081870674071618"><ele>494.0</ele><time>2026-04-19T07:57:38Z</time></trkpt><trkpt lat="44.64796494167459" lon="10.082027673289875"><ele>494.0</ele><time>2026-04-19T07:57:39Z</time></trkpt><trkpt lat="44.64786224165076" lon="10.08215365159679"><ele>494.0</ele><time>2026-04-19T07:57:40Z</time></trkpt><trkpt lat="44.64776425401162" lon="10.082185037985365"><ele>494.0</ele><time>2026-04-19T07:57:41Z</time></trkpt><trkpt lat="44.64767476726047" lon="10.082133142539748"><ele>494.0</ele><time>2026-04-19T07:57:42Z</time></trkpt><trkpt lat="44.64755013387271" lon="10.082015638021515"><ele>491.3333333333333</ele><time>2026-04-19T07:57:43Z</time></trkpt><trkpt lat="44.647421188299454" lon="10.081800945382064"><ele>488.66666666666663</ele><time>2026-04-19T07:57:44Z</time></trkpt><trkpt lat="44.64731741672994" lon="10.081532592357417"><ele>486.0</ele><time>2026-04-19T07:57:45Z</time></trkpt><trkpt lat="44.647185857405155" lon="10.081257431416885"><ele>486.0</ele><time>2026-04-19T07:57:46Z</time></trkpt><trkpt lat="44.647038327458795" lon="10.080999062719636"><ele>486.0</ele><time>2026-04-19T07:57:47Z</time></trkpt><trkpt lat="44.646894670476776" lon="10.080782672994157"><ele>486.0</ele><time>2026-04-19T07:57:48Z</time></trkpt><trkpt lat="44.64674438572114" lon="10.080587769086923"><ele>490.0</ele><time>2026-04-19T07:57:49Z</time></trkpt><trkpt lat="44.646539770417" lon="10.08042355464819"><ele>494.0</ele><time>2026-04-19T07:57:50Z</time></trkpt><trkpt lat="44.64628870185242" lon="10.080278507805104"><ele>508.0</ele><time>2026-04-19T07:57:51Z</time></trkpt><trkpt lat="44.64606050624818" lon="10.080135354139966"><ele>522.0</ele><time>2026-04-19T07:57:52Z</time></trkpt><trkpt lat="44.645846855532874" lon="10.07998194701725"><ele>510.5</ele><time>2026-04-19T07:57:53Z</time></trkpt><trkpt lat="44.64563155511501" lon="10.079840275789033"><ele>499.0</ele><time>2026-04-19T07:57:54Z</time></trkpt><trkpt lat="44.64540944028255" lon="10.079722697281628"><ele>509.0</ele><time>2026-04-19T07:57:55Z</time></trkpt><trkpt lat="44.645178468028085" lon="10.079622697285975"><ele>519.0</ele><time>2026-04-19T07:57:56Z</time></trkpt><trkpt lat="44.64495575539743" lon="10.079526946824707"><ele>519.0</ele><time>2026-04-19T07:57:57Z</time></trkpt><trkpt lat="44.64474705871657" lon="10.079407107384096"><ele>519.0</ele><time>2026-04-19T07:57:58Z</time></trkpt><trkpt lat="44.64456812963999" lon="10.079313785001514"><ele>519.0</ele><time>2026-04-19T07:57:59Z</time></trkpt><trkpt lat="44.64442157884049" lon="10.079200910376626"><ele>526.6666666666666</ele><time>2026-04-19T07:58:00Z</time></trkpt><trkpt lat="44.64433170189877" lon="10.079012915901298"><ele>534.3333333333333</ele><time>2026-04-19T07:58:00.999Z</time></trkpt><trkpt lat="44.64426969250686" lon="10.07878292270649"><ele>542.0</ele><time>2026-04-19T07:58:01.999Z</time></trkpt><trkpt lat="44.64427603547128" lon="10.078519885507031"><ele>541.0</ele><time>2026-04-19T07:58:02.999Z</time></trkpt><trkpt lat="44.64426239399236" lon="10.078229656189743"><ele>540.0</ele><time>2026-04-19T07:58:03.999Z</time></trkpt><trkpt lat="44.644278179226305" lon="10.077973948104471"><ele>539.0</ele><time>2026-04-19T07:58:04.999Z</time></trkpt><trkpt lat="44.64426023960488" lon="10.077759014722654"><ele>539.0</ele><time>2026-04-19T07:58:05.999Z</time></trkpt><trkpt lat="44.644194028802964" lon="10.077575425850684"><ele>539.0</ele><time>2026-04-19T07:58:06.999Z</time></trkpt><trkpt lat="44.64404198300201" lon="10.077454112278069"><ele>539.0</ele><time>2026-04-19T07:58:07.999Z</time></trkpt><trkpt lat="44.643849274002584" lon="10.07736014176098"><ele>538.3333333333333</ele><time>2026-04-19T07:58:08.999Z</time></trkpt><trkpt lat="44.64364448238876" lon="10.077283437247626"><ele>537.6666666666666</ele><time>2026-04-19T07:58:09.999Z</time></trkpt><trkpt lat="44.643491200863735" lon="10.077222163863942"><ele>537.0</ele><time>2026-04-19T07:58:10.999Z</time></trkpt><trkpt lat="44.64336670863162" lon="10.077225271355461"><ele>537.0</ele><time>2026-04-19T07:58:11.999Z</time></trkpt><trkpt lat="44.6432583821276" lon="10.077324229603498"><ele>537.0</ele><time>2026-04-19T07:58:12.999Z</time></trkpt><trkpt lat="44.64315747637515" lon="10.077531083494133"><ele>537.0</ele><time>2026-04-19T07:58:13.999Z</time></trkpt><trkpt lat="44.64305767317891" lon="10.077770969269576"><ele>540.3333333333334</ele><time>2026-04-19T07:58:14.999Z</time></trkpt><trkpt lat="44.64293875737416" lon="10.078007961037192"><ele>543.6666666666667</ele><time>2026-04-19T07:58:15.999Z</time></trkpt><trkpt lat="44.64278773894561" lon="10.078208217231202"><ele>547.0</ele><time>2026-04-19T07:58:16.999Z</time></trkpt><trkpt lat="44.642578093243856" lon="10.078308820098403"><ele>550.0</ele><time>2026-04-19T07:58:17.999Z</time></trkpt><trkpt lat="44.642380100236196" lon="10.078331982411704"><ele>553.0</ele><time>2026-04-19T07:58:18.999Z</time></trkpt><trkpt lat="44.642183844501375" lon="10.07829485510297"><ele>556.0</ele><time>2026-04-19T07:58:19.999Z</time></trkpt><trkpt lat="44.64196181767601" lon="10.078214426879121"><ele>556.0</ele><time>2026-04-19T07:58:20.999Z</time></trkpt><trkpt lat="44.64176280358511" lon="10.078117024723685"><ele>556.0</ele><time>2026-04-19T07:58:21.999Z</time></trkpt><trkpt lat="44.641608878636944" lon="10.07805953692664"><ele>556.0</ele><time>2026-04-19T07:58:22.999Z</time></trkpt><trkpt lat="44.64149292871742" lon="10.078040494617676"><ele>556.0</ele><time>2026-04-19T07:58:23.999Z</time></trkpt><trkpt lat="44.64135344225722" lon="10.07812440144252"><ele>556.0</ele><time>2026-04-19T07:58:24.999Z</time></trkpt><trkpt lat="44.64118713898236" lon="10.078311476050189"><ele>556.0</ele><time>2026-04-19T07:58:25.999Z</time></trkpt><trkpt lat="44.6410082808138" lon="10.078516157781204"><ele>562.0</ele><time>2026-04-19T07:58:26.999Z</time></trkpt><trkpt lat="44.64081308604006" lon="10.078693733664425"><ele>568.0</ele><time>2026-04-19T07:58:27.999Z</time></trkpt><trkpt lat="44.6406170157023" lon="10.078875122558408"><ele>568.0</ele><time>2026-04-19T07:58:28.999Z</time></trkpt><trkpt lat="44.640444608710844" lon="10.079031825748668"><ele>568.0</ele><time>2026-04-19T07:58:29.999Z</time></trkpt><trkpt lat="44.640267924237754" lon="10.079152660660986"><ele>568.0</ele><time>2026-04-19T07:58:30.999Z</time></trkpt><trkpt lat="44.64006909839647" lon="10.079201834293992"><ele>573.0</ele><time>2026-04-19T07:58:31.999Z</time></trkpt><trkpt lat="44.6398276982034" lon="10.07919308810847"><ele>578.0</ele><time>2026-04-19T07:58:32.999Z</time></trkpt><trkpt lat="44.63955205162395" lon="10.079178721596547"><ele>579.5</ele><time>2026-04-19T07:58:33.999Z</time></trkpt><trkpt lat="44.63932328627815" lon="10.079170358585364"><ele>581.0</ele><time>2026-04-19T07:58:34.999Z</time></trkpt><trkpt lat="44.63908199263025" lon="10.07915048951368"><ele>581.0</ele><time>2026-04-19T07:58:35.999Z</time></trkpt><trkpt lat="44.63884883153268" lon="10.079157022827182"><ele>581.0</ele><time>2026-04-19T07:58:36.999Z</time></trkpt><trkpt lat="44.6386328623507" lon="10.079133993937353"><ele>580.6666666666666</ele><time>2026-04-19T07:58:37.999Z</time></trkpt><trkpt lat="44.638419960262745" lon="10.079251148129394"><ele>580.3333333333334</ele><time>2026-04-19T07:58:38.999Z</time></trkpt><trkpt lat="44.638227774585" lon="10.079299959899162"><ele>580.0</ele><time>2026-04-19T07:58:39.999Z</time></trkpt><trkpt lat="44.638028644047544" lon="10.079347163907311"><ele>580.0</ele><time>2026-04-19T07:58:40.999Z</time></trkpt><trkpt lat="44.63783652249271" lon="10.079390134086912"><ele>580.0</ele><time>2026-04-19T07:58:41.999Z</time></trkpt><trkpt lat="44.637643897445585" lon="10.079437367616174"><ele>580.0</ele><time>2026-04-19T07:58:42.999Z</time></trkpt><trkpt lat="44.63745766187799" lon="10.079480275827171"><ele>580.0</ele><time>2026-04-19T07:58:43.999Z</time></trkpt><trkpt lat="44.63726783387521" lon="10.079516276060788"><ele>580.0</ele><time>2026-04-19T07:58:44.999Z</time></trkpt><trkpt lat="44.63708122257582" lon="10.079550444878375"><ele>580.0</ele><time>2026-04-19T07:58:45.999Z</time></trkpt><trkpt lat="44.63690452673151" lon="10.079570117499705"><ele>580.0</ele><time>2026-04-19T07:58:46.999Z</time></trkpt><trkpt lat="44.636720030657116" lon="10.079550952641043"><ele>580.0</ele><time>2026-04-19T07:58:47.999Z</time></trkpt><trkpt lat="44.63652946614332" lon="10.07948877232883"><ele>580.0</ele><time>2026-04-19T07:58:48.999Z</time></trkpt><trkpt lat="44.63634045424511" lon="10.079425855809125"><ele>580.0</ele><time>2026-04-19T07:58:49.999Z</time></trkpt><trkpt lat="44.636145786895455" lon="10.079377320421347"><ele>580.0</ele><time>2026-04-19T07:58:50.999Z</time></trkpt><trkpt lat="44.635960471298596" lon="10.079329833255336"><ele>580.0</ele><time>2026-04-19T07:58:51.999Z</time></trkpt><trkpt lat="44.635795207958836" lon="10.07925804795599"><ele>582.0</ele><time>2026-04-19T07:58:52.999Z</time></trkpt><trkpt lat="44.63564250596769" lon="10.079171300662908"><ele>584.0</ele><time>2026-04-19T07:58:53.999Z</time></trkpt><trkpt lat="44.635511509367944" lon="10.079060710744802"><ele>586.0</ele><time>2026-04-19T07:58:54.999Z</time></trkpt><trkpt lat="44.635384674168726" lon="10.078933834913636"><ele>585.25</ele><time>2026-04-19T07:58:55.999Z</time></trkpt><trkpt lat="44.635262157859756" lon="10.078823505886046"><ele>584.5</ele><time>2026-04-19T07:58:57Z</time></trkpt><trkpt lat="44.63514135651075" lon="10.078754455417473"><ele>583.75</ele><time>2026-04-19T07:58:58Z</time></trkpt><trkpt lat="44.635014187326504" lon="10.07870491664796"><ele>583.0</ele><time>2026-04-19T07:58:59Z</time></trkpt><trkpt lat="44.63488274811687" lon="10.078682646677967"><ele>583.0</ele><time>2026-04-19T07:59:00Z</time></trkpt><trkpt lat="44.63474476716158" lon="10.078680864656269"><ele>583.0</ele><time>2026-04-19T07:59:01Z</time></trkpt><trkpt lat="44.63460445193265" lon="10.07870038792501"><ele>583.0</ele><time>2026-04-19T07:59:02Z</time></trkpt><trkpt lat="44.63446502350823" lon="10.078728813713655"><ele>583.0</ele><time>2026-04-19T07:59:03Z</time></trkpt><trkpt lat="44.634324576942085" lon="10.07875437357656"><ele>583.75</ele><time>2026-04-19T07:59:04Z</time></trkpt><trkpt lat="44.63418305223955" lon="10.078777595300192"><ele>584.5</ele><time>2026-04-19T07:59:05Z</time></trkpt><trkpt lat="44.63404254974543" lon="10.078801996499022"><ele>585.25</ele><time>2026-04-19T07:59:06Z</time></trkpt><trkpt lat="44.63389406971257" lon="10.078822864877418"><ele>586.0</ele><time>2026-04-19T07:59:07Z</time></trkpt><trkpt lat="44.63374619799908" lon="10.078839004893672"><ele>586.6666666666667</ele><time>2026-04-19T07:59:08Z</time></trkpt><trkpt lat="44.63359535582242" lon="10.07886362284712"><ele>587.3333333333334</ele><time>2026-04-19T07:59:09Z</time></trkpt><trkpt lat="44.63344746454325" lon="10.0788877864408"><ele>588.0</ele><time>2026-04-19T07:59:10Z</time></trkpt><trkpt lat="44.633290259998816" lon="10.078908413526312"><ele>588.0</ele><time>2026-04-19T07:59:11Z</time></trkpt><trkpt lat="44.633133730795755" lon="10.078928265467914"><ele>588.0</ele><time>2026-04-19T07:59:12Z</time></trkpt><trkpt lat="44.6329819780871" lon="10.078949512379655"><ele>588.0</ele><time>2026-04-19T07:59:13Z</time></trkpt><trkpt lat="44.632827933122265" lon="10.078975523450753"><ele>590.0</ele><time>2026-04-19T07:59:14Z</time></trkpt><trkpt lat="44.63267048540646" lon="10.078982456514279"><ele>592.0</ele><time>2026-04-19T07:59:15Z</time></trkpt><trkpt lat="44.63249692469583" lon="10.079005154207156"><ele>594.0</ele><time>2026-04-19T07:59:16Z</time></trkpt><trkpt lat="44.632334087180574" lon="10.079026707452048"><ele>594.0</ele><time>2026-04-19T07:59:17Z</time></trkpt><trkpt lat="44.6321702697827" lon="10.079054408399976"><ele>594.0</ele><time>2026-04-19T07:59:18Z</time></trkpt><trkpt lat="44.63200453200624" lon="10.079078551432348"><ele>594.0</ele><time>2026-04-19T07:59:19Z</time></trkpt><trkpt lat="44.63183276230509" lon="10.07909910081147"><ele>596.3333333333334</ele><time>2026-04-19T07:59:20Z</time></trkpt><trkpt lat="44.63167952702778" lon="10.079100468155314"><ele>598.6666666666667</ele><time>2026-04-19T07:59:21Z</time></trkpt><trkpt lat="44.63153935394454" lon="10.079028908196564"><ele>601.0</ele><time>2026-04-19T07:59:22Z</time></trkpt><trkpt lat="44.631408657233436" lon="10.07890117326691"><ele>601.0</ele><time>2026-04-19T07:59:23Z</time></trkpt><trkpt lat="44.6312787999766" lon="10.078698973065716"><ele>601.0</ele><time>2026-04-19T07:59:24Z</time></trkpt><trkpt lat="44.631154195836004" lon="10.078496259988906"><ele>601.0</ele><time>2026-04-19T07:59:25Z</time></trkpt><trkpt lat="44.63105029956485" lon="10.078350079907084"><ele>604.0</ele><time>2026-04-19T07:59:26Z</time></trkpt><trkpt lat="44.63095298579824" lon="10.078245840220578"><ele>607.0</ele><time>2026-04-19T07:59:27Z</time></trkpt><trkpt lat="44.63085385232911" lon="10.078187734665518"><ele>610.0</ele><time>2026-04-19T07:59:28Z</time></trkpt><trkpt lat="44.6307377137098" lon="10.0781736417045"><ele>613.0</ele><time>2026-04-19T07:59:29Z</time></trkpt><trkpt lat="44.63060493630908" lon="10.07820262536585"><ele>614.3333333333334</ele><time>2026-04-19T07:59:30Z</time></trkpt><trkpt lat="44.63046284377228" lon="10.078277829270172"><ele>615.6666666666666</ele><time>2026-04-19T07:59:31Z</time></trkpt><trkpt lat="44.63031545896738" lon="10.078415234874432"><ele>617.0</ele><time>2026-04-19T07:59:32Z</time></trkpt><trkpt lat="44.6301806511154" lon="10.078591797712477"><ele>617.0</ele><time>2026-04-19T07:59:33Z</time></trkpt><trkpt lat="44.63007637060393" lon="10.078797073858864"><ele>617.0</ele><time>2026-04-19T07:59:34Z</time></trkpt><trkpt lat="44.62999062394226" lon="10.078974287032075"><ele>617.0</ele><time>2026-04-19T07:59:35Z</time></trkpt><trkpt lat="44.62985278717136" lon="10.07906119153231"><ele>617.0</ele><time>2026-04-19T07:59:36Z</time></trkpt><trkpt lat="44.629691780131175" lon="10.079103951657332"><ele>617.0</ele><time>2026-04-19T07:59:37Z</time></trkpt><trkpt lat="44.62949674920253" lon="10.079099374180858"><ele>617.0</ele><time>2026-04-19T07:59:38Z</time></trkpt><trkpt lat="44.62928086857515" lon="10.079090243462652"><ele>615.6666666666666</ele><time>2026-04-19T07:59:39Z</time></trkpt><trkpt lat="44.62909282599739" lon="10.07906170412315"><ele>614.3333333333334</ele><time>2026-04-19T07:59:40Z</time></trkpt><trkpt lat="44.628935463584334" lon="10.079079555830216"><ele>613.0</ele><time>2026-04-19T07:59:41Z</time></trkpt><trkpt lat="44.62879257458444" lon="10.079181481341543"><ele>613.0</ele><time>2026-04-19T07:59:42Z</time></trkpt><trkpt lat="44.62868878789971" lon="10.079351674155248"><ele>613.0</ele><time>2026-04-19T07:59:43Z</time></trkpt><trkpt lat="44.62865805826296" lon="10.079553308681323"><ele>613.0</ele><time>2026-04-19T07:59:44Z</time></trkpt><trkpt lat="44.628660999054624" lon="10.079799944558403"><ele>614.5</ele><time>2026-04-19T07:59:45Z</time></trkpt><trkpt lat="44.628643400699424" lon="10.079982943864726"><ele>616.0</ele><time>2026-04-19T07:59:46Z</time></trkpt><trkpt lat="44.62856379166945" lon="10.080102600046827"><ele>617.5</ele><time>2026-04-19T07:59:47Z</time></trkpt><trkpt lat="44.62841473779456" lon="10.080102165173356"><ele>619.0</ele><time>2026-04-19T07:59:48Z</time></trkpt><trkpt lat="44.62828297882184" lon="10.080047466419925"><ele>622.0</ele><time>2026-04-19T07:59:49Z</time></trkpt><trkpt lat="44.628217346765744" lon="10.079879124132924"><ele>625.0</ele><time>2026-04-19T07:59:50Z</time></trkpt><trkpt lat="44.6281122190399" lon="10.079698792394712"><ele>628.0</ele><time>2026-04-19T07:59:51Z</time></trkpt><trkpt lat="44.62797033819731" lon="10.079578371388171"><ele>629.6666666666667</ele><time>2026-04-19T07:59:52Z</time></trkpt><trkpt lat="44.627770271349995" lon="10.079562144193806"><ele>631.3333333333334</ele><time>2026-04-19T07:59:53Z</time></trkpt><trkpt lat="44.62756641864999" lon="10.079560230101457"><ele>633.0</ele><time>2026-04-19T07:59:54Z</time></trkpt><trkpt lat="44.62736177666613" lon="10.079522264368883"><ele>633.0</ele><time>2026-04-19T07:59:55Z</time></trkpt><trkpt lat="44.62717639878109" lon="10.079403478288066"><ele>633.0</ele><time>2026-04-19T07:59:56Z</time></trkpt><trkpt lat="44.62701365286793" lon="10.079228058587612"><ele>633.0</ele><time>2026-04-19T07:59:57Z</time></trkpt><trkpt lat="44.62683863273443" lon="10.07907084191235"><ele>634.0</ele><time>2026-04-19T07:59:58Z</time></trkpt><trkpt lat="44.62667009956937" lon="10.07889455880296"><ele>635.0</ele><time>2026-04-19T07:59:59Z</time></trkpt><trkpt lat="44.626509844664" lon="10.078733676032039"><ele>636.0</ele><time>2026-04-19T08:00:00Z</time></trkpt><trkpt lat="44.626364926839315" lon="10.07858655274632"><ele>636.0</ele><time>2026-04-19T08:00:01Z</time></trkpt><trkpt lat="44.626217629033626" lon="10.078461653699495"><ele>636.0</ele><time>2026-04-19T08:00:02Z</time></trkpt><trkpt lat="44.62605177274874" lon="10.078371562090211"><ele>636.0</ele><time>2026-04-19T08:00:03Z</time></trkpt><trkpt lat="44.62587432389381" lon="10.078340190371865"><ele>635.0</ele><time>2026-04-19T08:00:04Z</time></trkpt><trkpt lat="44.6256868103519" lon="10.078372100019006"><ele>634.0</ele><time>2026-04-19T08:00:05Z</time></trkpt><trkpt lat="44.62550384563079" lon="10.078493264572206"><ele>633.0</ele><time>2026-04-19T08:00:06Z</time></trkpt><trkpt lat="44.62533445062108" lon="10.078634328990196"><ele>636.3333333333334</ele><time>2026-04-19T08:00:06.999Z</time></trkpt><trkpt lat="44.6251572997955" lon="10.07876865650729"><ele>639.6666666666667</ele><time>2026-04-19T08:00:07.999Z</time></trkpt><trkpt lat="44.62497939964238" lon="10.078888346435718"><ele>643.0</ele><time>2026-04-19T08:00:08.999Z</time></trkpt><trkpt lat="44.62481158449957" lon="10.078995329302689"><ele>643.0</ele><time>2026-04-19T08:00:09.999Z</time></trkpt><trkpt lat="44.62466780013066" lon="10.079080632611293"><ele>643.0</ele><time>2026-04-19T08:00:10.999Z</time></trkpt><trkpt lat="44.624531287761315" lon="10.079112966254604"><ele>643.0</ele><time>2026-04-19T08:00:11.999Z</time></trkpt><trkpt lat="44.62441212842" lon="10.078997232697887"><ele>643.0</ele><time>2026-04-19T08:00:12.999Z</time></trkpt><trkpt lat="44.624265052270744" lon="10.078872411351897"><ele>644.6666666666667</ele><time>2026-04-19T08:00:13.999Z</time></trkpt><trkpt lat="44.624126027840724" lon="10.078773476441016"><ele>646.3333333333334</ele><time>2026-04-19T08:00:14.999Z</time></trkpt><trkpt lat="44.62407225084572" lon="10.078600956406046"><ele>648.0</ele><time>2026-04-19T08:00:15.999Z</time></trkpt><trkpt lat="44.624078967945906" lon="10.078355641316758"><ele>648.6666666666666</ele><time>2026-04-19T08:00:16.999Z</time></trkpt><trkpt lat="44.62405768808876" lon="10.078095680555759"><ele>649.3333333333333</ele><time>2026-04-19T08:00:17.999Z</time></trkpt><trkpt lat="44.624009549862386" lon="10.077879201639105"><ele>650.0</ele><time>2026-04-19T08:00:18.999Z</time></trkpt><trkpt lat="44.62387729244126" lon="10.077717148901367"><ele>650.0</ele><time>2026-04-19T08:00:19.999Z</time></trkpt><trkpt lat="44.623720979172916" lon="10.077574789322325"><ele>650.0</ele><time>2026-04-19T08:00:20.999Z</time></trkpt><trkpt lat="44.62361956051764" lon="10.077422296541275"><ele>650.0</ele><time>2026-04-19T08:00:21.999Z</time></trkpt><trkpt lat="44.62363869313461" lon="10.077214031376577"><ele>649.3333333333333</ele><time>2026-04-19T08:00:22.999Z</time></trkpt><trkpt lat="44.62365557455908" lon="10.076951395959702"><ele>648.6666666666666</ele><time>2026-04-19T08:00:23.999Z</time></trkpt><trkpt lat="44.62366338267862" lon="10.076675478970172"><ele>648.0</ele><time>2026-04-19T08:00:24.999Z</time></trkpt><trkpt lat="44.623604781193414" lon="10.076462728491256"><ele>649.6666666666666</ele><time>2026-04-19T08:00:25.999Z</time></trkpt><trkpt lat="44.62347874913961" lon="10.076283752788484"><ele>651.3333333333333</ele><time>2026-04-19T08:00:26.999Z</time></trkpt><trkpt lat="44.62329935262053" lon="10.076143452303729"><ele>653.0</ele><time>2026-04-19T08:00:27.999Z</time></trkpt><trkpt lat="44.62308928585124" lon="10.076061866138954"><ele>653.0</ele><time>2026-04-19T08:00:28.999Z</time></trkpt><trkpt lat="44.62286479864732" lon="10.075976423692548"><ele>653.0</ele><time>2026-04-19T08:00:29.999Z</time></trkpt><trkpt lat="44.62267216286962" lon="10.075979991296593"><ele>653.0</ele><time>2026-04-19T08:00:30.999Z</time></trkpt><trkpt lat="44.6225164757692" lon="10.076049639965598"><ele>654.3333333333333</ele><time>2026-04-19T08:00:31.999Z</time></trkpt><trkpt lat="44.622442331296035" lon="10.07614489463884"><ele>655.6666666666666</ele><time>2026-04-19T08:00:32.999Z</time></trkpt><trkpt lat="44.62236290430441" lon="10.076287502952638"><ele>657.0</ele><time>2026-04-19T08:00:33.999Z</time></trkpt><trkpt lat="44.62219152986712" lon="10.076506356753466"><ele>657.0</ele><time>2026-04-19T08:00:34.999Z</time></trkpt><trkpt lat="44.622036636893945" lon="10.076503630529666"><ele>657.0</ele><time>2026-04-19T08:00:35.999Z</time></trkpt><trkpt lat="44.6219099086894" lon="10.07639504428711"><ele>657.0</ele><time>2026-04-19T08:00:36.999Z</time></trkpt><trkpt lat="44.621867360650036" lon="10.076220928386707"><ele>657.0</ele><time>2026-04-19T08:00:37.999Z</time></trkpt><trkpt lat="44.62172286452923" lon="10.07602044069274"><ele>657.0</ele><time>2026-04-19T08:00:38.999Z</time></trkpt><trkpt lat="44.62159216161502" lon="10.075834664618519"><ele>657.0</ele><time>2026-04-19T08:00:39.999Z</time></trkpt><trkpt lat="44.62145708646389" lon="10.075650696805734"><ele>657.0</ele><time>2026-04-19T08:00:40.999Z</time></trkpt><trkpt lat="44.62132139176328" lon="10.075463077837775"><ele>657.0</ele><time>2026-04-19T08:00:41.999Z</time></trkpt><trkpt lat="44.62118306225814" lon="10.07527092380909"><ele>657.0</ele><time>2026-04-19T08:00:42.999Z</time></trkpt><trkpt lat="44.62104709427547" lon="10.075077726991736"><ele>657.0</ele><time>2026-04-19T08:00:43.999Z</time></trkpt><trkpt lat="44.620939183293196" lon="10.074854031025703"><ele>659.0</ele><time>2026-04-19T08:00:44.999Z</time></trkpt><trkpt lat="44.62084543990322" lon="10.074617560884667"><ele>661.0</ele><time>2026-04-19T08:00:45.999Z</time></trkpt><trkpt lat="44.620739132345726" lon="10.074423768578807"><ele>663.0</ele><time>2026-04-19T08:00:46.999Z</time></trkpt><trkpt lat="44.62061857642213" lon="10.074244039232632"><ele>663.0</ele><time>2026-04-19T08:00:47.999Z</time></trkpt><trkpt lat="44.62044738441086" lon="10.074129059823393"><ele>663.0</ele><time>2026-04-19T08:00:48.999Z</time></trkpt><trkpt lat="44.62024781295455" lon="10.074067546575261"><ele>663.0</ele><time>2026-04-19T08:00:49.999Z</time></trkpt><trkpt lat="44.620065466872" lon="10.073988329736839"><ele>667.6666666666666</ele><time>2026-04-19T08:00:50.999Z</time></trkpt><trkpt lat="44.61993434393916" lon="10.073826363093993"><ele>672.3333333333333</ele><time>2026-04-19T08:00:51.999Z</time></trkpt><trkpt lat="44.61985096937872" lon="10.073640183148122"><ele>677.0</ele><time>2026-04-19T08:00:52.999Z</time></trkpt><trkpt lat="44.619813945202644" lon="10.073426899402023"><ele>676.6666666666666</ele><time>2026-04-19T08:00:53.999Z</time></trkpt><trkpt lat="44.619818325049906" lon="10.073185283744573"><ele>676.3333333333334</ele><time>2026-04-19T08:00:54.999Z</time></trkpt><trkpt lat="44.619841249172794" lon="10.072899901356566"><ele>676.0</ele><time>2026-04-19T08:00:55.999Z</time></trkpt><trkpt lat="44.619865263551794" lon="10.072628775933731"><ele>676.0</ele><time>2026-04-19T08:00:56.999Z</time></trkpt><trkpt lat="44.619866146222115" lon="10.072441222310609"><ele>676.0</ele><time>2026-04-19T08:00:57.999Z</time></trkpt><trkpt lat="44.61980614740895" lon="10.072326907966366"><ele>676.0</ele><time>2026-04-19T08:00:58.999Z</time></trkpt><trkpt lat="44.61972499899953" lon="10.072260322237282"><ele>676.0</ele><time>2026-04-19T08:00:59.999Z</time></trkpt><trkpt lat="44.619582522280226" lon="10.072259322687776"><ele>678.3333333333334</ele><time>2026-04-19T08:01:00.999Z</time></trkpt><trkpt lat="44.61939601710302" lon="10.072284387058046"><ele>680.6666666666666</ele><time>2026-04-19T08:01:01.999Z</time></trkpt><trkpt lat="44.61919619472245" lon="10.072278402583143"><ele>683.0</ele><time>2026-04-19T08:01:03Z</time></trkpt><trkpt lat="44.61899574077225" lon="10.072263846091941"><ele>683.0</ele><time>2026-04-19T08:01:04Z</time></trkpt><trkpt lat="44.61879639639209" lon="10.072250685368305"><ele>683.0</ele><time>2026-04-19T08:01:05Z</time></trkpt><trkpt lat="44.6185854502308" lon="10.072236079275017"><ele>683.0</ele><time>2026-04-19T08:01:06Z</time></trkpt><trkpt lat="44.61840761715691" lon="10.072182010955665"><ele>687.25</ele><time>2026-04-19T08:01:07Z</time></trkpt><trkpt lat="44.61826250973302" lon="10.072100821930634"><ele>691.5</ele><time>2026-04-19T08:01:08Z</time></trkpt><trkpt lat="44.61815211699406" lon="10.071984954924185"><ele>695.75</ele><time>2026-04-19T08:01:09Z</time></trkpt><trkpt lat="44.61809419998642" lon="10.0718329093941"><ele>700.0</ele><time>2026-04-19T08:01:10Z</time></trkpt><trkpt lat="44.61811379873531" lon="10.071683910340564"><ele>701.3333333333334</ele><time>2026-04-19T08:01:11Z</time></trkpt><trkpt lat="44.618157463457464" lon="10.071506593769861"><ele>702.6666666666666</ele><time>2026-04-19T08:01:12Z</time></trkpt><trkpt lat="44.61820841693023" lon="10.071276702885141"><ele>704.0</ele><time>2026-04-19T08:01:13Z</time></trkpt><trkpt lat="44.618233347065384" lon="10.071031782157512"><ele>704.0</ele><time>2026-04-19T08:01:14Z</time></trkpt><trkpt lat="44.61822892325217" lon="10.070790215348223"><ele>704.0</ele><time>2026-04-19T08:01:15Z</time></trkpt><trkpt lat="44.6181877093572" lon="10.07053638790087"><ele>704.0</ele><time>2026-04-19T08:01:16Z</time></trkpt><trkpt lat="44.61820115651869" lon="10.070290608087774"><ele>705.3333333333333</ele><time>2026-04-19T08:01:17Z</time></trkpt><trkpt lat="44.61823531373168" lon="10.070036739898406"><ele>706.6666666666666</ele><time>2026-04-19T08:01:18Z</time></trkpt><trkpt lat="44.61827729722983" lon="10.069794765283389"><ele>708.0</ele><time>2026-04-19T08:01:19Z</time></trkpt><trkpt lat="44.61831866078511" lon="10.069563014966647"><ele>709.0</ele><time>2026-04-19T08:01:20Z</time></trkpt><trkpt lat="44.618338200454545" lon="10.06934896621862"><ele>710.0</ele><time>2026-04-19T08:01:21Z</time></trkpt><trkpt lat="44.61835450820566" lon="10.069142583249526"><ele>711.0</ele><time>2026-04-19T08:01:22Z</time></trkpt><trkpt lat="44.61832016487221" lon="10.068945742785433"><ele>712.0</ele><time>2026-04-19T08:01:23Z</time></trkpt><trkpt lat="44.618222585911525" lon="10.068770855918507"><ele>712.0</ele><time>2026-04-19T08:01:24Z</time></trkpt><trkpt lat="44.618100690135286" lon="10.068617249103424"><ele>712.0</ele><time>2026-04-19T08:01:25Z</time></trkpt><trkpt lat="44.61798792268263" lon="10.068455261467271"><ele>712.0</ele><time>2026-04-19T08:01:26Z</time></trkpt><trkpt lat="44.61787565759901" lon="10.068280995868948"><ele>717.3333333333334</ele><time>2026-04-19T08:01:27Z</time></trkpt><trkpt lat="44.61777343558457" lon="10.068102615365635"><ele>722.6666666666666</ele><time>2026-04-19T08:01:28Z</time></trkpt><trkpt lat="44.61770996603182" lon="10.067897467582046"><ele>728.0</ele><time>2026-04-19T08:01:29Z</time></trkpt><trkpt lat="44.61767132096553" lon="10.067693766488746"><ele>728.0</ele><time>2026-04-19T08:01:30Z</time></trkpt><trkpt lat="44.61763266678274" lon="10.067485972526361"><ele>728.0</ele><time>2026-04-19T08:01:31Z</time></trkpt><trkpt lat="44.617581438318986" lon="10.067308623527246"><ele>728.0</ele><time>2026-04-19T08:01:32Z</time></trkpt><trkpt lat="44.61750949599652" lon="10.067174225829561"><ele>728.0</ele><time>2026-04-19T08:01:33Z</time></trkpt><trkpt lat="44.61740373042012" lon="10.06707249360289"><ele>726.0</ele><time>2026-04-19T08:01:34Z</time></trkpt><trkpt lat="44.61725769449982" lon="10.06697082373341"><ele>724.0</ele><time>2026-04-19T08:01:35Z</time></trkpt><trkpt lat="44.61710137076796" lon="10.066832766640609"><ele>722.0</ele><time>2026-04-19T08:01:36Z</time></trkpt><trkpt lat="44.61699259427818" lon="10.066645544370878"><ele>724.0</ele><time>2026-04-19T08:01:37Z</time></trkpt><trkpt lat="44.61687733564116" lon="10.066473541125555"><ele>726.0</ele><time>2026-04-19T08:01:38Z</time></trkpt><trkpt lat="44.61676994359985" lon="10.0663132473893"><ele>728.0</ele><time>2026-04-19T08:01:39Z</time></trkpt><trkpt lat="44.616628878756586" lon="10.066223142782965"><ele>728.0</ele><time>2026-04-19T08:01:40Z</time></trkpt><trkpt lat="44.616454916892664" lon="10.066196892894"><ele>728.0</ele><time>2026-04-19T08:01:41Z</time></trkpt><trkpt lat="44.61627677915583" lon="10.066173908662046"><ele>728.0</ele><time>2026-04-19T08:01:42Z</time></trkpt><trkpt lat="44.61609741488307" lon="10.06612947342537"><ele>732.0</ele><time>2026-04-19T08:01:43Z</time></trkpt><trkpt lat="44.61591865011984" lon="10.066076927906229"><ele>736.0</ele><time>2026-04-19T08:01:44Z</time></trkpt><trkpt lat="44.61574591855498" lon="10.066018307298576"><ele>740.0</ele><time>2026-04-19T08:01:45Z</time></trkpt><trkpt lat="44.61559980044733" lon="10.065967878399256"><ele>740.0</ele><time>2026-04-19T08:01:46Z</time></trkpt><trkpt lat="44.61546812420787" lon="10.065936067886517"><ele>740.0</ele><time>2026-04-19T08:01:47Z</time></trkpt><trkpt lat="44.61534223489823" lon="10.065946121909853"><ele>740.0</ele><time>2026-04-19T08:01:48Z</time></trkpt><trkpt lat="44.61522282924637" lon="10.066045491369755"><ele>740.0</ele><time>2026-04-19T08:01:49Z</time></trkpt><trkpt lat="44.61511334874065" lon="10.066241825425687"><ele>739.6666666666666</ele><time>2026-04-19T08:01:50Z</time></trkpt><trkpt lat="44.61499344410332" lon="10.066464273369837"><ele>739.3333333333334</ele><time>2026-04-19T08:01:51Z</time></trkpt><trkpt lat="44.61486470312334" lon="10.066668401671842"><ele>739.0</ele><time>2026-04-19T08:01:52Z</time></trkpt><trkpt lat="44.6147336931768" lon="10.066864569693589"><ele>738.0</ele><time>2026-04-19T08:01:53Z</time></trkpt><trkpt lat="44.61461445221226" lon="10.067044833262058"><ele>737.0</ele><time>2026-04-19T08:01:54Z</time></trkpt><trkpt lat="44.61452243867488" lon="10.067214726986345"><ele>736.0</ele><time>2026-04-19T08:01:55Z</time></trkpt><trkpt lat="44.61446658494295" lon="10.067380745492548"><ele>739.3333333333334</ele><time>2026-04-19T08:01:56Z</time></trkpt><trkpt lat="44.61446734098883" lon="10.067563521256442"><ele>742.6666666666666</ele><time>2026-04-19T08:01:57Z</time></trkpt><trkpt lat="44.61452311924229" lon="10.06777135126733"><ele>746.0</ele><time>2026-04-19T08:01:58Z</time></trkpt><trkpt lat="44.61457264178118" lon="10.06800933375608"><ele>750.3333333333333</ele><time>2026-04-19T08:01:59Z</time></trkpt><trkpt lat="44.614548234953396" lon="10.06824329822985"><ele>754.6666666666666</ele><time>2026-04-19T08:02:00Z</time></trkpt><trkpt lat="44.61440128064703" lon="10.068374766171738"><ele>759.0</ele><time>2026-04-19T08:02:01Z</time></trkpt><trkpt lat="44.61426079096193" lon="10.068545689008161"><ele>759.0</ele><time>2026-04-19T08:02:02Z</time></trkpt><trkpt lat="44.61410228688325" lon="10.068735335056193"><ele>759.0</ele><time>2026-04-19T08:02:03Z</time></trkpt><trkpt lat="44.61394772597664" lon="10.06891815182182"><ele>759.0</ele><time>2026-04-19T08:02:04Z</time></trkpt><trkpt lat="44.61379421433729" lon="10.069099173167384"><ele>763.3333333333333</ele><time>2026-04-19T08:02:05Z</time></trkpt><trkpt lat="44.613650478506685" lon="10.069285707044395"><ele>767.6666666666666</ele><time>2026-04-19T08:02:06Z</time></trkpt><trkpt lat="44.61350152629535" lon="10.069459337250636"><ele>772.0</ele><time>2026-04-19T08:02:07Z</time></trkpt><trkpt lat="44.61335572887713" lon="10.06962691779804"><ele>772.0</ele><time>2026-04-19T08:02:08Z</time></trkpt><trkpt lat="44.6131961898532" lon="10.069798948351533"><ele>772.0</ele><time>2026-04-19T08:02:09Z</time></trkpt><trkpt lat="44.613013120680776" lon="10.069938415526694"><ele>772.0</ele><time>2026-04-19T08:02:10Z</time></trkpt><trkpt lat="44.61282873382592" lon="10.070060135739421"><ele>775.6666666666666</ele><time>2026-04-19T08:02:10.999Z</time></trkpt><trkpt lat="44.61263390524337" lon="10.070123658417415"><ele>779.3333333333333</ele><time>2026-04-19T08:02:11.999Z</time></trkpt><trkpt lat="44.612434690513936" lon="10.070138095420292"><ele>783.0</ele><time>2026-04-19T08:02:12.999Z</time></trkpt><trkpt lat="44.61223401401406" lon="10.070098613561369"><ele>783.0</ele><time>2026-04-19T08:02:13.999Z</time></trkpt><trkpt lat="44.61202259083703" lon="10.070046152638563"><ele>783.0</ele><time>2026-04-19T08:02:14.999Z</time></trkpt><trkpt lat="44.61181719277067" lon="10.069993198030524"><ele>783.0</ele><time>2026-04-19T08:02:15.999Z</time></trkpt><trkpt lat="44.61163436521319" lon="10.069961199638675"><ele>782.5</ele><time>2026-04-19T08:02:16.999Z</time></trkpt><trkpt lat="44.61147478406959" lon="10.069911801766214"><ele>782.0</ele><time>2026-04-19T08:02:17.999Z</time></trkpt><trkpt lat="44.6113341888288" lon="10.069881294326462"><ele>781.5</ele><time>2026-04-19T08:02:18.999Z</time></trkpt><trkpt lat="44.6112156197399" lon="10.069901643007753"><ele>781.0</ele><time>2026-04-19T08:02:19.999Z</time></trkpt><trkpt lat="44.61111998659887" lon="10.07000426163573"><ele>781.0</ele><time>2026-04-19T08:02:20.999Z</time></trkpt><trkpt lat="44.61104348700136" lon="10.07019615895737"><ele>781.0</ele><time>2026-04-19T08:02:21.999Z</time></trkpt><trkpt lat="44.61101920545902" lon="10.07046733657452"><ele>781.0</ele><time>2026-04-19T08:02:22.999Z</time></trkpt><trkpt lat="44.61099624868573" lon="10.07077336847324"><ele>782.6666666666666</ele><time>2026-04-19T08:02:23.999Z</time></trkpt><trkpt lat="44.610946285287774" lon="10.071070849936188"><ele>784.3333333333333</ele><time>2026-04-19T08:02:24.999Z</time></trkpt><trkpt lat="44.61089429229403" lon="10.071344909517423"><ele>786.0</ele><time>2026-04-19T08:02:25.999Z</time></trkpt><trkpt lat="44.61079705396923" lon="10.071546722665191"><ele>786.3333333333333</ele><time>2026-04-19T08:02:26.999Z</time></trkpt><trkpt lat="44.610672975268905" lon="10.071679245495927"><ele>786.6666666666666</ele><time>2026-04-19T08:02:27.999Z</time></trkpt><trkpt lat="44.610514961025636" lon="10.071742925417578"><ele>787.0</ele><time>2026-04-19T08:02:28.999Z</time></trkpt><trkpt lat="44.6103195945846" lon="10.071791125535865"><ele>787.0</ele><time>2026-04-19T08:02:29.999Z</time></trkpt><trkpt lat="44.610115300301324" lon="10.071749898218062"><ele>787.0</ele><time>2026-04-19T08:02:30.999Z</time></trkpt><trkpt lat="44.60987454654336" lon="10.07167428340456"><ele>780.0</ele><time>2026-04-19T08:02:31.999Z</time></trkpt><trkpt lat="44.60963590707197" lon="10.07160192399651"><ele>773.0</ele><time>2026-04-19T08:02:32.999Z</time></trkpt><trkpt lat="44.60941340716052" lon="10.07154774717818"><ele>773.0</ele><time>2026-04-19T08:02:33.999Z</time></trkpt><trkpt lat="44.60919916620183" lon="10.07147587105833"><ele>773.0</ele><time>2026-04-19T08:02:34.999Z</time></trkpt><trkpt lat="44.60898226799325" lon="10.07140845379212"><ele>773.0</ele><time>2026-04-19T08:02:35.999Z</time></trkpt><trkpt lat="44.6087757723193" lon="10.071340162529136"><ele>773.0</ele><time>2026-04-19T08:02:36.999Z</time></trkpt><trkpt lat="44.60858671593366" lon="10.071274321270382"><ele>773.0</ele><time>2026-04-19T08:02:37.999Z</time></trkpt><trkpt lat="44.60842368176763" lon="10.071227986198663"><ele>773.0</ele><time>2026-04-19T08:02:38.999Z</time></trkpt><trkpt lat="44.60825292876971" lon="10.07121148512837"><ele>773.0</ele><time>2026-04-19T08:02:39.999Z</time></trkpt><trkpt lat="44.6080896020822" lon="10.071252709227624"><ele>773.0</ele><time>2026-04-19T08:02:40.999Z</time></trkpt><trkpt lat="44.60794687043516" lon="10.071371404121226"><ele>773.0</ele><time>2026-04-19T08:02:41.999Z</time></trkpt><trkpt lat="44.60780715419825" lon="10.071544112049759"><ele>774.5</ele><time>2026-04-19T08:02:42.999Z</time></trkpt><trkpt lat="44.60770559438735" lon="10.071743856052715"><ele>776.0</ele><time>2026-04-19T08:02:43.999Z</time></trkpt><trkpt lat="44.60758828180318" lon="10.071847198332005"><ele>777.5</ele><time>2026-04-19T08:02:44.999Z</time></trkpt><trkpt lat="44.60746773251526" lon="10.07190544564434"><ele>779.0</ele><time>2026-04-19T08:02:45.999Z</time></trkpt><trkpt lat="44.60732954731705" lon="10.07189787438137"><ele>779.0</ele><time>2026-04-19T08:02:46.999Z</time></trkpt><trkpt lat="44.60713363540796" lon="10.071901112571622"><ele>779.0</ele><time>2026-04-19T08:02:47.999Z</time></trkpt><trkpt lat="44.60693498169744" lon="10.071922489653346"><ele>779.0</ele><time>2026-04-19T08:02:48.999Z</time></trkpt><trkpt lat="44.606739341709535" lon="10.07192748055052"><ele>775.3333333333334</ele><time>2026-04-19T08:02:49.999Z</time></trkpt><trkpt lat="44.606555679779376" lon="10.071905721606752"><ele>771.6666666666667</ele><time>2026-04-19T08:02:50.999Z</time></trkpt><trkpt lat="44.60639064851324" lon="10.07185797507057"><ele>768.0</ele><time>2026-04-19T08:02:51.999Z</time></trkpt><trkpt lat="44.606237974863674" lon="10.071777397579499"><ele>768.3333333333333</ele><time>2026-04-19T08:02:52.999Z</time></trkpt><trkpt lat="44.60609280616767" lon="10.071738663301073"><ele>768.6666666666666</ele><time>2026-04-19T08:02:53.999Z</time></trkpt><trkpt lat="44.60591651798781" lon="10.071792000050866"><ele>769.0</ele><time>2026-04-19T08:02:54.999Z</time></trkpt><trkpt lat="44.60572030877924" lon="10.071938304502432"><ele>769.0</ele><time>2026-04-19T08:02:55.999Z</time></trkpt><trkpt lat="44.60550819161492" lon="10.072042160463"><ele>769.0</ele><time>2026-04-19T08:02:56.999Z</time></trkpt><trkpt lat="44.605282622347225" lon="10.072123092626851"><ele>768.0</ele><time>2026-04-19T08:02:57.999Z</time></trkpt><trkpt lat="44.605070132507144" lon="10.072213291244983"><ele>767.0</ele><time>2026-04-19T08:02:58.999Z</time></trkpt><trkpt lat="44.60487817740561" lon="10.072274658474113"><ele>766.0</ele><time>2026-04-19T08:02:59.999Z</time></trkpt><trkpt lat="44.60470666777781" lon="10.072335623586556"><ele>766.0</ele><time>2026-04-19T08:03:00.999Z</time></trkpt><trkpt lat="44.60454440689999" lon="10.072378423461664"><ele>766.0</ele><time>2026-04-19T08:03:01.999Z</time></trkpt><trkpt lat="44.60437262454364" lon="10.072399129412867"><ele>766.0</ele><time>2026-04-19T08:03:02.999Z</time></trkpt><trkpt lat="44.60419015381919" lon="10.072322324142947"><ele>767.3333333333334</ele><time>2026-04-19T08:03:03.999Z</time></trkpt><trkpt lat="44.603996253674566" lon="10.072265396265584"><ele>768.6666666666667</ele><time>2026-04-19T08:03:04.999Z</time></trkpt><trkpt lat="44.603806922921514" lon="10.072186396202788"><ele>770.0</ele><time>2026-04-19T08:03:05.999Z</time></trkpt><trkpt lat="44.603603900085425" lon="10.072171070794969"><ele>771.6666666666667</ele><time>2026-04-19T08:03:06.999Z</time></trkpt><trkpt lat="44.60342259091743" lon="10.07219950223158"><ele>773.3333333333333</ele><time>2026-04-19T08:03:07.999Z</time></trkpt><trkpt lat="44.60327922967709" lon="10.0721863232694"><ele>775.0</ele><time>2026-04-19T08:03:09Z</time></trkpt><trkpt lat="44.603156231445" lon="10.072129131703797"><ele>775.0</ele><time>2026-04-19T08:03:10Z</time></trkpt><trkpt lat="44.60308770088995" lon="10.07199399851058"><ele>775.0</ele><time>2026-04-19T08:03:11Z</time></trkpt><trkpt lat="44.603026030827436" lon="10.071802375254514"><ele>775.0</ele><time>2026-04-19T08:03:12Z</time></trkpt><trkpt lat="44.60293112350827" lon="10.071557955897916"><ele>771.0</ele><time>2026-04-19T08:03:13Z</time></trkpt><trkpt lat="44.60285844700688" lon="10.071317409553604"><ele>767.0</ele><time>2026-04-19T08:03:14Z</time></trkpt><trkpt lat="44.602772443639395" lon="10.071073761771045"><ele>763.0</ele><time>2026-04-19T08:03:15Z</time></trkpt><trkpt lat="44.602694129343774" lon="10.070880443320753"><ele>766.25</ele><time>2026-04-19T08:03:16Z</time></trkpt><trkpt lat="44.60262127533629" lon="10.070757254664862"><ele>769.5</ele><time>2026-04-19T08:03:17Z</time></trkpt><trkpt lat="44.60252053957525" lon="10.070673119227568"><ele>772.75</ele><time>2026-04-19T08:03:18Z</time></trkpt><trkpt lat="44.60238905148045" lon="10.070682621088952"><ele>776.0</ele><time>2026-04-19T08:03:19Z</time></trkpt><trkpt lat="44.60223126581401" lon="10.070781514654897"><ele>779.6666666666667</ele><time>2026-04-19T08:03:20Z</time></trkpt><trkpt lat="44.60207128645895" lon="10.070955238583192"><ele>783.3333333333333</ele><time>2026-04-19T08:03:21Z</time></trkpt><trkpt lat="44.60191412033353" lon="10.071109438705669"><ele>787.0</ele><time>2026-04-19T08:03:22Z</time></trkpt><trkpt lat="44.60175655880298" lon="10.071245009984302"><ele>787.3333333333333</ele><time>2026-04-19T08:03:23Z</time></trkpt><trkpt lat="44.601604816240254" lon="10.071372918384634"><ele>787.6666666666667</ele><time>2026-04-19T08:03:24Z</time></trkpt><trkpt lat="44.60146894279132" lon="10.071487602518816"><ele>788.0</ele><time>2026-04-19T08:03:25Z</time></trkpt><trkpt lat="44.60133095866903" lon="10.071613603040017"><ele>788.5</ele><time>2026-04-19T08:03:26Z</time></trkpt><trkpt lat="44.60118864531009" lon="10.071728310485796"><ele>789.0</ele><time>2026-04-19T08:03:27Z</time></trkpt><trkpt lat="44.60106231601053" lon="10.071813676566949"><ele>789.5</ele><time>2026-04-19T08:03:28Z</time></trkpt><trkpt lat="44.600938799033486" lon="10.071903158178872"><ele>790.0</ele><time>2026-04-19T08:03:29Z</time></trkpt><trkpt lat="44.60082452756905" lon="10.071937851806682"><ele>791.0</ele><time>2026-04-19T08:03:30Z</time></trkpt><trkpt lat="44.600722318670435" lon="10.071892927483232"><ele>792.0</ele><time>2026-04-19T08:03:31Z</time></trkpt><trkpt lat="44.60064347623596" lon="10.071750770983089"><ele>793.0</ele><time>2026-04-19T08:03:32Z</time></trkpt><trkpt lat="44.60060013509927" lon="10.071541963758241"><ele>794.0</ele><time>2026-04-19T08:03:33Z</time></trkpt><trkpt lat="44.60053697668928" lon="10.071293255056377"><ele>794.0</ele><time>2026-04-19T08:03:34Z</time></trkpt><trkpt lat="44.600479042363844" lon="10.07104793842717"><ele>794.0</ele><time>2026-04-19T08:03:35Z</time></trkpt><trkpt lat="44.60044013500589" lon="10.070771721374644"><ele>794.0</ele><time>2026-04-19T08:03:36Z</time></trkpt><trkpt lat="44.600233207299205" lon="10.070585356785662"><ele>797.5</ele><time>2026-04-19T08:03:37Z</time></trkpt><trkpt lat="44.59999319403318" lon="10.070514290382427"><ele>801.0</ele><time>2026-04-19T08:03:38Z</time></trkpt><trkpt lat="44.59979255953637" lon="10.070375502103905"><ele>801.0</ele><time>2026-04-19T08:03:39Z</time></trkpt><trkpt lat="44.59963127867243" lon="10.070246991045577"><ele>801.0</ele><time>2026-04-19T08:03:40Z</time></trkpt><trkpt lat="44.59948972699225" lon="10.070163638895398"><ele>801.0</ele><time>2026-04-19T08:03:41Z</time></trkpt><trkpt lat="44.59933334510189" lon="10.070183742668073"><ele>805.0</ele><time>2026-04-19T08:03:42Z</time></trkpt><trkpt lat="44.59915346738614" lon="10.070271290659296"><ele>809.0</ele><time>2026-04-19T08:03:43Z</time></trkpt><trkpt lat="44.59896488953717" lon="10.070354865254671"><ele>813.0</ele><time>2026-04-19T08:03:44Z</time></trkpt><trkpt lat="44.59878425413156" lon="10.070344504300262"><ele>817.6666666666667</ele><time>2026-04-19T08:03:45Z</time></trkpt><trkpt lat="44.59863251237842" lon="10.070214094936556"><ele>822.3333333333334</ele><time>2026-04-19T08:03:46Z</time></trkpt><trkpt lat="44.598436350309875" lon="10.070082316163434"><ele>827.0</ele><time>2026-04-19T08:03:47Z</time></trkpt><trkpt lat="44.598228063576904" lon="10.069989294663914"><ele>827.0</ele><time>2026-04-19T08:03:48Z</time></trkpt><trkpt lat="44.59799266913813" lon="10.069960052498383"><ele>827.0</ele><time>2026-04-19T08:03:49Z</time></trkpt><trkpt lat="44.59771976412013" lon="10.069990762325684"><ele>834.0</ele><time>2026-04-19T08:03:50Z</time></trkpt><trkpt lat="44.59746870254569" lon="10.070013198103688"><ele>841.0</ele><time>2026-04-19T08:03:51Z</time></trkpt><trkpt lat="44.597182995486584" lon="10.070005209167984"><ele>842.0</ele><time>2026-04-19T08:03:52Z</time></trkpt><trkpt lat="44.59691550406395" lon="10.069965611017166"><ele>843.0</ele><time>2026-04-19T08:03:53Z</time></trkpt><trkpt lat="44.59662553371023" lon="10.069861323508368"><ele>847.25</ele><time>2026-04-19T08:03:54Z</time></trkpt><trkpt lat="44.59654072710116" lon="10.069756235642206"><ele>851.5</ele><time>2026-04-19T08:03:56Z</time></trkpt><trkpt lat="44.5964718035418" lon="10.069602440043758"><ele>855.75</ele><time>2026-04-19T08:03:57Z</time></trkpt><trkpt lat="44.596432869425904" lon="10.06940000647142"><ele>860.0</ele><time>2026-04-19T08:03:58Z</time></trkpt><trkpt lat="44.596390924691455" lon="10.069122898366537"><ele>864.0</ele><time>2026-04-19T08:03:59Z</time></trkpt><trkpt lat="44.59633028775214" lon="10.068803188031653"><ele>868.0</ele><time>2026-04-19T08:04:00Z</time></trkpt><trkpt lat="44.59622540440992" lon="10.068511114656319"><ele>858.5</ele><time>2026-04-19T08:04:01Z</time></trkpt><trkpt lat="44.596123320404736" lon="10.068227474260187"><ele>849.0</ele><time>2026-04-19T08:04:02Z</time></trkpt><trkpt lat="44.59598325517247" lon="10.067944544337339"><ele>849.0</ele><time>2026-04-19T08:04:03Z</time></trkpt><trkpt lat="44.59586526635673" lon="10.06768397843812"><ele>849.0</ele><time>2026-04-19T08:04:04Z</time></trkpt><trkpt lat="44.59582994220503" lon="10.067364120510051"><ele>855.0</ele><time>2026-04-19T08:04:05Z</time></trkpt><trkpt lat="44.59577516562958" lon="10.067018208878755"><ele>861.0</ele><time>2026-04-19T08:04:06Z</time></trkpt><trkpt lat="44.595734889549405" lon="10.066680358103161"><ele>864.5</ele><time>2026-04-19T08:04:07Z</time></trkpt><trkpt lat="44.595720036973894" lon="10.06634846177339"><ele>868.0</ele><time>2026-04-19T08:04:08Z</time></trkpt><trkpt lat="44.595723213493905" lon="10.066001003173348"><ele>873.0</ele><time>2026-04-19T08:04:09Z</time></trkpt><trkpt lat="44.59574460641844" lon="10.065652015837621"><ele>878.0</ele><time>2026-04-19T08:04:10Z</time></trkpt><trkpt lat="44.595742044106885" lon="10.065313815770716"><ele>878.0</ele><time>2026-04-19T08:04:11Z</time></trkpt><trkpt lat="44.59572601571495" lon="10.064986388261223"><ele>878.0</ele><time>2026-04-19T08:04:12Z</time></trkpt><trkpt lat="44.59567501942305" lon="10.06467453478902"><ele>880.5</ele><time>2026-04-19T08:04:13Z</time></trkpt><trkpt lat="44.595677790020005" lon="10.064370666928156"><ele>883.0</ele><time>2026-04-19T08:04:14Z</time></trkpt><trkpt lat="44.59568815319024" lon="10.064033981003723"><ele>884.0</ele><time>2026-04-19T08:04:15Z</time></trkpt><trkpt lat="44.59572838438941" lon="10.063727785872702"><ele>885.0</ele><time>2026-04-19T08:04:16Z</time></trkpt><trkpt lat="44.59579469576298" lon="10.063468618646576"><ele>886.0</ele><time>2026-04-19T08:04:16.999Z</time></trkpt><trkpt lat="44.59584260789445" lon="10.063230211171938"><ele>889.6666666666666</ele><time>2026-04-19T08:04:17.999Z</time></trkpt><trkpt lat="44.595887614124784" lon="10.063006263261116"><ele>893.3333333333333</ele><time>2026-04-19T08:04:18.999Z</time></trkpt><trkpt lat="44.59593249483399" lon="10.062782939937385"><ele>897.0</ele><time>2026-04-19T08:04:19.999Z</time></trkpt><trkpt lat="44.595682538265315" lon="10.062463518206735"><ele>894.0</ele><time>2026-04-19T08:04:20.999Z</time></trkpt><trkpt lat="44.5955121261597" lon="10.062238790498142"><ele>891.0</ele><time>2026-04-19T08:04:21.999Z</time></trkpt><trkpt lat="44.595316414856576" lon="10.062024768258315"><ele>891.0</ele><time>2026-04-19T08:04:22.999Z</time></trkpt><trkpt lat="44.59514577515131" lon="10.061816910064925"><ele>891.0</ele><time>2026-04-19T08:04:23.999Z</time></trkpt><trkpt lat="44.595000528133944" lon="10.061628955869912"><ele>891.0</ele><time>2026-04-19T08:04:24.999Z</time></trkpt><trkpt lat="44.59486911236791" lon="10.061427919454209"><ele>891.0</ele><time>2026-04-19T08:04:25.999Z</time></trkpt><trkpt lat="44.594742773572385" lon="10.06118489917702"><ele>891.0</ele><time>2026-04-19T08:04:26.999Z</time></trkpt><trkpt lat="44.59464033885238" lon="10.060923328363963"><ele>891.0</ele><time>2026-04-19T08:04:27.999Z</time></trkpt><trkpt lat="44.59456353729779" lon="10.060645038234556"><ele>888.0</ele><time>2026-04-19T08:04:28.999Z</time></trkpt><trkpt lat="44.594512446104424" lon="10.06032984122322"><ele>885.0</ele><time>2026-04-19T08:04:29.999Z</time></trkpt><trkpt lat="44.59448093345816" lon="10.060006497375438"><ele>882.3333333333333</ele><time>2026-04-19T08:04:30.999Z</time></trkpt><trkpt lat="44.59444160714794" lon="10.059729539833395"><ele>879.6666666666666</ele><time>2026-04-19T08:04:31.999Z</time></trkpt><trkpt lat="44.594400690496315" lon="10.059459897694905"><ele>877.0</ele><time>2026-04-19T08:04:32.999Z</time></trkpt><trkpt lat="44.59435224202287" lon="10.059186621896828"><ele>877.3333333333333</ele><time>2026-04-19T08:04:33.999Z</time></trkpt><trkpt lat="44.59428673141917" lon="10.05893915664474"><ele>877.6666666666667</ele><time>2026-04-19T08:04:34.999Z</time></trkpt><trkpt lat="44.59418744506628" lon="10.058711063278965"><ele>878.0</ele><time>2026-04-19T08:04:35.999Z</time></trkpt><trkpt lat="44.59401756526506" lon="10.058524687021187"><ele>878.0</ele><time>2026-04-19T08:04:36.999Z</time></trkpt><trkpt lat="44.59381421713931" lon="10.058385659088358"><ele>878.0</ele><time>2026-04-19T08:04:37.999Z</time></trkpt><trkpt lat="44.59362951624681" lon="10.058243161869205"><ele>878.0</ele><time>2026-04-19T08:04:38.999Z</time></trkpt><trkpt lat="44.593489061603144" lon="10.058051153626185"><ele>879.0</ele><time>2026-04-19T08:04:39.999Z</time></trkpt><trkpt lat="44.59337752151919" lon="10.057789196122497"><ele>880.0</ele><time>2026-04-19T08:04:40.999Z</time></trkpt><trkpt lat="44.59328219799944" lon="10.057498931539113"><ele>881.0</ele><time>2026-04-19T08:04:41.999Z</time></trkpt><trkpt lat="44.59320156733061" lon="10.057193778668271"><ele>884.0</ele><time>2026-04-19T08:04:42.999Z</time></trkpt><trkpt lat="44.59314374288289" lon="10.056898431842702"><ele>887.0</ele><time>2026-04-19T08:04:43.999Z</time></trkpt><trkpt lat="44.59310230990078" lon="10.056638651155966"><ele>890.0</ele><time>2026-04-19T08:04:44.999Z</time></trkpt><trkpt lat="44.59306141365812" lon="10.056414648536366"><ele>891.3333333333334</ele><time>2026-04-19T08:04:45.999Z</time></trkpt><trkpt lat="44.59300807003806" lon="10.056198357127792"><ele>892.6666666666667</ele><time>2026-04-19T08:04:46.999Z</time></trkpt><trkpt lat="44.59293051628635" lon="10.056000407523943"><ele>894.0</ele><time>2026-04-19T08:04:47.999Z</time></trkpt><trkpt lat="44.59282557184797" lon="10.055844444761027"><ele>897.75</ele><time>2026-04-19T08:04:48.999Z</time></trkpt><trkpt lat="44.592716872512504" lon="10.055732107698422"><ele>901.5</ele><time>2026-04-19T08:04:49.999Z</time></trkpt><trkpt lat="44.592624809790856" lon="10.055637689500838"><ele>905.25</ele><time>2026-04-19T08:04:50.999Z</time></trkpt><trkpt lat="44.59255184711803" lon="10.05553876261007"><ele>909.0</ele><time>2026-04-19T08:04:51.999Z</time></trkpt><trkpt lat="44.59247793069048" lon="10.055437232631906"><ele>909.0</ele><time>2026-04-19T08:04:52.999Z</time></trkpt><trkpt lat="44.59239543406821" lon="10.055336773046509"><ele>909.0</ele><time>2026-04-19T08:04:53.999Z</time></trkpt><trkpt lat="44.59231172593939" lon="10.055255328402271"><ele>909.0</ele><time>2026-04-19T08:04:54.999Z</time></trkpt><trkpt lat="44.592194971372585" lon="10.055230420318031"><ele>909.0</ele><time>2026-04-19T08:04:55.999Z</time></trkpt><trkpt lat="44.59201616139716" lon="10.055263339641444"><ele>910.3333333333333</ele><time>2026-04-19T08:04:56.999Z</time></trkpt><trkpt lat="44.5918239849713" lon="10.055320360518852"><ele>911.6666666666666</ele><time>2026-04-19T08:04:57.999Z</time></trkpt><trkpt lat="44.59164026428684" lon="10.05537850361161"><ele>913.0</ele><time>2026-04-19T08:04:58.999Z</time></trkpt><trkpt lat="44.59147333283612" lon="10.055403597297762"><ele>913.0</ele><time>2026-04-19T08:04:59.999Z</time></trkpt><trkpt lat="44.591331948014655" lon="10.055385777228473"><ele>913.0</ele><time>2026-04-19T08:05:00.999Z</time></trkpt><trkpt lat="44.591197668447805" lon="10.05528860052902"><ele>913.0</ele><time>2026-04-19T08:05:01.999Z</time></trkpt><trkpt lat="44.59109374429606" lon="10.055091493580864"><ele>914.3333333333333</ele><time>2026-04-19T08:05:02.999Z</time></trkpt><trkpt lat="44.59102280548544" lon="10.054831294859959"><ele>915.6666666666667</ele><time>2026-04-19T08:05:03.999Z</time></trkpt><trkpt lat="44.59096551597445" lon="10.054567787722242"><ele>917.0</ele><time>2026-04-19T08:05:04.999Z</time></trkpt><trkpt lat="44.59088059914515" lon="10.054374189548492"><ele>917.0</ele><time>2026-04-19T08:05:05.999Z</time></trkpt><trkpt lat="44.59074444751947" lon="10.054266385908203"><ele>917.0</ele><time>2026-04-19T08:05:06.999Z</time></trkpt><trkpt lat="44.59055303108212" lon="10.054260769369755"><ele>917.0</ele><time>2026-04-19T08:05:07.999Z</time></trkpt><trkpt lat="44.590363563514984" lon="10.054246471901635"><ele>919.0</ele><time>2026-04-19T08:05:08.999Z</time></trkpt><trkpt lat="44.59020059698009" lon="10.054111122209864"><ele>921.0</ele><time>2026-04-19T08:05:09.999Z</time></trkpt><trkpt lat="44.59002318500435" lon="10.053871275592517"><ele>923.0</ele><time>2026-04-19T08:05:10.999Z</time></trkpt><trkpt lat="44.5898428271927" lon="10.05365957495418"><ele>923.0</ele><time>2026-04-19T08:05:11.999Z</time></trkpt><trkpt lat="44.58967606893772" lon="10.053517159882905"><ele>923.0</ele><time>2026-04-19T08:05:12.999Z</time></trkpt><trkpt lat="44.58955846506068" lon="10.053377500649626"><ele>923.0</ele><time>2026-04-19T08:05:13.999Z</time></trkpt><trkpt lat="44.58948368905091" lon="10.053144248370407"><ele>910.0</ele><time>2026-04-19T08:05:15Z</time></trkpt><trkpt lat="44.58946324041667" lon="10.0528394423779"><ele>897.0</ele><time>2026-04-19T08:05:16Z</time></trkpt><trkpt lat="44.58942434506941" lon="10.052510621171827"><ele>896.0</ele><time>2026-04-19T08:05:17Z</time></trkpt><trkpt lat="44.58937488415532" lon="10.052211390961746"><ele>895.0</ele><time>2026-04-19T08:05:18Z</time></trkpt><trkpt lat="44.5895100922705" lon="10.05187202968218"><ele>908.3333333333333</ele><time>2026-04-19T08:05:19Z</time></trkpt><trkpt lat="44.58953021995242" lon="10.05156500069617"><ele>921.6666666666667</ele><time>2026-04-19T08:05:20Z</time></trkpt><trkpt lat="44.589547293583614" lon="10.051285782992515"><ele>935.0</ele><time>2026-04-19T08:05:21Z</time></trkpt><trkpt lat="44.58953861153303" lon="10.051010194447292"><ele>928.0</ele><time>2026-04-19T08:05:22Z</time></trkpt><trkpt lat="44.58950392629808" lon="10.050733020758635"><ele>921.0</ele><time>2026-04-19T08:05:23Z</time></trkpt><trkpt lat="44.58944478417578" lon="10.050470433487506"><ele>914.0</ele><time>2026-04-19T08:05:24Z</time></trkpt><trkpt lat="44.58935970926197" lon="10.050211534495096"><ele>914.0</ele><time>2026-04-19T08:05:25Z</time></trkpt><trkpt lat="44.58924109147005" lon="10.049964821144057"><ele>914.0</ele><time>2026-04-19T08:05:26Z</time></trkpt><trkpt lat="44.589072133590136" lon="10.049723569925519"><ele>911.5</ele><time>2026-04-19T08:05:27Z</time></trkpt><trkpt lat="44.58887766541497" lon="10.049488712520796"><ele>909.0</ele><time>2026-04-19T08:05:28Z</time></trkpt><trkpt lat="44.58866972909814" lon="10.049271739109102"><ele>911.0</ele><time>2026-04-19T08:05:29Z</time></trkpt><trkpt lat="44.588467766349616" lon="10.04910531814325"><ele>913.0</ele><time>2026-04-19T08:05:30Z</time></trkpt><trkpt lat="44.58825723446662" lon="10.048997545369474"><ele>913.0</ele><time>2026-04-19T08:05:31Z</time></trkpt><trkpt lat="44.58802008981575" lon="10.048960852199015"><ele>913.0</ele><time>2026-04-19T08:05:32Z</time></trkpt><trkpt lat="44.58779526432662" lon="10.048969056881946"><ele>907.25</ele><time>2026-04-19T08:05:33Z</time></trkpt><trkpt lat="44.58762979228981" lon="10.048973140203444"><ele>901.5</ele><time>2026-04-19T08:05:34Z</time></trkpt><trkpt lat="44.587519717167716" lon="10.04895133101712"><ele>895.75</ele><time>2026-04-19T08:05:35Z</time></trkpt><trkpt lat="44.587441901850404" lon="10.048861826650649"><ele>890.0</ele><time>2026-04-19T08:05:36Z</time></trkpt><trkpt lat="44.587422034733116" lon="10.048686801124132"><ele>890.0</ele><time>2026-04-19T08:05:37Z</time></trkpt><trkpt lat="44.587488766764196" lon="10.048479094855251"><ele>890.0</ele><time>2026-04-19T08:05:38Z</time></trkpt><trkpt lat="44.58761325806825" lon="10.048257545643065"><ele>890.0</ele><time>2026-04-19T08:05:39Z</time></trkpt><trkpt lat="44.58772697831145" lon="10.048019038032663"><ele>891.5</ele><time>2026-04-19T08:05:40Z</time></trkpt><trkpt lat="44.58780236045029" lon="10.047810535541256"><ele>893.0</ele><time>2026-04-19T08:05:41Z</time></trkpt><trkpt lat="44.587821095769485" lon="10.047625702250643"><ele>894.5</ele><time>2026-04-19T08:05:42Z</time></trkpt><trkpt lat="44.58776571506845" lon="10.047469712160533"><ele>896.0</ele><time>2026-04-19T08:05:43Z</time></trkpt><trkpt lat="44.58763304762867" lon="10.047346329913598"><ele>894.6666666666667</ele><time>2026-04-19T08:05:44Z</time></trkpt><trkpt lat="44.587448867437494" lon="10.047297722076987"><ele>893.3333333333333</ele><time>2026-04-19T08:05:45Z</time></trkpt><trkpt lat="44.5872305175804" lon="10.047311937465095"><ele>892.0</ele><time>2026-04-19T08:05:46Z</time></trkpt><trkpt lat="44.58700150226586" lon="10.047307435134346"><ele>892.0</ele><time>2026-04-19T08:05:47Z</time></trkpt><trkpt lat="44.5867784529384" lon="10.047290033683282"><ele>892.0</ele><time>2026-04-19T08:05:48Z</time></trkpt><trkpt lat="44.58657088593822" lon="10.047278525587993"><ele>892.0</ele><time>2026-04-19T08:05:49Z</time></trkpt><trkpt lat="44.58640522369989" lon="10.047265912544631"><ele>892.0</ele><time>2026-04-19T08:05:50Z</time></trkpt><trkpt lat="44.586276513408116" lon="10.047246610603867"><ele>892.0</ele><time>2026-04-19T08:05:51Z</time></trkpt><trkpt lat="44.58618055694651" lon="10.047177329435854"><ele>892.0</ele><time>2026-04-19T08:05:52Z</time></trkpt><trkpt lat="44.58613219060169" lon="10.047016407489869"><ele>892.0</ele><time>2026-04-19T08:05:53Z</time></trkpt><trkpt lat="44.586147843964206" lon="10.046783783378846"><ele>890.0</ele><time>2026-04-19T08:05:54Z</time></trkpt><trkpt lat="44.58619715745072" lon="10.046508251597844"><ele>888.0</ele><time>2026-04-19T08:05:55Z</time></trkpt><trkpt lat="44.58627456316529" lon="10.046219331041527"><ele>886.0</ele><time>2026-04-19T08:05:56Z</time></trkpt><trkpt lat="44.58635813875835" lon="10.045940960559417"><ele>880.6666666666666</ele><time>2026-04-19T08:05:57Z</time></trkpt><trkpt lat="44.58644915378007" lon="10.04567261958587"><ele>875.3333333333333</ele><time>2026-04-19T08:05:58Z</time></trkpt><trkpt lat="44.5865708721231" lon="10.045442598500589"><ele>870.0</ele><time>2026-04-19T08:05:59Z</time></trkpt><trkpt lat="44.58670172291191" lon="10.045254219036455"><ele>870.0</ele><time>2026-04-19T08:06:00Z</time></trkpt><trkpt lat="44.58679911802065" lon="10.045020686457091"><ele>870.0</ele><time>2026-04-19T08:06:01Z</time></trkpt><trkpt lat="44.586857370771526" lon="10.044711768534125"><ele>870.0</ele><time>2026-04-19T08:06:02Z</time></trkpt><trkpt lat="44.58690607325259" lon="10.044371522204228"><ele>860.5</ele><time>2026-04-19T08:06:03Z</time></trkpt><trkpt lat="44.58695900087995" lon="10.044064124937186"><ele>851.0</ele><time>2026-04-19T08:06:04Z</time></trkpt><trkpt lat="44.586982743125304" lon="10.043740574009332"><ele>851.0</ele><time>2026-04-19T08:06:05Z</time></trkpt><trkpt lat="44.58696786641626" lon="10.043433248189599"><ele>851.0</ele><time>2026-04-19T08:06:06Z</time></trkpt><trkpt lat="44.58697982580563" lon="10.043155650260246"><ele>851.0</ele><time>2026-04-19T08:06:07Z</time></trkpt><trkpt lat="44.58703563500707" lon="10.042924234117413"><ele>854.6666666666667</ele><time>2026-04-19T08:06:08Z</time></trkpt><trkpt lat="44.58706547559691" lon="10.042711228111143"><ele>858.3333333333333</ele><time>2026-04-19T08:06:09Z</time></trkpt><trkpt lat="44.58702403873666" lon="10.04246676221487"><ele>862.0</ele><time>2026-04-19T08:06:10Z</time></trkpt><trkpt lat="44.58690701778348" lon="10.042224094673657"><ele>862.0</ele><time>2026-04-19T08:06:11Z</time></trkpt><trkpt lat="44.58677842230457" lon="10.041972753184229"><ele>862.0</ele><time>2026-04-19T08:06:12Z</time></trkpt><trkpt lat="44.58667976119421" lon="10.041695277397608"><ele>862.0</ele><time>2026-04-19T08:06:13Z</time></trkpt><trkpt lat="44.5866230679187" lon="10.041425535116199"><ele>860.6666666666666</ele><time>2026-04-19T08:06:14Z</time></trkpt><trkpt lat="44.58661898743243" lon="10.041144973692049"><ele>859.3333333333333</ele><time>2026-04-19T08:06:15Z</time></trkpt><trkpt lat="44.586665882469255" lon="10.040836858446356"><ele>858.0</ele><time>2026-04-19T08:06:16Z</time></trkpt><trkpt lat="44.58671215848408" lon="10.040525815032659"><ele>853.0</ele><time>2026-04-19T08:06:17Z</time></trkpt><trkpt lat="44.586751845127125" lon="10.040250971390414"><ele>848.0</ele><time>2026-04-19T08:06:18Z</time></trkpt><trkpt lat="44.58681459221355" lon="10.03999878860251"><ele>843.0</ele><time>2026-04-19T08:06:19Z</time></trkpt><trkpt lat="44.586943890801045" lon="10.039773294283876"><ele>846.6666666666667</ele><time>2026-04-19T08:06:20Z</time></trkpt><trkpt lat="44.58711801782741" lon="10.039580874654643"><ele>850.3333333333334</ele><time>2026-04-19T08:06:21Z</time></trkpt><trkpt lat="44.58725902598547" lon="10.0394193545987"><ele>854.0</ele><time>2026-04-19T08:06:22Z</time></trkpt><trkpt lat="44.587364078713385" lon="10.03927060964456"><ele>850.0</ele><time>2026-04-19T08:06:23Z</time></trkpt><trkpt lat="44.58745500796407" lon="10.039122228197224"><ele>846.0</ele><time>2026-04-19T08:06:24Z</time></trkpt><trkpt lat="44.5875266720989" lon="10.038954048161298"><ele>842.0</ele><time>2026-04-19T08:06:24.999Z</time></trkpt><trkpt lat="44.587564391335626" lon="10.03874500844923"><ele>838.0</ele><time>2026-04-19T08:06:25.999Z</time></trkpt><trkpt lat="44.58758967487258" lon="10.038517634694228"><ele>835.0</ele><time>2026-04-19T08:06:26.999Z</time></trkpt><trkpt lat="44.58761891632887" lon="10.038287307021278"><ele>832.0</ele><time>2026-04-19T08:06:27.999Z</time></trkpt><trkpt lat="44.5876525458378" lon="10.038063509584894"><ele>829.0</ele><time>2026-04-19T08:06:28.999Z</time></trkpt><trkpt lat="44.587685332257735" lon="10.037846765069501"><ele>829.0</ele><time>2026-04-19T08:06:29.999Z</time></trkpt><trkpt lat="44.587714783275175" lon="10.037633900404673"><ele>829.0</ele><time>2026-04-19T08:06:30.999Z</time></trkpt><trkpt lat="44.58774425282309" lon="10.037430516558647"><ele>829.0</ele><time>2026-04-19T08:06:31.999Z</time></trkpt><trkpt lat="44.5877722614896" lon="10.037245194366779"><ele>829.0</ele><time>2026-04-19T08:06:32.999Z</time></trkpt><trkpt lat="44.58779753109759" lon="10.037065102210601"><ele>828.25</ele><time>2026-04-19T08:06:33.999Z</time></trkpt><trkpt lat="44.58781700633131" lon="10.036894064077744"><ele>827.5</ele><time>2026-04-19T08:06:34.999Z</time></trkpt><trkpt lat="44.587826857397445" lon="10.036729675030436"><ele>826.75</ele><time>2026-04-19T08:06:35.999Z</time></trkpt><trkpt lat="44.5878127685284" lon="10.036562331049568"><ele>826.0</ele><time>2026-04-19T08:06:36.999Z</time></trkpt><trkpt lat="44.58772988756766" lon="10.036404204492147"><ele>825.25</ele><time>2026-04-19T08:06:37.999Z</time></trkpt><trkpt lat="44.58765180675289" lon="10.036250092232061"><ele>824.5</ele><time>2026-04-19T08:06:38.999Z</time></trkpt><trkpt lat="44.58758299163233" lon="10.036092684207317"><ele>823.75</ele><time>2026-04-19T08:06:39.999Z</time></trkpt><trkpt lat="44.5875480348049" lon="10.035912432732342"><ele>823.0</ele><time>2026-04-19T08:06:40.999Z</time></trkpt><trkpt lat="44.587545190386" lon="10.035745632607263"><ele>822.0</ele><time>2026-04-19T08:06:41.999Z</time></trkpt><trkpt lat="44.58757312653052" lon="10.03558311010961"><ele>821.0</ele><time>2026-04-19T08:06:42.999Z</time></trkpt><trkpt lat="44.587612579381464" lon="10.035430274762671"><ele>820.0</ele><time>2026-04-19T08:06:43.999Z</time></trkpt><trkpt lat="44.58764101560529" lon="10.035282321484631"><ele>819.0</ele><time>2026-04-19T08:06:44.999Z</time></trkpt><trkpt lat="44.58763035645802" lon="10.03513932789614"><ele>818.0</ele><time>2026-04-19T08:06:45.999Z</time></trkpt><trkpt lat="44.587591009443145" lon="10.035004146407571"><ele>816.8</ele><time>2026-04-19T08:06:46.999Z</time></trkpt><trkpt lat="44.58751638579807" lon="10.03489472696848"><ele>815.5999999999999</ele><time>2026-04-19T08:06:47.999Z</time></trkpt><trkpt lat="44.58740922737527" lon="10.034818840944878"><ele>814.4000000000001</ele><time>2026-04-19T08:06:48.999Z</time></trkpt><trkpt lat="44.58730528968643" lon="10.034780950564711"><ele>813.2</ele><time>2026-04-19T08:06:49.999Z</time></trkpt><trkpt lat="44.58721366548406" lon="10.034765074460909"><ele>812.0</ele><time>2026-04-19T08:06:50.999Z</time></trkpt><trkpt lat="44.58711541994045" lon="10.034744782477171"><ele>812.0</ele><time>2026-04-19T08:06:51.999Z</time></trkpt><trkpt lat="44.58701315236521" lon="10.034714715811516"><ele>812.0</ele><time>2026-04-19T08:06:52.999Z</time></trkpt><trkpt lat="44.58690498207524" lon="10.034671886926843"><ele>812.0</ele><time>2026-04-19T08:06:53.999Z</time></trkpt><trkpt lat="44.58680611088177" lon="10.034634755398992"><ele>812.0</ele><time>2026-04-19T08:06:54.999Z</time></trkpt><trkpt lat="44.5866933723459" lon="10.034615654400355"><ele>812.0</ele><time>2026-04-19T08:06:55.999Z</time></trkpt><trkpt lat="44.58658956283484" lon="10.034572962598158"><ele>810.0</ele><time>2026-04-19T08:06:56.999Z</time></trkpt><trkpt lat="44.58647393511691" lon="10.034530493242592"><ele>808.0</ele><time>2026-04-19T08:06:57.999Z</time></trkpt><trkpt lat="44.58635352528623" lon="10.034486995169072"><ele>806.0</ele><time>2026-04-19T08:06:58.999Z</time></trkpt><trkpt lat="44.58623647184163" lon="10.034441832436851"><ele>804.0</ele><time>2026-04-19T08:06:59.999Z</time></trkpt><trkpt lat="44.58612533925411" lon="10.034401727581388"><ele>803.4000000000001</ele><time>2026-04-19T08:07:00.999Z</time></trkpt><trkpt lat="44.58602200615278" lon="10.034368152947565"><ele>802.8</ele><time>2026-04-19T08:07:01.999Z</time></trkpt><trkpt lat="44.585918556319655" lon="10.034332566353779"><ele>802.2</ele><time>2026-04-19T08:07:02.999Z</time></trkpt><trkpt lat="44.58581240981771" lon="10.034294554335581"><ele>801.5999999999999</ele><time>2026-04-19T08:07:03.999Z</time></trkpt><trkpt lat="44.58569659749036" lon="10.034258757837593"><ele>801.0</ele><time>2026-04-19T08:07:04.999Z</time></trkpt><trkpt lat="44.58557460887393" lon="10.03421627102354"><ele>801.0</ele><time>2026-04-19T08:07:05.999Z</time></trkpt><trkpt lat="44.585451107919305" lon="10.034162981026759"><ele>801.0</ele><time>2026-04-19T08:07:06.999Z</time></trkpt><trkpt lat="44.58533346900436" lon="10.034094152040153"><ele>801.0</ele><time>2026-04-19T08:07:07.999Z</time></trkpt><trkpt lat="44.58521697157635" lon="10.03399015930594"><ele>801.0</ele><time>2026-04-19T08:07:08.999Z</time></trkpt><trkpt lat="44.58510935971061" lon="10.033869632924764"><ele>800.0</ele><time>2026-04-19T08:07:09.999Z</time></trkpt><trkpt lat="44.58501001249771" lon="10.033746007239971"><ele>799.0</ele><time>2026-04-19T08:07:10.999Z</time></trkpt><trkpt lat="44.584916512238784" lon="10.03360915641153"><ele>798.0</ele><time>2026-04-19T08:07:11.999Z</time></trkpt><trkpt lat="44.58482598854113" lon="10.033472584583667"><ele>797.0</ele><time>2026-04-19T08:07:12.999Z</time></trkpt><trkpt lat="44.584740748139545" lon="10.033330841275685"><ele>795.25</ele><time>2026-04-19T08:07:13.999Z</time></trkpt><trkpt lat="44.58464385442969" lon="10.033192954405232"><ele>793.5</ele><time>2026-04-19T08:07:14.999Z</time></trkpt><trkpt lat="44.584537153480404" lon="10.033050452981549"><ele>791.75</ele><time>2026-04-19T08:07:15.999Z</time></trkpt><trkpt lat="44.58441657006973" lon="10.032897822632238"><ele>790.0</ele><time>2026-04-19T08:07:16.999Z</time></trkpt><trkpt lat="44.58427049605264" lon="10.03273598304545"><ele>790.0</ele><time>2026-04-19T08:07:17.999Z</time></trkpt><trkpt lat="44.58410328150175" lon="10.032562698584869"><ele>790.0</ele><time>2026-04-19T08:07:18.999Z</time></trkpt><trkpt lat="44.58393156739374" lon="10.032400149042"><ele>790.0</ele><time>2026-04-19T08:07:19.999Z</time></trkpt><trkpt lat="44.58374311364022" lon="10.03226400719348"><ele>785.0</ele><time>2026-04-19T08:07:21Z</time></trkpt><trkpt lat="44.58352593039807" lon="10.03218707557411"><ele>780.0</ele><time>2026-04-19T08:07:22Z</time></trkpt><trkpt lat="44.58331109230582" lon="10.032146092625869"><ele>775.0</ele><time>2026-04-19T08:07:23Z</time></trkpt><trkpt lat="44.583097722902814" lon="10.032095456351792"><ele>775.0</ele><time>2026-04-19T08:07:24Z</time></trkpt><trkpt lat="44.582910499367685" lon="10.031996337255004"><ele>775.0</ele><time>2026-04-19T08:07:25Z</time></trkpt><trkpt lat="44.582722228892564" lon="10.031854241290167"><ele>775.0</ele><time>2026-04-19T08:07:26Z</time></trkpt><trkpt lat="44.582540071274956" lon="10.031660542047865"><ele>770.0</ele><time>2026-04-19T08:07:27Z</time></trkpt><trkpt lat="44.58236496727027" lon="10.031425421545391"><ele>765.0</ele><time>2026-04-19T08:07:28Z</time></trkpt><trkpt lat="44.582191655986485" lon="10.03119361045761"><ele>765.0</ele><time>2026-04-19T08:07:29Z</time></trkpt><trkpt lat="44.582031031092306" lon="10.03099337021667"><ele>765.0</ele><time>2026-04-19T08:07:30Z</time></trkpt><trkpt lat="44.58187499510763" lon="10.03080843375623"><ele>765.0</ele><time>2026-04-19T08:07:31Z</time></trkpt><trkpt lat="44.58172479704619" lon="10.030638138360247"><ele>766.3333333333333</ele><time>2026-04-19T08:07:32Z</time></trkpt><trkpt lat="44.58155258400521" lon="10.030493285740533"><ele>767.6666666666666</ele><time>2026-04-19T08:07:33Z</time></trkpt><trkpt lat="44.581342526696424" lon="10.0304047286973"><ele>769.0</ele><time>2026-04-19T08:07:34Z</time></trkpt><trkpt lat="44.58110297382074" lon="10.030374094728222"><ele>771.0</ele><time>2026-04-19T08:07:35Z</time></trkpt><trkpt lat="44.5808628471479" lon="10.030344468011386"><ele>773.0</ele><time>2026-04-19T08:07:36Z</time></trkpt><trkpt lat="44.58063802202394" lon="10.0302795092192"><ele>773.0</ele><time>2026-04-19T08:07:37Z</time></trkpt><trkpt lat="44.58043702336764" lon="10.030197278046826"><ele>773.0</ele><time>2026-04-19T08:07:38Z</time></trkpt><trkpt lat="44.58023674551576" lon="10.030139121309455"><ele>773.0</ele><time>2026-04-19T08:07:39Z</time></trkpt><trkpt lat="44.58001457109306" lon="10.030136619348415"><ele>772.0</ele><time>2026-04-19T08:07:40Z</time></trkpt><trkpt lat="44.579793521611705" lon="10.030178886159876"><ele>771.0</ele><time>2026-04-19T08:07:41Z</time></trkpt><trkpt lat="44.5795755805303" lon="10.030261990764147"><ele>770.0</ele><time>2026-04-19T08:07:42Z</time></trkpt><trkpt lat="44.579376667576994" lon="10.030376687449822"><ele>770.0</ele><time>2026-04-19T08:07:43Z</time></trkpt><trkpt lat="44.579203557234976" lon="10.030507676932153"><ele>770.0</ele><time>2026-04-19T08:07:44Z</time></trkpt><trkpt lat="44.5790489431644" lon="10.030608844682165"><ele>770.0</ele><time>2026-04-19T08:07:45Z</time></trkpt><trkpt lat="44.57889038750084" lon="10.030657453177101"><ele>770.0</ele><time>2026-04-19T08:07:46Z</time></trkpt><trkpt lat="44.57871968965401" lon="10.030626560794852"><ele>770.0</ele><time>2026-04-19T08:07:47Z</time></trkpt><trkpt lat="44.578541509404666" lon="10.030494829135108"><ele>770.0</ele><time>2026-04-19T08:07:48Z</time></trkpt><trkpt lat="44.57836606280899" lon="10.030328447118203"><ele>768.0</ele><time>2026-04-19T08:07:49Z</time></trkpt><trkpt lat="44.57822482845711" lon="10.030151372128216"><ele>766.0</ele><time>2026-04-19T08:07:50Z</time></trkpt><trkpt lat="44.5781306576422" lon="10.029957378915832"><ele>764.0</ele><time>2026-04-19T08:07:51Z</time></trkpt><trkpt lat="44.578068557500124" lon="10.029730047797674"><ele>764.0</ele><time>2026-04-19T08:07:52Z</time></trkpt><trkpt lat="44.5780286708846" lon="10.029472344198968"><ele>764.0</ele><time>2026-04-19T08:07:53Z</time></trkpt><trkpt lat="44.57802767236807" lon="10.029213681415586"><ele>764.0</ele><time>2026-04-19T08:07:54Z</time></trkpt><trkpt lat="44.577992686116566" lon="10.028988777011662"><ele>762.3333333333333</ele><time>2026-04-19T08:07:55Z</time></trkpt><trkpt lat="44.57788880387352" lon="10.02878189250114"><ele>760.6666666666666</ele><time>2026-04-19T08:07:56Z</time></trkpt><trkpt lat="44.57772674771524" lon="10.028610813695456"><ele>759.0</ele><time>2026-04-19T08:07:57Z</time></trkpt><trkpt lat="44.57755812724568" lon="10.028454637453404"><ele>754.0</ele><time>2026-04-19T08:07:58Z</time></trkpt><trkpt lat="44.577429949968966" lon="10.028263703396393"><ele>749.0</ele><time>2026-04-19T08:07:59Z</time></trkpt><trkpt lat="44.57735730782895" lon="10.028001913461347"><ele>744.0</ele><time>2026-04-19T08:08:00Z</time></trkpt><trkpt lat="44.57731267241339" lon="10.02767943314563"><ele>737.0</ele><time>2026-04-19T08:08:01Z</time></trkpt><trkpt lat="44.57723638974652" lon="10.027388572623295"><ele>730.0</ele><time>2026-04-19T08:08:02Z</time></trkpt><trkpt lat="44.57711033390763" lon="10.027111734664162"><ele>731.6666666666667</ele><time>2026-04-19T08:08:03Z</time></trkpt><trkpt lat="44.576998967411676" lon="10.026849689661988"><ele>733.3333333333334</ele><time>2026-04-19T08:08:04Z</time></trkpt><trkpt lat="44.57691982186742" lon="10.026556222764546"><ele>735.0</ele><time>2026-04-19T08:08:05Z</time></trkpt><trkpt lat="44.57685954154938" lon="10.02628497630382"><ele>736.6666666666666</ele><time>2026-04-19T08:08:06Z</time></trkpt><trkpt lat="44.57674743021476" lon="10.02606880021315"><ele>738.3333333333333</ele><time>2026-04-19T08:08:07Z</time></trkpt><trkpt lat="44.57655772330726" lon="10.025873310611948"><ele>740.0</ele><time>2026-04-19T08:08:08Z</time></trkpt><trkpt lat="44.57633691029504" lon="10.025689955173327"><ele>737.0</ele><time>2026-04-19T08:08:09Z</time></trkpt><trkpt lat="44.576140575997826" lon="10.025483571979537"><ele>734.0</ele><time>2026-04-19T08:08:10Z</time></trkpt><trkpt lat="44.575906837114246" lon="10.025259318368615"><ele>734.0</ele><time>2026-04-19T08:08:11Z</time></trkpt><trkpt lat="44.57571106239017" lon="10.025042424519206"><ele>734.0</ele><time>2026-04-19T08:08:12Z</time></trkpt><trkpt lat="44.575531432106494" lon="10.024856669844336"><ele>732.5</ele><time>2026-04-19T08:08:13Z</time></trkpt><trkpt lat="44.57532981598172" lon="10.02470958516463"><ele>731.0</ele><time>2026-04-19T08:08:14Z</time></trkpt><trkpt lat="44.5750984610383" lon="10.024607977619832"><ele>731.0</ele><time>2026-04-19T08:08:15Z</time></trkpt><trkpt lat="44.57484168408207" lon="10.024543043929484"><ele>731.0</ele><time>2026-04-19T08:08:16Z</time></trkpt><trkpt lat="44.574602805541765" lon="10.024467576514986"><ele>733.0</ele><time>2026-04-19T08:08:17Z</time></trkpt><trkpt lat="44.574389208067714" lon="10.0243810096264"><ele>735.0</ele><time>2026-04-19T08:08:18Z</time></trkpt><trkpt lat="44.57419409779304" lon="10.024307053794884"><ele>737.0</ele><time>2026-04-19T08:08:19Z</time></trkpt><trkpt lat="44.57399756826932" lon="10.024233590282352"><ele>737.0</ele><time>2026-04-19T08:08:20Z</time></trkpt><trkpt lat="44.57380900907586" lon="10.02415869524432"><ele>737.0</ele><time>2026-04-19T08:08:21Z</time></trkpt><trkpt lat="44.57363136357546" lon="10.024086173203706"><ele>737.0</ele><time>2026-04-19T08:08:22Z</time></trkpt><trkpt lat="44.57347164413332" lon="10.024008362446146"><ele>737.0</ele><time>2026-04-19T08:08:23Z</time></trkpt><trkpt lat="44.573331461230254" lon="10.023886829861466"><ele>737.0</ele><time>2026-04-19T08:08:24Z</time></trkpt><trkpt lat="44.57320934891943" lon="10.023719524989042"><ele>737.0</ele><time>2026-04-19T08:08:25Z</time></trkpt><trkpt lat="44.573101874950524" lon="10.0235062909618"><ele>735.6666666666666</ele><time>2026-04-19T08:08:26Z</time></trkpt><trkpt lat="44.57300214532447" lon="10.023249622621615"><ele>734.3333333333334</ele><time>2026-04-19T08:08:27Z</time></trkpt><trkpt lat="44.572918877643154" lon="10.02298148685164"><ele>733.0</ele><time>2026-04-19T08:08:28Z</time></trkpt><trkpt lat="44.57282843360721" lon="10.022757880783548"><ele>735.6666666666667</ele><time>2026-04-19T08:08:29Z</time></trkpt><trkpt lat="44.57271975833914" lon="10.022553849926544"><ele>738.3333333333334</ele><time>2026-04-19T08:08:30Z</time></trkpt><trkpt lat="44.57259805435765" lon="10.022368494050456"><ele>741.0</ele><time>2026-04-19T08:08:31Z</time></trkpt><trkpt lat="44.57244833134208" lon="10.022204281625001"><ele>741.0</ele><time>2026-04-19T08:08:32Z</time></trkpt><trkpt lat="44.57225535788288" lon="10.022080510225338"><ele>741.0</ele><time>2026-04-19T08:08:33Z</time></trkpt><trkpt lat="44.57203108390117" lon="10.021989358001479"><ele>741.0</ele><time>2026-04-19T08:08:34Z</time></trkpt><trkpt lat="44.57179908192133" lon="10.02188895852322"><ele>741.0</ele><time>2026-04-19T08:08:35Z</time></trkpt><trkpt lat="44.57158100085473" lon="10.021781758913379"><ele>741.0</ele><time>2026-04-19T08:08:36Z</time></trkpt><trkpt lat="44.57138587173102" lon="10.021681919391101"><ele>741.0</ele><time>2026-04-19T08:08:37Z</time></trkpt><trkpt lat="44.571211568601335" lon="10.021558881680148"><ele>737.0</ele><time>2026-04-19T08:08:37.999Z</time></trkpt><trkpt lat="44.57104610993088" lon="10.021413329824952"><ele>733.0</ele><time>2026-04-19T08:08:38.999Z</time></trkpt><trkpt lat="44.57088942009834" lon="10.021210031257368"><ele>729.0</ele><time>2026-04-19T08:08:39.999Z</time></trkpt><trkpt lat="44.570729120678614" lon="10.02100147105219"><ele>725.6666666666666</ele><time>2026-04-19T08:08:40.999Z</time></trkpt><trkpt lat="44.5705890031097" lon="10.020782403202805"><ele>722.3333333333333</ele><time>2026-04-19T08:08:41.999Z</time></trkpt><trkpt lat="44.570454051179745" lon="10.020598868746953"><ele>719.0</ele><time>2026-04-19T08:08:42.999Z</time></trkpt><trkpt lat="44.57032483642417" lon="10.020454074194577"><ele>718.6666666666666</ele><time>2026-04-19T08:08:43.999Z</time></trkpt><trkpt lat="44.570167311434325" lon="10.020392397099588"><ele>718.3333333333334</ele><time>2026-04-19T08:08:44.999Z</time></trkpt><trkpt lat="44.569972788923565" lon="10.020408346764256"><ele>718.0</ele><time>2026-04-19T08:08:45.999Z</time></trkpt><trkpt lat="44.56974208227812" lon="10.020453243602764"><ele>715.6666666666667</ele><time>2026-04-19T08:08:46.999Z</time></trkpt><trkpt lat="44.56951803646926" lon="10.020465404237456"><ele>713.3333333333334</ele><time>2026-04-19T08:08:47.999Z</time></trkpt><trkpt lat="44.569306122406076" lon="10.020419736413581"><ele>711.0</ele><time>2026-04-19T08:08:48.999Z</time></trkpt><trkpt lat="44.569115673034595" lon="10.020276747303893"><ele>711.0</ele><time>2026-04-19T08:08:49.999Z</time></trkpt><trkpt lat="44.568949320669425" lon="10.020125817373927"><ele>711.0</ele><time>2026-04-19T08:08:50.999Z</time></trkpt><trkpt lat="44.56880197355515" lon="10.019992360581474"><ele>711.0</ele><time>2026-04-19T08:08:51.999Z</time></trkpt><trkpt lat="44.56868804134237" lon="10.019889843564801"><ele>706.0</ele><time>2026-04-19T08:08:52.999Z</time></trkpt><trkpt lat="44.56828915884346" lon="10.019536256620208"><ele>706.0</ele><time>2026-04-19T08:08:53.999Z</time></trkpt><trkpt lat="44.56806691762402" lon="10.019360900190186"><ele>706.0</ele><time>2026-04-19T08:08:54.999Z</time></trkpt><trkpt lat="44.56785698030043" lon="10.019174823999139"><ele>709.5</ele><time>2026-04-19T08:08:55.999Z</time></trkpt><trkpt lat="44.56764850218527" lon="10.018996176225516"><ele>713.0</ele><time>2026-04-19T08:08:56.999Z</time></trkpt><trkpt lat="44.56745402833902" lon="10.018826071440493"><ele>713.0</ele><time>2026-04-19T08:08:57.999Z</time></trkpt><trkpt lat="44.56726338474678" lon="10.01865836836766"><ele>713.0</ele><time>2026-04-19T08:08:58.999Z</time></trkpt><trkpt lat="44.5670740362575" lon="10.018487688327241"><ele>711.6666666666666</ele><time>2026-04-19T08:08:59.999Z</time></trkpt><trkpt lat="44.56688734076983" lon="10.01832785032715"><ele>710.3333333333334</ele><time>2026-04-19T08:09:00.999Z</time></trkpt><trkpt lat="44.56670848676049" lon="10.018166925904188"><ele>709.0</ele><time>2026-04-19T08:09:01.999Z</time></trkpt><trkpt lat="44.566536922723785" lon="10.018006367544135"><ele>709.0</ele><time>2026-04-19T08:09:02.999Z</time></trkpt><trkpt lat="44.566374937207854" lon="10.01784881977775"><ele>709.0</ele><time>2026-04-19T08:09:03.999Z</time></trkpt><trkpt lat="44.566184651401294" lon="10.01771887269804"><ele>709.0</ele><time>2026-04-19T08:09:04.999Z</time></trkpt><trkpt lat="44.5659664974542" lon="10.017640896590855"><ele>709.5</ele><time>2026-04-19T08:09:05.999Z</time></trkpt><trkpt lat="44.56573255889746" lon="10.017610852233267"><ele>710.0</ele><time>2026-04-19T08:09:06.999Z</time></trkpt><trkpt lat="44.565495218094426" lon="10.017598086029926"><ele>709.0</ele><time>2026-04-19T08:09:07.999Z</time></trkpt><trkpt lat="44.56526858662836" lon="10.017551423474202"><ele>708.0</ele><time>2026-04-19T08:09:08.999Z</time></trkpt><trkpt lat="44.56507906651998" lon="10.017428124010113"><ele>707.0</ele><time>2026-04-19T08:09:09.999Z</time></trkpt><trkpt lat="44.5649140340217" lon="10.017274197287595"><ele>707.0</ele><time>2026-04-19T08:09:10.999Z</time></trkpt><trkpt lat="44.56474140921077" lon="10.01715644030247"><ele>707.0</ele><time>2026-04-19T08:09:11.999Z</time></trkpt><trkpt lat="44.564590715809985" lon="10.01703776908631"><ele>707.0</ele><time>2026-04-19T08:09:12.999Z</time></trkpt><trkpt lat="44.56442189251151" lon="10.016999295328338"><ele>708.6666666666666</ele><time>2026-04-19T08:09:13.999Z</time></trkpt><trkpt lat="44.5642268327931" lon="10.017028264145653"><ele>710.3333333333334</ele><time>2026-04-19T08:09:14.999Z</time></trkpt><trkpt lat="44.56404825027213" lon="10.01699084603451"><ele>712.0</ele><time>2026-04-19T08:09:15.999Z</time></trkpt><trkpt lat="44.563884554285394" lon="10.016859259670863"><ele>712.0</ele><time>2026-04-19T08:09:16.999Z</time></trkpt><trkpt lat="44.563709940578704" lon="10.016703010296002"><ele>712.0</ele><time>2026-04-19T08:09:17.999Z</time></trkpt><trkpt lat="44.56353593917041" lon="10.016540716334113"><ele>712.0</ele><time>2026-04-19T08:09:18.999Z</time></trkpt><trkpt lat="44.56339292924506" lon="10.016382682902561"><ele>712.6666666666667</ele><time>2026-04-19T08:09:19.999Z</time></trkpt><trkpt lat="44.56327827726582" lon="10.016191576712233"><ele>713.3333333333334</ele><time>2026-04-19T08:09:20.999Z</time></trkpt><trkpt lat="44.56319967431394" lon="10.015954715468078"><ele>714.0</ele><time>2026-04-19T08:09:21.999Z</time></trkpt><trkpt lat="44.563131587663136" lon="10.015672522559386"><ele>714.0</ele><time>2026-04-19T08:09:22.999Z</time></trkpt><trkpt lat="44.563032264772744" lon="10.01539120836708"><ele>714.0</ele><time>2026-04-19T08:09:23.999Z</time></trkpt><trkpt lat="44.56297524022808" lon="10.015118892497952"><ele>714.0</ele><time>2026-04-19T08:09:24.999Z</time></trkpt><trkpt lat="44.562920807628565" lon="10.014901242728504"><ele>715.5</ele><time>2026-04-19T08:09:25.999Z</time></trkpt><trkpt lat="44.562853936121776" lon="10.014753121230768"><ele>717.0</ele><time>2026-04-19T08:09:27Z</time></trkpt><trkpt lat="44.56276882706996" lon="10.014691221157534"><ele>718.5</ele><time>2026-04-19T08:09:28Z</time></trkpt><trkpt lat="44.56263802117529" lon="10.014707552580962"><ele>720.0</ele><time>2026-04-19T08:09:29Z</time></trkpt><trkpt lat="44.56248709440559" lon="10.014817688085342"><ele>720.0</ele><time>2026-04-19T08:09:30Z</time></trkpt><trkpt lat="44.56230873241549" lon="10.014910207749015"><ele>720.0</ele><time>2026-04-19T08:09:31Z</time></trkpt><trkpt lat="44.56212571321613" lon="10.014967796881148"><ele>720.0</ele><time>2026-04-19T08:09:32Z</time></trkpt><trkpt lat="44.56195256242712" lon="10.014930899606508"><ele>722.6666666666666</ele><time>2026-04-19T08:09:33Z</time></trkpt><trkpt lat="44.56179631168655" lon="10.014817758434823"><ele>725.3333333333333</ele><time>2026-04-19T08:09:34Z</time></trkpt><trkpt lat="44.561628243154246" lon="10.014699215862471"><ele>728.0</ele><time>2026-04-19T08:09:35Z</time></trkpt><trkpt lat="44.56145617557488" lon="10.01459808653995"><ele>728.0</ele><time>2026-04-19T08:09:36Z</time></trkpt><trkpt lat="44.561284930058356" lon="10.014449620259406"><ele>728.0</ele><time>2026-04-19T08:09:37Z</time></trkpt><trkpt lat="44.561119333774904" lon="10.014338109971131"><ele>728.0</ele><time>2026-04-19T08:09:38Z</time></trkpt><trkpt lat="44.56096194474211" lon="10.014249344715878"><ele>729.0</ele><time>2026-04-19T08:09:39Z</time></trkpt><trkpt lat="44.56079698239514" lon="10.014207539945465"><ele>730.0</ele><time>2026-04-19T08:09:40Z</time></trkpt><trkpt lat="44.560603066224445" lon="10.014193923989883"><ele>731.0</ele><time>2026-04-19T08:09:41Z</time></trkpt><trkpt lat="44.56039540359219" lon="10.01415032591946"><ele>737.3333333333333</ele><time>2026-04-19T08:09:42Z</time></trkpt><trkpt lat="44.56018083883552" lon="10.014058856791685"><ele>743.6666666666666</ele><time>2026-04-19T08:09:43Z</time></trkpt><trkpt lat="44.56011940723646" lon="10.014017349029931"><ele>750.0</ele><time>2026-04-19T08:09:44Z</time></trkpt><trkpt lat="44.560006084207174" lon="10.01386215405275"><ele>750.0</ele><time>2026-04-19T08:09:45Z</time></trkpt><trkpt lat="44.55995664550411" lon="10.01363856628185"><ele>750.0</ele><time>2026-04-19T08:09:46Z</time></trkpt><trkpt lat="44.55988644102039" lon="10.013384371251783"><ele>750.0</ele><time>2026-04-19T08:09:47Z</time></trkpt><trkpt lat="44.55981636819044" lon="10.013120090081628"><ele>750.0</ele><time>2026-04-19T08:09:48Z</time></trkpt><trkpt lat="44.55975008554196" lon="10.012859156209915"><ele>750.0</ele><time>2026-04-19T08:09:49Z</time></trkpt><trkpt lat="44.559682952361996" lon="10.012591572809988"><ele>750.0</ele><time>2026-04-19T08:09:50Z</time></trkpt><trkpt lat="44.5596222638328" lon="10.012324128997253"><ele>749.3333333333334</ele><time>2026-04-19T08:09:51Z</time></trkpt><trkpt lat="44.55958662240608" lon="10.012047353620646"><ele>748.6666666666667</ele><time>2026-04-19T08:09:52Z</time></trkpt><trkpt lat="44.55959961432686" lon="10.011779435444279"><ele>748.0</ele><time>2026-04-19T08:09:53Z</time></trkpt><trkpt lat="44.55957848227502" lon="10.01150553070088"><ele>748.0</ele><time>2026-04-19T08:09:54Z</time></trkpt><trkpt lat="44.55955471643365" lon="10.011242853734796"><ele>748.0</ele><time>2026-04-19T08:09:55Z</time></trkpt><trkpt lat="44.55948239920367" lon="10.010979919769634"><ele>748.0</ele><time>2026-04-19T08:09:56Z</time></trkpt><trkpt lat="44.55940350638526" lon="10.010765274332504"><ele>753.0</ele><time>2026-04-19T08:09:57Z</time></trkpt><trkpt lat="44.55933749094046" lon="10.01055896360495"><ele>758.0</ele><time>2026-04-19T08:09:58Z</time></trkpt><trkpt lat="44.559236563617624" lon="10.010379362296959"><ele>763.0</ele><time>2026-04-19T08:09:59Z</time></trkpt><trkpt lat="44.558959455829466" lon="10.01039041203347"><ele>763.0</ele><time>2026-04-19T08:10:00Z</time></trkpt><trkpt lat="44.55876491145609" lon="10.010285988523853"><ele>763.0</ele><time>2026-04-19T08:10:01Z</time></trkpt><trkpt lat="44.55858268619846" lon="10.010133249602386"><ele>763.0</ele><time>2026-04-19T08:10:02Z</time></trkpt><trkpt lat="44.558409421973266" lon="10.009961938348804"><ele>769.0</ele><time>2026-04-19T08:10:03Z</time></trkpt><trkpt lat="44.55827182613659" lon="10.009759371983126"><ele>775.0</ele><time>2026-04-19T08:10:04Z</time></trkpt><trkpt lat="44.55818432081847" lon="10.009543799668931"><ele>781.0</ele><time>2026-04-19T08:10:05Z</time></trkpt><trkpt lat="44.55812621777725" lon="10.009299165866558"><ele>778.6666666666666</ele><time>2026-04-19T08:10:06Z</time></trkpt><trkpt lat="44.558054526088775" lon="10.009031816793588"><ele>776.3333333333333</ele><time>2026-04-19T08:10:07Z</time></trkpt><trkpt lat="44.557963215303964" lon="10.008812844516816"><ele>774.0</ele><time>2026-04-19T08:10:08Z</time></trkpt><trkpt lat="44.557850371041965" lon="10.008618385804763"><ele>777.3333333333333</ele><time>2026-04-19T08:10:09Z</time></trkpt><trkpt lat="44.55770121877661" lon="10.008454781428004"><ele>780.6666666666666</ele><time>2026-04-19T08:10:10Z</time></trkpt><trkpt lat="44.55760457707889" lon="10.008253121676894"><ele>784.0</ele><time>2026-04-19T08:10:11Z</time></trkpt><trkpt lat="44.55755899580128" lon="10.008018735901178"><ele>784.0</ele><time>2026-04-19T08:10:12Z</time></trkpt><trkpt lat="44.557508486608754" lon="10.00779523105544"><ele>784.0</ele><time>2026-04-19T08:10:13Z</time></trkpt><trkpt lat="44.557471019275404" lon="10.007630602804387"><ele>784.0</ele><time>2026-04-19T08:10:14Z</time></trkpt><trkpt lat="44.55737218619901" lon="10.007518480275156"><ele>784.0</ele><time>2026-04-19T08:10:15Z</time></trkpt><trkpt lat="44.557194107622166" lon="10.00758855860441"><ele>788.6666666666666</ele><time>2026-04-19T08:10:16Z</time></trkpt><trkpt lat="44.55701203783338" lon="10.00765718094961"><ele>793.3333333333333</ele><time>2026-04-19T08:10:17Z</time></trkpt><trkpt lat="44.55682505294277" lon="10.007723360622677"><ele>798.0</ele><time>2026-04-19T08:10:18Z</time></trkpt><trkpt lat="44.556681735672676" lon="10.00773287986217"><ele>798.0</ele><time>2026-04-19T08:10:19Z</time></trkpt><trkpt lat="44.55657067815565" lon="10.007676800612234"><ele>798.0</ele><time>2026-04-19T08:10:20Z</time></trkpt><trkpt lat="44.55652093849791" lon="10.007520725844346"><ele>798.0</ele><time>2026-04-19T08:10:21Z</time></trkpt><trkpt lat="44.55648749711792" lon="10.00733533508968"><ele>798.0</ele><time>2026-04-19T08:10:22Z</time></trkpt><trkpt lat="44.556480826147826" lon="10.007144875201918"><ele>795.0</ele><time>2026-04-19T08:10:23Z</time></trkpt><trkpt lat="44.556422675658176" lon="10.006974245506653"><ele>792.0</ele><time>2026-04-19T08:10:24Z</time></trkpt><trkpt lat="44.5562925444268" lon="10.0068379066058"><ele>789.0</ele><time>2026-04-19T08:10:25Z</time></trkpt><trkpt lat="44.556131468413476" lon="10.006699820158815"><ele>793.6666666666667</ele><time>2026-04-19T08:10:26Z</time></trkpt><trkpt lat="44.55596614106613" lon="10.006532106469514"><ele>798.3333333333334</ele><time>2026-04-19T08:10:27Z</time></trkpt><trkpt lat="44.555823275889324" lon="10.006377451371362"><ele>803.0</ele><time>2026-04-19T08:10:28Z</time></trkpt><trkpt lat="44.55569263845927" lon="10.00622623223588"><ele>803.0</ele><time>2026-04-19T08:10:29Z</time></trkpt><trkpt lat="44.55561284224497" lon="10.006036265748376"><ele>803.0</ele><time>2026-04-19T08:10:30Z</time></trkpt><trkpt lat="44.55555648783356" lon="10.005830938527893"><ele>803.0</ele><time>2026-04-19T08:10:31Z</time></trkpt><trkpt lat="44.555490223316525" lon="10.005616493349716"><ele>803.0</ele><time>2026-04-19T08:10:32Z</time></trkpt><trkpt lat="44.55545616448629" lon="10.005416237650763"><ele>803.0</ele><time>2026-04-19T08:10:33Z</time></trkpt><trkpt lat="44.555483210814984" lon="10.005235349453592"><ele>803.0</ele><time>2026-04-19T08:10:34Z</time></trkpt><trkpt lat="44.55553436669381" lon="10.004998247868956"><ele>803.6666666666667</ele><time>2026-04-19T08:10:35Z</time></trkpt><trkpt lat="44.55562664170669" lon="10.004759481732881"><ele>804.3333333333333</ele><time>2026-04-19T08:10:36Z</time></trkpt><trkpt lat="44.555675872315874" lon="10.00453102399147"><ele>805.0</ele><time>2026-04-19T08:10:37Z</time></trkpt><trkpt lat="44.55565868930328" lon="10.004280230356246"><ele>804.75</ele><time>2026-04-19T08:10:38Z</time></trkpt><trkpt lat="44.555594114005736" lon="10.004087570944975"><ele>804.5</ele><time>2026-04-19T08:10:39Z</time></trkpt><trkpt lat="44.555491051080715" lon="10.003953139103892"><ele>804.25</ele><time>2026-04-19T08:10:40Z</time></trkpt><trkpt lat="44.55535542104609" lon="10.003907980679566"><ele>804.0</ele><time>2026-04-19T08:10:41Z</time></trkpt><trkpt lat="44.55518916316844" lon="10.00390707665772"><ele>807.6666666666667</ele><time>2026-04-19T08:10:42Z</time></trkpt><trkpt lat="44.555009859308484" lon="10.003864140207781"><ele>811.3333333333334</ele><time>2026-04-19T08:10:43Z</time></trkpt><trkpt lat="44.55483440878801" lon="10.003775867531782"><ele>815.0</ele><time>2026-04-19T08:10:44Z</time></trkpt><trkpt lat="44.55466429579165" lon="10.003608137110845"><ele>818.3333333333334</ele><time>2026-04-19T08:10:45Z</time></trkpt><trkpt lat="44.55448260021369" lon="10.003434491240604"><ele>821.6666666666667</ele><time>2026-04-19T08:10:46Z</time></trkpt><trkpt lat="44.55430585369567" lon="10.003303698793585"><ele>825.0</ele><time>2026-04-19T08:10:47Z</time></trkpt><trkpt lat="44.554172556251004" lon="10.003160068798026"><ele>825.0</ele><time>2026-04-19T08:10:47.999Z</time></trkpt><trkpt lat="44.554093266767616" lon="10.00296202458821"><ele>825.0</ele><time>2026-04-19T08:10:48.999Z</time></trkpt><trkpt lat="44.5540083615622" lon="10.002735088908764"><ele>825.0</ele><time>2026-04-19T08:10:49.999Z</time></trkpt><trkpt lat="44.553950987063544" lon="10.002459103283853"><ele>823.3333333333333</ele><time>2026-04-19T08:10:50.999Z</time></trkpt><trkpt lat="44.55389944658648" lon="10.002174133415155"><ele>821.6666666666666</ele><time>2026-04-19T08:10:51.999Z</time></trkpt><trkpt lat="44.55385039918887" lon="10.001917584108217"><ele>820.0</ele><time>2026-04-19T08:10:52.999Z</time></trkpt><trkpt lat="44.55379146235177" lon="10.001691864979225"><ele>821.6666666666666</ele><time>2026-04-19T08:10:53.999Z</time></trkpt><trkpt lat="44.553718136753204" lon="10.001498487284211"><ele>823.3333333333333</ele><time>2026-04-19T08:10:54.999Z</time></trkpt><trkpt lat="44.553603150898894" lon="10.001355175911701"><ele>825.0</ele><time>2026-04-19T08:10:55.999Z</time></trkpt><trkpt lat="44.553457461736535" lon="10.00126752255112"><ele>825.0</ele><time>2026-04-19T08:10:56.999Z</time></trkpt><trkpt lat="44.553307931522156" lon="10.001270912972338"><ele>825.0</ele><time>2026-04-19T08:10:57.999Z</time></trkpt><trkpt lat="44.553158413592385" lon="10.001336840604358"><ele>825.0</ele><time>2026-04-19T08:10:58.999Z</time></trkpt><trkpt lat="44.55301773919833" lon="10.001510485982232"><ele>829.3333333333333</ele><time>2026-04-19T08:10:59.999Z</time></trkpt><trkpt lat="44.552888870135604" lon="10.00172201688807"><ele>833.6666666666666</ele><time>2026-04-19T08:11:00.999Z</time></trkpt><trkpt lat="44.552754366911834" lon="10.001915616894566"><ele>838.0</ele><time>2026-04-19T08:11:01.999Z</time></trkpt><trkpt lat="44.55261048239737" lon="10.002071662303443"><ele>839.0</ele><time>2026-04-19T08:11:02.999Z</time></trkpt><trkpt lat="44.552438970968105" lon="10.002143123768215"><ele>840.0</ele><time>2026-04-19T08:11:03.999Z</time></trkpt><trkpt lat="44.552242560085425" lon="10.002164032791514"><ele>841.0</ele><time>2026-04-19T08:11:04.999Z</time></trkpt><trkpt lat="44.55205211244864" lon="10.002210230176193"><ele>841.6666666666666</ele><time>2026-04-19T08:11:05.999Z</time></trkpt><trkpt lat="44.551857046349156" lon="10.002175920776576"><ele>842.3333333333333</ele><time>2026-04-19T08:11:06.999Z</time></trkpt><trkpt lat="44.551677519171996" lon="10.002120452455069"><ele>843.0</ele><time>2026-04-19T08:11:07.999Z</time></trkpt><trkpt lat="44.55149835795813" lon="10.002047721372167"><ele>843.0</ele><time>2026-04-19T08:11:08.999Z</time></trkpt><trkpt lat="44.551333553632645" lon="10.001990568895625"><ele>843.0</ele><time>2026-04-19T08:11:09.999Z</time></trkpt><trkpt lat="44.55118516536216" lon="10.001990236629366"><ele>843.0</ele><time>2026-04-19T08:11:10.999Z</time></trkpt><trkpt lat="44.551047236663656" lon="10.002086912939207"><ele>843.0</ele><time>2026-04-19T08:11:11.999Z</time></trkpt><trkpt lat="44.55094047431782" lon="10.002275110353999"><ele>843.0</ele><time>2026-04-19T08:11:12.999Z</time></trkpt><trkpt lat="44.55084521168025" lon="10.002510853877162"><ele>843.0</ele><time>2026-04-19T08:11:13.999Z</time></trkpt><trkpt lat="44.5507026061542" lon="10.002725511040301"><ele>846.6666666666667</ele><time>2026-04-19T08:11:14.999Z</time></trkpt><trkpt lat="44.55056786008618" lon="10.002949633350521"><ele>850.3333333333334</ele><time>2026-04-19T08:11:15.999Z</time></trkpt><trkpt lat="44.55043932593452" lon="10.003174001607373"><ele>854.0</ele><time>2026-04-19T08:11:16.999Z</time></trkpt><trkpt lat="44.550330542113414" lon="10.00339778559461"><ele>856.6666666666667</ele><time>2026-04-19T08:11:17.999Z</time></trkpt><trkpt lat="44.55018590162348" lon="10.003508900908683"><ele>859.3333333333333</ele><time>2026-04-19T08:11:18.999Z</time></trkpt><trkpt lat="44.55002181913999" lon="10.00360453463381"><ele>862.0</ele><time>2026-04-19T08:11:19.999Z</time></trkpt><trkpt lat="44.54983824744041" lon="10.003630020004715"><ele>862.0</ele><time>2026-04-19T08:11:20.999Z</time></trkpt><trkpt lat="44.54966053116134" lon="10.003565931243077"><ele>862.0</ele><time>2026-04-19T08:11:21.999Z</time></trkpt><trkpt lat="44.5494977839525" lon="10.003534991027546"><ele>862.0</ele><time>2026-04-19T08:11:22.999Z</time></trkpt><trkpt lat="44.54932460977661" lon="10.003554115554916"><ele>862.3333333333333</ele><time>2026-04-19T08:11:23.999Z</time></trkpt><trkpt lat="44.54913813164755" lon="10.003652890994521"><ele>862.6666666666667</ele><time>2026-04-19T08:11:24.999Z</time></trkpt><trkpt lat="44.548950050528546" lon="10.00380994981219"><ele>863.0</ele><time>2026-04-19T08:11:25.999Z</time></trkpt><trkpt lat="44.54875562906452" lon="10.003930990187934"><ele>864.6666666666667</ele><time>2026-04-19T08:11:26.999Z</time></trkpt><trkpt lat="44.54857971123342" lon="10.004035683366215"><ele>866.3333333333333</ele><time>2026-04-19T08:11:27.999Z</time></trkpt><trkpt lat="44.548423201142356" lon="10.00409903253384"><ele>868.0</ele><time>2026-04-19T08:11:28.999Z</time></trkpt><trkpt lat="44.548274919091185" lon="10.003977887215681"><ele>868.0</ele><time>2026-04-19T08:11:29.999Z</time></trkpt><trkpt lat="44.54809176361231" lon="10.00388375193243"><ele>868.0</ele><time>2026-04-19T08:11:30.999Z</time></trkpt><trkpt lat="44.54791232014892" lon="10.00378433582935"><ele>868.0</ele><time>2026-04-19T08:11:31.999Z</time></trkpt><trkpt lat="44.54772060712426" lon="10.003793824546756"><ele>869.6666666666666</ele><time>2026-04-19T08:11:33Z</time></trkpt><trkpt lat="44.54752248530756" lon="10.003879625149693"><ele>871.3333333333333</ele><time>2026-04-19T08:11:34Z</time></trkpt><trkpt lat="44.54732613884904" lon="10.00394104002803"><ele>873.0</ele><time>2026-04-19T08:11:35Z</time></trkpt><trkpt lat="44.547127119442955" lon="10.003880615743052"><ele>874.3333333333333</ele><time>2026-04-19T08:11:36Z</time></trkpt><trkpt lat="44.54691118321457" lon="10.003833461109636"><ele>875.6666666666666</ele><time>2026-04-19T08:11:37Z</time></trkpt><trkpt lat="44.546708188348084" lon="10.003771246622145"><ele>877.0</ele><time>2026-04-19T08:11:38Z</time></trkpt><trkpt lat="44.546506453244405" lon="10.003745802390721"><ele>877.0</ele><time>2026-04-19T08:11:39Z</time></trkpt><trkpt lat="44.546297724353444" lon="10.00376845371679"><ele>877.0</ele><time>2026-04-19T08:11:40Z</time></trkpt><trkpt lat="44.546101637808306" lon="10.003841728765174"><ele>877.0</ele><time>2026-04-19T08:11:41Z</time></trkpt><trkpt lat="44.54592432512804" lon="10.003979459928884"><ele>879.6666666666666</ele><time>2026-04-19T08:11:42Z</time></trkpt><trkpt lat="44.54574876899953" lon="10.004161664338795"><ele>882.3333333333333</ele><time>2026-04-19T08:11:43Z</time></trkpt><trkpt lat="44.545584499222585" lon="10.004348713813219"><ele>885.0</ele><time>2026-04-19T08:11:44Z</time></trkpt><trkpt lat="44.54541111566204" lon="10.004474440053412"><ele>889.3333333333333</ele><time>2026-04-19T08:11:45Z</time></trkpt><trkpt lat="44.54524318547413" lon="10.004485381828987"><ele>893.6666666666666</ele><time>2026-04-19T08:11:46Z</time></trkpt><trkpt lat="44.54505272340336" lon="10.004429410017478"><ele>898.0</ele><time>2026-04-19T08:11:47Z</time></trkpt><trkpt lat="44.54484623314295" lon="10.004340049133159"><ele>898.0</ele><time>2026-04-19T08:11:48Z</time></trkpt><trkpt lat="44.54463414649865" lon="10.00425365534246"><ele>898.0</ele><time>2026-04-19T08:11:49Z</time></trkpt><trkpt lat="44.54443458466818" lon="10.004173120801056"><ele>898.0</ele><time>2026-04-19T08:11:50Z</time></trkpt><trkpt lat="44.5442514534275" lon="10.004118581310648"><ele>897.0</ele><time>2026-04-19T08:11:51Z</time></trkpt><trkpt lat="44.544075387804575" lon="10.004086861204682"><ele>896.0</ele><time>2026-04-19T08:11:52Z</time></trkpt><trkpt lat="44.543880702984424" lon="10.004103248627832"><ele>895.0</ele><time>2026-04-19T08:11:53Z</time></trkpt><trkpt lat="44.54367747314767" lon="10.004161275301229"><ele>898.0</ele><time>2026-04-19T08:11:54Z</time></trkpt><trkpt lat="44.54346619354052" lon="10.00417192402904"><ele>901.0</ele><time>2026-04-19T08:11:55Z</time></trkpt><trkpt lat="44.543258147773884" lon="10.004156931176661"><ele>904.0</ele><time>2026-04-19T08:11:56Z</time></trkpt><trkpt lat="44.54303522462804" lon="10.004112796912326"><ele>909.3333333333333</ele><time>2026-04-19T08:11:57Z</time></trkpt><trkpt lat="44.54283640012455" lon="10.004009343522434"><ele>914.6666666666667</ele><time>2026-04-19T08:11:58Z</time></trkpt><trkpt lat="44.54267164281343" lon="10.003836270448955"><ele>920.0</ele><time>2026-04-19T08:11:59Z</time></trkpt><trkpt lat="44.542538296129855" lon="10.003633548920776"><ele>920.0</ele><time>2026-04-19T08:12:00Z</time></trkpt><trkpt lat="44.542440076438275" lon="10.003389470587448"><ele>920.0</ele><time>2026-04-19T08:12:01Z</time></trkpt><trkpt lat="44.542386793019254" lon="10.003161213638812"><ele>920.0</ele><time>2026-04-19T08:12:02Z</time></trkpt><trkpt lat="44.54234026353842" lon="10.002948981435248"><ele>919.0</ele><time>2026-04-19T08:12:03Z</time></trkpt><trkpt lat="44.542303730657316" lon="10.002775721538656"><ele>918.0</ele><time>2026-04-19T08:12:04Z</time></trkpt><trkpt lat="44.542206418155715" lon="10.002649937209831"><ele>917.0</ele><time>2026-04-19T08:12:05Z</time></trkpt><trkpt lat="44.54203373981847" lon="10.002591832417501"><ele>916.0</ele><time>2026-04-19T08:12:06Z</time></trkpt><trkpt lat="44.54183053119911" lon="10.002561222382052"><ele>917.3333333333333</ele><time>2026-04-19T08:12:07Z</time></trkpt><trkpt lat="44.54161388356868" lon="10.002524162429005"><ele>918.6666666666667</ele><time>2026-04-19T08:12:08Z</time></trkpt><trkpt lat="44.54139998860575" lon="10.0024691394554"><ele>920.0</ele><time>2026-04-19T08:12:09Z</time></trkpt><trkpt lat="44.54123517925701" lon="10.002422063833391"><ele>923.6</ele><time>2026-04-19T08:12:10Z</time></trkpt><trkpt lat="44.5411153240999" lon="10.002392259770703"><ele>927.2</ele><time>2026-04-19T08:12:11Z</time></trkpt><trkpt lat="44.541028327147316" lon="10.002406197100177"><ele>930.8</ele><time>2026-04-19T08:12:12Z</time></trkpt><trkpt lat="44.54094870329636" lon="10.002472429647014"><ele>934.4</ele><time>2026-04-19T08:12:13Z</time></trkpt><trkpt lat="44.54092423639421" lon="10.002662276352444"><ele>938.0</ele><time>2026-04-19T08:12:14Z</time></trkpt><trkpt lat="44.541006831328474" lon="10.00283875627278"><ele>938.3333333333334</ele><time>2026-04-19T08:12:15Z</time></trkpt><trkpt lat="44.54113978819489" lon="10.002949096600291"><ele>938.6666666666667</ele><time>2026-04-19T08:12:16Z</time></trkpt><trkpt lat="44.541310902937525" lon="10.003041703601273"><ele>939.0</ele><time>2026-04-19T08:12:17Z</time></trkpt><trkpt lat="44.54146695753773" lon="10.003219356732016"><ele>937.0</ele><time>2026-04-19T08:12:18Z</time></trkpt><trkpt lat="44.54162924992493" lon="10.003391425743114"><ele>935.0</ele><time>2026-04-19T08:12:19Z</time></trkpt><trkpt lat="44.54180929987102" lon="10.003599390668999"><ele>933.0</ele><time>2026-04-19T08:12:20Z</time></trkpt><trkpt lat="44.54196802494226" lon="10.003766860896265"><ele>934.25</ele><time>2026-04-19T08:12:21Z</time></trkpt><trkpt lat="44.54204956091539" lon="10.003933616639843"><ele>935.5</ele><time>2026-04-19T08:12:22Z</time></trkpt><trkpt lat="44.54208923580592" lon="10.004107147213139"><ele>936.75</ele><time>2026-04-19T08:12:23Z</time></trkpt><trkpt lat="44.542062449289965" lon="10.004287949732158"><ele>938.0</ele><time>2026-04-19T08:12:24Z</time></trkpt><trkpt lat="44.541985847060246" lon="10.00444547669706"><ele>938.0</ele><time>2026-04-19T08:12:25Z</time></trkpt><trkpt lat="44.54186370160519" lon="10.004530301855272"><ele>938.0</ele><time>2026-04-19T08:12:26Z</time></trkpt><trkpt lat="44.54170814287932" lon="10.00456189951242"><ele>938.0</ele><time>2026-04-19T08:12:27Z</time></trkpt><trkpt lat="44.54154534008832" lon="10.004487128729812"><ele>938.0</ele><time>2026-04-19T08:12:28Z</time></trkpt><trkpt lat="44.54135305810107" lon="10.004441735994384"><ele>938.0</ele><time>2026-04-19T08:12:29Z</time></trkpt><trkpt lat="44.541178370116725" lon="10.004428899865697"><ele>938.0</ele><time>2026-04-19T08:12:30Z</time></trkpt><trkpt lat="44.54097919667888" lon="10.00453359894482"><ele>942.3333333333334</ele><time>2026-04-19T08:12:31Z</time></trkpt><trkpt lat="44.54079263860718" lon="10.004677959748335"><ele>946.6666666666667</ele><time>2026-04-19T08:12:32Z</time></trkpt><trkpt lat="44.54063514283949" lon="10.004783332487573"><ele>951.0</ele><time>2026-04-19T08:12:33Z</time></trkpt><trkpt lat="44.54051723135815" lon="10.004773520734815"><ele>955.3333333333333</ele><time>2026-04-19T08:12:34Z</time></trkpt><trkpt lat="44.540367503589636" lon="10.004714444591738"><ele>959.6666666666666</ele><time>2026-04-19T08:12:35Z</time></trkpt><trkpt lat="44.54011835473945" lon="10.004664272448533"><ele>964.0</ele><time>2026-04-19T08:12:36Z</time></trkpt><trkpt lat="44.539939231301304" lon="10.004564685919698"><ele>964.0</ele><time>2026-04-19T08:12:37Z</time></trkpt><trkpt lat="44.539794271038254" lon="10.004446966382451"><ele>964.0</ele><time>2026-04-19T08:12:38Z</time></trkpt><trkpt lat="44.539646460284644" lon="10.004408350976743"><ele>964.0</ele><time>2026-04-19T08:12:39Z</time></trkpt><trkpt lat="44.53929467321635" lon="10.004435255631288"><ele>965.0</ele><time>2026-04-19T08:12:40Z</time></trkpt><trkpt lat="44.539065555266916" lon="10.004388863703815"><ele>966.0</ele><time>2026-04-19T08:12:41Z</time></trkpt><trkpt lat="44.53887313481336" lon="10.004334948807877"><ele>967.0</ele><time>2026-04-19T08:12:42Z</time></trkpt><trkpt lat="44.538711765470374" lon="10.00423566927932"><ele>965.0</ele><time>2026-04-19T08:12:43Z</time></trkpt><trkpt lat="44.53858923410018" lon="10.004081338982886"><ele>963.0</ele><time>2026-04-19T08:12:44Z</time></trkpt><trkpt lat="44.538489665112756" lon="10.003879175249427"><ele>961.0</ele><time>2026-04-19T08:12:45Z</time></trkpt><trkpt lat="44.53840717489784" lon="10.003633262302525"><ele>961.0</ele><time>2026-04-19T08:12:46Z</time></trkpt><trkpt lat="44.53835790732658" lon="10.003392680933954"><ele>961.0</ele><time>2026-04-19T08:12:47Z</time></trkpt><trkpt lat="44.53834490186985" lon="10.00314007568395"><ele>961.0</ele><time>2026-04-19T08:12:48Z</time></trkpt><trkpt lat="44.53837806563475" lon="10.002873382480354"><ele>958.5</ele><time>2026-04-19T08:12:49Z</time></trkpt><trkpt lat="44.53844422897818" lon="10.002587488517552"><ele>956.0</ele><time>2026-04-19T08:12:49.999Z</time></trkpt><trkpt lat="44.53851873874149" lon="10.002265337971854"><ele>956.0</ele><time>2026-04-19T08:12:50.999Z</time></trkpt><trkpt lat="44.53859253482796" lon="10.001966181169786"><ele>956.0</ele><time>2026-04-19T08:12:51.999Z</time></trkpt><trkpt lat="44.53862702436774" lon="10.001684928700694"><ele>956.0</ele><time>2026-04-19T08:12:52.999Z</time></trkpt><trkpt lat="44.53861957651387" lon="10.001416761856742"><ele>956.0</ele><time>2026-04-19T08:12:53.999Z</time></trkpt><trkpt lat="44.53852750460756" lon="10.001146160034521"><ele>956.0</ele><time>2026-04-19T08:12:54.999Z</time></trkpt><trkpt lat="44.538402709298175" lon="10.000850582970164"><ele>954.5</ele><time>2026-04-19T08:12:55.999Z</time></trkpt><trkpt lat="44.53829149091571" lon="10.000528620486008"><ele>953.0</ele><time>2026-04-19T08:12:56.999Z</time></trkpt><trkpt lat="44.53818278371809" lon="10.000211713393075"><ele>953.0</ele><time>2026-04-19T08:12:57.999Z</time></trkpt><trkpt lat="44.538076387735686" lon="9.99991558209475"><ele>953.0</ele><time>2026-04-19T08:12:58.999Z</time></trkpt><trkpt lat="44.537975269014716" lon="9.999621758188107"><ele>951.6666666666667</ele><time>2026-04-19T08:12:59.999Z</time></trkpt><trkpt lat="44.53787836093944" lon="9.999326406380302"><ele>950.3333333333333</ele><time>2026-04-19T08:13:00.999Z</time></trkpt><trkpt lat="44.53778737973003" lon="9.99905467890074"><ele>949.0</ele><time>2026-04-19T08:13:01.999Z</time></trkpt><trkpt lat="44.537695456695005" lon="9.998817876817707"><ele>949.0</ele><time>2026-04-19T08:13:02.999Z</time></trkpt><trkpt lat="44.53757543467784" lon="9.998604787704478"><ele>949.0</ele><time>2026-04-19T08:13:03.999Z</time></trkpt><trkpt lat="44.53738870878162" lon="9.998437151642337"><ele>949.0</ele><time>2026-04-19T08:13:04.999Z</time></trkpt><trkpt lat="44.53716248034376" lon="9.998290030304878"><ele>948.6666666666666</ele><time>2026-04-19T08:13:05.999Z</time></trkpt><trkpt lat="44.536957956226026" lon="9.998133529357581"><ele>948.3333333333333</ele><time>2026-04-19T08:13:06.999Z</time></trkpt><trkpt lat="44.536766842586616" lon="9.997998521698687"><ele>948.0</ele><time>2026-04-19T08:13:07.999Z</time></trkpt><trkpt lat="44.53656688999804" lon="9.997957968686382"><ele>948.0</ele><time>2026-04-19T08:13:08.999Z</time></trkpt><trkpt lat="44.536363605675625" lon="9.998001706379547"><ele>948.0</ele><time>2026-04-19T08:13:09.999Z</time></trkpt><trkpt lat="44.536163281669296" lon="9.998118662124217"><ele>948.0</ele><time>2026-04-19T08:13:10.999Z</time></trkpt><trkpt lat="44.53600486464156" lon="9.998311817050569"><ele>946.6666666666667</ele><time>2026-04-19T08:13:11.999Z</time></trkpt><trkpt lat="44.53587945486113" lon="9.998563032017774"><ele>945.3333333333334</ele><time>2026-04-19T08:13:12.999Z</time></trkpt><trkpt lat="44.53573275555515" lon="9.998733939196331"><ele>944.0</ele><time>2026-04-19T08:13:13.999Z</time></trkpt><trkpt lat="44.53561541948767" lon="9.998845970595605"><ele>944.0</ele><time>2026-04-19T08:13:14.999Z</time></trkpt><trkpt lat="44.5354985034427" lon="9.998892933667996"><ele>944.0</ele><time>2026-04-19T08:13:15.999Z</time></trkpt><trkpt lat="44.53535439344462" lon="9.998841545374782"><ele>944.0</ele><time>2026-04-19T08:13:16.999Z</time></trkpt><trkpt lat="44.53520583113659" lon="9.998687578004926"><ele>945.0</ele><time>2026-04-19T08:13:17.999Z</time></trkpt><trkpt lat="44.53506182074896" lon="9.998494575212883"><ele>946.0</ele><time>2026-04-19T08:13:18.999Z</time></trkpt><trkpt lat="44.53491282765125" lon="9.998314408779857"><ele>947.0</ele><time>2026-04-19T08:13:19.999Z</time></trkpt><trkpt lat="44.53476790123034" lon="9.998218785999128"><ele>947.0</ele><time>2026-04-19T08:13:20.999Z</time></trkpt><trkpt lat="44.534591356027626" lon="9.998139578742478"><ele>947.0</ele><time>2026-04-19T08:13:21.999Z</time></trkpt><trkpt lat="44.53431018186898" lon="9.99808477645122"><ele>943.5</ele><time>2026-04-19T08:13:22.999Z</time></trkpt><trkpt lat="44.5340519967168" lon="9.998098084866903"><ele>940.0</ele><time>2026-04-19T08:13:23.999Z</time></trkpt><trkpt lat="44.533797463284984" lon="9.998092996804518"><ele>940.0</ele><time>2026-04-19T08:13:24.999Z</time></trkpt><trkpt lat="44.53354152160255" lon="9.998068758018515"><ele>940.0</ele><time>2026-04-19T08:13:25.999Z</time></trkpt><trkpt lat="44.53330008677459" lon="9.998046511344986"><ele>940.0</ele><time>2026-04-19T08:13:26.999Z</time></trkpt><trkpt lat="44.53306016438639" lon="9.998017164658055"><ele>940.0</ele><time>2026-04-19T08:13:27.999Z</time></trkpt><trkpt lat="44.53284152173681" lon="9.997999353339525"><ele>940.3333333333333</ele><time>2026-04-19T08:13:28.999Z</time></trkpt><trkpt lat="44.53264438883271" lon="9.998045999542477"><ele>940.6666666666667</ele><time>2026-04-19T08:13:29.999Z</time></trkpt><trkpt lat="44.5324788962936" lon="9.998181380861741"><ele>941.0</ele><time>2026-04-19T08:13:30.999Z</time></trkpt><trkpt lat="44.532329405188136" lon="9.998294507190161"><ele>941.0</ele><time>2026-04-19T08:13:31.999Z</time></trkpt><trkpt lat="44.5321969104366" lon="9.998329760147506"><ele>941.0</ele><time>2026-04-19T08:13:32.999Z</time></trkpt><trkpt lat="44.532074360442174" lon="9.998248264482342"><ele>941.0</ele><time>2026-04-19T08:13:33.999Z</time></trkpt><trkpt lat="44.53190861854828" lon="9.998115947258798"><ele>938.3333333333334</ele><time>2026-04-19T08:13:34.999Z</time></trkpt><trkpt lat="44.53176003116592" lon="9.997964177191585"><ele>935.6666666666667</ele><time>2026-04-19T08:13:35.999Z</time></trkpt><trkpt lat="44.531665739082925" lon="9.997791740130115"><ele>933.0</ele><time>2026-04-19T08:13:36.999Z</time></trkpt><trkpt lat="44.531616635078805" lon="9.997581156433178"><ele>935.6666666666667</ele><time>2026-04-19T08:13:37.999Z</time></trkpt><trkpt lat="44.53159330389196" lon="9.997343283431299"><ele>938.3333333333334</ele><time>2026-04-19T08:13:39Z</time></trkpt><trkpt lat="44.53157441584783" lon="9.997111569379463"><ele>941.0</ele><time>2026-04-19T08:13:40Z</time></trkpt><trkpt lat="44.53153316956665" lon="9.996937390636514"><ele>941.0</ele><time>2026-04-19T08:13:41Z</time></trkpt><trkpt lat="44.531445487110034" lon="9.99682105184721"><ele>941.0</ele><time>2026-04-19T08:13:42Z</time></trkpt><trkpt lat="44.53131627641683" lon="9.996771470059798"><ele>941.0</ele><time>2026-04-19T08:13:43Z</time></trkpt><trkpt lat="44.531160113564475" lon="9.996806706668849"><ele>941.0</ele><time>2026-04-19T08:13:44Z</time></trkpt><trkpt lat="44.53099878528079" lon="9.996855336832601"><ele>941.6666666666667</ele><time>2026-04-19T08:13:45Z</time></trkpt><trkpt lat="44.530829717360625" lon="9.996857750195753"><ele>942.3333333333333</ele><time>2026-04-19T08:13:46Z</time></trkpt><trkpt lat="44.53067735433343" lon="9.996697919457274"><ele>943.0</ele><time>2026-04-19T08:13:47Z</time></trkpt><trkpt lat="44.53049158142735" lon="9.996545832740264"><ele>937.0</ele><time>2026-04-19T08:13:48Z</time></trkpt><trkpt lat="44.53029614591706" lon="9.996388026545786"><ele>931.0</ele><time>2026-04-19T08:13:49Z</time></trkpt><trkpt lat="44.53009710818271" lon="9.996223946949955"><ele>931.0</ele><time>2026-04-19T08:13:50Z</time></trkpt><trkpt lat="44.52989069890592" lon="9.996054570405247"><ele>931.0</ele><time>2026-04-19T08:13:51Z</time></trkpt><trkpt lat="44.529715048014225" lon="9.995894325583164"><ele>931.0</ele><time>2026-04-19T08:13:52Z</time></trkpt><trkpt lat="44.52955225564114" lon="9.995754094612703"><ele>933.0</ele><time>2026-04-19T08:13:53Z</time></trkpt><trkpt lat="44.52939785783829" lon="9.995662221770619"><ele>935.0</ele><time>2026-04-19T08:13:54Z</time></trkpt><trkpt lat="44.529238113468814" lon="9.995646599584132"><ele>937.0</ele><time>2026-04-19T08:13:55Z</time></trkpt><trkpt lat="44.52907501511003" lon="9.99575702894752"><ele>932.3333333333333</ele><time>2026-04-19T08:13:56Z</time></trkpt><trkpt lat="44.52893014871547" lon="9.995922560133495"><ele>927.6666666666667</ele><time>2026-04-19T08:13:57Z</time></trkpt><trkpt lat="44.52879847148527" lon="9.995952271316359"><ele>923.0</ele><time>2026-04-19T08:13:58Z</time></trkpt><trkpt lat="44.52866897411531" lon="9.995922778992522"><ele>924.3333333333334</ele><time>2026-04-19T08:13:59Z</time></trkpt><trkpt lat="44.52853757390672" lon="9.995804863811525"><ele>925.6666666666667</ele><time>2026-04-19T08:14:00Z</time></trkpt><trkpt lat="44.528397441120404" lon="9.995613722128875"><ele>927.0</ele><time>2026-04-19T08:14:01Z</time></trkpt><trkpt lat="44.52824437957774" lon="9.995432859422182"><ele>927.0</ele><time>2026-04-19T08:14:02Z</time></trkpt><trkpt lat="44.52807007280725" lon="9.995276358602752"><ele>927.0</ele><time>2026-04-19T08:14:03Z</time></trkpt><trkpt lat="44.52786274334691" lon="9.995183095079415"><ele>927.0</ele><time>2026-04-19T08:14:04Z</time></trkpt><trkpt lat="44.527644863320035" lon="9.995137248087486"><ele>928.0</ele><time>2026-04-19T08:14:05Z</time></trkpt><trkpt lat="44.527433858645274" lon="9.9950976783926"><ele>929.0</ele><time>2026-04-19T08:14:06Z</time></trkpt><trkpt lat="44.527259887136346" lon="9.994970830846963"><ele>930.0</ele><time>2026-04-19T08:14:07Z</time></trkpt><trkpt lat="44.527132035189275" lon="9.994792468426562"><ele>926.0</ele><time>2026-04-19T08:14:08Z</time></trkpt><trkpt lat="44.527016873707396" lon="9.994586358035592"><ele>922.0</ele><time>2026-04-19T08:14:09Z</time></trkpt><trkpt lat="44.52691549440435" lon="9.99438155044918"><ele>918.0</ele><time>2026-04-19T08:14:10Z</time></trkpt><trkpt lat="44.52678945773524" lon="9.994255494419358"><ele>918.0</ele><time>2026-04-19T08:14:11Z</time></trkpt><trkpt lat="44.52662611285282" lon="9.994222001707037"><ele>918.0</ele><time>2026-04-19T08:14:12Z</time></trkpt><trkpt lat="44.52642927423916" lon="9.99428681487888"><ele>918.0</ele><time>2026-04-19T08:14:13Z</time></trkpt><trkpt lat="44.52623055105827" lon="9.994447853298757"><ele>918.6666666666667</ele><time>2026-04-19T08:14:14Z</time></trkpt><trkpt lat="44.52606519384542" lon="9.994619966284116"><ele>919.3333333333334</ele><time>2026-04-19T08:14:15Z</time></trkpt><trkpt lat="44.52591140789563" lon="9.994738037875397"><ele>920.0</ele><time>2026-04-19T08:14:16Z</time></trkpt><trkpt lat="44.52575480950013" lon="9.994804033485238"><ele>920.0</ele><time>2026-04-19T08:14:17Z</time></trkpt><trkpt lat="44.525583121387335" lon="9.994824905509905"><ele>920.0</ele><time>2026-04-19T08:14:18Z</time></trkpt><trkpt lat="44.525398378130234" lon="9.994829702731874"><ele>920.0</ele><time>2026-04-19T08:14:19Z</time></trkpt><trkpt lat="44.52520682028767" lon="9.994834887971267"><ele>921.3333333333334</ele><time>2026-04-19T08:14:20Z</time></trkpt><trkpt lat="44.52502279248321" lon="9.994841474919875"><ele>922.6666666666667</ele><time>2026-04-19T08:14:21Z</time></trkpt><trkpt lat="44.524857251334545" lon="9.994860675378487"><ele>924.0</ele><time>2026-04-19T08:14:22Z</time></trkpt><trkpt lat="44.52470707783834" lon="9.994935401369005"><ele>921.6666666666667</ele><time>2026-04-19T08:14:23Z</time></trkpt><trkpt lat="44.52458000199451" lon="9.995103719221103"><ele>919.3333333333334</ele><time>2026-04-19T08:14:24Z</time></trkpt><trkpt lat="44.52449715821127" lon="9.995344206476451"><ele>917.0</ele><time>2026-04-19T08:14:25Z</time></trkpt><trkpt lat="44.52440334328946" lon="9.995535067249003"><ele>917.0</ele><time>2026-04-19T08:14:26Z</time></trkpt><trkpt lat="44.524277413476135" lon="9.995640357559076"><ele>917.0</ele><time>2026-04-19T08:14:27Z</time></trkpt><trkpt lat="44.52412455524399" lon="9.995675317547933"><ele>917.0</ele><time>2026-04-19T08:14:28Z</time></trkpt><trkpt lat="44.52394189203646" lon="9.995700917694048"><ele>917.0</ele><time>2026-04-19T08:14:29Z</time></trkpt><trkpt lat="44.523752306823205" lon="9.99567421883081"><ele>917.0</ele><time>2026-04-19T08:14:30Z</time></trkpt><trkpt lat="44.52357134884634" lon="9.995681471710618"><ele>917.0</ele><time>2026-04-19T08:14:31Z</time></trkpt><trkpt lat="44.5233939266166" lon="9.995693224592593"><ele>917.6666666666667</ele><time>2026-04-19T08:14:32Z</time></trkpt><trkpt lat="44.523216626331084" lon="9.995701850730565"><ele>918.3333333333333</ele><time>2026-04-19T08:14:33Z</time></trkpt><trkpt lat="44.523041661789996" lon="9.995716713005134"><ele>919.0</ele><time>2026-04-19T08:14:34Z</time></trkpt><trkpt lat="44.522866431768875" lon="9.995725321407853"><ele>917.3333333333333</ele><time>2026-04-19T08:14:35Z</time></trkpt><trkpt lat="44.522696031063305" lon="9.995728234162504"><ele>915.6666666666667</ele><time>2026-04-19T08:14:36Z</time></trkpt><trkpt lat="44.52252717106178" lon="9.995719817133393"><ele>914.0</ele><time>2026-04-19T08:14:37Z</time></trkpt><trkpt lat="44.522365173638036" lon="9.995686213578345"><ele>914.0</ele><time>2026-04-19T08:14:38Z</time></trkpt><trkpt lat="44.52221294442472" lon="9.995559668340961"><ele>914.0</ele><time>2026-04-19T08:14:39Z</time></trkpt><trkpt lat="44.52207096039865" lon="9.995363789530264"><ele>914.0</ele><time>2026-04-19T08:14:40Z</time></trkpt><trkpt lat="44.52191716124251" lon="9.995142039225135"><ele>909.0</ele><time>2026-04-19T08:14:41Z</time></trkpt><trkpt lat="44.52176483941171" lon="9.994906797516967"><ele>904.0</ele><time>2026-04-19T08:14:42Z</time></trkpt><trkpt lat="44.52157819906602" lon="9.994726657792896"><ele>904.0</ele><time>2026-04-19T08:14:43Z</time></trkpt><trkpt lat="44.52139142978235" lon="9.994564781601516"><ele>904.0</ele><time>2026-04-19T08:14:44Z</time></trkpt><trkpt lat="44.52122691995306" lon="9.994423747477018"><ele>904.0</ele><time>2026-04-19T08:14:45Z</time></trkpt><trkpt lat="44.52110433356315" lon="9.994312409657182"><ele>902.4999999999999</ele><time>2026-04-19T08:14:46Z</time></trkpt><trkpt lat="44.52100772414362" lon="9.994221744184076"><ele>901.0</ele><time>2026-04-19T08:14:47Z</time></trkpt><trkpt lat="44.52094054142836" lon="9.994149595313615"><ele>899.5</ele><time>2026-04-19T08:14:48Z</time></trkpt><trkpt lat="44.520931706547024" lon="9.99403760830683"><ele>898.0</ele><time>2026-04-19T08:14:56.999Z</time></trkpt><trkpt lat="44.52101015935061" lon="9.994026411010374"><ele>896.4999999999999</ele><time>2026-04-19T08:14:58.999Z</time></trkpt><trkpt lat="44.52105981107207" lon="9.993971774889603"><ele>895.0</ele><time>2026-04-19T08:15:00.999Z</time></trkpt><trkpt lat="44.52100216338684" lon="9.994033351377034"><ele>895.0</ele><time>2026-04-19T08:17:30.999Z</time></trkpt><trkpt lat="44.52094167781703" lon="9.994085852586378"><ele>895.0</ele><time>2026-04-19T08:17:33.999Z</time></trkpt><trkpt lat="44.520772040401845" lon="9.994065346049931"><ele>895.0</ele><time>2026-04-19T08:17:37.999Z</time></trkpt><trkpt lat="44.52066191474556" lon="9.994047448218897"><ele>895.0</ele><time>2026-04-19T08:17:38.999Z</time></trkpt><trkpt lat="44.52052181545603" lon="9.994042006045074"><ele>893.3333333333333</ele><time>2026-04-19T08:17:39.999Z</time></trkpt><trkpt lat="44.52037005014385" lon="9.994037053622082"><ele>891.6666666666667</ele><time>2026-04-19T08:17:40.999Z</time></trkpt><trkpt lat="44.52020572356394" lon="9.994031610384638"><ele>890.0</ele><time>2026-04-19T08:17:41.999Z</time></trkpt><trkpt lat="44.520013409301576" lon="9.994035479977713"><ele>890.0</ele><time>2026-04-19T08:17:42.999Z</time></trkpt><trkpt lat="44.519824729769546" lon="9.994026613458148"><ele>890.0</ele><time>2026-04-19T08:17:43.999Z</time></trkpt><trkpt lat="44.51964073400634" lon="9.994006743223162"><ele>890.0</ele><time>2026-04-19T08:17:44.999Z</time></trkpt><trkpt lat="44.51945809372057" lon="9.993966260679226"><ele>889.6666666666667</ele><time>2026-04-19T08:17:45.999Z</time></trkpt><trkpt lat="44.51929151334876" lon="9.993904120521412"><ele>889.3333333333333</ele><time>2026-04-19T08:17:46.999Z</time></trkpt><trkpt lat="44.519138199792295" lon="9.99386803127937"><ele>889.0</ele><time>2026-04-19T08:17:47.999Z</time></trkpt><trkpt lat="44.51898064994804" lon="9.99385940633867"><ele>889.0</ele><time>2026-04-19T08:17:48.999Z</time></trkpt><trkpt lat="44.51878793573821" lon="9.993864473909609"><ele>889.0</ele><time>2026-04-19T08:17:49.999Z</time></trkpt><trkpt lat="44.51859962094161" lon="9.993880560311874"><ele>889.0</ele><time>2026-04-19T08:17:51Z</time></trkpt><trkpt lat="44.51842797034752" lon="9.993980303606051"><ele>888.3333333333333</ele><time>2026-04-19T08:17:52Z</time></trkpt><trkpt lat="44.518266113250434" lon="9.994153345619853"><ele>887.6666666666667</ele><time>2026-04-19T08:17:53Z</time></trkpt><trkpt lat="44.518091863717686" lon="9.994382082491178"><ele>887.0</ele><time>2026-04-19T08:17:54Z</time></trkpt><trkpt lat="44.51790805039732" lon="9.99458952073345"><ele>887.6666666666667</ele><time>2026-04-19T08:17:55Z</time></trkpt><trkpt lat="44.51772921875624" lon="9.994789084865163"><ele>888.3333333333333</ele><time>2026-04-19T08:17:56Z</time></trkpt><trkpt lat="44.51756920639501" lon="9.994978786530838"><ele>889.0</ele><time>2026-04-19T08:17:57Z</time></trkpt><trkpt lat="44.51741139483748" lon="9.995178579542229"><ele>885.0</ele><time>2026-04-19T08:17:58Z</time></trkpt><trkpt lat="44.51727715181434" lon="9.995405151321863"><ele>881.0</ele><time>2026-04-19T08:17:59Z</time></trkpt><trkpt lat="44.51717810104348" lon="9.995665804168311"><ele>877.0</ele><time>2026-04-19T08:18:00Z</time></trkpt><trkpt lat="44.51709699271432" lon="9.995908588759201"><ele>876.75</ele><time>2026-04-19T08:18:01Z</time></trkpt><trkpt lat="44.516994947610314" lon="9.996040660199936"><ele>876.5</ele><time>2026-04-19T08:18:02Z</time></trkpt><trkpt lat="44.516882597699" lon="9.996117884685782"><ele>876.25</ele><time>2026-04-19T08:18:03Z</time></trkpt><trkpt lat="44.516737409249885" lon="9.9960972268364"><ele>876.0</ele><time>2026-04-19T08:18:04Z</time></trkpt><trkpt lat="44.51654649148802" lon="9.996081893041294"><ele>876.0</ele><time>2026-04-19T08:18:05Z</time></trkpt><trkpt lat="44.51634845631964" lon="9.99605937776399"><ele>876.0</ele><time>2026-04-19T08:18:06Z</time></trkpt><trkpt lat="44.51614161137892" lon="9.996039270735977"><ele>876.0</ele><time>2026-04-19T08:18:07Z</time></trkpt><trkpt lat="44.5159316970865" lon="9.996022452263096"><ele>874.6666666666667</ele><time>2026-04-19T08:18:08Z</time></trkpt><trkpt lat="44.5157140294851" lon="9.996004048821533"><ele>873.3333333333334</ele><time>2026-04-19T08:18:09Z</time></trkpt><trkpt lat="44.51549246257547" lon="9.995983854157796"><ele>872.0</ele><time>2026-04-19T08:18:10Z</time></trkpt><trkpt lat="44.51526761698662" lon="9.995958189008144"><ele>869.0</ele><time>2026-04-19T08:18:11Z</time></trkpt><trkpt lat="44.51503279162335" lon="9.995924652306964"><ele>866.0</ele><time>2026-04-19T08:18:12Z</time></trkpt><trkpt lat="44.51479766703574" lon="9.995891310096216"><ele>865.0</ele><time>2026-04-19T08:18:13Z</time></trkpt><trkpt lat="44.514561013114765" lon="9.995858131974298"><ele>864.0</ele><time>2026-04-19T08:18:14Z</time></trkpt><trkpt lat="44.514328854224544" lon="9.99582397102988"><ele>865.0</ele><time>2026-04-19T08:18:15Z</time></trkpt><trkpt lat="44.51411429400861" lon="9.995801098031878"><ele>866.0</ele><time>2026-04-19T08:18:16Z</time></trkpt><trkpt lat="44.513902836919165" lon="9.995834041411426"><ele>867.0</ele><time>2026-04-19T08:18:17Z</time></trkpt><trkpt lat="44.513681384761206" lon="9.995932977749636"><ele>867.0</ele><time>2026-04-19T08:18:18Z</time></trkpt><trkpt lat="44.51345240194765" lon="9.996047373466013"><ele>867.0</ele><time>2026-04-19T08:18:19Z</time></trkpt><trkpt lat="44.51326000181786" lon="9.99611665508546"><ele>867.0</ele><time>2026-04-19T08:18:20Z</time></trkpt><trkpt lat="44.51309174268848" lon="9.996174256976355"><ele>877.0</ele><time>2026-04-19T08:18:21Z</time></trkpt><trkpt lat="44.51286313288148" lon="9.996345708313582"><ele>887.0</ele><time>2026-04-19T08:18:22Z</time></trkpt><trkpt lat="44.512708469002135" lon="9.996548416186217"><ele>879.5</ele><time>2026-04-19T08:18:23Z</time></trkpt><trkpt lat="44.512608709213" lon="9.9968553949"><ele>872.0</ele><time>2026-04-19T08:18:24Z</time></trkpt><trkpt lat="44.512519305578955" lon="9.997162253608492"><ele>872.0</ele><time>2026-04-19T08:18:25Z</time></trkpt><trkpt lat="44.5124228306727" lon="9.997428390059492"><ele>872.0</ele><time>2026-04-19T08:18:26Z</time></trkpt><trkpt lat="44.51232729029818" lon="9.997653471101419"><ele>872.0</ele><time>2026-04-19T08:18:27Z</time></trkpt><trkpt lat="44.51221304310645" lon="9.99782434610725"><ele>868.3333333333334</ele><time>2026-04-19T08:18:28Z</time></trkpt><trkpt lat="44.51206031764952" lon="9.997961283601207"><ele>864.6666666666667</ele><time>2026-04-19T08:18:29Z</time></trkpt><trkpt lat="44.51185072415471" lon="9.998028859684043"><ele>861.0</ele><time>2026-04-19T08:18:30Z</time></trkpt><trkpt lat="44.51166533838293" lon="9.998062219737418"><ele>861.0</ele><time>2026-04-19T08:18:31Z</time></trkpt><trkpt lat="44.51147539406037" lon="9.998035462538695"><ele>861.0</ele><time>2026-04-19T08:18:32Z</time></trkpt><trkpt lat="44.51131114182615" lon="9.997937710882818"><ele>861.0</ele><time>2026-04-19T08:18:33Z</time></trkpt><trkpt lat="44.511156764394705" lon="9.997768741678282"><ele>860.3333333333333</ele><time>2026-04-19T08:18:34Z</time></trkpt><trkpt lat="44.51100037896365" lon="9.997557041318883"><ele>859.6666666666666</ele><time>2026-04-19T08:18:35Z</time></trkpt><trkpt lat="44.510901785095335" lon="9.997322650571217"><ele>859.0</ele><time>2026-04-19T08:18:36Z</time></trkpt><trkpt lat="44.51084565773723" lon="9.99703908595861"><ele>859.0</ele><time>2026-04-19T08:18:37Z</time></trkpt><trkpt lat="44.510768086368145" lon="9.996738590711129"><ele>859.0</ele><time>2026-04-19T08:18:38Z</time></trkpt><trkpt lat="44.5106480691201" lon="9.99648464261917"><ele>859.0</ele><time>2026-04-19T08:18:39Z</time></trkpt><trkpt lat="44.510468796230455" lon="9.996225090652992"><ele>856.3333333333333</ele><time>2026-04-19T08:18:40Z</time></trkpt><trkpt lat="44.51031313156669" lon="9.996003002808148"><ele>853.6666666666667</ele><time>2026-04-19T08:18:41Z</time></trkpt><trkpt lat="44.51014831340528" lon="9.995842816717815"><ele>851.0</ele><time>2026-04-19T08:18:42Z</time></trkpt><trkpt lat="44.50997194935062" lon="9.995736072831857"><ele>851.0</ele><time>2026-04-19T08:18:43Z</time></trkpt><trkpt lat="44.50987223838553" lon="9.995559987447393"><ele>851.0</ele><time>2026-04-19T08:18:44Z</time></trkpt><trkpt lat="44.50982075869464" lon="9.995306445239375"><ele>851.0</ele><time>2026-04-19T08:18:45Z</time></trkpt><trkpt lat="44.5097378653818" lon="9.995027682342727"><ele>853.6666666666667</ele><time>2026-04-19T08:18:46Z</time></trkpt><trkpt lat="44.50966402820506" lon="9.994810146720676"><ele>856.3333333333333</ele><time>2026-04-19T08:18:47Z</time></trkpt><trkpt lat="44.509534794314725" lon="9.994678420673285"><ele>859.0</ele><time>2026-04-19T08:18:48Z</time></trkpt><trkpt lat="44.509347339796825" lon="9.994644390484085"><ele>852.3333333333333</ele><time>2026-04-19T08:18:49Z</time></trkpt><trkpt lat="44.50914065153286" lon="9.994658612689559"><ele>845.6666666666667</ele><time>2026-04-19T08:18:50Z</time></trkpt><trkpt lat="44.50898653565744" lon="9.99458668694218"><ele>839.0</ele><time>2026-04-19T08:18:51Z</time></trkpt><trkpt lat="44.508832029024035" lon="9.99446806813216"><ele>837.3333333333334</ele><time>2026-04-19T08:18:52Z</time></trkpt><trkpt lat="44.508634797934114" lon="9.994362349624213"><ele>835.6666666666667</ele><time>2026-04-19T08:18:53Z</time></trkpt><trkpt lat="44.50851861040693" lon="9.994103002710828"><ele>834.0</ele><time>2026-04-19T08:18:54Z</time></trkpt><trkpt lat="44.50843508188411" lon="9.993901379178874"><ele>834.0</ele><time>2026-04-19T08:18:55Z</time></trkpt><trkpt lat="44.50836994489901" lon="9.993652602289083"><ele>834.0</ele><time>2026-04-19T08:18:56Z</time></trkpt><trkpt lat="44.50829697077504" lon="9.993404749723805"><ele>834.0</ele><time>2026-04-19T08:18:57Z</time></trkpt><trkpt lat="44.508226835666875" lon="9.993184257052887"><ele>836.75</ele><time>2026-04-19T08:18:58Z</time></trkpt><trkpt lat="44.508169378976866" lon="9.992982737130493"><ele>839.5</ele><time>2026-04-19T08:18:59Z</time></trkpt><trkpt lat="44.50811241050281" lon="9.992797694831944"><ele>842.25</ele><time>2026-04-19T08:18:59.999Z</time></trkpt><trkpt lat="44.508043526838804" lon="9.992636916716327"><ele>845.0</ele><time>2026-04-19T08:19:00.999Z</time></trkpt><trkpt lat="44.50794722862003" lon="9.992514618072114"><ele>844.5</ele><time>2026-04-19T08:19:01.999Z</time></trkpt><trkpt lat="44.50782982766764" lon="9.992397913956138"><ele>844.0</ele><time>2026-04-19T08:19:02.999Z</time></trkpt><trkpt lat="44.50770166716419" lon="9.992289851223457"><ele>843.5</ele><time>2026-04-19T08:19:03.999Z</time></trkpt><trkpt lat="44.507578312420364" lon="9.992164968944483"><ele>843.0</ele><time>2026-04-19T08:19:04.999Z</time></trkpt><trkpt lat="44.507458770255255" lon="9.99204367306641"><ele>843.0</ele><time>2026-04-19T08:19:05.999Z</time></trkpt><trkpt lat="44.5073550077018" lon="9.991944169219368"><ele>843.0</ele><time>2026-04-19T08:19:06.999Z</time></trkpt><trkpt lat="44.50726269438078" lon="9.991849269225751"><ele>843.0</ele><time>2026-04-19T08:19:07.999Z</time></trkpt><trkpt lat="44.50718593465852" lon="9.991767597937677"><ele>843.0</ele><time>2026-04-19T08:19:08.999Z</time></trkpt><trkpt lat="44.507117986746145" lon="9.991698114098892"><ele>843.0</ele><time>2026-04-19T08:19:09.999Z</time></trkpt><trkpt lat="44.50705918304487" lon="9.991627457116627"><ele>843.0</ele><time>2026-04-19T08:19:10.999Z</time></trkpt><trkpt lat="44.507011694732384" lon="9.991554568926624"><ele>843.0</ele><time>2026-04-19T08:19:11.999Z</time></trkpt><trkpt lat="44.506962495456776" lon="9.991496438900597"><ele>843.0</ele><time>2026-04-19T08:19:12.999Z</time></trkpt><trkpt lat="44.506869727531004" lon="9.991392822297476"><ele>843.0</ele><time>2026-04-19T08:19:14.999Z</time></trkpt><trkpt lat="44.506812344804885" lon="9.991322398383758"><ele>843.0</ele><time>2026-04-19T08:19:15.999Z</time></trkpt><trkpt lat="44.50674363156838" lon="9.991235296109389"><ele>843.0</ele><time>2026-04-19T08:19:16.999Z</time></trkpt><trkpt lat="44.506647915406425" lon="9.991131356142835"><ele>843.0</ele><time>2026-04-19T08:19:17.999Z</time></trkpt><trkpt lat="44.50656657221605" lon="9.991014718812474"><ele>843.0</ele><time>2026-04-19T08:19:18.999Z</time></trkpt><trkpt lat="44.50647639623973" lon="9.990885276813326"><ele>843.0</ele><time>2026-04-19T08:19:19.999Z</time></trkpt><trkpt lat="44.506384784567466" lon="9.990727952570332"><ele>843.0</ele><time>2026-04-19T08:19:20.999Z</time></trkpt><trkpt lat="44.50632962067441" lon="9.990546844876622"><ele>842.3333333333333</ele><time>2026-04-19T08:19:21.999Z</time></trkpt><trkpt lat="44.50624508381246" lon="9.990359024000625"><ele>841.6666666666666</ele><time>2026-04-19T08:19:22.999Z</time></trkpt><trkpt lat="44.506170316720144" lon="9.990173486543977"><ele>841.0</ele><time>2026-04-19T08:19:23.999Z</time></trkpt><trkpt lat="44.50607534198344" lon="9.990002675109565"><ele>842.6666666666666</ele><time>2026-04-19T08:19:24.999Z</time></trkpt><trkpt lat="44.50594652709638" lon="9.989850831040926"><ele>844.3333333333333</ele><time>2026-04-19T08:19:25.999Z</time></trkpt><trkpt lat="44.50581370949236" lon="9.989718215235218"><ele>846.0</ele><time>2026-04-19T08:19:26.999Z</time></trkpt><trkpt lat="44.50568627079811" lon="9.989580188770613"><ele>846.0</ele><time>2026-04-19T08:19:27.999Z</time></trkpt><trkpt lat="44.50555409139876" lon="9.989436633100228"><ele>846.0</ele><time>2026-04-19T08:19:28.999Z</time></trkpt><trkpt lat="44.5054316762443" lon="9.989287449140688"><ele>846.0</ele><time>2026-04-19T08:19:29.999Z</time></trkpt><trkpt lat="44.505311278825836" lon="9.989154674240247"><ele>847.0</ele><time>2026-04-19T08:19:30.999Z</time></trkpt><trkpt lat="44.505190816239306" lon="9.989038026904687"><ele>848.0</ele><time>2026-04-19T08:19:31.999Z</time></trkpt><trkpt lat="44.50505535546029" lon="9.988958127708482"><ele>849.0</ele><time>2026-04-19T08:19:32.999Z</time></trkpt><trkpt lat="44.50489215127631" lon="9.988938549530069"><ele>849.0</ele><time>2026-04-19T08:19:33.999Z</time></trkpt><trkpt lat="44.50469429492215" lon="9.988952302502828"><ele>849.0</ele><time>2026-04-19T08:19:34.999Z</time></trkpt><trkpt lat="44.504505530431366" lon="9.988954258922869"><ele>849.0</ele><time>2026-04-19T08:19:35.999Z</time></trkpt><trkpt lat="44.50432986536867" lon="9.98891482214138"><ele>850.3333333333333</ele><time>2026-04-19T08:19:36.999Z</time></trkpt><trkpt lat="44.50415959936174" lon="9.988865316903276"><ele>851.6666666666666</ele><time>2026-04-19T08:19:37.999Z</time></trkpt><trkpt lat="44.50399916531404" lon="9.98877197179861"><ele>853.0</ele><time>2026-04-19T08:19:38.999Z</time></trkpt><trkpt lat="44.50383561231441" lon="9.988641784563384"><ele>853.3333333333333</ele><time>2026-04-19T08:19:39.999Z</time></trkpt><trkpt lat="44.5036848639058" lon="9.988493048064493"><ele>853.6666666666667</ele><time>2026-04-19T08:19:40.999Z</time></trkpt><trkpt lat="44.50353541878091" lon="9.988345176081692"><ele>854.0</ele><time>2026-04-19T08:19:41.999Z</time></trkpt><trkpt lat="44.50343244558306" lon="9.988139091703548"><ele>854.0</ele><time>2026-04-19T08:19:42.999Z</time></trkpt><trkpt lat="44.503321130255586" lon="9.987938982990096"><ele>854.0</ele><time>2026-04-19T08:19:43.999Z</time></trkpt><trkpt lat="44.5032353485947" lon="9.987730251337341"><ele>854.0</ele><time>2026-04-19T08:19:44.999Z</time></trkpt><trkpt lat="44.50315047865712" lon="9.987549116934204"><ele>853.75</ele><time>2026-04-19T08:19:45.999Z</time></trkpt><trkpt lat="44.50305650457882" lon="9.98741732609454"><ele>853.5</ele><time>2026-04-19T08:19:46.999Z</time></trkpt><trkpt lat="44.502932610514385" lon="9.987356818622498"><ele>853.25</ele><time>2026-04-19T08:19:47.999Z</time></trkpt><trkpt lat="44.502788598358904" lon="9.987375613036958"><ele>853.0</ele><time>2026-04-19T08:19:48.999Z</time></trkpt><trkpt lat="44.50261771642188" lon="9.987456514365789"><ele>853.0</ele><time>2026-04-19T08:19:49.999Z</time></trkpt><trkpt lat="44.50244196590924" lon="9.987517415677365"><ele>853.0</ele><time>2026-04-19T08:19:50.999Z</time></trkpt><trkpt lat="44.50228720875217" lon="9.98750353865288"><ele>853.0</ele><time>2026-04-19T08:19:51.999Z</time></trkpt><trkpt lat="44.502163101705726" lon="9.98744414800436"><ele>853.0</ele><time>2026-04-19T08:19:52.999Z</time></trkpt><trkpt lat="44.50207948540343" lon="9.987317667093798"><ele>853.0</ele><time>2026-04-19T08:19:53.999Z</time></trkpt><trkpt lat="44.50206171634045" lon="9.98713895653231"><ele>853.0</ele><time>2026-04-19T08:19:54.999Z</time></trkpt><trkpt lat="44.502113553303225" lon="9.986958533194343"><ele>853.0</ele><time>2026-04-19T08:19:55.999Z</time></trkpt><trkpt lat="44.502171261169806" lon="9.986748618281126"><ele>851.5</ele><time>2026-04-19T08:19:57Z</time></trkpt><trkpt lat="44.50224831714367" lon="9.986571028645805"><ele>850.0</ele><time>2026-04-19T08:19:58Z</time></trkpt><trkpt lat="44.502262168234616" lon="9.986375108224358"><ele>848.5</ele><time>2026-04-19T08:19:59Z</time></trkpt><trkpt lat="44.502208134145334" lon="9.986168245556723"><ele>847.0</ele><time>2026-04-19T08:20:00Z</time></trkpt><trkpt lat="44.50207753000753" lon="9.985936217921326"><ele>851.3333333333333</ele><time>2026-04-19T08:20:01Z</time></trkpt><trkpt lat="44.501938687645335" lon="9.985715793592739"><ele>855.6666666666667</ele><time>2026-04-19T08:20:02Z</time></trkpt><trkpt lat="44.50177803144209" lon="9.985543550274235"><ele>860.0</ele><time>2026-04-19T08:20:03Z</time></trkpt><trkpt lat="44.501620899578654" lon="9.985425709667126"><ele>860.0</ele><time>2026-04-19T08:20:04Z</time></trkpt><trkpt lat="44.501513749814826" lon="9.985272392555082"><ele>860.0</ele><time>2026-04-19T08:20:05Z</time></trkpt><trkpt lat="44.501454684828246" lon="9.985099796273108"><ele>860.0</ele><time>2026-04-19T08:20:06Z</time></trkpt><trkpt lat="44.50144427499523" lon="9.984922803757994"><ele>860.0</ele><time>2026-04-19T08:20:07Z</time></trkpt><trkpt lat="44.50150135832822" lon="9.984741843050848"><ele>859.3333333333334</ele><time>2026-04-19T08:20:08Z</time></trkpt><trkpt lat="44.50160080580636" lon="9.984530222529832"><ele>858.6666666666667</ele><time>2026-04-19T08:20:09Z</time></trkpt><trkpt lat="44.50173410822218" lon="9.984307817431496"><ele>858.0</ele><time>2026-04-19T08:20:10Z</time></trkpt><trkpt lat="44.50180375294429" lon="9.984069864021485"><ele>860.3333333333333</ele><time>2026-04-19T08:20:11Z</time></trkpt><trkpt lat="44.50188387849527" lon="9.983769061817842"><ele>862.6666666666666</ele><time>2026-04-19T08:20:12Z</time></trkpt><trkpt lat="44.501918328353405" lon="9.98350241151471"><ele>865.0</ele><time>2026-04-19T08:20:13Z</time></trkpt><trkpt lat="44.501897495599096" lon="9.98322805616331"><ele>865.0</ele><time>2026-04-19T08:20:14Z</time></trkpt><trkpt lat="44.501808291068926" lon="9.982925848284527"><ele>865.0</ele><time>2026-04-19T08:20:15Z</time></trkpt><trkpt lat="44.50173824823288" lon="9.982643950941956"><ele>865.0</ele><time>2026-04-19T08:20:16Z</time></trkpt><trkpt lat="44.50166565353006" lon="9.982438665897917"><ele>862.3333333333333</ele><time>2026-04-19T08:20:17Z</time></trkpt><trkpt lat="44.50153740579364" lon="9.982312432844612"><ele>859.6666666666667</ele><time>2026-04-19T08:20:18Z</time></trkpt><trkpt lat="44.50134267355804" lon="9.982250562266737"><ele>857.0</ele><time>2026-04-19T08:20:19Z</time></trkpt><trkpt lat="44.50112102881426" lon="9.982183240108021"><ele>857.6666666666667</ele><time>2026-04-19T08:20:20Z</time></trkpt><trkpt lat="44.50094153018944" lon="9.982021138854272"><ele>858.3333333333333</ele><time>2026-04-19T08:20:21Z</time></trkpt><trkpt lat="44.50076173195845" lon="9.981838205794679"><ele>859.0</ele><time>2026-04-19T08:20:22Z</time></trkpt><trkpt lat="44.50059818818368" lon="9.981627412093747"><ele>859.0</ele><time>2026-04-19T08:20:23Z</time></trkpt><trkpt lat="44.500421527740485" lon="9.981418057935322"><ele>859.0</ele><time>2026-04-19T08:20:24Z</time></trkpt><trkpt lat="44.50028202462089" lon="9.981151088228179"><ele>862.3333333333333</ele><time>2026-04-19T08:20:25Z</time></trkpt><trkpt lat="44.500138442075965" lon="9.980928511870092"><ele>865.6666666666667</ele><time>2026-04-19T08:20:26Z</time></trkpt><trkpt lat="44.500056956098746" lon="9.980692906459309"><ele>869.0</ele><time>2026-04-19T08:20:27Z</time></trkpt><trkpt lat="44.50005573077347" lon="9.980450698074373"><ele>869.0</ele><time>2026-04-19T08:20:28Z</time></trkpt><trkpt lat="44.50008091289533" lon="9.980162076760925"><ele>869.0</ele><time>2026-04-19T08:20:29Z</time></trkpt><trkpt lat="44.500115105332206" lon="9.979851177221178"><ele>869.0</ele><time>2026-04-19T08:20:30Z</time></trkpt><trkpt lat="44.500102816990264" lon="9.979594736025918"><ele>868.0</ele><time>2026-04-19T08:20:31Z</time></trkpt><trkpt lat="44.50001211569453" lon="9.979323358129099"><ele>867.0</ele><time>2026-04-19T08:20:32Z</time></trkpt><trkpt lat="44.499886978901344" lon="9.979031257014043"><ele>866.0</ele><time>2026-04-19T08:20:33Z</time></trkpt><trkpt lat="44.499779675722976" lon="9.978714958777747"><ele>865.0</ele><time>2026-04-19T08:20:34Z</time></trkpt><trkpt lat="44.49977564607435" lon="9.97844407907434"><ele>864.0</ele><time>2026-04-19T08:20:35Z</time></trkpt><trkpt lat="44.499793636308816" lon="9.97813001740728"><ele>863.5</ele><time>2026-04-19T08:20:36Z</time></trkpt><trkpt lat="44.49982033789524" lon="9.977840343548644"><ele>863.0</ele><time>2026-04-19T08:20:37Z</time></trkpt><trkpt lat="44.499821651248844" lon="9.977458729981352"><ele>862.0</ele><time>2026-04-19T08:20:38Z</time></trkpt><trkpt lat="44.499777849418656" lon="9.977137168596302"><ele>861.0</ele><time>2026-04-19T08:20:39Z</time></trkpt><trkpt lat="44.499674254902" lon="9.976907638050395"><ele>860.0</ele><time>2026-04-19T08:20:40Z</time></trkpt><trkpt lat="44.499554467569524" lon="9.976587325302217"><ele>867.3333333333334</ele><time>2026-04-19T08:20:41Z</time></trkpt><trkpt lat="44.49945721822888" lon="9.976283622662152"><ele>874.6666666666667</ele><time>2026-04-19T08:20:42Z</time></trkpt><trkpt lat="44.49939254206612" lon="9.976004294421614"><ele>882.0</ele><time>2026-04-19T08:20:43Z</time></trkpt><trkpt lat="44.49936154091356" lon="9.97573294856681"><ele>882.0</ele><time>2026-04-19T08:20:44Z</time></trkpt><trkpt lat="44.499353375587724" lon="9.975499653820963"><ele>882.0</ele><time>2026-04-19T08:20:45Z</time></trkpt><trkpt lat="44.499329229850446" lon="9.975336615316955"><ele>882.0</ele><time>2026-04-19T08:20:46Z</time></trkpt><trkpt lat="44.499262061207986" lon="9.975225553883977"><ele>882.0</ele><time>2026-04-19T08:20:47Z</time></trkpt><trkpt lat="44.499132979178974" lon="9.97518536897131"><ele>882.0</ele><time>2026-04-19T08:20:48Z</time></trkpt><trkpt lat="44.49894785128973" lon="9.975210039314124"><ele>882.0</ele><time>2026-04-19T08:20:49Z</time></trkpt><trkpt lat="44.49872700493902" lon="9.975219134735994"><ele>882.0</ele><time>2026-04-19T08:20:50Z</time></trkpt><trkpt lat="44.49849224082941" lon="9.97514357585969"><ele>876.5</ele><time>2026-04-19T08:20:51Z</time></trkpt><trkpt lat="44.49824877610957" lon="9.975032071054947"><ele>871.0</ele><time>2026-04-19T08:20:52Z</time></trkpt><trkpt lat="44.498002905531706" lon="9.974919488326417"><ele>880.3333333333333</ele><time>2026-04-19T08:20:53Z</time></trkpt><trkpt lat="44.4978220035087" lon="9.974747193471114"><ele>889.6666666666667</ele><time>2026-04-19T08:20:54Z</time></trkpt><trkpt lat="44.4976779687611" lon="9.974523624676554"><ele>899.0</ele><time>2026-04-19T08:20:55Z</time></trkpt><trkpt lat="44.49752968282923" lon="9.974287911119315"><ele>894.6666666666667</ele><time>2026-04-19T08:20:56Z</time></trkpt><trkpt lat="44.497387521460396" lon="9.974105196766427"><ele>890.3333333333333</ele><time>2026-04-19T08:20:57Z</time></trkpt><trkpt lat="44.49723117587282" lon="9.973966461780627"><ele>886.0</ele><time>2026-04-19T08:20:58Z</time></trkpt><trkpt lat="44.49701932147051" lon="9.973914187268504"><ele>886.0</ele><time>2026-04-19T08:20:59Z</time></trkpt><trkpt lat="44.496781748387356" lon="9.973900252673522"><ele>886.0</ele><time>2026-04-19T08:21:00Z</time></trkpt><trkpt lat="44.496567955883194" lon="9.973770245734968"><ele>886.0</ele><time>2026-04-19T08:21:01Z</time></trkpt><trkpt lat="44.49638874140006" lon="9.97369471149135"><ele>886.0</ele><time>2026-04-19T08:21:02Z</time></trkpt><trkpt lat="44.49607087395418" lon="9.97358011754103"><ele>893.0</ele><time>2026-04-19T08:21:03Z</time></trkpt><trkpt lat="44.49579963942564" lon="9.973534009030768"><ele>900.0</ele><time>2026-04-19T08:21:04Z</time></trkpt><trkpt lat="44.49556613697666" lon="9.973460113338854"><ele>892.5</ele><time>2026-04-19T08:21:05Z</time></trkpt><trkpt lat="44.495353598541854" lon="9.973366905924019"><ele>885.0</ele><time>2026-04-19T08:21:06Z</time></trkpt><trkpt lat="44.49514863472475" lon="9.973216814173323"><ele>885.0</ele><time>2026-04-19T08:21:07Z</time></trkpt><trkpt lat="44.49493659784767" lon="9.973096738969378"><ele>885.0</ele><time>2026-04-19T08:21:08Z</time></trkpt><trkpt lat="44.49472609059215" lon="9.972943269814301"><ele>893.3333333333333</ele><time>2026-04-19T08:21:09Z</time></trkpt><trkpt lat="44.49451088864247" lon="9.972807907962613"><ele>901.6666666666666</ele><time>2026-04-19T08:21:10Z</time></trkpt><trkpt lat="44.49432185442641" lon="9.972682685870055"><ele>910.0</ele><time>2026-04-19T08:21:11Z</time></trkpt><trkpt lat="44.494170969550986" lon="9.97254856440443"><ele>902.75</ele><time>2026-04-19T08:21:12Z</time></trkpt><trkpt lat="44.49406980238897" lon="9.972429256327166"><ele>895.5</ele><time>2026-04-19T08:21:13Z</time></trkpt><trkpt lat="44.494025985365596" lon="9.972258542794314"><ele>888.25</ele><time>2026-04-19T08:21:14Z</time></trkpt><trkpt lat="44.493988520170596" lon="9.972038473623616"><ele>881.0</ele><time>2026-04-19T08:21:15Z</time></trkpt><trkpt lat="44.49399846975595" lon="9.971824760644518"><ele>879.0</ele><time>2026-04-19T08:21:16Z</time></trkpt><trkpt lat="44.49405264070815" lon="9.971664786486176"><ele>877.0</ele><time>2026-04-19T08:21:16.999Z</time></trkpt><trkpt lat="44.49413578859158" lon="9.971507073508697"><ele>875.0</ele><time>2026-04-19T08:21:17.999Z</time></trkpt><trkpt lat="44.49419184655826" lon="9.971325386621098"><ele>873.0</ele><time>2026-04-19T08:21:18.999Z</time></trkpt><trkpt lat="44.4941747735098" lon="9.971105419553806"><ele>873.0</ele><time>2026-04-19T08:21:19.999Z</time></trkpt><trkpt lat="44.49411197904894" lon="9.970917125971276"><ele>873.0</ele><time>2026-04-19T08:21:20.999Z</time></trkpt><trkpt lat="44.493958989410906" lon="9.970768969541973"><ele>873.0</ele><time>2026-04-19T08:21:21.999Z</time></trkpt><trkpt lat="44.49375413260113" lon="9.97064234179406"><ele>879.3333333333333</ele><time>2026-04-19T08:21:22.999Z</time></trkpt><trkpt lat="44.49356375617044" lon="9.970502318860296"><ele>885.6666666666666</ele><time>2026-04-19T08:21:23.999Z</time></trkpt><trkpt lat="44.49341713893647" lon="9.970346275151435"><ele>892.0</ele><time>2026-04-19T08:21:24.999Z</time></trkpt><trkpt lat="44.49331404995158" lon="9.970151418450973"><ele>884.3333333333333</ele><time>2026-04-19T08:21:25.999Z</time></trkpt><trkpt lat="44.49325563734776" lon="9.969908686039853"><ele>876.6666666666667</ele><time>2026-04-19T08:21:26.999Z</time></trkpt><trkpt lat="44.49319913373046" lon="9.96964655623585"><ele>869.0</ele><time>2026-04-19T08:21:27.999Z</time></trkpt><trkpt lat="44.49312833622512" lon="9.96940430462505"><ele>869.6666666666667</ele><time>2026-04-19T08:21:28.999Z</time></trkpt><trkpt lat="44.4930570193342" lon="9.969168434029235"><ele>870.3333333333333</ele><time>2026-04-19T08:21:29.999Z</time></trkpt><trkpt lat="44.49298901212204" lon="9.968938045574093"><ele>871.0</ele><time>2026-04-19T08:21:30.999Z</time></trkpt><trkpt lat="44.49291523440954" lon="9.968704734005737"><ele>871.0</ele><time>2026-04-19T08:21:31.999Z</time></trkpt><trkpt lat="44.49284288762999" lon="9.968467794033996"><ele>871.0</ele><time>2026-04-19T08:21:32.999Z</time></trkpt><trkpt lat="44.49277966356634" lon="9.968222991473045"><ele>871.0</ele><time>2026-04-19T08:21:33.999Z</time></trkpt><trkpt lat="44.49271457237099" lon="9.967974084144496"><ele>870.6666666666666</ele><time>2026-04-19T08:21:34.999Z</time></trkpt><trkpt lat="44.49265228588642" lon="9.967728239733635"><ele>870.3333333333333</ele><time>2026-04-19T08:21:35.999Z</time></trkpt><trkpt lat="44.49263537025068" lon="9.967467101888131"><ele>870.0</ele><time>2026-04-19T08:21:36.999Z</time></trkpt><trkpt lat="44.49262690893861" lon="9.967213307337015"><ele>869.3333333333333</ele><time>2026-04-19T08:21:37.999Z</time></trkpt><trkpt lat="44.49261103142588" lon="9.966982002999178"><ele>868.6666666666666</ele><time>2026-04-19T08:21:38.999Z</time></trkpt><trkpt lat="44.492594011891185" lon="9.966771068274225"><ele>868.0</ele><time>2026-04-19T08:21:39.999Z</time></trkpt><trkpt lat="44.49256904389019" lon="9.966570646705192"><ele>866.5</ele><time>2026-04-19T08:21:40.999Z</time></trkpt><trkpt lat="44.49250417296356" lon="9.966343960625617"><ele>865.0</ele><time>2026-04-19T08:21:41.999Z</time></trkpt><trkpt lat="44.49215841651632" lon="9.966352447540563"><ele>868.5</ele><time>2026-04-19T08:21:42.999Z</time></trkpt><trkpt lat="44.491908193433325" lon="9.966266372487304"><ele>872.0</ele><time>2026-04-19T08:21:43.999Z</time></trkpt><trkpt lat="44.49167032688164" lon="9.966138862763462"><ele>872.0</ele><time>2026-04-19T08:21:44.999Z</time></trkpt><trkpt lat="44.49143063715567" lon="9.96600534557553"><ele>872.0</ele><time>2026-04-19T08:21:45.999Z</time></trkpt><trkpt lat="44.49120167546455" lon="9.965893790568883"><ele>870.5</ele><time>2026-04-19T08:21:46.999Z</time></trkpt><trkpt lat="44.49097037647082" lon="9.965810389518182"><ele>869.0</ele><time>2026-04-19T08:21:47.999Z</time></trkpt><trkpt lat="44.49072585006876" lon="9.96577093644386"><ele>869.0</ele><time>2026-04-19T08:21:48.999Z</time></trkpt><trkpt lat="44.490474226103" lon="9.965793190046904"><ele>869.0</ele><time>2026-04-19T08:21:49.999Z</time></trkpt><trkpt lat="44.4902577302659" lon="9.965846133320028"><ele>871.6666666666667</ele><time>2026-04-19T08:21:50.999Z</time></trkpt><trkpt lat="44.49006737452286" lon="9.965923310258258"><ele>874.3333333333333</ele><time>2026-04-19T08:21:51.999Z</time></trkpt><trkpt lat="44.48989344638974" lon="9.96608953566291"><ele>877.0</ele><time>2026-04-19T08:21:52.999Z</time></trkpt><trkpt lat="44.4897231555267" lon="9.96633701129357"><ele>877.0</ele><time>2026-04-19T08:21:53.999Z</time></trkpt><trkpt lat="44.48956095645377" lon="9.966567076054185"><ele>877.0</ele><time>2026-04-19T08:21:54.999Z</time></trkpt><trkpt lat="44.489430787312266" lon="9.9667180142672"><ele>877.0</ele><time>2026-04-19T08:21:55.999Z</time></trkpt><trkpt lat="44.48932177463113" lon="9.966787594423582"><ele>877.0</ele><time>2026-04-19T08:21:56.999Z</time></trkpt><trkpt lat="44.48921544518625" lon="9.966751216929165"><ele>877.0</ele><time>2026-04-19T08:21:57.999Z</time></trkpt><trkpt lat="44.48913371401411" lon="9.966643799495108"><ele>877.0</ele><time>2026-04-19T08:21:58.999Z</time></trkpt><trkpt lat="44.48902459741488" lon="9.966463688200038"><ele>877.0</ele><time>2026-04-19T08:21:59.999Z</time></trkpt><trkpt lat="44.48887851369729" lon="9.966229139829093"><ele>877.0</ele><time>2026-04-19T08:22:00.999Z</time></trkpt><trkpt lat="44.48874071845632" lon="9.966070019040279"><ele>877.0</ele><time>2026-04-19T08:22:01.999Z</time></trkpt><trkpt lat="44.48858466377942" lon="9.965960097176389"><ele>877.0</ele><time>2026-04-19T08:22:03Z</time></trkpt><trkpt lat="44.48839700422392" lon="9.965965906197233"><ele>877.0</ele><time>2026-04-19T08:22:04Z</time></trkpt><trkpt lat="44.48820344907739" lon="9.966085982327211"><ele>877.0</ele><time>2026-04-19T08:22:05Z</time></trkpt><trkpt lat="44.48804265906217" lon="9.966214260149044"><ele>877.0</ele><time>2026-04-19T08:22:06Z</time></trkpt><trkpt lat="44.48791768198714" lon="9.966191575523167"><ele>877.0</ele><time>2026-04-19T08:22:07Z</time></trkpt><trkpt lat="44.48779810629814" lon="9.966065761533583"><ele>877.0</ele><time>2026-04-19T08:22:08Z</time></trkpt><trkpt lat="44.48765929390629" lon="9.965883794135648"><ele>877.0</ele><time>2026-04-19T08:22:09Z</time></trkpt><trkpt lat="44.487560437580704" lon="9.965586062846517"><ele>873.5</ele><time>2026-04-19T08:22:10Z</time></trkpt><trkpt lat="44.48743351576416" lon="9.965294520802413"><ele>870.0</ele><time>2026-04-19T08:22:11Z</time></trkpt><trkpt lat="44.48730666954882" lon="9.965045797938922"><ele>868.6666666666667</ele><time>2026-04-19T08:22:12Z</time></trkpt><trkpt lat="44.48722075044457" lon="9.964833101070532"><ele>867.3333333333334</ele><time>2026-04-19T08:22:13Z</time></trkpt><trkpt lat="44.48707541886352" lon="9.964653075015276"><ele>866.0</ele><time>2026-04-19T08:22:14Z</time></trkpt><trkpt lat="44.48690199446185" lon="9.964539225756646"><ele>870.0</ele><time>2026-04-19T08:22:15Z</time></trkpt><trkpt lat="44.48671919227929" lon="9.964519214247078"><ele>874.0</ele><time>2026-04-19T08:22:16Z</time></trkpt><trkpt lat="44.486515826889026" lon="9.96459052435057"><ele>878.0</ele><time>2026-04-19T08:22:17Z</time></trkpt><trkpt lat="44.48633834744606" lon="9.964708792415012"><ele>882.3333333333334</ele><time>2026-04-19T08:22:18Z</time></trkpt><trkpt lat="44.486196879736404" lon="9.964802456491073"><ele>886.6666666666667</ele><time>2026-04-19T08:22:19Z</time></trkpt><trkpt lat="44.48604359479632" lon="9.964875431656905"><ele>891.0</ele><time>2026-04-19T08:22:20Z</time></trkpt><trkpt lat="44.48590263042835" lon="9.96491333134391"><ele>891.0</ele><time>2026-04-19T08:22:21Z</time></trkpt><trkpt lat="44.48577975989417" lon="9.964864299894245"><ele>891.0</ele><time>2026-04-19T08:22:22Z</time></trkpt><trkpt lat="44.4856800029085" lon="9.964739109161904"><ele>891.0</ele><time>2026-04-19T08:22:23Z</time></trkpt><trkpt lat="44.4856291559467" lon="9.964539433460397"><ele>891.0</ele><time>2026-04-19T08:22:24Z</time></trkpt><trkpt lat="44.48560882667554" lon="9.96431697198678"><ele>890.3333333333333</ele><time>2026-04-19T08:22:25Z</time></trkpt><trkpt lat="44.48562886241837" lon="9.964075916851348"><ele>889.6666666666666</ele><time>2026-04-19T08:22:26Z</time></trkpt><trkpt lat="44.48569310352394" lon="9.963830131766079"><ele>889.0</ele><time>2026-04-19T08:22:27Z</time></trkpt><trkpt lat="44.4857936482678" lon="9.963594768287972"><ele>889.6666666666666</ele><time>2026-04-19T08:22:28Z</time></trkpt><trkpt lat="44.48591657010338" lon="9.963340025471489"><ele>890.3333333333333</ele><time>2026-04-19T08:22:29Z</time></trkpt><trkpt lat="44.486015566636354" lon="9.963089523731483"><ele>891.0</ele><time>2026-04-19T08:22:30Z</time></trkpt><trkpt lat="44.48609472639091" lon="9.962866801371245"><ele>891.0</ele><time>2026-04-19T08:22:31Z</time></trkpt><trkpt lat="44.486115910111714" lon="9.962596900821204"><ele>891.0</ele><time>2026-04-19T08:22:32Z</time></trkpt><trkpt lat="44.48605596803104" lon="9.962275760931815"><ele>891.0</ele><time>2026-04-19T08:22:33Z</time></trkpt><trkpt lat="44.485975117878716" lon="9.961913178162822"><ele>891.5</ele><time>2026-04-19T08:22:34Z</time></trkpt><trkpt lat="44.48590548931674" lon="9.961533839060134"><ele>892.0</ele><time>2026-04-19T08:22:35Z</time></trkpt><trkpt lat="44.485830957051185" lon="9.961127482621281"><ele>892.5</ele><time>2026-04-19T08:22:36Z</time></trkpt><trkpt lat="44.48576078729283" lon="9.960703276691607"><ele>893.0</ele><time>2026-04-19T08:22:37Z</time></trkpt><trkpt lat="44.485696593885656" lon="9.960279145206645"><ele>892.0</ele><time>2026-04-19T08:22:38Z</time></trkpt><trkpt lat="44.48564050400558" lon="9.959878575303998"><ele>891.0</ele><time>2026-04-19T08:22:39Z</time></trkpt><trkpt lat="44.48563849447232" lon="9.959516188947257"><ele>891.0</ele><time>2026-04-19T08:22:40Z</time></trkpt><trkpt lat="44.485643505265045" lon="9.959210259195496"><ele>891.0</ele><time>2026-04-19T08:22:41Z</time></trkpt><trkpt lat="44.48562556175563" lon="9.958999934488558"><ele>891.0</ele><time>2026-04-19T08:22:42Z</time></trkpt><trkpt lat="44.48556875023927" lon="9.95885420438242"><ele>898.0</ele><time>2026-04-19T08:22:43Z</time></trkpt><trkpt lat="44.48542123030865" lon="9.95876025464426"><ele>905.0</ele><time>2026-04-19T08:22:44Z</time></trkpt><trkpt lat="44.485231122314765" lon="9.958703854323003"><ele>912.0</ele><time>2026-04-19T08:22:45Z</time></trkpt><trkpt lat="44.48500549873471" lon="9.958659499484611"><ele>912.0</ele><time>2026-04-19T08:22:46Z</time></trkpt><trkpt lat="44.484765107600026" lon="9.95864973652858"><ele>912.0</ele><time>2026-04-19T08:22:47Z</time></trkpt><trkpt lat="44.48457068604831" lon="9.958613252047636"><ele>912.0</ele><time>2026-04-19T08:22:48Z</time></trkpt><trkpt lat="44.48443540445137" lon="9.95853124676263"><ele>915.25</ele><time>2026-04-19T08:22:49Z</time></trkpt><trkpt lat="44.48435076266343" lon="9.958382736708101"><ele>918.5</ele><time>2026-04-19T08:22:50Z</time></trkpt><trkpt lat="44.48440484601829" lon="9.95820547654762"><ele>921.75</ele><time>2026-04-19T08:22:51Z</time></trkpt><trkpt lat="44.484428755433996" lon="9.957978468285631"><ele>925.0</ele><time>2026-04-19T08:22:52Z</time></trkpt><trkpt lat="44.484455351983705" lon="9.95767575540717"><ele>924.5</ele><time>2026-04-19T08:22:53Z</time></trkpt><trkpt lat="44.484486642594824" lon="9.957327205324956"><ele>924.0</ele><time>2026-04-19T08:22:54Z</time></trkpt><trkpt lat="44.48452088898319" lon="9.95694628786051"><ele>925.5</ele><time>2026-04-19T08:22:55Z</time></trkpt><trkpt lat="44.48454485830435" lon="9.956565073468"><ele>927.0</ele><time>2026-04-19T08:22:56Z</time></trkpt><trkpt lat="44.48458612511925" lon="9.956143406631568"><ele>920.5</ele><time>2026-04-19T08:22:57Z</time></trkpt><trkpt lat="44.484687843217124" lon="9.955723992387481"><ele>914.0</ele><time>2026-04-19T08:22:58Z</time></trkpt><trkpt lat="44.48480561694631" lon="9.95531100335733"><ele>921.0</ele><time>2026-04-19T08:22:59Z</time></trkpt><trkpt lat="44.48488425999596" lon="9.954945121758987"><ele>928.0</ele><time>2026-04-19T08:23:00Z</time></trkpt><trkpt lat="44.484960684984664" lon="9.954591725017153"><ele>928.0</ele><time>2026-04-19T08:23:01Z</time></trkpt><trkpt lat="44.485040250886364" lon="9.95424896056437"><ele>928.0</ele><time>2026-04-19T08:23:02Z</time></trkpt><trkpt lat="44.48508745134235" lon="9.953902261562467"><ele>931.5</ele><time>2026-04-19T08:23:03Z</time></trkpt><trkpt lat="44.48509166493995" lon="9.95356185851437"><ele>935.0</ele><time>2026-04-19T08:23:04Z</time></trkpt><trkpt lat="44.485052101794025" lon="9.953235648149144"><ele>935.5</ele><time>2026-04-19T08:23:05Z</time></trkpt><trkpt lat="44.48495720495926" lon="9.952924879733935"><ele>936.0</ele><time>2026-04-19T08:23:06Z</time></trkpt><trkpt lat="44.484835614606105" lon="9.95257465639716"><ele>934.0</ele><time>2026-04-19T08:23:07Z</time></trkpt><trkpt lat="44.484687226086805" lon="9.952241598334538"><ele>932.0</ele><time>2026-04-19T08:23:08Z</time></trkpt><trkpt lat="44.484497509504294" lon="9.951939589684017"><ele>944.5</ele><time>2026-04-19T08:23:09Z</time></trkpt><trkpt lat="44.484334050346774" lon="9.951647304168963"><ele>957.0</ele><time>2026-04-19T08:23:10Z</time></trkpt><trkpt lat="44.484230463176786" lon="9.951334854134759"><ele>957.0</ele><time>2026-04-19T08:23:11Z</time></trkpt><trkpt lat="44.484156514506466" lon="9.950969256397455"><ele>957.0</ele><time>2026-04-19T08:23:12Z</time></trkpt><trkpt lat="44.484087087184086" lon="9.950661083225633"><ele>956.3333333333333</ele><time>2026-04-19T08:23:13Z</time></trkpt><trkpt lat="44.483981683236465" lon="9.95036115911379"><ele>955.6666666666666</ele><time>2026-04-19T08:23:14Z</time></trkpt><trkpt lat="44.48385261816967" lon="9.95016932080417"><ele>955.0</ele><time>2026-04-19T08:23:15Z</time></trkpt><trkpt lat="44.48370648713055" lon="9.950024076216984"><ele>955.0</ele><time>2026-04-19T08:23:16Z</time></trkpt><trkpt lat="44.48353703497099" lon="9.949950199135728"><ele>955.0</ele><time>2026-04-19T08:23:17Z</time></trkpt><trkpt lat="44.48334031474085" lon="9.949894953836738"><ele>955.0</ele><time>2026-04-19T08:23:18Z</time></trkpt><trkpt lat="44.48317372612718" lon="9.949908560471275"><ele>955.0</ele><time>2026-04-19T08:23:19Z</time></trkpt><trkpt lat="44.48304754905078" lon="9.949911076093308"><ele>955.0</ele><time>2026-04-19T08:23:20Z</time></trkpt><trkpt lat="44.482902422789266" lon="9.9499138199213"><ele>955.0</ele><time>2026-04-19T08:23:21Z</time></trkpt><trkpt lat="44.48275217726488" lon="9.949878368053247"><ele>955.0</ele><time>2026-04-19T08:23:22Z</time></trkpt><trkpt lat="44.48260878518453" lon="9.949738429550829"><ele>963.5</ele><time>2026-04-19T08:23:23Z</time></trkpt><trkpt lat="44.48241840693594" lon="9.949560072947838"><ele>972.0</ele><time>2026-04-19T08:23:23.999Z</time></trkpt><trkpt lat="44.48220278471618" lon="9.94936691713817"><ele>972.6666666666667</ele><time>2026-04-19T08:23:24.999Z</time></trkpt><trkpt lat="44.482010437891624" lon="9.949162290599435"><ele>973.3333333333334</ele><time>2026-04-19T08:23:25.999Z</time></trkpt><trkpt lat="44.481877222105894" lon="9.94896382246308"><ele>974.0</ele><time>2026-04-19T08:23:26.999Z</time></trkpt><trkpt lat="44.481812846532975" lon="9.948716418372083"><ele>974.0</ele><time>2026-04-19T08:23:27.999Z</time></trkpt><trkpt lat="44.48175480278332" lon="9.94851178572213"><ele>974.0000000000001</ele><time>2026-04-19T08:23:28.999Z</time></trkpt><trkpt lat="44.48172917866753" lon="9.948412673653568"><ele>974.0000000000001</ele><time>2026-04-19T08:23:29.999Z</time></trkpt><trkpt lat="44.481662591497695" lon="9.948373018332754"><ele>974.0</ele><time>2026-04-19T08:23:30.999Z</time></trkpt><trkpt lat="44.48154274585314" lon="9.948403505799881"><ele>974.0</ele><time>2026-04-19T08:23:31.999Z</time></trkpt><trkpt lat="44.481405741019984" lon="9.948508953259354"><ele>972.0</ele><time>2026-04-19T08:23:32.999Z</time></trkpt><trkpt lat="44.48125967122951" lon="9.948733526996211"><ele>970.0</ele><time>2026-04-19T08:23:33.999Z</time></trkpt><trkpt lat="44.481086373292925" lon="9.949000919405691"><ele>977.5</ele><time>2026-04-19T08:23:34.999Z</time></trkpt><trkpt lat="44.480904644836386" lon="9.94926500612643"><ele>985.0</ele><time>2026-04-19T08:23:35.999Z</time></trkpt><trkpt lat="44.48074170886719" lon="9.949501443969949"><ele>985.0</ele><time>2026-04-19T08:23:36.999Z</time></trkpt><trkpt lat="44.48061318160068" lon="9.949671118934337"><ele>985.0</ele><time>2026-04-19T08:23:37.999Z</time></trkpt><trkpt lat="44.48048958332455" lon="9.94974800435702"><ele>985.0</ele><time>2026-04-19T08:23:38.999Z</time></trkpt><trkpt lat="44.48033670450851" lon="9.949759025104623"><ele>984.6666666666666</ele><time>2026-04-19T08:23:39.999Z</time></trkpt><trkpt lat="44.48013944925322" lon="9.949797997140223"><ele>984.3333333333333</ele><time>2026-04-19T08:23:40.999Z</time></trkpt><trkpt lat="44.47997924305945" lon="9.949805650189875"><ele>984.0</ele><time>2026-04-19T08:23:41.999Z</time></trkpt><trkpt lat="44.47979722781579" lon="9.949834717265524"><ele>984.0</ele><time>2026-04-19T08:23:42.999Z</time></trkpt><trkpt lat="44.47963755791861" lon="9.949850500210761"><ele>984.0</ele><time>2026-04-19T08:23:43.999Z</time></trkpt><trkpt lat="44.47947602433143" lon="9.949881930666445"><ele>984.0</ele><time>2026-04-19T08:23:44.999Z</time></trkpt><trkpt lat="44.479266085269" lon="9.949933896236486"><ele>984.0</ele><time>2026-04-19T08:23:45.999Z</time></trkpt><trkpt lat="44.47901395404275" lon="9.94997921100873"><ele>984.0</ele><time>2026-04-19T08:23:46.999Z</time></trkpt><trkpt lat="44.47872834477304" lon="9.950013572401616"><ele>993.5</ele><time>2026-04-19T08:23:47.999Z</time></trkpt><trkpt lat="44.478457079603956" lon="9.950059538702295"><ele>1003.0</ele><time>2026-04-19T08:23:48.999Z</time></trkpt><trkpt lat="44.478256622883755" lon="9.95009513089303"><ele>1002.0</ele><time>2026-04-19T08:23:49.999Z</time></trkpt><trkpt lat="44.47809377762459" lon="9.950032651568533"><ele>1001.0</ele><time>2026-04-19T08:23:50.999Z</time></trkpt><trkpt lat="44.47790014742922" lon="9.949893267507928"><ele>1000.0</ele><time>2026-04-19T08:23:51.999Z</time></trkpt><trkpt lat="44.47772071278214" lon="9.949670813373233"><ele>1000.0</ele><time>2026-04-19T08:23:52.999Z</time></trkpt><trkpt lat="44.477660740878754" lon="9.949461542579614"><ele>1000.0</ele><time>2026-04-19T08:23:53.999Z</time></trkpt><trkpt lat="44.47762628159892" lon="9.949201257454972"><ele>1000.0</ele><time>2026-04-19T08:23:54.999Z</time></trkpt><trkpt lat="44.477733537179525" lon="9.949136390885126"><ele>997.5</ele><time>2026-04-19T08:23:55.999Z</time></trkpt><trkpt lat="44.477691186946494" lon="9.948800299096405"><ele>995.0</ele><time>2026-04-19T08:23:56.999Z</time></trkpt><trkpt lat="44.477636072379816" lon="9.94848646973074"><ele>992.3333333333334</ele><time>2026-04-19T08:23:57.999Z</time></trkpt><trkpt lat="44.4775413882783" lon="9.948246110670562"><ele>989.6666666666667</ele><time>2026-04-19T08:23:58.999Z</time></trkpt><trkpt lat="44.477406893910896" lon="9.948094579256686"><ele>987.0</ele><time>2026-04-19T08:23:59.999Z</time></trkpt><trkpt lat="44.47721898447188" lon="9.948022649396508"><ele>996.5</ele><time>2026-04-19T08:24:00.999Z</time></trkpt><trkpt lat="44.476994311643885" lon="9.947933894015083"><ele>1006.0</ele><time>2026-04-19T08:24:01.999Z</time></trkpt><trkpt lat="44.4767818169241" lon="9.947737043481572"><ele>999.5</ele><time>2026-04-19T08:24:02.999Z</time></trkpt><trkpt lat="44.47666282584803" lon="9.947434632617995"><ele>993.0</ele><time>2026-04-19T08:24:03.999Z</time></trkpt><trkpt lat="44.476529721352094" lon="9.947160918835277"><ele>993.0</ele><time>2026-04-19T08:24:04.999Z</time></trkpt><trkpt lat="44.476418028517145" lon="9.946939807280705"><ele>993.0</ele><time>2026-04-19T08:24:05.999Z</time></trkpt><trkpt lat="44.47624301666247" lon="9.946786862987286"><ele>993.0</ele><time>2026-04-19T08:24:06.999Z</time></trkpt><trkpt lat="44.475987988772296" lon="9.946668444594751"><ele>993.0</ele><time>2026-04-19T08:24:07.999Z</time></trkpt><trkpt lat="44.47572642877723" lon="9.94652937797073"><ele>993.0</ele><time>2026-04-19T08:24:09Z</time></trkpt><trkpt lat="44.47545090645471" lon="9.946414272780833"><ele>998.5</ele><time>2026-04-19T08:24:10Z</time></trkpt><trkpt lat="44.47515146902976" lon="9.946371436707192"><ele>1004.0</ele><time>2026-04-19T08:24:11Z</time></trkpt><trkpt lat="44.47484700979442" lon="9.946346290285092"><ele>1004.0</ele><time>2026-04-19T08:24:12Z</time></trkpt><trkpt lat="44.474609557827804" lon="9.946266850619311"><ele>1004.0</ele><time>2026-04-19T08:24:13Z</time></trkpt><trkpt lat="44.474447132573935" lon="9.94618225242088"><ele>1004.0</ele><time>2026-04-19T08:24:14Z</time></trkpt><trkpt lat="44.47435883180461" lon="9.946038094930648"><ele>1005.6666666666667</ele><time>2026-04-19T08:24:15Z</time></trkpt><trkpt lat="44.474336555612375" lon="9.945875139049127"><ele>1007.3333333333333</ele><time>2026-04-19T08:24:16Z</time></trkpt><trkpt lat="44.47429631544003" lon="9.94561673900984"><ele>1009.0</ele><time>2026-04-19T08:24:17Z</time></trkpt><trkpt lat="44.47423973893086" lon="9.945282512746347"><ele>1007.5</ele><time>2026-04-19T08:24:18Z</time></trkpt><trkpt lat="44.4741736116775" lon="9.944914979293644"><ele>1006.0</ele><time>2026-04-19T08:24:19Z</time></trkpt><trkpt lat="44.47406380051529" lon="9.944535665731525"><ele>1003.0</ele><time>2026-04-19T08:24:20Z</time></trkpt><trkpt lat="44.47395761066001" lon="9.944202698421568"><ele>1000.0</ele><time>2026-04-19T08:24:21Z</time></trkpt><trkpt lat="44.47384542734305" lon="9.94391285466188"><ele>1006.0</ele><time>2026-04-19T08:24:22Z</time></trkpt><trkpt lat="44.473751345621295" lon="9.943682197078859"><ele>1012.0</ele><time>2026-04-19T08:24:23Z</time></trkpt><trkpt lat="44.47368107920243" lon="9.94348760488907"><ele>1018.0</ele><time>2026-04-19T08:24:24Z</time></trkpt><trkpt lat="44.47361629643509" lon="9.943325863246248"><ele>1018.5</ele><time>2026-04-19T08:24:25Z</time></trkpt><trkpt lat="44.473557263991005" lon="9.943176187642752"><ele>1019.0</ele><time>2026-04-19T08:24:26Z</time></trkpt><trkpt lat="44.47355392475475" lon="9.943027102834218"><ele>1019.5</ele><time>2026-04-19T08:24:27Z</time></trkpt><trkpt lat="44.473577214423266" lon="9.942840263757233"><ele>1020.0</ele><time>2026-04-19T08:24:28Z</time></trkpt><trkpt lat="44.473604789128444" lon="9.942641262798267"><ele>1024.75</ele><time>2026-04-19T08:24:29Z</time></trkpt><trkpt lat="44.4736379791911" lon="9.942448817997047"><ele>1029.5</ele><time>2026-04-19T08:24:30Z</time></trkpt><trkpt lat="44.473710735663445" lon="9.942276980892975"><ele>1034.25</ele><time>2026-04-19T08:24:31Z</time></trkpt><trkpt lat="44.473814739883494" lon="9.942158201570066"><ele>1039.0</ele><time>2026-04-19T08:24:32Z</time></trkpt><trkpt lat="44.47395785157902" lon="9.94205176471914"><ele>1032.0</ele><time>2026-04-19T08:24:33Z</time></trkpt><trkpt lat="44.474078734586705" lon="9.941933894861364"><ele>1025.0</ele><time>2026-04-19T08:24:34Z</time></trkpt><trkpt lat="44.47419089541167" lon="9.941806800786388"><ele>1018.0</ele><time>2026-04-19T08:24:35Z</time></trkpt><trkpt lat="44.47428700898279" lon="9.941690425506806"><ele>1011.0</ele><time>2026-04-19T08:24:36Z</time></trkpt><trkpt lat="44.474347121128716" lon="9.94158074231972"><ele>1011.0</ele><time>2026-04-19T08:24:37Z</time></trkpt><trkpt lat="44.474357189147085" lon="9.941456125497885"><ele>1011.0</ele><time>2026-04-19T08:24:38Z</time></trkpt><trkpt lat="44.474295405185195" lon="9.941329034180384"><ele>1011.0</ele><time>2026-04-19T08:24:39Z</time></trkpt><trkpt lat="44.47416522339903" lon="9.941250992730975"><ele>1011.0</ele><time>2026-04-19T08:24:40Z</time></trkpt><trkpt lat="44.47401360457346" lon="9.941181057797843"><ele>1011.0</ele><time>2026-04-19T08:24:41Z</time></trkpt><trkpt lat="44.47387591233324" lon="9.941058145787073"><ele>1011.0</ele><time>2026-04-19T08:24:42Z</time></trkpt><trkpt lat="44.473785812198464" lon="9.94087432143653"><ele>1011.0</ele><time>2026-04-19T08:24:43Z</time></trkpt><trkpt lat="44.47370539573499" lon="9.940678788622463"><ele>1015.75</ele><time>2026-04-19T08:24:44Z</time></trkpt><trkpt lat="44.473619312577185" lon="9.940497088668112"><ele>1020.5</ele><time>2026-04-19T08:24:45Z</time></trkpt><trkpt lat="44.47352485887568" lon="9.940346048742484"><ele>1025.25</ele><time>2026-04-19T08:24:46Z</time></trkpt><trkpt lat="44.47341925828967" lon="9.940249551272139"><ele>1030.0</ele><time>2026-04-19T08:24:47Z</time></trkpt><trkpt lat="44.4732831891949" lon="9.940186523670517"><ele>1030.0</ele><time>2026-04-19T08:24:48Z</time></trkpt><trkpt lat="44.473122127286295" lon="9.940173641767101"><ele>1030.0</ele><time>2026-04-19T08:24:49Z</time></trkpt><trkpt lat="44.47294734221553" lon="9.940183724488636"><ele>1030.0</ele><time>2026-04-19T08:24:50Z</time></trkpt><trkpt lat="44.47277925688434" lon="9.940180926053378"><ele>1028.0</ele><time>2026-04-19T08:24:51Z</time></trkpt><trkpt lat="44.47262756014067" lon="9.940144411223105"><ele>1026.0</ele><time>2026-04-19T08:24:52Z</time></trkpt><trkpt lat="44.47249247667117" lon="9.940093711804451"><ele>1024.0</ele><time>2026-04-19T08:24:53Z</time></trkpt><trkpt lat="44.47237910819044" lon="9.940025841896238"><ele>1022.0</ele><time>2026-04-19T08:24:54Z</time></trkpt><trkpt lat="44.47229623400656" lon="9.939899654873715"><ele>1022.0</ele><time>2026-04-19T08:24:55Z</time></trkpt><trkpt lat="44.472233587526546" lon="9.939694303355433"><ele>1022.0</ele><time>2026-04-19T08:24:56Z</time></trkpt><trkpt lat="44.472201966245464" lon="9.93945118107398"><ele>1022.0</ele><time>2026-04-19T08:24:57Z</time></trkpt><trkpt lat="44.47218783376987" lon="9.9392482101116"><ele>1021.0</ele><time>2026-04-19T08:24:58Z</time></trkpt><trkpt lat="44.47218507842752" lon="9.939089679897359"><ele>1020.0</ele><time>2026-04-19T08:24:59Z</time></trkpt><trkpt lat="44.47222768235926" lon="9.938958439246537"><ele>1019.0</ele><time>2026-04-19T08:25:00Z</time></trkpt><trkpt lat="44.472334216812605" lon="9.938858406157633"><ele>1018.0</ele><time>2026-04-19T08:25:01Z</time></trkpt><trkpt lat="44.472456591292875" lon="9.93877275248928"><ele>1018.0</ele><time>2026-04-19T08:25:02Z</time></trkpt><trkpt lat="44.472557960161" lon="9.938651189674069"><ele>1018.0</ele><time>2026-04-19T08:25:03Z</time></trkpt><trkpt lat="44.47261752448884" lon="9.938452780273682"><ele>1018.0</ele><time>2026-04-19T08:25:04Z</time></trkpt><trkpt lat="44.47263724570411" lon="9.938209936797021"><ele>1019.6666666666666</ele><time>2026-04-19T08:25:05Z</time></trkpt><trkpt lat="44.4726356600793" lon="9.93793431476917"><ele>1021.3333333333333</ele><time>2026-04-19T08:25:06Z</time></trkpt><trkpt lat="44.472651630590484" lon="9.937667324804886"><ele>1023.0</ele><time>2026-04-19T08:25:07Z</time></trkpt><trkpt lat="44.472678415331394" lon="9.937409438834196"><ele>1024.3333333333333</ele><time>2026-04-19T08:25:08Z</time></trkpt><trkpt lat="44.4727130459054" lon="9.937168994132131"><ele>1025.6666666666665</ele><time>2026-04-19T08:25:09Z</time></trkpt><trkpt lat="44.472763936229974" lon="9.93693213512543"><ele>1027.0</ele><time>2026-04-19T08:25:10Z</time></trkpt><trkpt lat="44.47282995597162" lon="9.936727212398868"><ele>1027.5</ele><time>2026-04-19T08:25:11Z</time></trkpt><trkpt lat="44.472883305603396" lon="9.936538850973427"><ele>1028.0</ele><time>2026-04-19T08:25:12Z</time></trkpt><trkpt lat="44.47289336704067" lon="9.936351923275128"><ele>1028.5</ele><time>2026-04-19T08:25:13Z</time></trkpt><trkpt lat="44.47284229962161" lon="9.936154716516134"><ele>1029.0</ele><time>2026-04-19T08:25:14Z</time></trkpt><trkpt lat="44.47273549117126" lon="9.935966599854252"><ele>1026.3333333333333</ele><time>2026-04-19T08:25:15Z</time></trkpt><trkpt lat="44.4725916726897" lon="9.935808607516458"><ele>1023.6666666666666</ele><time>2026-04-19T08:25:16Z</time></trkpt><trkpt lat="44.47244069915547" lon="9.935655414696232"><ele>1021.0</ele><time>2026-04-19T08:25:17Z</time></trkpt><trkpt lat="44.47228981792651" lon="9.935496118511695"><ele>1021.0</ele><time>2026-04-19T08:25:18Z</time></trkpt><trkpt lat="44.47215656338283" lon="9.93532193914985"><ele>1021.0</ele><time>2026-04-19T08:25:19Z</time></trkpt><trkpt lat="44.472034476919205" lon="9.935186291503129"><ele>1021.0</ele><time>2026-04-19T08:25:20Z</time></trkpt><trkpt lat="44.471900927674554" lon="9.935101660408883"><ele>1020.5</ele><time>2026-04-19T08:25:21Z</time></trkpt><trkpt lat="44.47175983197591" lon="9.935101056504822"><ele>1020.0</ele><time>2026-04-19T08:25:22Z</time></trkpt><trkpt lat="44.471630230431096" lon="9.935151342930752"><ele>1019.5</ele><time>2026-04-19T08:25:23Z</time></trkpt><trkpt lat="44.471531402674714" lon="9.935143679714123"><ele>1019.0</ele><time>2026-04-19T08:25:24Z</time></trkpt><trkpt lat="44.471464148095734" lon="9.935052531221043"><ele>1019.0</ele><time>2026-04-19T08:25:25Z</time></trkpt><trkpt lat="44.4714429398227" lon="9.93492045238538"><ele>1019.0</ele><time>2026-04-19T08:25:26Z</time></trkpt><trkpt lat="44.47145408506967" lon="9.934768459284122"><ele>1019.0</ele><time>2026-04-19T08:25:27Z</time></trkpt><trkpt lat="44.47148379094857" lon="9.934590713059617"><ele>1019.0</ele><time>2026-04-19T08:25:28Z</time></trkpt><trkpt lat="44.47152347448745" lon="9.934395376996731"><ele>1021.0</ele><time>2026-04-19T08:25:28.999Z</time></trkpt><trkpt lat="44.47158015781211" lon="9.934188007730643"><ele>1023.0</ele><time>2026-04-19T08:25:29.999Z</time></trkpt><trkpt lat="44.47167285736872" lon="9.93397572147822"><ele>1025.0</ele><time>2026-04-19T08:25:30.999Z</time></trkpt><trkpt lat="44.471784213812086" lon="9.933767057180141"><ele>1025.0</ele><time>2026-04-19T08:25:31.999Z</time></trkpt><trkpt lat="44.471877021409206" lon="9.933561061464854"><ele>1025.0</ele><time>2026-04-19T08:25:32.999Z</time></trkpt><trkpt lat="44.47196191222504" lon="9.933360527431885"><ele>1025.0</ele><time>2026-04-19T08:25:33.999Z</time></trkpt><trkpt lat="44.47205411219244" lon="9.93314620003338"><ele>1022.0</ele><time>2026-04-19T08:25:34.999Z</time></trkpt><trkpt lat="44.472149418979136" lon="9.93292560152318"><ele>1019.0</ele><time>2026-04-19T08:25:35.999Z</time></trkpt><trkpt lat="44.47223019269189" lon="9.932689700166392"><ele>1016.0</ele><time>2026-04-19T08:25:36.999Z</time></trkpt><trkpt lat="44.472289072320855" lon="9.93243818512036"><ele>1016.0</ele><time>2026-04-19T08:25:37.999Z</time></trkpt><trkpt lat="44.472343257747916" lon="9.932178381850044"><ele>1016.0</ele><time>2026-04-19T08:25:38.999Z</time></trkpt><trkpt lat="44.47239501045918" lon="9.931936375593883"><ele>1016.0</ele><time>2026-04-19T08:25:39.999Z</time></trkpt><trkpt lat="44.472447696214836" lon="9.931704982806572"><ele>1019.3333333333334</ele><time>2026-04-19T08:25:40.999Z</time></trkpt><trkpt lat="44.47249115536707" lon="9.93149090790248"><ele>1022.6666666666667</ele><time>2026-04-19T08:25:41.999Z</time></trkpt><trkpt lat="44.47252191536632" lon="9.93128725496771"><ele>1026.0</ele><time>2026-04-19T08:25:42.999Z</time></trkpt><trkpt lat="44.47252827631024" lon="9.931083669621724"><ele>1028.3333333333333</ele><time>2026-04-19T08:25:43.999Z</time></trkpt><trkpt lat="44.47251374693823" lon="9.930867312771374"><ele>1030.6666666666665</ele><time>2026-04-19T08:25:44.999Z</time></trkpt><trkpt lat="44.47247669507675" lon="9.930652134548106"><ele>1033.0</ele><time>2026-04-19T08:25:45.999Z</time></trkpt><trkpt lat="44.47242247582347" lon="9.930470529803612"><ele>1033.0</ele><time>2026-04-19T08:25:46.999Z</time></trkpt><trkpt lat="44.47235804995529" lon="9.93030110898088"><ele>1033.0</ele><time>2026-04-19T08:25:47.999Z</time></trkpt><trkpt lat="44.47228895896021" lon="9.930147963573155"><ele>1033.0</ele><time>2026-04-19T08:25:48.999Z</time></trkpt><trkpt lat="44.47222384280997" lon="9.93000279234106"><ele>1033.0</ele><time>2026-04-19T08:25:49.999Z</time></trkpt><trkpt lat="44.472172164975454" lon="9.929883014064803"><ele>1032.5</ele><time>2026-04-19T08:25:50.999Z</time></trkpt><trkpt lat="44.47213521401071" lon="9.92978101369336"><ele>1032.0</ele><time>2026-04-19T08:25:51.999Z</time></trkpt><trkpt lat="44.4721001020826" lon="9.929686515430294"><ele>1031.5</ele><time>2026-04-19T08:25:52.999Z</time></trkpt><trkpt lat="44.472054297065355" lon="9.929540653591706"><ele>1031.0</ele><time>2026-04-19T08:25:54.999Z</time></trkpt><trkpt lat="44.47202181634907" lon="9.929448517812318"><ele>1030.5</ele><time>2026-04-19T08:25:57.999Z</time></trkpt><trkpt lat="44.471975773878405" lon="9.92935832830485"><ele>1030.0</ele><time>2026-04-19T08:26:01.999Z</time></trkpt><trkpt lat="44.471954924581205" lon="9.92926896391038"><ele>1032.0</ele><time>2026-04-19T08:26:06.999Z</time></trkpt><trkpt lat="44.471897861800464" lon="9.92916237138496"><ele>1034.0</ele><time>2026-04-19T08:26:10.999Z</time></trkpt><trkpt lat="44.47187633297844" lon="9.929069722550727"><ele>1036.0</ele><time>2026-04-19T08:26:15Z</time></trkpt><trkpt lat="44.47187681046189" lon="9.928969982268267"><ele>1038.0</ele><time>2026-04-19T08:26:51Z</time></trkpt><trkpt lat="44.47182681734499" lon="9.929027431920892"><ele>1040.0</ele><time>2026-04-19T08:42:32.999Z</time></trkpt><trkpt lat="44.471862154883716" lon="9.929177966313846"><ele>1042.0</ele><time>2026-04-19T08:46:16Z</time></trkpt><trkpt lat="44.471908670819005" lon="9.929286778118735"><ele>1044.2</ele><time>2026-04-19T08:46:17Z</time></trkpt><trkpt lat="44.4719497368525" lon="9.929411311088272"><ele>1046.4</ele><time>2026-04-19T08:46:18Z</time></trkpt><trkpt lat="44.4719922200002" lon="9.92953563660936"><ele>1048.6</ele><time>2026-04-19T08:46:19Z</time></trkpt><trkpt lat="44.47204225009017" lon="9.92967796701199"><ele>1050.8</ele><time>2026-04-19T08:46:20Z</time></trkpt><trkpt lat="44.47210731398126" lon="9.929843402552066"><ele>1053.0</ele><time>2026-04-19T08:46:21Z</time></trkpt><trkpt lat="44.47217476302957" lon="9.929997236734"><ele>1048.0</ele><time>2026-04-19T08:46:21.999Z</time></trkpt><trkpt lat="44.47223917910885" lon="9.93015721554191"><ele>1043.0</ele><time>2026-04-19T08:46:22.999Z</time></trkpt><trkpt lat="44.47230663692229" lon="9.93031762234763"><ele>1038.0</ele><time>2026-04-19T08:46:23.999Z</time></trkpt><trkpt lat="44.472366487731975" lon="9.930481423604316"><ele>1033.0</ele><time>2026-04-19T08:46:24.999Z</time></trkpt><trkpt lat="44.47241963479438" lon="9.930652837375936"><ele>1033.0</ele><time>2026-04-19T08:46:25.999Z</time></trkpt><trkpt lat="44.472464668253885" lon="9.930856307271162"><ele>1033.0</ele><time>2026-04-19T08:46:26.999Z</time></trkpt><trkpt lat="44.47247972821658" lon="9.931079015956911"><ele>1033.0</ele><time>2026-04-19T08:46:27.999Z</time></trkpt><trkpt lat="44.472468352933944" lon="9.93129779930727"><ele>1030.6666666666665</ele><time>2026-04-19T08:46:28.999Z</time></trkpt><trkpt lat="44.472437258402984" lon="9.931532537059264"><ele>1028.3333333333333</ele><time>2026-04-19T08:46:29.999Z</time></trkpt><trkpt lat="44.47239013788662" lon="9.931749160751007"><ele>1026.0</ele><time>2026-04-19T08:46:30.999Z</time></trkpt><trkpt lat="44.47233848369441" lon="9.931970719468156"><ele>1022.6666666666667</ele><time>2026-04-19T08:46:31.999Z</time></trkpt><trkpt lat="44.47228637109164" lon="9.932199023842836"><ele>1019.3333333333334</ele><time>2026-04-19T08:46:32.999Z</time></trkpt><trkpt lat="44.47224251521218" lon="9.932416810681273"><ele>1016.0</ele><time>2026-04-19T08:46:33.999Z</time></trkpt><trkpt lat="44.472198060926665" lon="9.932631974646474"><ele>1014.5</ele><time>2026-04-19T08:46:34.999Z</time></trkpt><trkpt lat="44.472128357194016" lon="9.9328151761401"><ele>1013.0</ele><time>2026-04-19T08:46:35.999Z</time></trkpt><trkpt lat="44.47207030462676" lon="9.93301486122542"><ele>1011.5</ele><time>2026-04-19T08:46:36.999Z</time></trkpt><trkpt lat="44.47198402356424" lon="9.933169531401237"><ele>1010.0</ele><time>2026-04-19T08:46:37.999Z</time></trkpt><trkpt lat="44.47189249498491" lon="9.933319192188046"><ele>1015.0</ele><time>2026-04-19T08:46:38.999Z</time></trkpt><trkpt lat="44.471795398283625" lon="9.933467148526406"><ele>1020.0</ele><time>2026-04-19T08:46:39.999Z</time></trkpt><trkpt lat="44.47172120524793" lon="9.933822341585522"><ele>1025.0</ele><time>2026-04-19T08:46:40.999Z</time></trkpt><trkpt lat="44.47162150878226" lon="9.934008237109614"><ele>1025.0</ele><time>2026-04-19T08:46:41.999Z</time></trkpt><trkpt lat="44.47155079226482" lon="9.934211971428534"><ele>1025.0</ele><time>2026-04-19T08:46:42.999Z</time></trkpt><trkpt lat="44.47147440703414" lon="9.934407295358872"><ele>1025.0</ele><time>2026-04-19T08:46:43.999Z</time></trkpt><trkpt lat="44.47142755818326" lon="9.934617785355975"><ele>1026.0</ele><time>2026-04-19T08:46:44.999Z</time></trkpt><trkpt lat="44.47140670154611" lon="9.93482359747071"><ele>1027.0</ele><time>2026-04-19T08:46:45.999Z</time></trkpt><trkpt lat="44.47139853462449" lon="9.93498166320681"><ele>1028.0</ele><time>2026-04-19T08:46:46.999Z</time></trkpt><trkpt lat="44.471410149438604" lon="9.935100834743537"><ele>1029.0</ele><time>2026-04-19T08:46:47.999Z</time></trkpt><trkpt lat="44.47145228159653" lon="9.935198456726189"><ele>1030.0</ele><time>2026-04-19T08:46:48.999Z</time></trkpt><trkpt lat="44.471527815176486" lon="9.935255169777257"><ele>1030.0</ele><time>2026-04-19T08:46:49.999Z</time></trkpt><trkpt lat="44.47162696302759" lon="9.935259585576652"><ele>1030.0</ele><time>2026-04-19T08:46:50.999Z</time></trkpt><trkpt lat="44.47174087833589" lon="9.935221949923406"><ele>1030.0</ele><time>2026-04-19T08:46:51.999Z</time></trkpt><trkpt lat="44.47186773901689" lon="9.935203175111242"><ele>1030.0</ele><time>2026-04-19T08:46:52.999Z</time></trkpt><trkpt lat="44.47200689690927" lon="9.935229709780147"><ele>1027.0</ele><time>2026-04-19T08:46:53.999Z</time></trkpt><trkpt lat="44.47213585067381" lon="9.935364655081925"><ele>1024.0</ele><time>2026-04-19T08:46:54.999Z</time></trkpt><trkpt lat="44.47226619508109" lon="9.935535585208763"><ele>1021.0</ele><time>2026-04-19T08:46:55.999Z</time></trkpt><trkpt lat="44.47240224854686" lon="9.93567364741546"><ele>1021.0</ele><time>2026-04-19T08:46:56.999Z</time></trkpt><trkpt lat="44.47253522504334" lon="9.935828389464968"><ele>1021.0</ele><time>2026-04-19T08:46:57.999Z</time></trkpt><trkpt lat="44.47266186316351" lon="9.935985938733477"><ele>1021.0</ele><time>2026-04-19T08:46:58.999Z</time></trkpt><trkpt lat="44.47275800961008" lon="9.936139755531325"><ele>1022.5</ele><time>2026-04-19T08:46:59.999Z</time></trkpt><trkpt lat="44.47282237768691" lon="9.936297644835733"><ele>1024.0</ele><time>2026-04-19T08:47:00.999Z</time></trkpt><trkpt lat="44.47283273755059" lon="9.93645726609318"><ele>1025.5</ele><time>2026-04-19T08:47:01.999Z</time></trkpt><trkpt lat="44.472828628295574" lon="9.936608200848926"><ele>1027.0</ele><time>2026-04-19T08:47:02.999Z</time></trkpt><trkpt lat="44.472777739948675" lon="9.936780478199772"><ele>1027.0</ele><time>2026-04-19T08:47:03.999Z</time></trkpt><trkpt lat="44.47274085104928" lon="9.936957933564557"><ele>1027.0</ele><time>2026-04-19T08:47:04.999Z</time></trkpt><trkpt lat="44.47269663700929" lon="9.937115722471107"><ele>1027.0</ele><time>2026-04-19T08:47:05.999Z</time></trkpt><trkpt lat="44.47266890409667" lon="9.937257090223623"><ele>1027.0</ele><time>2026-04-19T08:47:06.999Z</time></trkpt><trkpt lat="44.4726567946977" lon="9.937396766464946"><ele>1027.0</ele><time>2026-04-19T08:47:07.999Z</time></trkpt><trkpt lat="44.47264259307484" lon="9.937542013372246"><ele>1027.0</ele><time>2026-04-19T08:47:08.999Z</time></trkpt><trkpt lat="44.47263449592012" lon="9.937689066027023"><ele>1027.0</ele><time>2026-04-19T08:47:09.999Z</time></trkpt><trkpt lat="44.47261513193618" lon="9.937826967218706"><ele>1027.0</ele><time>2026-04-19T08:47:10.999Z</time></trkpt><trkpt lat="44.472597215215046" lon="9.93794917322799"><ele>1027.0</ele><time>2026-04-19T08:47:11.999Z</time></trkpt><trkpt lat="44.472583044945445" lon="9.938059148146682"><ele>1026.2</ele><time>2026-04-19T08:47:12.999Z</time></trkpt><trkpt lat="44.47256646324009" lon="9.938177715130605"><ele>1025.4</ele><time>2026-04-19T08:47:13.999Z</time></trkpt><trkpt lat="44.47255698105284" lon="9.938320067086773"><ele>1024.6</ele><time>2026-04-19T08:47:15Z</time></trkpt><trkpt lat="44.47254179932992" lon="9.938477657787"><ele>1023.8</ele><time>2026-04-19T08:47:16Z</time></trkpt><trkpt lat="44.472505968528274" lon="9.938643757626265"><ele>1023.0</ele><time>2026-04-19T08:47:17Z</time></trkpt><trkpt lat="44.47240141161634" lon="9.93877280270715"><ele>1022.75</ele><time>2026-04-19T08:47:18Z</time></trkpt><trkpt lat="44.472290618124916" lon="9.938883849480257"><ele>1022.5</ele><time>2026-04-19T08:47:19Z</time></trkpt><trkpt lat="44.47219819340094" lon="9.938991695688438"><ele>1022.25</ele><time>2026-04-19T08:47:20Z</time></trkpt><trkpt lat="44.47214636987068" lon="9.93911795679158"><ele>1022.0</ele><time>2026-04-19T08:47:21Z</time></trkpt><trkpt lat="44.47214228783285" lon="9.939273126275118"><ele>1022.0</ele><time>2026-04-19T08:47:22Z</time></trkpt><trkpt lat="44.47217932170452" lon="9.939443521775232"><ele>1022.0</ele><time>2026-04-19T08:47:23Z</time></trkpt><trkpt lat="44.47223745917909" lon="9.93962530796657"><ele>1022.0</ele><time>2026-04-19T08:47:24Z</time></trkpt><trkpt lat="44.47227293353128" lon="9.9398247293507"><ele>1022.0</ele><time>2026-04-19T08:47:25Z</time></trkpt><trkpt lat="44.472322358191704" lon="9.940008810822182"><ele>1027.6666666666667</ele><time>2026-04-19T08:47:26Z</time></trkpt><trkpt lat="44.472423987859514" lon="9.940123454699673"><ele>1033.3333333333333</ele><time>2026-04-19T08:47:27Z</time></trkpt><trkpt lat="44.4725657887433" lon="9.940178164636743"><ele>1039.0</ele><time>2026-04-19T08:47:28Z</time></trkpt><trkpt lat="44.47276070039259" lon="9.940204359256636"><ele>1039.0</ele><time>2026-04-19T08:47:29Z</time></trkpt><trkpt lat="44.4729379653286" lon="9.940232115698477"><ele>1039.0</ele><time>2026-04-19T08:47:30Z</time></trkpt><trkpt lat="44.47310069212498" lon="9.940240170188474"><ele>1039.0</ele><time>2026-04-19T08:47:31Z</time></trkpt><trkpt lat="44.473260700212165" lon="9.940258113528767"><ele>1036.0</ele><time>2026-04-19T08:47:32Z</time></trkpt><trkpt lat="44.473399403390054" lon="9.940314718924158"><ele>1033.0</ele><time>2026-04-19T08:47:33Z</time></trkpt><trkpt lat="44.47351956621529" lon="9.940448350037501"><ele>1030.0</ele><time>2026-04-19T08:47:34Z</time></trkpt><trkpt lat="44.47363074751657" lon="9.940641922915425"><ele>1030.0</ele><time>2026-04-19T08:47:35Z</time></trkpt><trkpt lat="44.473750072549315" lon="9.940846797361663"><ele>1030.0</ele><time>2026-04-19T08:47:36Z</time></trkpt><trkpt lat="44.47384726842686" lon="9.941053733636025"><ele>1030.0</ele><time>2026-04-19T08:47:37Z</time></trkpt><trkpt lat="44.47397411503994" lon="9.941218419205056"><ele>1025.25</ele><time>2026-04-19T08:47:38Z</time></trkpt><trkpt lat="44.474121333177" lon="9.941318941227737"><ele>1020.5</ele><time>2026-04-19T08:47:39Z</time></trkpt><trkpt lat="44.474252964847295" lon="9.941394856336569"><ele>1015.75</ele><time>2026-04-19T08:47:40Z</time></trkpt><trkpt lat="44.47431632375467" lon="9.9414893552564"><ele>1011.0</ele><time>2026-04-19T08:47:41Z</time></trkpt><trkpt lat="44.47431750938226" lon="9.941623794703457"><ele>1011.0</ele><time>2026-04-19T08:47:42Z</time></trkpt><trkpt lat="44.474300654468344" lon="9.941710763244831"><ele>1011.0</ele><time>2026-04-19T08:47:43Z</time></trkpt><trkpt lat="44.47411109313382" lon="9.941826875412966"><ele>1011.0</ele><time>2026-04-19T08:47:44Z</time></trkpt><trkpt lat="44.473979534730425" lon="9.9419627849294"><ele>1011.0</ele><time>2026-04-19T08:47:45Z</time></trkpt><trkpt lat="44.47385739731125" lon="9.942094842359785"><ele>1013.25</ele><time>2026-04-19T08:47:46Z</time></trkpt><trkpt lat="44.4737474574814" lon="9.94222422845405"><ele>1015.5</ele><time>2026-04-19T08:47:47Z</time></trkpt><trkpt lat="44.473654997182386" lon="9.942342220496988"><ele>1017.75</ele><time>2026-04-19T08:47:48Z</time></trkpt><trkpt lat="44.47358684405626" lon="9.942485684325588"><ele>1020.0</ele><time>2026-04-19T08:47:49Z</time></trkpt><trkpt lat="44.473553196072764" lon="9.942677151855358"><ele>1020.0</ele><time>2026-04-19T08:47:50Z</time></trkpt><trkpt lat="44.47353960783552" lon="9.94289262350883"><ele>1020.0</ele><time>2026-04-19T08:47:51Z</time></trkpt><trkpt lat="44.473532994730625" lon="9.943106766820888"><ele>1020.0</ele><time>2026-04-19T08:47:52Z</time></trkpt><trkpt lat="44.47355445637972" lon="9.943325094834233"><ele>1019.3333333333333</ele><time>2026-04-19T08:47:53Z</time></trkpt><trkpt lat="44.47362817390912" lon="9.943535293807527"><ele>1018.6666666666666</ele><time>2026-04-19T08:47:54Z</time></trkpt><trkpt lat="44.473734206899856" lon="9.943737411055729"><ele>1018.0</ele><time>2026-04-19T08:47:55Z</time></trkpt><trkpt lat="44.47383522364405" lon="9.943946448833216"><ele>1014.0</ele><time>2026-04-19T08:47:56Z</time></trkpt><trkpt lat="44.473912975747425" lon="9.944181106837572"><ele>1010.0</ele><time>2026-04-19T08:47:57Z</time></trkpt><trkpt lat="44.47400657222259" lon="9.944384695557998"><ele>1006.0</ele><time>2026-04-19T08:47:58Z</time></trkpt><trkpt lat="44.474060332827676" lon="9.944610526906942"><ele>1006.0</ele><time>2026-04-19T08:47:59Z</time></trkpt><trkpt lat="44.47411853851927" lon="9.944829210644757"><ele>1006.0</ele><time>2026-04-19T08:48:00Z</time></trkpt><trkpt lat="44.47416495290892" lon="9.945042335313907"><ele>1006.0</ele><time>2026-04-19T08:48:01Z</time></trkpt><trkpt lat="44.47420156598595" lon="9.945258932883815"><ele>1007.0</ele><time>2026-04-19T08:48:02Z</time></trkpt><trkpt lat="44.47423806849675" lon="9.945475612911402"><ele>1008.0</ele><time>2026-04-19T08:48:03Z</time></trkpt><trkpt lat="44.474276196501734" lon="9.945698207983536"><ele>1009.0</ele><time>2026-04-19T08:48:04Z</time></trkpt><trkpt lat="44.47432817765949" lon="9.945897824427883"><ele>1007.75</ele><time>2026-04-19T08:48:05Z</time></trkpt><trkpt lat="44.47436797662239" lon="9.946091048967284"><ele>1006.5</ele><time>2026-04-19T08:48:06Z</time></trkpt><trkpt lat="44.474433749283705" lon="9.946232918459003"><ele>1005.25</ele><time>2026-04-19T08:48:07Z</time></trkpt><trkpt lat="44.47455487156225" lon="9.946323529503841"><ele>1004.0</ele><time>2026-04-19T08:48:08Z</time></trkpt><trkpt lat="44.47472307954279" lon="9.946380450603511"><ele>1004.0</ele><time>2026-04-19T08:48:09Z</time></trkpt><trkpt lat="44.47489823065981" lon="9.946431044059256"><ele>1004.0</ele><time>2026-04-19T08:48:10Z</time></trkpt><trkpt lat="44.475071454547354" lon="9.94648123254892"><ele>1004.0</ele><time>2026-04-19T08:48:11Z</time></trkpt><trkpt lat="44.47524605654722" lon="9.946520695964956"><ele>1004.0</ele><time>2026-04-19T08:48:12Z</time></trkpt><trkpt lat="44.47541124843472" lon="9.946526605945232"><ele>1004.0</ele><time>2026-04-19T08:48:13Z</time></trkpt><trkpt lat="44.4755648866478" lon="9.946571742345455"><ele>1004.0</ele><time>2026-04-19T08:48:14Z</time></trkpt><trkpt lat="44.47572501728261" lon="9.946650724588068"><ele>1006.0</ele><time>2026-04-19T08:48:15Z</time></trkpt><trkpt lat="44.475889259068026" lon="9.946747186080769"><ele>1008.0</ele><time>2026-04-19T08:48:16Z</time></trkpt><trkpt lat="44.47606214840827" lon="9.946825279165521"><ele>1010.0</ele><time>2026-04-19T08:48:17Z</time></trkpt><trkpt lat="44.476221553296774" lon="9.946940043760996"><ele>1004.3333333333334</ele><time>2026-04-19T08:48:18Z</time></trkpt><trkpt lat="44.4763764847521" lon="9.94703364935095"><ele>998.6666666666667</ele><time>2026-04-19T08:48:19Z</time></trkpt><trkpt lat="44.476497907330646" lon="9.94715897469127"><ele>993.0</ele><time>2026-04-19T08:48:20Z</time></trkpt><trkpt lat="44.47658901450644" lon="9.947344790681303"><ele>997.3333333333333</ele><time>2026-04-19T08:48:21Z</time></trkpt><trkpt lat="44.47667619905742" lon="9.947559143750013"><ele>1001.6666666666666</ele><time>2026-04-19T08:48:22Z</time></trkpt><trkpt lat="44.476772722419916" lon="9.947768523709934"><ele>1006.0</ele><time>2026-04-19T08:48:23Z</time></trkpt><trkpt lat="44.476886639436835" lon="9.947958611426483"><ele>1006.0</ele><time>2026-04-19T08:48:24Z</time></trkpt><trkpt lat="44.47703879556178" lon="9.948091328297568"><ele>1006.0</ele><time>2026-04-19T08:48:25Z</time></trkpt><trkpt lat="44.47721236660649" lon="9.948172178525375"><ele>1006.0</ele><time>2026-04-19T08:48:26Z</time></trkpt><trkpt lat="44.47738048200029" lon="9.948224075245678"><ele>1003.25</ele><time>2026-04-19T08:48:27Z</time></trkpt><trkpt lat="44.477502810672" lon="9.948330362728464"><ele>1000.5</ele><time>2026-04-19T08:48:27.999Z</time></trkpt><trkpt lat="44.47758631537437" lon="9.94849024042845"><ele>997.75</ele><time>2026-04-19T08:48:28.999Z</time></trkpt><trkpt lat="44.47765569634075" lon="9.948697043336896"><ele>995.0</ele><time>2026-04-19T08:48:29.999Z</time></trkpt><trkpt lat="44.47769427644848" lon="9.948926147391168"><ele>995.0</ele><time>2026-04-19T08:48:30.999Z</time></trkpt><trkpt lat="44.47769994362111" lon="9.949172948977315"><ele>995.0</ele><time>2026-04-19T08:48:31.999Z</time></trkpt><trkpt lat="44.477692221154356" lon="9.949405447934643"><ele>995.0</ele><time>2026-04-19T08:48:32.999Z</time></trkpt><trkpt lat="44.47769740413162" lon="9.949591776772246"><ele>996.25</ele><time>2026-04-19T08:48:33.999Z</time></trkpt><trkpt lat="44.477724936607" lon="9.94975268791107"><ele>997.5</ele><time>2026-04-19T08:48:34.999Z</time></trkpt><trkpt lat="44.477808940183465" lon="9.949892823491531"><ele>998.75</ele><time>2026-04-19T08:48:35.999Z</time></trkpt><trkpt lat="44.47794042765957" lon="9.950004986182233"><ele>1000.0</ele><time>2026-04-19T08:48:36.999Z</time></trkpt><trkpt lat="44.47809463436536" lon="9.95008921200705"><ele>1001.0</ele><time>2026-04-19T08:48:37.999Z</time></trkpt><trkpt lat="44.47825993754473" lon="9.950142289782555"><ele>1002.0</ele><time>2026-04-19T08:48:38.999Z</time></trkpt><trkpt lat="44.478424518753094" lon="9.95012935295024"><ele>1003.0</ele><time>2026-04-19T08:48:39.999Z</time></trkpt><trkpt lat="44.478582884282126" lon="9.950081684349726"><ele>1003.0</ele><time>2026-04-19T08:48:40.999Z</time></trkpt><trkpt lat="44.47873928601002" lon="9.950044331441134"><ele>1003.0</ele><time>2026-04-19T08:48:41.999Z</time></trkpt><trkpt lat="44.47888693001935" lon="9.950022985647854"><ele>1003.0</ele><time>2026-04-19T08:48:42.999Z</time></trkpt><trkpt lat="44.47903388775303" lon="9.949998000864085"><ele>996.6666666666666</ele><time>2026-04-19T08:48:43.999Z</time></trkpt><trkpt lat="44.47918804765989" lon="9.949981643473082"><ele>990.3333333333333</ele><time>2026-04-19T08:48:44.999Z</time></trkpt><trkpt lat="44.47933951124931" lon="9.949955004855894"><ele>984.0</ele><time>2026-04-19T08:48:45.999Z</time></trkpt><trkpt lat="44.47949521242716" lon="9.94993106920876"><ele>984.0</ele><time>2026-04-19T08:48:46.999Z</time></trkpt><trkpt lat="44.479646131550346" lon="9.949905676372161"><ele>984.0</ele><time>2026-04-19T08:48:47.999Z</time></trkpt><trkpt lat="44.47980350341406" lon="9.949877773483488"><ele>984.0</ele><time>2026-04-19T08:48:48.999Z</time></trkpt><trkpt lat="44.479962823307815" lon="9.94985405195192"><ele>984.0</ele><time>2026-04-19T08:48:49.999Z</time></trkpt><trkpt lat="44.48011788611357" lon="9.949825344182445"><ele>984.0</ele><time>2026-04-19T08:48:50.999Z</time></trkpt><trkpt lat="44.48027348752819" lon="9.949812223057556"><ele>984.0</ele><time>2026-04-19T08:48:51.999Z</time></trkpt><trkpt lat="44.480435843982214" lon="9.94979765213323"><ele>984.3333333333333</ele><time>2026-04-19T08:48:52.999Z</time></trkpt><trkpt lat="44.48058240322099" lon="9.949760667977115"><ele>984.6666666666666</ele><time>2026-04-19T08:48:53.999Z</time></trkpt><trkpt lat="44.48070327087846" lon="9.949656678724928"><ele>985.0</ele><time>2026-04-19T08:48:54.999Z</time></trkpt><trkpt lat="44.480804799626455" lon="9.94946871721784"><ele>985.0</ele><time>2026-04-19T08:48:55.999Z</time></trkpt><trkpt lat="44.480913324997346" lon="9.94929415056443"><ele>985.0</ele><time>2026-04-19T08:48:56.999Z</time></trkpt><trkpt lat="44.48103433580326" lon="9.949125026303827"><ele>985.0</ele><time>2026-04-19T08:48:57.999Z</time></trkpt><trkpt lat="44.481156175228485" lon="9.948955331690572"><ele>981.3333333333333</ele><time>2026-04-19T08:48:58.999Z</time></trkpt><trkpt lat="44.48127083154736" lon="9.948798175849431"><ele>977.6666666666667</ele><time>2026-04-19T08:48:59.999Z</time></trkpt><trkpt lat="44.48137316490491" lon="9.9486298988369"><ele>974.0</ele><time>2026-04-19T08:49:00.999Z</time></trkpt><trkpt lat="44.48147762479988" lon="9.948506608164259"><ele>974.0</ele><time>2026-04-19T08:49:01.999Z</time></trkpt><trkpt lat="44.48157029066611" lon="9.948426006898162"><ele>974.0</ele><time>2026-04-19T08:49:02.999Z</time></trkpt><trkpt lat="44.48167080263448" lon="9.948437156506987"><ele>974.0</ele><time>2026-04-19T08:49:03.999Z</time></trkpt><trkpt lat="44.48176753830051" lon="9.948530174416272"><ele>974.0</ele><time>2026-04-19T08:49:04.999Z</time></trkpt><trkpt lat="44.48178192922937" lon="9.948729324983566"><ele>974.0</ele><time>2026-04-19T08:49:05.999Z</time></trkpt><trkpt lat="44.48184585665628" lon="9.948927048177147"><ele>974.0</ele><time>2026-04-19T08:49:06.999Z</time></trkpt><trkpt lat="44.48190570005476" lon="9.94912004585389"><ele>974.0</ele><time>2026-04-19T08:49:07.999Z</time></trkpt><trkpt lat="44.48202410507409" lon="9.949283357161587"><ele>973.3333333333334</ele><time>2026-04-19T08:49:08.999Z</time></trkpt><trkpt lat="44.48218720369436" lon="9.949418021913594"><ele>972.6666666666667</ele><time>2026-04-19T08:49:09.999Z</time></trkpt><trkpt lat="44.48233957796354" lon="9.949540020626719"><ele>972.0</ele><time>2026-04-19T08:49:10.999Z</time></trkpt><trkpt lat="44.482489349034886" lon="9.949671198162791"><ele>972.0</ele><time>2026-04-19T08:49:11.999Z</time></trkpt><trkpt lat="44.482625012925915" lon="9.949799237660015"><ele>972.0</ele><time>2026-04-19T08:49:12.999Z</time></trkpt><trkpt lat="44.48275667731382" lon="9.949930773547267"><ele>972.0</ele><time>2026-04-19T08:49:13.999Z</time></trkpt><trkpt lat="44.48288044858253" lon="9.950018499041294"><ele>966.3333333333333</ele><time>2026-04-19T08:49:14.999Z</time></trkpt><trkpt lat="44.48303235125093" lon="9.950033488925902"><ele>960.6666666666666</ele><time>2026-04-19T08:49:15.999Z</time></trkpt><trkpt lat="44.48319817716083" lon="9.949983415730449"><ele>955.0</ele><time>2026-04-19T08:49:16.999Z</time></trkpt><trkpt lat="44.48336772359967" lon="9.949956148995597"><ele>955.0</ele><time>2026-04-19T08:49:17.999Z</time></trkpt><trkpt lat="44.483549168523446" lon="9.949993309690095"><ele>955.0</ele><time>2026-04-19T08:49:18.999Z</time></trkpt><trkpt lat="44.483702190698104" lon="9.95011791807307"><ele>955.0</ele><time>2026-04-19T08:49:19.999Z</time></trkpt><trkpt lat="44.48383765588268" lon="9.950256123568055"><ele>953.3333333333333</ele><time>2026-04-19T08:49:21Z</time></trkpt><trkpt lat="44.4839392864366" lon="9.950410773555516"><ele>951.6666666666667</ele><time>2026-04-19T08:49:22Z</time></trkpt><trkpt lat="44.48403131464416" lon="9.950577990598418"><ele>950.0</ele><time>2026-04-19T08:49:23Z</time></trkpt><trkpt lat="44.48409508499069" lon="9.950794383558538"><ele>952.3333333333334</ele><time>2026-04-19T08:49:24Z</time></trkpt><trkpt lat="44.4841473161359" lon="9.9510280781729"><ele>954.6666666666667</ele><time>2026-04-19T08:49:25Z</time></trkpt><trkpt lat="44.48419338102959" lon="9.951262478888758"><ele>957.0</ele><time>2026-04-19T08:49:26Z</time></trkpt><trkpt lat="44.484246159191194" lon="9.95149528259468"><ele>959.3333333333333</ele><time>2026-04-19T08:49:27Z</time></trkpt><trkpt lat="44.484306591521985" lon="9.951722382709834"><ele>961.6666666666666</ele><time>2026-04-19T08:49:28Z</time></trkpt><trkpt lat="44.48437174263727" lon="9.951949895156442"><ele>964.0</ele><time>2026-04-19T08:49:29Z</time></trkpt><trkpt lat="44.484480304240456" lon="9.952153032919083"><ele>954.6666666666666</ele><time>2026-04-19T08:49:30Z</time></trkpt><trkpt lat="44.48461171433617" lon="9.952331564403076"><ele>945.3333333333333</ele><time>2026-04-19T08:49:31Z</time></trkpt><trkpt lat="44.484709669439674" lon="9.952543855162686"><ele>936.0</ele><time>2026-04-19T08:49:32Z</time></trkpt><trkpt lat="44.48479166671026" lon="9.952763564561963"><ele>936.0</ele><time>2026-04-19T08:49:33Z</time></trkpt><trkpt lat="44.484871683645665" lon="9.952998678131072"><ele>936.0</ele><time>2026-04-19T08:49:34Z</time></trkpt><trkpt lat="44.48496165875271" lon="9.953238581265955"><ele>936.0</ele><time>2026-04-19T08:49:35Z</time></trkpt><trkpt lat="44.484992119885824" lon="9.953495467112816"><ele>935.6666666666667</ele><time>2026-04-19T08:49:36Z</time></trkpt><trkpt lat="44.48501153187671" lon="9.953777002724273"><ele>935.3333333333334</ele><time>2026-04-19T08:49:37Z</time></trkpt><trkpt lat="44.485025061530784" lon="9.95405872367392"><ele>935.0</ele><time>2026-04-19T08:49:38Z</time></trkpt><trkpt lat="44.48497640168568" lon="9.954315700306662"><ele>932.6666666666667</ele><time>2026-04-19T08:49:39Z</time></trkpt><trkpt lat="44.48492403054014" lon="9.954575384384096"><ele>930.3333333333333</ele><time>2026-04-19T08:49:40Z</time></trkpt><trkpt lat="44.484881922751526" lon="9.954827938496198"><ele>928.0</ele><time>2026-04-19T08:49:41Z</time></trkpt><trkpt lat="44.48481890987987" lon="9.955096190920333"><ele>923.3333333333333</ele><time>2026-04-19T08:49:42Z</time></trkpt><trkpt lat="44.484762623372404" lon="9.955368378354661"><ele>918.6666666666667</ele><time>2026-04-19T08:49:43Z</time></trkpt><trkpt lat="44.48469535591807" lon="9.955628850714977"><ele>914.0</ele><time>2026-04-19T08:49:44Z</time></trkpt><trkpt lat="44.48462171121955" lon="9.955886041906844"><ele>917.3333333333334</ele><time>2026-04-19T08:49:45Z</time></trkpt><trkpt lat="44.48456085093774" lon="9.956152320622156"><ele>920.6666666666667</ele><time>2026-04-19T08:49:46Z</time></trkpt><trkpt lat="44.48452995822259" lon="9.956448211526354"><ele>924.0</ele><time>2026-04-19T08:49:47Z</time></trkpt><trkpt lat="44.48451542036579" lon="9.956745680196777"><ele>924.0</ele><time>2026-04-19T08:49:48Z</time></trkpt><trkpt lat="44.484489796352754" lon="9.95703429098806"><ele>924.0</ele><time>2026-04-19T08:49:49Z</time></trkpt><trkpt lat="44.48446353899707" lon="9.957317521078474"><ele>924.0</ele><time>2026-04-19T08:49:50Z</time></trkpt><trkpt lat="44.48443879943097" lon="9.957603943841203"><ele>924.3333333333333</ele><time>2026-04-19T08:49:51Z</time></trkpt><trkpt lat="44.48441555615819" lon="9.95788394833921"><ele>924.6666666666666</ele><time>2026-04-19T08:49:52Z</time></trkpt><trkpt lat="44.48439495936461" lon="9.958130356785105"><ele>925.0</ele><time>2026-04-19T08:49:53Z</time></trkpt><trkpt lat="44.48438147556311" lon="9.958322121554408"><ele>927.5</ele><time>2026-04-19T08:49:54Z</time></trkpt><trkpt lat="44.48438605554151" lon="9.958487578053134"><ele>930.0</ele><time>2026-04-19T08:49:55Z</time></trkpt><trkpt lat="44.48444625773719" lon="9.958636406641368"><ele>932.5</ele><time>2026-04-19T08:49:56Z</time></trkpt><trkpt lat="44.48457128404672" lon="9.958742524079174"><ele>935.0</ele><time>2026-04-19T08:49:57Z</time></trkpt><trkpt lat="44.48472454328803" lon="9.958781263237709"><ele>927.3333333333334</ele><time>2026-04-19T08:49:58Z</time></trkpt><trkpt lat="44.484906455015285" lon="9.958788140024561"><ele>919.6666666666667</ele><time>2026-04-19T08:49:59Z</time></trkpt><trkpt lat="44.48508018976276" lon="9.958804338222587"><ele>912.0</ele><time>2026-04-19T08:50:00Z</time></trkpt><trkpt lat="44.485255614041776" lon="9.958829949936762"><ele>912.0</ele><time>2026-04-19T08:50:01Z</time></trkpt><trkpt lat="44.485408152391116" lon="9.958908266163501"><ele>912.0</ele><time>2026-04-19T08:50:02Z</time></trkpt><trkpt lat="44.485528681091715" lon="9.959027619034753"><ele>912.0</ele><time>2026-04-19T08:50:03Z</time></trkpt><trkpt lat="44.48559735919252" lon="9.959205959817869"><ele>905.0</ele><time>2026-04-19T08:50:04Z</time></trkpt><trkpt lat="44.485609309229794" lon="9.959434293831334"><ele>898.0</ele><time>2026-04-19T08:50:05Z</time></trkpt><trkpt lat="44.485613486845615" lon="9.959698756058415"><ele>891.0</ele><time>2026-04-19T08:50:06Z</time></trkpt><trkpt lat="44.485633473752856" lon="9.959964608249294"><ele>891.6666666666667</ele><time>2026-04-19T08:50:07Z</time></trkpt><trkpt lat="44.4856442808414" lon="9.96023621074441"><ele>892.3333333333334</ele><time>2026-04-19T08:50:08Z</time></trkpt><trkpt lat="44.485674952564295" lon="9.960506149238714"><ele>893.0</ele><time>2026-04-19T08:50:09Z</time></trkpt><trkpt lat="44.485732967156544" lon="9.960775015194018"><ele>892.6666666666667</ele><time>2026-04-19T08:50:10Z</time></trkpt><trkpt lat="44.485762860914505" lon="9.961052912985036"><ele>892.3333333333333</ele><time>2026-04-19T08:50:11Z</time></trkpt><trkpt lat="44.485806924452575" lon="9.961326191497408"><ele>892.0</ele><time>2026-04-19T08:50:12Z</time></trkpt><trkpt lat="44.48586661613607" lon="9.961600442098312"><ele>892.3333333333333</ele><time>2026-04-19T08:50:13Z</time></trkpt><trkpt lat="44.485897730802606" lon="9.961889365182305"><ele>892.6666666666667</ele><time>2026-04-19T08:50:14Z</time></trkpt><trkpt lat="44.48594358663476" lon="9.962173759140622"><ele>893.0</ele><time>2026-04-19T08:50:15Z</time></trkpt><trkpt lat="44.48599017009721" lon="9.962450517406172"><ele>892.3333333333334</ele><time>2026-04-19T08:50:16Z</time></trkpt><trkpt lat="44.48603060631586" lon="9.962715841221476"><ele>891.6666666666667</ele><time>2026-04-19T08:50:17Z</time></trkpt><trkpt lat="44.486020524227264" lon="9.962952423127403"><ele>891.0</ele><time>2026-04-19T08:50:18Z</time></trkpt><trkpt lat="44.48594926972135" lon="9.963182284572056"><ele>890.3333333333333</ele><time>2026-04-19T08:50:19Z</time></trkpt><trkpt lat="44.48583843528947" lon="9.963416927310131"><ele>889.6666666666666</ele><time>2026-04-19T08:50:20Z</time></trkpt><trkpt lat="44.48573165628378" lon="9.96365857922087"><ele>889.0</ele><time>2026-04-19T08:50:21Z</time></trkpt><trkpt lat="44.48564291675866" lon="9.963872764672534"><ele>889.0</ele><time>2026-04-19T08:50:21.999Z</time></trkpt><trkpt lat="44.485581152770706" lon="9.964107027522083"><ele>889.0</ele><time>2026-04-19T08:50:22.999Z</time></trkpt><trkpt lat="44.48556864704553" lon="9.964359386596875"><ele>889.0</ele><time>2026-04-19T08:50:23.999Z</time></trkpt><trkpt lat="44.48560039937899" lon="9.96460793600514"><ele>889.5</ele><time>2026-04-19T08:50:24.999Z</time></trkpt><trkpt lat="44.4856774157086" lon="9.964793628403202"><ele>890.0</ele><time>2026-04-19T08:50:25.999Z</time></trkpt><trkpt lat="44.485783044473415" lon="9.96492434945176"><ele>890.5</ele><time>2026-04-19T08:50:26.999Z</time></trkpt><trkpt lat="44.48591525592628" lon="9.964992887902637"><ele>891.0</ele><time>2026-04-19T08:50:27.999Z</time></trkpt><trkpt lat="44.486080198419266" lon="9.96495920617709"><ele>891.0</ele><time>2026-04-19T08:50:28.999Z</time></trkpt><trkpt lat="44.48625941485671" lon="9.964849963191307"><ele>891.0</ele><time>2026-04-19T08:50:29.999Z</time></trkpt><trkpt lat="44.48646704342548" lon="9.964762413728153"><ele>891.0</ele><time>2026-04-19T08:50:30.999Z</time></trkpt><trkpt lat="44.486646044943" lon="9.964684030306614"><ele>886.6666666666667</ele><time>2026-04-19T08:50:31.999Z</time></trkpt><trkpt lat="44.486814800988356" lon="9.964652982750273"><ele>882.3333333333334</ele><time>2026-04-19T08:50:32.999Z</time></trkpt><trkpt lat="44.486973580621324" lon="9.964713040426187"><ele>878.0</ele><time>2026-04-19T08:50:33.999Z</time></trkpt><trkpt lat="44.487131058590876" lon="9.964835710157416"><ele>875.3333333333334</ele><time>2026-04-19T08:50:34.999Z</time></trkpt><trkpt lat="44.487272333387374" lon="9.965036211842737"><ele>872.6666666666667</ele><time>2026-04-19T08:50:35.999Z</time></trkpt><trkpt lat="44.48738899963314" lon="9.965286894460696"><ele>870.0</ele><time>2026-04-19T08:50:36.999Z</time></trkpt><trkpt lat="44.48752146010455" lon="9.965504967560733"><ele>870.0</ele><time>2026-04-19T08:50:37.999Z</time></trkpt><trkpt lat="44.487621791244656" lon="9.965712339772605"><ele>870.0</ele><time>2026-04-19T08:50:38.999Z</time></trkpt><trkpt lat="44.487721345361486" lon="9.965910724131405"><ele>870.0</ele><time>2026-04-19T08:50:39.999Z</time></trkpt><trkpt lat="44.487806476384726" lon="9.966101092639287"><ele>871.75</ele><time>2026-04-19T08:50:40.999Z</time></trkpt><trkpt lat="44.487893245829056" lon="9.966248770241856"><ele>873.5</ele><time>2026-04-19T08:50:41.999Z</time></trkpt><trkpt lat="44.48801593043063" lon="9.966314485065345"><ele>875.25</ele><time>2026-04-19T08:50:42.999Z</time></trkpt><trkpt lat="44.48817985213125" lon="9.966286920058005"><ele>877.0</ele><time>2026-04-19T08:50:43.999Z</time></trkpt><trkpt lat="44.488352904739926" lon="9.966165799132163"><ele>877.0</ele><time>2026-04-19T08:50:44.999Z</time></trkpt><trkpt lat="44.48851504054405" lon="9.966055815640706"><ele>877.0</ele><time>2026-04-19T08:50:45.999Z</time></trkpt><trkpt lat="44.48867447183136" lon="9.96604327299775"><ele>877.0</ele><time>2026-04-19T08:50:46.999Z</time></trkpt><trkpt lat="44.48881584451207" lon="9.966189801449232"><ele>877.0</ele><time>2026-04-19T08:50:47.999Z</time></trkpt><trkpt lat="44.48894095891354" lon="9.966401034121823"><ele>877.0</ele><time>2026-04-19T08:50:48.999Z</time></trkpt><trkpt lat="44.48907501421112" lon="9.96661396757804"><ele>877.0</ele><time>2026-04-19T08:50:49.999Z</time></trkpt><trkpt lat="44.489187329754344" lon="9.966776011956231"><ele>877.0</ele><time>2026-04-19T08:50:50.999Z</time></trkpt><trkpt lat="44.4893112316567" lon="9.966854475141748"><ele>877.0</ele><time>2026-04-19T08:50:51.999Z</time></trkpt><trkpt lat="44.489445118924365" lon="9.966821875030295"><ele>877.0</ele><time>2026-04-19T08:50:52.999Z</time></trkpt><trkpt lat="44.48958450755168" lon="9.966692329498388"><ele>877.0</ele><time>2026-04-19T08:50:53.999Z</time></trkpt><trkpt lat="44.48973218331842" lon="9.966485662915431"><ele>877.0</ele><time>2026-04-19T08:50:54.999Z</time></trkpt><trkpt lat="44.48987479952739" lon="9.966273498275688"><ele>877.0</ele><time>2026-04-19T08:50:55.999Z</time></trkpt><trkpt lat="44.490023024716926" lon="9.966095836671315"><ele>877.0</ele><time>2026-04-19T08:50:56.999Z</time></trkpt><trkpt lat="44.490177457867716" lon="9.965984843037099"><ele>877.0</ele><time>2026-04-19T08:50:57.999Z</time></trkpt><trkpt lat="44.490336558355814" lon="9.965930204621534"><ele>877.0</ele><time>2026-04-19T08:50:58.999Z</time></trkpt><trkpt lat="44.490521240175674" lon="9.965909573764437"><ele>877.0</ele><time>2026-04-19T08:50:59.999Z</time></trkpt><trkpt lat="44.49071863488651" lon="9.96587966318989"><ele>878.0</ele><time>2026-04-19T08:51:00.999Z</time></trkpt><trkpt lat="44.49089397977559" lon="9.965885122967222"><ele>879.0</ele><time>2026-04-19T08:51:01.999Z</time></trkpt><trkpt lat="44.491054461626526" lon="9.965910142757156"><ele>880.0</ele><time>2026-04-19T08:51:02.999Z</time></trkpt><trkpt lat="44.49121086298594" lon="9.965987872656866"><ele>877.3333333333333</ele><time>2026-04-19T08:51:03.999Z</time></trkpt><trkpt lat="44.49137511802772" lon="9.966068667186983"><ele>874.6666666666667</ele><time>2026-04-19T08:51:04.999Z</time></trkpt><trkpt lat="44.49154797995498" lon="9.966143667515112"><ele>872.0</ele><time>2026-04-19T08:51:05.999Z</time></trkpt><trkpt lat="44.491713913089335" lon="9.966243297024768"><ele>872.0</ele><time>2026-04-19T08:51:06.999Z</time></trkpt><trkpt lat="44.491882501117225" lon="9.966334204960374"><ele>872.0</ele><time>2026-04-19T08:51:07.999Z</time></trkpt><trkpt lat="44.49205168039161" lon="9.966423638403143"><ele>872.0</ele><time>2026-04-19T08:51:08.999Z</time></trkpt><trkpt lat="44.49221914757857" lon="9.96650914348213"><ele>870.6666666666667</ele><time>2026-04-19T08:51:09.999Z</time></trkpt><trkpt lat="44.49238434786765" lon="9.966596769193842"><ele>869.3333333333333</ele><time>2026-04-19T08:51:10.999Z</time></trkpt><trkpt lat="44.49251147539801" lon="9.96674407981084"><ele>868.0</ele><time>2026-04-19T08:51:11.999Z</time></trkpt><trkpt lat="44.49258564472855" lon="9.966931712639193"><ele>868.0</ele><time>2026-04-19T08:51:12.999Z</time></trkpt><trkpt lat="44.49262944634392" lon="9.967158683137423"><ele>868.0</ele><time>2026-04-19T08:51:13.999Z</time></trkpt><trkpt lat="44.49260855330378" lon="9.96742629003699"><ele>868.0</ele><time>2026-04-19T08:51:14.999Z</time></trkpt><trkpt lat="44.49261090329012" lon="9.96768244866599"><ele>868.6666666666666</ele><time>2026-04-19T08:51:15.999Z</time></trkpt><trkpt lat="44.4926514827993" lon="9.96792931475463"><ele>869.3333333333333</ele><time>2026-04-19T08:51:16.999Z</time></trkpt><trkpt lat="44.49273055350586" lon="9.968160054761638"><ele>870.0</ele><time>2026-04-19T08:51:17.999Z</time></trkpt><trkpt lat="44.49281054298333" lon="9.968396953297775"><ele>870.3333333333333</ele><time>2026-04-19T08:51:18.999Z</time></trkpt><trkpt lat="44.492882912317526" lon="9.968652588941097"><ele>870.6666666666666</ele><time>2026-04-19T08:51:19.999Z</time></trkpt><trkpt lat="44.49295201961399" lon="9.96889756537043"><ele>871.0</ele><time>2026-04-19T08:51:20.999Z</time></trkpt><trkpt lat="44.4930199752956" lon="9.969127045511128"><ele>870.3333333333333</ele><time>2026-04-19T08:51:21.999Z</time></trkpt><trkpt lat="44.49308786415032" lon="9.96935427833351"><ele>869.6666666666667</ele><time>2026-04-19T08:51:22.999Z</time></trkpt><trkpt lat="44.493155070263605" lon="9.969576234446556"><ele>869.0</ele><time>2026-04-19T08:51:23.999Z</time></trkpt><trkpt lat="44.493219081920145" lon="9.969790266626605"><ele>869.0</ele><time>2026-04-19T08:51:24.999Z</time></trkpt><trkpt lat="44.49328262230447" lon="9.970021756596447"><ele>869.0</ele><time>2026-04-19T08:51:25.999Z</time></trkpt><trkpt lat="44.493353495316875" lon="9.970267804236487"><ele>869.0</ele><time>2026-04-19T08:51:27Z</time></trkpt><trkpt lat="44.493459217037234" lon="9.970485485190952"><ele>867.6666666666667</ele><time>2026-04-19T08:51:28Z</time></trkpt><trkpt lat="44.49361209971747" lon="9.970671159691321"><ele>866.3333333333333</ele><time>2026-04-19T08:51:29Z</time></trkpt><trkpt lat="44.493818809281144" lon="9.970800963705907"><ele>865.0</ele><time>2026-04-19T08:51:30Z</time></trkpt><trkpt lat="44.49398793076617" lon="9.970942253664125"><ele>867.0</ele><time>2026-04-19T08:51:31Z</time></trkpt><trkpt lat="44.49411991446317" lon="9.971048116335398"><ele>869.0</ele><time>2026-04-19T08:51:32Z</time></trkpt><trkpt lat="44.494179573958064" lon="9.971220532172419"><ele>871.0</ele><time>2026-04-19T08:51:33Z</time></trkpt><trkpt lat="44.494167276824385" lon="9.971406938838859"><ele>873.0</ele><time>2026-04-19T08:51:34Z</time></trkpt><trkpt lat="44.49409032123584" lon="9.971597502174765"><ele>875.6666666666667</ele><time>2026-04-19T08:51:35Z</time></trkpt><trkpt lat="44.49398355537412" lon="9.971772920727627"><ele>878.3333333333334</ele><time>2026-04-19T08:51:36Z</time></trkpt><trkpt lat="44.49394401527267" lon="9.971954347585028"><ele>881.0</ele><time>2026-04-19T08:51:37Z</time></trkpt><trkpt lat="44.49394970656102" lon="9.972173366696161"><ele>881.0</ele><time>2026-04-19T08:51:38Z</time></trkpt><trkpt lat="44.494002602844304" lon="9.972395614623583"><ele>881.0</ele><time>2026-04-19T08:51:39Z</time></trkpt><trkpt lat="44.4941143581806" lon="9.97257975733006"><ele>881.0</ele><time>2026-04-19T08:51:40Z</time></trkpt><trkpt lat="44.494266189124986" lon="9.972722814493348"><ele>882.3333333333334</ele><time>2026-04-19T08:51:41Z</time></trkpt><trkpt lat="44.494471021871455" lon="9.972824124389104"><ele>883.6666666666667</ele><time>2026-04-19T08:51:42Z</time></trkpt><trkpt lat="44.494680257166" lon="9.97295083668989"><ele>885.0</ele><time>2026-04-19T08:51:43Z</time></trkpt><trkpt lat="44.49488722185622" lon="9.973090659235721"><ele>885.0</ele><time>2026-04-19T08:51:44Z</time></trkpt><trkpt lat="44.49508670842812" lon="9.973220569895132"><ele>885.0</ele><time>2026-04-19T08:51:45Z</time></trkpt><trkpt lat="44.495289244796076" lon="9.973356253845834"><ele>885.0</ele><time>2026-04-19T08:51:46Z</time></trkpt><trkpt lat="44.49550278682143" lon="9.973480256615021"><ele>892.5</ele><time>2026-04-19T08:51:47Z</time></trkpt><trkpt lat="44.49573173161938" lon="9.973573420428005"><ele>900.0</ele><time>2026-04-19T08:51:48Z</time></trkpt><trkpt lat="44.495962987807886" lon="9.97363487116543"><ele>900.0</ele><time>2026-04-19T08:51:49Z</time></trkpt><trkpt lat="44.49619627544357" lon="9.973686876299007"><ele>900.0</ele><time>2026-04-19T08:51:50Z</time></trkpt><trkpt lat="44.49641148978566" lon="9.973741266979637"><ele>895.3333333333333</ele><time>2026-04-19T08:51:51Z</time></trkpt><trkpt lat="44.49660479901305" lon="9.973844750921286"><ele>890.6666666666666</ele><time>2026-04-19T08:51:52Z</time></trkpt><trkpt lat="44.496796984861035" lon="9.97398044476441"><ele>886.0</ele><time>2026-04-19T08:51:53Z</time></trkpt><trkpt lat="44.49698318473684" lon="9.974074617037969"><ele>890.3333333333333</ele><time>2026-04-19T08:51:54Z</time></trkpt><trkpt lat="44.497168379632285" lon="9.974096933813714"><ele>894.6666666666667</ele><time>2026-04-19T08:51:55Z</time></trkpt><trkpt lat="44.49734132519745" lon="9.974113011075035"><ele>899.0</ele><time>2026-04-19T08:51:56Z</time></trkpt><trkpt lat="44.49747541280083" lon="9.974254540367093"><ele>899.0</ele><time>2026-04-19T08:51:57Z</time></trkpt><trkpt lat="44.49759791879138" lon="9.97446376018534"><ele>899.0</ele><time>2026-04-19T08:51:58Z</time></trkpt><trkpt lat="44.497743957083" lon="9.974683138819678"><ele>899.0</ele><time>2026-04-19T08:51:59Z</time></trkpt><trkpt lat="44.49787370473275" lon="9.974885314486814"><ele>902.3333333333334</ele><time>2026-04-19T08:52:00Z</time></trkpt><trkpt lat="44.49803845315731" lon="9.975025725665928"><ele>905.6666666666667</ele><time>2026-04-19T08:52:01Z</time></trkpt><trkpt lat="44.498244274712974" lon="9.975102488130181"><ele>909.0</ele><time>2026-04-19T08:52:02Z</time></trkpt><trkpt lat="44.49844696411478" lon="9.975182285412497"><ele>909.0</ele><time>2026-04-19T08:52:03Z</time></trkpt><trkpt lat="44.49862632070167" lon="9.97526373333068"><ele>909.0</ele><time>2026-04-19T08:52:04Z</time></trkpt><trkpt lat="44.49879500653217" lon="9.975334437369415"><ele>909.0</ele><time>2026-04-19T08:52:05Z</time></trkpt><trkpt lat="44.49895744622638" lon="9.975359044228638"><ele>902.25</ele><time>2026-04-19T08:52:06Z</time></trkpt><trkpt lat="44.499095465146745" lon="9.975341756165307"><ele>895.5</ele><time>2026-04-19T08:52:07Z</time></trkpt><trkpt lat="44.49920813478864" lon="9.975340856828081"><ele>888.75</ele><time>2026-04-19T08:52:08Z</time></trkpt><trkpt lat="44.49929204415141" lon="9.975396332168158"><ele>882.0</ele><time>2026-04-19T08:52:09Z</time></trkpt><trkpt lat="44.49934440615171" lon="9.975527089747786"><ele>882.0</ele><time>2026-04-19T08:52:10Z</time></trkpt><trkpt lat="44.499349068425964" lon="9.975702581067589"><ele>882.0</ele><time>2026-04-19T08:52:11Z</time></trkpt><trkpt lat="44.49935360434508" lon="9.975900231190412"><ele>882.0</ele><time>2026-04-19T08:52:12Z</time></trkpt><trkpt lat="44.499389958806596" lon="9.976144915277985"><ele>882.0</ele><time>2026-04-19T08:52:13Z</time></trkpt><trkpt lat="44.49944649074624" lon="9.97639461202764"><ele>888.3333333333333</ele><time>2026-04-19T08:52:14Z</time></trkpt><trkpt lat="44.49952142075156" lon="9.976634049957969"><ele>894.6666666666666</ele><time>2026-04-19T08:52:15Z</time></trkpt><trkpt lat="44.499602022072665" lon="9.97687047139268"><ele>901.0</ele><time>2026-04-19T08:52:16Z</time></trkpt><trkpt lat="44.499669916001906" lon="9.977103045130722"><ele>888.3333333333333</ele><time>2026-04-19T08:52:17Z</time></trkpt><trkpt lat="44.499732931280526" lon="9.977328410625935"><ele>875.6666666666667</ele><time>2026-04-19T08:52:18Z</time></trkpt><trkpt lat="44.499778487444665" lon="9.977559328095806"><ele>863.0</ele><time>2026-04-19T08:52:19Z</time></trkpt><trkpt lat="44.49978493962973" lon="9.9778152163751"><ele>863.0</ele><time>2026-04-19T08:52:20Z</time></trkpt><trkpt lat="44.49977333587854" lon="9.978072553873954"><ele>863.0</ele><time>2026-04-19T08:52:21Z</time></trkpt><trkpt lat="44.49974207112965" lon="9.978333256484065"><ele>863.0</ele><time>2026-04-19T08:52:22Z</time></trkpt><trkpt lat="44.49973072572176" lon="9.978558426354065"><ele>863.3333333333334</ele><time>2026-04-19T08:52:23Z</time></trkpt><trkpt lat="44.49975325729248" lon="9.978777778844233"><ele>863.6666666666667</ele><time>2026-04-19T08:52:24Z</time></trkpt><trkpt lat="44.499820214538886" lon="9.979000603035848"><ele>864.0</ele><time>2026-04-19T08:52:25Z</time></trkpt><trkpt lat="44.499905732099556" lon="9.979212660741307"><ele>865.0</ele><time>2026-04-19T08:52:26Z</time></trkpt><trkpt lat="44.49998304696989" lon="9.979421415610743"><ele>866.0</ele><time>2026-04-19T08:52:27Z</time></trkpt><trkpt lat="44.50004671466003" lon="9.979619736816176"><ele>867.0</ele><time>2026-04-19T08:52:28Z</time></trkpt><trkpt lat="44.50007342621147" lon="9.979808120429686"><ele>867.6666666666667</ele><time>2026-04-19T08:52:29Z</time></trkpt><trkpt lat="44.50007122271071" lon="9.980027768707327"><ele>868.3333333333334</ele><time>2026-04-19T08:52:30Z</time></trkpt><trkpt lat="44.500057441025334" lon="9.98027800494084"><ele>869.0</ele><time>2026-04-19T08:52:31Z</time></trkpt><trkpt lat="44.50003950897938" lon="9.980521350644555"><ele>869.0</ele><time>2026-04-19T08:52:32Z</time></trkpt><trkpt lat="44.50005366969211" lon="9.980756430152384"><ele>869.0</ele><time>2026-04-19T08:52:33Z</time></trkpt><trkpt lat="44.500112080801856" lon="9.980972940797868"><ele>869.0</ele><time>2026-04-19T08:52:34Z</time></trkpt><trkpt lat="44.50022656824877" lon="9.981185973728968"><ele>871.3333333333334</ele><time>2026-04-19T08:52:35Z</time></trkpt><trkpt lat="44.50037065487843" lon="9.981385172314752"><ele>873.6666666666667</ele><time>2026-04-19T08:52:36Z</time></trkpt><trkpt lat="44.50050357357608" lon="9.9815770953363"><ele>876.0</ele><time>2026-04-19T08:52:36.999Z</time></trkpt><trkpt lat="44.50063805345001" lon="9.981746800994227"><ele>876.0</ele><time>2026-04-19T08:52:37.999Z</time></trkpt><trkpt lat="44.50077242340794" lon="9.98190296350477"><ele>876.0</ele><time>2026-04-19T08:52:38.999Z</time></trkpt><trkpt lat="44.500907975202544" lon="9.982060099313154"><ele>876.0</ele><time>2026-04-19T08:52:39.999Z</time></trkpt><trkpt lat="44.50105535888455" lon="9.98218505312728"><ele>876.0</ele><time>2026-04-19T08:52:40.999Z</time></trkpt><trkpt lat="44.50122076205589" lon="9.982275806178903"><ele>876.0</ele><time>2026-04-19T08:52:41.999Z</time></trkpt><trkpt lat="44.50138830876245" lon="9.982348045499142"><ele>876.0</ele><time>2026-04-19T08:52:42.999Z</time></trkpt><trkpt lat="44.50153677444209" lon="9.98241039872046"><ele>872.3333333333333</ele><time>2026-04-19T08:52:43.999Z</time></trkpt><trkpt lat="44.50165660463503" lon="9.982533875542684"><ele>868.6666666666666</ele><time>2026-04-19T08:52:44.999Z</time></trkpt><trkpt lat="44.50172957775663" lon="9.9827154655725"><ele>865.0</ele><time>2026-04-19T08:52:45.999Z</time></trkpt><trkpt lat="44.50178996529686" lon="9.982948159509244"><ele>865.0</ele><time>2026-04-19T08:52:46.999Z</time></trkpt><trkpt lat="44.50182852627524" lon="9.983199169102374"><ele>865.0</ele><time>2026-04-19T08:52:47.999Z</time></trkpt><trkpt lat="44.50186555821128" lon="9.983416262042047"><ele>865.0</ele><time>2026-04-19T08:52:48.999Z</time></trkpt><trkpt lat="44.50185765328747" lon="9.983626053846654"><ele>865.0</ele><time>2026-04-19T08:52:49.999Z</time></trkpt><trkpt lat="44.50181958597982" lon="9.983827243470452"><ele>865.0</ele><time>2026-04-19T08:52:50.999Z</time></trkpt><trkpt lat="44.50176548649243" lon="9.984056770670428"><ele>865.0</ele><time>2026-04-19T08:52:51.999Z</time></trkpt><trkpt lat="44.50170609872458" lon="9.984292951919368"><ele>862.6666666666666</ele><time>2026-04-19T08:52:52.999Z</time></trkpt><trkpt lat="44.5015989800298" lon="9.984478035375222"><ele>860.3333333333333</ele><time>2026-04-19T08:52:53.999Z</time></trkpt><trkpt lat="44.50149029169406" lon="9.984686634538448"><ele>858.0</ele><time>2026-04-19T08:52:54.999Z</time></trkpt><trkpt lat="44.50141054808846" lon="9.984861061570205"><ele>858.6666666666667</ele><time>2026-04-19T08:52:55.999Z</time></trkpt><trkpt lat="44.5013876551224" lon="9.98504400052662"><ele>859.3333333333334</ele><time>2026-04-19T08:52:56.999Z</time></trkpt><trkpt lat="44.50144063799642" lon="9.985246847840315"><ele>860.0</ele><time>2026-04-19T08:52:57.999Z</time></trkpt><trkpt lat="44.50156076142904" lon="9.985448418721775"><ele>860.0</ele><time>2026-04-19T08:52:58.999Z</time></trkpt><trkpt lat="44.50172069404877" lon="9.985594370119953"><ele>860.0</ele><time>2026-04-19T08:52:59.999Z</time></trkpt><trkpt lat="44.50188815962645" lon="9.985710658392426"><ele>860.0</ele><time>2026-04-19T08:53:00.999Z</time></trkpt><trkpt lat="44.501994185281625" lon="9.985889504037653"><ele>855.6666666666667</ele><time>2026-04-19T08:53:01.999Z</time></trkpt><trkpt lat="44.50209234680098" lon="9.986086698296676"><ele>851.3333333333333</ele><time>2026-04-19T08:53:02.999Z</time></trkpt><trkpt lat="44.50219327137406" lon="9.986286489781584"><ele>847.0</ele><time>2026-04-19T08:53:03.999Z</time></trkpt><trkpt lat="44.502223536103976" lon="9.986498416440302"><ele>848.5</ele><time>2026-04-19T08:53:04.999Z</time></trkpt><trkpt lat="44.50218062817305" lon="9.986678227545802"><ele>850.0</ele><time>2026-04-19T08:53:05.999Z</time></trkpt><trkpt lat="44.50212858766412" lon="9.986861317355501"><ele>851.5</ele><time>2026-04-19T08:53:06.999Z</time></trkpt><trkpt lat="44.50205610530351" lon="9.987037761033578"><ele>853.0</ele><time>2026-04-19T08:53:07.999Z</time></trkpt><trkpt lat="44.50203004641821" lon="9.987211327764388"><ele>855.75</ele><time>2026-04-19T08:53:08.999Z</time></trkpt><trkpt lat="44.502060246418225" lon="9.987383464227278"><ele>858.5</ele><time>2026-04-19T08:53:09.999Z</time></trkpt><trkpt lat="44.50215530683875" lon="9.987519810485217"><ele>861.25</ele><time>2026-04-19T08:53:10.999Z</time></trkpt><trkpt lat="44.502296760789726" lon="9.98757753476315"><ele>864.0</ele><time>2026-04-19T08:53:11.999Z</time></trkpt><trkpt lat="44.502464320924155" lon="9.987560514976737"><ele>860.3333333333333</ele><time>2026-04-19T08:53:12.999Z</time></trkpt><trkpt lat="44.50264177327889" lon="9.987497707709117"><ele>856.6666666666666</ele><time>2026-04-19T08:53:13.999Z</time></trkpt><trkpt lat="44.502802624125664" lon="9.987445447823633"><ele>853.0</ele><time>2026-04-19T08:53:14.999Z</time></trkpt><trkpt lat="44.502943079264135" lon="9.987442873272531"><ele>853.25</ele><time>2026-04-19T08:53:15.999Z</time></trkpt><trkpt lat="44.50306539641979" lon="9.987473456316419"><ele>853.5</ele><time>2026-04-19T08:53:16.999Z</time></trkpt><trkpt lat="44.50314167788013" lon="9.987613124516486"><ele>853.75</ele><time>2026-04-19T08:53:17.999Z</time></trkpt><trkpt lat="44.50322830882889" lon="9.98779395579845"><ele>854.0</ele><time>2026-04-19T08:53:18.999Z</time></trkpt><trkpt lat="44.50331374110887" lon="9.987962653390506"><ele>854.0</ele><time>2026-04-19T08:53:19.999Z</time></trkpt><trkpt lat="44.50339539811588" lon="9.988139203881774"><ele>854.0</ele><time>2026-04-19T08:53:20.999Z</time></trkpt><trkpt lat="44.503483232735036" lon="9.988309542923204"><ele>854.0</ele><time>2026-04-19T08:53:21.999Z</time></trkpt><trkpt lat="44.50358418806175" lon="9.988464861935865"><ele>853.6666666666667</ele><time>2026-04-19T08:53:22.999Z</time></trkpt><trkpt lat="44.50371225426195" lon="9.988600394334"><ele>853.3333333333333</ele><time>2026-04-19T08:53:23.999Z</time></trkpt><trkpt lat="44.503843098608186" lon="9.988713337507232"><ele>853.0</ele><time>2026-04-19T08:53:24.999Z</time></trkpt><trkpt lat="44.50398268648646" lon="9.988813223241133"><ele>853.0</ele><time>2026-04-19T08:53:25.999Z</time></trkpt><trkpt lat="44.50413008974875" lon="9.988923329890635"><ele>853.0</ele><time>2026-04-19T08:53:26.999Z</time></trkpt><trkpt lat="44.5042963334055" lon="9.988980630499299"><ele>853.0</ele><time>2026-04-19T08:53:27.999Z</time></trkpt><trkpt lat="44.50446977176022" lon="9.988999251995107"><ele>851.6666666666666</ele><time>2026-04-19T08:53:28.999Z</time></trkpt><trkpt lat="44.50465201591943" lon="9.988987600430722"><ele>850.3333333333333</ele><time>2026-04-19T08:53:29.999Z</time></trkpt><trkpt lat="44.504807963270174" lon="9.988991836314044"><ele>849.0</ele><time>2026-04-19T08:53:30.999Z</time></trkpt><trkpt lat="44.504951769678186" lon="9.989006559131987"><ele>849.0</ele><time>2026-04-19T08:53:31.999Z</time></trkpt><trkpt lat="44.50510596316184" lon="9.989032691267015"><ele>849.0</ele><time>2026-04-19T08:53:33Z</time></trkpt><trkpt lat="44.505234331499665" lon="9.98913710965899"><ele>849.0</ele><time>2026-04-19T08:53:34Z</time></trkpt><trkpt lat="44.50537170697265" lon="9.989262678712953"><ele>848.0</ele><time>2026-04-19T08:53:35Z</time></trkpt><trkpt lat="44.50550301421139" lon="9.989429884346723"><ele>847.0</ele><time>2026-04-19T08:53:36Z</time></trkpt><trkpt lat="44.50563432743467" lon="9.98958701630125"><ele>846.0</ele><time>2026-04-19T08:53:37Z</time></trkpt><trkpt lat="44.505769495843204" lon="9.989733637841457"><ele>846.0</ele><time>2026-04-19T08:53:38Z</time></trkpt><trkpt lat="44.50590357164108" lon="9.989871479686498"><ele>846.0</ele><time>2026-04-19T08:53:39Z</time></trkpt><trkpt lat="44.506023617599766" lon="9.990001308947125"><ele>846.0</ele><time>2026-04-19T08:53:40Z</time></trkpt><trkpt lat="44.50612763578974" lon="9.990127144056412"><ele>846.0</ele><time>2026-04-19T08:53:41Z</time></trkpt><trkpt lat="44.506203356197396" lon="9.990266478011153"><ele>846.0</ele><time>2026-04-19T08:53:42Z</time></trkpt><trkpt lat="44.50625487219995" lon="9.990426869249085"><ele>846.0</ele><time>2026-04-19T08:53:43Z</time></trkpt><trkpt lat="44.50629281264373" lon="9.990603517067067"><ele>846.0</ele><time>2026-04-19T08:53:44Z</time></trkpt><trkpt lat="44.50634960400259" lon="9.990770632868651"><ele>845.25</ele><time>2026-04-19T08:53:45Z</time></trkpt><trkpt lat="44.50642197962002" lon="9.990915970019042"><ele>844.5</ele><time>2026-04-19T08:53:46Z</time></trkpt><trkpt lat="44.50651184299729" lon="9.991036689925846"><ele>843.75</ele><time>2026-04-19T08:53:47Z</time></trkpt><trkpt lat="44.50661698671501" lon="9.991140130584466"><ele>843.0</ele><time>2026-04-19T08:53:48Z</time></trkpt><trkpt lat="44.50672254173112" lon="9.99124919677919"><ele>843.0</ele><time>2026-04-19T08:53:49Z</time></trkpt><trkpt lat="44.506831339913106" lon="9.991373591145946"><ele>843.0</ele><time>2026-04-19T08:53:50Z</time></trkpt><trkpt lat="44.50693534364131" lon="9.991502816413261"><ele>843.0</ele><time>2026-04-19T08:53:51Z</time></trkpt><trkpt lat="44.50703144706065" lon="9.991641100950927"><ele>843.0</ele><time>2026-04-19T08:53:52Z</time></trkpt><trkpt lat="44.507128694823955" lon="9.991769549820736"><ele>843.0</ele><time>2026-04-19T08:53:53Z</time></trkpt><trkpt lat="44.507234668685314" lon="9.99189437632277"><ele>843.0</ele><time>2026-04-19T08:53:54Z</time></trkpt><trkpt lat="44.50734363271279" lon="9.992014273474611"><ele>843.0</ele><time>2026-04-19T08:53:55Z</time></trkpt><trkpt lat="44.50745217815755" lon="9.99212911789648"><ele>843.0</ele><time>2026-04-19T08:53:56Z</time></trkpt><trkpt lat="44.50756362395782" lon="9.992243101344743"><ele>843.0</ele><time>2026-04-19T08:53:57Z</time></trkpt><trkpt lat="44.50767616265821" lon="9.99235433843868"><ele>843.0</ele><time>2026-04-19T08:53:58Z</time></trkpt><trkpt lat="44.5077874610289" lon="9.992467573630277"><ele>843.0</ele><time>2026-04-19T08:53:59Z</time></trkpt><trkpt lat="44.50789902989016" lon="9.99258056910191"><ele>843.0</ele><time>2026-04-19T08:54:00Z</time></trkpt><trkpt lat="44.50800483928336" lon="9.992705132346481"><ele>843.6666666666667</ele><time>2026-04-19T08:54:01Z</time></trkpt><trkpt lat="44.50810266147121" lon="9.992853217686621"><ele>844.3333333333334</ele><time>2026-04-19T08:54:02Z</time></trkpt><trkpt lat="44.50816341486669" lon="9.993054457623963"><ele>845.0</ele><time>2026-04-19T08:54:03Z</time></trkpt><trkpt lat="44.508228072804684" lon="9.993259508617442"><ele>841.3333333333334</ele><time>2026-04-19T08:54:04Z</time></trkpt><trkpt lat="44.5082771853462" lon="9.993470304034933"><ele>837.6666666666667</ele><time>2026-04-19T08:54:05Z</time></trkpt><trkpt lat="44.50833538372779" lon="9.993687708101207"><ele>834.0</ele><time>2026-04-19T08:54:06Z</time></trkpt><trkpt lat="44.508401027237994" lon="9.993903256524268"><ele>834.0</ele><time>2026-04-19T08:54:07Z</time></trkpt><trkpt lat="44.50846979736922" lon="9.99410804863859"><ele>834.0</ele><time>2026-04-19T08:54:08Z</time></trkpt><trkpt lat="44.508560280293956" lon="9.994296991958318"><ele>834.0</ele><time>2026-04-19T08:54:09Z</time></trkpt><trkpt lat="44.50866672889504" lon="9.994471967100129"><ele>835.6666666666667</ele><time>2026-04-19T08:54:10Z</time></trkpt><trkpt lat="44.50878829016156" lon="9.994619015734997"><ele>837.3333333333334</ele><time>2026-04-19T08:54:11Z</time></trkpt><trkpt lat="44.508930389454605" lon="9.994705202696258"><ele>839.0</ele><time>2026-04-19T08:54:12Z</time></trkpt><trkpt lat="44.50910974861073" lon="9.994744196395994"><ele>839.0</ele><time>2026-04-19T08:54:13Z</time></trkpt><trkpt lat="44.50929514473204" lon="9.994724725047362"><ele>839.0</ele><time>2026-04-19T08:54:14Z</time></trkpt><trkpt lat="44.50945517114588" lon="9.994734799078056"><ele>839.0</ele><time>2026-04-19T08:54:15Z</time></trkpt><trkpt lat="44.50959575125862" lon="9.994831744959058"><ele>843.0</ele><time>2026-04-19T08:54:16Z</time></trkpt><trkpt lat="44.5096961475876" lon="9.994986462745578"><ele>847.0</ele><time>2026-04-19T08:54:17Z</time></trkpt><trkpt lat="44.50975498397922" lon="9.995206278914491"><ele>851.0</ele><time>2026-04-19T08:54:18Z</time></trkpt><trkpt lat="44.5098342831862" lon="9.99545167716879"><ele>851.0</ele><time>2026-04-19T08:54:19Z</time></trkpt><trkpt lat="44.50989307273998" lon="9.995683179488754"><ele>851.0</ele><time>2026-04-19T08:54:20Z</time></trkpt><trkpt lat="44.509975637246825" lon="9.995850579219386"><ele>851.0</ele><time>2026-04-19T08:54:21Z</time></trkpt><trkpt lat="44.510121633102344" lon="9.995946562522457"><ele>846.6666666666667</ele><time>2026-04-19T08:54:22Z</time></trkpt><trkpt lat="44.5102963759547" lon="9.996034779496327"><ele>842.3333333333333</ele><time>2026-04-19T08:54:23Z</time></trkpt><trkpt lat="44.510411939445945" lon="9.996211717818959"><ele>838.0</ele><time>2026-04-19T08:54:24Z</time></trkpt><trkpt lat="44.510539263392026" lon="9.996431638170723"><ele>845.0</ele><time>2026-04-19T08:54:25Z</time></trkpt><trkpt lat="44.510672471594894" lon="9.996645185122585"><ele>852.0</ele><time>2026-04-19T08:54:26Z</time></trkpt><trkpt lat="44.51078432288404" lon="9.996865408656701"><ele>859.0</ele><time>2026-04-19T08:54:27Z</time></trkpt><trkpt lat="44.51082658799601" lon="9.997119643981964"><ele>859.0</ele><time>2026-04-19T08:54:28Z</time></trkpt><trkpt lat="44.510880755333666" lon="9.997353173445648"><ele>859.0</ele><time>2026-04-19T08:54:29Z</time></trkpt><trkpt lat="44.5109427138309" lon="9.997569061639036"><ele>859.0</ele><time>2026-04-19T08:54:30Z</time></trkpt><trkpt lat="44.511059768617365" lon="9.997759606192501"><ele>859.6666666666666</ele><time>2026-04-19T08:54:31Z</time></trkpt><trkpt lat="44.51122132088728" lon="9.997916574718955"><ele>860.3333333333333</ele><time>2026-04-19T08:54:32Z</time></trkpt><trkpt lat="44.511368541489325" lon="9.99805007027189"><ele>861.0</ele><time>2026-04-19T08:54:33Z</time></trkpt><trkpt lat="44.51151813992313" lon="9.998133259740978"><ele>861.0</ele><time>2026-04-19T08:54:34Z</time></trkpt><trkpt lat="44.511669647772216" lon="9.998144051687822"><ele>861.0</ele><time>2026-04-19T08:54:35Z</time></trkpt><trkpt lat="44.51183448943063" lon="9.998103116801309"><ele>861.0</ele><time>2026-04-19T08:54:36Z</time></trkpt><trkpt lat="44.511993268748036" lon="9.998010594152666"><ele>860.6666666666667</ele><time>2026-04-19T08:54:37Z</time></trkpt><trkpt lat="44.51215974416127" lon="9.997893027377721"><ele>860.3333333333334</ele><time>2026-04-19T08:54:38Z</time></trkpt><trkpt lat="44.51230458352219" lon="9.997745342185357"><ele>860.0</ele><time>2026-04-19T08:54:39Z</time></trkpt><trkpt lat="44.51241639841137" lon="9.997545987731051"><ele>864.0</ele><time>2026-04-19T08:54:40Z</time></trkpt><trkpt lat="44.51249720323479" lon="9.997285835216877"><ele>868.0</ele><time>2026-04-19T08:54:40.999Z</time></trkpt><trkpt lat="44.51259285054203" lon="9.997019321193603"><ele>872.0</ele><time>2026-04-19T08:54:41.999Z</time></trkpt><trkpt lat="44.512692225046294" lon="9.99676786924813"><ele>870.3333333333334</ele><time>2026-04-19T08:54:42.999Z</time></trkpt><trkpt lat="44.51277697469661" lon="9.996526557977237"><ele>868.6666666666667</ele><time>2026-04-19T08:54:43.999Z</time></trkpt><trkpt lat="44.51290320319639" lon="9.996366465249745"><ele>867.0</ele><time>2026-04-19T08:54:44.999Z</time></trkpt><trkpt lat="44.5130524836398" lon="9.996256952672645"><ele>867.0</ele><time>2026-04-19T08:54:45.999Z</time></trkpt><trkpt lat="44.513236431383156" lon="9.996178767732703"><ele>867.0</ele><time>2026-04-19T08:54:46.999Z</time></trkpt><trkpt lat="44.51343936349454" lon="9.996078267762352"><ele>867.0</ele><time>2026-04-19T08:54:47.999Z</time></trkpt><trkpt lat="44.513638833791795" lon="9.996003813040256"><ele>866.0</ele><time>2026-04-19T08:54:48.999Z</time></trkpt><trkpt lat="44.51382520274798" lon="9.995918321874695"><ele>865.0</ele><time>2026-04-19T08:54:49.999Z</time></trkpt><trkpt lat="44.51400543201876" lon="9.995844679082987"><ele>864.0</ele><time>2026-04-19T08:54:50.999Z</time></trkpt><trkpt lat="44.514209650046" lon="9.99582095999647"><ele>864.0</ele><time>2026-04-19T08:54:51.999Z</time></trkpt><trkpt lat="44.51441535505001" lon="9.995858617357083"><ele>864.0</ele><time>2026-04-19T08:54:52.999Z</time></trkpt><trkpt lat="44.51461966167558" lon="9.995910376003359"><ele>864.0</ele><time>2026-04-19T08:54:53.999Z</time></trkpt><trkpt lat="44.5148204018104" lon="9.995941058157632"><ele>864.6666666666667</ele><time>2026-04-19T08:54:54.999Z</time></trkpt><trkpt lat="44.515018623701316" lon="9.995961746552613"><ele>865.3333333333334</ele><time>2026-04-19T08:54:55.999Z</time></trkpt><trkpt lat="44.51521255399713" lon="9.995985820109379"><ele>866.0</ele><time>2026-04-19T08:54:56.999Z</time></trkpt><trkpt lat="44.515406364054144" lon="9.996013734179567"><ele>868.0</ele><time>2026-04-19T08:54:57.999Z</time></trkpt><trkpt lat="44.51560539259172" lon="9.9960314699878"><ele>870.0</ele><time>2026-04-19T08:54:58.999Z</time></trkpt><trkpt lat="44.515795097074594" lon="9.996046909413023"><ele>872.0</ele><time>2026-04-19T08:54:59.999Z</time></trkpt><trkpt lat="44.515984538506544" lon="9.996066945193348"><ele>872.0</ele><time>2026-04-19T08:55:00.999Z</time></trkpt><trkpt lat="44.51617510978926" lon="9.996087642111194"><ele>872.0</ele><time>2026-04-19T08:55:01.999Z</time></trkpt><trkpt lat="44.516360937447175" lon="9.996110593928647"><ele>872.0</ele><time>2026-04-19T08:55:02.999Z</time></trkpt><trkpt lat="44.516544960554775" lon="9.996127181462255"><ele>873.3333333333334</ele><time>2026-04-19T08:55:03.999Z</time></trkpt><trkpt lat="44.516717950181146" lon="9.99614306677863"><ele>874.6666666666667</ele><time>2026-04-19T08:55:04.999Z</time></trkpt><trkpt lat="44.51687146709485" lon="9.996150495985919"><ele>876.0</ele><time>2026-04-19T08:55:05.999Z</time></trkpt><trkpt lat="44.517008034545334" lon="9.996113499106977"><ele>876.3333333333333</ele><time>2026-04-19T08:55:06.999Z</time></trkpt><trkpt lat="44.51712582204943" lon="9.995985955607004"><ele>876.6666666666666</ele><time>2026-04-19T08:55:07.999Z</time></trkpt><trkpt lat="44.51720036422225" lon="9.995785881121527"><ele>877.0</ele><time>2026-04-19T08:55:08.999Z</time></trkpt><trkpt lat="44.51725511440788" lon="9.99554104428354"><ele>877.0</ele><time>2026-04-19T08:55:09.999Z</time></trkpt><trkpt lat="44.51735282704632" lon="9.995322677608906"><ele>877.0</ele><time>2026-04-19T08:55:10.999Z</time></trkpt><trkpt lat="44.51748222024568" lon="9.995111273613302"><ele>877.0</ele><time>2026-04-19T08:55:11.999Z</time></trkpt><trkpt lat="44.51763522803273" lon="9.994926298469665"><ele>878.0</ele><time>2026-04-19T08:55:12.999Z</time></trkpt><trkpt lat="44.51779143540731" lon="9.994762069600393"><ele>879.0</ele><time>2026-04-19T08:55:13.999Z</time></trkpt><trkpt lat="44.51795021320441" lon="9.994593618251631"><ele>880.0</ele><time>2026-04-19T08:55:14.999Z</time></trkpt><trkpt lat="44.518099854875516" lon="9.99440874251939"><ele>880.0</ele><time>2026-04-19T08:55:15.999Z</time></trkpt><trkpt lat="44.51824506529055" lon="9.994232588716484"><ele>880.0</ele><time>2026-04-19T08:55:16.999Z</time></trkpt><trkpt lat="44.51838817817133" lon="9.994074895202457"><ele>880.0</ele><time>2026-04-19T08:55:17.999Z</time></trkpt><trkpt lat="44.518531547151454" lon="9.993953445657944"><ele>882.3333333333333</ele><time>2026-04-19T08:55:18.999Z</time></trkpt><trkpt lat="44.51870237720931" lon="9.993904310322506"><ele>884.6666666666667</ele><time>2026-04-19T08:55:19.999Z</time></trkpt><trkpt lat="44.518880467079626" lon="9.993910511355837"><ele>887.0</ele><time>2026-04-19T08:55:20.999Z</time></trkpt><trkpt lat="44.51908393198284" lon="9.993911765863443"><ele>887.6666666666667</ele><time>2026-04-19T08:55:21.999Z</time></trkpt><trkpt lat="44.519285631437384" lon="9.993955689711616"><ele>888.3333333333333</ele><time>2026-04-19T08:55:22.999Z</time></trkpt><trkpt lat="44.5194879835844" lon="9.994009663180506"><ele>889.0</ele><time>2026-04-19T08:55:23.999Z</time></trkpt><trkpt lat="44.51969388203661" lon="9.99406303858425"><ele>889.3333333333333</ele><time>2026-04-19T08:55:24.999Z</time></trkpt><trkpt lat="44.519912116878" lon="9.994091075967157"><ele>889.6666666666667</ele><time>2026-04-19T08:55:25.999Z</time></trkpt><trkpt lat="44.52013900046823" lon="9.994084949072555"><ele>890.0</ele><time>2026-04-19T08:55:26.999Z</time></trkpt><trkpt lat="44.52036165864022" lon="9.994079942096041"><ele>890.3333333333334</ele><time>2026-04-19T08:55:27.999Z</time></trkpt><trkpt lat="44.52056828734848" lon="9.994084611502478"><ele>890.6666666666667</ele><time>2026-04-19T08:55:28.999Z</time></trkpt><trkpt lat="44.52076252775524" lon="9.99410140756937"><ele>891.0</ele><time>2026-04-19T08:55:29.999Z</time></trkpt><trkpt lat="44.520929108366396" lon="9.994210245668379"><ele>891.0</ele><time>2026-04-19T08:55:30.999Z</time></trkpt><trkpt lat="44.521092420274414" lon="9.994371598657509"><ele>891.0</ele><time>2026-04-19T08:55:31.999Z</time></trkpt><trkpt lat="44.52127405136463" lon="9.994540879749636"><ele>891.0</ele><time>2026-04-19T08:55:32.999Z</time></trkpt><trkpt lat="44.5214485270368" lon="9.994710917261743"><ele>894.6666666666667</ele><time>2026-04-19T08:55:33.999Z</time></trkpt><trkpt lat="44.521622951536216" lon="9.994867363942681"><ele>898.3333333333334</ele><time>2026-04-19T08:55:34.999Z</time></trkpt><trkpt lat="44.521794769390986" lon="9.995030080040861"><ele>902.0</ele><time>2026-04-19T08:55:35.999Z</time></trkpt><trkpt lat="44.521947040952355" lon="9.995210807235098"><ele>902.0</ele><time>2026-04-19T08:55:36.999Z</time></trkpt><trkpt lat="44.52206154140533" lon="9.995414448000705"><ele>902.0</ele><time>2026-04-19T08:55:37.999Z</time></trkpt><trkpt lat="44.52216206156855" lon="9.995593206616965"><ele>902.0</ele><time>2026-04-19T08:55:39Z</time></trkpt><trkpt lat="44.52229836251219" lon="9.995717607328558"><ele>906.0</ele><time>2026-04-19T08:55:40Z</time></trkpt><trkpt lat="44.52247149309943" lon="9.995789272869898"><ele>910.0</ele><time>2026-04-19T08:55:41Z</time></trkpt><trkpt lat="44.52266486430452" lon="9.995790910807154"><ele>914.0</ele><time>2026-04-19T08:55:42Z</time></trkpt><trkpt lat="44.522851610416375" lon="9.99575394358664"><ele>915.6666666666667</ele><time>2026-04-19T08:55:43Z</time></trkpt><trkpt lat="44.52303861825882" lon="9.995729415500168"><ele>917.3333333333333</ele><time>2026-04-19T08:55:44Z</time></trkpt><trkpt lat="44.523222708126745" lon="9.995728437537615"><ele>919.0</ele><time>2026-04-19T08:55:45Z</time></trkpt><trkpt lat="44.5234017553456" lon="9.995730071602232"><ele>919.0</ele><time>2026-04-19T08:55:46Z</time></trkpt><trkpt lat="44.52358090676535" lon="9.995725025480704"><ele>919.0</ele><time>2026-04-19T08:55:47Z</time></trkpt><trkpt lat="44.52376282116717" lon="9.99572270905062"><ele>919.0</ele><time>2026-04-19T08:55:48Z</time></trkpt><trkpt lat="44.52394437842611" lon="9.995722712839"><ele>918.3333333333333</ele><time>2026-04-19T08:55:49Z</time></trkpt><trkpt lat="44.52410340497072" lon="9.995719498160954"><ele>917.6666666666667</ele><time>2026-04-19T08:55:50Z</time></trkpt><trkpt lat="44.52425248887415" lon="9.995710966760589"><ele>917.0</ele><time>2026-04-19T08:55:51Z</time></trkpt><trkpt lat="44.52438917298792" lon="9.99563823176874"><ele>917.0</ele><time>2026-04-19T08:55:52Z</time></trkpt><trkpt lat="44.52452083073411" lon="9.995477091347293"><ele>917.0</ele><time>2026-04-19T08:55:53Z</time></trkpt><trkpt lat="44.52460279101332" lon="9.995248841010378"><ele>917.0</ele><time>2026-04-19T08:55:54Z</time></trkpt><trkpt lat="44.52468545428038" lon="9.995025150097362"><ele>919.3333333333334</ele><time>2026-04-19T08:55:55Z</time></trkpt><trkpt lat="44.52481936006284" lon="9.994920393867643"><ele>921.6666666666667</ele><time>2026-04-19T08:55:56Z</time></trkpt><trkpt lat="44.52498865152491" lon="9.994879909521998"><ele>924.0</ele><time>2026-04-19T08:55:57Z</time></trkpt><trkpt lat="44.525207291196395" lon="9.994869649427866"><ele>922.6666666666667</ele><time>2026-04-19T08:55:58Z</time></trkpt><trkpt lat="44.525437297036476" lon="9.994853964604497"><ele>921.3333333333334</ele><time>2026-04-19T08:55:59Z</time></trkpt><trkpt lat="44.525640247144246" lon="9.994860376955065"><ele>920.0</ele><time>2026-04-19T08:56:00Z</time></trkpt><trkpt lat="44.52583539032106" lon="9.994805596838981"><ele>920.0</ele><time>2026-04-19T08:56:01Z</time></trkpt><trkpt lat="44.52602857787917" lon="9.994700775260055"><ele>920.0</ele><time>2026-04-19T08:56:02Z</time></trkpt><trkpt lat="44.526200828905175" lon="9.994550229557186"><ele>920.0</ele><time>2026-04-19T08:56:03Z</time></trkpt><trkpt lat="44.52635333025178" lon="9.994415533900712"><ele>919.3333333333334</ele><time>2026-04-19T08:56:04Z</time></trkpt><trkpt lat="44.52649859504776" lon="9.99431719564903"><ele>918.6666666666667</ele><time>2026-04-19T08:56:05Z</time></trkpt><trkpt lat="44.52665012430052" lon="9.994293364910867"><ele>918.0</ele><time>2026-04-19T08:56:06Z</time></trkpt><trkpt lat="44.526791413161305" lon="9.994348432037311"><ele>918.0</ele><time>2026-04-19T08:56:07Z</time></trkpt><trkpt lat="44.52692448077162" lon="9.994467238530637"><ele>918.0</ele><time>2026-04-19T08:56:08Z</time></trkpt><trkpt lat="44.527017059231845" lon="9.994661008085217"><ele>918.0</ele><time>2026-04-19T08:56:09Z</time></trkpt><trkpt lat="44.52712630444425" lon="9.994875581429824"><ele>916.3333333333333</ele><time>2026-04-19T08:56:10Z</time></trkpt><trkpt lat="44.52725180074647" lon="9.995062142401013"><ele>914.6666666666666</ele><time>2026-04-19T08:56:11Z</time></trkpt><trkpt lat="44.527427494898575" lon="9.995175648526352"><ele>913.0</ele><time>2026-04-19T08:56:12Z</time></trkpt><trkpt lat="44.527649052732684" lon="9.995246466075837"><ele>913.0</ele><time>2026-04-19T08:56:13Z</time></trkpt><trkpt lat="44.52786069284589" lon="9.995264357710083"><ele>913.0</ele><time>2026-04-19T08:56:14Z</time></trkpt><trkpt lat="44.52804177098924" lon="9.995307898924422"><ele>913.0</ele><time>2026-04-19T08:56:15Z</time></trkpt><trkpt lat="44.52819489186025" lon="9.995422127194809"><ele>914.0</ele><time>2026-04-19T08:56:16Z</time></trkpt><trkpt lat="44.528341197999964" lon="9.995596199170178"><ele>915.0</ele><time>2026-04-19T08:56:17Z</time></trkpt><trkpt lat="44.528470633136465" lon="9.995761584192662"><ele>916.0</ele><time>2026-04-19T08:56:18Z</time></trkpt><trkpt lat="44.528555614079075" lon="9.995898934540765"><ele>916.0</ele><time>2026-04-19T08:56:19Z</time></trkpt><trkpt lat="44.52863891084323" lon="9.995985475534848"><ele>916.0</ele><time>2026-04-19T08:56:20Z</time></trkpt><trkpt lat="44.52874955293907" lon="9.99602944932555"><ele>916.0</ele><time>2026-04-19T08:56:21Z</time></trkpt><trkpt lat="44.52888017570152" lon="9.996004857728193"><ele>916.0</ele><time>2026-04-19T08:56:22Z</time></trkpt><trkpt lat="44.52902176727537" lon="9.995905949694555"><ele>923.0</ele><time>2026-04-19T08:56:23Z</time></trkpt><trkpt lat="44.52916179099877" lon="9.995799752667674"><ele>930.0</ele><time>2026-04-19T08:56:24Z</time></trkpt><trkpt lat="44.52929476444395" lon="9.995707012961104"><ele>937.0</ele><time>2026-04-19T08:56:25Z</time></trkpt><trkpt lat="44.52944896015451" lon="9.995710716542407"><ele>935.0</ele><time>2026-04-19T08:56:26Z</time></trkpt><trkpt lat="44.52960188431909" lon="9.995852132576857"><ele>933.0</ele><time>2026-04-19T08:56:27Z</time></trkpt><trkpt lat="44.52978492641968" lon="9.995984294766963"><ele>931.0</ele><time>2026-04-19T08:56:28Z</time></trkpt><trkpt lat="44.52994778149191" lon="9.996167650940905"><ele>931.0</ele><time>2026-04-19T08:56:29Z</time></trkpt><trkpt lat="44.53010262432755" lon="9.996288387252347"><ele>931.0</ele><time>2026-04-19T08:56:30Z</time></trkpt><trkpt lat="44.53024560472062" lon="9.99641360335623"><ele>931.0</ele><time>2026-04-19T08:56:31Z</time></trkpt><trkpt lat="44.53038863300852" lon="9.996530495890095"><ele>929.0</ele><time>2026-04-19T08:56:32Z</time></trkpt><trkpt lat="44.530529654816505" lon="9.996645788134675"><ele>927.0</ele><time>2026-04-19T08:56:33Z</time></trkpt><trkpt lat="44.53067201466888" lon="9.996767177160484"><ele>925.0</ele><time>2026-04-19T08:56:34Z</time></trkpt><trkpt lat="44.53079574947376" lon="9.996859129203452"><ele>925.0</ele><time>2026-04-19T08:56:35Z</time></trkpt><trkpt lat="44.53095552456451" lon="9.996922900002724"><ele>925.0</ele><time>2026-04-19T08:56:36Z</time></trkpt><trkpt lat="44.5311118159325" lon="9.996972519877229"><ele>925.0</ele><time>2026-04-19T08:56:37Z</time></trkpt><trkpt lat="44.53125331585405" lon="9.996841855112349"><ele>927.6666666666666</ele><time>2026-04-19T08:56:38Z</time></trkpt><trkpt lat="44.53136117099706" lon="9.996843690784404"><ele>930.3333333333333</ele><time>2026-04-19T08:56:39Z</time></trkpt><trkpt lat="44.53143937034271" lon="9.996855362526365"><ele>933.0</ele><time>2026-04-19T08:56:40Z</time></trkpt><trkpt lat="44.531510560632874" lon="9.996829814638026"><ele>935.6666666666667</ele><time>2026-04-19T08:56:42Z</time></trkpt><trkpt lat="44.53145890759804" lon="9.996936757887903"><ele>938.3333333333334</ele><time>2026-04-19T08:56:53.999Z</time></trkpt><trkpt lat="44.53151470476768" lon="9.996980235284697"><ele>941.0</ele><time>2026-04-19T08:57:38.999Z</time></trkpt><trkpt lat="44.531662944111844" lon="9.996825699580137"><ele>941.0000000000001</ele><time>2026-04-19T08:57:45Z</time></trkpt><trkpt lat="44.5317302298705" lon="9.996826599692097"><ele>941.0</ele><time>2026-04-19T08:57:46Z</time></trkpt><trkpt lat="44.531805985076964" lon="9.99683481174638"><ele>941.0</ele><time>2026-04-19T08:57:47Z</time></trkpt><trkpt lat="44.53188961358006" lon="9.996836394230865"><ele>941.0</ele><time>2026-04-19T08:57:48Z</time></trkpt><trkpt lat="44.53197367146534" lon="9.996832609713076"><ele>941.0000000000001</ele><time>2026-04-19T08:57:49Z</time></trkpt><trkpt lat="44.53203724190515" lon="9.996831409856032"><ele>941.0</ele><time>2026-04-19T08:57:50Z</time></trkpt><trkpt lat="44.53217887237377" lon="9.996802728832817"><ele>942.25</ele><time>2026-04-19T08:57:52Z</time></trkpt><trkpt lat="44.53227251315385" lon="9.996767445331441"><ele>943.5</ele><time>2026-04-19T08:57:53Z</time></trkpt><trkpt lat="44.53238178815585" lon="9.996694523609156"><ele>944.75</ele><time>2026-04-19T08:57:54Z</time></trkpt><trkpt lat="44.53248934862025" lon="9.99662157448585"><ele>946.0</ele><time>2026-04-19T08:57:55Z</time></trkpt><trkpt lat="44.53261119346113" lon="9.996537354912888"><ele>946.0</ele><time>2026-04-19T08:57:56Z</time></trkpt><trkpt lat="44.532738139048234" lon="9.996454029622516"><ele>946.0</ele><time>2026-04-19T08:57:57Z</time></trkpt><trkpt lat="44.5328621528156" lon="9.99636496140312"><ele>946.0</ele><time>2026-04-19T08:57:58Z</time></trkpt><trkpt lat="44.532973886586085" lon="9.996267717799846"><ele>946.0</ele><time>2026-04-19T08:57:59Z</time></trkpt><trkpt lat="44.53307575319644" lon="9.996167854520424"><ele>948.0</ele><time>2026-04-19T08:58:00Z</time></trkpt><trkpt lat="44.53319832500498" lon="9.99611142731636"><ele>950.0</ele><time>2026-04-19T08:58:01Z</time></trkpt><trkpt lat="44.533336377064074" lon="9.996034342217884"><ele>952.0</ele><time>2026-04-19T08:58:02Z</time></trkpt><trkpt lat="44.53348154730545" lon="9.99598713873333"><ele>954.0</ele><time>2026-04-19T08:58:03Z</time></trkpt><trkpt lat="44.53361756063865" lon="9.995948196914885"><ele>954.0</ele><time>2026-04-19T08:58:04Z</time></trkpt><trkpt lat="44.53374532759981" lon="9.995922837961457"><ele>954.0</ele><time>2026-04-19T08:58:05Z</time></trkpt><trkpt lat="44.53387764535906" lon="9.995950035471687"><ele>954.0</ele><time>2026-04-19T08:58:06Z</time></trkpt><trkpt lat="44.533997814037306" lon="9.995971455054896"><ele>954.0</ele><time>2026-04-19T08:58:07Z</time></trkpt><trkpt lat="44.53409736696423" lon="9.996029435118286"><ele>954.0</ele><time>2026-04-19T08:58:08Z</time></trkpt><trkpt lat="44.534170741355204" lon="9.996113937941804"><ele>954.0000000000001</ele><time>2026-04-19T08:58:09Z</time></trkpt><trkpt lat="44.53423543962733" lon="9.996200377025652"><ele>954.0000000000001</ele><time>2026-04-19T08:58:10Z</time></trkpt><trkpt lat="44.5343182346974" lon="9.99632450906922"><ele>954.0</ele><time>2026-04-19T08:58:11Z</time></trkpt><trkpt lat="44.53439780892871" lon="9.996440797565313"><ele>954.0</ele><time>2026-04-19T08:58:12Z</time></trkpt><trkpt lat="44.53448453002296" lon="9.996532697848986"><ele>953.5</ele><time>2026-04-19T08:58:13Z</time></trkpt><trkpt lat="44.53460748682883" lon="9.996568453449086"><ele>953.0</ele><time>2026-04-19T08:58:14Z</time></trkpt><trkpt lat="44.53475585455459" lon="9.996579829873777"><ele>952.5</ele><time>2026-04-19T08:58:15Z</time></trkpt><trkpt lat="44.53490434149071" lon="9.996611701634867"><ele>952.0</ele><time>2026-04-19T08:58:16Z</time></trkpt><trkpt lat="44.5350235372478" lon="9.996675400659269"><ele>952.0</ele><time>2026-04-19T08:58:17Z</time></trkpt><trkpt lat="44.53512166293055" lon="9.996727508187627"><ele>952.0</ele><time>2026-04-19T08:58:18Z</time></trkpt><trkpt lat="44.53520925091669" lon="9.996710536965844"><ele>952.0</ele><time>2026-04-19T08:58:19Z</time></trkpt><trkpt lat="44.53529242488788" lon="9.996606181639805"><ele>952.0</ele><time>2026-04-19T08:58:20Z</time></trkpt><trkpt lat="44.53537863654487" lon="9.99648422745072"><ele>952.0</ele><time>2026-04-19T08:58:21Z</time></trkpt><trkpt lat="44.53547289187399" lon="9.996370544720056"><ele>954.0</ele><time>2026-04-19T08:58:22Z</time></trkpt><trkpt lat="44.53557153028629" lon="9.996254515871678"><ele>956.0</ele><time>2026-04-19T08:58:23Z</time></trkpt><trkpt lat="44.53567159756992" lon="9.996146805548955"><ele>958.0</ele><time>2026-04-19T08:58:24Z</time></trkpt><trkpt lat="44.535739324604386" lon="9.99600848333039"><ele>960.0</ele><time>2026-04-19T08:58:25Z</time></trkpt><trkpt lat="44.53578169748222" lon="9.995847353728038"><ele>959.0</ele><time>2026-04-19T08:58:26Z</time></trkpt><trkpt lat="44.53581104588199" lon="9.995698437118147"><ele>958.0</ele><time>2026-04-19T08:58:27Z</time></trkpt><trkpt lat="44.535866775346705" lon="9.99557281992094"><ele>957.0</ele><time>2026-04-19T08:58:28Z</time></trkpt><trkpt lat="44.53592779007601" lon="9.995470055099043"><ele>956.0</ele><time>2026-04-19T08:58:29Z</time></trkpt><trkpt lat="44.53597875975034" lon="9.995346677408534"><ele>955.0</ele><time>2026-04-19T08:58:30Z</time></trkpt><trkpt lat="44.53604602438676" lon="9.995250803510192"><ele>954.9999999999999</ele><time>2026-04-19T08:58:31Z</time></trkpt><trkpt lat="44.53610753590046" lon="9.995172148551857"><ele>955.0</ele><time>2026-04-19T08:58:32Z</time></trkpt><trkpt lat="44.53617028906142" lon="9.99512799371362"><ele>955.0</ele><time>2026-04-19T08:58:33Z</time></trkpt><trkpt lat="44.53623487575749" lon="9.99511467784919"><ele>955.0</ele><time>2026-04-19T08:58:34Z</time></trkpt><trkpt lat="44.53630679745882" lon="9.995128634776075"><ele>954.9999999999999</ele><time>2026-04-19T08:58:35Z</time></trkpt><trkpt lat="44.536375555155175" lon="9.99521516646261"><ele>955.0</ele><time>2026-04-19T08:58:36Z</time></trkpt><trkpt lat="44.536464982296884" lon="9.995238839245243"><ele>956.0</ele><time>2026-04-19T08:58:37Z</time></trkpt><trkpt lat="44.536558162404475" lon="9.995274621282002"><ele>957.0</ele><time>2026-04-19T08:58:38Z</time></trkpt><trkpt lat="44.536660090331864" lon="9.995243654170165"><ele>958.0</ele><time>2026-04-19T08:58:39Z</time></trkpt><trkpt lat="44.536752816973305" lon="9.995143555368895"><ele>959.0</ele><time>2026-04-19T08:58:40Z</time></trkpt><trkpt lat="44.53684191469756" lon="9.995002046721437"><ele>959.0</ele><time>2026-04-19T08:58:41Z</time></trkpt><trkpt lat="44.53695030531589" lon="9.994948459451185"><ele>959.0</ele><time>2026-04-19T08:58:42Z</time></trkpt><trkpt lat="44.53707094214342" lon="9.994901140972342"><ele>959.0</ele><time>2026-04-19T08:58:43Z</time></trkpt><trkpt lat="44.53719303439699" lon="9.994835075552746"><ele>959.0</ele><time>2026-04-19T08:58:44Z</time></trkpt><trkpt lat="44.53730456484736" lon="9.994763362648344"><ele>959.8000000000001</ele><time>2026-04-19T08:58:45Z</time></trkpt><trkpt lat="44.53740375407701" lon="9.994686688322712"><ele>960.6000000000001</ele><time>2026-04-19T08:58:46Z</time></trkpt><trkpt lat="44.53749856350776" lon="9.994614403778938"><ele>961.4</ele><time>2026-04-19T08:58:47Z</time></trkpt><trkpt lat="44.53758310368936" lon="9.994548542148117"><ele>962.2</ele><time>2026-04-19T08:58:48Z</time></trkpt><trkpt lat="44.53766061002945" lon="9.994491786458255"><ele>963.0</ele><time>2026-04-19T08:58:49Z</time></trkpt><trkpt lat="44.537735415134605" lon="9.994435522845473"><ele>963.0</ele><time>2026-04-19T08:58:50Z</time></trkpt><trkpt lat="44.537798680601604" lon="9.994371340588545"><ele>963.0</ele><time>2026-04-19T08:58:51Z</time></trkpt><trkpt lat="44.53784664302518" lon="9.994294186595642"><ele>963.0</ele><time>2026-04-19T08:58:52Z</time></trkpt><trkpt lat="44.537904236127815" lon="9.994239795573652"><ele>963.0</ele><time>2026-04-19T08:58:53Z</time></trkpt><trkpt lat="44.537988315236106" lon="9.994147862665402"><ele>963.0</ele><time>2026-04-19T08:58:55Z</time></trkpt><trkpt lat="44.53804983801568" lon="9.994098056107902"><ele>963.0</ele><time>2026-04-19T08:58:58.999Z</time></trkpt><trkpt lat="44.53812475754847" lon="9.994036501053921"><ele>962.2</ele><time>2026-04-19T08:59:01.999Z</time></trkpt><trkpt lat="44.53821808150756" lon="9.993975726197997"><ele>961.4</ele><time>2026-04-19T08:59:03.999Z</time></trkpt><trkpt lat="44.53829210615098" lon="9.993925643707447"><ele>960.6000000000001</ele><time>2026-04-19T08:59:04.999Z</time></trkpt><trkpt lat="44.538375539757254" lon="9.993825488706591"><ele>959.8000000000001</ele><time>2026-04-19T08:59:05.999Z</time></trkpt><trkpt lat="44.53845472397499" lon="9.993732585150465"><ele>959.0</ele><time>2026-04-19T08:59:06.999Z</time></trkpt><trkpt lat="44.538546051002925" lon="9.993634828917822"><ele>959.0</ele><time>2026-04-19T08:59:07.999Z</time></trkpt><trkpt lat="44.53864584719806" lon="9.993572149141492"><ele>959.0</ele><time>2026-04-19T08:59:08.999Z</time></trkpt><trkpt lat="44.538743877564116" lon="9.993501088534721"><ele>959.0</ele><time>2026-04-19T08:59:09.999Z</time></trkpt><trkpt lat="44.53884056410191" lon="9.993413809512022"><ele>959.0</ele><time>2026-04-19T08:59:10.999Z</time></trkpt><trkpt lat="44.538946482734644" lon="9.993334085482616"><ele>957.25</ele><time>2026-04-19T08:59:11.999Z</time></trkpt><trkpt lat="44.5390434670462" lon="9.993232766997213"><ele>955.5</ele><time>2026-04-19T08:59:12.999Z</time></trkpt><trkpt lat="44.539131765268095" lon="9.993118060783528"><ele>953.75</ele><time>2026-04-19T08:59:13.999Z</time></trkpt><trkpt lat="44.53919603502671" lon="9.992992828822382"><ele>952.0</ele><time>2026-04-19T08:59:14.999Z</time></trkpt><trkpt lat="44.53922165842807" lon="9.99282666630133"><ele>952.0</ele><time>2026-04-19T08:59:15.999Z</time></trkpt><trkpt lat="44.5392237652039" lon="9.992642992680212"><ele>952.0</ele><time>2026-04-19T08:59:16.999Z</time></trkpt><trkpt lat="44.53923658606184" lon="9.992468051424243"><ele>952.0</ele><time>2026-04-19T08:59:17.999Z</time></trkpt><trkpt lat="44.53932646915396" lon="9.992321983530632"><ele>952.0</ele><time>2026-04-19T08:59:18.999Z</time></trkpt><trkpt lat="44.539374928253494" lon="9.992159934659819"><ele>950.5</ele><time>2026-04-19T08:59:19.999Z</time></trkpt><trkpt lat="44.53941230534204" lon="9.992003240125658"><ele>949.0</ele><time>2026-04-19T08:59:20.999Z</time></trkpt><trkpt lat="44.5394499352906" lon="9.991817802543157"><ele>947.5</ele><time>2026-04-19T08:59:21.999Z</time></trkpt><trkpt lat="44.53950484799735" lon="9.991681046414826"><ele>946.0</ele><time>2026-04-19T08:59:22.999Z</time></trkpt><trkpt lat="44.539610832958296" lon="9.99160146267942"><ele>945.0</ele><time>2026-04-19T08:59:23.999Z</time></trkpt><trkpt lat="44.53970744251326" lon="9.991477132265368"><ele>944.0</ele><time>2026-04-19T08:59:24.999Z</time></trkpt><trkpt lat="44.53982692950486" lon="9.991384698683603"><ele>943.0</ele><time>2026-04-19T08:59:25.999Z</time></trkpt><trkpt lat="44.53994629637977" lon="9.991293751501509"><ele>942.0</ele><time>2026-04-19T08:59:26.999Z</time></trkpt><trkpt lat="44.54004986285116" lon="9.991196506971123"><ele>942.0</ele><time>2026-04-19T08:59:27.999Z</time></trkpt><trkpt lat="44.540148404757055" lon="9.991112277963513"><ele>942.0</ele><time>2026-04-19T08:59:28.999Z</time></trkpt><trkpt lat="44.54022574818328" lon="9.991049670498285"><ele>942.0</ele><time>2026-04-19T08:59:29.999Z</time></trkpt><trkpt lat="44.54031020222653" lon="9.990984138384906"><ele>942.0</ele><time>2026-04-19T08:59:31.999Z</time></trkpt><trkpt lat="44.540346241388214" lon="9.99091009357592"><ele>942.0</ele><time>2026-04-19T08:59:35.999Z</time></trkpt><trkpt lat="44.5403478434218" lon="9.990814940133468"><ele>942.0</ele><time>2026-04-19T08:59:37.999Z</time></trkpt><trkpt lat="44.54036562470011" lon="9.990599254275597"><ele>940.75</ele><time>2026-04-19T08:59:39.999Z</time></trkpt><trkpt lat="44.540389367627384" lon="9.99045068180968"><ele>939.5</ele><time>2026-04-19T08:59:40.999Z</time></trkpt><trkpt lat="44.54048040468337" lon="9.990313652463755"><ele>938.25</ele><time>2026-04-19T08:59:41.999Z</time></trkpt><trkpt lat="44.540518440804625" lon="9.990135900184407"><ele>937.0</ele><time>2026-04-19T08:59:42.999Z</time></trkpt><trkpt lat="44.54056632984488" lon="9.989995284077919"><ele>937.0</ele><time>2026-04-19T08:59:43.999Z</time></trkpt><trkpt lat="44.54063085139479" lon="9.98987827625972"><ele>937.0</ele><time>2026-04-19T08:59:44.999Z</time></trkpt><trkpt lat="44.54072938717254" lon="9.989780287121004"><ele>937.0</ele><time>2026-04-19T08:59:45.999Z</time></trkpt><trkpt lat="44.54081182710422" lon="9.989623728942398"><ele>937.0</ele><time>2026-04-19T08:59:46.999Z</time></trkpt><trkpt lat="44.54088645284695" lon="9.989485038229091"><ele>937.0</ele><time>2026-04-19T08:59:47.999Z</time></trkpt><trkpt lat="44.540981390090906" lon="9.989402047180237"><ele>937.0</ele><time>2026-04-19T08:59:48.999Z</time></trkpt><trkpt lat="44.541103194780646" lon="9.989332137054074"><ele>937.0</ele><time>2026-04-19T08:59:49.999Z</time></trkpt><trkpt lat="44.5412189100481" lon="9.989238571076752"><ele>937.0</ele><time>2026-04-19T08:59:51Z</time></trkpt><trkpt lat="44.541330291926904" lon="9.989166335169841"><ele>937.0</ele><time>2026-04-19T08:59:52Z</time></trkpt><trkpt lat="44.541418580343596" lon="9.989081659693818"><ele>937.0</ele><time>2026-04-19T08:59:53Z</time></trkpt><trkpt lat="44.54149156389247" lon="9.988983116834982"><ele>937.0</ele><time>2026-04-19T08:59:54Z</time></trkpt><trkpt lat="44.5415521052027" lon="9.988852560329546"><ele>937.0</ele><time>2026-04-19T08:59:55Z</time></trkpt><trkpt lat="44.5415847348931" lon="9.98868657159083"><ele>937.0</ele><time>2026-04-19T08:59:56Z</time></trkpt><trkpt lat="44.541608287979365" lon="9.988501949892902"><ele>936.75</ele><time>2026-04-19T08:59:57Z</time></trkpt><trkpt lat="44.54162545098644" lon="9.988327799608253"><ele>936.5</ele><time>2026-04-19T08:59:58Z</time></trkpt><trkpt lat="44.54167933267871" lon="9.98817443153173"><ele>936.25</ele><time>2026-04-19T08:59:59Z</time></trkpt><trkpt lat="44.54178524586304" lon="9.988046907800166"><ele>936.0</ele><time>2026-04-19T09:00:00Z</time></trkpt><trkpt lat="44.54188367659415" lon="9.987876788546656"><ele>936.0</ele><time>2026-04-19T09:00:01Z</time></trkpt><trkpt lat="44.541993784784644" lon="9.987744508689351"><ele>936.0</ele><time>2026-04-19T09:00:02Z</time></trkpt><trkpt lat="44.54208917383642" lon="9.987608359621126"><ele>936.0</ele><time>2026-04-19T09:00:03Z</time></trkpt><trkpt lat="44.542186289708944" lon="9.98747030895019"><ele>936.0</ele><time>2026-04-19T09:00:04Z</time></trkpt><trkpt lat="44.54227571826278" lon="9.987332006899559"><ele>933.5</ele><time>2026-04-19T09:00:05Z</time></trkpt><trkpt lat="44.54234672196283" lon="9.987176319929548"><ele>931.0</ele><time>2026-04-19T09:00:06Z</time></trkpt><trkpt lat="44.54245319152859" lon="9.98704423151285"><ele>928.5</ele><time>2026-04-19T09:00:07Z</time></trkpt><trkpt lat="44.542581948061105" lon="9.98696227036309"><ele>926.0</ele><time>2026-04-19T09:00:08Z</time></trkpt><trkpt lat="44.54268624275852" lon="9.986858801477636"><ele>926.0</ele><time>2026-04-19T09:00:09Z</time></trkpt><trkpt lat="44.54277243979913" lon="9.986744560199906"><ele>926.0</ele><time>2026-04-19T09:00:10Z</time></trkpt><trkpt lat="44.54283619503991" lon="9.986566834754207"><ele>926.0</ele><time>2026-04-19T09:00:11Z</time></trkpt><trkpt lat="44.542884643275706" lon="9.986361742194912"><ele>926.0</ele><time>2026-04-19T09:00:12Z</time></trkpt><trkpt lat="44.54294363315009" lon="9.986156894928316"><ele>924.5</ele><time>2026-04-19T09:00:13Z</time></trkpt><trkpt lat="44.54301413923833" lon="9.985976088572142"><ele>923.0</ele><time>2026-04-19T09:00:14Z</time></trkpt><trkpt lat="44.543055022854716" lon="9.98579512901635"><ele>921.5</ele><time>2026-04-19T09:00:15Z</time></trkpt><trkpt lat="44.54309536221486" lon="9.985595092655927"><ele>920.0</ele><time>2026-04-19T09:00:16Z</time></trkpt><trkpt lat="44.5431463565443" lon="9.985400599801114"><ele>920.0</ele><time>2026-04-19T09:00:17Z</time></trkpt><trkpt lat="44.54321169473324" lon="9.985218641830679"><ele>920.0</ele><time>2026-04-19T09:00:18Z</time></trkpt><trkpt lat="44.54331423123875" lon="9.985084585775967"><ele>920.0</ele><time>2026-04-19T09:00:19Z</time></trkpt><trkpt lat="44.54341565089285" lon="9.984952880449514"><ele>920.0</ele><time>2026-04-19T09:00:20Z</time></trkpt><trkpt lat="44.54349859626669" lon="9.984816098184062"><ele>919.2</ele><time>2026-04-19T09:00:21Z</time></trkpt><trkpt lat="44.54357833201505" lon="9.984700463127625"><ele>918.4</ele><time>2026-04-19T09:00:22Z</time></trkpt><trkpt lat="44.5436085968351" lon="9.984544172617428"><ele>917.5999999999999</ele><time>2026-04-19T09:00:23Z</time></trkpt><trkpt lat="44.54364836930362" lon="9.984395923559264"><ele>916.8</ele><time>2026-04-19T09:00:24Z</time></trkpt><trkpt lat="44.543685279216" lon="9.984257919354961"><ele>916.0</ele><time>2026-04-19T09:00:25Z</time></trkpt><trkpt lat="44.54372766270669" lon="9.984116804199475"><ele>915.5999999999999</ele><time>2026-04-19T09:00:26Z</time></trkpt><trkpt lat="44.54376725555499" lon="9.983966054184165"><ele>915.1999999999999</ele><time>2026-04-19T09:00:27Z</time></trkpt><trkpt lat="44.54381865307077" lon="9.983823194616146"><ele>914.8000000000001</ele><time>2026-04-19T09:00:28Z</time></trkpt><trkpt lat="44.54386539075222" lon="9.983711215709633"><ele>914.4000000000001</ele><time>2026-04-19T09:00:29Z</time></trkpt><trkpt lat="44.54392131110135" lon="9.983634675639548"><ele>914.0</ele><time>2026-04-19T09:00:31Z</time></trkpt><trkpt lat="44.543956469606634" lon="9.98353213572431"><ele>914.0</ele><time>2026-04-19T09:00:35Z</time></trkpt><trkpt lat="44.544048994051074" lon="9.983453845407546"><ele>914.0000000000001</ele><time>2026-04-19T09:00:38Z</time></trkpt><trkpt lat="44.544114679837435" lon="9.983382140031082"><ele>914.0000000000001</ele><time>2026-04-19T09:00:39Z</time></trkpt><trkpt lat="44.544201849242775" lon="9.983345104174187"><ele>914.0</ele><time>2026-04-19T09:00:40Z</time></trkpt><trkpt lat="44.544295903733655" lon="9.983319956082784"><ele>914.0</ele><time>2026-04-19T09:00:41Z</time></trkpt><trkpt lat="44.54437967678292" lon="9.9833187211943"><ele>914.0</ele><time>2026-04-19T09:00:42Z</time></trkpt><trkpt lat="44.544462528581754" lon="9.983280122359572"><ele>914.0000000000001</ele><time>2026-04-19T09:00:43Z</time></trkpt><trkpt lat="44.54453996187981" lon="9.983171591685501"><ele>914.0000000000001</ele><time>2026-04-19T09:00:44Z</time></trkpt><trkpt lat="44.54464256035529" lon="9.98308625846984"><ele>914.0</ele><time>2026-04-19T09:00:45Z</time></trkpt><trkpt lat="44.544735845676925" lon="9.982980555798221"><ele>914.0</ele><time>2026-04-19T09:00:46Z</time></trkpt><trkpt lat="44.54481882043503" lon="9.982882537834266"><ele>913.2</ele><time>2026-04-19T09:00:47Z</time></trkpt><trkpt lat="44.544895604992625" lon="9.982783453122082"><ele>912.4000000000001</ele><time>2026-04-19T09:00:48Z</time></trkpt><trkpt lat="44.54495878556594" lon="9.982691040679557"><ele>911.6</ele><time>2026-04-19T09:00:49Z</time></trkpt><trkpt lat="44.54500199231211" lon="9.982619107712523"><ele>910.8</ele><time>2026-04-19T09:00:51Z</time></trkpt><trkpt lat="44.54499465754328" lon="9.982469198767154"><ele>910.0</ele><time>2026-04-19T09:01:02Z</time></trkpt><trkpt lat="44.54496488478092" lon="9.982357491412754"><ele>910.0</ele><time>2026-04-19T09:01:03Z</time></trkpt><trkpt lat="44.544932856396294" lon="9.982246625994359"><ele>910.0</ele><time>2026-04-19T09:01:04Z</time></trkpt><trkpt lat="44.54490352535095" lon="9.982104416224255"><ele>910.0</ele><time>2026-04-19T09:01:04.999Z</time></trkpt><trkpt lat="44.544862627409316" lon="9.981970717982339"><ele>910.0</ele><time>2026-04-19T09:01:05.999Z</time></trkpt><trkpt lat="44.54482377662732" lon="9.98184144390032"><ele>910.0</ele><time>2026-04-19T09:01:06.999Z</time></trkpt><trkpt lat="44.54477153691239" lon="9.981729127061518"><ele>909.0</ele><time>2026-04-19T09:01:07.999Z</time></trkpt><trkpt lat="44.54472617635" lon="9.98158743434412"><ele>908.0</ele><time>2026-04-19T09:01:08.999Z</time></trkpt><trkpt lat="44.544685081225815" lon="9.981457261266689"><ele>907.0</ele><time>2026-04-19T09:01:09.999Z</time></trkpt><trkpt lat="44.54465059163148" lon="9.981331906202763"><ele>906.0</ele><time>2026-04-19T09:01:10.999Z</time></trkpt><trkpt lat="44.5446375759038" lon="9.98123066577892"><ele>905.0</ele><time>2026-04-19T09:01:11.999Z</time></trkpt><trkpt lat="44.54463964361589" lon="9.981110068871525"><ele>905.0</ele><time>2026-04-19T09:01:12.999Z</time></trkpt><trkpt lat="44.54469023924274" lon="9.981016663315671"><ele>905.0</ele><time>2026-04-19T09:01:13.999Z</time></trkpt><trkpt lat="44.54477662631828" lon="9.980960120996064"><ele>905.0</ele><time>2026-04-19T09:01:14.999Z</time></trkpt><trkpt lat="44.544857829277454" lon="9.98086771731592"><ele>905.0</ele><time>2026-04-19T09:01:15.999Z</time></trkpt><trkpt lat="44.544955223620136" lon="9.98079110400059"><ele>905.0</ele><time>2026-04-19T09:01:16.999Z</time></trkpt><trkpt lat="44.54504099698587" lon="9.980707739912766"><ele>904.2</ele><time>2026-04-19T09:01:17.999Z</time></trkpt><trkpt lat="44.545117178402506" lon="9.98062772834794"><ele>903.4</ele><time>2026-04-19T09:01:18.999Z</time></trkpt><trkpt lat="44.54519604541712" lon="9.980543190547484"><ele>902.5999999999999</ele><time>2026-04-19T09:01:19.999Z</time></trkpt><trkpt lat="44.545281610036874" lon="9.98045800843709"><ele>901.8</ele><time>2026-04-19T09:01:20.999Z</time></trkpt><trkpt lat="44.545373612138825" lon="9.980371482168383"><ele>901.0</ele><time>2026-04-19T09:01:21.999Z</time></trkpt><trkpt lat="44.5454543249366" lon="9.980277241407792"><ele>900.0</ele><time>2026-04-19T09:01:22.999Z</time></trkpt><trkpt lat="44.545524952831855" lon="9.98015638304276"><ele>899.0</ele><time>2026-04-19T09:01:23.999Z</time></trkpt><trkpt lat="44.54558902738268" lon="9.979998337858822"><ele>898.0</ele><time>2026-04-19T09:01:24.999Z</time></trkpt><trkpt lat="44.54563908267682" lon="9.979817208686308"><ele>897.0</ele><time>2026-04-19T09:01:25.999Z</time></trkpt><trkpt lat="44.54567977995121" lon="9.979621961437648"><ele>897.0</ele><time>2026-04-19T09:01:26.999Z</time></trkpt><trkpt lat="44.54572833604951" lon="9.979448817508038"><ele>897.0</ele><time>2026-04-19T09:01:27.999Z</time></trkpt><trkpt lat="44.54578196547907" lon="9.979307031809"><ele>897.0</ele><time>2026-04-19T09:01:28.999Z</time></trkpt><trkpt lat="44.54585031615605" lon="9.979166953028985"><ele>897.0</ele><time>2026-04-19T09:01:29.999Z</time></trkpt><trkpt lat="44.54591341855367" lon="9.97903019297883"><ele>896.75</ele><time>2026-04-19T09:01:30.999Z</time></trkpt><trkpt lat="44.545955386842046" lon="9.978876870616709"><ele>896.5</ele><time>2026-04-19T09:01:31.999Z</time></trkpt><trkpt lat="44.5459693793016" lon="9.978701047696811"><ele>896.25</ele><time>2026-04-19T09:01:32.999Z</time></trkpt><trkpt lat="44.54599967520317" lon="9.97852970036742"><ele>896.0</ele><time>2026-04-19T09:01:33.999Z</time></trkpt><trkpt lat="44.54602549336724" lon="9.978392369214422"><ele>894.8</ele><time>2026-04-19T09:01:34.999Z</time></trkpt><trkpt lat="44.546087968412955" lon="9.978302819227485"><ele>893.5999999999999</ele><time>2026-04-19T09:01:35.999Z</time></trkpt><trkpt lat="44.546180968039245" lon="9.978256316760538"><ele>892.4</ele><time>2026-04-19T09:01:36.999Z</time></trkpt><trkpt lat="44.5462977536565" lon="9.978223781564589"><ele>891.2</ele><time>2026-04-19T09:01:37.999Z</time></trkpt><trkpt lat="44.54642201690537" lon="9.978173654153236"><ele>890.0</ele><time>2026-04-19T09:01:38.999Z</time></trkpt><trkpt lat="44.54654752661306" lon="9.97813875724592"><ele>890.0</ele><time>2026-04-19T09:01:39.999Z</time></trkpt><trkpt lat="44.54666127361045" lon="9.978084082908774"><ele>890.0</ele><time>2026-04-19T09:01:40.999Z</time></trkpt><trkpt lat="44.54676145088937" lon="9.978008189059018"><ele>890.0</ele><time>2026-04-19T09:01:41.999Z</time></trkpt><trkpt lat="44.54682769866702" lon="9.977975321856174"><ele>890.0</ele><time>2026-04-19T09:01:42.999Z</time></trkpt><trkpt lat="44.54688379634569" lon="9.977931946518964"><ele>890.0</ele><time>2026-04-19T09:01:47.999Z</time></trkpt><trkpt lat="44.546954470766245" lon="9.977875232591527"><ele>890.0000000000001</ele><time>2026-04-19T09:03:20.999Z</time></trkpt><trkpt lat="44.5470128646052" lon="9.977828413908824"><ele>890.0</ele><time>2026-04-19T09:03:21.999Z</time></trkpt><trkpt lat="44.547072378393416" lon="9.977780982498457"><ele>890.0</ele><time>2026-04-19T09:03:22.999Z</time></trkpt><trkpt lat="44.5471444020346" lon="9.977725349641366"><ele>890.0</ele><time>2026-04-19T09:03:23.999Z</time></trkpt><trkpt lat="44.54721884279057" lon="9.977667849795777"><ele>890.0000000000001</ele><time>2026-04-19T09:03:24.999Z</time></trkpt><trkpt lat="44.54729499289409" lon="9.977609029664107"><ele>890.0</ele><time>2026-04-19T09:03:25.999Z</time></trkpt><trkpt lat="44.54736687930237" lon="9.977551194230575"><ele>888.5000000000001</ele><time>2026-04-19T09:03:26.999Z</time></trkpt><trkpt lat="44.5474331887695" lon="9.977470496621498"><ele>887.0</ele><time>2026-04-19T09:03:27.999Z</time></trkpt><trkpt lat="44.54751273344991" lon="9.977420104457558"><ele>885.5</ele><time>2026-04-19T09:03:28.999Z</time></trkpt><trkpt lat="44.54759122618673" lon="9.97735542111268"><ele>884.0</ele><time>2026-04-19T09:03:29.999Z</time></trkpt><trkpt lat="44.547653380453674" lon="9.97728054577298"><ele>882.5000000000001</ele><time>2026-04-19T09:03:30.999Z</time></trkpt><trkpt lat="44.547718716864566" lon="9.977200712886871"><ele>881.0</ele><time>2026-04-19T09:03:31.999Z</time></trkpt><trkpt lat="44.547776557217375" lon="9.977111859861184"><ele>881.0000000000001</ele><time>2026-04-19T09:03:32.999Z</time></trkpt><trkpt lat="44.54784433263512" lon="9.97703655699085"><ele>881.0</ele><time>2026-04-19T09:03:33.999Z</time></trkpt><trkpt lat="44.547913199069136" lon="9.976975398669799"><ele>881.0</ele><time>2026-04-19T09:03:34.999Z</time></trkpt><trkpt lat="44.54798074101737" lon="9.976890454505071"><ele>881.0</ele><time>2026-04-19T09:03:35.999Z</time></trkpt><trkpt lat="44.548040669063056" lon="9.976812294963365"><ele>881.0000000000001</ele><time>2026-04-19T09:03:36.999Z</time></trkpt><trkpt lat="44.5480881243355" lon="9.97673561179984"><ele>881.0</ele><time>2026-04-19T09:03:37.999Z</time></trkpt><trkpt lat="44.54816475678697" lon="9.976664483213572"><ele>880.5000000000001</ele><time>2026-04-19T09:03:38.999Z</time></trkpt><trkpt lat="44.54821843846366" lon="9.976568992552538"><ele>880.0</ele><time>2026-04-19T09:03:39.999Z</time></trkpt><trkpt lat="44.548272441161046" lon="9.97647291268889"><ele>879.5</ele><time>2026-04-19T09:03:40.999Z</time></trkpt><trkpt lat="44.54831822669811" lon="9.976385362613849"><ele>879.0</ele><time>2026-04-19T09:03:41.999Z</time></trkpt><trkpt lat="44.54836325283297" lon="9.976299157634852"><ele>878.5000000000001</ele><time>2026-04-19T09:03:42.999Z</time></trkpt><trkpt lat="44.54842906410915" lon="9.97624317932161"><ele>878.0</ele><time>2026-04-19T09:03:43.999Z</time></trkpt><trkpt lat="44.54849465423528" lon="9.976166078679267"><ele>878.0</ele><time>2026-04-19T09:03:44.999Z</time></trkpt><trkpt lat="44.548561026134614" lon="9.976121203511434"><ele>878.0</ele><time>2026-04-19T09:03:45.999Z</time></trkpt><trkpt lat="44.54863114576634" lon="9.976101773876055"><ele>878.0</ele><time>2026-04-19T09:03:46.999Z</time></trkpt><trkpt lat="44.548703290568675" lon="9.976108764076299"><ele>878.0</ele><time>2026-04-19T09:03:47.999Z</time></trkpt><trkpt lat="44.54876317456245" lon="9.976075162246614"><ele>878.0</ele><time>2026-04-19T09:03:48.999Z</time></trkpt><trkpt lat="44.54882425280413" lon="9.976021791784332"><ele>878.0</ele><time>2026-04-19T09:03:49.999Z</time></trkpt><trkpt lat="44.548900621072875" lon="9.975950615845537"><ele>878.0</ele><time>2026-04-19T09:03:50.999Z</time></trkpt><trkpt lat="44.54896692468575" lon="9.97587241648343"><ele>876.5000000000001</ele><time>2026-04-19T09:03:51.999Z</time></trkpt><trkpt lat="44.549029066762145" lon="9.975789750244653"><ele>875.0</ele><time>2026-04-19T09:03:52.999Z</time></trkpt><trkpt lat="44.54910298229826" lon="9.975719253443797"><ele>873.5</ele><time>2026-04-19T09:03:53.999Z</time></trkpt><trkpt lat="44.549168260160805" lon="9.975640114091409"><ele>872.0</ele><time>2026-04-19T09:03:54.999Z</time></trkpt><trkpt lat="44.54923170220192" lon="9.975578604686397"><ele>870.5000000000001</ele><time>2026-04-19T09:03:55.999Z</time></trkpt><trkpt lat="44.549300422881096" lon="9.9755339680644"><ele>869.0</ele><time>2026-04-19T09:03:56.999Z</time></trkpt><trkpt lat="44.54937983325393" lon="9.975513140637945"><ele>869.0000000000001</ele><time>2026-04-19T09:03:57.999Z</time></trkpt><trkpt lat="44.54946709179262" lon="9.975520046860646"><ele>869.0</ele><time>2026-04-19T09:03:58.999Z</time></trkpt><trkpt lat="44.54956062541013" lon="9.975524589696695"><ele>869.0</ele><time>2026-04-19T09:03:59.999Z</time></trkpt><trkpt lat="44.54965028233309" lon="9.975506135224672"><ele>869.0</ele><time>2026-04-19T09:04:00.999Z</time></trkpt><trkpt lat="44.549729536937384" lon="9.97548816658204"><ele>869.0000000000001</ele><time>2026-04-19T09:04:01.999Z</time></trkpt><trkpt lat="44.549795911312934" lon="9.975526389588964"><ele>869.0</ele><time>2026-04-19T09:04:03Z</time></trkpt><trkpt lat="44.549833829175384" lon="9.975615681021829"><ele>867.5000000000001</ele><time>2026-04-19T09:04:04Z</time></trkpt><trkpt lat="44.54983665012795" lon="9.975718876041482"><ele>866.0</ele><time>2026-04-19T09:04:05Z</time></trkpt><trkpt lat="44.54979348976969" lon="9.97582180438916"><ele>864.5</ele><time>2026-04-19T09:04:06Z</time></trkpt><trkpt lat="44.54977675482432" lon="9.975945991280453"><ele>863.0</ele><time>2026-04-19T09:04:07Z</time></trkpt><trkpt lat="44.54976320809628" lon="9.976067385571751"><ele>861.5000000000001</ele><time>2026-04-19T09:04:08Z</time></trkpt><trkpt lat="44.54976437435831" lon="9.976204028554994"><ele>860.0</ele><time>2026-04-19T09:04:09Z</time></trkpt><trkpt lat="44.54978067853331" lon="9.976344411913708"><ele>859.1666666666667</ele><time>2026-04-19T09:04:10Z</time></trkpt><trkpt lat="44.5498039260983" lon="9.97648396346916"><ele>858.3333333333334</ele><time>2026-04-19T09:04:11Z</time></trkpt><trkpt lat="44.5498216606919" lon="9.97658221711817"><ele>857.5</ele><time>2026-04-19T09:04:12Z</time></trkpt><trkpt lat="44.54987816276417" lon="9.976687930628493"><ele>856.6666666666667</ele><time>2026-04-19T09:04:14Z</time></trkpt><trkpt lat="44.549963243687934" lon="9.976658550441698"><ele>855.8333333333334</ele><time>2026-04-19T09:04:16Z</time></trkpt><trkpt lat="44.55004038114935" lon="9.976615703156247"><ele>855.0</ele><time>2026-04-19T09:04:17Z</time></trkpt><trkpt lat="44.5501139548038" lon="9.976506571122346"><ele>855.0</ele><time>2026-04-19T09:04:18Z</time></trkpt><trkpt lat="44.550184509602914" lon="9.97643587958194"><ele>855.0</ele><time>2026-04-19T09:04:19Z</time></trkpt><trkpt lat="44.55026737779166" lon="9.976454852476591"><ele>855.0</ele><time>2026-04-19T09:04:20Z</time></trkpt><trkpt lat="44.55038071284815" lon="9.976433518345974"><ele>855.0</ele><time>2026-04-19T09:04:21Z</time></trkpt><trkpt lat="44.550484588004316" lon="9.976413964777745"><ele>855.0</ele><time>2026-04-19T09:04:22Z</time></trkpt><trkpt lat="44.55057033099217" lon="9.976371542182164"><ele>852.6</ele><time>2026-04-19T09:04:23Z</time></trkpt><trkpt lat="44.55065020185599" lon="9.976361804683979"><ele>850.2</ele><time>2026-04-19T09:04:24Z</time></trkpt><trkpt lat="44.55072312351076" lon="9.976297366570646"><ele>847.8</ele><time>2026-04-19T09:04:25Z</time></trkpt><trkpt lat="44.550774530311585" lon="9.976184992012351"><ele>845.4</ele><time>2026-04-19T09:04:26Z</time></trkpt><trkpt lat="44.5507907083694" lon="9.976023404632196"><ele>843.0</ele><time>2026-04-19T09:04:27Z</time></trkpt><trkpt lat="44.55083816500094" lon="9.975911502416634"><ele>843.4</ele><time>2026-04-19T09:04:28Z</time></trkpt><trkpt lat="44.55086173463857" lon="9.975798345238617"><ele>843.8</ele><time>2026-04-19T09:04:29Z</time></trkpt><trkpt lat="44.55086808925372" lon="9.975675801209814"><ele>844.2</ele><time>2026-04-19T09:04:30Z</time></trkpt><trkpt lat="44.55084509187768" lon="9.975566388770567"><ele>844.6</ele><time>2026-04-19T09:04:31Z</time></trkpt><trkpt lat="44.55078660268825" lon="9.975432418983658"><ele>845.0</ele><time>2026-04-19T09:04:32Z</time></trkpt><trkpt lat="44.55073251518488" lon="9.975314113300431"><ele>845.0000000000001</ele><time>2026-04-19T09:04:33Z</time></trkpt><trkpt lat="44.550674635210115" lon="9.97520086004995"><ele>845.0</ele><time>2026-04-19T09:04:34Z</time></trkpt><trkpt lat="44.550639620913294" lon="9.97510174322544"><ele>845.0</ele><time>2026-04-19T09:04:35Z</time></trkpt><trkpt lat="44.55063223584205" lon="9.97500658510796"><ele>845.0</ele><time>2026-04-19T09:04:36Z</time></trkpt><trkpt lat="44.550680407258376" lon="9.974947548103959"><ele>845.0000000000001</ele><time>2026-04-19T09:04:37Z</time></trkpt><trkpt lat="44.550702277977514" lon="9.974857406562508"><ele>845.0</ele><time>2026-04-19T09:04:38Z</time></trkpt><trkpt lat="44.550740237914354" lon="9.974768384228943"><ele>844.2</ele><time>2026-04-19T09:04:39Z</time></trkpt><trkpt lat="44.55076571634042" lon="9.974657787624633"><ele>843.4</ele><time>2026-04-19T09:04:40Z</time></trkpt><trkpt lat="44.55076565502632" lon="9.974527784554912"><ele>842.5999999999999</ele><time>2026-04-19T09:04:41Z</time></trkpt><trkpt lat="44.55074466380692" lon="9.974406945908248"><ele>841.8</ele><time>2026-04-19T09:04:42Z</time></trkpt><trkpt lat="44.55071324862889" lon="9.974295142955663"><ele>841.0</ele><time>2026-04-19T09:04:43Z</time></trkpt><trkpt lat="44.55067051112113" lon="9.974166725246999"><ele>839.0</ele><time>2026-04-19T09:04:44Z</time></trkpt><trkpt lat="44.55060652520563" lon="9.974064093618598"><ele>837.0</ele><time>2026-04-19T09:04:45Z</time></trkpt><trkpt lat="44.55055956260421" lon="9.97395402416405"><ele>835.0</ele><time>2026-04-19T09:04:46Z</time></trkpt><trkpt lat="44.550515021254206" lon="9.97384058701712"><ele>833.0</ele><time>2026-04-19T09:04:47Z</time></trkpt><trkpt lat="44.55044802814119" lon="9.973734530215916"><ele>831.0</ele><time>2026-04-19T09:04:48Z</time></trkpt><trkpt lat="44.5503740803098" lon="9.973634048852405"><ele>832.1666666666666</ele><time>2026-04-19T09:04:49Z</time></trkpt><trkpt lat="44.55029889882901" lon="9.97353691808571"><ele>833.3333333333333</ele><time>2026-04-19T09:04:50Z</time></trkpt><trkpt lat="44.550233509469294" lon="9.973451924746618"><ele>834.5</ele><time>2026-04-19T09:04:51Z</time></trkpt><trkpt lat="44.550161984363115" lon="9.973389574754119"><ele>835.6666666666666</ele><time>2026-04-19T09:04:52Z</time></trkpt><trkpt lat="44.550105402906816" lon="9.973303991199112"><ele>836.8333333333333</ele><time>2026-04-19T09:04:53Z</time></trkpt><trkpt lat="44.550051718428946" lon="9.973221545028405"><ele>838.0</ele><time>2026-04-19T09:04:54Z</time></trkpt><trkpt lat="44.54999209161677" lon="9.973131378584613"><ele>837.9999999999999</ele><time>2026-04-19T09:04:55Z</time></trkpt><trkpt lat="44.5499825318621" lon="9.972997880357907"><ele>838.0</ele><time>2026-04-19T09:04:57Z</time></trkpt><trkpt lat="44.55004254141605" lon="9.972949337182712"><ele>838.0</ele><time>2026-04-19T09:04:58Z</time></trkpt><trkpt lat="44.55011965076502" lon="9.97295886228478"><ele>838.0</ele><time>2026-04-19T09:04:59Z</time></trkpt><trkpt lat="44.5501832767767" lon="9.973043261851302"><ele>837.9999999999999</ele><time>2026-04-19T09:05:00Z</time></trkpt><trkpt lat="44.550222237155644" lon="9.973163102831498"><ele>838.0</ele><time>2026-04-19T09:05:01Z</time></trkpt><trkpt lat="44.55028123682609" lon="9.973222845398451"><ele>837.9999999999999</ele><time>2026-04-19T09:05:02Z</time></trkpt><trkpt lat="44.55033666028002" lon="9.973282383237997"><ele>838.0</ele><time>2026-04-19T09:05:03Z</time></trkpt><trkpt lat="44.5503908552837" lon="9.973358692018717"><ele>838.0</ele><time>2026-04-19T09:05:04Z</time></trkpt><trkpt lat="44.550443536177056" lon="9.973407211624767"><ele>838.0</ele><time>2026-04-19T09:05:05Z</time></trkpt><trkpt lat="44.550498890944844" lon="9.973460251729557"><ele>837.9999999999999</ele><time>2026-04-19T09:05:06Z</time></trkpt><trkpt lat="44.55057268047824" lon="9.973521488226128"><ele>838.0</ele><time>2026-04-19T09:05:07Z</time></trkpt><trkpt lat="44.550661082651594" lon="9.973552676179063"><ele>836.5999999999999</ele><time>2026-04-19T09:05:08Z</time></trkpt><trkpt lat="44.55075465415672" lon="9.973509049318"><ele>835.1999999999999</ele><time>2026-04-19T09:05:09Z</time></trkpt><trkpt lat="44.55084910736154" lon="9.973548824256607"><ele>833.8</ele><time>2026-04-19T09:05:10Z</time></trkpt><trkpt lat="44.55093784050071" lon="9.973571349399833"><ele>832.4</ele><time>2026-04-19T09:05:11Z</time></trkpt><trkpt lat="44.55101672413235" lon="9.973613850137426"><ele>831.0</ele><time>2026-04-19T09:05:12Z</time></trkpt><trkpt lat="44.55108700378104" lon="9.973686788018318"><ele>831.0</ele><time>2026-04-19T09:05:13Z</time></trkpt><trkpt lat="44.55117156632254" lon="9.973787311816599"><ele>831.0</ele><time>2026-04-19T09:05:14Z</time></trkpt><trkpt lat="44.5512580334893" lon="9.973865758592245"><ele>831.0</ele><time>2026-04-19T09:05:15Z</time></trkpt><trkpt lat="44.551323687932424" lon="9.973952015032278"><ele>831.0</ele><time>2026-04-19T09:05:16Z</time></trkpt><trkpt lat="44.55139997157199" lon="9.974034826699324"><ele>831.0</ele><time>2026-04-19T09:05:17Z</time></trkpt><trkpt lat="44.55150130033642" lon="9.974045886630506"><ele>827.5999999999999</ele><time>2026-04-19T09:05:18Z</time></trkpt><trkpt lat="44.55160104161954" lon="9.974075934063132"><ele>824.2</ele><time>2026-04-19T09:05:18.999Z</time></trkpt><trkpt lat="44.551693709511255" lon="9.974099848460689"><ele>820.8</ele><time>2026-04-19T09:05:19.999Z</time></trkpt><trkpt lat="44.55179680893476" lon="9.974119317624245"><ele>817.4000000000001</ele><time>2026-04-19T09:05:20.999Z</time></trkpt><trkpt lat="44.55190054902051" lon="9.974125519930226"><ele>814.0</ele><time>2026-04-19T09:05:21.999Z</time></trkpt><trkpt lat="44.551995604909905" lon="9.974124060061566"><ele>812.4000000000001</ele><time>2026-04-19T09:05:22.999Z</time></trkpt><trkpt lat="44.552083380372636" lon="9.974100350968516"><ele>810.8</ele><time>2026-04-19T09:05:23.999Z</time></trkpt><trkpt lat="44.552168856710594" lon="9.974042752423312"><ele>809.2</ele><time>2026-04-19T09:05:24.999Z</time></trkpt><trkpt lat="44.55223645895355" lon="9.973943636618344"><ele>807.5999999999999</ele><time>2026-04-19T09:05:25.999Z</time></trkpt><trkpt lat="44.55226576252999" lon="9.973814588844677"><ele>806.0</ele><time>2026-04-19T09:05:26.999Z</time></trkpt><trkpt lat="44.55227947567263" lon="9.97366912338065"><ele>806.0</ele><time>2026-04-19T09:05:27.999Z</time></trkpt><trkpt lat="44.552271427459054" lon="9.973500886957751"><ele>806.0</ele><time>2026-04-19T09:05:28.999Z</time></trkpt><trkpt lat="44.5522654760867" lon="9.973350049451104"><ele>806.0</ele><time>2026-04-19T09:05:29.999Z</time></trkpt><trkpt lat="44.55226303628783" lon="9.973206601816207"><ele>806.0</ele><time>2026-04-19T09:05:30.999Z</time></trkpt><trkpt lat="44.55224830384531" lon="9.973072341347972"><ele>806.0</ele><time>2026-04-19T09:05:31.999Z</time></trkpt><trkpt lat="44.55227507824083" lon="9.972964827658068"><ele>805.4</ele><time>2026-04-19T09:05:32.999Z</time></trkpt><trkpt lat="44.55229615314113" lon="9.972859715912932"><ele>804.8</ele><time>2026-04-19T09:05:33.999Z</time></trkpt><trkpt lat="44.5523617020548" lon="9.972789148997514"><ele>804.1999999999999</ele><time>2026-04-19T09:05:34.999Z</time></trkpt><trkpt lat="44.55244566974473" lon="9.97280543831316"><ele>803.5999999999999</ele><time>2026-04-19T09:05:35.999Z</time></trkpt><trkpt lat="44.552553403496375" lon="9.972846109783779"><ele>803.0</ele><time>2026-04-19T09:05:37.999Z</time></trkpt><trkpt lat="44.552656804359245" lon="9.972860991767522"><ele>803.0000000000001</ele><time>2026-04-19T09:05:39.999Z</time></trkpt><trkpt lat="44.5527442183347" lon="9.972874089163343"><ele>803.0</ele><time>2026-04-19T09:05:40.999Z</time></trkpt><trkpt lat="44.55284078543384" lon="9.972906298529262"><ele>803.0</ele><time>2026-04-19T09:05:41.999Z</time></trkpt><trkpt lat="44.55292283591433" lon="9.97291817554455"><ele>803.0</ele><time>2026-04-19T09:05:42.999Z</time></trkpt><trkpt lat="44.55300836182149" lon="9.972958447743927"><ele>803.0000000000001</ele><time>2026-04-19T09:05:43.999Z</time></trkpt><trkpt lat="44.55307510834073" lon="9.97303099839812"><ele>803.0</ele><time>2026-04-19T09:05:44.999Z</time></trkpt><trkpt lat="44.553125924243766" lon="9.973136503393077"><ele>801.6666666666667</ele><time>2026-04-19T09:05:45.999Z</time></trkpt><trkpt lat="44.55319206865026" lon="9.9732298546853"><ele>800.3333333333334</ele><time>2026-04-19T09:05:46.999Z</time></trkpt><trkpt lat="44.553264089033426" lon="9.973304997054312"><ele>799.0</ele><time>2026-04-19T09:05:47.999Z</time></trkpt><trkpt lat="44.55332346780814" lon="9.973346331371888"><ele>797.6666666666667</ele><time>2026-04-19T09:05:48.999Z</time></trkpt><trkpt lat="44.55338321038691" lon="9.973392245367837"><ele>796.3333333333334</ele><time>2026-04-19T09:05:50.999Z</time></trkpt><trkpt lat="44.55343926418277" lon="9.973451695252672"><ele>795.0</ele><time>2026-04-19T09:05:55.999Z</time></trkpt><trkpt lat="44.5533834464926" lon="9.973625610507193"><ele>795.0</ele><time>2026-04-19T09:05:56.999Z</time></trkpt><trkpt lat="44.553316437656314" lon="9.973782590971005"><ele>795.0</ele><time>2026-04-19T09:05:58.999Z</time></trkpt><trkpt lat="44.55328086981679" lon="9.973860847367112"><ele>795.0</ele><time>2026-04-19T09:05:59.999Z</time></trkpt><trkpt lat="44.55321651453747" lon="9.97395071784908"><ele>795.0</ele><time>2026-04-19T09:06:01.999Z</time></trkpt><trkpt lat="44.55314097237157" lon="9.974087870902478"><ele>795.0</ele><time>2026-04-19T09:06:03.999Z</time></trkpt><trkpt lat="44.553091712289984" lon="9.974263346071794"><ele>794.6</ele><time>2026-04-19T09:06:05.999Z</time></trkpt><trkpt lat="44.55308654804597" lon="9.974360284682614"><ele>794.2</ele><time>2026-04-19T09:06:06.999Z</time></trkpt><trkpt lat="44.55307790706269" lon="9.974456025796114"><ele>793.8</ele><time>2026-04-19T09:06:07.999Z</time></trkpt><trkpt lat="44.55302606982978" lon="9.9746014254773"><ele>793.4</ele><time>2026-04-19T09:06:10Z</time></trkpt><trkpt lat="44.55297066514306" lon="9.974708556006599"><ele>793.0</ele><time>2026-04-19T09:06:12Z</time></trkpt><trkpt lat="44.55289737379258" lon="9.974811919581802"><ele>791.8333333333333</ele><time>2026-04-19T09:06:14Z</time></trkpt><trkpt lat="44.552871326122535" lon="9.974913660971362"><ele>790.6666666666666</ele><time>2026-04-19T09:06:16Z</time></trkpt><trkpt lat="44.552876508380756" lon="9.975052586544285"><ele>789.5</ele><time>2026-04-19T09:06:18Z</time></trkpt><trkpt lat="44.55290209590258" lon="9.975162500421284"><ele>788.3333333333333</ele><time>2026-04-19T09:06:19Z</time></trkpt><trkpt lat="44.55292895122512" lon="9.975265683821048"><ele>787.1666666666666</ele><time>2026-04-19T09:06:20Z</time></trkpt><trkpt lat="44.55295254325885" lon="9.975354583079424"><ele>786.0</ele><time>2026-04-19T09:06:21Z</time></trkpt><trkpt lat="44.552968171166434" lon="9.975440787335248"><ele>786.0000000000001</ele><time>2026-04-19T09:06:22Z</time></trkpt><trkpt lat="44.55297288490769" lon="9.975535187512417"><ele>786.0</ele><time>2026-04-19T09:06:23Z</time></trkpt><trkpt lat="44.552988390783526" lon="9.975631652717253"><ele>786.0</ele><time>2026-04-19T09:06:24Z</time></trkpt><trkpt lat="44.5529938530102" lon="9.975729716034868"><ele>786.0</ele><time>2026-04-19T09:06:25Z</time></trkpt><trkpt lat="44.552991149674604" lon="9.975822360391307"><ele>786.0</ele><time>2026-04-19T09:06:26Z</time></trkpt><trkpt lat="44.552983129134745" lon="9.975921238629727"><ele>786.0000000000001</ele><time>2026-04-19T09:06:27Z</time></trkpt><trkpt lat="44.55296150283635" lon="9.97602747072673"><ele>786.0</ele><time>2026-04-19T09:06:28Z</time></trkpt><trkpt lat="44.552955544944695" lon="9.97613571368805"><ele>785.3333333333334</ele><time>2026-04-19T09:06:29Z</time></trkpt><trkpt lat="44.55295602597342" lon="9.976252154143479"><ele>784.6666666666667</ele><time>2026-04-19T09:06:30Z</time></trkpt><trkpt lat="44.552962298827744" lon="9.97636904942555"><ele>784.0</ele><time>2026-04-19T09:06:31Z</time></trkpt><trkpt lat="44.552944111073714" lon="9.976482518285223"><ele>783.3333333333334</ele><time>2026-04-19T09:06:32Z</time></trkpt><trkpt lat="44.55294924039703" lon="9.976602479151833"><ele>782.6666666666667</ele><time>2026-04-19T09:06:33Z</time></trkpt><trkpt lat="44.5529289125429" lon="9.976724246894479"><ele>782.0</ele><time>2026-04-19T09:06:34Z</time></trkpt><trkpt lat="44.55290644668343" lon="9.976809106751661"><ele>784.8</ele><time>2026-04-19T09:06:35Z</time></trkpt><trkpt lat="44.55285789412194" lon="9.976952669654322"><ele>787.6</ele><time>2026-04-19T09:06:37Z</time></trkpt><trkpt lat="44.552739701423604" lon="9.977038124240819"><ele>790.4</ele><time>2026-04-19T09:06:39Z</time></trkpt><trkpt lat="44.552664716223255" lon="9.977056538896226"><ele>793.1999999999999</ele><time>2026-04-19T09:06:40Z</time></trkpt><trkpt lat="44.55259547579131" lon="9.97708881102541"><ele>796.0</ele><time>2026-04-19T09:06:41Z</time></trkpt><trkpt lat="44.55250691689171" lon="9.977139393509313"><ele>795.9999999999999</ele><time>2026-04-19T09:06:42Z</time></trkpt><trkpt lat="44.55243972416568" lon="9.977232283688457"><ele>796.0</ele><time>2026-04-19T09:06:43Z</time></trkpt><trkpt lat="44.55236921027506" lon="9.977276049381963"><ele>796.0</ele><time>2026-04-19T09:06:44Z</time></trkpt><trkpt lat="44.55229308934955" lon="9.977314011340182"><ele>796.0</ele><time>2026-04-19T09:06:45Z</time></trkpt><trkpt lat="44.55221520537615" lon="9.97737242802384"><ele>795.9999999999999</ele><time>2026-04-19T09:06:46Z</time></trkpt><trkpt lat="44.552133654459055" lon="9.977437219291202"><ele>796.0</ele><time>2026-04-19T09:06:47Z</time></trkpt><trkpt lat="44.55206342966539" lon="9.977513057266766"><ele>797.4999999999999</ele><time>2026-04-19T09:06:48Z</time></trkpt><trkpt lat="44.5520025654597" lon="9.977579632720477"><ele>799.0</ele><time>2026-04-19T09:06:49Z</time></trkpt><trkpt lat="44.5519434900917" lon="9.977653155281033"><ele>800.5</ele><time>2026-04-19T09:06:50Z</time></trkpt><trkpt lat="44.551878590476896" lon="9.977728646863"><ele>802.0</ele><time>2026-04-19T09:06:51Z</time></trkpt><trkpt lat="44.55180485128014" lon="9.977778850501185"><ele>803.4999999999999</ele><time>2026-04-19T09:06:52Z</time></trkpt><trkpt lat="44.55175357404051" lon="9.9778531564176"><ele>805.0</ele><time>2026-04-19T09:06:53Z</time></trkpt><trkpt lat="44.5516981870436" lon="9.977928563796326"><ele>804.9999999999999</ele><time>2026-04-19T09:06:54Z</time></trkpt><trkpt lat="44.55166135031838" lon="9.97801835846201"><ele>805.0</ele><time>2026-04-19T09:06:55Z</time></trkpt><trkpt lat="44.551630126699706" lon="9.97812041991838"><ele>805.0</ele><time>2026-04-19T09:06:56Z</time></trkpt><trkpt lat="44.55160099111253" lon="9.978213709700475"><ele>805.0</ele><time>2026-04-19T09:06:57Z</time></trkpt><trkpt lat="44.55154976025286" lon="9.97827400386672"><ele>804.9999999999999</ele><time>2026-04-19T09:06:58Z</time></trkpt><trkpt lat="44.55147598080791" lon="9.978380803679661"><ele>805.0</ele><time>2026-04-19T09:07:00Z</time></trkpt><trkpt lat="44.55138586061352" lon="9.978498934277704"><ele>805.9999999999999</ele><time>2026-04-19T09:07:02Z</time></trkpt><trkpt lat="44.55134654874425" lon="9.978576613311311"><ele>807.0</ele><time>2026-04-19T09:07:03Z</time></trkpt><trkpt lat="44.55124917817411" lon="9.978700474224786"><ele>808.0</ele><time>2026-04-19T09:07:05Z</time></trkpt><trkpt lat="44.55119399210212" lon="9.978780115371494"><ele>809.0</ele><time>2026-04-19T09:07:06Z</time></trkpt><trkpt lat="44.551143735673875" lon="9.978872792389202"><ele>809.9999999999999</ele><time>2026-04-19T09:07:07Z</time></trkpt><trkpt lat="44.55109677045332" lon="9.978961365740192"><ele>811.0</ele><time>2026-04-19T09:07:08Z</time></trkpt><trkpt lat="44.551032497925675" lon="9.97908450338364"><ele>808.5999999999999</ele><time>2026-04-19T09:07:10Z</time></trkpt><trkpt lat="44.55097855680247" lon="9.979208024381053"><ele>806.2</ele><time>2026-04-19T09:07:12Z</time></trkpt><trkpt lat="44.55092537761734" lon="9.979308107008682"><ele>803.8</ele><time>2026-04-19T09:07:15Z</time></trkpt><trkpt lat="44.55085113719129" lon="9.979345389634794"><ele>801.4000000000001</ele><time>2026-04-19T09:07:17Z</time></trkpt><trkpt lat="44.55078242001381" lon="9.979419454396746"><ele>799.0</ele><time>2026-04-19T09:07:19Z</time></trkpt><trkpt lat="44.550688895608126" lon="9.9795313426576"><ele>798.9999999999999</ele><time>2026-04-19T09:07:21Z</time></trkpt><trkpt lat="44.55064315108693" lon="9.979602792900927"><ele>799.0</ele><time>2026-04-19T09:07:21.999Z</time></trkpt><trkpt lat="44.550605003266284" lon="9.979688897106506"><ele>799.0</ele><time>2026-04-19T09:07:22.999Z</time></trkpt><trkpt lat="44.550550400160134" lon="9.979836577290332"><ele>799.0</ele><time>2026-04-19T09:07:24.999Z</time></trkpt><trkpt lat="44.55050392925384" lon="9.97991667522488"><ele>798.9999999999999</ele><time>2026-04-19T09:07:25.999Z</time></trkpt><trkpt lat="44.55044174945959" lon="9.979979383392"><ele>799.0</ele><time>2026-04-19T09:07:26.999Z</time></trkpt><trkpt lat="44.550383239180604" lon="9.980055897792008"><ele>800.9999999999999</ele><time>2026-04-19T09:07:27.999Z</time></trkpt><trkpt lat="44.55033217231917" lon="9.980144768489449"><ele>803.0</ele><time>2026-04-19T09:07:28.999Z</time></trkpt><trkpt lat="44.55027661866876" lon="9.980255659017251"><ele>805.0</ele><time>2026-04-19T09:07:29.999Z</time></trkpt><trkpt lat="44.55022211350957" lon="9.980345078028616"><ele>807.0</ele><time>2026-04-19T09:07:30.999Z</time></trkpt><trkpt lat="44.55018078319605" lon="9.980433701920294"><ele>808.9999999999999</ele><time>2026-04-19T09:07:31.999Z</time></trkpt><trkpt lat="44.55017857369677" lon="9.980549927069935"><ele>811.0</ele><time>2026-04-19T09:07:32.999Z</time></trkpt><trkpt lat="44.55017904011935" lon="9.980685149598937"><ele>811.0</ele><time>2026-04-19T09:07:33.999Z</time></trkpt><trkpt lat="44.5501790312646" lon="9.980795544432503"><ele>811.0</ele><time>2026-04-19T09:07:34.999Z</time></trkpt><trkpt lat="44.550146216737474" lon="9.9809450822431"><ele>811.0</ele><time>2026-04-19T09:07:36.999Z</time></trkpt><trkpt lat="44.55010906517538" lon="9.98110160389675"><ele>811.0</ele><time>2026-04-19T09:07:38.999Z</time></trkpt><trkpt lat="44.550058033025714" lon="9.9812251058351"><ele>811.0</ele><time>2026-04-19T09:07:40.999Z</time></trkpt><trkpt lat="44.55004744584721" lon="9.981338816977278"><ele>809.9999999999999</ele><time>2026-04-19T09:07:43.999Z</time></trkpt><trkpt lat="44.550058779856805" lon="9.981442530187726"><ele>809.0</ele><time>2026-04-19T09:07:45.999Z</time></trkpt><trkpt lat="44.550082122717136" lon="9.98157531691187"><ele>808.0</ele><time>2026-04-19T09:07:47.999Z</time></trkpt><trkpt lat="44.55009664663992" lon="9.981687992241095"><ele>807.0</ele><time>2026-04-19T09:07:50.999Z</time></trkpt><trkpt lat="44.5500824958298" lon="9.981804739644064"><ele>805.9999999999999</ele><time>2026-04-19T09:07:52.999Z</time></trkpt><trkpt lat="44.55007873204785" lon="9.98193147777762"><ele>805.0</ele><time>2026-04-19T09:07:54.999Z</time></trkpt><trkpt lat="44.550059883645076" lon="9.98208373805648"><ele>804.8333333333333</ele><time>2026-04-19T09:07:56.999Z</time></trkpt><trkpt lat="44.55001544582246" lon="9.982247716727175"><ele>804.6666666666666</ele><time>2026-04-19T09:07:58.999Z</time></trkpt><trkpt lat="44.54998064836814" lon="9.982342705311195"><ele>804.5</ele><time>2026-04-19T09:07:59.999Z</time></trkpt><trkpt lat="44.54995125419659" lon="9.982427258832745"><ele>804.3333333333333</ele><time>2026-04-19T09:08:00.999Z</time></trkpt><trkpt lat="44.54993465388146" lon="9.982512878451924"><ele>804.1666666666666</ele><time>2026-04-19T09:08:01.999Z</time></trkpt><trkpt lat="44.54991626639711" lon="9.982660624965273"><ele>804.0</ele><time>2026-04-19T09:08:03.999Z</time></trkpt><trkpt lat="44.549929869903465" lon="9.982814831638676"><ele>804.2</ele><time>2026-04-19T09:08:05.999Z</time></trkpt><trkpt lat="44.5499450125309" lon="9.982926539527844"><ele>804.4000000000001</ele><time>2026-04-19T09:08:07.999Z</time></trkpt><trkpt lat="44.54993409151671" lon="9.983031343682876"><ele>804.6</ele><time>2026-04-19T09:08:09.999Z</time></trkpt><trkpt lat="44.54992092845696" lon="9.983169944575293"><ele>804.8</ele><time>2026-04-19T09:08:11.999Z</time></trkpt><trkpt lat="44.54992701178095" lon="9.983330759490274"><ele>805.0</ele><time>2026-04-19T09:08:13.999Z</time></trkpt><trkpt lat="44.54995140361551" lon="9.983474052635476"><ele>804.9999999999999</ele><time>2026-04-19T09:08:16Z</time></trkpt><trkpt lat="44.54997659688833" lon="9.983569450781843"><ele>805.0</ele><time>2026-04-19T09:08:19Z</time></trkpt><trkpt lat="44.55002134734421" lon="9.98365403003884"><ele>805.0</ele><time>2026-04-19T09:08:22Z</time></trkpt><trkpt lat="44.550084024110966" lon="9.983738888186924"><ele>805.0</ele><time>2026-04-19T09:08:25Z</time></trkpt><trkpt lat="44.550148944076035" lon="9.983800814571739"><ele>804.9999999999999</ele><time>2026-04-19T09:08:28Z</time></trkpt><trkpt lat="44.550191015201655" lon="9.983914789111438"><ele>805.0</ele><time>2026-04-19T09:08:31Z</time></trkpt><trkpt lat="44.55012220816233" lon="9.983696705262327"><ele>804.9999999999999</ele><time>2026-04-19T09:08:35Z</time></trkpt><trkpt lat="44.55003849954893" lon="9.983704987955305"><ele>805.0</ele><time>2026-04-19T09:08:38Z</time></trkpt><trkpt lat="44.549978717424935" lon="9.983606966507672"><ele>805.0</ele><time>2026-04-19T09:08:40Z</time></trkpt><trkpt lat="44.54993544092619" lon="9.983440861391996"><ele>805.0</ele><time>2026-04-19T09:08:42Z</time></trkpt><trkpt lat="44.54992602508576" lon="9.983342910550192"><ele>804.9999999999999</ele><time>2026-04-19T09:08:43Z</time></trkpt><trkpt lat="44.54993033094802" lon="9.983249505567244"><ele>805.0</ele><time>2026-04-19T09:08:44Z</time></trkpt><trkpt lat="44.54992568307511" lon="9.983152689206237"><ele>805.1666666666666</ele><time>2026-04-19T09:08:45Z</time></trkpt><trkpt lat="44.54993420219361" lon="9.983035034611285"><ele>805.3333333333333</ele><time>2026-04-19T09:08:46Z</time></trkpt><trkpt lat="44.54994923277121" lon="9.982918847810781"><ele>805.5</ele><time>2026-04-19T09:08:47Z</time></trkpt><trkpt lat="44.5499440964297" lon="9.982824517085948"><ele>805.6666666666667</ele><time>2026-04-19T09:08:48Z</time></trkpt><trkpt lat="44.54992682761019" lon="9.982735875969436"><ele>805.8333333333334</ele><time>2026-04-19T09:08:49Z</time></trkpt><trkpt lat="44.5499286099588" lon="9.982618297214044"><ele>806.0</ele><time>2026-04-19T09:09:01Z</time></trkpt><trkpt lat="44.54997837805441" lon="9.982518221352112"><ele>805.5999999999999</ele><time>2026-04-19T09:09:03Z</time></trkpt><trkpt lat="44.55000594913583" lon="9.982387053695176"><ele>805.2</ele><time>2026-04-19T09:09:05Z</time></trkpt><trkpt lat="44.55005851199752" lon="9.98223387627538"><ele>804.8</ele><time>2026-04-19T09:09:07Z</time></trkpt><trkpt lat="44.550090844855944" lon="9.982070097901495"><ele>804.4000000000001</ele><time>2026-04-19T09:09:09Z</time></trkpt><trkpt lat="44.55011828133248" lon="9.981979399797394"><ele>804.0</ele><time>2026-04-19T09:09:10Z</time></trkpt><trkpt lat="44.55012572442278" lon="9.981870553186607"><ele>804.0</ele><time>2026-04-19T09:09:11Z</time></trkpt><trkpt lat="44.55012986507314" lon="9.981775805236314"><ele>804.0</ele><time>2026-04-19T09:09:12Z</time></trkpt><trkpt lat="44.55011519127058" lon="9.981622122243678"><ele>804.0</ele><time>2026-04-19T09:09:14Z</time></trkpt><trkpt lat="44.550102321133025" lon="9.98146927752471"><ele>804.0</ele><time>2026-04-19T09:09:16Z</time></trkpt><trkpt lat="44.55007742053109" lon="9.981304108751253"><ele>804.0</ele><time>2026-04-19T09:09:18Z</time></trkpt><trkpt lat="44.55008075894891" lon="9.981197013643518"><ele>804.1666666666666</ele><time>2026-04-19T09:09:19Z</time></trkpt><trkpt lat="44.550138613082915" lon="9.981106010751658"><ele>804.3333333333333</ele><time>2026-04-19T09:09:20Z</time></trkpt><trkpt lat="44.55015794612417" lon="9.981011045402992"><ele>804.5</ele><time>2026-04-19T09:09:21Z</time></trkpt><trkpt lat="44.550186594650114" lon="9.980929700410181"><ele>804.6666666666666</ele><time>2026-04-19T09:09:22Z</time></trkpt><trkpt lat="44.550201666333926" lon="9.980819739956077"><ele>804.8333333333333</ele><time>2026-04-19T09:09:23Z</time></trkpt><trkpt lat="44.55020835360886" lon="9.98071895417342"><ele>805.0</ele><time>2026-04-19T09:09:23.999Z</time></trkpt><trkpt lat="44.55021951380086" lon="9.980565712943019"><ele>805.9999999999999</ele><time>2026-04-19T09:09:25.999Z</time></trkpt><trkpt lat="44.55023305901445" lon="9.980420726422992"><ele>807.0</ele><time>2026-04-19T09:09:27.999Z</time></trkpt><trkpt lat="44.55026240192307" lon="9.980330759395322"><ele>808.0</ele><time>2026-04-19T09:09:28.999Z</time></trkpt><trkpt lat="44.550322683165206" lon="9.980239601992153"><ele>809.0</ele><time>2026-04-19T09:09:29.999Z</time></trkpt><trkpt lat="44.55037981026186" lon="9.98013830983384"><ele>809.9999999999999</ele><time>2026-04-19T09:09:30.999Z</time></trkpt><trkpt lat="44.550431801254504" lon="9.980046401576239"><ele>811.0</ele><time>2026-04-19T09:09:31.999Z</time></trkpt><trkpt lat="44.550512147015255" lon="9.979969045351055"><ele>808.9999999999999</ele><time>2026-04-19T09:09:32.999Z</time></trkpt><trkpt lat="44.55056862778388" lon="9.979870730748502"><ele>807.0</ele><time>2026-04-19T09:09:33.999Z</time></trkpt><trkpt lat="44.55061006365062" lon="9.979760809140888"><ele>805.0</ele><time>2026-04-19T09:09:34.999Z</time></trkpt><trkpt lat="44.550653424961126" lon="9.979632287832073"><ele>803.0</ele><time>2026-04-19T09:09:35.999Z</time></trkpt><trkpt lat="44.550707863993566" lon="9.979545519746438"><ele>800.9999999999999</ele><time>2026-04-19T09:09:36.999Z</time></trkpt><trkpt lat="44.550746825906145" lon="9.979464676774688"><ele>799.0</ele><time>2026-04-19T09:09:37.999Z</time></trkpt><trkpt lat="44.55078868977131" lon="9.979384762239128"><ele>798.9999999999999</ele><time>2026-04-19T09:09:38.999Z</time></trkpt><trkpt lat="44.550858929310785" lon="9.979355874967649"><ele>799.0</ele><time>2026-04-19T09:09:39.999Z</time></trkpt><trkpt lat="44.550932087802494" lon="9.979318169726099"><ele>799.0</ele><time>2026-04-19T09:09:41.999Z</time></trkpt><trkpt lat="44.550987614825495" lon="9.979237149903167"><ele>799.0</ele><time>2026-04-19T09:09:52.999Z</time></trkpt><trkpt lat="44.55106376594957" lon="9.979104646007409"><ele>798.9999999999999</ele><time>2026-04-19T09:09:54.999Z</time></trkpt><trkpt lat="44.55110499136607" lon="9.979016893139793"><ele>799.0</ele><time>2026-04-19T09:09:55.999Z</time></trkpt><trkpt lat="44.55114220860121" lon="9.9789288979273"><ele>797.9999999999999</ele><time>2026-04-19T09:09:56.999Z</time></trkpt><trkpt lat="44.551196607780255" lon="9.978851245320548"><ele>797.0</ele><time>2026-04-19T09:09:57.999Z</time></trkpt><trkpt lat="44.55127585706364" lon="9.978714671696984"><ele>796.0</ele><time>2026-04-19T09:09:59.999Z</time></trkpt><trkpt lat="44.55131945145895" lon="9.978647896868434"><ele>795.0</ele><time>2026-04-19T09:10:00.999Z</time></trkpt><trkpt lat="44.55137981594046" lon="9.978566139990006"><ele>793.9999999999999</ele><time>2026-04-19T09:10:01.999Z</time></trkpt><trkpt lat="44.55143574110099" lon="9.978468886557236"><ele>793.0</ele><time>2026-04-19T09:10:02.999Z</time></trkpt><trkpt lat="44.55148386245008" lon="9.978409379920905"><ele>795.4</ele><time>2026-04-19T09:10:03.999Z</time></trkpt><trkpt lat="44.55156754798396" lon="9.97831439839984"><ele>797.8</ele><time>2026-04-19T09:10:05.999Z</time></trkpt><trkpt lat="44.551639521040876" lon="9.978178502316727"><ele>800.2</ele><time>2026-04-19T09:10:07.999Z</time></trkpt><trkpt lat="44.55167864321229" lon="9.978070005569858"><ele>802.6</ele><time>2026-04-19T09:10:09.999Z</time></trkpt><trkpt lat="44.55170987389149" lon="9.977986238134575"><ele>805.0</ele><time>2026-04-19T09:10:10.999Z</time></trkpt><trkpt lat="44.55174865664713" lon="9.977908590361544"><ele>804.9999999999999</ele><time>2026-04-19T09:10:11.999Z</time></trkpt><trkpt lat="44.55179866210753" lon="9.977840322518457"><ele>805.0</ele><time>2026-04-19T09:10:12.999Z</time></trkpt><trkpt lat="44.55185594723847" lon="9.977785826188555"><ele>805.0</ele><time>2026-04-19T09:10:13.999Z</time></trkpt><trkpt lat="44.5519154789657" lon="9.977724886747867"><ele>805.0</ele><time>2026-04-19T09:10:14.999Z</time></trkpt><trkpt lat="44.55196405511634" lon="9.977646720821136"><ele>804.9999999999999</ele><time>2026-04-19T09:10:15.999Z</time></trkpt><trkpt lat="44.55202198742097" lon="9.97758126022886"><ele>805.0</ele><time>2026-04-19T09:10:16.999Z</time></trkpt><trkpt lat="44.55209800893363" lon="9.977512748160137"><ele>803.4999999999999</ele><time>2026-04-19T09:10:17.999Z</time></trkpt><trkpt lat="44.55216681749462" lon="9.977441286522314"><ele>802.0</ele><time>2026-04-19T09:10:18.999Z</time></trkpt><trkpt lat="44.55224349038538" lon="9.97738445604272"><ele>800.5</ele><time>2026-04-19T09:10:19.999Z</time></trkpt><trkpt lat="44.55230854679559" lon="9.977333792025922"><ele>799.0</ele><time>2026-04-19T09:10:21Z</time></trkpt><trkpt lat="44.55238348198005" lon="9.977276072177645"><ele>797.4999999999999</ele><time>2026-04-19T09:10:22Z</time></trkpt><trkpt lat="44.552463612374154" lon="9.977243395717537"><ele>796.0</ele><time>2026-04-19T09:10:23Z</time></trkpt><trkpt lat="44.552530231959935" lon="9.977198851628113"><ele>796.0</ele><time>2026-04-19T09:10:24Z</time></trkpt><trkpt lat="44.55260123605104" lon="9.977153840798598"><ele>796.0</ele><time>2026-04-19T09:10:25Z</time></trkpt><trkpt lat="44.55266387126896" lon="9.977126973298997"><ele>796.0</ele><time>2026-04-19T09:10:26Z</time></trkpt><trkpt lat="44.55274147438377" lon="9.97708575545354"><ele>796.0</ele><time>2026-04-19T09:10:27Z</time></trkpt><trkpt lat="44.55283745384984" lon="9.976994285498876"><ele>796.0</ele><time>2026-04-19T09:10:29Z</time></trkpt><trkpt lat="44.55293159550916" lon="9.976845535177533"><ele>793.6666666666666</ele><time>2026-04-19T09:10:31Z</time></trkpt><trkpt lat="44.552958604142866" lon="9.976714631538265"><ele>791.3333333333333</ele><time>2026-04-19T09:10:32Z</time></trkpt><trkpt lat="44.55296796385581" lon="9.976591625281907"><ele>789.0</ele><time>2026-04-19T09:10:33Z</time></trkpt><trkpt lat="44.55296866636621" lon="9.9764852103729"><ele>786.6666666666667</ele><time>2026-04-19T09:10:34Z</time></trkpt><trkpt lat="44.55296790423608" lon="9.976366225795806"><ele>784.3333333333334</ele><time>2026-04-19T09:10:35Z</time></trkpt><trkpt lat="44.55298204613871" lon="9.976256984089682"><ele>782.0</ele><time>2026-04-19T09:10:36Z</time></trkpt><trkpt lat="44.55296762997221" lon="9.976131082223972"><ele>782.0000000000001</ele><time>2026-04-19T09:10:37Z</time></trkpt><trkpt lat="44.55298605110324" lon="9.976027510529951"><ele>782.0</ele><time>2026-04-19T09:10:38Z</time></trkpt><trkpt lat="44.553003044090225" lon="9.97591626540994"><ele>782.0</ele><time>2026-04-19T09:10:39Z</time></trkpt><trkpt lat="44.552999343647244" lon="9.975800153557104"><ele>782.0</ele><time>2026-04-19T09:10:40Z</time></trkpt><trkpt lat="44.55300678233198" lon="9.975675973781959"><ele>782.0000000000001</ele><time>2026-04-19T09:10:41Z</time></trkpt><trkpt lat="44.55299529908491" lon="9.975550318374161"><ele>782.0</ele><time>2026-04-19T09:10:42Z</time></trkpt><trkpt lat="44.552996623201345" lon="9.97543890219231"><ele>782.6666666666667</ele><time>2026-04-19T09:10:43Z</time></trkpt><trkpt lat="44.55295926853503" lon="9.975330413142789"><ele>783.3333333333334</ele><time>2026-04-19T09:10:44Z</time></trkpt><trkpt lat="44.5529378275849" lon="9.975235124014649"><ele>784.0</ele><time>2026-04-19T09:10:45Z</time></trkpt><trkpt lat="44.552928358468414" lon="9.975127679697705"><ele>784.6666666666667</ele><time>2026-04-19T09:10:46Z</time></trkpt><trkpt lat="44.552909388895664" lon="9.975018532732044"><ele>785.3333333333334</ele><time>2026-04-19T09:10:47Z</time></trkpt><trkpt lat="44.55290858506179" lon="9.974925089341426"><ele>786.0</ele><time>2026-04-19T09:10:48Z</time></trkpt><trkpt lat="44.55296216034802" lon="9.974790872137346"><ele>787.4</ele><time>2026-04-19T09:10:50Z</time></trkpt><trkpt lat="44.55302130793833" lon="9.974712371297413"><ele>788.8</ele><time>2026-04-19T09:10:51Z</time></trkpt><trkpt lat="44.553067183433186" lon="9.974638781710913"><ele>790.1999999999999</ele><time>2026-04-19T09:10:52Z</time></trkpt><trkpt lat="44.55307496549183" lon="9.974516127268632"><ele>791.5999999999999</ele><time>2026-04-19T09:15:49.999Z</time></trkpt><trkpt lat="44.553099716999554" lon="9.974390649350715"><ele>793.0</ele><time>2026-04-19T09:15:51.999Z</time></trkpt><trkpt lat="44.553126578603525" lon="9.974213720153463"><ele>793.3333333333333</ele><time>2026-04-19T09:15:53.999Z</time></trkpt><trkpt lat="44.55315056825571" lon="9.974131609313027"><ele>793.6666666666666</ele><time>2026-04-19T09:15:54.999Z</time></trkpt><trkpt lat="44.553205708699956" lon="9.974060739144857"><ele>794.0</ele><time>2026-04-19T09:15:55.999Z</time></trkpt><trkpt lat="44.55327295070864" lon="9.973919363691408"><ele>794.3333333333333</ele><time>2026-04-19T09:15:57.999Z</time></trkpt><trkpt lat="44.55334067088729" lon="9.9738143184598"><ele>794.6666666666666</ele><time>2026-04-19T09:15:59.999Z</time></trkpt><trkpt lat="44.553385322847184" lon="9.973733866650246"><ele>795.0</ele><time>2026-04-19T09:16:01.999Z</time></trkpt><trkpt lat="44.55342029940836" lon="9.973634081078208"><ele>795.0</ele><time>2026-04-19T09:16:03.999Z</time></trkpt><trkpt lat="44.553441294632016" lon="9.973496929660566"><ele>795.0</ele><time>2026-04-19T09:16:05.999Z</time></trkpt><trkpt lat="44.553449835697315" lon="9.973406527615603"><ele>795.0</ele><time>2026-04-19T09:16:09.999Z</time></trkpt><trkpt lat="44.55354943191366" lon="9.973472775360365"><ele>795.0</ele><time>2026-04-19T09:16:11.999Z</time></trkpt><trkpt lat="44.55366633595011" lon="9.973482358663613"><ele>795.0</ele><time>2026-04-19T09:16:13.999Z</time></trkpt><trkpt lat="44.55373231745259" lon="9.973447257383064"><ele>791.1666666666666</ele><time>2026-04-19T09:16:14.999Z</time></trkpt><trkpt lat="44.55377444733648" lon="9.973354538059029"><ele>787.3333333333333</ele><time>2026-04-19T09:16:15.999Z</time></trkpt><trkpt lat="44.55381823145628" lon="9.973245830594342"><ele>783.5</ele><time>2026-04-19T09:16:16.999Z</time></trkpt><trkpt lat="44.55384570483713" lon="9.97315242130692"><ele>779.6666666666666</ele><time>2026-04-19T09:16:17.999Z</time></trkpt><trkpt lat="44.553876725220675" lon="9.973058847993839"><ele>775.8333333333333</ele><time>2026-04-19T09:16:18.999Z</time></trkpt><trkpt lat="44.553907784317204" lon="9.972965909760044"><ele>772.0</ele><time>2026-04-19T09:16:19.999Z</time></trkpt><trkpt lat="44.55394442800845" lon="9.97287330226893"><ele>771.9999999999999</ele><time>2026-04-19T09:16:20.999Z</time></trkpt><trkpt lat="44.55399737161507" lon="9.972760949888501"><ele>772.0</ele><time>2026-04-19T09:16:21.999Z</time></trkpt><trkpt lat="44.55404217890707" lon="9.972645317101001"><ele>772.0</ele><time>2026-04-19T09:16:22.999Z</time></trkpt><trkpt lat="44.55408910544806" lon="9.972579086729752"><ele>772.0</ele><time>2026-04-19T09:16:23.999Z</time></trkpt><trkpt lat="44.55414424066778" lon="9.972531132656554"><ele>771.9999999999999</ele><time>2026-04-19T09:16:24.999Z</time></trkpt><trkpt lat="44.55421539178511" lon="9.972527914932172"><ele>772.0</ele><time>2026-04-19T09:16:25.999Z</time></trkpt><trkpt lat="44.55428424933519" lon="9.972548812525812"><ele>771.9999999999999</ele><time>2026-04-19T09:16:26.999Z</time></trkpt><trkpt lat="44.5543516207252" lon="9.972592767836405"><ele>772.0</ele><time>2026-04-19T09:16:27.999Z</time></trkpt><trkpt lat="44.554419746493956" lon="9.972630839997564"><ele>772.0</ele><time>2026-04-19T09:16:28.999Z</time></trkpt><trkpt lat="44.55448428337575" lon="9.97262743596669"><ele>772.0</ele><time>2026-04-19T09:16:29.999Z</time></trkpt><trkpt lat="44.55453948861211" lon="9.972564439988293"><ele>771.9999999999999</ele><time>2026-04-19T09:16:30.999Z</time></trkpt><trkpt lat="44.554591817775005" lon="9.972481608508959"><ele>772.0</ele><time>2026-04-19T09:16:31.999Z</time></trkpt><trkpt lat="44.55459491047862" lon="9.97234108100029"><ele>771.8</ele><time>2026-04-19T09:16:32.999Z</time></trkpt><trkpt lat="44.55453926994556" lon="9.972210228335717"><ele>771.6</ele><time>2026-04-19T09:16:33.999Z</time></trkpt><trkpt lat="44.55448801951933" lon="9.972086780910768"><ele>771.4</ele><time>2026-04-19T09:16:34.999Z</time></trkpt><trkpt lat="44.55444549822995" lon="9.971968596833387"><ele>771.1999999999999</ele><time>2026-04-19T09:16:35.999Z</time></trkpt><trkpt lat="44.55441444498142" lon="9.971858709596328"><ele>771.0</ele><time>2026-04-19T09:16:36.999Z</time></trkpt><trkpt lat="44.55439353184333" lon="9.971748294176708"><ele>769.8333333333334</ele><time>2026-04-19T09:16:37.999Z</time></trkpt><trkpt lat="44.554397071133856" lon="9.971652053521328"><ele>768.6666666666666</ele><time>2026-04-19T09:16:39Z</time></trkpt><trkpt lat="44.55443713122054" lon="9.971558143872267"><ele>767.5</ele><time>2026-04-19T09:16:40Z</time></trkpt><trkpt lat="44.55444806142611" lon="9.971450884508114"><ele>766.3333333333333</ele><time>2026-04-19T09:16:41Z</time></trkpt><trkpt lat="44.55448056493975" lon="9.971368174284793"><ele>765.1666666666666</ele><time>2026-04-19T09:16:42Z</time></trkpt><trkpt lat="44.554461462870414" lon="9.971257497673458"><ele>764.0</ele><time>2026-04-19T09:16:43Z</time></trkpt><trkpt lat="44.5543838153452" lon="9.971171628649518"><ele>764.0</ele><time>2026-04-19T09:16:44Z</time></trkpt><trkpt lat="44.554266757441845" lon="9.971164326629568"><ele>764.0</ele><time>2026-04-19T09:16:45Z</time></trkpt><trkpt lat="44.55417464460165" lon="9.971169098571343"><ele>764.0</ele><time>2026-04-19T09:16:46Z</time></trkpt><trkpt lat="44.55409306299522" lon="9.971147044505235"><ele>764.0</ele><time>2026-04-19T09:16:47Z</time></trkpt><trkpt lat="44.554012004779295" lon="9.97114099622022"><ele>764.0</ele><time>2026-04-19T09:16:48Z</time></trkpt><trkpt lat="44.55393487787306" lon="9.97113347608282"><ele>764.0</ele><time>2026-04-19T09:16:49Z</time></trkpt><trkpt lat="44.5538633087047" lon="9.971117864862078"><ele>764.0</ele><time>2026-04-19T09:16:50Z</time></trkpt><trkpt lat="44.55379122888279" lon="9.97109051504547"><ele>764.0</ele><time>2026-04-19T09:16:51Z</time></trkpt><trkpt lat="44.553726679938265" lon="9.971046350133731"><ele>764.0</ele><time>2026-04-19T09:16:52Z</time></trkpt><trkpt lat="44.55367256047534" lon="9.9709687442661"><ele>764.0</ele><time>2026-04-19T09:16:53Z</time></trkpt><trkpt lat="44.5536269814567" lon="9.970883403700645"><ele>764.0</ele><time>2026-04-19T09:16:54Z</time></trkpt><trkpt lat="44.553582189604235" lon="9.97079568343621"><ele>764.0</ele><time>2026-04-19T09:16:55Z</time></trkpt><trkpt lat="44.55352982411611" lon="9.970703987660917"><ele>763.1666666666666</ele><time>2026-04-19T09:16:56Z</time></trkpt><trkpt lat="44.553507912324285" lon="9.970600174031492"><ele>762.3333333333333</ele><time>2026-04-19T09:16:57Z</time></trkpt><trkpt lat="44.553486083914834" lon="9.970502267978302"><ele>761.5</ele><time>2026-04-19T09:16:58Z</time></trkpt><trkpt lat="44.55348237896085" lon="9.970401436455733"><ele>760.6666666666666</ele><time>2026-04-19T09:16:59Z</time></trkpt><trkpt lat="44.5535183157116" lon="9.970320053649397"><ele>759.8333333333334</ele><time>2026-04-19T09:17:00Z</time></trkpt><trkpt lat="44.55358475619605" lon="9.970255168003526"><ele>759.0</ele><time>2026-04-19T09:17:01Z</time></trkpt><trkpt lat="44.55366859714274" lon="9.97024092895465"><ele>757.6666666666666</ele><time>2026-04-19T09:17:02Z</time></trkpt><trkpt lat="44.553737461407714" lon="9.970185683479126"><ele>756.3333333333334</ele><time>2026-04-19T09:17:03Z</time></trkpt><trkpt lat="44.55380235162128" lon="9.970129379574441"><ele>755.0</ele><time>2026-04-19T09:17:04Z</time></trkpt><trkpt lat="44.55386262796785" lon="9.970064110893126"><ele>753.6666666666667</ele><time>2026-04-19T09:17:05Z</time></trkpt><trkpt lat="44.55393204037419" lon="9.970016772704296"><ele>752.3333333333334</ele><time>2026-04-19T09:17:06Z</time></trkpt><trkpt lat="44.55398874339854" lon="9.969955498373237"><ele>751.0</ele><time>2026-04-19T09:17:07Z</time></trkpt><trkpt lat="44.55404726556601" lon="9.969896891639374"><ele>751.0</ele><time>2026-04-19T09:17:08Z</time></trkpt><trkpt lat="44.55415771956417" lon="9.969793980766235"><ele>751.0</ele><time>2026-04-19T09:17:10Z</time></trkpt><trkpt lat="44.55422691278622" lon="9.969825383565526"><ele>751.0</ele><time>2026-04-19T09:17:11Z</time></trkpt><trkpt lat="44.554283879381565" lon="9.969919092864052"><ele>751.0</ele><time>2026-04-19T09:17:12Z</time></trkpt><trkpt lat="44.554327920380125" lon="9.970024042593158"><ele>751.0</ele><time>2026-04-19T09:17:13Z</time></trkpt><trkpt lat="44.554372515763795" lon="9.970125309931515"><ele>751.0</ele><time>2026-04-19T09:17:14Z</time></trkpt><trkpt lat="44.5544176117691" lon="9.970210265308767"><ele>751.0</ele><time>2026-04-19T09:17:15Z</time></trkpt><trkpt lat="44.55448251447979" lon="9.970281299789471"><ele>751.0</ele><time>2026-04-19T09:17:16Z</time></trkpt><trkpt lat="44.55455238704345" lon="9.970331474264192"><ele>751.0</ele><time>2026-04-19T09:17:17Z</time></trkpt><trkpt lat="44.55463387650534" lon="9.970385071259646"><ele>751.0</ele><time>2026-04-19T09:17:18Z</time></trkpt><trkpt lat="44.5547313606596" lon="9.970406126874382"><ele>751.0</ele><time>2026-04-19T09:17:19Z</time></trkpt><trkpt lat="44.55482070516203" lon="9.970387928398171"><ele>749.1666666666667</ele><time>2026-04-19T09:17:20Z</time></trkpt><trkpt lat="44.55490307237059" lon="9.970395646187324"><ele>747.3333333333334</ele><time>2026-04-19T09:17:21Z</time></trkpt><trkpt lat="44.554980004533306" lon="9.970413629353384"><ele>745.5</ele><time>2026-04-19T09:17:22Z</time></trkpt><trkpt lat="44.555061657272695" lon="9.970422984248763"><ele>743.6666666666666</ele><time>2026-04-19T09:17:23Z</time></trkpt><trkpt lat="44.555140930629626" lon="9.97043542802855"><ele>741.8333333333333</ele><time>2026-04-19T09:17:24Z</time></trkpt><trkpt lat="44.55522663141518" lon="9.970439298567753"><ele>740.0</ele><time>2026-04-19T09:17:25Z</time></trkpt><trkpt lat="44.55530727983415" lon="9.970473457316729"><ele>737.8333333333333</ele><time>2026-04-19T09:17:26Z</time></trkpt><trkpt lat="44.55539469114386" lon="9.97049721095382"><ele>735.6666666666666</ele><time>2026-04-19T09:17:27Z</time></trkpt><trkpt lat="44.5554811606774" lon="9.970497502055768"><ele>733.5</ele><time>2026-04-19T09:17:28Z</time></trkpt><trkpt lat="44.55556030888227" lon="9.97047707767617"><ele>731.3333333333334</ele><time>2026-04-19T09:17:29Z</time></trkpt><trkpt lat="44.55564515945148" lon="9.97049879955636"><ele>729.1666666666667</ele><time>2026-04-19T09:17:30Z</time></trkpt><trkpt lat="44.555728390429" lon="9.970516729782718"><ele>727.0</ele><time>2026-04-19T09:17:31Z</time></trkpt><trkpt lat="44.555802272292944" lon="9.970547656376588"><ele>727.0</ele><time>2026-04-19T09:17:32Z</time></trkpt><trkpt lat="44.55586966618522" lon="9.97061960987711"><ele>727.0</ele><time>2026-04-19T09:17:33Z</time></trkpt><trkpt lat="44.55591433545676" lon="9.970735783991518"><ele>727.0</ele><time>2026-04-19T09:17:34Z</time></trkpt><trkpt lat="44.55594916630467" lon="9.970850065492549"><ele>727.0</ele><time>2026-04-19T09:17:35Z</time></trkpt><trkpt lat="44.55599668346895" lon="9.970959176595555"><ele>727.0</ele><time>2026-04-19T09:17:36Z</time></trkpt><trkpt lat="44.5560522475183" lon="9.971071093203454"><ele>728.6</ele><time>2026-04-19T09:17:37Z</time></trkpt><trkpt lat="44.55612750525505" lon="9.971165042357159"><ele>730.2</ele><time>2026-04-19T09:17:38Z</time></trkpt><trkpt lat="44.55619643043481" lon="9.971264716664612"><ele>731.8</ele><time>2026-04-19T09:17:39Z</time></trkpt><trkpt lat="44.55626917615913" lon="9.971357168783502"><ele>733.4</ele><time>2026-04-19T09:17:40Z</time></trkpt><trkpt lat="44.55638075372766" lon="9.971408152227871"><ele>735.0</ele><time>2026-04-19T09:17:41Z</time></trkpt><trkpt lat="44.55647153983298" lon="9.971475027222779"><ele>732.6</ele><time>2026-04-19T09:17:42Z</time></trkpt><trkpt lat="44.55657942447011" lon="9.971545244754937"><ele>730.2</ele><time>2026-04-19T09:17:43Z</time></trkpt><trkpt lat="44.5566901208685" lon="9.971591252963245"><ele>727.8</ele><time>2026-04-19T09:17:44Z</time></trkpt><trkpt lat="44.55679450593634" lon="9.971652520699228"><ele>725.4</ele><time>2026-04-19T09:17:45Z</time></trkpt><trkpt lat="44.55689391024827" lon="9.971683176628652"><ele>723.0</ele><time>2026-04-19T09:17:46Z</time></trkpt><trkpt lat="44.55698761820644" lon="9.971723633241004"><ele>720.8333333333334</ele><time>2026-04-19T09:17:47Z</time></trkpt><trkpt lat="44.557076671603554" lon="9.971765611040631"><ele>718.6666666666666</ele><time>2026-04-19T09:17:48Z</time></trkpt><trkpt lat="44.55713981661415" lon="9.971788126103338"><ele>716.5</ele><time>2026-04-19T09:17:48.999Z</time></trkpt><trkpt lat="44.55721676474821" lon="9.971797261694624"><ele>714.3333333333333</ele><time>2026-04-19T09:17:51.999Z</time></trkpt><trkpt lat="44.55728602909998" lon="9.97180062779986"><ele>712.1666666666666</ele><time>2026-04-19T09:18:00.999Z</time></trkpt><trkpt lat="44.55738813521878" lon="9.971807804763188"><ele>710.0</ele><time>2026-04-19T09:18:01.999Z</time></trkpt><trkpt lat="44.557482408058924" lon="9.971829558204012"><ele>710.0</ele><time>2026-04-19T09:18:02.999Z</time></trkpt><trkpt lat="44.557590317588144" lon="9.971886906497547"><ele>710.0</ele><time>2026-04-19T09:18:03.999Z</time></trkpt><trkpt lat="44.557707124832866" lon="9.972010445522482"><ele>710.0</ele><time>2026-04-19T09:18:04.999Z</time></trkpt><trkpt lat="44.55783807548468" lon="9.972141300819937"><ele>710.0</ele><time>2026-04-19T09:18:05.999Z</time></trkpt><trkpt lat="44.55795936498577" lon="9.9722546228087"><ele>706.75</ele><time>2026-04-19T09:18:06.999Z</time></trkpt><trkpt lat="44.55808663753221" lon="9.972352955467596"><ele>703.5</ele><time>2026-04-19T09:18:07.999Z</time></trkpt><trkpt lat="44.55819779460614" lon="9.972490056126192"><ele>700.25</ele><time>2026-04-19T09:18:09.999Z</time></trkpt><trkpt lat="44.55830740453723" lon="9.972604036638238"><ele>697.0</ele><time>2026-04-19T09:18:10.999Z</time></trkpt><trkpt lat="44.55840982204273" lon="9.972720266951601"><ele>697.0</ele><time>2026-04-19T09:18:11.999Z</time></trkpt><trkpt lat="44.558504876928765" lon="9.97282699103021"><ele>697.0</ele><time>2026-04-19T09:18:12.999Z</time></trkpt><trkpt lat="44.558600576933934" lon="9.972930378146414"><ele>697.0</ele><time>2026-04-19T09:18:13.999Z</time></trkpt><trkpt lat="44.558696628821615" lon="9.973025559753186"><ele>697.0</ele><time>2026-04-19T09:18:14.999Z</time></trkpt><trkpt lat="44.55879975529186" lon="9.973123625320905"><ele>695.2</ele><time>2026-04-19T09:18:15.999Z</time></trkpt><trkpt lat="44.558905870428944" lon="9.97321990751096"><ele>693.4000000000001</ele><time>2026-04-19T09:18:16.999Z</time></trkpt><trkpt lat="44.55900853249429" lon="9.973305820745171"><ele>691.5999999999999</ele><time>2026-04-19T09:18:17.999Z</time></trkpt><trkpt lat="44.55908664261453" lon="9.973367763022976"><ele>689.8</ele><time>2026-04-19T09:18:18.999Z</time></trkpt><trkpt lat="44.559145076721734" lon="9.973412051734726"><ele>688.0</ele><time>2026-04-19T09:18:19.999Z</time></trkpt><trkpt lat="44.559217476630344" lon="9.973457695569032"><ele>687.2</ele><time>2026-04-19T09:18:21.999Z</time></trkpt><trkpt lat="44.559307493785724" lon="9.973482867725373"><ele>686.4</ele><time>2026-04-19T09:18:24.999Z</time></trkpt><trkpt lat="44.559377582798824" lon="9.973515269595618"><ele>685.6</ele><time>2026-04-19T09:18:25.999Z</time></trkpt><trkpt lat="44.55945763046114" lon="9.97358317222909"><ele>684.8000000000001</ele><time>2026-04-19T09:18:26.999Z</time></trkpt><trkpt lat="44.55954865900061" lon="9.973650647272844"><ele>684.0</ele><time>2026-04-19T09:18:27.999Z</time></trkpt><trkpt lat="44.559636496693294" lon="9.973698616365965"><ele>684.0</ele><time>2026-04-19T09:18:28.999Z</time></trkpt><trkpt lat="44.55971730173619" lon="9.973728994981654"><ele>684.0</ele><time>2026-04-19T09:18:29.999Z</time></trkpt><trkpt lat="44.55979825522469" lon="9.973767485965213"><ele>684.0</ele><time>2026-04-19T09:18:30.999Z</time></trkpt><trkpt lat="44.559865713248776" lon="9.973795406882536"><ele>684.0</ele><time>2026-04-19T09:18:31.999Z</time></trkpt><trkpt lat="44.55993634842697" lon="9.973819813738869"><ele>684.0</ele><time>2026-04-19T09:18:32.999Z</time></trkpt><trkpt lat="44.56002684929892" lon="9.973843430569792"><ele>684.0</ele><time>2026-04-19T09:18:33.999Z</time></trkpt><trkpt lat="44.560134550676466" lon="9.973862844918184"><ele>684.0</ele><time>2026-04-19T09:18:34.999Z</time></trkpt><trkpt lat="44.56025060916582" lon="9.973892670369708"><ele>684.0</ele><time>2026-04-19T09:18:35.999Z</time></trkpt><trkpt lat="44.560373328667296" lon="9.973941350461848"><ele>684.0</ele><time>2026-04-19T09:18:36.999Z</time></trkpt><trkpt lat="44.56049585617667" lon="9.973993239902088"><ele>684.0</ele><time>2026-04-19T09:18:37.999Z</time></trkpt><trkpt lat="44.560634438976216" lon="9.974053108609153"><ele>683.75</ele><time>2026-04-19T09:18:38.999Z</time></trkpt><trkpt lat="44.56077141621604" lon="9.97411873931566"><ele>683.5</ele><time>2026-04-19T09:18:39.999Z</time></trkpt><trkpt lat="44.56089523650974" lon="9.97417866777676"><ele>683.25</ele><time>2026-04-19T09:18:40.999Z</time></trkpt><trkpt lat="44.56101224409886" lon="9.974244130177796"><ele>683.0</ele><time>2026-04-19T09:18:41.999Z</time></trkpt><trkpt lat="44.56113839590407" lon="9.974324450734137"><ele>682.75</ele><time>2026-04-19T09:18:42.999Z</time></trkpt><trkpt lat="44.56126914630438" lon="9.974411777917016"><ele>682.5</ele><time>2026-04-19T09:18:43.999Z</time></trkpt><trkpt lat="44.56139629214619" lon="9.974486678035175"><ele>682.25</ele><time>2026-04-19T09:18:45Z</time></trkpt><trkpt lat="44.56152362278926" lon="9.974531047967963"><ele>682.0</ele><time>2026-04-19T09:18:46Z</time></trkpt><trkpt lat="44.56166178627732" lon="9.974538055471518"><ele>682.0</ele><time>2026-04-19T09:18:47Z</time></trkpt><trkpt lat="44.56180444690087" lon="9.974513884075686"><ele>682.0</ele><time>2026-04-19T09:18:48Z</time></trkpt><trkpt lat="44.56193956827493" lon="9.974525337796113"><ele>682.0</ele><time>2026-04-19T09:18:49Z</time></trkpt><trkpt lat="44.56207861652901" lon="9.974530728160628"><ele>682.0</ele><time>2026-04-19T09:18:50Z</time></trkpt><trkpt lat="44.56222393696039" lon="9.974538834529051"><ele>682.5</ele><time>2026-04-19T09:18:51Z</time></trkpt><trkpt lat="44.562364691395594" lon="9.974551990577632"><ele>683.0</ele><time>2026-04-19T09:18:52Z</time></trkpt><trkpt lat="44.562509874346404" lon="9.974559848907292"><ele>683.5</ele><time>2026-04-19T09:18:53Z</time></trkpt><trkpt lat="44.562654685296145" lon="9.974605937936312"><ele>684.0</ele><time>2026-04-19T09:18:54Z</time></trkpt><trkpt lat="44.562780298240625" lon="9.97464381236651"><ele>682.6</ele><time>2026-04-19T09:18:55Z</time></trkpt><trkpt lat="44.56289788816209" lon="9.974662194953616"><ele>681.2</ele><time>2026-04-19T09:18:56Z</time></trkpt><trkpt lat="44.563009471367195" lon="9.974650218328769"><ele>679.8000000000001</ele><time>2026-04-19T09:18:57Z</time></trkpt><trkpt lat="44.56309699191706" lon="9.974605471326306"><ele>678.4000000000001</ele><time>2026-04-19T09:18:58Z</time></trkpt><trkpt lat="44.56317092736935" lon="9.974576640523587"><ele>677.0</ele><time>2026-04-19T09:18:59Z</time></trkpt><trkpt lat="44.56325059077749" lon="9.974516511498845"><ele>677.0</ele><time>2026-04-19T09:19:00Z</time></trkpt><trkpt lat="44.563321313396514" lon="9.974423433681176"><ele>677.0</ele><time>2026-04-19T09:19:01Z</time></trkpt><trkpt lat="44.563397451508244" lon="9.974338706645048"><ele>677.0</ele><time>2026-04-19T09:19:02Z</time></trkpt><trkpt lat="44.56347941518375" lon="9.974250434200123"><ele>677.0</ele><time>2026-04-19T09:19:03Z</time></trkpt><trkpt lat="44.563575240638" lon="9.974175991481205"><ele>677.0</ele><time>2026-04-19T09:19:04Z</time></trkpt><trkpt lat="44.563661558943046" lon="9.974086789291352"><ele>679.0</ele><time>2026-04-19T09:19:05Z</time></trkpt><trkpt lat="44.56374878365564" lon="9.97399926035318"><ele>681.0</ele><time>2026-04-19T09:19:06Z</time></trkpt><trkpt lat="44.56383782561631" lon="9.973917009723872"><ele>683.0</ele><time>2026-04-19T09:19:07Z</time></trkpt><trkpt lat="44.563935257527405" lon="9.973839806674205"><ele>685.0</ele><time>2026-04-19T09:19:08Z</time></trkpt><trkpt lat="44.564016189281574" lon="9.973762222983128"><ele>687.0</ele><time>2026-04-19T09:19:09Z</time></trkpt><trkpt lat="44.564100585992115" lon="9.973732497866692"><ele>687.0</ele><time>2026-04-19T09:19:10Z</time></trkpt><trkpt lat="44.56417275502705" lon="9.973687155603947"><ele>687.0</ele><time>2026-04-19T09:19:11Z</time></trkpt><trkpt lat="44.56422982074015" lon="9.973646260690101"><ele>687.0</ele><time>2026-04-19T09:19:12Z</time></trkpt><trkpt lat="44.56427253882681" lon="9.973579098787098"><ele>687.0</ele><time>2026-04-19T09:19:13Z</time></trkpt><trkpt lat="44.564321182316014" lon="9.973505873173298"><ele>687.0</ele><time>2026-04-19T09:19:14Z</time></trkpt><trkpt lat="44.564369351406626" lon="9.973414709310203"><ele>687.0</ele><time>2026-04-19T09:19:15Z</time></trkpt><trkpt lat="44.56443021335611" lon="9.973323550278261"><ele>687.0</ele><time>2026-04-19T09:19:16Z</time></trkpt><trkpt lat="44.564476961899274" lon="9.97322612610618"><ele>686.5</ele><time>2026-04-19T09:19:17Z</time></trkpt><trkpt lat="44.56451467366387" lon="9.973142811395942"><ele>686.0</ele><time>2026-04-19T09:19:18Z</time></trkpt><trkpt lat="44.56455182572385" lon="9.97305366869915"><ele>685.5</ele><time>2026-04-19T09:19:19Z</time></trkpt><trkpt lat="44.56458321708288" lon="9.972957833937073"><ele>685.0</ele><time>2026-04-19T09:19:20Z</time></trkpt><trkpt lat="44.564638793419675" lon="9.97289409980891"><ele>684.5</ele><time>2026-04-19T09:19:21Z</time></trkpt><trkpt lat="44.56469789946219" lon="9.972817158300904"><ele>684.0</ele><time>2026-04-19T09:19:22Z</time></trkpt><trkpt lat="44.564771357406386" lon="9.97277118072638"><ele>684.5</ele><time>2026-04-19T09:19:23Z</time></trkpt><trkpt lat="44.564840399573576" lon="9.972711979006561"><ele>685.0</ele><time>2026-04-19T09:19:24Z</time></trkpt><trkpt lat="44.564913127023836" lon="9.97265261628255"><ele>685.5</ele><time>2026-04-19T09:19:25Z</time></trkpt><trkpt lat="44.564990321013234" lon="9.972599171730538"><ele>686.0</ele><time>2026-04-19T09:19:26Z</time></trkpt><trkpt lat="44.565075981812015" lon="9.972546271493757"><ele>686.5</ele><time>2026-04-19T09:19:27Z</time></trkpt><trkpt lat="44.56516404732683" lon="9.972493310553862"><ele>687.0</ele><time>2026-04-19T09:19:28Z</time></trkpt><trkpt lat="44.5652457602502" lon="9.97243633569025"><ele>687.0</ele><time>2026-04-19T09:19:29Z</time></trkpt><trkpt lat="44.56532239493606" lon="9.972372096644696"><ele>687.0</ele><time>2026-04-19T09:19:30Z</time></trkpt><trkpt lat="44.56539534256328" lon="9.972322067546369"><ele>687.0</ele><time>2026-04-19T09:19:31Z</time></trkpt><trkpt lat="44.5654796279023" lon="9.972275487993667"><ele>687.0</ele><time>2026-04-19T09:19:32Z</time></trkpt><trkpt lat="44.565558167597295" lon="9.972243150328492"><ele>687.0</ele><time>2026-04-19T09:19:33Z</time></trkpt><trkpt lat="44.56564186871771" lon="9.972288030356031"><ele>687.0</ele><time>2026-04-19T09:19:34Z</time></trkpt><trkpt lat="44.565717924627435" lon="9.972372403185267"><ele>687.2</ele><time>2026-04-19T09:19:35Z</time></trkpt><trkpt lat="44.565781079729966" lon="9.972494680696688"><ele>687.4000000000001</ele><time>2026-04-19T09:19:36Z</time></trkpt><trkpt lat="44.56584720715631" lon="9.972618821093189"><ele>687.5999999999999</ele><time>2026-04-19T09:19:37Z</time></trkpt><trkpt lat="44.56591974557325" lon="9.97273903953534"><ele>687.8</ele><time>2026-04-19T09:19:38Z</time></trkpt><trkpt lat="44.56598968905148" lon="9.972855348900644"><ele>688.0</ele><time>2026-04-19T09:19:39Z</time></trkpt><trkpt lat="44.56605481081133" lon="9.972973134677057"><ele>688.4</ele><time>2026-04-19T09:19:40Z</time></trkpt><trkpt lat="44.56612739211445" lon="9.97308223676845"><ele>688.8</ele><time>2026-04-19T09:19:41Z</time></trkpt><trkpt lat="44.56621316363893" lon="9.973175569363294"><ele>689.2</ele><time>2026-04-19T09:19:42Z</time></trkpt><trkpt lat="44.56630252705915" lon="9.97324584773677"><ele>689.6</ele><time>2026-04-19T09:19:43Z</time></trkpt><trkpt lat="44.566379559362815" lon="9.973308473709995"><ele>690.0</ele><time>2026-04-19T09:19:44Z</time></trkpt><trkpt lat="44.566434967478415" lon="9.973356744612618"><ele>690.0</ele><time>2026-04-19T09:19:45Z</time></trkpt><trkpt lat="44.566507632959215" lon="9.973436170687318"><ele>690.0</ele><time>2026-04-19T09:19:47Z</time></trkpt><trkpt lat="44.566584084584775" lon="9.973542930840031"><ele>690.0</ele><time>2026-04-19T09:19:49Z</time></trkpt><trkpt lat="44.566636210740796" lon="9.973625006100727"><ele>690.0</ele><time>2026-04-19T09:19:50Z</time></trkpt><trkpt lat="44.566692876207554" lon="9.973729977750867"><ele>690.0</ele><time>2026-04-19T09:19:51Z</time></trkpt><trkpt lat="44.56674588737877" lon="9.973844982352075"><ele>690.0</ele><time>2026-04-19T09:19:51.999Z</time></trkpt><trkpt lat="44.566783739838954" lon="9.973971495496132"><ele>690.0</ele><time>2026-04-19T09:19:52.999Z</time></trkpt><trkpt lat="44.56681047390724" lon="9.974100624613564"><ele>690.0</ele><time>2026-04-19T09:19:53.999Z</time></trkpt><trkpt lat="44.56682608467838" lon="9.9742541503117"><ele>690.0</ele><time>2026-04-19T09:19:54.999Z</time></trkpt><trkpt lat="44.5668141448845" lon="9.974418300751099"><ele>690.0</ele><time>2026-04-19T09:19:55.999Z</time></trkpt><trkpt lat="44.56678304003125" lon="9.974600968219802"><ele>688.75</ele><time>2026-04-19T09:19:56.999Z</time></trkpt><trkpt lat="44.5667605463998" lon="9.974785790216906"><ele>687.5</ele><time>2026-04-19T09:19:57.999Z</time></trkpt><trkpt lat="44.5667555707006" lon="9.97496099656602"><ele>686.25</ele><time>2026-04-19T09:19:58.999Z</time></trkpt><trkpt lat="44.56675318668139" lon="9.975129020254318"><ele>685.0</ele><time>2026-04-19T09:19:59.999Z</time></trkpt><trkpt lat="44.56675159929474" lon="9.975295809183901"><ele>683.5</ele><time>2026-04-19T09:20:00.999Z</time></trkpt><trkpt lat="44.56677660169458" lon="9.975458902490848"><ele>682.0</ele><time>2026-04-19T09:20:01.999Z</time></trkpt><trkpt lat="44.56683844167412" lon="9.975645747106109"><ele>680.5</ele><time>2026-04-19T09:20:02.999Z</time></trkpt><trkpt lat="44.56692057390511" lon="9.975832487868775"><ele>679.0</ele><time>2026-04-19T09:20:03.999Z</time></trkpt><trkpt lat="44.566992541794804" lon="9.976004673650836"><ele>680.25</ele><time>2026-04-19T09:20:04.999Z</time></trkpt><trkpt lat="44.56705335242636" lon="9.976160794738274"><ele>681.5</ele><time>2026-04-19T09:20:05.999Z</time></trkpt><trkpt lat="44.56710993703294" lon="9.976318325532231"><ele>682.75</ele><time>2026-04-19T09:20:06.999Z</time></trkpt><trkpt lat="44.567171386185464" lon="9.976480583029037"><ele>684.0</ele><time>2026-04-19T09:20:07.999Z</time></trkpt><trkpt lat="44.56722846607179" lon="9.97661478788691"><ele>681.0</ele><time>2026-04-19T09:20:08.999Z</time></trkpt><trkpt lat="44.567296213347475" lon="9.976711280110454"><ele>678.0</ele><time>2026-04-19T09:20:09.999Z</time></trkpt><trkpt lat="44.56737682060976" lon="9.976790598759846"><ele>675.0</ele><time>2026-04-19T09:20:10.999Z</time></trkpt><trkpt lat="44.567460877635675" lon="9.976856122836262"><ele>672.0</ele><time>2026-04-19T09:20:11.999Z</time></trkpt><trkpt lat="44.56755896404274" lon="9.976892684355082"><ele>669.0</ele><time>2026-04-19T09:20:12.999Z</time></trkpt><trkpt lat="44.56766975234842" lon="9.976902949354677"><ele>669.0</ele><time>2026-04-19T09:20:13.999Z</time></trkpt><trkpt lat="44.56778361012377" lon="9.976956102734984"><ele>669.0</ele><time>2026-04-19T09:20:14.999Z</time></trkpt><trkpt lat="44.567880873571134" lon="9.977000174654535"><ele>669.0</ele><time>2026-04-19T09:20:15.999Z</time></trkpt><trkpt lat="44.56796480611089" lon="9.977037155205405"><ele>669.0</ele><time>2026-04-19T09:20:16.999Z</time></trkpt><trkpt lat="44.56802992052639" lon="9.977136218348868"><ele>669.0</ele><time>2026-04-19T09:20:17.999Z</time></trkpt><trkpt lat="44.56809427824379" lon="9.977277238180966"><ele>667.75</ele><time>2026-04-19T09:20:18.999Z</time></trkpt><trkpt lat="44.568150230605575" lon="9.97742008647622"><ele>666.5</ele><time>2026-04-19T09:20:19.999Z</time></trkpt><trkpt lat="44.568220219559386" lon="9.977532424070262"><ele>665.25</ele><time>2026-04-19T09:20:20.999Z</time></trkpt><trkpt lat="44.568311724622916" lon="9.977645135124014"><ele>664.0</ele><time>2026-04-19T09:20:21.999Z</time></trkpt><trkpt lat="44.568415378611235" lon="9.977780660437915"><ele>664.0</ele><time>2026-04-19T09:20:22.999Z</time></trkpt><trkpt lat="44.56852963235554" lon="9.977902218517132"><ele>664.0</ele><time>2026-04-19T09:20:23.999Z</time></trkpt><trkpt lat="44.56863504042171" lon="9.97802169895908"><ele>664.0</ele><time>2026-04-19T09:20:24.999Z</time></trkpt><trkpt lat="44.5687301538589" lon="9.978133270902955"><ele>664.0</ele><time>2026-04-19T09:20:25.999Z</time></trkpt><trkpt lat="44.56883756822699" lon="9.97823324552397"><ele>663.0</ele><time>2026-04-19T09:20:26.999Z</time></trkpt><trkpt lat="44.568964391137705" lon="9.978305164481336"><ele>662.0</ele><time>2026-04-19T09:20:27.999Z</time></trkpt><trkpt lat="44.56910725048237" lon="9.97834354591414"><ele>661.0</ele><time>2026-04-19T09:20:28.999Z</time></trkpt><trkpt lat="44.56925935020054" lon="9.978375052295966"><ele>660.0</ele><time>2026-04-19T09:20:29.999Z</time></trkpt><trkpt lat="44.56940415359527" lon="9.978420863667775"><ele>657.5</ele><time>2026-04-19T09:20:30.999Z</time></trkpt><trkpt lat="44.56953610834357" lon="9.978460430012664"><ele>655.0</ele><time>2026-04-19T09:20:31.999Z</time></trkpt><trkpt lat="44.569664356110465" lon="9.978476139295418"><ele>652.5</ele><time>2026-04-19T09:20:32.999Z</time></trkpt><trkpt lat="44.56980213481008" lon="9.978451592340493"><ele>650.0</ele><time>2026-04-19T09:20:33.999Z</time></trkpt><trkpt lat="44.56994332725127" lon="9.97838401748541"><ele>651.25</ele><time>2026-04-19T09:20:34.999Z</time></trkpt><trkpt lat="44.57008984246415" lon="9.978320977206527"><ele>652.5</ele><time>2026-04-19T09:20:35.999Z</time></trkpt><trkpt lat="44.57022402977756" lon="9.978271777147107"><ele>653.75</ele><time>2026-04-19T09:20:36.999Z</time></trkpt><trkpt lat="44.57035817718065" lon="9.978241891369013"><ele>655.0</ele><time>2026-04-19T09:20:37.999Z</time></trkpt><trkpt lat="44.57049869094993" lon="9.978186766011317"><ele>655.0</ele><time>2026-04-19T09:20:38.999Z</time></trkpt><trkpt lat="44.57065059293315" lon="9.978155257148245"><ele>655.0</ele><time>2026-04-19T09:20:39.999Z</time></trkpt><trkpt lat="44.570798715183074" lon="9.978118325171994"><ele>655.0</ele><time>2026-04-19T09:20:40.999Z</time></trkpt><trkpt lat="44.57095500035637" lon="9.978116706207386"><ele>655.0</ele><time>2026-04-19T09:20:41.999Z</time></trkpt><trkpt lat="44.571119289725175" lon="9.978103083760649"><ele>655.0</ele><time>2026-04-19T09:20:42.999Z</time></trkpt><trkpt lat="44.57127057610515" lon="9.978105780833824"><ele>655.0</ele><time>2026-04-19T09:20:43.999Z</time></trkpt><trkpt lat="44.571403896255376" lon="9.978116079824492"><ele>655.0</ele><time>2026-04-19T09:20:44.999Z</time></trkpt><trkpt lat="44.571518550568946" lon="9.978136627179405"><ele>655.75</ele><time>2026-04-19T09:20:45.999Z</time></trkpt><trkpt lat="44.57160643626117" lon="9.97820895064153"><ele>656.5</ele><time>2026-04-19T09:20:46.999Z</time></trkpt><trkpt lat="44.57167683164428" lon="9.978343243441126"><ele>657.25</ele><time>2026-04-19T09:20:47.999Z</time></trkpt><trkpt lat="44.571770542653354" lon="9.978506023190437"><ele>658.0</ele><time>2026-04-19T09:20:48.999Z</time></trkpt><trkpt lat="44.57185153511303" lon="9.978687550025821"><ele>653.0</ele><time>2026-04-19T09:20:49.999Z</time></trkpt><trkpt lat="44.57193379819818" lon="9.97884702220627"><ele>648.0</ele><time>2026-04-19T09:20:51Z</time></trkpt><trkpt lat="44.5720136593207" lon="9.97898979647034"><ele>643.0</ele><time>2026-04-19T09:20:52Z</time></trkpt><trkpt lat="44.57209733183284" lon="9.979069555265099"><ele>638.0</ele><time>2026-04-19T09:20:53Z</time></trkpt><trkpt lat="44.57219632341234" lon="9.979087958421529"><ele>637.0</ele><time>2026-04-19T09:20:54Z</time></trkpt><trkpt lat="44.57230917280816" lon="9.979051513884155"><ele>636.0</ele><time>2026-04-19T09:20:55Z</time></trkpt><trkpt lat="44.57243540173757" lon="9.978952187609245"><ele>635.0</ele><time>2026-04-19T09:20:56Z</time></trkpt><trkpt lat="44.57257705122382" lon="9.978880759385897"><ele>634.0</ele><time>2026-04-19T09:20:57Z</time></trkpt><trkpt lat="44.57271009704004" lon="9.978795329078183"><ele>634.0</ele><time>2026-04-19T09:20:58Z</time></trkpt><trkpt lat="44.57282186589879" lon="9.97874224428215"><ele>634.0</ele><time>2026-04-19T09:20:59Z</time></trkpt><trkpt lat="44.57291329167474" lon="9.978723885242639"><ele>634.0</ele><time>2026-04-19T09:21:00Z</time></trkpt><trkpt lat="44.57297950448974" lon="9.978736305069342"><ele>634.0</ele><time>2026-04-19T09:21:01Z</time></trkpt><trkpt lat="44.57304720152895" lon="9.978806418007059"><ele>634.0</ele><time>2026-04-19T09:21:02Z</time></trkpt><trkpt lat="44.57309749319201" lon="9.978906307879434"><ele>634.0</ele><time>2026-04-19T09:21:03Z</time></trkpt><trkpt lat="44.573143083852784" lon="9.979014915840501"><ele>633.4</ele><time>2026-04-19T09:21:04Z</time></trkpt><trkpt lat="44.57318375183065" lon="9.979135305131765"><ele>632.8</ele><time>2026-04-19T09:21:05Z</time></trkpt><trkpt lat="44.57322642038698" lon="9.97925658065614"><ele>632.2</ele><time>2026-04-19T09:21:06Z</time></trkpt><trkpt lat="44.5732754393604" lon="9.97937039482512"><ele>631.6</ele><time>2026-04-19T09:21:07Z</time></trkpt><trkpt lat="44.573345572033986" lon="9.979463877574641"><ele>631.0</ele><time>2026-04-19T09:21:08Z</time></trkpt><trkpt lat="44.57344471949465" lon="9.979556622893186"><ele>630.25</ele><time>2026-04-19T09:21:09Z</time></trkpt><trkpt lat="44.57357344360622" lon="9.979643236262715"><ele>629.5</ele><time>2026-04-19T09:21:10Z</time></trkpt><trkpt lat="44.57370055758771" lon="9.979735419975949"><ele>628.75</ele><time>2026-04-19T09:21:11Z</time></trkpt><trkpt lat="44.57382605157428" lon="9.97983073750646"><ele>628.0</ele><time>2026-04-19T09:21:12Z</time></trkpt><trkpt lat="44.57393554704624" lon="9.979935657078567"><ele>627.1999999999999</ele><time>2026-04-19T09:21:13Z</time></trkpt><trkpt lat="44.57400176592516" lon="9.980061666733604"><ele>626.4</ele><time>2026-04-19T09:21:14Z</time></trkpt><trkpt lat="44.57402687293091" lon="9.980197837864935"><ele>625.5999999999999</ele><time>2026-04-19T09:21:15Z</time></trkpt><trkpt lat="44.57401069676305" lon="9.980352185764701"><ele>624.8</ele><time>2026-04-19T09:21:16Z</time></trkpt><trkpt lat="44.57400325270628" lon="9.980516035751156"><ele>624.0</ele><time>2026-04-19T09:21:17Z</time></trkpt><trkpt lat="44.57400714475937" lon="9.980689148689725"><ele>622.75</ele><time>2026-04-19T09:21:18Z</time></trkpt><trkpt lat="44.57401187146837" lon="9.980869119992354"><ele>621.5</ele><time>2026-04-19T09:21:19Z</time></trkpt><trkpt lat="44.57401147065037" lon="9.981050112609612"><ele>620.25</ele><time>2026-04-19T09:21:20Z</time></trkpt><trkpt lat="44.574007114013206" lon="9.9812364296029"><ele>619.0</ele><time>2026-04-19T09:21:21Z</time></trkpt><trkpt lat="44.57400871301329" lon="9.981405982179657"><ele>619.0</ele><time>2026-04-19T09:21:22Z</time></trkpt><trkpt lat="44.574020520432676" lon="9.981571008597133"><ele>619.0</ele><time>2026-04-19T09:21:23Z</time></trkpt><trkpt lat="44.57404680295653" lon="9.981729134098293"><ele>619.0</ele><time>2026-04-19T09:21:24Z</time></trkpt><trkpt lat="44.57409084974602" lon="9.98188017231362"><ele>619.0</ele><time>2026-04-19T09:21:25Z</time></trkpt><trkpt lat="44.57414301637663" lon="9.98201053516429"><ele>617.0</ele><time>2026-04-19T09:21:26Z</time></trkpt><trkpt lat="44.574211420401376" lon="9.982095575078517"><ele>615.0</ele><time>2026-04-19T09:21:27Z</time></trkpt><trkpt lat="44.574296348402456" lon="9.982123573145856"><ele>613.0</ele><time>2026-04-19T09:21:28Z</time></trkpt><trkpt lat="44.57438619106394" lon="9.982091230837593"><ele>611.0</ele><time>2026-04-19T09:21:29Z</time></trkpt><trkpt lat="44.574464702245294" lon="9.982001066129007"><ele>609.0</ele><time>2026-04-19T09:21:30Z</time></trkpt><trkpt lat="44.57455092083424" lon="9.98187899980995"><ele>607.75</ele><time>2026-04-19T09:21:31Z</time></trkpt><trkpt lat="44.57464147433642" lon="9.981730698702584"><ele>606.5</ele><time>2026-04-19T09:21:32Z</time></trkpt><trkpt lat="44.57474171004584" lon="9.981618552540626"><ele>605.25</ele><time>2026-04-19T09:21:33Z</time></trkpt><trkpt lat="44.57486459825555" lon="9.981516752339559"><ele>604.0</ele><time>2026-04-19T09:21:34Z</time></trkpt><trkpt lat="44.574986105397834" lon="9.981421636709825"><ele>603.75</ele><time>2026-04-19T09:21:35Z</time></trkpt><trkpt lat="44.57509829633421" lon="9.981340413521774"><ele>603.5</ele><time>2026-04-19T09:21:36Z</time></trkpt><trkpt lat="44.575214076827805" lon="9.981261266260734"><ele>603.25</ele><time>2026-04-19T09:21:37Z</time></trkpt><trkpt lat="44.575331088596556" lon="9.98118590022302"><ele>603.0</ele><time>2026-04-19T09:21:38Z</time></trkpt><trkpt lat="44.575447238585205" lon="9.981111066039121"><ele>603.0</ele><time>2026-04-19T09:21:39Z</time></trkpt><trkpt lat="44.5755497902516" lon="9.981038823741923"><ele>603.0</ele><time>2026-04-19T09:21:40Z</time></trkpt><trkpt lat="44.57564483298646" lon="9.980934496022027"><ele>603.0</ele><time>2026-04-19T09:21:41Z</time></trkpt><trkpt lat="44.57574451599735" lon="9.980861344252094"><ele>603.0</ele><time>2026-04-19T09:21:42Z</time></trkpt><trkpt lat="44.57583803146173" lon="9.980782764115077"><ele>601.6</ele><time>2026-04-19T09:21:43Z</time></trkpt><trkpt lat="44.5759272115084" lon="9.980714596913801"><ele>600.1999999999999</ele><time>2026-04-19T09:21:44Z</time></trkpt><trkpt lat="44.57602390892913" lon="9.980645746271277"><ele>598.8</ele><time>2026-04-19T09:21:45Z</time></trkpt><trkpt lat="44.57611067036302" lon="9.980554829857336"><ele>597.4</ele><time>2026-04-19T09:21:46Z</time></trkpt><trkpt lat="44.576199019488406" lon="9.980457738088273"><ele>596.0</ele><time>2026-04-19T09:21:47Z</time></trkpt><trkpt lat="44.57626639089442" lon="9.980309383985546"><ele>596.0</ele><time>2026-04-19T09:21:48Z</time></trkpt><trkpt lat="44.5763072843792" lon="9.980152423709415"><ele>596.0</ele><time>2026-04-19T09:21:49Z</time></trkpt><trkpt lat="44.576367145774455" lon="9.980019984904567"><ele>596.0</ele><time>2026-04-19T09:21:50Z</time></trkpt><trkpt lat="44.57641203888096" lon="9.979877607205669"><ele>596.0</ele><time>2026-04-19T09:21:51Z</time></trkpt><trkpt lat="44.576461095169975" lon="9.979743014971058"><ele>596.0</ele><time>2026-04-19T09:21:52Z</time></trkpt><trkpt lat="44.57652088396749" lon="9.979631511695578"><ele>597.5</ele><time>2026-04-19T09:21:53Z</time></trkpt><trkpt lat="44.57660885780974" lon="9.979539698654582"><ele>599.0</ele><time>2026-04-19T09:21:54Z</time></trkpt><trkpt lat="44.57671285328311" lon="9.979450285945884"><ele>600.5</ele><time>2026-04-19T09:21:55Z</time></trkpt><trkpt lat="44.57682183935346" lon="9.97937266572414"><ele>602.0</ele><time>2026-04-19T09:21:56Z</time></trkpt><trkpt lat="44.576938162226035" lon="9.979314945886427"><ele>599.5</ele><time>2026-04-19T09:21:57Z</time></trkpt><trkpt lat="44.57704419813248" lon="9.979253736387372"><ele>597.0</ele><time>2026-04-19T09:21:57.999Z</time></trkpt><trkpt lat="44.577157194696234" lon="9.979192882183035"><ele>594.5</ele><time>2026-04-19T09:21:58.999Z</time></trkpt><trkpt lat="44.57726058490902" lon="9.979122922680876"><ele>592.0</ele><time>2026-04-19T09:21:59.999Z</time></trkpt><trkpt lat="44.577360833314025" lon="9.979048256197665"><ele>592.0</ele><time>2026-04-19T09:22:00.999Z</time></trkpt><trkpt lat="44.57746424381908" lon="9.97900569606638"><ele>592.0</ele><time>2026-04-19T09:22:01.999Z</time></trkpt><trkpt lat="44.57755476331784" lon="9.97891501515708"><ele>592.0</ele><time>2026-04-19T09:22:02.999Z</time></trkpt><trkpt lat="44.577653569259894" lon="9.978839744147164"><ele>592.0</ele><time>2026-04-19T09:22:03.999Z</time></trkpt><trkpt lat="44.57775459113823" lon="9.97875013400936"><ele>592.0</ele><time>2026-04-19T09:22:04.999Z</time></trkpt><trkpt lat="44.57785038176814" lon="9.97864954221907"><ele>592.0</ele><time>2026-04-19T09:22:05.999Z</time></trkpt><trkpt lat="44.57794895030161" lon="9.978554196252858"><ele>592.0</ele><time>2026-04-19T09:22:06.999Z</time></trkpt><trkpt lat="44.578048562281985" lon="9.978456507858068"><ele>592.0</ele><time>2026-04-19T09:22:07.999Z</time></trkpt><trkpt lat="44.578143334128164" lon="9.978358805698036"><ele>589.75</ele><time>2026-04-19T09:22:08.999Z</time></trkpt><trkpt lat="44.578236500399875" lon="9.978266166617534"><ele>587.5</ele><time>2026-04-19T09:22:09.999Z</time></trkpt><trkpt lat="44.57832638293334" lon="9.978172951939921"><ele>585.25</ele><time>2026-04-19T09:22:10.999Z</time></trkpt><trkpt lat="44.57843827861472" lon="9.978086813000058"><ele>583.0</ele><time>2026-04-19T09:22:11.999Z</time></trkpt><trkpt lat="44.57853754335707" lon="9.977990520481"><ele>583.0</ele><time>2026-04-19T09:22:12.999Z</time></trkpt><trkpt lat="44.57863337319227" lon="9.977899384620336"><ele>583.0</ele><time>2026-04-19T09:22:13.999Z</time></trkpt><trkpt lat="44.57872208614625" lon="9.977815052538396"><ele>583.0</ele><time>2026-04-19T09:22:14.999Z</time></trkpt><trkpt lat="44.578809379619855" lon="9.977739307769884"><ele>583.0</ele><time>2026-04-19T09:22:15.999Z</time></trkpt><trkpt lat="44.57889787926748" lon="9.977677202154497"><ele>583.0</ele><time>2026-04-19T09:22:16.999Z</time></trkpt><trkpt lat="44.57899314554702" lon="9.977651905496103"><ele>580.1999999999999</ele><time>2026-04-19T09:22:17.999Z</time></trkpt><trkpt lat="44.57909074891064" lon="9.977651990536218"><ele>577.4</ele><time>2026-04-19T09:22:18.999Z</time></trkpt><trkpt lat="44.57919795904675" lon="9.977654230519718"><ele>574.5999999999999</ele><time>2026-04-19T09:22:19.999Z</time></trkpt><trkpt lat="44.579305317616395" lon="9.977696803211371"><ele>571.8</ele><time>2026-04-19T09:22:20.999Z</time></trkpt><trkpt lat="44.57940391508123" lon="9.977728267936884"><ele>569.0</ele><time>2026-04-19T09:22:21.999Z</time></trkpt><trkpt lat="44.57951190958777" lon="9.977765278692436"><ele>566.25</ele><time>2026-04-19T09:22:22.999Z</time></trkpt><trkpt lat="44.57961908607067" lon="9.977806176974587"><ele>563.5</ele><time>2026-04-19T09:22:23.999Z</time></trkpt><trkpt lat="44.579727072855206" lon="9.977846327513035"><ele>560.75</ele><time>2026-04-19T09:22:24.999Z</time></trkpt><trkpt lat="44.5798385627783" lon="9.97788076329664"><ele>558.0</ele><time>2026-04-19T09:22:25.999Z</time></trkpt><trkpt lat="44.57994987439265" lon="9.977916386852078"><ele>558.0</ele><time>2026-04-19T09:22:26.999Z</time></trkpt><trkpt lat="44.58006347729445" lon="9.977941707096608"><ele>558.0</ele><time>2026-04-19T09:22:27.999Z</time></trkpt><trkpt lat="44.58017791607144" lon="9.97795182509388"><ele>558.0</ele><time>2026-04-19T09:22:28.999Z</time></trkpt><trkpt lat="44.58029394639443" lon="9.977941515132278"><ele>558.0</ele><time>2026-04-19T09:22:29.999Z</time></trkpt><trkpt lat="44.58041421169486" lon="9.977897897050669"><ele>557.5</ele><time>2026-04-19T09:22:30.999Z</time></trkpt><trkpt lat="44.58053069374796" lon="9.977816249358133"><ele>557.0</ele><time>2026-04-19T09:22:31.999Z</time></trkpt><trkpt lat="44.580640281104536" lon="9.977740041247758"><ele>556.5</ele><time>2026-04-19T09:22:32.999Z</time></trkpt><trkpt lat="44.58074217648519" lon="9.977657537011378"><ele>556.0</ele><time>2026-04-19T09:22:33.999Z</time></trkpt><trkpt lat="44.58084093011733" lon="9.977581808753639"><ele>556.4</ele><time>2026-04-19T09:22:34.999Z</time></trkpt><trkpt lat="44.580940017054374" lon="9.977514976246775"><ele>556.8</ele><time>2026-04-19T09:22:35.999Z</time></trkpt><trkpt lat="44.5810380789575" lon="9.977461857077067"><ele>557.1999999999999</ele><time>2026-04-19T09:22:36.999Z</time></trkpt><trkpt lat="44.58113777041061" lon="9.977434613346711"><ele>557.6</ele><time>2026-04-19T09:22:37.999Z</time></trkpt><trkpt lat="44.58124184335577" lon="9.977430157469712"><ele>558.0</ele><time>2026-04-19T09:22:38.999Z</time></trkpt><trkpt lat="44.581349063290304" lon="9.977463395892487"><ele>558.0</ele><time>2026-04-19T09:22:39.999Z</time></trkpt><trkpt lat="44.58145444275134" lon="9.977493035050237"><ele>558.0</ele><time>2026-04-19T09:22:40.999Z</time></trkpt><trkpt lat="44.58156463825282" lon="9.977527283414307"><ele>558.0</ele><time>2026-04-19T09:22:41.999Z</time></trkpt><trkpt lat="44.58168041406783" lon="9.977555854618279"><ele>558.0</ele><time>2026-04-19T09:22:42.999Z</time></trkpt><trkpt lat="44.58179641418476" lon="9.977582001241872"><ele>554.25</ele><time>2026-04-19T09:22:43.999Z</time></trkpt><trkpt lat="44.58190946376547" lon="9.97761886268967"><ele>550.5</ele><time>2026-04-19T09:22:44.999Z</time></trkpt><trkpt lat="44.58202308710322" lon="9.97763864357209"><ele>546.75</ele><time>2026-04-19T09:22:45.999Z</time></trkpt><trkpt lat="44.582134777112685" lon="9.977639143408238"><ele>543.0</ele><time>2026-04-19T09:22:46.999Z</time></trkpt><trkpt lat="44.58225652565172" lon="9.97764063678038"><ele>542.1999999999999</ele><time>2026-04-19T09:22:47.999Z</time></trkpt><trkpt lat="44.58237448630755" lon="9.97763852660614"><ele>541.4</ele><time>2026-04-19T09:22:48.999Z</time></trkpt><trkpt lat="44.582491345715034" lon="9.977639062345157"><ele>540.5999999999999</ele><time>2026-04-19T09:22:49.999Z</time></trkpt><trkpt lat="44.58259694444799" lon="9.97764436776791"><ele>539.8</ele><time>2026-04-19T09:22:50.999Z</time></trkpt><trkpt lat="44.582705202558984" lon="9.977650969201532"><ele>539.0</ele><time>2026-04-19T09:22:51.999Z</time></trkpt><trkpt lat="44.58280232655338" lon="9.977649678075842"><ele>540.5</ele><time>2026-04-19T09:22:52.999Z</time></trkpt><trkpt lat="44.58291333251389" lon="9.97761663663292"><ele>542.0</ele><time>2026-04-19T09:22:53.999Z</time></trkpt><trkpt lat="44.58301940546187" lon="9.977526313245926"><ele>543.5</ele><time>2026-04-19T09:22:54.999Z</time></trkpt><trkpt lat="44.58312706951422" lon="9.977414288687724"><ele>545.0</ele><time>2026-04-19T09:22:55.999Z</time></trkpt><trkpt lat="44.583234840518536" lon="9.9772993978639"><ele>545.0</ele><time>2026-04-19T09:22:57Z</time></trkpt><trkpt lat="44.58334426136029" lon="9.977220892227583"><ele>545.0</ele><time>2026-04-19T09:22:58Z</time></trkpt><trkpt lat="44.583472229323526" lon="9.977138082767206"><ele>545.0</ele><time>2026-04-19T09:22:59Z</time></trkpt><trkpt lat="44.58360415625612" lon="9.977065306306981"><ele>545.0</ele><time>2026-04-19T09:23:00Z</time></trkpt><trkpt lat="44.58373190507882" lon="9.977010875371684"><ele>541.5</ele><time>2026-04-19T09:23:01Z</time></trkpt><trkpt lat="44.58385920516033" lon="9.976963974480602"><ele>538.0</ele><time>2026-04-19T09:23:02Z</time></trkpt><trkpt lat="44.583977376702244" lon="9.976899736028065"><ele>534.5</ele><time>2026-04-19T09:23:03Z</time></trkpt><trkpt lat="44.58408804364515" lon="9.976826290870317"><ele>531.0</ele><time>2026-04-19T09:23:04Z</time></trkpt><trkpt lat="44.58420028278789" lon="9.976726368647823"><ele>530.0</ele><time>2026-04-19T09:23:05Z</time></trkpt><trkpt lat="44.584301206835335" lon="9.976602273492498"><ele>529.0</ele><time>2026-04-19T09:23:06Z</time></trkpt><trkpt lat="44.58439356403533" lon="9.976489940017428"><ele>528.0</ele><time>2026-04-19T09:23:07Z</time></trkpt><trkpt lat="44.5844872955322" lon="9.976399056217927"><ele>527.0</ele><time>2026-04-19T09:23:08Z</time></trkpt><trkpt lat="44.58460837905622" lon="9.976345636308288"><ele>527.0</ele><time>2026-04-19T09:23:09Z</time></trkpt><trkpt lat="44.584722642071796" lon="9.97630529235665"><ele>527.0</ele><time>2026-04-19T09:23:10Z</time></trkpt><trkpt lat="44.584839356442146" lon="9.976216869844674"><ele>527.0</ele><time>2026-04-19T09:23:11Z</time></trkpt><trkpt lat="44.58492582473285" lon="9.976114645762959"><ele>527.0</ele><time>2026-04-19T09:23:12Z</time></trkpt><trkpt lat="44.58499310276229" lon="9.975971896414094"><ele>529.5</ele><time>2026-04-19T09:23:13Z</time></trkpt><trkpt lat="44.585052186851485" lon="9.975795220076863"><ele>532.0</ele><time>2026-04-19T09:23:14Z</time></trkpt><trkpt lat="44.58509085221795" lon="9.975603056555846"><ele>534.5</ele><time>2026-04-19T09:23:15Z</time></trkpt><trkpt lat="44.5851209117126" lon="9.975406550537427"><ele>537.0</ele><time>2026-04-19T09:23:16Z</time></trkpt><trkpt lat="44.58513625943706" lon="9.975222456273922"><ele>537.0</ele><time>2026-04-19T09:23:17Z</time></trkpt><trkpt lat="44.585153008685744" lon="9.975043030311959"><ele>537.0</ele><time>2026-04-19T09:23:18Z</time></trkpt><trkpt lat="44.58516754543178" lon="9.97489330714532"><ele>537.0</ele><time>2026-04-19T09:23:19Z</time></trkpt><trkpt lat="44.58517943711501" lon="9.974746272916411"><ele>537.0</ele><time>2026-04-19T09:23:20Z</time></trkpt><trkpt lat="44.58516668339213" lon="9.974582940839579"><ele>537.25</ele><time>2026-04-19T09:23:21Z</time></trkpt><trkpt lat="44.585163552560296" lon="9.974421409224185"><ele>537.5</ele><time>2026-04-19T09:23:22Z</time></trkpt><trkpt lat="44.5851572277839" lon="9.974247003728728"><ele>537.75</ele><time>2026-04-19T09:23:23Z</time></trkpt><trkpt lat="44.58513263096006" lon="9.974072379003669"><ele>538.0</ele><time>2026-04-19T09:23:24Z</time></trkpt><trkpt lat="44.58510558117687" lon="9.973901682044936"><ele>536.25</ele><time>2026-04-19T09:23:25Z</time></trkpt><trkpt lat="44.58506133689554" lon="9.973730900923831"><ele>534.5</ele><time>2026-04-19T09:23:26Z</time></trkpt><trkpt lat="44.585035128005025" lon="9.973569557494798"><ele>532.75</ele><time>2026-04-19T09:23:27Z</time></trkpt><trkpt lat="44.58502175490407" lon="9.973408259869542"><ele>531.0</ele><time>2026-04-19T09:23:28Z</time></trkpt><trkpt lat="44.58499982868752" lon="9.973251637706799"><ele>529.25</ele><time>2026-04-19T09:23:29Z</time></trkpt><trkpt lat="44.58499514674472" lon="9.973098161501321"><ele>527.5</ele><time>2026-04-19T09:23:30Z</time></trkpt><trkpt lat="44.58502111124061" lon="9.97294603090569"><ele>525.75</ele><time>2026-04-19T09:23:31Z</time></trkpt><trkpt lat="44.58506365245317" lon="9.97279822203357"><ele>524.0</ele><time>2026-04-19T09:23:32Z</time></trkpt><trkpt lat="44.585108018729855" lon="9.972646365218706"><ele>523.8</ele><time>2026-04-19T09:23:33Z</time></trkpt><trkpt lat="44.5851400765306" lon="9.972504117780918"><ele>523.5999999999999</ele><time>2026-04-19T09:23:34Z</time></trkpt><trkpt lat="44.58519538338177" lon="9.972406752785183"><ele>523.4</ele><time>2026-04-19T09:23:35Z</time></trkpt><trkpt lat="44.58527800449266" lon="9.972322735792748"><ele>523.1999999999999</ele><time>2026-04-19T09:23:37Z</time></trkpt><trkpt lat="44.58537391855316" lon="9.972293127181285"><ele>523.0</ele><time>2026-04-19T09:23:39Z</time></trkpt><trkpt lat="44.58547214118911" lon="9.97235478478127"><ele>519.5</ele><time>2026-04-19T09:23:41Z</time></trkpt><trkpt lat="44.58556756636131" lon="9.972536454526209"><ele>516.0</ele><time>2026-04-19T09:23:43Z</time></trkpt><trkpt lat="44.58562358739608" lon="9.97267586709905"><ele>512.5</ele><time>2026-04-19T09:23:44Z</time></trkpt><trkpt lat="44.58568087169501" lon="9.972839463319971"><ele>509.0</ele><time>2026-04-19T09:23:45Z</time></trkpt><trkpt lat="44.58574401067929" lon="9.972997259434443"><ele>509.0</ele><time>2026-04-19T09:23:46Z</time></trkpt><trkpt lat="44.58580335130492" lon="9.973140937712532"><ele>509.0</ele><time>2026-04-19T09:23:47Z</time></trkpt><trkpt lat="44.58587151096213" lon="9.973275387627028"><ele>509.0</ele><time>2026-04-19T09:23:48Z</time></trkpt><trkpt lat="44.58596224188376" lon="9.973386797001853"><ele>509.0</ele><time>2026-04-19T09:23:49Z</time></trkpt><trkpt lat="44.58607164575477" lon="9.973486303823872"><ele>507.5</ele><time>2026-04-19T09:23:50Z</time></trkpt><trkpt lat="44.5861884450198" lon="9.973583414828074"><ele>506.0</ele><time>2026-04-19T09:23:51Z</time></trkpt><trkpt lat="44.586283023064404" lon="9.973685635647884"><ele>504.5</ele><time>2026-04-19T09:23:52Z</time></trkpt><trkpt lat="44.586376057577574" lon="9.97378703300179"><ele>503.0</ele><time>2026-04-19T09:23:53Z</time></trkpt><trkpt lat="44.58646703085171" lon="9.97387685855781"><ele>503.0</ele><time>2026-04-19T09:23:54Z</time></trkpt><trkpt lat="44.58656053763292" lon="9.973960406786162"><ele>503.0</ele><time>2026-04-19T09:23:55Z</time></trkpt><trkpt lat="44.586663125482886" lon="9.974044469857699"><ele>503.0</ele><time>2026-04-19T09:23:56Z</time></trkpt><trkpt lat="44.586760439560486" lon="9.974125819616495"><ele>503.0</ele><time>2026-04-19T09:23:57Z</time></trkpt><trkpt lat="44.58685580280563" lon="9.974209953039823"><ele>504.2</ele><time>2026-04-19T09:23:58Z</time></trkpt><trkpt lat="44.586940184250416" lon="9.974303933087624"><ele>505.4</ele><time>2026-04-19T09:23:59Z</time></trkpt><trkpt lat="44.58701719188467" lon="9.974392327562322"><ele>506.59999999999997</ele><time>2026-04-19T09:24:00Z</time></trkpt><trkpt lat="44.5870975353769" lon="9.97442595836698"><ele>507.79999999999995</ele><time>2026-04-19T09:24:01Z</time></trkpt><trkpt lat="44.5871828531339" lon="9.974398541110595"><ele>509.0</ele><time>2026-04-19T09:24:02Z</time></trkpt><trkpt lat="44.58727485397886" lon="9.974338083228842"><ele>505.0</ele><time>2026-04-19T09:24:03Z</time></trkpt><trkpt lat="44.58732631565859" lon="9.974186832149972"><ele>501.0</ele><time>2026-04-19T09:24:04Z</time></trkpt><trkpt lat="44.58731034500757" lon="9.973983279355227"><ele>497.0</ele><time>2026-04-19T09:24:05Z</time></trkpt><trkpt lat="44.58733810652521" lon="9.973797389925029"><ele>493.0</ele><time>2026-04-19T09:24:05.999Z</time></trkpt><trkpt lat="44.58734703995318" lon="9.973613530360076"><ele>493.0</ele><time>2026-04-19T09:24:06.999Z</time></trkpt><trkpt lat="44.5873537564882" lon="9.973443837294266"><ele>493.0</ele><time>2026-04-19T09:24:07.999Z</time></trkpt><trkpt lat="44.58735984072842" lon="9.973279752827308"><ele>493.0</ele><time>2026-04-19T09:24:08.999Z</time></trkpt><trkpt lat="44.587352243432875" lon="9.973124362391514"><ele>493.0</ele><time>2026-04-19T09:24:09.999Z</time></trkpt><trkpt lat="44.58737784402017" lon="9.972978412824922"><ele>491.6666666666667</ele><time>2026-04-19T09:24:10.999Z</time></trkpt><trkpt lat="44.587387878133434" lon="9.972839807280009"><ele>490.33333333333337</ele><time>2026-04-19T09:24:11.999Z</time></trkpt><trkpt lat="44.587402214724605" lon="9.972708067896953"><ele>489.0</ele><time>2026-04-19T09:24:12.999Z</time></trkpt><trkpt lat="44.58742595987704" lon="9.972596308107843"><ele>487.66666666666663</ele><time>2026-04-19T09:24:13.999Z</time></trkpt><trkpt lat="44.58747245182364" lon="9.97250988159697"><ele>486.3333333333333</ele><time>2026-04-19T09:24:14.999Z</time></trkpt><trkpt lat="44.587534123255544" lon="9.972446848848195"><ele>485.0</ele><time>2026-04-19T09:24:15.999Z</time></trkpt><trkpt lat="44.5876100511464" lon="9.972433193115647"><ele>484.4</ele><time>2026-04-19T09:24:16.999Z</time></trkpt><trkpt lat="44.5876988559251" lon="9.972424772686162"><ele>483.8</ele><time>2026-04-19T09:24:17.999Z</time></trkpt><trkpt lat="44.58778049663447" lon="9.97251667562418"><ele>483.20000000000005</ele><time>2026-04-19T09:24:18.999Z</time></trkpt><trkpt lat="44.58787645285104" lon="9.97261706372108"><ele>482.6</ele><time>2026-04-19T09:24:19.999Z</time></trkpt><trkpt lat="44.587963952636805" lon="9.972762188253686"><ele>482.0</ele><time>2026-04-19T09:24:20.999Z</time></trkpt><trkpt lat="44.58805565979237" lon="9.972903742015486"><ele>481.0</ele><time>2026-04-19T09:24:21.999Z</time></trkpt><trkpt lat="44.58814747890438" lon="9.973063645851484"><ele>480.0</ele><time>2026-04-19T09:24:22.999Z</time></trkpt><trkpt lat="44.588232263908566" lon="9.973216258156071"><ele>479.0</ele><time>2026-04-19T09:24:23.999Z</time></trkpt><trkpt lat="44.58831974815807" lon="9.973348911199487"><ele>478.0</ele><time>2026-04-19T09:24:24.999Z</time></trkpt><trkpt lat="44.58839980212007" lon="9.973468432942418"><ele>478.0</ele><time>2026-04-19T09:24:25.999Z</time></trkpt><trkpt lat="44.58847914414353" lon="9.973585382859502"><ele>477.99999999999994</ele><time>2026-04-19T09:24:26.999Z</time></trkpt><trkpt lat="44.58854690595864" lon="9.973705820848652"><ele>477.99999999999994</ele><time>2026-04-19T09:24:27.999Z</time></trkpt><trkpt lat="44.58861318989864" lon="9.973818457310818"><ele>478.0</ele><time>2026-04-19T09:24:28.999Z</time></trkpt><trkpt lat="44.58867877631248" lon="9.973927712850147"><ele>478.0</ele><time>2026-04-19T09:24:29.999Z</time></trkpt><trkpt lat="44.588754646738586" lon="9.974052088082159"><ele>475.0</ele><time>2026-04-19T09:24:30.999Z</time></trkpt><trkpt lat="44.58883667057291" lon="9.974177811381633"><ele>472.0</ele><time>2026-04-19T09:24:31.999Z</time></trkpt><trkpt lat="44.58891337698795" lon="9.97429263759572"><ele>469.0</ele><time>2026-04-19T09:24:32.999Z</time></trkpt><trkpt lat="44.58900765716017" lon="9.974408344859834"><ele>466.0</ele><time>2026-04-19T09:24:33.999Z</time></trkpt><trkpt lat="44.58908895958378" lon="9.97453915015122"><ele>466.0</ele><time>2026-04-19T09:24:34.999Z</time></trkpt><trkpt lat="44.58918107190715" lon="9.97465035066067"><ele>466.0</ele><time>2026-04-19T09:24:35.999Z</time></trkpt><trkpt lat="44.58927008518263" lon="9.974757417616116"><ele>466.0</ele><time>2026-04-19T09:24:36.999Z</time></trkpt><trkpt lat="44.589356108485646" lon="9.974860626300494"><ele>466.0</ele><time>2026-04-19T09:24:37.999Z</time></trkpt><trkpt lat="44.58944171786392" lon="9.974959673260704"><ele>463.25</ele><time>2026-04-19T09:24:38.999Z</time></trkpt><trkpt lat="44.589537598730196" lon="9.975043148903397"><ele>460.5</ele><time>2026-04-19T09:24:39.999Z</time></trkpt><trkpt lat="44.58962671191035" lon="9.975128937426453"><ele>457.75</ele><time>2026-04-19T09:24:40.999Z</time></trkpt><trkpt lat="44.589734247861976" lon="9.975173920846345"><ele>455.0</ele><time>2026-04-19T09:24:41.999Z</time></trkpt><trkpt lat="44.589850583154146" lon="9.97520537374385"><ele>455.0</ele><time>2026-04-19T09:24:42.999Z</time></trkpt><trkpt lat="44.58997038164916" lon="9.975217345406488"><ele>455.0</ele><time>2026-04-19T09:24:43.999Z</time></trkpt><trkpt lat="44.5900891306517" lon="9.97520733876986"><ele>455.0</ele><time>2026-04-19T09:24:44.999Z</time></trkpt><trkpt lat="44.59021020330021" lon="9.975224974541092"><ele>455.0</ele><time>2026-04-19T09:24:45.999Z</time></trkpt><trkpt lat="44.59033609075965" lon="9.975209859575925"><ele>452.6</ele><time>2026-04-19T09:24:46.999Z</time></trkpt><trkpt lat="44.59045387143462" lon="9.975201914626686"><ele>450.2</ele><time>2026-04-19T09:24:47.999Z</time></trkpt><trkpt lat="44.59056377096505" lon="9.9752105493827"><ele>447.79999999999995</ele><time>2026-04-19T09:24:48.999Z</time></trkpt><trkpt lat="44.59067201589625" lon="9.975211248165644"><ele>445.4</ele><time>2026-04-19T09:24:49.999Z</time></trkpt><trkpt lat="44.59077816335083" lon="9.975219080485873"><ele>443.0</ele><time>2026-04-19T09:24:50.999Z</time></trkpt><trkpt lat="44.59088617044555" lon="9.975227596506585"><ele>443.0</ele><time>2026-04-19T09:24:51.999Z</time></trkpt><trkpt lat="44.59099675273821" lon="9.975242076333446"><ele>442.99999999999994</ele><time>2026-04-19T09:24:52.999Z</time></trkpt><trkpt lat="44.59110439258369" lon="9.97527649284996"><ele>442.99999999999994</ele><time>2026-04-19T09:24:53.999Z</time></trkpt><trkpt lat="44.591208247097065" lon="9.975335888828946"><ele>443.0</ele><time>2026-04-19T09:24:54.999Z</time></trkpt><trkpt lat="44.59130371995237" lon="9.975403428424379"><ele>443.0</ele><time>2026-04-19T09:24:55.999Z</time></trkpt><trkpt lat="44.5913995557458" lon="9.975460790899906"><ele>440.99999999999994</ele><time>2026-04-19T09:24:56.999Z</time></trkpt><trkpt lat="44.591461379557124" lon="9.975535305861783"><ele>439.0</ele><time>2026-04-19T09:24:57.999Z</time></trkpt><trkpt lat="44.59152477224112" lon="9.975578953106904"><ele>437.0</ele><time>2026-04-19T09:24:58.999Z</time></trkpt><trkpt lat="44.59160289683796" lon="9.975668025962468"><ele>435.0</ele><time>2026-04-19T09:25:00.999Z</time></trkpt><trkpt lat="44.59167523173711" lon="9.975649226630674"><ele>432.99999999999994</ele><time>2026-04-19T09:25:03Z</time></trkpt><trkpt lat="44.59173377700631" lon="9.97558549999578"><ele>431.0</ele><time>2026-04-19T09:25:06Z</time></trkpt><trkpt lat="44.591781897460315" lon="9.975525156069681"><ele>431.0</ele><time>2026-04-19T09:26:06Z</time></trkpt><trkpt lat="44.59175684085315" lon="9.975606820187137"><ele>431.0</ele><time>2026-04-19T09:26:18.999Z</time></trkpt><trkpt lat="44.591717006773784" lon="9.975693626789138"><ele>431.0</ele><time>2026-04-19T09:26:21.999Z</time></trkpt><trkpt lat="44.591857225162535" lon="9.975861215522015"><ele>431.0</ele><time>2026-04-19T09:26:22.999Z</time></trkpt><trkpt lat="44.59192566325431" lon="9.975949168984881"><ele>431.0</ele><time>2026-04-19T09:26:23.999Z</time></trkpt><trkpt lat="44.59199634627064" lon="9.976026269741194"><ele>429.0</ele><time>2026-04-19T09:26:24.999Z</time></trkpt><trkpt lat="44.59207186549155" lon="9.976099095408191"><ele>427.0</ele><time>2026-04-19T09:26:25.999Z</time></trkpt><trkpt lat="44.59215923104834" lon="9.976164387875606"><ele>425.0</ele><time>2026-04-19T09:26:26.999Z</time></trkpt><trkpt lat="44.59223409047973" lon="9.976227455147736"><ele>423.0</ele><time>2026-04-19T09:26:27.999Z</time></trkpt><trkpt lat="44.59231883868762" lon="9.976274253056074"><ele>421.0</ele><time>2026-04-19T09:26:28.999Z</time></trkpt><trkpt lat="44.59240503236044" lon="9.976307837805805"><ele>421.0</ele><time>2026-04-19T09:26:29.999Z</time></trkpt><trkpt lat="44.59248322281071" lon="9.976339536793795"><ele>421.0</ele><time>2026-04-19T09:26:30.999Z</time></trkpt><trkpt lat="44.592565840437054" lon="9.976438410775716"><ele>421.0</ele><time>2026-04-19T09:26:32.999Z</time></trkpt><trkpt lat="44.59251484263462" lon="9.976593304307087"><ele>421.0</ele><time>2026-04-19T09:26:34.999Z</time></trkpt><trkpt lat="44.592418269719836" lon="9.976670899433179"><ele>421.0</ele><time>2026-04-19T09:26:35.999Z</time></trkpt><trkpt lat="44.5922989659352" lon="9.976747101681788"><ele>419.0</ele><time>2026-04-19T09:26:36.999Z</time></trkpt><trkpt lat="44.592198164196795" lon="9.976841604427042"><ele>417.0</ele><time>2026-04-19T09:26:37.999Z</time></trkpt><trkpt lat="44.59211787928165" lon="9.976953171748507"><ele>415.0</ele><time>2026-04-19T09:26:38.999Z</time></trkpt><trkpt lat="44.59205671949488" lon="9.977079653333181"><ele>413.0</ele><time>2026-04-19T09:26:39.999Z</time></trkpt><trkpt lat="44.59200818339051" lon="9.977223494801619"><ele>413.0</ele><time>2026-04-19T09:26:40.999Z</time></trkpt><trkpt lat="44.59196961244924" lon="9.977374310397122"><ele>413.0</ele><time>2026-04-19T09:26:41.999Z</time></trkpt><trkpt lat="44.591949479752564" lon="9.977540913485438"><ele>413.0</ele><time>2026-04-19T09:26:42.999Z</time></trkpt><trkpt lat="44.59195442834609" lon="9.977713610385983"><ele>413.0</ele><time>2026-04-19T09:26:43.999Z</time></trkpt><trkpt lat="44.59197158916054" lon="9.9778840920969"><ele>413.0</ele><time>2026-04-19T09:26:44.999Z</time></trkpt><trkpt lat="44.591990534757194" lon="9.978054769375333"><ele>413.0</ele><time>2026-04-19T09:26:45.999Z</time></trkpt><trkpt lat="44.59199333463594" lon="9.978215512548491"><ele>413.0</ele><time>2026-04-19T09:26:46.999Z</time></trkpt><trkpt lat="44.59196596268235" lon="9.978370830072675"><ele>413.0</ele><time>2026-04-19T09:26:47.999Z</time></trkpt><trkpt lat="44.5919070229911" lon="9.978530179492708"><ele>409.79999999999995</ele><time>2026-04-19T09:26:48.999Z</time></trkpt><trkpt lat="44.591838358504575" lon="9.978656397278797"><ele>406.6</ele><time>2026-04-19T09:26:49.999Z</time></trkpt><trkpt lat="44.59176589184367" lon="9.978723643538313"><ele>403.4</ele><time>2026-04-19T09:26:50.999Z</time></trkpt><trkpt lat="44.591673459217155" lon="9.978737752468716"><ele>400.20000000000005</ele><time>2026-04-19T09:26:51.999Z</time></trkpt><trkpt lat="44.5915613857559" lon="9.978676447890308"><ele>397.0</ele><time>2026-04-19T09:26:52.999Z</time></trkpt><trkpt lat="44.591458869680196" lon="9.97866031850403"><ele>397.00000000000006</ele><time>2026-04-19T09:26:53.999Z</time></trkpt><trkpt lat="44.59139050493498" lon="9.978674183045914"><ele>397.0</ele><time>2026-04-19T09:26:54.999Z</time></trkpt><trkpt lat="44.591346232540964" lon="9.978741549330916"><ele>397.0</ele><time>2026-04-19T09:26:55.999Z</time></trkpt><trkpt lat="44.591325380842264" lon="9.97884194335824"><ele>397.0</ele><time>2026-04-19T09:26:56.999Z</time></trkpt><trkpt lat="44.59136275175991" lon="9.978941285207043"><ele>397.00000000000006</ele><time>2026-04-19T09:26:57.999Z</time></trkpt><trkpt lat="44.591423088539834" lon="9.979029406773625"><ele>397.0</ele><time>2026-04-19T09:26:58.999Z</time></trkpt><trkpt lat="44.59154502847948" lon="9.979044242051131"><ele>397.0</ele><time>2026-04-19T09:26:59.999Z</time></trkpt><trkpt lat="44.591681177631976" lon="9.979071751458692"><ele>397.0</ele><time>2026-04-19T09:27:00.999Z</time></trkpt><trkpt lat="44.591810222650864" lon="9.979093726664344"><ele>397.0</ele><time>2026-04-19T09:27:01.999Z</time></trkpt><trkpt lat="44.59193348860618" lon="9.979116169883458"><ele>397.0</ele><time>2026-04-19T09:27:02.999Z</time></trkpt><trkpt lat="44.592062231897145" lon="9.979145129495489"><ele>393.40000000000003</ele><time>2026-04-19T09:27:03.999Z</time></trkpt><trkpt lat="44.592174126339195" lon="9.979188856062652"><ele>389.8</ele><time>2026-04-19T09:27:04.999Z</time></trkpt><trkpt lat="44.5922824892542" lon="9.97925432729712"><ele>386.2</ele><time>2026-04-19T09:27:05.999Z</time></trkpt><trkpt lat="44.59238436892896" lon="9.97930280044021"><ele>382.6</ele><time>2026-04-19T09:27:06.999Z</time></trkpt><trkpt lat="44.592477855660626" lon="9.979376408867791"><ele>379.0</ele><time>2026-04-19T09:27:07.999Z</time></trkpt><trkpt lat="44.59257933106002" lon="9.97943200671753"><ele>379.0</ele><time>2026-04-19T09:27:09Z</time></trkpt><trkpt lat="44.592717231071006" lon="9.979395736361376"><ele>379.0</ele><time>2026-04-19T09:27:10Z</time></trkpt><trkpt lat="44.592835436188096" lon="9.979355277504736"><ele>379.0</ele><time>2026-04-19T09:27:11Z</time></trkpt><trkpt lat="44.59292588222403" lon="9.979291750269526"><ele>379.0</ele><time>2026-04-19T09:27:12Z</time></trkpt><trkpt lat="44.592996561889585" lon="9.979182653884633"><ele>379.25</ele><time>2026-04-19T09:27:13Z</time></trkpt><trkpt lat="44.59308366770368" lon="9.979046797106351"><ele>379.5</ele><time>2026-04-19T09:27:14Z</time></trkpt><trkpt lat="44.5931659285318" lon="9.978905710055786"><ele>379.75</ele><time>2026-04-19T09:27:15Z</time></trkpt><trkpt lat="44.59326599168739" lon="9.978806183048192"><ele>380.0</ele><time>2026-04-19T09:27:16Z</time></trkpt><trkpt lat="44.5933684399667" lon="9.978786730774786"><ele>380.0</ele><time>2026-04-19T09:27:17Z</time></trkpt><trkpt lat="44.59349977565595" lon="9.9787565175797"><ele>380.0</ele><time>2026-04-19T09:27:18Z</time></trkpt><trkpt lat="44.593625013203415" lon="9.978727654754602"><ele>380.0</ele><time>2026-04-19T09:27:19Z</time></trkpt><trkpt lat="44.593746597896114" lon="9.978659000770746"><ele>380.0</ele><time>2026-04-19T09:27:20Z</time></trkpt><trkpt lat="44.593860307168164" lon="9.978595764985526"><ele>377.5</ele><time>2026-04-19T09:27:21Z</time></trkpt><trkpt lat="44.5939772885558" lon="9.97849274193857"><ele>375.0</ele><time>2026-04-19T09:27:22Z</time></trkpt><trkpt lat="44.594095075226825" lon="9.978395985830323"><ele>372.5</ele><time>2026-04-19T09:27:23Z</time></trkpt><trkpt lat="44.59420049666125" lon="9.978287037694185"><ele>370.0</ele><time>2026-04-19T09:27:24Z</time></trkpt><trkpt lat="44.594292917094855" lon="9.978203057076774"><ele>370.0</ele><time>2026-04-19T09:27:25Z</time></trkpt><trkpt lat="44.59439639481647" lon="9.978154002832133"><ele>370.0</ele><time>2026-04-19T09:27:26Z</time></trkpt><trkpt lat="44.59451669219925" lon="9.978143035696386"><ele>370.0</ele><time>2026-04-19T09:27:27Z</time></trkpt><trkpt lat="44.594634506021826" lon="9.978187064570802"><ele>370.0</ele><time>2026-04-19T09:27:28Z</time></trkpt><trkpt lat="44.59474829736673" lon="9.978238977533291"><ele>367.75</ele><time>2026-04-19T09:27:29Z</time></trkpt><trkpt lat="44.59486895782879" lon="9.978288913311006"><ele>365.5</ele><time>2026-04-19T09:27:30Z</time></trkpt><trkpt lat="44.59498214268783" lon="9.978297937079894"><ele>363.25</ele><time>2026-04-19T09:27:31Z</time></trkpt><trkpt lat="44.59509174155614" lon="9.978316015013597"><ele>361.0</ele><time>2026-04-19T09:27:32Z</time></trkpt><trkpt lat="44.595209849471345" lon="9.978344369607175"><ele>355.0</ele><time>2026-04-19T09:27:33Z</time></trkpt><trkpt lat="44.59534228156613" lon="9.978355321461256"><ele>349.0</ele><time>2026-04-19T09:27:34Z</time></trkpt><trkpt lat="44.59546870363144" lon="9.9783656264548"><ele>343.0</ele><time>2026-04-19T09:27:35Z</time></trkpt><trkpt lat="44.59560805982836" lon="9.978353816852968"><ele>337.0</ele><time>2026-04-19T09:27:36Z</time></trkpt><trkpt lat="44.59574327988033" lon="9.978392123584948"><ele>337.0</ele><time>2026-04-19T09:27:37Z</time></trkpt><trkpt lat="44.59587413349361" lon="9.978416911214936"><ele>337.0</ele><time>2026-04-19T09:27:38Z</time></trkpt><trkpt lat="44.59599230608975" lon="9.978474969262102"><ele>337.0</ele><time>2026-04-19T09:27:39Z</time></trkpt><trkpt lat="44.596099810469894" lon="9.978562630241765"><ele>337.0</ele><time>2026-04-19T09:27:40Z</time></trkpt><trkpt lat="44.59620981235318" lon="9.978674317820058"><ele>336.75</ele><time>2026-04-19T09:27:41Z</time></trkpt><trkpt lat="44.59632223228403" lon="9.978783060972281"><ele>336.5</ele><time>2026-04-19T09:27:42Z</time></trkpt><trkpt lat="44.59642266550904" lon="9.978909678293874"><ele>336.25</ele><time>2026-04-19T09:27:43Z</time></trkpt><trkpt lat="44.596522872714736" lon="9.979022111694976"><ele>336.0</ele><time>2026-04-19T09:27:44Z</time></trkpt><trkpt lat="44.59661538069427" lon="9.97912541646292"><ele>331.5</ele><time>2026-04-19T09:27:45Z</time></trkpt><trkpt lat="44.59671888756903" lon="9.979210966545017"><ele>327.0</ele><time>2026-04-19T09:27:46Z</time></trkpt><trkpt lat="44.59682822444823" lon="9.979249595809126"><ele>322.5</ele><time>2026-04-19T09:27:47Z</time></trkpt><trkpt lat="44.59694669398753" lon="9.979256202519256"><ele>318.0</ele><time>2026-04-19T09:27:48Z</time></trkpt><trkpt lat="44.597077347037725" lon="9.979237742131135"><ele>317.0</ele><time>2026-04-19T09:27:49Z</time></trkpt><trkpt lat="44.59719381825977" lon="9.979206323096077"><ele>316.0</ele><time>2026-04-19T09:27:50Z</time></trkpt><trkpt lat="44.597317844716216" lon="9.979171650711296"><ele>315.0</ele><time>2026-04-19T09:27:51Z</time></trkpt><trkpt lat="44.597447317069125" lon="9.979103218903834"><ele>314.0</ele><time>2026-04-19T09:27:52Z</time></trkpt><trkpt lat="44.597572067012244" lon="9.9790280764104"><ele>314.4</ele><time>2026-04-19T09:27:53Z</time></trkpt><trkpt lat="44.59768005580705" lon="9.978936077165024"><ele>314.79999999999995</ele><time>2026-04-19T09:27:54Z</time></trkpt><trkpt lat="44.597783783121734" lon="9.978867211919715"><ele>315.20000000000005</ele><time>2026-04-19T09:27:55Z</time></trkpt><trkpt lat="44.597888306249224" lon="9.978823614084833"><ele>315.6</ele><time>2026-04-19T09:27:56Z</time></trkpt><trkpt lat="44.597976611763194" lon="9.978825599242725"><ele>316.0</ele><time>2026-04-19T09:27:57Z</time></trkpt><trkpt lat="44.5980649056872" lon="9.978901522240847"><ele>316.0</ele><time>2026-04-19T09:27:58Z</time></trkpt><trkpt lat="44.59817965956508" lon="9.978987836516403"><ele>316.0</ele><time>2026-04-19T09:27:59Z</time></trkpt><trkpt lat="44.59829985540654" lon="9.979065728487123"><ele>316.0</ele><time>2026-04-19T09:28:00Z</time></trkpt><trkpt lat="44.59842134688494" lon="9.97916372434997"><ele>316.0</ele><time>2026-04-19T09:28:01Z</time></trkpt><trkpt lat="44.59853409714689" lon="9.97925379543257"><ele>313.5</ele><time>2026-04-19T09:28:02Z</time></trkpt><trkpt lat="44.59864087438064" lon="9.979338134175174"><ele>311.0</ele><time>2026-04-19T09:28:03Z</time></trkpt><trkpt lat="44.59874916946211" lon="9.979413611091326"><ele>308.5</ele><time>2026-04-19T09:28:04Z</time></trkpt><trkpt lat="44.598849734624025" lon="9.979484916846358"><ele>306.0</ele><time>2026-04-19T09:28:05Z</time></trkpt><trkpt lat="44.598952103406496" lon="9.979565914748873"><ele>305.6</ele><time>2026-04-19T09:28:06Z</time></trkpt><trkpt lat="44.599045325070854" lon="9.979626796761265"><ele>305.20000000000005</ele><time>2026-04-19T09:28:07Z</time></trkpt><trkpt lat="44.59913362305933" lon="9.979660244193365"><ele>304.79999999999995</ele><time>2026-04-19T09:28:08Z</time></trkpt><trkpt lat="44.59922755142142" lon="9.979645801746411"><ele>304.4</ele><time>2026-04-19T09:28:09Z</time></trkpt><trkpt lat="44.59931633440352" lon="9.979652973450069"><ele>304.0</ele><time>2026-04-19T09:28:10Z</time></trkpt><trkpt lat="44.59940492733424" lon="9.97961905420539"><ele>303.8</ele><time>2026-04-19T09:28:11Z</time></trkpt><trkpt lat="44.5995035751165" lon="9.979539513715531"><ele>303.59999999999997</ele><time>2026-04-19T09:28:12Z</time></trkpt><trkpt lat="44.59958360575947" lon="9.9794603594846"><ele>303.4</ele><time>2026-04-19T09:28:13Z</time></trkpt><trkpt lat="44.59964364276318" lon="9.979384719496117"><ele>303.2</ele><time>2026-04-19T09:28:14Z</time></trkpt><trkpt lat="44.599687516303625" lon="9.979300467913799"><ele>303.0</ele><time>2026-04-19T09:28:15Z</time></trkpt><trkpt lat="44.599721326490524" lon="9.979175172223737"><ele>303.0</ele><time>2026-04-19T09:28:16Z</time></trkpt><trkpt lat="44.59975628352339" lon="9.9790504020388"><ele>303.0</ele><time>2026-04-19T09:28:17Z</time></trkpt><trkpt lat="44.599796214083355" lon="9.97892784370874"><ele>303.0</ele><time>2026-04-19T09:28:18Z</time></trkpt><trkpt lat="44.59984646930089" lon="9.978804550815958"><ele>303.0</ele><time>2026-04-19T09:28:18.999Z</time></trkpt><trkpt lat="44.599911366503775" lon="9.978689148800141"><ele>303.0</ele><time>2026-04-19T09:28:19.999Z</time></trkpt><trkpt lat="44.59999392035312" lon="9.978574408143885"><ele>303.0</ele><time>2026-04-19T09:28:20.999Z</time></trkpt><trkpt lat="44.6000834389003" lon="9.978471959975636"><ele>303.0</ele><time>2026-04-19T09:28:21.999Z</time></trkpt><trkpt lat="44.600176111392" lon="9.978387901033813"><ele>303.0</ele><time>2026-04-19T09:28:22.999Z</time></trkpt><trkpt lat="44.600279876156435" lon="9.978348047975258"><ele>303.0</ele><time>2026-04-19T09:28:23.999Z</time></trkpt><trkpt lat="44.60039378467706" lon="9.97832806395247"><ele>303.0</ele><time>2026-04-19T09:28:24.999Z</time></trkpt><trkpt lat="44.600506771568085" lon="9.978324613267343"><ele>302.8</ele><time>2026-04-19T09:28:25.999Z</time></trkpt><trkpt lat="44.600602747259344" lon="9.978316543863818"><ele>302.6</ele><time>2026-04-19T09:28:26.999Z</time></trkpt><trkpt lat="44.60069802962685" lon="9.978268503538178"><ele>302.4</ele><time>2026-04-19T09:28:27.999Z</time></trkpt><trkpt lat="44.60080187068697" lon="9.978215723221894"><ele>302.2</ele><time>2026-04-19T09:28:28.999Z</time></trkpt><trkpt lat="44.60090144204247" lon="9.978155252883717"><ele>302.0</ele><time>2026-04-19T09:28:29.999Z</time></trkpt><trkpt lat="44.60095820816049" lon="9.978059625150388"><ele>302.0</ele><time>2026-04-19T09:28:30.999Z</time></trkpt><trkpt lat="44.60095749880552" lon="9.977925214965605"><ele>302.0</ele><time>2026-04-19T09:28:31.999Z</time></trkpt><trkpt lat="44.60091693389879" lon="9.977788095425383"><ele>302.0</ele><time>2026-04-19T09:28:32.999Z</time></trkpt><trkpt lat="44.60082776286467" lon="9.977632995124585"><ele>302.0</ele><time>2026-04-19T09:28:33.999Z</time></trkpt><trkpt lat="44.60073610569845" lon="9.977462901946517"><ele>301.33333333333337</ele><time>2026-04-19T09:28:34.999Z</time></trkpt><trkpt lat="44.600663649639664" lon="9.977247431719514"><ele>300.6666666666667</ele><time>2026-04-19T09:28:35.999Z</time></trkpt><trkpt lat="44.60059185395088" lon="9.977058677312895"><ele>300.0</ele><time>2026-04-19T09:28:36.999Z</time></trkpt><trkpt lat="44.60051050449221" lon="9.976884016122074"><ele>300.0</ele><time>2026-04-19T09:28:37.999Z</time></trkpt><trkpt lat="44.60045396204467" lon="9.976705787392424"><ele>300.0</ele><time>2026-04-19T09:28:38.999Z</time></trkpt><trkpt lat="44.600394785391806" lon="9.976556327092275"><ele>300.0</ele><time>2026-04-19T09:28:39.999Z</time></trkpt><trkpt lat="44.60031016177151" lon="9.976442609000454"><ele>300.0</ele><time>2026-04-19T09:28:40.999Z</time></trkpt><trkpt lat="44.60018472579386" lon="9.976370400556647"><ele>300.0</ele><time>2026-04-19T09:28:41.999Z</time></trkpt><trkpt lat="44.600058900297206" lon="9.976284517765963"><ele>300.0</ele><time>2026-04-19T09:28:42.999Z</time></trkpt><trkpt lat="44.59998451893791" lon="9.976132203420025"><ele>300.0</ele><time>2026-04-19T09:28:43.999Z</time></trkpt><trkpt lat="44.59993360629198" lon="9.975999907707612"><ele>300.0</ele><time>2026-04-19T09:28:44.999Z</time></trkpt><trkpt lat="44.599938061570406" lon="9.975848534210465"><ele>300.0</ele><time>2026-04-19T09:28:46.999Z</time></trkpt><trkpt lat="44.60001958592748" lon="9.975813031621316"><ele>300.0</ele><time>2026-04-19T09:28:47.999Z</time></trkpt><trkpt lat="44.60009886932322" lon="9.975890630592067"><ele>300.0</ele><time>2026-04-19T09:28:48.999Z</time></trkpt><trkpt lat="44.60017527907648" lon="9.975987779270973"><ele>300.0</ele><time>2026-04-19T09:28:49.999Z</time></trkpt><trkpt lat="44.60026832628297" lon="9.976020667504839"><ele>300.0</ele><time>2026-04-19T09:28:50.999Z</time></trkpt><trkpt lat="44.60036651432288" lon="9.975998089777615"><ele>297.2</ele><time>2026-04-19T09:28:51.999Z</time></trkpt><trkpt lat="44.600467043184665" lon="9.975881599099235"><ele>294.4</ele><time>2026-04-19T09:28:52.999Z</time></trkpt><trkpt lat="44.600548779957506" lon="9.97584122408455"><ele>291.6</ele><time>2026-04-19T09:28:53.999Z</time></trkpt><trkpt lat="44.60063955218576" lon="9.975858861774924"><ele>288.8</ele><time>2026-04-19T09:28:56.999Z</time></trkpt><trkpt lat="44.6007126031451" lon="9.9758527332935"><ele>286.0</ele><time>2026-04-19T09:28:58.999Z</time></trkpt><trkpt lat="44.600778508214724" lon="9.975912651735394"><ele>286.0</ele><time>2026-04-19T09:29:00.999Z</time></trkpt><trkpt lat="44.60082690063232" lon="9.97597821810819"><ele>286.0</ele><time>2026-04-19T09:29:01.999Z</time></trkpt><trkpt lat="44.60087223740848" lon="9.976113021355705"><ele>286.0</ele><time>2026-04-19T09:29:03.999Z</time></trkpt><trkpt lat="44.60091913892098" lon="9.976275612093696"><ele>286.0</ele><time>2026-04-19T09:29:05.999Z</time></trkpt><trkpt lat="44.60095192534391" lon="9.976367923697689"><ele>286.0</ele><time>2026-04-19T09:29:06.999Z</time></trkpt><trkpt lat="44.600981662620924" lon="9.976491371302242"><ele>285.99999999999994</ele><time>2026-04-19T09:29:07.999Z</time></trkpt><trkpt lat="44.60103317106644" lon="9.976582723368518"><ele>286.0</ele><time>2026-04-19T09:29:08.999Z</time></trkpt><trkpt lat="44.60106361404616" lon="9.976678225799942"><ele>286.0</ele><time>2026-04-19T09:29:09.999Z</time></trkpt><trkpt lat="44.60109898948857" lon="9.97675156499492"><ele>286.0</ele><time>2026-04-19T09:29:10.999Z</time></trkpt><trkpt lat="44.60113832317348" lon="9.976827116132633"><ele>286.0</ele><time>2026-04-19T09:29:11.999Z</time></trkpt><trkpt lat="44.6011844372359" lon="9.976906527522685"><ele>285.99999999999994</ele><time>2026-04-19T09:29:12.999Z</time></trkpt><trkpt lat="44.60123964107815" lon="9.976968263983645"><ele>286.0</ele><time>2026-04-19T09:29:13.999Z</time></trkpt><trkpt lat="44.60132256322246" lon="9.977054398800956"><ele>285.8</ele><time>2026-04-19T09:29:16Z</time></trkpt><trkpt lat="44.60137995771252" lon="9.977111794966097"><ele>285.6</ele><time>2026-04-19T09:29:35Z</time></trkpt><trkpt lat="44.60143321809615" lon="9.977161151306095"><ele>285.4</ele><time>2026-04-19T09:29:37Z</time></trkpt><trkpt lat="44.60133797592005" lon="9.977069812987155"><ele>285.2</ele><time>2026-04-19T09:29:50Z</time></trkpt><trkpt lat="44.601222203946925" lon="9.976885286123487"><ele>285.0</ele><time>2026-04-19T09:29:51Z</time></trkpt><trkpt lat="44.60113355977508" lon="9.976753751903985"><ele>285.25</ele><time>2026-04-19T09:29:52Z</time></trkpt><trkpt lat="44.60105713997412" lon="9.976612577286172"><ele>285.5</ele><time>2026-04-19T09:29:53Z</time></trkpt><trkpt lat="44.60099815574431" lon="9.976435606669108"><ele>285.75</ele><time>2026-04-19T09:29:54Z</time></trkpt><trkpt lat="44.600935518945235" lon="9.97624765731344"><ele>286.0</ele><time>2026-04-19T09:29:55Z</time></trkpt><trkpt lat="44.60089427853025" lon="9.976106438749243"><ele>286.0</ele><time>2026-04-19T09:29:56Z</time></trkpt><trkpt lat="44.60084722591549" lon="9.97598382180454"><ele>286.0</ele><time>2026-04-19T09:29:57Z</time></trkpt><trkpt lat="44.60081369808915" lon="9.975887175553952"><ele>286.0</ele><time>2026-04-19T09:29:58Z</time></trkpt><trkpt lat="44.60076334938327" lon="9.975829325955656"><ele>286.0</ele><time>2026-04-19T09:29:59Z</time></trkpt><trkpt lat="44.60070099597932" lon="9.97580588350806"><ele>286.0</ele><time>2026-04-19T09:30:00Z</time></trkpt><trkpt lat="44.60058232767571" lon="9.97579832830555"><ele>286.0</ele><time>2026-04-19T09:30:02Z</time></trkpt><trkpt lat="44.60047668512371" lon="9.9758109166347"><ele>281.66666666666663</ele><time>2026-04-19T09:30:04Z</time></trkpt><trkpt lat="44.60041131191672" lon="9.97580458952048"><ele>277.3333333333333</ele><time>2026-04-19T09:30:18Z</time></trkpt><trkpt lat="44.60016439304741" lon="9.975899692676109"><ele>273.0</ele><time>2026-04-19T09:30:20Z</time></trkpt><trkpt lat="44.60034172732106" lon="9.9754424615343"><ele>274.85714285714283</ele><time>2026-04-19T09:30:21Z</time></trkpt><trkpt lat="44.60030250774426" lon="9.975313340933525"><ele>276.7142857142857</ele><time>2026-04-19T09:30:23Z</time></trkpt><trkpt lat="44.60027771368824" lon="9.975208044160732"><ele>278.57142857142856</ele><time>2026-04-19T09:30:24.999Z</time></trkpt><trkpt lat="44.60026147021755" lon="9.975122310806007"><ele>280.42857142857144</ele><time>2026-04-19T09:30:26.999Z</time></trkpt><trkpt lat="44.600239768480456" lon="9.975035845963436"><ele>282.2857142857143</ele><time>2026-04-19T09:30:43.999Z</time></trkpt><trkpt lat="44.600265856719496" lon="9.97512367471504"><ele>284.1428571428571</ele><time>2026-04-19T09:31:10.999Z</time></trkpt><trkpt lat="44.60029008896326" lon="9.97521247465823"><ele>286.0</ele><time>2026-04-19T09:31:13.999Z</time></trkpt><trkpt lat="44.600313452453555" lon="9.975316408981632"><ele>283.8333333333333</ele><time>2026-04-19T09:31:21Z</time></trkpt><trkpt lat="44.60033326024428" lon="9.975403922788747"><ele>281.66666666666663</ele><time>2026-04-19T09:31:22Z</time></trkpt><trkpt lat="44.600353433197455" lon="9.975496656388263"><ele>279.5</ele><time>2026-04-19T09:31:23Z</time></trkpt><trkpt lat="44.60038188042902" lon="9.975625242929297"><ele>277.3333333333333</ele><time>2026-04-19T09:31:24Z</time></trkpt><trkpt lat="44.60040583213355" lon="9.975724751040822"><ele>275.1666666666667</ele><time>2026-04-19T09:31:25Z</time></trkpt><trkpt lat="44.60045732372638" lon="9.97581553233554"><ele>273.0</ele><time>2026-04-19T09:31:28Z</time></trkpt><trkpt lat="44.60058180779071" lon="9.975814678551638"><ele>273.0</ele><time>2026-04-19T09:31:30Z</time></trkpt><trkpt lat="44.600660966503824" lon="9.975824852327952"><ele>273.0</ele><time>2026-04-19T09:31:31Z</time></trkpt><trkpt lat="44.60074170028659" lon="9.975847775514596"><ele>273.0</ele><time>2026-04-19T09:31:32Z</time></trkpt><trkpt lat="44.60081041138447" lon="9.975913907830755"><ele>273.0</ele><time>2026-04-19T09:31:33Z</time></trkpt><trkpt lat="44.6008703169325" lon="9.97602977840263"><ele>273.0</ele><time>2026-04-19T09:31:34Z</time></trkpt><trkpt lat="44.60090754103662" lon="9.97617953490285"><ele>275.4</ele><time>2026-04-19T09:31:35Z</time></trkpt><trkpt lat="44.60093591142453" lon="9.976336048178029"><ele>277.8</ele><time>2026-04-19T09:31:36Z</time></trkpt><trkpt lat="44.60098391554338" lon="9.976475437841291"><ele>280.2</ele><time>2026-04-19T09:31:37Z</time></trkpt><trkpt lat="44.60104333632959" lon="9.976597223522944"><ele>282.6</ele><time>2026-04-19T09:31:38Z</time></trkpt><trkpt lat="44.6011047171" lon="9.976718525311583"><ele>285.0</ele><time>2026-04-19T09:31:39Z</time></trkpt><trkpt lat="44.60116731683186" lon="9.976824002799416"><ele>285.0</ele><time>2026-04-19T09:31:40Z</time></trkpt><trkpt lat="44.60123197855382" lon="9.976918279423494"><ele>285.0</ele><time>2026-04-19T09:31:41Z</time></trkpt><trkpt lat="44.601303297176614" lon="9.976991809294258"><ele>285.0</ele><time>2026-04-19T09:31:42Z</time></trkpt><trkpt lat="44.601387577038736" lon="9.977071978865546"><ele>285.0</ele><time>2026-04-19T09:31:43Z</time></trkpt><trkpt lat="44.601490741273714" lon="9.97716166293488"><ele>285.0</ele><time>2026-04-19T09:31:44Z</time></trkpt><trkpt lat="44.60159708358673" lon="9.977262360243488"><ele>285.0</ele><time>2026-04-19T09:31:45Z</time></trkpt><trkpt lat="44.601689739397244" lon="9.977349670488636"><ele>285.0</ele><time>2026-04-19T09:31:46Z</time></trkpt><trkpt lat="44.60177295314283" lon="9.97742174902836"><ele>285.0</ele><time>2026-04-19T09:31:47Z</time></trkpt><trkpt lat="44.60185508076745" lon="9.97750079657686"><ele>285.0</ele><time>2026-04-19T09:31:48Z</time></trkpt><trkpt lat="44.60192202729783" lon="9.97760984533143"><ele>285.0</ele><time>2026-04-19T09:31:49Z</time></trkpt><trkpt lat="44.60197353288586" lon="9.977746900930805"><ele>284.8</ele><time>2026-04-19T09:31:50Z</time></trkpt><trkpt lat="44.60201129767399" lon="9.977881639604538"><ele>284.6</ele><time>2026-04-19T09:31:51Z</time></trkpt><trkpt lat="44.60206498247291" lon="9.977987741928771"><ele>284.4</ele><time>2026-04-19T09:31:52Z</time></trkpt><trkpt lat="44.60214708176594" lon="9.978048241609347"><ele>284.2</ele><time>2026-04-19T09:31:53Z</time></trkpt><trkpt lat="44.602262117302395" lon="9.978054098800637"><ele>284.0</ele><time>2026-04-19T09:31:54Z</time></trkpt><trkpt lat="44.602375591340774" lon="9.978068102134218"><ele>284.0</ele><time>2026-04-19T09:31:55Z</time></trkpt><trkpt lat="44.60248194132387" lon="9.978111706684782"><ele>284.0</ele><time>2026-04-19T09:31:56Z</time></trkpt><trkpt lat="44.60257467088495" lon="9.978175396732901"><ele>284.0</ele><time>2026-04-19T09:31:57Z</time></trkpt><trkpt lat="44.60265260661417" lon="9.978267183294335"><ele>284.0</ele><time>2026-04-19T09:31:58Z</time></trkpt><trkpt lat="44.60269826807136" lon="9.978329250015275"><ele>284.0</ele><time>2026-04-19T09:31:59Z</time></trkpt><trkpt lat="44.6026787338232" lon="9.978430558225709"><ele>282.2</ele><time>2026-04-19T09:32:00Z</time></trkpt><trkpt lat="44.6026438776896" lon="9.97851323831723"><ele>280.4</ele><time>2026-04-19T09:32:01Z</time></trkpt><trkpt lat="44.60251642899617" lon="9.978562509665457"><ele>278.6</ele><time>2026-04-19T09:32:02Z</time></trkpt><trkpt lat="44.602406522391576" lon="9.978628900992062"><ele>276.8</ele><time>2026-04-19T09:32:03Z</time></trkpt><trkpt lat="44.602314710465684" lon="9.978713655146912"><ele>275.0</ele><time>2026-04-19T09:32:04Z</time></trkpt><trkpt lat="44.60225237722484" lon="9.978785793542961"><ele>275.0</ele><time>2026-04-19T09:32:05Z</time></trkpt><trkpt lat="44.60226365472704" lon="9.97893279606805"><ele>275.0</ele><time>2026-04-19T09:32:07Z</time></trkpt><trkpt lat="44.60243208742404" lon="9.978989033434607"><ele>275.0</ele><time>2026-04-19T09:32:09Z</time></trkpt><trkpt lat="44.602537845405536" lon="9.978997614999635"><ele>275.0</ele><time>2026-04-19T09:32:10Z</time></trkpt><trkpt lat="44.60267072036852" lon="9.979014239125796"><ele>275.0</ele><time>2026-04-19T09:32:11Z</time></trkpt><trkpt lat="44.60280374133523" lon="9.979029873323002"><ele>275.0</ele><time>2026-04-19T09:32:12Z</time></trkpt><trkpt lat="44.60292868962144" lon="9.97903831353786"><ele>275.0</ele><time>2026-04-19T09:32:13Z</time></trkpt><trkpt lat="44.60303910141957" lon="9.979008120261893"><ele>275.0</ele><time>2026-04-19T09:32:14Z</time></trkpt><trkpt lat="44.60313224230234" lon="9.978981324928228"><ele>272.33333333333337</ele><time>2026-04-19T09:32:15Z</time></trkpt><trkpt lat="44.6032018463111" lon="9.978924911456618"><ele>269.6666666666667</ele><time>2026-04-19T09:32:16Z</time></trkpt><trkpt lat="44.60324441447384" lon="9.978833712660458"><ele>267.0</ele><time>2026-04-19T09:32:17Z</time></trkpt><trkpt lat="44.60329870414825" lon="9.978753821092818"><ele>264.3333333333333</ele><time>2026-04-19T09:32:18Z</time></trkpt><trkpt lat="44.60334483518195" lon="9.978666620558064"><ele>261.66666666666663</ele><time>2026-04-19T09:32:19Z</time></trkpt><trkpt lat="44.60339422704041" lon="9.97857076165312"><ele>259.0</ele><time>2026-04-19T09:32:20Z</time></trkpt><trkpt lat="44.60344498962884" lon="9.978471133625044"><ele>259.0</ele><time>2026-04-19T09:32:21Z</time></trkpt><trkpt lat="44.6034957704422" lon="9.978406944290505"><ele>259.0</ele><time>2026-04-19T09:32:23Z</time></trkpt><trkpt lat="44.603470316287776" lon="9.978675839501344"><ele>259.0</ele><time>2026-04-19T09:32:26Z</time></trkpt><trkpt lat="44.603421825576646" lon="9.978829408575459"><ele>259.0</ele><time>2026-04-19T09:32:27Z</time></trkpt><trkpt lat="44.60338462370751" lon="9.978987794911896"><ele>259.0</ele><time>2026-04-19T09:32:28Z</time></trkpt><trkpt lat="44.60334520265873" lon="9.979147937852247"><ele>259.0</ele><time>2026-04-19T09:32:28.999Z</time></trkpt><trkpt lat="44.603313301008725" lon="9.979285508573753"><ele>259.0</ele><time>2026-04-19T09:32:29.999Z</time></trkpt><trkpt lat="44.60326112156856" lon="9.979385638094387"><ele>259.0</ele><time>2026-04-19T09:32:30.999Z</time></trkpt><trkpt lat="44.603174169841836" lon="9.979452221166213"><ele>259.0</ele><time>2026-04-19T09:32:31.999Z</time></trkpt><trkpt lat="44.60305546274773" lon="9.979519431201116"><ele>258.8333333333333</ele><time>2026-04-19T09:32:32.999Z</time></trkpt><trkpt lat="44.60294037494004" lon="9.97957763652617"><ele>258.66666666666663</ele><time>2026-04-19T09:32:33.999Z</time></trkpt><trkpt lat="44.602857500889115" lon="9.97964736114792"><ele>258.5</ele><time>2026-04-19T09:32:34.999Z</time></trkpt><trkpt lat="44.60282778232576" lon="9.979738621975525"><ele>258.3333333333333</ele><time>2026-04-19T09:32:35.999Z</time></trkpt><trkpt lat="44.60284991105081" lon="9.979839181445113"><ele>258.1666666666667</ele><time>2026-04-19T09:32:36.999Z</time></trkpt><trkpt lat="44.60288584342508" lon="9.979913152253651"><ele>258.0</ele><time>2026-04-19T09:32:37.999Z</time></trkpt><trkpt lat="44.602984158571616" lon="9.979935372237412"><ele>255.0</ele><time>2026-04-19T09:32:38.999Z</time></trkpt><trkpt lat="44.603101363211174" lon="9.979880220395817"><ele>252.0</ele><time>2026-04-19T09:32:39.999Z</time></trkpt><trkpt lat="44.60321957512392" lon="9.97979229074089"><ele>249.0</ele><time>2026-04-19T09:32:40.999Z</time></trkpt><trkpt lat="44.603344876668096" lon="9.979720605082104"><ele>246.0</ele><time>2026-04-19T09:32:41.999Z</time></trkpt><trkpt lat="44.603442449782534" lon="9.979636461106104"><ele>246.0</ele><time>2026-04-19T09:32:42.999Z</time></trkpt><trkpt lat="44.60349425621977" lon="9.979550214490775"><ele>246.00000000000003</ele><time>2026-04-19T09:32:43.999Z</time></trkpt><trkpt lat="44.60354767463486" lon="9.97944492208687"><ele>246.00000000000003</ele><time>2026-04-19T09:32:44.999Z</time></trkpt><trkpt lat="44.60359400290476" lon="9.97928393523164"><ele>246.0</ele><time>2026-04-19T09:32:45.999Z</time></trkpt><trkpt lat="44.60364731395706" lon="9.979137198593914"><ele>246.0</ele><time>2026-04-19T09:32:46.999Z</time></trkpt><trkpt lat="44.60371003807465" lon="9.979029436607314"><ele>244.60000000000002</ele><time>2026-04-19T09:32:47.999Z</time></trkpt><trkpt lat="44.603779742144155" lon="9.978945035707886"><ele>243.20000000000002</ele><time>2026-04-19T09:32:48.999Z</time></trkpt><trkpt lat="44.60385846680103" lon="9.978879014443407"><ele>241.79999999999998</ele><time>2026-04-19T09:32:49.999Z</time></trkpt><trkpt lat="44.60394236571854" lon="9.97884851892312"><ele>240.39999999999998</ele><time>2026-04-19T09:32:50.999Z</time></trkpt><trkpt lat="44.60404261540806" lon="9.978819756357105"><ele>239.0</ele><time>2026-04-19T09:32:51.999Z</time></trkpt><trkpt lat="44.604151380474725" lon="9.978790809557475"><ele>239.0</ele><time>2026-04-19T09:32:52.999Z</time></trkpt><trkpt lat="44.60425827097998" lon="9.978758182726386"><ele>238.99999999999997</ele><time>2026-04-19T09:32:53.999Z</time></trkpt><trkpt lat="44.604341135575886" lon="9.978761719824552"><ele>238.99999999999997</ele><time>2026-04-19T09:32:54.999Z</time></trkpt><trkpt lat="44.604399495943035" lon="9.978833579702862"><ele>239.0</ele><time>2026-04-19T09:32:55.999Z</time></trkpt><trkpt lat="44.60446737795442" lon="9.978971535928975"><ele>239.0</ele><time>2026-04-19T09:32:56.999Z</time></trkpt><trkpt lat="44.60458238446177" lon="9.979143038250658"><ele>238.0</ele><time>2026-04-19T09:32:57.999Z</time></trkpt><trkpt lat="44.60469041654059" lon="9.97930925006658"><ele>237.0</ele><time>2026-04-19T09:32:58.999Z</time></trkpt><trkpt lat="44.60480608003329" lon="9.97947807582127"><ele>236.0</ele><time>2026-04-19T09:32:59.999Z</time></trkpt><trkpt lat="44.60493012606124" lon="9.97967015620564"><ele>236.0</ele><time>2026-04-19T09:33:00.999Z</time></trkpt><trkpt lat="44.605049078976194" lon="9.979864234439498"><ele>236.0</ele><time>2026-04-19T09:33:01.999Z</time></trkpt><trkpt lat="44.60516899352801" lon="9.980051195176976"><ele>236.0</ele><time>2026-04-19T09:33:02.999Z</time></trkpt><trkpt lat="44.605298735626754" lon="9.980244967741449"><ele>237.33333333333334</ele><time>2026-04-19T09:33:03.999Z</time></trkpt><trkpt lat="44.605407071956044" lon="9.980413310036957"><ele>238.66666666666669</ele><time>2026-04-19T09:33:04.999Z</time></trkpt><trkpt lat="44.60550970390784" lon="9.980578686392468"><ele>240.0</ele><time>2026-04-19T09:33:05.999Z</time></trkpt><trkpt lat="44.60561668874016" lon="9.980742443602898"><ele>244.0</ele><time>2026-04-19T09:33:06.999Z</time></trkpt><trkpt lat="44.60573878737719" lon="9.980915267518837"><ele>248.0</ele><time>2026-04-19T09:33:07.999Z</time></trkpt><trkpt lat="44.60586042347818" lon="9.98106985424435"><ele>252.0</ele><time>2026-04-19T09:33:08.999Z</time></trkpt><trkpt lat="44.60600293381706" lon="9.981217308073678"><ele>252.0</ele><time>2026-04-19T09:33:09.999Z</time></trkpt><trkpt lat="44.60615972217762" lon="9.981335334337363"><ele>252.0</ele><time>2026-04-19T09:33:10.999Z</time></trkpt><trkpt lat="44.606314110524174" lon="9.981436922757144"><ele>252.0</ele><time>2026-04-19T09:33:11.999Z</time></trkpt><trkpt lat="44.606450794776485" lon="9.98153788963195"><ele>249.75</ele><time>2026-04-19T09:33:12.999Z</time></trkpt><trkpt lat="44.6065800699686" lon="9.981628079659133"><ele>247.5</ele><time>2026-04-19T09:33:13.999Z</time></trkpt><trkpt lat="44.606704967557945" lon="9.981718241312183"><ele>245.25</ele><time>2026-04-19T09:33:14.999Z</time></trkpt><trkpt lat="44.60681396521266" lon="9.981869786309266"><ele>243.0</ele><time>2026-04-19T09:33:15.999Z</time></trkpt><trkpt lat="44.606949475072106" lon="9.982016821233126"><ele>245.0</ele><time>2026-04-19T09:33:16.999Z</time></trkpt><trkpt lat="44.60707659792569" lon="9.98219770748571"><ele>247.0</ele><time>2026-04-19T09:33:17.999Z</time></trkpt><trkpt lat="44.60719827135326" lon="9.982342054453769"><ele>249.0</ele><time>2026-04-19T09:33:18.999Z</time></trkpt><trkpt lat="44.60730307952612" lon="9.982423653240371"><ele>249.0</ele><time>2026-04-19T09:33:19.999Z</time></trkpt><trkpt lat="44.607400233439975" lon="9.982484306111585"><ele>249.0</ele><time>2026-04-19T09:33:20.999Z</time></trkpt><trkpt lat="44.607507173725594" lon="9.982557833458552"><ele>249.0</ele><time>2026-04-19T09:33:21.999Z</time></trkpt><trkpt lat="44.60762618577852" lon="9.982650372392195"><ele>249.0</ele><time>2026-04-19T09:33:22.999Z</time></trkpt><trkpt lat="44.60774991819293" lon="9.982749857170854"><ele>251.0</ele><time>2026-04-19T09:33:23.999Z</time></trkpt><trkpt lat="44.60787097841912" lon="9.9828447020906"><ele>253.0</ele><time>2026-04-19T09:33:24.999Z</time></trkpt><trkpt lat="44.60797226046115" lon="9.982965313638571"><ele>255.0</ele><time>2026-04-19T09:33:25.999Z</time></trkpt><trkpt lat="44.608069820695135" lon="9.983069272474424"><ele>257.0</ele><time>2026-04-19T09:33:27Z</time></trkpt><trkpt lat="44.60814271806893" lon="9.983160946952017"><ele>257.0</ele><time>2026-04-19T09:33:28Z</time></trkpt><trkpt lat="44.60822296150574" lon="9.983251392291965"><ele>257.0</ele><time>2026-04-19T09:33:29Z</time></trkpt><trkpt lat="44.608287408693606" lon="9.983376176950895"><ele>257.0</ele><time>2026-04-19T09:33:30Z</time></trkpt><trkpt lat="44.6083154548014" lon="9.98348927929897"><ele>257.0</ele><time>2026-04-19T09:33:31Z</time></trkpt><trkpt lat="44.608305667028375" lon="9.983587340755324"><ele>257.0</ele><time>2026-04-19T09:33:32Z</time></trkpt><trkpt lat="44.60824892311324" lon="9.983689703704147"><ele>259.8</ele><time>2026-04-19T09:33:33Z</time></trkpt><trkpt lat="44.608145197519754" lon="9.983752576702642"><ele>262.6</ele><time>2026-04-19T09:33:34Z</time></trkpt><trkpt lat="44.60806652763964" lon="9.98384741381474"><ele>265.40000000000003</ele><time>2026-04-19T09:33:35Z</time></trkpt><trkpt lat="44.60800439880531" lon="9.983888299334279"><ele>268.2</ele><time>2026-04-19T09:33:36Z</time></trkpt><trkpt lat="44.60801470033891" lon="9.984006196990753"><ele>271.0</ele><time>2026-04-19T09:33:38Z</time></trkpt><trkpt lat="44.60808097376436" lon="9.984089546995095"><ele>271.0</ele><time>2026-04-19T09:33:39Z</time></trkpt><trkpt lat="44.608179838430395" lon="9.984166532661055"><ele>271.0</ele><time>2026-04-19T09:33:40Z</time></trkpt><trkpt lat="44.608248287917355" lon="9.984237856754728"><ele>271.0</ele><time>2026-04-19T09:33:41Z</time></trkpt><trkpt lat="44.60823351444915" lon="9.984353614539351"><ele>271.0</ele><time>2026-04-19T09:33:42Z</time></trkpt><trkpt lat="44.60822879884728" lon="9.984508687754715"><ele>271.0</ele><time>2026-04-19T09:33:43Z</time></trkpt><trkpt lat="44.60822475469001" lon="9.98466666661231"><ele>273.40000000000003</ele><time>2026-04-19T09:33:44Z</time></trkpt><trkpt lat="44.608248165872496" lon="9.984788908701082"><ele>275.8</ele><time>2026-04-19T09:33:45Z</time></trkpt><trkpt lat="44.60832648822435" lon="9.98490087297152"><ele>278.20000000000005</ele><time>2026-04-19T09:33:46Z</time></trkpt><trkpt lat="44.608402165704796" lon="9.985036205889658"><ele>280.6</ele><time>2026-04-19T09:33:47Z</time></trkpt><trkpt lat="44.60845443683354" lon="9.985162229367733"><ele>283.0</ele><time>2026-04-19T09:33:48Z</time></trkpt><trkpt lat="44.608477109997004" lon="9.985257569614626"><ele>285.2</ele><time>2026-04-19T09:33:49Z</time></trkpt><trkpt lat="44.60844159186183" lon="9.985420021320216"><ele>287.4</ele><time>2026-04-19T09:33:51Z</time></trkpt><trkpt lat="44.60839021617123" lon="9.985539069728505"><ele>289.59999999999997</ele><time>2026-04-19T09:33:52Z</time></trkpt><trkpt lat="44.60838673922352" lon="9.985640768987354"><ele>291.8</ele><time>2026-04-19T09:33:53Z</time></trkpt><trkpt lat="44.60842266309431" lon="9.98577775446374"><ele>294.0</ele><time>2026-04-19T09:33:54Z</time></trkpt><trkpt lat="44.60845730570217" lon="9.98593210525866"><ele>295.4</ele><time>2026-04-19T09:33:55Z</time></trkpt><trkpt lat="44.60849386495554" lon="9.98605875371512"><ele>296.79999999999995</ele><time>2026-04-19T09:33:56Z</time></trkpt><trkpt lat="44.60856159948445" lon="9.986199657825047"><ele>298.20000000000005</ele><time>2026-04-19T09:33:57Z</time></trkpt><trkpt lat="44.60861280276434" lon="9.986333173869863"><ele>299.6</ele><time>2026-04-19T09:33:58Z</time></trkpt><trkpt lat="44.60865790587452" lon="9.986452055984595"><ele>301.0</ele><time>2026-04-19T09:33:59Z</time></trkpt><trkpt lat="44.608737344779826" lon="9.9865575667481"><ele>301.0</ele><time>2026-04-19T09:34:00Z</time></trkpt><trkpt lat="44.60881329114281" lon="9.986668614033128"><ele>301.0</ele><time>2026-04-19T09:34:01Z</time></trkpt><trkpt lat="44.60888747893553" lon="9.986742613488364"><ele>301.0</ele><time>2026-04-19T09:34:02Z</time></trkpt><trkpt lat="44.60892768763416" lon="9.98681261287702"><ele>301.0</ele><time>2026-04-19T09:34:03Z</time></trkpt><trkpt lat="44.60896798503325" lon="9.98689003786092"><ele>301.0</ele><time>2026-04-19T09:34:07Z</time></trkpt><trkpt lat="44.609053537362776" lon="9.98687772034235"><ele>301.0</ele><time>2026-04-19T09:34:09Z</time></trkpt><trkpt lat="44.6091677777847" lon="9.986843866120767"><ele>301.0</ele><time>2026-04-19T09:34:11Z</time></trkpt><trkpt lat="44.60926737338667" lon="9.986827148119213"><ele>301.0</ele><time>2026-04-19T09:34:12Z</time></trkpt><trkpt lat="44.60937065142986" lon="9.986753286722214"><ele>301.0</ele><time>2026-04-19T09:34:13Z</time></trkpt><trkpt lat="44.609474574401474" lon="9.986672184372425"><ele>301.0</ele><time>2026-04-19T09:34:14Z</time></trkpt><trkpt lat="44.60956739686991" lon="9.98659555872306"><ele>301.0</ele><time>2026-04-19T09:34:15Z</time></trkpt><trkpt lat="44.60966308454182" lon="9.986509823751874"><ele>300.0</ele><time>2026-04-19T09:34:16Z</time></trkpt><trkpt lat="44.60974462073058" lon="9.986397531301009"><ele>299.0</ele><time>2026-04-19T09:34:17Z</time></trkpt><trkpt lat="44.60981795083646" lon="9.986280909936113"><ele>298.0</ele><time>2026-04-19T09:34:18Z</time></trkpt><trkpt lat="44.60988547018466" lon="9.986172302053369"><ele>297.0</ele><time>2026-04-19T09:34:19Z</time></trkpt><trkpt lat="44.60995817496373" lon="9.986060474454487"><ele>296.0</ele><time>2026-04-19T09:34:20Z</time></trkpt><trkpt lat="44.6100416164579" lon="9.98595454211185"><ele>296.0</ele><time>2026-04-19T09:34:21Z</time></trkpt><trkpt lat="44.61013352775516" lon="9.985894726490129"><ele>296.0</ele><time>2026-04-19T09:34:22Z</time></trkpt><trkpt lat="44.610206951500786" lon="9.985849332901797"><ele>296.0</ele><time>2026-04-19T09:34:23Z</time></trkpt><trkpt lat="44.61028461543152" lon="9.986068022700858"><ele>296.0</ele><time>2026-04-19T09:34:25Z</time></trkpt><trkpt lat="44.61034537102269" lon="9.986235731257773"><ele>292.25</ele><time>2026-04-19T09:34:26Z</time></trkpt><trkpt lat="44.61040418529506" lon="9.986426210625835"><ele>288.5</ele><time>2026-04-19T09:34:27Z</time></trkpt><trkpt lat="44.610462848307485" lon="9.986600301627396"><ele>284.75</ele><time>2026-04-19T09:34:28Z</time></trkpt><trkpt lat="44.6105041237216" lon="9.986761991035705"><ele>281.0</ele><time>2026-04-19T09:34:29Z</time></trkpt><trkpt lat="44.61050834096541" lon="9.98693337281896"><ele>281.0</ele><time>2026-04-19T09:34:30Z</time></trkpt><trkpt lat="44.61049211206391" lon="9.987095618500895"><ele>281.0</ele><time>2026-04-19T09:34:31Z</time></trkpt><trkpt lat="44.610433428217156" lon="9.98723302955235"><ele>281.0</ele><time>2026-04-19T09:34:32Z</time></trkpt><trkpt lat="44.61035444431513" lon="9.987372673647004"><ele>281.0</ele><time>2026-04-19T09:34:33Z</time></trkpt><trkpt lat="44.61027396797783" lon="9.987509884579145"><ele>283.2</ele><time>2026-04-19T09:34:33.999Z</time></trkpt><trkpt lat="44.61020502793913" lon="9.987635540552182"><ele>285.40000000000003</ele><time>2026-04-19T09:34:34.999Z</time></trkpt><trkpt lat="44.61016909610374" lon="9.987733141788656"><ele>287.6</ele><time>2026-04-19T09:34:35.999Z</time></trkpt><trkpt lat="44.610184678395576" lon="9.98790008560378"><ele>289.8</ele><time>2026-04-19T09:34:37.999Z</time></trkpt><trkpt lat="44.61026142301436" lon="9.987960059963937"><ele>292.0</ele><time>2026-04-19T09:34:38.999Z</time></trkpt><trkpt lat="44.61037227486128" lon="9.987904875839758"><ele>292.0</ele><time>2026-04-19T09:34:39.999Z</time></trkpt><trkpt lat="44.61049941694043" lon="9.987859027816064"><ele>292.0</ele><time>2026-04-19T09:34:40.999Z</time></trkpt><trkpt lat="44.61062082128943" lon="9.987804773805173"><ele>292.0</ele><time>2026-04-19T09:34:41.999Z</time></trkpt><trkpt lat="44.61072147081122" lon="9.987683657705304"><ele>292.0</ele><time>2026-04-19T09:34:42.999Z</time></trkpt><trkpt lat="44.61082534602984" lon="9.987591018604693"><ele>292.0</ele><time>2026-04-19T09:34:43.999Z</time></trkpt><trkpt lat="44.610920650180574" lon="9.9875421703679"><ele>292.0</ele><time>2026-04-19T09:34:44.999Z</time></trkpt><trkpt lat="44.611042618571915" lon="9.987554500112964"><ele>292.0</ele><time>2026-04-19T09:34:45.999Z</time></trkpt><trkpt lat="44.611196218212896" lon="9.987558930962363"><ele>292.0</ele><time>2026-04-19T09:34:46.999Z</time></trkpt><trkpt lat="44.611338380605076" lon="9.987520458153469"><ele>286.5</ele><time>2026-04-19T09:34:47.999Z</time></trkpt><trkpt lat="44.61148232626035" lon="9.987497267558634"><ele>281.0</ele><time>2026-04-19T09:34:48.999Z</time></trkpt><trkpt lat="44.61162409985863" lon="9.987475070610657"><ele>275.5</ele><time>2026-04-19T09:34:49.999Z</time></trkpt><trkpt lat="44.611756189491174" lon="9.987449886806065"><ele>270.0</ele><time>2026-04-19T09:34:50.999Z</time></trkpt><trkpt lat="44.61188596300453" lon="9.98744886023257"><ele>268.0</ele><time>2026-04-19T09:34:51.999Z</time></trkpt><trkpt lat="44.61199645918531" lon="9.98741623753105"><ele>266.0</ele><time>2026-04-19T09:34:52.999Z</time></trkpt><trkpt lat="44.61209876325739" lon="9.987357746209913"><ele>264.0</ele><time>2026-04-19T09:34:53.999Z</time></trkpt><trkpt lat="44.61220018253678" lon="9.987317898593624"><ele>262.0</ele><time>2026-04-19T09:34:54.999Z</time></trkpt><trkpt lat="44.61229636167485" lon="9.987284241930936"><ele>260.0</ele><time>2026-04-19T09:34:55.999Z</time></trkpt><trkpt lat="44.61239330919598" lon="9.987249202622252"><ele>260.0</ele><time>2026-04-19T09:34:56.999Z</time></trkpt><trkpt lat="44.612497674187374" lon="9.987213135430157"><ele>260.0</ele><time>2026-04-19T09:34:57.999Z</time></trkpt><trkpt lat="44.612594887775955" lon="9.98723462973046"><ele>260.0</ele><time>2026-04-19T09:34:58.999Z</time></trkpt><trkpt lat="44.61267191902742" lon="9.987331452480737"><ele>260.0</ele><time>2026-04-19T09:34:59.999Z</time></trkpt><trkpt lat="44.612747704833005" lon="9.987495900199386"><ele>260.0</ele><time>2026-04-19T09:35:00.999Z</time></trkpt><trkpt lat="44.61280912187581" lon="9.987689654254389"><ele>258.6666666666667</ele><time>2026-04-19T09:35:01.999Z</time></trkpt><trkpt lat="44.61288576602156" lon="9.987870250916117"><ele>257.3333333333333</ele><time>2026-04-19T09:35:02.999Z</time></trkpt><trkpt lat="44.612991462054836" lon="9.988009254586343"><ele>256.0</ele><time>2026-04-19T09:35:03.999Z</time></trkpt><trkpt lat="44.613131625393805" lon="9.988134696898015"><ele>256.0</ele><time>2026-04-19T09:35:04.999Z</time></trkpt><trkpt lat="44.61326712405643" lon="9.988236035163654"><ele>256.0</ele><time>2026-04-19T09:35:05.999Z</time></trkpt><trkpt lat="44.61339036260615" lon="9.988326935824764"><ele>256.0</ele><time>2026-04-19T09:35:06.999Z</time></trkpt><trkpt lat="44.613492337628344" lon="9.988431107725406"><ele>256.0</ele><time>2026-04-19T09:35:07.999Z</time></trkpt><trkpt lat="44.613575522230086" lon="9.988588956571604"><ele>251.25</ele><time>2026-04-19T09:35:08.999Z</time></trkpt><trkpt lat="44.61367324177018" lon="9.988740069349918"><ele>246.5</ele><time>2026-04-19T09:35:09.999Z</time></trkpt><trkpt lat="44.61372164574629" lon="9.988917856116842"><ele>241.75</ele><time>2026-04-19T09:35:10.999Z</time></trkpt><trkpt lat="44.61376973723825" lon="9.989048780701856"><ele>237.0</ele><time>2026-04-19T09:35:11.999Z</time></trkpt><trkpt lat="44.613784836916444" lon="9.989151638777619"><ele>238.2</ele><time>2026-04-19T09:35:12.999Z</time></trkpt><trkpt lat="44.613789561853004" lon="9.98927120146375"><ele>239.39999999999998</ele><time>2026-04-19T09:35:14.999Z</time></trkpt><trkpt lat="44.613818467504636" lon="9.989371846716345"><ele>240.60000000000002</ele><time>2026-04-19T09:35:17.999Z</time></trkpt><trkpt lat="44.613894608029455" lon="9.98944360761699"><ele>241.8</ele><time>2026-04-19T09:35:21.999Z</time></trkpt><trkpt lat="44.613914047304334" lon="9.989552991266665"><ele>243.0</ele><time>2026-04-19T09:35:22.999Z</time></trkpt><trkpt lat="44.613925112044534" lon="9.989743829885434"><ele>243.0</ele><time>2026-04-19T09:35:23.999Z</time></trkpt><trkpt lat="44.6139629159498" lon="9.989975525807246"><ele>243.0</ele><time>2026-04-19T09:35:24.999Z</time></trkpt><trkpt lat="44.61401770354894" lon="9.990272867654037"><ele>243.0</ele><time>2026-04-19T09:35:25.999Z</time></trkpt><trkpt lat="44.61407442900013" lon="9.99049862766626"><ele>251.5</ele><time>2026-04-19T09:35:26.999Z</time></trkpt><trkpt lat="44.61412141252126" lon="9.990859630842886"><ele>260.0</ele><time>2026-04-19T09:35:27.999Z</time></trkpt><trkpt lat="44.61417591313235" lon="9.991238074915401"><ele>260.0</ele><time>2026-04-19T09:35:28.999Z</time></trkpt><trkpt lat="44.61422873485295" lon="9.991646523852063"><ele>260.0</ele><time>2026-04-19T09:35:29.999Z</time></trkpt><trkpt lat="44.61428951966941" lon="9.992041880396842"><ele>262.0</ele><time>2026-04-19T09:35:30.999Z</time></trkpt><trkpt lat="44.61436223268283" lon="9.992432636471744"><ele>264.0</ele><time>2026-04-19T09:35:31.999Z</time></trkpt><trkpt lat="44.61442135895878" lon="9.992758309233102"><ele>264.3333333333333</ele><time>2026-04-19T09:35:33Z</time></trkpt><trkpt lat="44.6144883355108" lon="9.993050911279596"><ele>264.66666666666663</ele><time>2026-04-19T09:35:34Z</time></trkpt><trkpt lat="44.614529582906606" lon="9.99330531693"><ele>265.0</ele><time>2026-04-19T09:35:35Z</time></trkpt><trkpt lat="44.6145677478697" lon="9.993537630495457"><ele>265.0</ele><time>2026-04-19T09:35:36Z</time></trkpt><trkpt lat="44.61461554541832" lon="9.993779867336192"><ele>265.0</ele><time>2026-04-19T09:35:37Z</time></trkpt><trkpt lat="44.61469397961382" lon="9.994032541510792"><ele>265.0</ele><time>2026-04-19T09:35:38Z</time></trkpt><trkpt lat="44.614809297466806" lon="9.9943139552039"><ele>272.5</ele><time>2026-04-19T09:35:39Z</time></trkpt><trkpt lat="44.614926392798054" lon="9.994600936079166"><ele>280.0</ele><time>2026-04-19T09:35:40Z</time></trkpt><trkpt lat="44.61503903789829" lon="9.994882418102987"><ele>283.0</ele><time>2026-04-19T09:35:41Z</time></trkpt><trkpt lat="44.61514771526553" lon="9.995168963400797"><ele>286.0</ele><time>2026-04-19T09:35:42Z</time></trkpt><trkpt lat="44.615232817844" lon="9.995447961401668"><ele>289.0</ele><time>2026-04-19T09:35:43Z</time></trkpt><trkpt lat="44.61531525051425" lon="9.995726105710352"><ele>281.5</ele><time>2026-04-19T09:35:44Z</time></trkpt><trkpt lat="44.61538420980546" lon="9.996038050011382"><ele>274.0</ele><time>2026-04-19T09:35:45Z</time></trkpt><trkpt lat="44.6155019801661" lon="9.996327035737865"><ele>274.0</ele><time>2026-04-19T09:35:46Z</time></trkpt><trkpt lat="44.61562473311444" lon="9.996593130033087"><ele>274.0</ele><time>2026-04-19T09:35:47Z</time></trkpt><trkpt lat="44.615734125630084" lon="9.996858694320863"><ele>274.0</ele><time>2026-04-19T09:35:48Z</time></trkpt><trkpt lat="44.61580003246004" lon="9.997142695159239"><ele>277.0</ele><time>2026-04-19T09:35:49Z</time></trkpt><trkpt lat="44.615891649682624" lon="9.997404401491401"><ele>280.0</ele><time>2026-04-19T09:35:50Z</time></trkpt><trkpt lat="44.61598292275258" lon="9.997650506130341"><ele>283.0</ele><time>2026-04-19T09:35:51Z</time></trkpt><trkpt lat="44.61611463147078" lon="9.99786876717688"><ele>283.5</ele><time>2026-04-19T09:35:52Z</time></trkpt><trkpt lat="44.61629585962784" lon="9.998064785779274"><ele>284.0</ele><time>2026-04-19T09:35:53Z</time></trkpt><trkpt lat="44.61650329645628" lon="9.99821779202823"><ele>284.0</ele><time>2026-04-19T09:35:54Z</time></trkpt><trkpt lat="44.61673406591433" lon="9.99830307800152"><ele>284.0</ele><time>2026-04-19T09:35:55Z</time></trkpt><trkpt lat="44.61695728471023" lon="9.998345539467081"><ele>288.33333333333337</ele><time>2026-04-19T09:35:56Z</time></trkpt><trkpt lat="44.61715197323655" lon="9.998447587099292"><ele>292.6666666666667</ele><time>2026-04-19T09:35:57Z</time></trkpt><trkpt lat="44.6173425271492" lon="9.998583966855335"><ele>297.0</ele><time>2026-04-19T09:35:58Z</time></trkpt><trkpt lat="44.61753120070951" lon="9.99873773621427"><ele>297.0</ele><time>2026-04-19T09:35:59Z</time></trkpt><trkpt lat="44.61771442934367" lon="9.998899163749519"><ele>297.0</ele><time>2026-04-19T09:36:00Z</time></trkpt><trkpt lat="44.6178705862352" lon="9.999067841077883"><ele>297.0</ele><time>2026-04-19T09:36:01Z</time></trkpt><trkpt lat="44.618010577448715" lon="9.999274556164963"><ele>293.6666666666667</ele><time>2026-04-19T09:36:02Z</time></trkpt><trkpt lat="44.6181654743594" lon="9.999482451484141"><ele>290.33333333333337</ele><time>2026-04-19T09:36:03Z</time></trkpt><trkpt lat="44.6183224141713" lon="9.999659598181422"><ele>287.0</ele><time>2026-04-19T09:36:04Z</time></trkpt><trkpt lat="44.61853446820235" lon="9.999753572462671"><ele>279.6666666666667</ele><time>2026-04-19T09:36:05Z</time></trkpt><trkpt lat="44.61874225621716" lon="9.99979181050766"><ele>272.3333333333333</ele><time>2026-04-19T09:36:06Z</time></trkpt><trkpt lat="44.61892978064592" lon="9.999903996791664"><ele>265.0</ele><time>2026-04-19T09:36:07Z</time></trkpt><trkpt lat="44.61909644306383" lon="10.00004940115416"><ele>265.0</ele><time>2026-04-19T09:36:08Z</time></trkpt><trkpt lat="44.61925382898895" lon="10.00025734205933"><ele>265.0</ele><time>2026-04-19T09:36:09Z</time></trkpt><trkpt lat="44.61941616345486" lon="10.000490797716092"><ele>265.0</ele><time>2026-04-19T09:36:10Z</time></trkpt><trkpt lat="44.61954904546991" lon="10.000730687711796"><ele>260.0</ele><time>2026-04-19T09:36:11Z</time></trkpt><trkpt lat="44.61963882297036" lon="10.000964046202407"><ele>255.0</ele><time>2026-04-19T09:36:12Z</time></trkpt><trkpt lat="44.61969178720937" lon="10.001153937326702"><ele>250.0</ele><time>2026-04-19T09:36:13Z</time></trkpt><trkpt lat="44.61978806559859" lon="10.001305076964213"><ele>250.0</ele><time>2026-04-19T09:36:14Z</time></trkpt><trkpt lat="44.61993737429043" lon="10.001409108052961"><ele>250.0</ele><time>2026-04-19T09:36:15Z</time></trkpt><trkpt lat="44.620140685819536" lon="10.001504413620447"><ele>250.0</ele><time>2026-04-19T09:36:16Z</time></trkpt><trkpt lat="44.6203480180291" lon="10.0016382820806"><ele>251.66666666666666</ele><time>2026-04-19T09:36:17Z</time></trkpt><trkpt lat="44.62053885051493" lon="10.001751075141883"><ele>253.33333333333331</ele><time>2026-04-19T09:36:18Z</time></trkpt><trkpt lat="44.62071163192036" lon="10.001854188456264"><ele>255.0</ele><time>2026-04-19T09:36:19Z</time></trkpt><trkpt lat="44.6208870251031" lon="10.001862817711118"><ele>255.0</ele><time>2026-04-19T09:36:20Z</time></trkpt><trkpt lat="44.62103051401163" lon="10.001942477959215"><ele>255.0</ele><time>2026-04-19T09:36:21Z</time></trkpt><trkpt lat="44.62113273418704" lon="10.002082216088157"><ele>255.0</ele><time>2026-04-19T09:36:22Z</time></trkpt><trkpt lat="44.62122488148409" lon="10.002285375723357"><ele>254.66666666666669</ele><time>2026-04-19T09:36:23Z</time></trkpt><trkpt lat="44.62134915540735" lon="10.002494197090948"><ele>254.33333333333334</ele><time>2026-04-19T09:36:24Z</time></trkpt><trkpt lat="44.62150157454131" lon="10.002676260240989"><ele>254.0</ele><time>2026-04-19T09:36:25Z</time></trkpt><trkpt lat="44.62170201621857" lon="10.002831329630617"><ele>254.0</ele><time>2026-04-19T09:36:26Z</time></trkpt><trkpt lat="44.621885723613396" lon="10.002949282410112"><ele>254.0</ele><time>2026-04-19T09:36:27Z</time></trkpt><trkpt lat="44.62201902817469" lon="10.003071748876142"><ele>254.0</ele><time>2026-04-19T09:36:28Z</time></trkpt><trkpt lat="44.62213796455193" lon="10.003138859129322"><ele>253.0</ele><time>2026-04-19T09:36:29Z</time></trkpt><trkpt lat="44.62223135341747" lon="10.003256277603034"><ele>252.0</ele><time>2026-04-19T09:36:30Z</time></trkpt><trkpt lat="44.62228095934761" lon="10.003433265365773"><ele>251.0</ele><time>2026-04-19T09:36:31Z</time></trkpt><trkpt lat="44.62230058026177" lon="10.003687120056274"><ele>250.0</ele><time>2026-04-19T09:36:32Z</time></trkpt><trkpt lat="44.62234582388792" lon="10.003967532912023"><ele>250.33333333333331</ele><time>2026-04-19T09:36:33Z</time></trkpt><trkpt lat="44.62244773509912" lon="10.004239038024012"><ele>250.66666666666669</ele><time>2026-04-19T09:36:34Z</time></trkpt><trkpt lat="44.62256721627787" lon="10.00449369388721"><ele>251.0</ele><time>2026-04-19T09:36:35Z</time></trkpt><trkpt lat="44.62268323929104" lon="10.004752531949222"><ele>251.0</ele><time>2026-04-19T09:36:36Z</time></trkpt><trkpt lat="44.62278763582209" lon="10.004995458362535"><ele>251.0</ele><time>2026-04-19T09:36:37Z</time></trkpt><trkpt lat="44.62289080899187" lon="10.005230119542034"><ele>251.0</ele><time>2026-04-19T09:36:38Z</time></trkpt><trkpt lat="44.62299129846706" lon="10.005457365557252"><ele>247.0</ele><time>2026-04-19T09:36:39Z</time></trkpt><trkpt lat="44.62309266466666" lon="10.005676196910155"><ele>243.0</ele><time>2026-04-19T09:36:40Z</time></trkpt><trkpt lat="44.623195325862454" lon="10.005898048076986"><ele>239.0</ele><time>2026-04-19T09:36:41Z</time></trkpt><trkpt lat="44.62328899703933" lon="10.006118821053846"><ele>239.0</ele><time>2026-04-19T09:36:41.999Z</time></trkpt><trkpt lat="44.62338787133799" lon="10.00635152583142"><ele>239.0</ele><time>2026-04-19T09:36:42.999Z</time></trkpt><trkpt lat="44.623498243868504" lon="10.006577176512735"><ele>239.0</ele><time>2026-04-19T09:36:43.999Z</time></trkpt><trkpt lat="44.623629150797996" lon="10.006769002661574"><ele>236.66666666666669</ele><time>2026-04-19T09:36:44.999Z</time></trkpt><trkpt lat="44.62379093874626" lon="10.00694053982886"><ele>234.33333333333331</ele><time>2026-04-19T09:36:45.999Z</time></trkpt><trkpt lat="44.62396609493294" lon="10.00710334455145"><ele>232.0</ele><time>2026-04-19T09:36:46.999Z</time></trkpt><trkpt lat="44.62414549367071" lon="10.007266504312339"><ele>232.0</ele><time>2026-04-19T09:36:47.999Z</time></trkpt><trkpt lat="44.62432762311091" lon="10.007440305204003"><ele>232.0</ele><time>2026-04-19T09:36:48.999Z</time></trkpt><trkpt lat="44.62450393323708" lon="10.007617629243871"><ele>232.0</ele><time>2026-04-19T09:36:49.999Z</time></trkpt><trkpt lat="44.624678012934865" lon="10.007789870889"><ele>231.33333333333331</ele><time>2026-04-19T09:36:50.999Z</time></trkpt><trkpt lat="44.62485862649167" lon="10.007966528567042"><ele>230.66666666666669</ele><time>2026-04-19T09:36:51.999Z</time></trkpt><trkpt lat="44.62503299310608" lon="10.008139595840165"><ele>230.0</ele><time>2026-04-19T09:36:52.999Z</time></trkpt><trkpt lat="44.62520893899319" lon="10.008310035671231"><ele>227.66666666666669</ele><time>2026-04-19T09:36:53.999Z</time></trkpt><trkpt lat="44.62538333098095" lon="10.008484043465593"><ele>225.33333333333331</ele><time>2026-04-19T09:36:54.999Z</time></trkpt><trkpt lat="44.62554859848526" lon="10.00865092348918"><ele>223.0</ele><time>2026-04-19T09:36:55.999Z</time></trkpt><trkpt lat="44.62571569092091" lon="10.008811732120117"><ele>223.0</ele><time>2026-04-19T09:36:56.999Z</time></trkpt><trkpt lat="44.625888423178196" lon="10.00898746482162"><ele>223.0</ele><time>2026-04-19T09:36:57.999Z</time></trkpt><trkpt lat="44.62604600394039" lon="10.009182224129898"><ele>223.0</ele><time>2026-04-19T09:36:58.999Z</time></trkpt><trkpt lat="44.62618041262573" lon="10.009410126174197"><ele>221.66666666666666</ele><time>2026-04-19T09:36:59.999Z</time></trkpt><trkpt lat="44.62630888069681" lon="10.009653089986289"><ele>220.33333333333331</ele><time>2026-04-19T09:37:00.999Z</time></trkpt><trkpt lat="44.62643937462083" lon="10.009889715096076"><ele>219.0</ele><time>2026-04-19T09:37:01.999Z</time></trkpt><trkpt lat="44.626569622624146" lon="10.01013642596952"><ele>219.0</ele><time>2026-04-19T09:37:02.999Z</time></trkpt><trkpt lat="44.62668688570804" lon="10.010382797621855"><ele>219.0</ele><time>2026-04-19T09:37:03.999Z</time></trkpt><trkpt lat="44.62680843569097" lon="10.010630872931523"><ele>219.0</ele><time>2026-04-19T09:37:04.999Z</time></trkpt><trkpt lat="44.62693443832679" lon="10.010880899626606"><ele>218.0</ele><time>2026-04-19T09:37:05.999Z</time></trkpt><trkpt lat="44.62706168375521" lon="10.011122433117647"><ele>217.0</ele><time>2026-04-19T09:37:06.999Z</time></trkpt><trkpt lat="44.62719786055594" lon="10.011355164711212"><ele>216.0</ele><time>2026-04-19T09:37:07.999Z</time></trkpt><trkpt lat="44.62735025274471" lon="10.01157552747957"><ele>218.66666666666669</ele><time>2026-04-19T09:37:08.999Z</time></trkpt><trkpt lat="44.62750707163482" lon="10.011796728071078"><ele>221.33333333333334</ele><time>2026-04-19T09:37:09.999Z</time></trkpt><trkpt lat="44.627654604173806" lon="10.012011332471836"><ele>224.0</ele><time>2026-04-19T09:37:10.999Z</time></trkpt><trkpt lat="44.62779639414563" lon="10.012228618166086"><ele>222.33333333333334</ele><time>2026-04-19T09:37:11.999Z</time></trkpt><trkpt lat="44.6279339228871" lon="10.012443517725972"><ele>220.66666666666669</ele><time>2026-04-19T09:37:12.999Z</time></trkpt><trkpt lat="44.628073735034384" lon="10.012652779240629"><ele>219.0</ele><time>2026-04-19T09:37:13.999Z</time></trkpt><trkpt lat="44.62821623484801" lon="10.012850902787267"><ele>219.0</ele><time>2026-04-19T09:37:14.999Z</time></trkpt><trkpt lat="44.62835689198081" lon="10.013013242325068"><ele>219.0</ele><time>2026-04-19T09:37:15.999Z</time></trkpt><trkpt lat="44.62853599231181" lon="10.013138035009893"><ele>219.0</ele><time>2026-04-19T09:37:16.999Z</time></trkpt><trkpt lat="44.62873510388342" lon="10.013202201359173"><ele>218.25</ele><time>2026-04-19T09:37:17.999Z</time></trkpt><trkpt lat="44.628886311060675" lon="10.013262042265438"><ele>217.5</ele><time>2026-04-19T09:37:18.999Z</time></trkpt><trkpt lat="44.62900153433541" lon="10.013351691791792"><ele>216.75</ele><time>2026-04-19T09:37:19.999Z</time></trkpt><trkpt lat="44.62908327981454" lon="10.013496793389823"><ele>216.0</ele><time>2026-04-19T09:37:20.999Z</time></trkpt><trkpt lat="44.62910277370421" lon="10.013720305590509"><ele>216.0</ele><time>2026-04-19T09:37:21.999Z</time></trkpt><trkpt lat="44.62907400170094" lon="10.013982810233406"><ele>216.0</ele><time>2026-04-19T09:37:22.999Z</time></trkpt><trkpt lat="44.62902430769629" lon="10.0142669735984"><ele>216.0</ele><time>2026-04-19T09:37:23.999Z</time></trkpt><trkpt lat="44.628988368809885" lon="10.014569994872069"><ele>215.0</ele><time>2026-04-19T09:37:24.999Z</time></trkpt><trkpt lat="44.62896288181769" lon="10.014870587989586"><ele>214.0</ele><time>2026-04-19T09:37:25.999Z</time></trkpt><trkpt lat="44.62893793994637" lon="10.015181005972304"><ele>213.0</ele><time>2026-04-19T09:37:26.999Z</time></trkpt><trkpt lat="44.62891166301715" lon="10.015475305451362"><ele>213.0</ele><time>2026-04-19T09:37:27.999Z</time></trkpt><trkpt lat="44.62888271299379" lon="10.015767527508144"><ele>213.0</ele><time>2026-04-19T09:37:28.999Z</time></trkpt><trkpt lat="44.62885480228077" lon="10.016100320572582"><ele>213.0</ele><time>2026-04-19T09:37:29.999Z</time></trkpt><trkpt lat="44.628811360387154" lon="10.01646461275456"><ele>211.0</ele><time>2026-04-19T09:37:30.999Z</time></trkpt><trkpt lat="44.62877348745445" lon="10.016855455519996"><ele>209.0</ele><time>2026-04-19T09:37:31.999Z</time></trkpt><trkpt lat="44.62873304214296" lon="10.017273148593144"><ele>208.5</ele><time>2026-04-19T09:37:32.999Z</time></trkpt><trkpt lat="44.62870097224569" lon="10.017690428365226"><ele>208.0</ele><time>2026-04-19T09:37:33.999Z</time></trkpt><trkpt lat="44.62866760076465" lon="10.017982174105608"><ele>220.5</ele><time>2026-04-19T09:37:34.999Z</time></trkpt><trkpt lat="44.628634017836845" lon="10.018325028028842"><ele>233.0</ele><time>2026-04-19T09:37:35.999Z</time></trkpt><trkpt lat="44.62861670819441" lon="10.018678203041501"><ele>233.0</ele><time>2026-04-19T09:37:36.999Z</time></trkpt><trkpt lat="44.628624788992305" lon="10.019041577834589"><ele>233.0</ele><time>2026-04-19T09:37:37.999Z</time></trkpt><trkpt lat="44.62866566482447" lon="10.019413245692892"><ele>218.0</ele><time>2026-04-19T09:37:39Z</time></trkpt><trkpt lat="44.62873839951155" lon="10.019789868028134"><ele>203.0</ele><time>2026-04-19T09:37:40Z</time></trkpt><trkpt lat="44.62881424130953" lon="10.02012038284368"><ele>202.66666666666669</ele><time>2026-04-19T09:37:41Z</time></trkpt><trkpt lat="44.62887413575037" lon="10.020416607807196"><ele>202.33333333333331</ele><time>2026-04-19T09:37:42Z</time></trkpt><trkpt lat="44.628927389058944" lon="10.020688597717959"><ele>202.0</ele><time>2026-04-19T09:37:43Z</time></trkpt><trkpt lat="44.628994713746664" lon="10.020928630317979"><ele>203.33333333333331</ele><time>2026-04-19T09:37:44Z</time></trkpt><trkpt lat="44.62908443966606" lon="10.021134099913695"><ele>204.66666666666669</ele><time>2026-04-19T09:37:45Z</time></trkpt><trkpt lat="44.62918301630149" lon="10.021310212178872"><ele>206.0</ele><time>2026-04-19T09:37:46Z</time></trkpt><trkpt lat="44.62926601694366" lon="10.021493333979253"><ele>203.5</ele><time>2026-04-19T09:37:47Z</time></trkpt><trkpt lat="44.62933000419585" lon="10.021660011745393"><ele>201.0</ele><time>2026-04-19T09:37:48Z</time></trkpt><trkpt lat="44.629393242905074" lon="10.021863829457264"><ele>198.5</ele><time>2026-04-19T09:37:49Z</time></trkpt><trkpt lat="44.62945302260512" lon="10.02206688628733"><ele>196.0</ele><time>2026-04-19T09:37:50Z</time></trkpt><trkpt lat="44.62950677029751" lon="10.022256683150088"><ele>196.0</ele><time>2026-04-19T09:37:51Z</time></trkpt><trkpt lat="44.62955642133367" lon="10.022442852255004"><ele>196.0</ele><time>2026-04-19T09:37:52Z</time></trkpt><trkpt lat="44.629612672243645" lon="10.022638281628188"><ele>196.0</ele><time>2026-04-19T09:37:53Z</time></trkpt><trkpt lat="44.629733887437816" lon="10.022793005176354"><ele>198.25</ele><time>2026-04-19T09:37:54Z</time></trkpt><trkpt lat="44.62982558912777" lon="10.022949945385383"><ele>200.5</ele><time>2026-04-19T09:37:55Z</time></trkpt><trkpt lat="44.62992314485218" lon="10.02306683825326"><ele>202.75</ele><time>2026-04-19T09:37:56Z</time></trkpt><trkpt lat="44.62997396771168" lon="10.02321400172088"><ele>205.0</ele><time>2026-04-19T09:37:57Z</time></trkpt><trkpt lat="44.629997950087564" lon="10.02338877702368"><ele>203.5</ele><time>2026-04-19T09:37:58Z</time></trkpt><trkpt lat="44.63004387960916" lon="10.023546566013097"><ele>202.0</ele><time>2026-04-19T09:37:59Z</time></trkpt><trkpt lat="44.63013212111163" lon="10.023699218373213"><ele>200.5</ele><time>2026-04-19T09:38:00Z</time></trkpt><trkpt lat="44.630254733624355" lon="10.023834980253076"><ele>199.0</ele><time>2026-04-19T09:38:01Z</time></trkpt><trkpt lat="44.630400102459966" lon="10.023978803520102"><ele>203.5</ele><time>2026-04-19T09:38:02Z</time></trkpt><trkpt lat="44.6305624484439" lon="10.02420186170511"><ele>208.0</ele><time>2026-04-19T09:38:03Z</time></trkpt><trkpt lat="44.63077255520473" lon="10.024468411511751"><ele>208.0</ele><time>2026-04-19T09:38:04Z</time></trkpt><trkpt lat="44.63094560492157" lon="10.02472914547955"><ele>208.0</ele><time>2026-04-19T09:38:05Z</time></trkpt><trkpt lat="44.631145856156394" lon="10.025026087882186"><ele>204.5</ele><time>2026-04-19T09:38:06Z</time></trkpt><trkpt lat="44.63133841874255" lon="10.025333420767982"><ele>201.0</ele><time>2026-04-19T09:38:07Z</time></trkpt><trkpt lat="44.63152584108237" lon="10.02569472685191"><ele>205.0</ele><time>2026-04-19T09:38:08Z</time></trkpt><trkpt lat="44.63171621890346" lon="10.026052588803442"><ele>209.0</ele><time>2026-04-19T09:38:09Z</time></trkpt><trkpt lat="44.63189935768203" lon="10.02640234870924"><ele>204.5</ele><time>2026-04-19T09:38:10Z</time></trkpt><trkpt lat="44.632096153107646" lon="10.026774394547475"><ele>200.0</ele><time>2026-04-19T09:38:11Z</time></trkpt><trkpt lat="44.6323081033346" lon="10.02716781073047"><ele>203.0</ele><time>2026-04-19T09:38:12Z</time></trkpt><trkpt lat="44.632512295154136" lon="10.027532682176355"><ele>206.0</ele><time>2026-04-19T09:38:13Z</time></trkpt><trkpt lat="44.6326987751256" lon="10.027859763606498"><ele>202.0</ele><time>2026-04-19T09:38:14Z</time></trkpt><trkpt lat="44.6328756313991" lon="10.02818930689025"><ele>198.0</ele><time>2026-04-19T09:38:15Z</time></trkpt><trkpt lat="44.63304050753339" lon="10.028490586038085"><ele>198.0</ele><time>2026-04-19T09:38:16Z</time></trkpt><trkpt lat="44.633198201864644" lon="10.02880579136223"><ele>198.0</ele><time>2026-04-19T09:38:17Z</time></trkpt><trkpt lat="44.633331358887915" lon="10.029144600753531"><ele>202.5</ele><time>2026-04-19T09:38:18Z</time></trkpt><trkpt lat="44.63347860267447" lon="10.029463788478214"><ele>207.0</ele><time>2026-04-19T09:38:19Z</time></trkpt><trkpt lat="44.63361178842213" lon="10.029771149477101"><ele>202.0</ele><time>2026-04-19T09:38:20Z</time></trkpt><trkpt lat="44.633743939240766" lon="10.030055601264088"><ele>197.0</ele><time>2026-04-19T09:38:21Z</time></trkpt><trkpt lat="44.63386193874646" lon="10.030346840152086"><ele>197.0</ele><time>2026-04-19T09:38:22Z</time></trkpt><trkpt lat="44.63396785050254" lon="10.03067076409449"><ele>197.0</ele><time>2026-04-19T09:38:23Z</time></trkpt><trkpt lat="44.63405985552172" lon="10.031011827842562"><ele>200.0</ele><time>2026-04-19T09:38:24Z</time></trkpt><trkpt lat="44.634151142843926" lon="10.03137053312205"><ele>203.0</ele><time>2026-04-19T09:38:25Z</time></trkpt><trkpt lat="44.6342350815118" lon="10.031701893486044"><ele>205.0</ele><time>2026-04-19T09:38:26Z</time></trkpt><trkpt lat="44.634307217716454" lon="10.032014160197697"><ele>207.0</ele><time>2026-04-19T09:38:27Z</time></trkpt><trkpt lat="44.634378627568786" lon="10.032302920597306"><ele>209.66666666666669</ele><time>2026-04-19T09:38:28Z</time></trkpt><trkpt lat="44.63446105334203" lon="10.032567660048798"><ele>212.33333333333334</ele><time>2026-04-19T09:38:29Z</time></trkpt><trkpt lat="44.63453408366304" lon="10.03281417234548"><ele>215.0</ele><time>2026-04-19T09:38:30Z</time></trkpt><trkpt lat="44.63462473683568" lon="10.033059896880367"><ele>210.33333333333334</ele><time>2026-04-19T09:38:31Z</time></trkpt><trkpt lat="44.634732402562825" lon="10.033270762022612"><ele>205.66666666666669</ele><time>2026-04-19T09:38:32Z</time></trkpt><trkpt lat="44.63479642687665" lon="10.03349070001774"><ele>201.0</ele><time>2026-04-19T09:38:33Z</time></trkpt><trkpt lat="44.63493955504321" lon="10.033641727108872"><ele>201.0</ele><time>2026-04-19T09:38:34Z</time></trkpt><trkpt lat="44.635039336133524" lon="10.033826658777045"><ele>201.0</ele><time>2026-04-19T09:38:35Z</time></trkpt><trkpt lat="44.63512966491583" lon="10.034010265154867"><ele>201.0</ele><time>2026-04-19T09:38:36Z</time></trkpt><trkpt lat="44.6352173165994" lon="10.034184724503486"><ele>200.0</ele><time>2026-04-19T09:38:37Z</time></trkpt><trkpt lat="44.6353089511962" lon="10.034347475656496"><ele>199.0</ele><time>2026-04-19T09:38:38Z</time></trkpt><trkpt lat="44.6354056941576" lon="10.034504651673808"><ele>198.0</ele><time>2026-04-19T09:38:39Z</time></trkpt><trkpt lat="44.63549948918505" lon="10.034637059103915"><ele>197.0</ele><time>2026-04-19T09:38:40Z</time></trkpt><trkpt lat="44.635596081045634" lon="10.034750832582382"><ele>197.0</ele><time>2026-04-19T09:38:41Z</time></trkpt><trkpt lat="44.635716534895295" lon="10.034862071750078"><ele>197.0</ele><time>2026-04-19T09:38:42Z</time></trkpt><trkpt lat="44.635850077651256" lon="10.034959455399864"><ele>197.0</ele><time>2026-04-19T09:38:43Z</time></trkpt><trkpt lat="44.63599759111924" lon="10.035041835220065"><ele>196.66666666666669</ele><time>2026-04-19T09:38:44Z</time></trkpt><trkpt lat="44.63614822464297" lon="10.035141685969387"><ele>196.33333333333331</ele><time>2026-04-19T09:38:45Z</time></trkpt><trkpt lat="44.63629840772252" lon="10.035253895539848"><ele>196.0</ele><time>2026-04-19T09:38:45.999Z</time></trkpt><trkpt lat="44.636449285099395" lon="10.03536263773236"><ele>196.0</ele><time>2026-04-19T09:38:46.999Z</time></trkpt><trkpt lat="44.63659726554568" lon="10.035464549202452"><ele>196.0</ele><time>2026-04-19T09:38:47.999Z</time></trkpt><trkpt lat="44.63673163042028" lon="10.035590941920901"><ele>196.0</ele><time>2026-04-19T09:38:48.999Z</time></trkpt><trkpt lat="44.636861585681615" lon="10.035756019423692"><ele>194.66666666666666</ele><time>2026-04-19T09:38:49.999Z</time></trkpt><trkpt lat="44.636991519401256" lon="10.035965931013411"><ele>193.33333333333331</ele><time>2026-04-19T09:38:50.999Z</time></trkpt><trkpt lat="44.6371313442468" lon="10.036216422917681"><ele>192.0</ele><time>2026-04-19T09:38:51.999Z</time></trkpt><trkpt lat="44.63728307869094" lon="10.036487135812056"><ele>195.0</ele><time>2026-04-19T09:38:52.999Z</time></trkpt><trkpt lat="44.63744822928587" lon="10.036786063631524"><ele>198.0</ele><time>2026-04-19T09:38:53.999Z</time></trkpt><trkpt lat="44.63762818515484" lon="10.037102313060446"><ele>195.5</ele><time>2026-04-19T09:38:54.999Z</time></trkpt><trkpt lat="44.63782438719303" lon="10.037429934274886"><ele>193.0</ele><time>2026-04-19T09:38:55.999Z</time></trkpt><trkpt lat="44.638036651482814" lon="10.037786600628202"><ele>193.0</ele><time>2026-04-19T09:38:56.999Z</time></trkpt><trkpt lat="44.63826444368654" lon="10.038159295952326"><ele>193.0</ele><time>2026-04-19T09:38:57.999Z</time></trkpt><trkpt lat="44.63847904358146" lon="10.038530480017442"><ele>191.5</ele><time>2026-04-19T09:38:58.999Z</time></trkpt><trkpt lat="44.638649942974816" lon="10.03883948561631"><ele>190.0</ele><time>2026-04-19T09:38:59.999Z</time></trkpt><trkpt lat="44.63879782848283" lon="10.03912325300693"><ele>192.5</ele><time>2026-04-19T09:39:00.999Z</time></trkpt><trkpt lat="44.63896768759286" lon="10.039427506572885"><ele>195.0</ele><time>2026-04-19T09:39:01.999Z</time></trkpt><trkpt lat="44.63922791752475" lon="10.03983164109645"><ele>197.0</ele><time>2026-04-19T09:39:02.999Z</time></trkpt><trkpt lat="44.63942912795861" lon="10.040164954344563"><ele>199.0</ele><time>2026-04-19T09:39:03.999Z</time></trkpt><trkpt lat="44.639634075050246" lon="10.04049553758103"><ele>195.5</ele><time>2026-04-19T09:39:04.999Z</time></trkpt><trkpt lat="44.63983897233041" lon="10.04083204504353"><ele>192.0</ele><time>2026-04-19T09:39:05.999Z</time></trkpt><trkpt lat="44.64001615227952" lon="10.04116014275352"><ele>192.0</ele><time>2026-04-19T09:39:06.999Z</time></trkpt><trkpt lat="44.64025298732783" lon="10.041613573507762"><ele>192.0</ele><time>2026-04-19T09:39:07.999Z</time></trkpt><trkpt lat="44.64045714099569" lon="10.042003411873724"><ele>192.0</ele><time>2026-04-19T09:39:08.999Z</time></trkpt><trkpt lat="44.64065997073984" lon="10.04235757440367"><ele>192.0</ele><time>2026-04-19T09:39:09.999Z</time></trkpt><trkpt lat="44.64090658797955" lon="10.042756260266387"><ele>192.0</ele><time>2026-04-19T09:39:10.999Z</time></trkpt><trkpt lat="44.64111868364795" lon="10.043032095917539"><ele>192.0</ele><time>2026-04-19T09:39:11.999Z</time></trkpt><trkpt lat="44.641265758958504" lon="10.04323533266572"><ele>191.5</ele><time>2026-04-19T09:39:12.999Z</time></trkpt><trkpt lat="44.641437836444226" lon="10.043465434831342"><ele>191.0</ele><time>2026-04-19T09:39:13.999Z</time></trkpt><trkpt lat="44.64162750106605" lon="10.043714642119346"><ele>191.0</ele><time>2026-04-19T09:39:14.999Z</time></trkpt><trkpt lat="44.641815197457525" lon="10.04395125473639"><ele>191.0</ele><time>2026-04-19T09:39:15.999Z</time></trkpt><trkpt lat="44.64202702085881" lon="10.044193622243483"><ele>190.5</ele><time>2026-04-19T09:39:16.999Z</time></trkpt><trkpt lat="44.64223731927461" lon="10.044464561851548"><ele>190.0</ele><time>2026-04-19T09:39:17.999Z</time></trkpt><trkpt lat="44.64243595783117" lon="10.044748250676898"><ele>189.5</ele><time>2026-04-19T09:39:18.999Z</time></trkpt><trkpt lat="44.64262673565721" lon="10.045005637356155"><ele>189.0</ele><time>2026-04-19T09:39:19.999Z</time></trkpt><trkpt lat="44.64282038299675" lon="10.04522033828172"><ele>189.0</ele><time>2026-04-19T09:39:20.999Z</time></trkpt><trkpt lat="44.643035456933504" lon="10.045411050220409"><ele>189.0</ele><time>2026-04-19T09:39:21.999Z</time></trkpt><trkpt lat="44.643287097846084" lon="10.045580057009213"><ele>189.0</ele><time>2026-04-19T09:39:22.999Z</time></trkpt><trkpt lat="44.64352718972235" lon="10.045736622684268"><ele>189.0</ele><time>2026-04-19T09:39:23.999Z</time></trkpt><trkpt lat="44.643741064144145" lon="10.04588216410877"><ele>189.66666666666666</ele><time>2026-04-19T09:39:24.999Z</time></trkpt><trkpt lat="44.64393511896998" lon="10.046021368814714"><ele>190.33333333333331</ele><time>2026-04-19T09:39:25.999Z</time></trkpt><trkpt lat="44.64412664468502" lon="10.046128680223104"><ele>191.0</ele><time>2026-04-19T09:39:26.999Z</time></trkpt><trkpt lat="44.64432693934428" lon="10.046184977259948"><ele>190.33333333333331</ele><time>2026-04-19T09:39:27.999Z</time></trkpt><trkpt lat="44.64452668280541" lon="10.04618649784274"><ele>189.66666666666666</ele><time>2026-04-19T09:39:28.999Z</time></trkpt><trkpt lat="44.64471168664242" lon="10.04617671146441"><ele>189.0</ele><time>2026-04-19T09:39:29.999Z</time></trkpt><trkpt lat="44.64488560631842" lon="10.046176961398588"><ele>189.0</ele><time>2026-04-19T09:39:30.999Z</time></trkpt><trkpt lat="44.6450512236213" lon="10.046183060270463"><ele>189.0</ele><time>2026-04-19T09:39:31.999Z</time></trkpt><trkpt lat="44.64520807900521" lon="10.046192977489778"><ele>189.0</ele><time>2026-04-19T09:39:32.999Z</time></trkpt><trkpt lat="44.64538331292504" lon="10.046217602514684"><ele>188.0</ele><time>2026-04-19T09:39:33.999Z</time></trkpt><trkpt lat="44.645591662864994" lon="10.046278654135728"><ele>187.0</ele><time>2026-04-19T09:39:34.999Z</time></trkpt><trkpt lat="44.645818568101895" lon="10.046371703558277"><ele>186.0</ele><time>2026-04-19T09:39:35.999Z</time></trkpt><trkpt lat="44.646072212102226" lon="10.046498830205975"><ele>187.5</ele><time>2026-04-19T09:39:36.999Z</time></trkpt><trkpt lat="44.64633557006747" lon="10.046639449466415"><ele>189.0</ele><time>2026-04-19T09:39:37.999Z</time></trkpt><trkpt lat="44.646604184814514" lon="10.046792281027104"><ele>189.0</ele><time>2026-04-19T09:39:38.999Z</time></trkpt><trkpt lat="44.64688201872124" lon="10.046950433001786"><ele>189.0</ele><time>2026-04-19T09:39:39.999Z</time></trkpt><trkpt lat="44.647161791332834" lon="10.047082816610471"><ele>186.5</ele><time>2026-04-19T09:39:40.999Z</time></trkpt><trkpt lat="44.64746341517366" lon="10.047187163482066"><ele>184.0</ele><time>2026-04-19T09:39:41.999Z</time></trkpt><trkpt lat="44.647785980494966" lon="10.047261751481418"><ele>182.0</ele><time>2026-04-19T09:39:42.999Z</time></trkpt><trkpt lat="44.648100418323175" lon="10.047344738387348"><ele>180.0</ele><time>2026-04-19T09:39:43.999Z</time></trkpt><trkpt lat="44.64841621429243" lon="10.047428436294416"><ele>182.5</ele><time>2026-04-19T09:39:45Z</time></trkpt><trkpt lat="44.64872198585929" lon="10.047522077217165"><ele>185.0</ele><time>2026-04-19T09:39:46Z</time></trkpt><trkpt lat="44.64902461686949" lon="10.047629328227796"><ele>185.0</ele><time>2026-04-19T09:39:47Z</time></trkpt><trkpt lat="44.64931629465207" lon="10.047748530820066"><ele>185.0</ele><time>2026-04-19T09:39:48Z</time></trkpt><trkpt lat="44.64960349214712" lon="10.047905406241632"><ele>184.0</ele><time>2026-04-19T09:39:49Z</time></trkpt><trkpt lat="44.649889545772346" lon="10.04805193151151"><ele>183.0</ele><time>2026-04-19T09:39:50Z</time></trkpt><trkpt lat="44.65017023365504" lon="10.048215648688918"><ele>183.5</ele><time>2026-04-19T09:39:51Z</time></trkpt><trkpt lat="44.65045980228091" lon="10.04839625169826"><ele>184.0</ele><time>2026-04-19T09:39:52Z</time></trkpt><trkpt lat="44.650754760342565" lon="10.048600194742145"><ele>184.0</ele><time>2026-04-19T09:39:53Z</time></trkpt><trkpt lat="44.65107841879981" lon="10.048842754756306"><ele>184.0</ele><time>2026-04-19T09:39:54Z</time></trkpt><trkpt lat="44.65130343825216" lon="10.049027502702899"><ele>186.5</ele><time>2026-04-19T09:39:55Z</time></trkpt><trkpt lat="44.65156863529408" lon="10.049258147830143"><ele>189.0</ele><time>2026-04-19T09:39:56Z</time></trkpt><trkpt lat="44.65183668787342" lon="10.049495298415072"><ele>191.0</ele><time>2026-04-19T09:39:57Z</time></trkpt><trkpt lat="44.65210201957109" lon="10.049737205347864"><ele>193.0</ele><time>2026-04-19T09:39:58.014Z</time></trkpt><trkpt lat="44.65235638714181" lon="10.04998315952836"><ele>193.0</ele><time>2026-04-19T09:39:59.014Z</time></trkpt><trkpt lat="44.65258850702158" lon="10.050248736754185"><ele>193.0</ele><time>2026-04-19T09:40:00.013Z</time></trkpt><trkpt lat="44.65280200829994" lon="10.050535058826634"><ele>187.5</ele><time>2026-04-19T09:40:01.013Z</time></trkpt><trkpt lat="44.65297095996294" lon="10.050803568591881"><ele>182.0</ele><time>2026-04-19T09:40:02.014Z</time></trkpt><trkpt lat="44.65311684097793" lon="10.05110774528042"><ele>182.0</ele><time>2026-04-19T09:40:03Z</time></trkpt><trkpt lat="44.6533070230793" lon="10.051461254739337"><ele>182.0</ele><time>2026-04-19T09:40:04Z</time></trkpt><trkpt lat="44.653501515601924" lon="10.051827034688255"><ele>180.5</ele><time>2026-04-19T09:40:05Z</time></trkpt><trkpt lat="44.65368580943715" lon="10.052195580377969"><ele>179.0</ele><time>2026-04-19T09:40:06Z</time></trkpt><trkpt lat="44.65385786946455" lon="10.052551009444723"><ele>179.0</ele><time>2026-04-19T09:40:07Z</time></trkpt><trkpt lat="44.65403916987328" lon="10.052917734496225"><ele>179.0</ele><time>2026-04-19T09:40:08Z</time></trkpt><trkpt lat="44.65422401522399" lon="10.053301088712928"><ele>180.5</ele><time>2026-04-19T09:40:09Z</time></trkpt><trkpt lat="44.65441564494973" lon="10.053684706954927"><ele>182.0</ele><time>2026-04-19T09:40:10Z</time></trkpt><trkpt lat="44.65460899626634" lon="10.054076558648173"><ele>178.5</ele><time>2026-04-19T09:40:11Z</time></trkpt><trkpt lat="44.65481367938167" lon="10.054483373181066"><ele>175.0</ele><time>2026-04-19T09:40:12Z</time></trkpt><trkpt lat="44.655021131321064" lon="10.05490610394954"><ele>176.0</ele><time>2026-04-19T09:40:13Z</time></trkpt><trkpt lat="44.655232774776124" lon="10.055324252496392"><ele>177.0</ele><time>2026-04-19T09:40:14Z</time></trkpt><trkpt lat="44.655458299330625" lon="10.055713512001738"><ele>176.5</ele><time>2026-04-19T09:40:15Z</time></trkpt><trkpt lat="44.65572890330044" lon="10.056057753427453"><ele>176.0</ele><time>2026-04-19T09:40:16Z</time></trkpt><trkpt lat="44.65600090594137" lon="10.056394558878699"><ele>174.0</ele><time>2026-04-19T09:40:17Z</time></trkpt><trkpt lat="44.65623497575378" lon="10.056702450464869"><ele>172.0</ele><time>2026-04-19T09:40:18Z</time></trkpt><trkpt lat="44.656452981269496" lon="10.056981551396794"><ele>172.0</ele><time>2026-04-19T09:40:19Z</time></trkpt><trkpt lat="44.65665917572364" lon="10.057242706000876"><ele>172.0</ele><time>2026-04-19T09:40:20Z</time></trkpt><trkpt lat="44.656855274403526" lon="10.057494168865649"><ele>171.5</ele><time>2026-04-19T09:40:21Z</time></trkpt><trkpt lat="44.657052934401555" lon="10.057746306551712"><ele>171.0</ele><time>2026-04-19T09:40:22Z</time></trkpt><trkpt lat="44.65724036101983" lon="10.057994169866593"><ele>171.0</ele><time>2026-04-19T09:40:23Z</time></trkpt><trkpt lat="44.657414691600614" lon="10.058220052095644"><ele>171.0</ele><time>2026-04-19T09:40:24Z</time></trkpt><trkpt lat="44.65757541281686" lon="10.058466157287356"><ele>169.5</ele><time>2026-04-19T09:40:25Z</time></trkpt><trkpt lat="44.657738630476175" lon="10.058722287688152"><ele>168.0</ele><time>2026-04-19T09:40:26Z</time></trkpt><trkpt lat="44.65790711553794" lon="10.059015255037371"><ele>170.0</ele><time>2026-04-19T09:40:27Z</time></trkpt><trkpt lat="44.65808892337142" lon="10.059307418153319"><ele>172.0</ele><time>2026-04-19T09:40:28Z</time></trkpt><trkpt lat="44.65825537753807" lon="10.059613526969336"><ele>172.0</ele><time>2026-04-19T09:40:29Z</time></trkpt><trkpt lat="44.65842220025302" lon="10.059907725065388"><ele>172.0</ele><time>2026-04-19T09:40:30Z</time></trkpt><trkpt lat="44.6585893791922" lon="10.060198933426046"><ele>171.0</ele><time>2026-04-19T09:40:31Z</time></trkpt><trkpt lat="44.65873795460148" lon="10.060472650375909"><ele>170.0</ele><time>2026-04-19T09:40:32Z</time></trkpt><trkpt lat="44.658880909887905" lon="10.06073379857733"><ele>171.5</ele><time>2026-04-19T09:40:33Z</time></trkpt><trkpt lat="44.65902582107499" lon="10.060990928391726"><ele>173.0</ele><time>2026-04-19T09:40:34Z</time></trkpt><trkpt lat="44.659173415170905" lon="10.061253373581925"><ele>173.0</ele><time>2026-04-19T09:40:35Z</time></trkpt><trkpt lat="44.659324279043645" lon="10.061518934538142"><ele>173.0</ele><time>2026-04-19T09:40:36Z</time></trkpt><trkpt lat="44.65948111408037" lon="10.061794747729149"><ele>170.5</ele><time>2026-04-19T09:40:37Z</time></trkpt><trkpt lat="44.65964230926456" lon="10.062087137250431"><ele>168.0</ele><time>2026-04-19T09:40:38Z</time></trkpt><trkpt lat="44.659809705750796" lon="10.06239071339888"><ele>170.0</ele><time>2026-04-19T09:40:39Z</time></trkpt><trkpt lat="44.65998424678126" lon="10.06269977193387"><ele>172.0</ele><time>2026-04-19T09:40:40Z</time></trkpt><trkpt lat="44.66015418516669" lon="10.063005325274965"><ele>170.0</ele><time>2026-04-19T09:40:41Z</time></trkpt><trkpt lat="44.66032509755641" lon="10.06330356052923"><ele>168.0</ele><time>2026-04-19T09:40:42Z</time></trkpt><trkpt lat="44.660497398439084" lon="10.063601221722156"><ele>168.0</ele><time>2026-04-19T09:40:43Z</time></trkpt><trkpt lat="44.660669974350775" lon="10.063899427901958"><ele>168.0</ele><time>2026-04-19T09:40:44Z</time></trkpt><trkpt lat="44.660841899702824" lon="10.064201757969055"><ele>165.5</ele><time>2026-04-19T09:40:45Z</time></trkpt><trkpt lat="44.66101305357933" lon="10.06450910947067"><ele>163.0</ele><time>2026-04-19T09:40:46Z</time></trkpt><trkpt lat="44.661176873617116" lon="10.064829080767968"><ele>165.0</ele><time>2026-04-19T09:40:47Z</time></trkpt><trkpt lat="44.66133908153727" lon="10.065158820288309"><ele>167.0</ele><time>2026-04-19T09:40:48Z</time></trkpt><trkpt lat="44.66149617493444" lon="10.065485668653965"><ele>168.0</ele><time>2026-04-19T09:40:49Z</time></trkpt><trkpt lat="44.661661254859524" lon="10.06582854025277"><ele>169.0</ele><time>2026-04-19T09:40:50Z</time></trkpt><trkpt lat="44.66183852559569" lon="10.06617418635318"><ele>168.5</ele><time>2026-04-19T09:40:51Z</time></trkpt><trkpt lat="44.662021909450374" lon="10.06651326095334"><ele>168.0</ele><time>2026-04-19T09:40:51.999Z</time></trkpt><trkpt lat="44.662211379335396" lon="10.066825956874741"><ele>168.0</ele><time>2026-04-19T09:40:52.999Z</time></trkpt><trkpt lat="44.662397143366825" lon="10.067119983197696"><ele>168.0</ele><time>2026-04-19T09:40:53.999Z</time></trkpt><trkpt lat="44.66256420219438" lon="10.067398381530433"><ele>167.5</ele><time>2026-04-19T09:40:54.999Z</time></trkpt><trkpt lat="44.66271954633058" lon="10.067652478956669"><ele>167.0</ele><time>2026-04-19T09:40:55.999Z</time></trkpt><trkpt lat="44.66286702273918" lon="10.067892057921267"><ele>167.0</ele><time>2026-04-19T09:40:56.999Z</time></trkpt><trkpt lat="44.663005001008365" lon="10.068122204237428"><ele>167.0</ele><time>2026-04-19T09:40:57.999Z</time></trkpt><trkpt lat="44.66313938056204" lon="10.068350649841383"><ele>167.0</ele><time>2026-04-19T09:40:58.999Z</time></trkpt><trkpt lat="44.663293421780736" lon="10.068588423820463"><ele>166.5</ele><time>2026-04-19T09:40:59.999Z</time></trkpt><trkpt lat="44.66347301279515" lon="10.068815313930807"><ele>166.0</ele><time>2026-04-19T09:41:00.999Z</time></trkpt><trkpt lat="44.6636740314695" lon="10.069024153989137"><ele>166.5</ele><time>2026-04-19T09:41:01.999Z</time></trkpt><trkpt lat="44.66388867754874" lon="10.06923074433674"><ele>167.0</ele><time>2026-04-19T09:41:02.999Z</time></trkpt><trkpt lat="44.66410560795909" lon="10.06944948717824"><ele>167.0</ele><time>2026-04-19T09:41:03.999Z</time></trkpt><trkpt lat="44.66432429952612" lon="10.069674557217802"><ele>167.0</ele><time>2026-04-19T09:41:04.999Z</time></trkpt><trkpt lat="44.66454676384557" lon="10.069904427573018"><ele>166.5</ele><time>2026-04-19T09:41:05.999Z</time></trkpt><trkpt lat="44.66477308104517" lon="10.070135299917078"><ele>166.0</ele><time>2026-04-19T09:41:06.999Z</time></trkpt><trkpt lat="44.664996211511195" lon="10.07036419073441"><ele>166.0</ele><time>2026-04-19T09:41:07.999Z</time></trkpt><trkpt lat="44.66522061859425" lon="10.07059378209616"><ele>166.0</ele><time>2026-04-19T09:41:08.999Z</time></trkpt><trkpt lat="44.66544209444962" lon="10.07082276948636"><ele>165.0</ele><time>2026-04-19T09:41:09.999Z</time></trkpt><trkpt lat="44.66566262017481" lon="10.071053642920473"><ele>164.0</ele><time>2026-04-19T09:41:10.999Z</time></trkpt><trkpt lat="44.665887290665346" lon="10.071285253720717"><ele>164.0</ele><time>2026-04-19T09:41:11.999Z</time></trkpt><trkpt lat="44.66610913191537" lon="10.07151286776015"><ele>164.0</ele><time>2026-04-19T09:41:12.999Z</time></trkpt><trkpt lat="44.666326349351216" lon="10.071739454049268"><ele>164.0</ele><time>2026-04-19T09:41:13.999Z</time></trkpt><trkpt lat="44.66654172723726" lon="10.07196671393642"><ele>164.0</ele><time>2026-04-19T09:41:14.999Z</time></trkpt><trkpt lat="44.66674987460706" lon="10.072186421030562"><ele>164.0</ele><time>2026-04-19T09:41:15.999Z</time></trkpt><trkpt lat="44.66694020843832" lon="10.072387298548911"><ele>164.0</ele><time>2026-04-19T09:41:16.999Z</time></trkpt><trkpt lat="44.667123454258856" lon="10.072577495813492"><ele>164.0</ele><time>2026-04-19T09:41:17.999Z</time></trkpt><trkpt lat="44.66730332003116" lon="10.072777645963653"><ele>164.0</ele><time>2026-04-19T09:41:18.999Z</time></trkpt><trkpt lat="44.667476676686306" lon="10.07301794058731"><ele>162.5</ele><time>2026-04-19T09:41:19.999Z</time></trkpt><trkpt lat="44.66764190928389" lon="10.073282961533117"><ele>161.0</ele><time>2026-04-19T09:41:20.999Z</time></trkpt><trkpt lat="44.66781657584855" lon="10.073542027041855"><ele>161.0</ele><time>2026-04-19T09:41:21.999Z</time></trkpt><trkpt lat="44.66801870074905" lon="10.073790646844541"><ele>161.0</ele><time>2026-04-19T09:41:22.999Z</time></trkpt><trkpt lat="44.66823630792249" lon="10.074009659838612"><ele>160.5</ele><time>2026-04-19T09:41:23.999Z</time></trkpt><trkpt lat="44.668467075768376" lon="10.074232381908073"><ele>160.0</ele><time>2026-04-19T09:41:24.999Z</time></trkpt><trkpt lat="44.66869965913335" lon="10.074463596900438"><ele>160.0</ele><time>2026-04-19T09:41:25.999Z</time></trkpt><trkpt lat="44.668933140795836" lon="10.07469702016214"><ele>160.0</ele><time>2026-04-19T09:41:26.999Z</time></trkpt><trkpt lat="44.66916664530299" lon="10.074933828018432"><ele>159.0</ele><time>2026-04-19T09:41:27.999Z</time></trkpt><trkpt lat="44.669395398319665" lon="10.075177904402342"><ele>158.0</ele><time>2026-04-19T09:41:28.999Z</time></trkpt><trkpt lat="44.66962945579229" lon="10.075429460879882"><ele>158.0</ele><time>2026-04-19T09:41:29.999Z</time></trkpt><trkpt lat="44.66987305301458" lon="10.075696633266565"><ele>158.0</ele><time>2026-04-19T09:41:30.999Z</time></trkpt><trkpt lat="44.67012599330642" lon="10.07597636401327"><ele>157.0</ele><time>2026-04-19T09:41:31.999Z</time></trkpt><trkpt lat="44.67040013115006" lon="10.076279858145204"><ele>156.0</ele><time>2026-04-19T09:41:32.999Z</time></trkpt><trkpt lat="44.670691767514846" lon="10.076603999118078"><ele>156.0</ele><time>2026-04-19T09:41:33.999Z</time></trkpt><trkpt lat="44.670919217614994" lon="10.076865548897203"><ele>156.0</ele><time>2026-04-19T09:41:34.999Z</time></trkpt><trkpt lat="44.67117634921272" lon="10.07714676821069"><ele>156.0</ele><time>2026-04-19T09:41:35.999Z</time></trkpt><trkpt lat="44.671433425664546" lon="10.07742228009954"><ele>156.0</ele><time>2026-04-19T09:41:36.999Z</time></trkpt><trkpt lat="44.67168318179139" lon="10.077695570938188"><ele>156.0</ele><time>2026-04-19T09:41:37.999Z</time></trkpt><trkpt lat="44.67190167865141" lon="10.077950671656478"><ele>156.0</ele><time>2026-04-19T09:41:38.999Z</time></trkpt><trkpt lat="44.672130258935894" lon="10.078217302899555"><ele>157.0</ele><time>2026-04-19T09:41:39.999Z</time></trkpt><trkpt lat="44.67235581181638" lon="10.07848198547143"><ele>158.0</ele><time>2026-04-19T09:41:40.999Z</time></trkpt><trkpt lat="44.67257556169418" lon="10.078747399981431"><ele>158.0</ele><time>2026-04-19T09:41:41.999Z</time></trkpt><trkpt lat="44.6727876695285" lon="10.079011688935244"><ele>158.0</ele><time>2026-04-19T09:41:42.999Z</time></trkpt><trkpt lat="44.67299552059018" lon="10.079282003626977"><ele>158.0</ele><time>2026-04-19T09:41:43.999Z</time></trkpt><trkpt lat="44.673202377802696" lon="10.079566242299551"><ele>158.0</ele><time>2026-04-19T09:41:44.999Z</time></trkpt><trkpt lat="44.673406397685135" lon="10.07985088565837"><ele>156.0</ele><time>2026-04-19T09:41:45.999Z</time></trkpt><trkpt lat="44.67361470196483" lon="10.080154331865879"><ele>154.0</ele><time>2026-04-19T09:41:46.999Z</time></trkpt><trkpt lat="44.67381497847469" lon="10.08045862625541"><ele>156.0</ele><time>2026-04-19T09:41:47.999Z</time></trkpt><trkpt lat="44.674011159777834" lon="10.080773830441096"><ele>158.0</ele><time>2026-04-19T09:41:48.999Z</time></trkpt><trkpt lat="44.67420139561325" lon="10.08110032501233"><ele>158.0</ele><time>2026-04-19T09:41:49.999Z</time></trkpt><trkpt lat="44.67438455370131" lon="10.081441464156297"><ele>158.0</ele><time>2026-04-19T09:41:51Z</time></trkpt><trkpt lat="44.67456004292367" lon="10.08178289840198"><ele>157.0</ele><time>2026-04-19T09:41:52Z</time></trkpt><trkpt lat="44.67473364649796" lon="10.082126857097808"><ele>156.0</ele><time>2026-04-19T09:41:53Z</time></trkpt><trkpt lat="44.67490504448591" lon="10.082469958228199"><ele>158.0</ele><time>2026-04-19T09:41:54Z</time></trkpt><trkpt lat="44.67506642336903" lon="10.08281071630052"><ele>160.0</ele><time>2026-04-19T09:41:55Z</time></trkpt><trkpt lat="44.675223062877905" lon="10.083171442697733"><ele>155.0</ele><time>2026-04-19T09:41:56Z</time></trkpt><trkpt lat="44.67537234119586" lon="10.08354256425263"><ele>150.0</ele><time>2026-04-19T09:41:57Z</time></trkpt><trkpt lat="44.675519085513976" lon="10.08392233598485"><ele>152.0</ele><time>2026-04-19T09:41:58Z</time></trkpt><trkpt lat="44.675667528600435" lon="10.084314060163496"><ele>154.0</ele><time>2026-04-19T09:41:59Z</time></trkpt><trkpt lat="44.67581421463707" lon="10.08470319604409"><ele>155.0</ele><time>2026-04-19T09:42:00Z</time></trkpt><trkpt lat="44.67596281073726" lon="10.085104848699403"><ele>156.0</ele><time>2026-04-19T09:42:01Z</time></trkpt><trkpt lat="44.676100325076675" lon="10.085481712333326"><ele>151.5</ele><time>2026-04-19T09:42:02Z</time></trkpt><trkpt lat="44.67617806783081" lon="10.085763265470575"><ele>147.0</ele><time>2026-04-19T09:42:03Z</time></trkpt><trkpt lat="44.67640928128691" lon="10.0862933015879"><ele>148.0</ele><time>2026-04-19T09:42:04Z</time></trkpt><trkpt lat="44.67654660579139" lon="10.08667270429106"><ele>149.0</ele><time>2026-04-19T09:42:05Z</time></trkpt><trkpt lat="44.676680848025484" lon="10.087033879782844"><ele>149.0</ele><time>2026-04-19T09:42:06Z</time></trkpt><trkpt lat="44.676805134148616" lon="10.087376063410431"><ele>149.0</ele><time>2026-04-19T09:42:07Z</time></trkpt><trkpt lat="44.6769262524235" lon="10.087719879436866"><ele>149.5</ele><time>2026-04-19T09:42:08Z</time></trkpt><trkpt lat="44.67704135157223" lon="10.088052309243382"><ele>150.0</ele><time>2026-04-19T09:42:09Z</time></trkpt><trkpt lat="44.677161027316075" lon="10.088380368811398"><ele>150.0</ele><time>2026-04-19T09:42:10Z</time></trkpt><trkpt lat="44.67727619975493" lon="10.088690338128174"><ele>150.0</ele><time>2026-04-19T09:42:11Z</time></trkpt><trkpt lat="44.67738981417125" lon="10.088988130966495"><ele>151.5</ele><time>2026-04-19T09:42:12Z</time></trkpt><trkpt lat="44.677497942544946" lon="10.089284552997515"><ele>153.0</ele><time>2026-04-19T09:42:13Z</time></trkpt><trkpt lat="44.67759972117442" lon="10.08957374195341"><ele>153.0</ele><time>2026-04-19T09:42:14Z</time></trkpt><trkpt lat="44.67769898523377" lon="10.089850361271541"><ele>153.0</ele><time>2026-04-19T09:42:15Z</time></trkpt><trkpt lat="44.677802693460954" lon="10.090123584451705"><ele>153.0</ele><time>2026-04-19T09:42:16Z</time></trkpt><trkpt lat="44.67790903327612" lon="10.090413550922412"><ele>151.0</ele><time>2026-04-19T09:42:17Z</time></trkpt><trkpt lat="44.678025139540125" lon="10.090728526507288"><ele>149.0</ele><time>2026-04-19T09:42:18Z</time></trkpt><trkpt lat="44.67814798120642" lon="10.091056414236363"><ele>149.0</ele><time>2026-04-19T09:42:19Z</time></trkpt><trkpt lat="44.678271561069835" lon="10.091354809740526"><ele>149.0</ele><time>2026-04-19T09:42:20Z</time></trkpt><trkpt lat="44.678377070231384" lon="10.09165714425056"><ele>149.0</ele><time>2026-04-19T09:42:21Z</time></trkpt><trkpt lat="44.67848800762035" lon="10.09195206203356"><ele>149.0</ele><time>2026-04-19T09:42:22Z</time></trkpt><trkpt lat="44.678599740832354" lon="10.092236935604982"><ele>148.33333333333331</ele><time>2026-04-19T09:42:23Z</time></trkpt><trkpt lat="44.67870519325533" lon="10.09249841736755"><ele>147.66666666666666</ele><time>2026-04-19T09:42:24Z</time></trkpt><trkpt lat="44.678796736732615" lon="10.092744927126741"><ele>147.0</ele><time>2026-04-19T09:42:25Z</time></trkpt><trkpt lat="44.67888402050828" lon="10.092981571273631"><ele>147.0</ele><time>2026-04-19T09:42:26Z</time></trkpt><trkpt lat="44.67895873173766" lon="10.093203231494034"><ele>147.0</ele><time>2026-04-19T09:42:27Z</time></trkpt><trkpt lat="44.67903165681824" lon="10.093415062632323"><ele>147.0</ele><time>2026-04-19T09:42:28Z</time></trkpt><trkpt lat="44.679099008343464" lon="10.093615260514387"><ele>147.2</ele><time>2026-04-19T09:42:29Z</time></trkpt><trkpt lat="44.679147041961556" lon="10.093803406760555"><ele>147.39999999999998</ele><time>2026-04-19T09:42:30Z</time></trkpt><trkpt lat="44.67915970525416" lon="10.093957050127077"><ele>147.60000000000002</ele><time>2026-04-19T09:42:31Z</time></trkpt><trkpt lat="44.67914601888515" lon="10.09409181070939"><ele>147.8</ele><time>2026-04-19T09:42:32Z</time></trkpt><trkpt lat="44.67912057840847" lon="10.094204548763692"><ele>148.0</ele><time>2026-04-19T09:42:33Z</time></trkpt><trkpt lat="44.67907665911157" lon="10.094291197953169"><ele>148.0</ele><time>2026-04-19T09:42:34Z</time></trkpt><trkpt lat="44.67905441746177" lon="10.094385348657474"><ele>148.0</ele><time>2026-04-19T09:42:35Z</time></trkpt><trkpt lat="44.67909240765084" lon="10.094490312386757"><ele>148.0</ele><time>2026-04-19T09:42:36Z</time></trkpt><trkpt lat="44.679176818594485" lon="10.094562026186093"><ele>148.0</ele><time>2026-04-19T09:42:37Z</time></trkpt><trkpt lat="44.67928855336559" lon="10.094558157368606"><ele>148.0</ele><time>2026-04-19T09:42:38Z</time></trkpt><trkpt lat="44.67940420940253" lon="10.094494956466503"><ele>148.0</ele><time>2026-04-19T09:42:39Z</time></trkpt><trkpt lat="44.679557504514385" lon="10.094631217846118"><ele>148.0</ele><time>2026-04-19T09:42:40Z</time></trkpt><trkpt lat="44.67972863831674" lon="10.094766517470172"><ele>148.0</ele><time>2026-04-19T09:42:41Z</time></trkpt><trkpt lat="44.67990445071048" lon="10.094875730488292"><ele>147.66666666666669</ele><time>2026-04-19T09:42:42Z</time></trkpt><trkpt lat="44.680056523864835" lon="10.094963505127204"><ele>147.33333333333334</ele><time>2026-04-19T09:42:43Z</time></trkpt><trkpt lat="44.68019235356398" lon="10.095032688264306"><ele>147.0</ele><time>2026-04-19T09:42:44Z</time></trkpt><trkpt lat="44.68032756810838" lon="10.095106100849407"><ele>146.5</ele><time>2026-04-19T09:42:45Z</time></trkpt><trkpt lat="44.68046212139208" lon="10.095181819440269"><ele>146.0</ele><time>2026-04-19T09:42:46Z</time></trkpt><trkpt lat="44.680596708765975" lon="10.095254987934476"><ele>145.5</ele><time>2026-04-19T09:42:47Z</time></trkpt><trkpt lat="44.68072713870094" lon="10.095320185529308"><ele>145.0</ele><time>2026-04-19T09:42:48Z</time></trkpt><trkpt lat="44.68085755949828" lon="10.09538371506756"><ele>145.0</ele><time>2026-04-19T09:42:49Z</time></trkpt><trkpt lat="44.68098600668139" lon="10.095448638301152"><ele>145.0</ele><time>2026-04-19T09:42:50Z</time></trkpt><trkpt lat="44.68111180685303" lon="10.095515813986545"><ele>145.0</ele><time>2026-04-19T09:42:51Z</time></trkpt><trkpt lat="44.681237341834795" lon="10.095580627967173"><ele>145.0</ele><time>2026-04-19T09:42:52Z</time></trkpt><trkpt lat="44.6813557881079" lon="10.09563422278896"><ele>145.2</ele><time>2026-04-19T09:42:53Z</time></trkpt><trkpt lat="44.68144597405998" lon="10.095675018366864"><ele>145.4</ele><time>2026-04-19T09:42:54Z</time></trkpt><trkpt lat="44.681524531578674" lon="10.095728994286622"><ele>145.6</ele><time>2026-04-19T09:42:55Z</time></trkpt><trkpt lat="44.68141197466127" lon="10.095889887605113"><ele>145.8</ele><time>2026-04-19T09:42:57.999Z</time></trkpt><trkpt lat="44.68132805011943" lon="10.09587478624589"><ele>146.0</ele><time>2026-04-19T09:42:58.999Z</time></trkpt><trkpt lat="44.68123223160455" lon="10.095880439061318"><ele>147.0</ele><time>2026-04-19T09:42:59.999Z</time></trkpt><trkpt lat="44.681106832940664" lon="10.095908795827508"><ele>148.0</ele><time>2026-04-19T09:43:00.999Z</time></trkpt><trkpt lat="44.68097392824441" lon="10.095956585648116"><ele>149.0</ele><time>2026-04-19T09:43:01.999Z</time></trkpt><trkpt lat="44.6808622190683" lon="10.096058223497165"><ele>150.0</ele><time>2026-04-19T09:43:02.999Z</time></trkpt><trkpt lat="44.68075954613706" lon="10.096250711420112"><ele>150.0</ele><time>2026-04-19T09:43:03.999Z</time></trkpt><trkpt lat="44.680665350749784" lon="10.096490461516996"><ele>150.0</ele><time>2026-04-19T09:43:04.999Z</time></trkpt><trkpt lat="44.68056802137918" lon="10.09672191464353"><ele>150.0</ele><time>2026-04-19T09:43:05.999Z</time></trkpt><trkpt lat="44.6804727683293" lon="10.096926617269519"><ele>150.66666666666666</ele><time>2026-04-19T09:43:06.999Z</time></trkpt><trkpt lat="44.680368545184336" lon="10.097113180551768"><ele>151.33333333333331</ele><time>2026-04-19T09:43:07.999Z</time></trkpt><trkpt lat="44.680246664857485" lon="10.097271348925261"><ele>152.0</ele><time>2026-04-19T09:43:08.999Z</time></trkpt><trkpt lat="44.68009678903645" lon="10.097379942028073"><ele>154.25</ele><time>2026-04-19T09:43:09.999Z</time></trkpt><trkpt lat="44.67993532003149" lon="10.097461935104658"><ele>156.5</ele><time>2026-04-19T09:43:10.999Z</time></trkpt><trkpt lat="44.67979245394641" lon="10.097516157624794"><ele>158.75</ele><time>2026-04-19T09:43:11.999Z</time></trkpt><trkpt lat="44.67971997237125" lon="10.097545174418107"><ele>161.0</ele><time>2026-04-19T09:43:12.999Z</time></trkpt><trkpt lat="44.67960572687344" lon="10.097608670656275"><ele>161.0</ele><time>2026-04-19T09:43:14.999Z</time></trkpt><trkpt lat="44.67951556265418" lon="10.097659356187705"><ele>161.0</ele><time>2026-04-19T09:43:15.999Z</time></trkpt><trkpt lat="44.67940520060587" lon="10.09771401780455"><ele>161.0</ele><time>2026-04-19T09:43:16.999Z</time></trkpt><trkpt lat="44.67928082558412" lon="10.097778266975995"><ele>161.0</ele><time>2026-04-19T09:43:17.999Z</time></trkpt><trkpt lat="44.67911184573543" lon="10.097831115943926"><ele>160.33333333333331</ele><time>2026-04-19T09:43:18.999Z</time></trkpt><trkpt lat="44.67891143442546" lon="10.097877871570404"><ele>159.66666666666666</ele><time>2026-04-19T09:43:19.999Z</time></trkpt><trkpt lat="44.67870863753007" lon="10.097915717834098"><ele>159.0</ele><time>2026-04-19T09:43:20.999Z</time></trkpt><trkpt lat="44.678533607447406" lon="10.0979222937014"><ele>159.33333333333334</ele><time>2026-04-19T09:43:21.999Z</time></trkpt><trkpt lat="44.67836427589508" lon="10.097968893735352"><ele>159.66666666666669</ele><time>2026-04-19T09:43:22.999Z</time></trkpt><trkpt lat="44.678191512976504" lon="10.098087278450077"><ele>160.0</ele><time>2026-04-19T09:43:23.999Z</time></trkpt><trkpt lat="44.678033785166384" lon="10.098275122238933"><ele>160.0</ele><time>2026-04-19T09:43:24.999Z</time></trkpt><trkpt lat="44.677863434942594" lon="10.098459265562283"><ele>160.0</ele><time>2026-04-19T09:43:25.999Z</time></trkpt><trkpt lat="44.6776459189024" lon="10.09855489803711"><ele>160.0</ele><time>2026-04-19T09:43:26.999Z</time></trkpt><trkpt lat="44.6774140874776" lon="10.098622247687642"><ele>158.5</ele><time>2026-04-19T09:43:27.999Z</time></trkpt><trkpt lat="44.677171265031895" lon="10.09870413024711"><ele>157.0</ele><time>2026-04-19T09:43:28.999Z</time></trkpt><trkpt lat="44.67692499606052" lon="10.098803401049363"><ele>156.5</ele><time>2026-04-19T09:43:29.999Z</time></trkpt><trkpt lat="44.67668929235657" lon="10.098895871834298"><ele>156.0</ele><time>2026-04-19T09:43:30.999Z</time></trkpt><trkpt lat="44.67647178562919" lon="10.098990483413958"><ele>156.0</ele><time>2026-04-19T09:43:31.999Z</time></trkpt><trkpt lat="44.67627162461597" lon="10.099078664969728"><ele>156.0</ele><time>2026-04-19T09:43:32.999Z</time></trkpt><trkpt lat="44.676087080306665" lon="10.099154689537295"><ele>156.0</ele><time>2026-04-19T09:43:33.999Z</time></trkpt><trkpt lat="44.675892294867445" lon="10.099242378821788"><ele>157.0</ele><time>2026-04-19T09:43:34.999Z</time></trkpt><trkpt lat="44.675710075598005" lon="10.099346821340008"><ele>158.0</ele><time>2026-04-19T09:43:35.999Z</time></trkpt><trkpt lat="44.6755538885273" lon="10.099493020522374"><ele>159.0</ele><time>2026-04-19T09:43:36.999Z</time></trkpt><trkpt lat="44.67542779726039" lon="10.099700804481978"><ele>159.33333333333334</ele><time>2026-04-19T09:43:37.999Z</time></trkpt><trkpt lat="44.67530916553151" lon="10.09994443113441"><ele>159.66666666666669</ele><time>2026-04-19T09:43:38.999Z</time></trkpt><trkpt lat="44.67517569595733" lon="10.10017857886498"><ele>160.0</ele><time>2026-04-19T09:43:39.999Z</time></trkpt><trkpt lat="44.675036466106214" lon="10.10037759438829"><ele>160.0</ele><time>2026-04-19T09:43:40.999Z</time></trkpt><trkpt lat="44.674871103356" lon="10.10046863300355"><ele>160.0</ele><time>2026-04-19T09:43:41.999Z</time></trkpt><trkpt lat="44.67468659385257" lon="10.100514829596294"><ele>160.0</ele><time>2026-04-19T09:43:42.999Z</time></trkpt><trkpt lat="44.67448670209126" lon="10.100507254525406"><ele>159.66666666666669</ele><time>2026-04-19T09:43:43.999Z</time></trkpt><trkpt lat="44.67428878158714" lon="10.100493265793743"><ele>159.33333333333334</ele><time>2026-04-19T09:43:44.999Z</time></trkpt><trkpt lat="44.67409701433644" lon="10.100489077416539"><ele>159.0</ele><time>2026-04-19T09:43:45.999Z</time></trkpt><trkpt lat="44.673903924400136" lon="10.100581731689667"><ele>159.0</ele><time>2026-04-19T09:43:46.999Z</time></trkpt><trkpt lat="44.673706182719414" lon="10.10073098483802"><ele>159.0</ele><time>2026-04-19T09:43:47.999Z</time></trkpt><trkpt lat="44.67351972823506" lon="10.100880878356582"><ele>159.0</ele><time>2026-04-19T09:43:48.999Z</time></trkpt><trkpt lat="44.67333782723379" lon="10.101018197402814"><ele>161.0</ele><time>2026-04-19T09:43:49.999Z</time></trkpt><trkpt lat="44.67318545872727" lon="10.101161286720986"><ele>163.0</ele><time>2026-04-19T09:43:50.999Z</time></trkpt><trkpt lat="44.67308222960819" lon="10.101349314196877"><ele>165.0</ele><time>2026-04-19T09:43:51.999Z</time></trkpt><trkpt lat="44.673016111319505" lon="10.101613749804303"><ele>165.66666666666666</ele><time>2026-04-19T09:43:52.999Z</time></trkpt><trkpt lat="44.67294318219814" lon="10.101916535726756"><ele>166.33333333333331</ele><time>2026-04-19T09:43:53.999Z</time></trkpt><trkpt lat="44.67287050408401" lon="10.10220360191389"><ele>167.0</ele><time>2026-04-19T09:43:54.999Z</time></trkpt><trkpt lat="44.67275337315284" lon="10.102433620925277"><ele>167.0</ele><time>2026-04-19T09:43:55.999Z</time></trkpt><trkpt lat="44.672600662334375" lon="10.10259956502721"><ele>167.0</ele><time>2026-04-19T09:43:57Z</time></trkpt><trkpt lat="44.67241649928899" lon="10.102769182746323"><ele>167.0</ele><time>2026-04-19T09:43:58Z</time></trkpt><trkpt lat="44.67223074468635" lon="10.102961046474716"><ele>167.0</ele><time>2026-04-19T09:43:59Z</time></trkpt><trkpt lat="44.67204173985736" lon="10.103124631937515"><ele>167.0</ele><time>2026-04-19T09:44:00Z</time></trkpt><trkpt lat="44.67186143708094" lon="10.10327162112008"><ele>167.0</ele><time>2026-04-19T09:44:01Z</time></trkpt><trkpt lat="44.671689275311145" lon="10.103389483277102"><ele>168.25</ele><time>2026-04-19T09:44:02Z</time></trkpt><trkpt lat="44.67153712853816" lon="10.103505709426718"><ele>169.5</ele><time>2026-04-19T09:44:03Z</time></trkpt><trkpt lat="44.671419918667844" lon="10.103595194052607"><ele>170.75</ele><time>2026-04-19T09:44:04Z</time></trkpt><trkpt lat="44.67132817269614" lon="10.103690661397996"><ele>172.0</ele><time>2026-04-19T09:44:05Z</time></trkpt><trkpt lat="44.671274261832444" lon="10.103833955861509"><ele>172.0</ele><time>2026-04-19T09:44:06Z</time></trkpt><trkpt lat="44.671272907165" lon="10.104025884165605"><ele>172.0</ele><time>2026-04-19T09:44:07Z</time></trkpt><trkpt lat="44.671333525936404" lon="10.104224502703453"><ele>172.0</ele><time>2026-04-19T09:44:08Z</time></trkpt><trkpt lat="44.671452897532276" lon="10.104408999322095"><ele>173.0</ele><time>2026-04-19T09:44:09Z</time></trkpt><trkpt lat="44.67162675866878" lon="10.104580092439353"><ele>174.0</ele><time>2026-04-19T09:44:10Z</time></trkpt><trkpt lat="44.671786146832595" lon="10.104787088462167"><ele>175.0</ele><time>2026-04-19T09:44:11Z</time></trkpt><trkpt lat="44.671884934220806" lon="10.105076149369474"><ele>181.33333333333334</ele><time>2026-04-19T09:44:12Z</time></trkpt><trkpt lat="44.6719786623781" lon="10.105365473523335"><ele>187.66666666666669</ele><time>2026-04-19T09:44:13Z</time></trkpt><trkpt lat="44.67207227615782" lon="10.105645834810892"><ele>194.0</ele><time>2026-04-19T09:44:14Z</time></trkpt><trkpt lat="44.67214858917819" lon="10.105920003331837"><ele>194.0</ele><time>2026-04-19T09:44:15Z</time></trkpt><trkpt lat="44.672205454457966" lon="10.10621668188598"><ele>194.0</ele><time>2026-04-19T09:44:16Z</time></trkpt><trkpt lat="44.672276285752204" lon="10.106478656395591"><ele>194.0</ele><time>2026-04-19T09:44:17Z</time></trkpt><trkpt lat="44.672248198202254" lon="10.106814769261618"><ele>193.33333333333334</ele><time>2026-04-19T09:44:18Z</time></trkpt><trkpt lat="44.67230447894009" lon="10.107113037269327"><ele>192.66666666666669</ele><time>2026-04-19T09:44:19Z</time></trkpt><trkpt lat="44.67236466049254" lon="10.1074213732736"><ele>192.0</ele><time>2026-04-19T09:44:20Z</time></trkpt><trkpt lat="44.67241681661757" lon="10.10772744523682"><ele>190.33333333333334</ele><time>2026-04-19T09:44:21Z</time></trkpt><trkpt lat="44.672464785812494" lon="10.108039194353507"><ele>188.66666666666669</ele><time>2026-04-19T09:44:22Z</time></trkpt><trkpt lat="44.67251174673623" lon="10.108342862666396"><ele>187.0</ele><time>2026-04-19T09:44:23Z</time></trkpt><trkpt lat="44.67255493077353" lon="10.10863830172137"><ele>185.66666666666669</ele><time>2026-04-19T09:44:24Z</time></trkpt><trkpt lat="44.67259815947102" lon="10.108914146237652"><ele>184.33333333333334</ele><time>2026-04-19T09:44:25Z</time></trkpt><trkpt lat="44.67266986472156" lon="10.109149560121296"><ele>183.0</ele><time>2026-04-19T09:44:26Z</time></trkpt><trkpt lat="44.672794062359785" lon="10.109344952643445"><ele>185.33333333333334</ele><time>2026-04-19T09:44:27Z</time></trkpt><trkpt lat="44.672927012145095" lon="10.10952719297549"><ele>187.66666666666669</ele><time>2026-04-19T09:44:28Z</time></trkpt><trkpt lat="44.673031230429544" lon="10.10975578690574"><ele>190.0</ele><time>2026-04-19T09:44:29Z</time></trkpt><trkpt lat="44.673092349537576" lon="10.110024482262524"><ele>190.0</ele><time>2026-04-19T09:44:30Z</time></trkpt><trkpt lat="44.67313141192085" lon="10.110309569197497"><ele>190.0</ele><time>2026-04-19T09:44:31Z</time></trkpt><trkpt lat="44.67316922252387" lon="10.110556518641939"><ele>190.0</ele><time>2026-04-19T09:44:32Z</time></trkpt><trkpt lat="44.673198585426" lon="10.110785337216548"><ele>189.66666666666669</ele><time>2026-04-19T09:44:33Z</time></trkpt><trkpt lat="44.67319004921217" lon="10.111005063928342"><ele>189.33333333333334</ele><time>2026-04-19T09:44:34Z</time></trkpt><trkpt lat="44.67311156286014" lon="10.111217202501642"><ele>189.0</ele><time>2026-04-19T09:44:35Z</time></trkpt><trkpt lat="44.67298244989115" lon="10.11143659601155"><ele>190.33333333333331</ele><time>2026-04-19T09:44:36Z</time></trkpt><trkpt lat="44.672855807228544" lon="10.111663280431154"><ele>191.66666666666666</ele><time>2026-04-19T09:44:37Z</time></trkpt><trkpt lat="44.67274967529568" lon="10.111915745234057"><ele>193.0</ele><time>2026-04-19T09:44:38Z</time></trkpt><trkpt lat="44.67268212377604" lon="10.112166265794325"><ele>191.33333333333331</ele><time>2026-04-19T09:44:39Z</time></trkpt><trkpt lat="44.6726541442529" lon="10.11243541958317"><ele>189.66666666666666</ele><time>2026-04-19T09:44:40Z</time></trkpt><trkpt lat="44.672675061668116" lon="10.112692389354521"><ele>188.0</ele><time>2026-04-19T09:44:41Z</time></trkpt><trkpt lat="44.67273921165341" lon="10.112949316538728"><ele>189.66666666666666</ele><time>2026-04-19T09:44:42Z</time></trkpt><trkpt lat="44.6728286121735" lon="10.113213391493396"><ele>191.33333333333331</ele><time>2026-04-19T09:44:43Z</time></trkpt><trkpt lat="44.67289769459383" lon="10.11345750823738"><ele>193.0</ele><time>2026-04-19T09:44:44Z</time></trkpt><trkpt lat="44.67291971670436" lon="10.113707204657507"><ele>193.0</ele><time>2026-04-19T09:44:45Z</time></trkpt><trkpt lat="44.67283886297348" lon="10.113959852012353"><ele>193.0</ele><time>2026-04-19T09:44:46Z</time></trkpt><trkpt lat="44.67276582590941" lon="10.114218907382849"><ele>193.0</ele><time>2026-04-19T09:44:47Z</time></trkpt><trkpt lat="44.67269284446711" lon="10.114440710311"><ele>193.0</ele><time>2026-04-19T09:44:48Z</time></trkpt><trkpt lat="44.672680841020764" lon="10.114673547620963"><ele>193.0</ele><time>2026-04-19T09:44:49Z</time></trkpt><trkpt lat="44.672739253377536" lon="10.114929555821586"><ele>193.0</ele><time>2026-04-19T09:44:50Z</time></trkpt><trkpt lat="44.672839923431525" lon="10.11517385715699"><ele>193.0</ele><time>2026-04-19T09:44:51Z</time></trkpt><trkpt lat="44.672935956947214" lon="10.115435577614853"><ele>193.0</ele><time>2026-04-19T09:44:52Z</time></trkpt><trkpt lat="44.672959806953514" lon="10.115702820543127"><ele>193.0</ele><time>2026-04-19T09:44:53Z</time></trkpt><trkpt lat="44.672925014370506" lon="10.11594921301361"><ele>193.0</ele><time>2026-04-19T09:44:54Z</time></trkpt><trkpt lat="44.6728351424517" lon="10.11620809712933"><ele>193.0</ele><time>2026-04-19T09:44:55Z</time></trkpt><trkpt lat="44.672731749441425" lon="10.116493771331967"><ele>193.0</ele><time>2026-04-19T09:44:56Z</time></trkpt><trkpt lat="44.67261356786273" lon="10.116782734801854"><ele>193.5</ele><time>2026-04-19T09:44:57Z</time></trkpt><trkpt lat="44.672508744761835" lon="10.117064914155925"><ele>194.0</ele><time>2026-04-19T09:44:58Z</time></trkpt><trkpt lat="44.67240696822127" lon="10.117347732299041"><ele>195.0</ele><time>2026-04-19T09:44:59Z</time></trkpt><trkpt lat="44.67231226715508" lon="10.11762042683818"><ele>196.0</ele><time>2026-04-19T09:45:00Z</time></trkpt><trkpt lat="44.6722072517325" lon="10.117864816815947"><ele>197.0</ele><time>2026-04-19T09:45:01Z</time></trkpt><trkpt lat="44.67205997894999" lon="10.118062124649429"><ele>197.0</ele><time>2026-04-19T09:45:02Z</time></trkpt><trkpt lat="44.671885847895574" lon="10.118208064040141"><ele>197.0</ele><time>2026-04-19T09:45:03Z</time></trkpt><trkpt lat="44.67169074440195" lon="10.118341574622288"><ele>197.0</ele><time>2026-04-19T09:45:04Z</time></trkpt><trkpt lat="44.6714779157511" lon="10.118436290303933"><ele>197.0</ele><time>2026-04-19T09:45:05Z</time></trkpt><trkpt lat="44.671274519288296" lon="10.118538149864472"><ele>197.0</ele><time>2026-04-19T09:45:06Z</time></trkpt><trkpt lat="44.671077713185326" lon="10.118649844749516"><ele>197.0</ele><time>2026-04-19T09:45:07Z</time></trkpt><trkpt lat="44.67088844210033" lon="10.118753640041431"><ele>196.66666666666669</ele><time>2026-04-19T09:45:08Z</time></trkpt><trkpt lat="44.67070627234603" lon="10.11885469248236"><ele>196.33333333333331</ele><time>2026-04-19T09:45:09Z</time></trkpt><trkpt lat="44.670514390144426" lon="10.118960527704742"><ele>196.0</ele><time>2026-04-19T09:45:10Z</time></trkpt><trkpt lat="44.67031394727206" lon="10.119071356838198"><ele>196.0</ele><time>2026-04-19T09:45:11Z</time></trkpt><trkpt lat="44.67011432595152" lon="10.119180251766123"><ele>196.0</ele><time>2026-04-19T09:45:12Z</time></trkpt><trkpt lat="44.669916546914905" lon="10.119292047521267"><ele>196.0</ele><time>2026-04-19T09:45:13Z</time></trkpt><trkpt lat="44.669708794734476" lon="10.119413482311657"><ele>196.0</ele><time>2026-04-19T09:45:14Z</time></trkpt><trkpt lat="44.66949811764398" lon="10.119534948063018"><ele>196.0</ele><time>2026-04-19T09:45:14.999Z</time></trkpt><trkpt lat="44.66927879624043" lon="10.119653619673507"><ele>192.5</ele><time>2026-04-19T09:45:15.999Z</time></trkpt><trkpt lat="44.66904802812919" lon="10.119758260670505"><ele>189.0</ele><time>2026-04-19T09:45:16.999Z</time></trkpt><trkpt lat="44.66881726919891" lon="10.119830969866387"><ele>188.5</ele><time>2026-04-19T09:45:17.999Z</time></trkpt><trkpt lat="44.668578484317244" lon="10.119871898049276"><ele>188.0</ele><time>2026-04-19T09:45:18.999Z</time></trkpt><trkpt lat="44.66835844278258" lon="10.119958128911286"><ele>188.0</ele><time>2026-04-19T09:45:19.999Z</time></trkpt><trkpt lat="44.66813414338549" lon="10.120052345464012"><ele>188.0</ele><time>2026-04-19T09:45:20.999Z</time></trkpt><trkpt lat="44.66792307206466" lon="10.120184938635157"><ele>192.0</ele><time>2026-04-19T09:45:21.999Z</time></trkpt><trkpt lat="44.66770134479154" lon="10.120332153335545"><ele>196.0</ele><time>2026-04-19T09:45:22.999Z</time></trkpt><trkpt lat="44.66748667629082" lon="10.120468687131687"><ele>196.0</ele><time>2026-04-19T09:45:23.999Z</time></trkpt><trkpt lat="44.6672805334766" lon="10.120592939056994"><ele>196.0</ele><time>2026-04-19T09:45:24.999Z</time></trkpt><trkpt lat="44.6670751940269" lon="10.120711031581655"><ele>196.0</ele><time>2026-04-19T09:45:25.999Z</time></trkpt><trkpt lat="44.666871358623865" lon="10.12082792598822"><ele>197.0</ele><time>2026-04-19T09:45:26.999Z</time></trkpt><trkpt lat="44.66667243921419" lon="10.120958355810341"><ele>198.0</ele><time>2026-04-19T09:45:27.999Z</time></trkpt><trkpt lat="44.666482109681446" lon="10.121107118852049"><ele>199.0</ele><time>2026-04-19T09:45:28.999Z</time></trkpt><trkpt lat="44.666286674732596" lon="10.121274416131644"><ele>199.5</ele><time>2026-04-19T09:45:29.999Z</time></trkpt><trkpt lat="44.6661006669141" lon="10.121453710213174"><ele>200.0</ele><time>2026-04-19T09:45:30.999Z</time></trkpt><trkpt lat="44.665909604602064" lon="10.121651434174991"><ele>200.0</ele><time>2026-04-19T09:45:31.999Z</time></trkpt><trkpt lat="44.66572469836737" lon="10.12185586627209"><ele>200.0</ele><time>2026-04-19T09:45:32.999Z</time></trkpt><trkpt lat="44.665540752186466" lon="10.122064174810852"><ele>200.0</ele><time>2026-04-19T09:45:33.999Z</time></trkpt><trkpt lat="44.66535413857674" lon="10.122269325463424"><ele>200.0</ele><time>2026-04-19T09:45:34.999Z</time></trkpt><trkpt lat="44.66516718287609" lon="10.12246700018636"><ele>199.5</ele><time>2026-04-19T09:45:35.999Z</time></trkpt><trkpt lat="44.66498205447719" lon="10.122663581915461"><ele>199.0</ele><time>2026-04-19T09:45:36.999Z</time></trkpt><trkpt lat="44.66480486174354" lon="10.122860647207686"><ele>199.0</ele><time>2026-04-19T09:45:37.999Z</time></trkpt><trkpt lat="44.66462453306897" lon="10.123057700042938"><ele>199.0</ele><time>2026-04-19T09:45:38.999Z</time></trkpt><trkpt lat="44.66444228872291" lon="10.123248140529682"><ele>199.33333333333331</ele><time>2026-04-19T09:45:39.999Z</time></trkpt><trkpt lat="44.66426135354009" lon="10.123434989659104"><ele>199.66666666666669</ele><time>2026-04-19T09:45:40.999Z</time></trkpt><trkpt lat="44.664088528875446" lon="10.12362300027256"><ele>200.0</ele><time>2026-04-19T09:45:41.999Z</time></trkpt><trkpt lat="44.66392514474611" lon="10.123812520762906"><ele>200.0</ele><time>2026-04-19T09:45:42.999Z</time></trkpt><trkpt lat="44.66377939432686" lon="10.123999035295563"><ele>200.0</ele><time>2026-04-19T09:45:43.999Z</time></trkpt><trkpt lat="44.663659320421694" lon="10.124185661851536"><ele>200.0</ele><time>2026-04-19T09:45:44.999Z</time></trkpt><trkpt lat="44.66355586845705" lon="10.124389387373487"><ele>200.0</ele><time>2026-04-19T09:45:45.999Z</time></trkpt><trkpt lat="44.66347527902252" lon="10.124591037876057"><ele>200.0</ele><time>2026-04-19T09:45:46.999Z</time></trkpt><trkpt lat="44.66338658183646" lon="10.124766588472795"><ele>200.0</ele><time>2026-04-19T09:45:47.999Z</time></trkpt><trkpt lat="44.66341091309948" lon="10.125039352151548"><ele>202.33333333333334</ele><time>2026-04-19T09:45:48.999Z</time></trkpt><trkpt lat="44.663406741277385" lon="10.125270058159458"><ele>204.66666666666669</ele><time>2026-04-19T09:45:49.999Z</time></trkpt><trkpt lat="44.66336167352987" lon="10.125477607533407"><ele>207.0</ele><time>2026-04-19T09:45:50.999Z</time></trkpt><trkpt lat="44.663245225969376" lon="10.125654764971342"><ele>209.66666666666669</ele><time>2026-04-19T09:45:51.999Z</time></trkpt><trkpt lat="44.66310821457124" lon="10.125852301202944"><ele>212.33333333333334</ele><time>2026-04-19T09:45:52.999Z</time></trkpt><trkpt lat="44.66296238835291" lon="10.126060392908927"><ele>215.0</ele><time>2026-04-19T09:45:53.999Z</time></trkpt><trkpt lat="44.66281129813994" lon="10.126263119028453"><ele>215.33333333333334</ele><time>2026-04-19T09:45:54.999Z</time></trkpt><trkpt lat="44.66267284801662" lon="10.126472622603757"><ele>215.66666666666669</ele><time>2026-04-19T09:45:55.999Z</time></trkpt><trkpt lat="44.66254453435069" lon="10.126667862363714"><ele>216.0</ele><time>2026-04-19T09:45:56.999Z</time></trkpt><trkpt lat="44.66241949291173" lon="10.126837867961124"><ele>216.0</ele><time>2026-04-19T09:45:57.999Z</time></trkpt><trkpt lat="44.6623076038429" lon="10.126985599240388"><ele>216.0</ele><time>2026-04-19T09:45:58.999Z</time></trkpt><trkpt lat="44.66223865777742" lon="10.127115332551563"><ele>216.0</ele><time>2026-04-19T09:45:59.999Z</time></trkpt><trkpt lat="44.66221026678514" lon="10.127258225601667"><ele>216.0</ele><time>2026-04-19T09:46:00.999Z</time></trkpt><trkpt lat="44.662224362271026" lon="10.12744108255587"><ele>217.33333333333331</ele><time>2026-04-19T09:46:01.999Z</time></trkpt><trkpt lat="44.6622543248078" lon="10.127653224902058"><ele>218.66666666666666</ele><time>2026-04-19T09:46:03Z</time></trkpt><trkpt lat="44.66226570692397" lon="10.127869740299088"><ele>220.0</ele><time>2026-04-19T09:46:04Z</time></trkpt><trkpt lat="44.662235200725405" lon="10.128089271671913"><ele>220.0</ele><time>2026-04-19T09:46:05Z</time></trkpt><trkpt lat="44.662179564859585" lon="10.12828946498089"><ele>220.0</ele><time>2026-04-19T09:46:06Z</time></trkpt><trkpt lat="44.66211686474795" lon="10.128459242830468"><ele>220.0</ele><time>2026-04-19T09:46:07Z</time></trkpt><trkpt lat="44.66203930884658" lon="10.128601229398194"><ele>220.0</ele><time>2026-04-19T09:46:08Z</time></trkpt><trkpt lat="44.661931680863496" lon="10.12873615209027"><ele>221.25</ele><time>2026-04-19T09:46:09Z</time></trkpt><trkpt lat="44.66182615256275" lon="10.128851007396117"><ele>222.5</ele><time>2026-04-19T09:46:10Z</time></trkpt><trkpt lat="44.6617328196678" lon="10.128974324863082"><ele>223.75</ele><time>2026-04-19T09:46:11Z</time></trkpt><trkpt lat="44.66166428420075" lon="10.129135545383747"><ele>225.0</ele><time>2026-04-19T09:46:12Z</time></trkpt><trkpt lat="44.66163179351035" lon="10.129309946501932"><ele>225.0</ele><time>2026-04-19T09:46:13Z</time></trkpt><trkpt lat="44.6616140531812" lon="10.129501186867989"><ele>225.0</ele><time>2026-04-19T09:46:14Z</time></trkpt><trkpt lat="44.66159807545734" lon="10.129688939794635"><ele>225.0</ele><time>2026-04-19T09:46:15Z</time></trkpt><trkpt lat="44.66157522978177" lon="10.129854343152752"><ele>225.0</ele><time>2026-04-19T09:46:16Z</time></trkpt><trkpt lat="44.661679595259976" lon="10.130001290334587"><ele>224.2</ele><time>2026-04-19T09:46:17Z</time></trkpt><trkpt lat="44.66174451674194" lon="10.130114615721645"><ele>223.4</ele><time>2026-04-19T09:46:18Z</time></trkpt><trkpt lat="44.661800593461905" lon="10.13022689367028"><ele>222.60000000000002</ele><time>2026-04-19T09:46:19Z</time></trkpt><trkpt lat="44.661847554257484" lon="10.130362784122415"><ele>221.8</ele><time>2026-04-19T09:46:20Z</time></trkpt><trkpt lat="44.66190171027793" lon="10.130510004690999"><ele>221.0</ele><time>2026-04-19T09:46:21Z</time></trkpt><trkpt lat="44.661951800935164" lon="10.130664924128329"><ele>221.25</ele><time>2026-04-19T09:46:22Z</time></trkpt><trkpt lat="44.66199491649649" lon="10.130837554433477"><ele>221.5</ele><time>2026-04-19T09:46:23Z</time></trkpt><trkpt lat="44.66199215421735" lon="10.131030984807785"><ele>221.75</ele><time>2026-04-19T09:46:24Z</time></trkpt><trkpt lat="44.66193864762946" lon="10.131235627735398"><ele>222.0</ele><time>2026-04-19T09:46:25Z</time></trkpt><trkpt lat="44.661869884348036" lon="10.131447934142123"><ele>222.0</ele><time>2026-04-19T09:46:26Z</time></trkpt><trkpt lat="44.66180331437658" lon="10.131657699104757"><ele>222.0</ele><time>2026-04-19T09:46:27Z</time></trkpt><trkpt lat="44.661748597357004" lon="10.131870912115179"><ele>222.0</ele><time>2026-04-19T09:46:28Z</time></trkpt><trkpt lat="44.66170899263805" lon="10.132085918223952"><ele>222.0</ele><time>2026-04-19T09:46:29Z</time></trkpt><trkpt lat="44.66167567492166" lon="10.132302108732107"><ele>222.0</ele><time>2026-04-19T09:46:30Z</time></trkpt><trkpt lat="44.66164730779975" lon="10.132516936264294"><ele>222.0</ele><time>2026-04-19T09:46:31Z</time></trkpt><trkpt lat="44.661627284064195" lon="10.132727313649175"><ele>224.0</ele><time>2026-04-19T09:46:32Z</time></trkpt><trkpt lat="44.66163090776127" lon="10.13293518251576"><ele>226.0</ele><time>2026-04-19T09:46:33Z</time></trkpt><trkpt lat="44.66166767185569" lon="10.13316235147997"><ele>228.0</ele><time>2026-04-19T09:46:34Z</time></trkpt><trkpt lat="44.661712014297045" lon="10.133389846456117"><ele>228.33333333333331</ele><time>2026-04-19T09:46:35Z</time></trkpt><trkpt lat="44.66174666762971" lon="10.133626137889912"><ele>228.66666666666666</ele><time>2026-04-19T09:46:36Z</time></trkpt><trkpt lat="44.66177589811926" lon="10.133882109149619"><ele>229.0</ele><time>2026-04-19T09:46:37Z</time></trkpt><trkpt lat="44.66178973268437" lon="10.13413780488476"><ele>230.0</ele><time>2026-04-19T09:46:38Z</time></trkpt><trkpt lat="44.66178122978503" lon="10.134419902639747"><ele>231.0</ele><time>2026-04-19T09:46:39Z</time></trkpt><trkpt lat="44.66175758504797" lon="10.134695234246776"><ele>232.0</ele><time>2026-04-19T09:46:40Z</time></trkpt><trkpt lat="44.66174388412166" lon="10.134955948656799"><ele>233.33333333333331</ele><time>2026-04-19T09:46:41Z</time></trkpt><trkpt lat="44.661754131009864" lon="10.135195476525444"><ele>234.66666666666669</ele><time>2026-04-19T09:46:42Z</time></trkpt><trkpt lat="44.66175552642658" lon="10.135405772000942"><ele>236.0</ele><time>2026-04-19T09:46:43Z</time></trkpt><trkpt lat="44.6617275332218" lon="10.135612946075293"><ele>237.0</ele><time>2026-04-19T09:46:44Z</time></trkpt><trkpt lat="44.66167316025556" lon="10.135779752581966"><ele>238.00000000000003</ele><time>2026-04-19T09:46:45Z</time></trkpt><trkpt lat="44.661615459851575" lon="10.135918037363266"><ele>239.00000000000003</ele><time>2026-04-19T09:46:46Z</time></trkpt><trkpt lat="44.6615996428543" lon="10.136048467800498"><ele>240.0</ele><time>2026-04-19T09:46:47Z</time></trkpt><trkpt lat="44.661637605449954" lon="10.136163181788442"><ele>241.0</ele><time>2026-04-19T09:46:48Z</time></trkpt><trkpt lat="44.66174507148649" lon="10.136268762073026"><ele>241.0</ele><time>2026-04-19T09:46:49Z</time></trkpt><trkpt lat="44.661878570236695" lon="10.136373259232572"><ele>241.0</ele><time>2026-04-19T09:46:50Z</time></trkpt><trkpt lat="44.66198737073346" lon="10.136495908611426"><ele>241.0</ele><time>2026-04-19T09:46:51Z</time></trkpt><trkpt lat="44.66203948641287" lon="10.13667936206001"><ele>241.0</ele><time>2026-04-19T09:46:52Z</time></trkpt><trkpt lat="44.662036016083775" lon="10.13689110030219"><ele>243.66666666666666</ele><time>2026-04-19T09:46:53Z</time></trkpt><trkpt lat="44.66200355912094" lon="10.137149667545849"><ele>246.33333333333331</ele><time>2026-04-19T09:46:54Z</time></trkpt><trkpt lat="44.66194679215705" lon="10.137395122753224"><ele>249.0</ele><time>2026-04-19T09:46:55Z</time></trkpt><trkpt lat="44.66186933850843" lon="10.137633035425267"><ele>249.0</ele><time>2026-04-19T09:46:56Z</time></trkpt><trkpt lat="44.66178507711258" lon="10.137827672079025"><ele>249.0</ele><time>2026-04-19T09:46:57Z</time></trkpt><trkpt lat="44.661722102583326" lon="10.137998471033521"><ele>249.0</ele><time>2026-04-19T09:46:58Z</time></trkpt><trkpt lat="44.66170603250894" lon="10.138205364001074"><ele>249.0</ele><time>2026-04-19T09:46:59Z</time></trkpt><trkpt lat="44.661720380609005" lon="10.138434713467394"><ele>250.5</ele><time>2026-04-19T09:47:00Z</time></trkpt><trkpt lat="44.661700549332394" lon="10.138632648694172"><ele>252.0</ele><time>2026-04-19T09:47:01Z</time></trkpt><trkpt lat="44.66164556725392" lon="10.138782618492106"><ele>253.5</ele><time>2026-04-19T09:47:02Z</time></trkpt><trkpt lat="44.66162356785761" lon="10.13888978201877"><ele>255.0</ele><time>2026-04-19T09:47:03Z</time></trkpt><trkpt lat="44.66171878907472" lon="10.13899721643628"><ele>255.0</ele><time>2026-04-19T09:47:05Z</time></trkpt><trkpt lat="44.66178871589294" lon="10.138988610536094"><ele>255.0</ele><time>2026-04-19T09:47:06Z</time></trkpt><trkpt lat="44.661856704003135" lon="10.138909926155002"><ele>255.0</ele><time>2026-04-19T09:47:07Z</time></trkpt><trkpt lat="44.66191685650162" lon="10.138746848514053"><ele>255.0</ele><time>2026-04-19T09:47:08Z</time></trkpt><trkpt lat="44.66195058183754" lon="10.138547139593836"><ele>255.0</ele><time>2026-04-19T09:47:09Z</time></trkpt><trkpt lat="44.66196716077181" lon="10.138362061086143"><ele>258.0</ele><time>2026-04-19T09:47:10Z</time></trkpt><trkpt lat="44.6620088998175" lon="10.138211470264633"><ele>261.0</ele><time>2026-04-19T09:47:11Z</time></trkpt><trkpt lat="44.66210490540996" lon="10.138082686930195"><ele>264.0</ele><time>2026-04-19T09:47:12Z</time></trkpt><trkpt lat="44.66225496753306" lon="10.137997447342155"><ele>267.0</ele><time>2026-04-19T09:47:13Z</time></trkpt><trkpt lat="44.66237608453117" lon="10.137836949742308"><ele>267.0</ele><time>2026-04-19T09:47:14Z</time></trkpt><trkpt lat="44.6624748999938" lon="10.137717577834767"><ele>267.0</ele><time>2026-04-19T09:47:15Z</time></trkpt><trkpt lat="44.66259143907364" lon="10.137665015017724"><ele>267.0</ele><time>2026-04-19T09:47:15.999Z</time></trkpt><trkpt lat="44.66274911905611" lon="10.137597812588004"><ele>267.0</ele><time>2026-04-19T09:47:16.999Z</time></trkpt><trkpt lat="44.662891179183646" lon="10.137484723789713"><ele>272.3333333333333</ele><time>2026-04-19T09:47:17.999Z</time></trkpt><trkpt lat="44.663009754858834" lon="10.137331847076519"><ele>277.66666666666663</ele><time>2026-04-19T09:47:18.999Z</time></trkpt><trkpt lat="44.663114417799555" lon="10.137147485297149"><ele>283.0</ele><time>2026-04-19T09:47:19.999Z</time></trkpt><trkpt lat="44.66324222455473" lon="10.137063131240666"><ele>283.0</ele><time>2026-04-19T09:47:20.999Z</time></trkpt><trkpt lat="44.663319427361934" lon="10.136978871678654"><ele>283.0</ele><time>2026-04-19T09:47:21.999Z</time></trkpt><trkpt lat="44.66336708947721" lon="10.136891111751181"><ele>283.0</ele><time>2026-04-19T09:47:22.999Z</time></trkpt><trkpt lat="44.663374206393534" lon="10.136755737164961"><ele>283.0</ele><time>2026-04-19T09:47:23.999Z</time></trkpt><trkpt lat="44.66333444498911" lon="10.136599045002708"><ele>283.0</ele><time>2026-04-19T09:47:24.999Z</time></trkpt><trkpt lat="44.66324264078854" lon="10.136413614851287"><ele>282.5</ele><time>2026-04-19T09:47:25.999Z</time></trkpt><trkpt lat="44.66320243340719" lon="10.1362169166349"><ele>282.0</ele><time>2026-04-19T09:47:26.999Z</time></trkpt><trkpt lat="44.66319884215933" lon="10.136044100588434"><ele>281.5</ele><time>2026-04-19T09:47:27.999Z</time></trkpt><trkpt lat="44.66326371518537" lon="10.135932926929758"><ele>281.0</ele><time>2026-04-19T09:47:28.999Z</time></trkpt><trkpt lat="44.66336024771895" lon="10.135778364398638"><ele>281.5</ele><time>2026-04-19T09:47:29.999Z</time></trkpt><trkpt lat="44.66349164353495" lon="10.135626379025693"><ele>282.0</ele><time>2026-04-19T09:47:30.999Z</time></trkpt><trkpt lat="44.66359169052078" lon="10.135479727237755"><ele>282.5</ele><time>2026-04-19T09:47:31.999Z</time></trkpt><trkpt lat="44.66365439774766" lon="10.135352032106097"><ele>283.0</ele><time>2026-04-19T09:47:32.999Z</time></trkpt><trkpt lat="44.66366093737727" lon="10.135193771391757"><ele>284.25</ele><time>2026-04-19T09:47:33.999Z</time></trkpt><trkpt lat="44.66361859306615" lon="10.135023336264334"><ele>285.5</ele><time>2026-04-19T09:47:34.999Z</time></trkpt><trkpt lat="44.66353964469866" lon="10.134870639196171"><ele>286.75</ele><time>2026-04-19T09:47:35.999Z</time></trkpt><trkpt lat="44.663439651556764" lon="10.134735188803857"><ele>288.0</ele><time>2026-04-19T09:47:36.999Z</time></trkpt><trkpt lat="44.66335453140861" lon="10.134604993558453"><ele>288.0</ele><time>2026-04-19T09:47:37.999Z</time></trkpt><trkpt lat="44.66332504371472" lon="10.13448076940517"><ele>288.0</ele><time>2026-04-19T09:47:38.999Z</time></trkpt><trkpt lat="44.663313530497085" lon="10.134383272890688"><ele>288.0</ele><time>2026-04-19T09:47:39.999Z</time></trkpt><trkpt lat="44.66338106309847" lon="10.13429480135026"><ele>288.0</ele><time>2026-04-19T09:47:41.999Z</time></trkpt><trkpt lat="44.66347771840666" lon="10.134344044488762"><ele>288.0</ele><time>2026-04-19T09:47:43.999Z</time></trkpt><trkpt lat="44.663483756508896" lon="10.134483571041732"><ele>288.0</ele><time>2026-04-19T09:47:44.999Z</time></trkpt><trkpt lat="44.66353277308314" lon="10.134623850655096"><ele>288.0</ele><time>2026-04-19T09:47:45.999Z</time></trkpt><trkpt lat="44.66360837642766" lon="10.134780618344543"><ele>288.0</ele><time>2026-04-19T09:47:46.999Z</time></trkpt><trkpt lat="44.66372446170172" lon="10.134910209307638"><ele>288.0</ele><time>2026-04-19T09:47:47.999Z</time></trkpt><trkpt lat="44.66384605738488" lon="10.135024694982453"><ele>291.75</ele><time>2026-04-19T09:47:48.999Z</time></trkpt><trkpt lat="44.663946484699565" lon="10.135163870623122"><ele>295.5</ele><time>2026-04-19T09:47:49.999Z</time></trkpt><trkpt lat="44.66399132380947" lon="10.135330473603414"><ele>299.25</ele><time>2026-04-19T09:47:50.999Z</time></trkpt><trkpt lat="44.66397390734584" lon="10.135523350172047"><ele>303.0</ele><time>2026-04-19T09:47:51.999Z</time></trkpt><trkpt lat="44.66391433991429" lon="10.135718256872028"><ele>302.25</ele><time>2026-04-19T09:47:52.999Z</time></trkpt><trkpt lat="44.66385939510513" lon="10.135919608267896"><ele>301.5</ele><time>2026-04-19T09:47:53.999Z</time></trkpt><trkpt lat="44.66384747821296" lon="10.136111703400571"><ele>300.75</ele><time>2026-04-19T09:47:54.999Z</time></trkpt><trkpt lat="44.66389210326648" lon="10.136305322145517"><ele>300.0</ele><time>2026-04-19T09:47:55.999Z</time></trkpt><trkpt lat="44.66397368983395" lon="10.136519273841078"><ele>301.6666666666667</ele><time>2026-04-19T09:47:56.999Z</time></trkpt><trkpt lat="44.664057091257654" lon="10.136743386276546"><ele>303.33333333333337</ele><time>2026-04-19T09:47:57.999Z</time></trkpt><trkpt lat="44.66412123362757" lon="10.1369660931277"><ele>305.0</ele><time>2026-04-19T09:47:58.999Z</time></trkpt><trkpt lat="44.66415623749865" lon="10.137179695158588"><ele>306.33333333333337</ele><time>2026-04-19T09:47:59.999Z</time></trkpt><trkpt lat="44.664134448414494" lon="10.137400608034406"><ele>307.6666666666667</ele><time>2026-04-19T09:48:00.999Z</time></trkpt><trkpt lat="44.66407632983998" lon="10.137591636066697"><ele>309.0</ele><time>2026-04-19T09:48:01.999Z</time></trkpt><trkpt lat="44.66398858743037" lon="10.137782311807713"><ele>309.0</ele><time>2026-04-19T09:48:02.999Z</time></trkpt><trkpt lat="44.66386010505175" lon="10.137948901719968"><ele>309.0</ele><time>2026-04-19T09:48:03.999Z</time></trkpt><trkpt lat="44.66375319660196" lon="10.138102066055408"><ele>309.0</ele><time>2026-04-19T09:48:04.999Z</time></trkpt><trkpt lat="44.6636779416895" lon="10.138245387821774"><ele>311.75</ele><time>2026-04-19T09:48:05.999Z</time></trkpt><trkpt lat="44.6636320574633" lon="10.138381945747081"><ele>314.5</ele><time>2026-04-19T09:48:06.999Z</time></trkpt><trkpt lat="44.663640288754685" lon="10.138538148566367"><ele>317.25</ele><time>2026-04-19T09:48:07.999Z</time></trkpt><trkpt lat="44.66366215506064" lon="10.138765506761803"><ele>320.0</ele><time>2026-04-19T09:48:09Z</time></trkpt><trkpt lat="44.66370801721823" lon="10.139010257832602"><ele>321.75</ele><time>2026-04-19T09:48:10Z</time></trkpt><trkpt lat="44.663719320568454" lon="10.139237731677687"><ele>323.5</ele><time>2026-04-19T09:48:11Z</time></trkpt><trkpt lat="44.66365434814301" lon="10.139395396137902"><ele>325.25</ele><time>2026-04-19T09:48:12Z</time></trkpt><trkpt lat="44.66358934300249" lon="10.139519623028535"><ele>327.0</ele><time>2026-04-19T09:48:13Z</time></trkpt><trkpt lat="44.66353920531717" lon="10.139642621213701"><ele>326.5</ele><time>2026-04-19T09:48:14Z</time></trkpt><trkpt lat="44.66357015330625" lon="10.13977118674785"><ele>326.0</ele><time>2026-04-19T09:48:15Z</time></trkpt><trkpt lat="44.66366469671882" lon="10.139897649985718"><ele>325.5</ele><time>2026-04-19T09:48:16Z</time></trkpt><trkpt lat="44.66381495486584" lon="10.140014844351482"><ele>325.0</ele><time>2026-04-19T09:48:17Z</time></trkpt><trkpt lat="44.66397393180228" lon="10.140124563124377"><ele>325.0</ele><time>2026-04-19T09:48:18Z</time></trkpt><trkpt lat="44.66409033907922" lon="10.140285117157287"><ele>325.0</ele><time>2026-04-19T09:48:19Z</time></trkpt><trkpt lat="44.664170466607935" lon="10.140484431623074"><ele>325.0</ele><time>2026-04-19T09:48:20Z</time></trkpt><trkpt lat="44.66422987952317" lon="10.14071898510599"><ele>323.0</ele><time>2026-04-19T09:48:21Z</time></trkpt><trkpt lat="44.664286732480676" lon="10.140980209805052"><ele>321.0</ele><time>2026-04-19T09:48:22Z</time></trkpt><trkpt lat="44.664339030694855" lon="10.141232456056857"><ele>319.0</ele><time>2026-04-19T09:48:23Z</time></trkpt><trkpt lat="44.66440966838168" lon="10.141461698118144"><ele>322.3333333333333</ele><time>2026-04-19T09:48:24Z</time></trkpt><trkpt lat="44.66448167269013" lon="10.14166856683598"><ele>325.6666666666667</ele><time>2026-04-19T09:48:25Z</time></trkpt><trkpt lat="44.664562556777845" lon="10.14185671465046"><ele>329.0</ele><time>2026-04-19T09:48:26Z</time></trkpt><trkpt lat="44.66468085651272" lon="10.142013942803205"><ele>329.0</ele><time>2026-04-19T09:48:27Z</time></trkpt><trkpt lat="44.664832105391085" lon="10.142151192301501"><ele>329.0</ele><time>2026-04-19T09:48:28Z</time></trkpt><trkpt lat="44.6649484166052" lon="10.142286764394223"><ele>329.0</ele><time>2026-04-19T09:48:29Z</time></trkpt><trkpt lat="44.66501602352037" lon="10.142402843646904"><ele>329.0</ele><time>2026-04-19T09:48:30Z</time></trkpt><trkpt lat="44.66502125291285" lon="10.142532694093376"><ele>327.75</ele><time>2026-04-19T09:48:31Z</time></trkpt><trkpt lat="44.66495898679991" lon="10.142666819484681"><ele>326.5</ele><time>2026-04-19T09:48:32Z</time></trkpt><trkpt lat="44.66490802228333" lon="10.142842832049995"><ele>325.25</ele><time>2026-04-19T09:48:33Z</time></trkpt><trkpt lat="44.664845462637295" lon="10.14303377163021"><ele>324.0</ele><time>2026-04-19T09:48:34Z</time></trkpt><trkpt lat="44.66474897056826" lon="10.143211712555182"><ele>324.0</ele><time>2026-04-19T09:48:35Z</time></trkpt><trkpt lat="44.66461550432117" lon="10.143364300641332"><ele>324.0</ele><time>2026-04-19T09:48:36Z</time></trkpt><trkpt lat="44.6644682507363" lon="10.143500719706074"><ele>324.0</ele><time>2026-04-19T09:48:37Z</time></trkpt><trkpt lat="44.664354863681226" lon="10.143623347980999"><ele>324.0</ele><time>2026-04-19T09:48:38Z</time></trkpt><trkpt lat="44.66427381372892" lon="10.14374530446277"><ele>324.0</ele><time>2026-04-19T09:48:39Z</time></trkpt><trkpt lat="44.664219908060765" lon="10.143886021950438"><ele>324.0</ele><time>2026-04-19T09:48:40Z</time></trkpt><trkpt lat="44.66421219550719" lon="10.144077110481923"><ele>324.0</ele><time>2026-04-19T09:48:41Z</time></trkpt><trkpt lat="44.66420043482524" lon="10.144287386112754"><ele>326.5</ele><time>2026-04-19T09:48:42Z</time></trkpt><trkpt lat="44.664228510692254" lon="10.144497734721234"><ele>329.0</ele><time>2026-04-19T09:48:43Z</time></trkpt><trkpt lat="44.66427907029022" lon="10.144694756745928"><ele>331.5</ele><time>2026-04-19T09:48:44Z</time></trkpt><trkpt lat="44.66434589720272" lon="10.1448607516817"><ele>334.0</ele><time>2026-04-19T09:48:45Z</time></trkpt><trkpt lat="44.6644125598417" lon="10.145030396528313"><ele>334.0</ele><time>2026-04-19T09:48:46Z</time></trkpt><trkpt lat="44.66446688836753" lon="10.145208772109221"><ele>334.0</ele><time>2026-04-19T09:48:47Z</time></trkpt><trkpt lat="44.664520285286585" lon="10.145392082027138"><ele>334.0</ele><time>2026-04-19T09:48:48Z</time></trkpt><trkpt lat="44.66457347797667" lon="10.145569407216172"><ele>334.0</ele><time>2026-04-19T09:48:49Z</time></trkpt><trkpt lat="44.66462490589103" lon="10.145746072357325"><ele>336.25</ele><time>2026-04-19T09:48:50Z</time></trkpt><trkpt lat="44.66467921789927" lon="10.145919810986394"><ele>338.5</ele><time>2026-04-19T09:48:51Z</time></trkpt><trkpt lat="44.664731003617305" lon="10.146091952817045"><ele>340.75</ele><time>2026-04-19T09:48:52Z</time></trkpt><trkpt lat="44.66478602945047" lon="10.14626382568242"><ele>343.0</ele><time>2026-04-19T09:48:53Z</time></trkpt><trkpt lat="44.664843037013384" lon="10.146438797163528"><ele>344.5</ele><time>2026-04-19T09:48:54Z</time></trkpt><trkpt lat="44.66489659746012" lon="10.146617496816368"><ele>346.0</ele><time>2026-04-19T09:48:55Z</time></trkpt><trkpt lat="44.66494910074661" lon="10.146796930548469"><ele>347.5</ele><time>2026-04-19T09:48:56Z</time></trkpt><trkpt lat="44.66500529410409" lon="10.146976457586822"><ele>349.0</ele><time>2026-04-19T09:48:57Z</time></trkpt><trkpt lat="44.66506363655144" lon="10.147148091323553"><ele>349.0</ele><time>2026-04-19T09:48:58Z</time></trkpt><trkpt lat="44.66511072492657" lon="10.147301345116935"><ele>349.0</ele><time>2026-04-19T09:48:59Z</time></trkpt><trkpt lat="44.66514876434866" lon="10.14743520202138"><ele>349.0</ele><time>2026-04-19T09:49:00Z</time></trkpt><trkpt lat="44.665203274116585" lon="10.147525867934476"><ele>349.0</ele><time>2026-04-19T09:49:01Z</time></trkpt><trkpt lat="44.665293284302535" lon="10.147557996777088"><ele>349.0</ele><time>2026-04-19T09:49:02Z</time></trkpt><trkpt lat="44.665410010547966" lon="10.147515331244172"><ele>350.5</ele><time>2026-04-19T09:49:03Z</time></trkpt><trkpt lat="44.665554903903775" lon="10.147425200516023"><ele>352.0</ele><time>2026-04-19T09:49:04Z</time></trkpt><trkpt lat="44.66568670094087" lon="10.147352956284058"><ele>353.5</ele><time>2026-04-19T09:49:05Z</time></trkpt><trkpt lat="44.66578245779345" lon="10.147328772598952"><ele>355.0</ele><time>2026-04-19T09:49:06Z</time></trkpt><trkpt lat="44.66588076587553" lon="10.147323824935738"><ele>358.6</ele><time>2026-04-19T09:49:08Z</time></trkpt><trkpt lat="44.66592123347048" lon="10.147440053465706"><ele>362.2</ele><time>2026-04-19T09:49:10Z</time></trkpt><trkpt lat="44.665898458177615" lon="10.147553695032357"><ele>365.79999999999995</ele><time>2026-04-19T09:49:11Z</time></trkpt><trkpt lat="44.66584482860742" lon="10.147699488858906"><ele>369.4</ele><time>2026-04-19T09:49:12Z</time></trkpt><trkpt lat="44.66582303106918" lon="10.147853400504129"><ele>373.0</ele><time>2026-04-19T09:49:13Z</time></trkpt><trkpt lat="44.665867490874966" lon="10.148047424928105"><ele>372.3333333333333</ele><time>2026-04-19T09:49:14Z</time></trkpt><trkpt lat="44.66594554149399" lon="10.148217274528045"><ele>371.6666666666667</ele><time>2026-04-19T09:49:15Z</time></trkpt><trkpt lat="44.66604577162182" lon="10.148388285839596"><ele>371.0</ele><time>2026-04-19T09:49:16Z</time></trkpt><trkpt lat="44.6661318411101" lon="10.148586151391362"><ele>376.5</ele><time>2026-04-19T09:49:17Z</time></trkpt><trkpt lat="44.666182818868606" lon="10.148796240247423"><ele>382.0</ele><time>2026-04-19T09:49:18Z</time></trkpt><trkpt lat="44.6662294478731" lon="10.148975967505258"><ele>387.5</ele><time>2026-04-19T09:49:19Z</time></trkpt><trkpt lat="44.66628818000998" lon="10.14912316457172"><ele>393.0</ele><time>2026-04-19T09:49:19.999Z</time></trkpt><trkpt lat="44.66636890025729" lon="10.149235219065497"><ele>393.0</ele><time>2026-04-19T09:49:20.999Z</time></trkpt><trkpt lat="44.6664099509365" lon="10.1493653055833"><ele>393.0</ele><time>2026-04-19T09:49:21.999Z</time></trkpt><trkpt lat="44.666404856981686" lon="10.149522220601526"><ele>393.0</ele><time>2026-04-19T09:49:22.999Z</time></trkpt><trkpt lat="44.666381792373585" lon="10.14967859862527"><ele>393.0</ele><time>2026-04-19T09:49:23.999Z</time></trkpt><trkpt lat="44.66625174718169" lon="10.149794058051123"><ele>394.75</ele><time>2026-04-19T09:49:24.999Z</time></trkpt><trkpt lat="44.66614300954533" lon="10.149913602660966"><ele>396.5</ele><time>2026-04-19T09:49:25.999Z</time></trkpt><trkpt lat="44.666020365362016" lon="10.150010602081348"><ele>398.25</ele><time>2026-04-19T09:49:26.999Z</time></trkpt><trkpt lat="44.66594559946703" lon="10.150100230043659"><ele>400.0</ele><time>2026-04-19T09:49:27.999Z</time></trkpt><trkpt lat="44.665911984955144" lon="10.150207041584231"><ele>397.75</ele><time>2026-04-19T09:49:28.999Z</time></trkpt><trkpt lat="44.665915378708405" lon="10.150341352944311"><ele>395.5</ele><time>2026-04-19T09:49:29.999Z</time></trkpt><trkpt lat="44.66595505211741" lon="10.1504968095164"><ele>393.25</ele><time>2026-04-19T09:49:30.999Z</time></trkpt><trkpt lat="44.666019847229045" lon="10.150644812820154"><ele>391.0</ele><time>2026-04-19T09:49:31.999Z</time></trkpt><trkpt lat="44.66609855981446" lon="10.150802322922761"><ele>394.5</ele><time>2026-04-19T09:49:32.999Z</time></trkpt><trkpt lat="44.666184729589574" lon="10.150949982499638"><ele>398.0</ele><time>2026-04-19T09:49:33.999Z</time></trkpt><trkpt lat="44.66628092590076" lon="10.1510786259178"><ele>401.5</ele><time>2026-04-19T09:49:34.999Z</time></trkpt><trkpt lat="44.6663907463355" lon="10.151184649987385"><ele>405.0</ele><time>2026-04-19T09:49:35.999Z</time></trkpt><trkpt lat="44.666473564609234" lon="10.151299832121909"><ele>405.0</ele><time>2026-04-19T09:49:36.999Z</time></trkpt><trkpt lat="44.66656669112644" lon="10.151387088926501"><ele>405.0</ele><time>2026-04-19T09:49:37.999Z</time></trkpt><trkpt lat="44.666639391063704" lon="10.151476362579883"><ele>405.0</ele><time>2026-04-19T09:49:38.999Z</time></trkpt><trkpt lat="44.6666961018557" lon="10.151562830770178"><ele>405.0</ele><time>2026-04-19T09:49:39.999Z</time></trkpt><trkpt lat="44.666710292386036" lon="10.151676801383719"><ele>405.0</ele><time>2026-04-19T09:49:40.999Z</time></trkpt><trkpt lat="44.66668628407449" lon="10.15180545950131"><ele>403.75</ele><time>2026-04-19T09:49:41.999Z</time></trkpt><trkpt lat="44.66663764057835" lon="10.151947625390234"><ele>402.5</ele><time>2026-04-19T09:49:42.999Z</time></trkpt><trkpt lat="44.66657614004689" lon="10.152101859292893"><ele>401.25</ele><time>2026-04-19T09:49:43.999Z</time></trkpt><trkpt lat="44.66651879279874" lon="10.152259490645418"><ele>400.0</ele><time>2026-04-19T09:49:44.999Z</time></trkpt><trkpt lat="44.666475390547355" lon="10.15241938976183"><ele>398.75</ele><time>2026-04-19T09:49:45.999Z</time></trkpt><trkpt lat="44.66643010762056" lon="10.15257864729057"><ele>397.5</ele><time>2026-04-19T09:49:46.999Z</time></trkpt><trkpt lat="44.66638331551299" lon="10.152728022280296"><ele>396.25</ele><time>2026-04-19T09:49:47.999Z</time></trkpt><trkpt lat="44.666337805657285" lon="10.152866999549824"><ele>395.0</ele><time>2026-04-19T09:49:48.999Z</time></trkpt><trkpt lat="44.66629551903755" lon="10.153010345417577"><ele>395.0</ele><time>2026-04-19T09:49:49.999Z</time></trkpt><trkpt lat="44.6662437740679" lon="10.153145373411062"><ele>395.0</ele><time>2026-04-19T09:49:50.999Z</time></trkpt><trkpt lat="44.666179906161794" lon="10.153259278182528"><ele>395.0</ele><time>2026-04-19T09:49:51.999Z</time></trkpt><trkpt lat="44.66612548771721" lon="10.153370186835968"><ele>395.0</ele><time>2026-04-19T09:49:52.999Z</time></trkpt><trkpt lat="44.666094010952776" lon="10.153487947653629"><ele>395.0</ele><time>2026-04-19T09:49:53.999Z</time></trkpt><trkpt lat="44.6660771204381" lon="10.153610312750276"><ele>392.3333333333333</ele><time>2026-04-19T09:49:54.999Z</time></trkpt><trkpt lat="44.66606571154951" lon="10.153726428275212"><ele>389.66666666666663</ele><time>2026-04-19T09:49:55.999Z</time></trkpt><trkpt lat="44.66605271601678" lon="10.153846671860062"><ele>387.0</ele><time>2026-04-19T09:49:56.999Z</time></trkpt><trkpt lat="44.66603973977596" lon="10.153959719029803"><ele>384.3333333333333</ele><time>2026-04-19T09:49:57.999Z</time></trkpt><trkpt lat="44.666022059595214" lon="10.154056372700643"><ele>381.66666666666663</ele><time>2026-04-19T09:49:58.999Z</time></trkpt><trkpt lat="44.66600230648133" lon="10.154173748301496"><ele>379.0</ele><time>2026-04-19T09:49:59.999Z</time></trkpt><trkpt lat="44.66597468632901" lon="10.154292302695142"><ele>379.0</ele><time>2026-04-19T09:50:00.999Z</time></trkpt><trkpt lat="44.66595052799251" lon="10.154409638381"><ele>379.0</ele><time>2026-04-19T09:50:01.999Z</time></trkpt><trkpt lat="44.66592826927688" lon="10.154540436594285"><ele>379.0</ele><time>2026-04-19T09:50:02.999Z</time></trkpt><trkpt lat="44.665915415273005" lon="10.154671085240777"><ele>379.0</ele><time>2026-04-19T09:50:03.999Z</time></trkpt><trkpt lat="44.6659131365771" lon="10.154810050884008"><ele>379.0</ele><time>2026-04-19T09:50:04.999Z</time></trkpt><trkpt lat="44.66592536017774" lon="10.154953742993978"><ele>379.0</ele><time>2026-04-19T09:50:05.999Z</time></trkpt><trkpt lat="44.665962436478516" lon="10.15509653946476"><ele>379.0</ele><time>2026-04-19T09:50:06.999Z</time></trkpt><trkpt lat="44.6660085029969" lon="10.15523055566817"><ele>379.0</ele><time>2026-04-19T09:50:07.999Z</time></trkpt><trkpt lat="44.66603055145771" lon="10.155370943544481"><ele>379.0</ele><time>2026-04-19T09:50:08.999Z</time></trkpt><trkpt lat="44.66603245022689" lon="10.155533779757763"><ele>379.0</ele><time>2026-04-19T09:50:09.999Z</time></trkpt><trkpt lat="44.66601229928932" lon="10.155689691650446"><ele>378.0</ele><time>2026-04-19T09:50:10.999Z</time></trkpt><trkpt lat="44.665996035645726" lon="10.155844826648366"><ele>377.0</ele><time>2026-04-19T09:50:11.999Z</time></trkpt><trkpt lat="44.665984294310746" lon="10.155985095837694"><ele>376.0</ele><time>2026-04-19T09:50:12.999Z</time></trkpt><trkpt lat="44.66596545018106" lon="10.156114231490351"><ele>375.0</ele><time>2026-04-19T09:50:13.999Z</time></trkpt><trkpt lat="44.66594860985556" lon="10.156238584920088"><ele>374.0</ele><time>2026-04-19T09:50:15Z</time></trkpt><trkpt lat="44.665943611725204" lon="10.156351925752617"><ele>374.0</ele><time>2026-04-19T09:50:16Z</time></trkpt><trkpt lat="44.665951545384004" lon="10.156455485579828"><ele>374.0</ele><time>2026-04-19T09:50:17Z</time></trkpt><trkpt lat="44.66598417108239" lon="10.156564695718323"><ele>374.0</ele><time>2026-04-19T09:50:18Z</time></trkpt><trkpt lat="44.666043746433886" lon="10.156669309034495"><ele>374.0</ele><time>2026-04-19T09:50:19Z</time></trkpt><trkpt lat="44.66612716800451" lon="10.156753596271347"><ele>374.0</ele><time>2026-04-19T09:50:20Z</time></trkpt><trkpt lat="44.66619430298223" lon="10.156862730586505"><ele>373.4</ele><time>2026-04-19T09:50:21Z</time></trkpt><trkpt lat="44.666282676483526" lon="10.156950279165029"><ele>372.79999999999995</ele><time>2026-04-19T09:50:22Z</time></trkpt><trkpt lat="44.666362672519" lon="10.157064267419212"><ele>372.20000000000005</ele><time>2026-04-19T09:50:23Z</time></trkpt><trkpt lat="44.66644539960677" lon="10.157174220630955"><ele>371.6</ele><time>2026-04-19T09:50:24Z</time></trkpt><trkpt lat="44.666523369307725" lon="10.15727345622366"><ele>371.0</ele><time>2026-04-19T09:50:25Z</time></trkpt><trkpt lat="44.66659209315745" lon="10.157372491589182"><ele>373.8</ele><time>2026-04-19T09:50:26Z</time></trkpt><trkpt lat="44.66665626777888" lon="10.1574795828671"><ele>376.6</ele><time>2026-04-19T09:50:27Z</time></trkpt><trkpt lat="44.66670393715324" lon="10.157600598979183"><ele>379.4</ele><time>2026-04-19T09:50:28Z</time></trkpt><trkpt lat="44.66673385865301" lon="10.1577446464284"><ele>382.2</ele><time>2026-04-19T09:50:29Z</time></trkpt><trkpt lat="44.66674454716637" lon="10.157896062264642"><ele>385.0</ele><time>2026-04-19T09:50:30Z</time></trkpt><trkpt lat="44.666735084235555" lon="10.158045484041146"><ele>385.0</ele><time>2026-04-19T09:50:31Z</time></trkpt><trkpt lat="44.66669561136022" lon="10.158191121783481"><ele>385.0</ele><time>2026-04-19T09:50:32Z</time></trkpt><trkpt lat="44.666639445183655" lon="10.15832412633012"><ele>385.0</ele><time>2026-04-19T09:50:33Z</time></trkpt><trkpt lat="44.66656626661425" lon="10.158440830308699"><ele>385.0</ele><time>2026-04-19T09:50:34Z</time></trkpt><trkpt lat="44.66648236581003" lon="10.15853746968878"><ele>385.0</ele><time>2026-04-19T09:50:35Z</time></trkpt><trkpt lat="44.66639616108614" lon="10.158624563771427"><ele>385.8</ele><time>2026-04-19T09:50:36Z</time></trkpt><trkpt lat="44.66631344248986" lon="10.158713915393097"><ele>386.6</ele><time>2026-04-19T09:50:37Z</time></trkpt><trkpt lat="44.6662389762794" lon="10.158790735995018"><ele>387.4</ele><time>2026-04-19T09:50:38Z</time></trkpt><trkpt lat="44.666166764362956" lon="10.158879722765075"><ele>388.2</ele><time>2026-04-19T09:50:39Z</time></trkpt><trkpt lat="44.66609067667876" lon="10.158960043433787"><ele>389.0</ele><time>2026-04-19T09:50:40Z</time></trkpt><trkpt lat="44.66602848363193" lon="10.159038275004027"><ele>390.4</ele><time>2026-04-19T09:50:41Z</time></trkpt><trkpt lat="44.66596223500302" lon="10.159096721358486"><ele>391.79999999999995</ele><time>2026-04-19T09:50:42Z</time></trkpt><trkpt lat="44.66592349803858" lon="10.159245015140035"><ele>393.20000000000005</ele><time>2026-04-19T09:50:44Z</time></trkpt><trkpt lat="44.66588199498729" lon="10.159315779382663"><ele>394.6</ele><time>2026-04-19T09:50:45Z</time></trkpt><trkpt lat="44.66594887555681" lon="10.159502882118849"><ele>396.0</ele><time>2026-04-19T09:50:46Z</time></trkpt><trkpt lat="44.665963950433884" lon="10.15964330138482"><ele>396.0</ele><time>2026-04-19T09:50:47Z</time></trkpt><trkpt lat="44.66601908306397" lon="10.159766399003443"><ele>396.0</ele><time>2026-04-19T09:50:48Z</time></trkpt><trkpt lat="44.66610438693119" lon="10.159900445184936"><ele>396.0</ele><time>2026-04-19T09:50:49Z</time></trkpt><trkpt lat="44.66619504843611" lon="10.160036558160908"><ele>396.0</ele><time>2026-04-19T09:50:50Z</time></trkpt><trkpt lat="44.66629294053391" lon="10.160159242117418"><ele>395.8333333333333</ele><time>2026-04-19T09:50:51Z</time></trkpt><trkpt lat="44.66638217110723" lon="10.160253531834991"><ele>395.66666666666663</ele><time>2026-04-19T09:50:52Z</time></trkpt><trkpt lat="44.66644107032299" lon="10.160328546767458"><ele>395.5</ele><time>2026-04-19T09:50:53Z</time></trkpt><trkpt lat="44.66642286533938" lon="10.160462834624237"><ele>395.3333333333333</ele><time>2026-04-19T09:50:55Z</time></trkpt><trkpt lat="44.66635617659489" lon="10.160487937845124"><ele>395.16666666666663</ele><time>2026-04-19T09:50:56Z</time></trkpt><trkpt lat="44.66629473857218" lon="10.160455114524629"><ele>395.0</ele><time>2026-04-19T09:50:57Z</time></trkpt><trkpt lat="44.66626606220034" lon="10.16034060822367"><ele>394.99999999999994</ele><time>2026-04-19T09:50:58Z</time></trkpt><trkpt lat="44.66619932373743" lon="10.160265749172211"><ele>395.0</ele><time>2026-04-19T09:50:59Z</time></trkpt><trkpt lat="44.666129434466384" lon="10.16019978858256"><ele>395.0</ele><time>2026-04-19T09:51:00Z</time></trkpt><trkpt lat="44.6660427665775" lon="10.160198834807684"><ele>395.0</ele><time>2026-04-19T09:51:01Z</time></trkpt><trkpt lat="44.66596932320982" lon="10.160274216092454"><ele>394.99999999999994</ele><time>2026-04-19T09:51:02Z</time></trkpt><trkpt lat="44.66594258823163" lon="10.160398167676519"><ele>395.0</ele><time>2026-04-19T09:51:03Z</time></trkpt><trkpt lat="44.665984162882005" lon="10.160539211459776"><ele>396.5</ele><time>2026-04-19T09:51:04Z</time></trkpt><trkpt lat="44.66604802275227" lon="10.160647166897656"><ele>398.0</ele><time>2026-04-19T09:51:05Z</time></trkpt><trkpt lat="44.66613512822429" lon="10.160768959967745"><ele>399.5</ele><time>2026-04-19T09:51:06Z</time></trkpt><trkpt lat="44.666202716446634" lon="10.16090308988315"><ele>401.0</ele><time>2026-04-19T09:51:07Z</time></trkpt><trkpt lat="44.66626502507573" lon="10.16104058414204"><ele>403.25</ele><time>2026-04-19T09:51:08Z</time></trkpt><trkpt lat="44.666331094712945" lon="10.161213142409927"><ele>405.5</ele><time>2026-04-19T09:51:09Z</time></trkpt><trkpt lat="44.6663991398508" lon="10.161406497197623"><ele>407.75</ele><time>2026-04-19T09:51:10Z</time></trkpt><trkpt lat="44.66647169107561" lon="10.161599440199526"><ele>410.0</ele><time>2026-04-19T09:51:11Z</time></trkpt><trkpt lat="44.66654141667687" lon="10.161777336780727"><ele>412.75</ele><time>2026-04-19T09:51:12Z</time></trkpt><trkpt lat="44.66659650875638" lon="10.161948940038993"><ele>415.5</ele><time>2026-04-19T09:51:13Z</time></trkpt><trkpt lat="44.66662141752879" lon="10.162116414543501"><ele>418.25</ele><time>2026-04-19T09:51:14Z</time></trkpt><trkpt lat="44.66659966499331" lon="10.162289232541065"><ele>421.0</ele><time>2026-04-19T09:51:15Z</time></trkpt><trkpt lat="44.666555719759" lon="10.162480248510489"><ele>423.5</ele><time>2026-04-19T09:51:16Z</time></trkpt><trkpt lat="44.66649407293266" lon="10.162669379573256"><ele>426.0</ele><time>2026-04-19T09:51:17Z</time></trkpt><trkpt lat="44.66641711875823" lon="10.162846095062337"><ele>428.5</ele><time>2026-04-19T09:51:18Z</time></trkpt><trkpt lat="44.666327163119426" lon="10.163003391827466"><ele>431.0</ele><time>2026-04-19T09:51:19Z</time></trkpt><trkpt lat="44.66624254494266" lon="10.163168967114137"><ele>431.0</ele><time>2026-04-19T09:51:20Z</time></trkpt><trkpt lat="44.66617965043189" lon="10.16330806775855"><ele>431.0</ele><time>2026-04-19T09:51:21Z</time></trkpt><trkpt lat="44.66612079180587" lon="10.163437494636284"><ele>431.0</ele><time>2026-04-19T09:51:21.999Z</time></trkpt><trkpt lat="44.66605216507643" lon="10.16356646281676"><ele>431.0</ele><time>2026-04-19T09:51:22.999Z</time></trkpt><trkpt lat="44.66596385889327" lon="10.163684444849105"><ele>431.25</ele><time>2026-04-19T09:51:23.999Z</time></trkpt><trkpt lat="44.665863367748834" lon="10.163792392165167"><ele>431.5</ele><time>2026-04-19T09:51:24.999Z</time></trkpt><trkpt lat="44.66576177320774" lon="10.16390176448222"><ele>431.75</ele><time>2026-04-19T09:51:25.999Z</time></trkpt><trkpt lat="44.66566243628154" lon="10.16400624989107"><ele>432.0</ele><time>2026-04-19T09:51:26.999Z</time></trkpt><trkpt lat="44.66555602764865" lon="10.164110806146827"><ele>432.0</ele><time>2026-04-19T09:51:27.999Z</time></trkpt><trkpt lat="44.66545639017607" lon="10.164217406526296"><ele>432.0</ele><time>2026-04-19T09:51:28.999Z</time></trkpt><trkpt lat="44.665355037491096" lon="10.1643267280728"><ele>432.0</ele><time>2026-04-19T09:51:29.999Z</time></trkpt><trkpt lat="44.665258356850906" lon="10.164447620094647"><ele>432.0</ele><time>2026-04-19T09:51:30.999Z</time></trkpt><trkpt lat="44.66518123742387" lon="10.164537032928676"><ele>431.40000000000003</ele><time>2026-04-19T09:51:31.999Z</time></trkpt><trkpt lat="44.66510150650074" lon="10.16462149263018"><ele>430.80000000000007</ele><time>2026-04-19T09:51:32.999Z</time></trkpt><trkpt lat="44.665014466523814" lon="10.164722152392788"><ele>430.2</ele><time>2026-04-19T09:51:33.999Z</time></trkpt><trkpt lat="44.66492326474579" lon="10.164826892300143"><ele>429.6</ele><time>2026-04-19T09:51:34.999Z</time></trkpt><trkpt lat="44.664836909076406" lon="10.164937445746814"><ele>429.0</ele><time>2026-04-19T09:51:35.999Z</time></trkpt><trkpt lat="44.66475458269362" lon="10.165037546603127"><ele>430.6666666666667</ele><time>2026-04-19T09:51:36.999Z</time></trkpt><trkpt lat="44.66469193182295" lon="10.165145612870278"><ele>432.33333333333337</ele><time>2026-04-19T09:51:37.999Z</time></trkpt><trkpt lat="44.66463831601646" lon="10.165239324013198"><ele>434.0</ele><time>2026-04-19T09:51:38.999Z</time></trkpt><trkpt lat="44.664596525452374" lon="10.165323600585511"><ele>435.6666666666667</ele><time>2026-04-19T09:51:39.999Z</time></trkpt><trkpt lat="44.66456093097647" lon="10.165427837434745"><ele>437.33333333333337</ele><time>2026-04-19T09:51:41.999Z</time></trkpt><trkpt lat="44.66454695240825" lon="10.165536687923831"><ele>439.0</ele><time>2026-04-19T09:51:44.999Z</time></trkpt><trkpt lat="44.66451866393327" lon="10.165625241157505"><ele>439.1666666666667</ele><time>2026-04-19T09:51:46.999Z</time></trkpt><trkpt lat="44.66446515780467" lon="10.165724715477353"><ele>439.33333333333337</ele><time>2026-04-19T09:51:48.999Z</time></trkpt><trkpt lat="44.66444385503179" lon="10.165814915665479"><ele>439.5</ele><time>2026-04-19T09:51:49.999Z</time></trkpt><trkpt lat="44.664407936179884" lon="10.165905503008915"><ele>439.66666666666663</ele><time>2026-04-19T09:51:50.999Z</time></trkpt><trkpt lat="44.66436870306776" lon="10.165998468282131"><ele>439.8333333333333</ele><time>2026-04-19T09:51:51.999Z</time></trkpt><trkpt lat="44.664314736894866" lon="10.166084302679348"><ele>440.0</ele><time>2026-04-19T09:51:52.999Z</time></trkpt><trkpt lat="44.664217437058596" lon="10.166164725466293"><ele>440.0</ele><time>2026-04-19T09:51:53.999Z</time></trkpt><trkpt lat="44.66410252955736" lon="10.166240057109693"><ele>440.0</ele><time>2026-04-19T09:51:54.999Z</time></trkpt><trkpt lat="44.66400120115918" lon="10.166320741659572"><ele>440.0</ele><time>2026-04-19T09:51:55.999Z</time></trkpt><trkpt lat="44.66392805666304" lon="10.166427889922536"><ele>440.0</ele><time>2026-04-19T09:51:56.999Z</time></trkpt><trkpt lat="44.663869186377866" lon="10.166592562983109"><ele>437.5</ele><time>2026-04-19T09:51:57.999Z</time></trkpt><trkpt lat="44.66381316361187" lon="10.16675670577611"><ele>435.0</ele><time>2026-04-19T09:51:58.999Z</time></trkpt><trkpt lat="44.66376062239936" lon="10.166927672117568"><ele>432.5</ele><time>2026-04-19T09:51:59.999Z</time></trkpt><trkpt lat="44.66372403590442" lon="10.167097977245454"><ele>430.0</ele><time>2026-04-19T09:52:00.999Z</time></trkpt><trkpt lat="44.663692477497015" lon="10.167250479596367"><ele>428.6</ele><time>2026-04-19T09:52:01.999Z</time></trkpt><trkpt lat="44.663669845268885" lon="10.167393654903291"><ele>427.2</ele><time>2026-04-19T09:52:02.999Z</time></trkpt><trkpt lat="44.66367049661838" lon="10.167543664708969"><ele>425.79999999999995</ele><time>2026-04-19T09:52:03.999Z</time></trkpt><trkpt lat="44.66366015374051" lon="10.167700552327924"><ele>424.4</ele><time>2026-04-19T09:52:04.999Z</time></trkpt><trkpt lat="44.66365603361048" lon="10.167855965773466"><ele>423.0</ele><time>2026-04-19T09:52:05.999Z</time></trkpt><trkpt lat="44.66365857477892" lon="10.16800524367378"><ele>423.0</ele><time>2026-04-19T09:52:06.999Z</time></trkpt><trkpt lat="44.663662966231826" lon="10.16814016215053"><ele>423.0</ele><time>2026-04-19T09:52:07.999Z</time></trkpt><trkpt lat="44.66365543757511" lon="10.168258150767418"><ele>423.0</ele><time>2026-04-19T09:52:08.999Z</time></trkpt><trkpt lat="44.66364349267866" lon="10.168368802559069"><ele>423.0</ele><time>2026-04-19T09:52:09.999Z</time></trkpt><trkpt lat="44.663592727597276" lon="10.168483805237871"><ele>423.0</ele><time>2026-04-19T09:52:10.999Z</time></trkpt><trkpt lat="44.663536329054374" lon="10.168578062773532"><ele>423.0</ele><time>2026-04-19T09:52:11.999Z</time></trkpt><trkpt lat="44.66348253203576" lon="10.168690181539121"><ele>426.79999999999995</ele><time>2026-04-19T09:52:12.999Z</time></trkpt><trkpt lat="44.66341477444116" lon="10.168779907042238"><ele>430.6</ele><time>2026-04-19T09:52:13.999Z</time></trkpt><trkpt lat="44.66336136358302" lon="10.168887042237044"><ele>434.40000000000003</ele><time>2026-04-19T09:52:14.999Z</time></trkpt><trkpt lat="44.66332087198852" lon="10.169011357528307"><ele>438.20000000000005</ele><time>2026-04-19T09:52:15.999Z</time></trkpt><trkpt lat="44.6633189381597" lon="10.169138236487516"><ele>442.0</ele><time>2026-04-19T09:52:16.999Z</time></trkpt><trkpt lat="44.66333220689164" lon="10.169283595825325"><ele>442.0</ele><time>2026-04-19T09:52:17.999Z</time></trkpt><trkpt lat="44.663382673636356" lon="10.169393162276158"><ele>442.00000000000006</ele><time>2026-04-19T09:52:18.999Z</time></trkpt><trkpt lat="44.663468262408884" lon="10.169453531057693"><ele>442.00000000000006</ele><time>2026-04-19T09:52:19.999Z</time></trkpt><trkpt lat="44.66357366605016" lon="10.169492869959944"><ele>442.0</ele><time>2026-04-19T09:52:21Z</time></trkpt><trkpt lat="44.66366607708674" lon="10.169499390715162"><ele>442.0</ele><time>2026-04-19T09:52:22Z</time></trkpt><trkpt lat="44.6637523022793" lon="10.169520327766048"><ele>442.6</ele><time>2026-04-19T09:52:23Z</time></trkpt><trkpt lat="44.663839386594105" lon="10.169553973321007"><ele>443.20000000000005</ele><time>2026-04-19T09:52:24Z</time></trkpt><trkpt lat="44.663934254094436" lon="10.169593866109585"><ele>443.8</ele><time>2026-04-19T09:52:25Z</time></trkpt><trkpt lat="44.66403618657757" lon="10.169662087135135"><ele>444.4</ele><time>2026-04-19T09:52:26Z</time></trkpt><trkpt lat="44.66413611105544" lon="10.169776423604393"><ele>445.0</ele><time>2026-04-19T09:52:27Z</time></trkpt><trkpt lat="44.66423113413655" lon="10.1699101752239"><ele>445.0</ele><time>2026-04-19T09:52:28Z</time></trkpt><trkpt lat="44.66431178002931" lon="10.170033228253331"><ele>445.0</ele><time>2026-04-19T09:52:29Z</time></trkpt><trkpt lat="44.6643957327901" lon="10.17014054227321"><ele>445.0</ele><time>2026-04-19T09:52:30Z</time></trkpt><trkpt lat="44.66449709506575" lon="10.170229311126699"><ele>445.0</ele><time>2026-04-19T09:52:31Z</time></trkpt><trkpt lat="44.664614172705754" lon="10.170278835986453"><ele>445.0</ele><time>2026-04-19T09:52:32Z</time></trkpt><trkpt lat="44.66471470191287" lon="10.170342440236364"><ele>445.0</ele><time>2026-04-19T09:52:33Z</time></trkpt><trkpt lat="44.66481984930536" lon="10.170445362319676"><ele>445.0</ele><time>2026-04-19T09:52:34Z</time></trkpt><trkpt lat="44.66492192502287" lon="10.17057378676316"><ele>445.0</ele><time>2026-04-19T09:52:35Z</time></trkpt><trkpt lat="44.66501762494569" lon="10.170715249112025"><ele>445.0</ele><time>2026-04-19T09:52:36Z</time></trkpt><trkpt lat="44.66509828477557" lon="10.170860946441634"><ele>445.0</ele><time>2026-04-19T09:52:37Z</time></trkpt><trkpt lat="44.665166720647434" lon="10.171002822166882"><ele>445.0</ele><time>2026-04-19T09:52:38Z</time></trkpt><trkpt lat="44.66523704745137" lon="10.171139296351937"><ele>445.0</ele><time>2026-04-19T09:52:39Z</time></trkpt><trkpt lat="44.66531190628798" lon="10.171290109260593"><ele>446.8</ele><time>2026-04-19T09:52:40Z</time></trkpt><trkpt lat="44.66536518902074" lon="10.171456225456362"><ele>448.6</ele><time>2026-04-19T09:52:41Z</time></trkpt><trkpt lat="44.665395985772015" lon="10.171620520760902"><ele>450.4</ele><time>2026-04-19T09:52:42Z</time></trkpt><trkpt lat="44.66539827715799" lon="10.17176839333044"><ele>452.2</ele><time>2026-04-19T09:52:43Z</time></trkpt><trkpt lat="44.66537304856852" lon="10.171880037696287"><ele>454.0</ele><time>2026-04-19T09:52:44Z</time></trkpt><trkpt lat="44.66527826487613" lon="10.171957802774452"><ele>454.0</ele><time>2026-04-19T09:52:45Z</time></trkpt><trkpt lat="44.665190623256095" lon="10.172047253396968"><ele>454.0</ele><time>2026-04-19T09:52:46Z</time></trkpt><trkpt lat="44.665101609571444" lon="10.172133866745149"><ele>454.0</ele><time>2026-04-19T09:52:47Z</time></trkpt><trkpt lat="44.665044510756225" lon="10.172249686675197"><ele>454.0</ele><time>2026-04-19T09:52:48Z</time></trkpt><trkpt lat="44.665032453459425" lon="10.172387002678148"><ele>454.0</ele><time>2026-04-19T09:52:49Z</time></trkpt><trkpt lat="44.665075267145866" lon="10.172513166758577"><ele>455.75</ele><time>2026-04-19T09:52:50Z</time></trkpt><trkpt lat="44.665154558263495" lon="10.17259464937422"><ele>457.5</ele><time>2026-04-19T09:52:51Z</time></trkpt><trkpt lat="44.665258606518734" lon="10.172624793513215"><ele>459.25</ele><time>2026-04-19T09:52:52Z</time></trkpt><trkpt lat="44.66538488664331" lon="10.172613788496845"><ele>461.0</ele><time>2026-04-19T09:52:53Z</time></trkpt><trkpt lat="44.665507734619496" lon="10.172655858064243"><ele>454.5</ele><time>2026-04-19T09:52:54Z</time></trkpt><trkpt lat="44.66560868931219" lon="10.172701718087241"><ele>448.0</ele><time>2026-04-19T09:52:55Z</time></trkpt><trkpt lat="44.665671193092024" lon="10.172806191500404"><ele>441.5</ele><time>2026-04-19T09:52:56Z</time></trkpt><trkpt lat="44.66571556649513" lon="10.172957991099576"><ele>435.0</ele><time>2026-04-19T09:52:57Z</time></trkpt><trkpt lat="44.6657642904674" lon="10.173150986370327"><ele>437.5</ele><time>2026-04-19T09:52:58Z</time></trkpt><trkpt lat="44.66582083078384" lon="10.1733433855305"><ele>440.0</ele><time>2026-04-19T09:52:59Z</time></trkpt><trkpt lat="44.665863173497996" lon="10.173532970158432"><ele>442.5</ele><time>2026-04-19T09:53:00Z</time></trkpt><trkpt lat="44.66591016330125" lon="10.173722598160175"><ele>445.0</ele><time>2026-04-19T09:53:01Z</time></trkpt><trkpt lat="44.66596404507727" lon="10.173910079519523"><ele>446.0</ele><time>2026-04-19T09:53:02Z</time></trkpt><trkpt lat="44.666011859239994" lon="10.174109117615624"><ele>447.0</ele><time>2026-04-19T09:53:03Z</time></trkpt><trkpt lat="44.66605949801395" lon="10.174305231415973"><ele>448.0</ele><time>2026-04-19T09:53:04Z</time></trkpt><trkpt lat="44.66607395476605" lon="10.17450574856005"><ele>449.0</ele><time>2026-04-19T09:53:05Z</time></trkpt><trkpt lat="44.66607400283237" lon="10.174697934284337"><ele>447.5</ele><time>2026-04-19T09:53:06Z</time></trkpt><trkpt lat="44.666063169906835" lon="10.174900571684734"><ele>446.0</ele><time>2026-04-19T09:53:07Z</time></trkpt><trkpt lat="44.666023906037765" lon="10.175101305947221"><ele>444.5</ele><time>2026-04-19T09:53:08Z</time></trkpt><trkpt lat="44.666011275595885" lon="10.175289627472742"><ele>443.0</ele><time>2026-04-19T09:53:09Z</time></trkpt><trkpt lat="44.666031418443154" lon="10.175472044237427"><ele>443.0</ele><time>2026-04-19T09:53:10Z</time></trkpt><trkpt lat="44.66606435936008" lon="10.175662788312385"><ele>443.0</ele><time>2026-04-19T09:53:11Z</time></trkpt><trkpt lat="44.666055555946464" lon="10.175845182435456"><ele>443.0</ele><time>2026-04-19T09:53:12Z</time></trkpt><trkpt lat="44.666021027011055" lon="10.176015107621728"><ele>443.0</ele><time>2026-04-19T09:53:13Z</time></trkpt><trkpt lat="44.665980554784255" lon="10.176198152656925"><ele>440.5</ele><time>2026-04-19T09:53:14Z</time></trkpt><trkpt lat="44.665926094507945" lon="10.176373148967022"><ele>438.0</ele><time>2026-04-19T09:53:15Z</time></trkpt><trkpt lat="44.66588121745267" lon="10.176555920569916"><ele>435.5</ele><time>2026-04-19T09:53:16Z</time></trkpt><trkpt lat="44.665836757307254" lon="10.176736657600488"><ele>433.0</ele><time>2026-04-19T09:53:17Z</time></trkpt><trkpt lat="44.66578981206383" lon="10.176911839057666"><ele>431.25</ele><time>2026-04-19T09:53:18Z</time></trkpt><trkpt lat="44.665743884564634" lon="10.177063754930465"><ele>429.5</ele><time>2026-04-19T09:53:19Z</time></trkpt><trkpt lat="44.66571176288919" lon="10.177219549834483"><ele>427.75</ele><time>2026-04-19T09:53:20Z</time></trkpt><trkpt lat="44.66571747224315" lon="10.177381879323972"><ele>426.0</ele><time>2026-04-19T09:53:21Z</time></trkpt><trkpt lat="44.66576679273723" lon="10.177559013773068"><ele>424.25</ele><time>2026-04-19T09:53:22Z</time></trkpt><trkpt lat="44.66584632860958" lon="10.177736812080893"><ele>422.5</ele><time>2026-04-19T09:53:23Z</time></trkpt><trkpt lat="44.66594094478381" lon="10.17790622755683"><ele>420.75</ele><time>2026-04-19T09:53:24Z</time></trkpt><trkpt lat="44.66602648129114" lon="10.17806769027898"><ele>419.0</ele><time>2026-04-19T09:53:25Z</time></trkpt><trkpt lat="44.6661053661549" lon="10.178226065092385"><ele>421.5</ele><time>2026-04-19T09:53:26Z</time></trkpt><trkpt lat="44.66617968567938" lon="10.178384243028596"><ele>424.0</ele><time>2026-04-19T09:53:27Z</time></trkpt><trkpt lat="44.66624959675949" lon="10.17854205197136"><ele>426.5</ele><time>2026-04-19T09:53:28Z</time></trkpt><trkpt lat="44.66628730478532" lon="10.178715546506517"><ele>429.0</ele><time>2026-04-19T09:53:28.999Z</time></trkpt><trkpt lat="44.666269256796575" lon="10.178896590048822"><ele>428.75</ele><time>2026-04-19T09:53:29.999Z</time></trkpt><trkpt lat="44.666221706255456" lon="10.179077839408817"><ele>428.5</ele><time>2026-04-19T09:53:30.999Z</time></trkpt><trkpt lat="44.66616580435346" lon="10.17923492788237"><ele>428.25</ele><time>2026-04-19T09:53:31.999Z</time></trkpt><trkpt lat="44.66613669296842" lon="10.179397280691418"><ele>428.0</ele><time>2026-04-19T09:53:32.999Z</time></trkpt><trkpt lat="44.66613991454919" lon="10.179571946161841"><ele>428.0</ele><time>2026-04-19T09:53:33.999Z</time></trkpt><trkpt lat="44.66617716748604" lon="10.179729142015516"><ele>428.0</ele><time>2026-04-19T09:53:34.999Z</time></trkpt><trkpt lat="44.66624110086226" lon="10.179851078185377"><ele>428.0</ele><time>2026-04-19T09:53:35.999Z</time></trkpt><trkpt lat="44.66632923024792" lon="10.179967281694141"><ele>428.0</ele><time>2026-04-19T09:53:36.999Z</time></trkpt><trkpt lat="44.66643199371579" lon="10.180077724406042"><ele>425.0</ele><time>2026-04-19T09:53:37.999Z</time></trkpt><trkpt lat="44.66651703482417" lon="10.180200279468558"><ele>422.0</ele><time>2026-04-19T09:53:38.999Z</time></trkpt><trkpt lat="44.666596885654634" lon="10.180316976123741"><ele>419.0</ele><time>2026-04-19T09:53:39.999Z</time></trkpt><trkpt lat="44.66667990572389" lon="10.18043143635663"><ele>416.0</ele><time>2026-04-19T09:53:40.999Z</time></trkpt><trkpt lat="44.66675676506591" lon="10.180543321440714"><ele>416.0</ele><time>2026-04-19T09:53:41.999Z</time></trkpt><trkpt lat="44.66682211565021" lon="10.180672096882807"><ele>416.0</ele><time>2026-04-19T09:53:42.999Z</time></trkpt><trkpt lat="44.666865006400556" lon="10.180826050949275"><ele>416.0</ele><time>2026-04-19T09:53:43.999Z</time></trkpt><trkpt lat="44.66690722233804" lon="10.180978646212894"><ele>416.0</ele><time>2026-04-19T09:53:44.999Z</time></trkpt><trkpt lat="44.66694061294467" lon="10.181141040081638"><ele>415.5</ele><time>2026-04-19T09:53:45.999Z</time></trkpt><trkpt lat="44.666964250685545" lon="10.181313135397172"><ele>415.0</ele><time>2026-04-19T09:53:46.999Z</time></trkpt><trkpt lat="44.666985862225054" lon="10.18147479668851"><ele>414.5</ele><time>2026-04-19T09:53:47.999Z</time></trkpt><trkpt lat="44.66700961140033" lon="10.18162637634378"><ele>414.0</ele><time>2026-04-19T09:53:48.999Z</time></trkpt><trkpt lat="44.66704422378367" lon="10.181792794742176"><ele>414.0</ele><time>2026-04-19T09:53:49.999Z</time></trkpt><trkpt lat="44.667066413234394" lon="10.181955379266746"><ele>414.0</ele><time>2026-04-19T09:53:50.999Z</time></trkpt><trkpt lat="44.66706910661767" lon="10.18213470956655"><ele>414.0</ele><time>2026-04-19T09:53:51.999Z</time></trkpt><trkpt lat="44.66705489306555" lon="10.18230770486392"><ele>414.0</ele><time>2026-04-19T09:53:52.999Z</time></trkpt><trkpt lat="44.66701891822375" lon="10.182472074624053"><ele>411.0</ele><time>2026-04-19T09:53:53.999Z</time></trkpt><trkpt lat="44.66701819847489" lon="10.18261513576835"><ele>408.0</ele><time>2026-04-19T09:53:54.999Z</time></trkpt><trkpt lat="44.66708856205245" lon="10.182739098068922"><ele>405.0</ele><time>2026-04-19T09:53:55.999Z</time></trkpt><trkpt lat="44.667134586483904" lon="10.182892261251967"><ele>402.0</ele><time>2026-04-19T09:53:56.999Z</time></trkpt><trkpt lat="44.66716669153236" lon="10.18305107225791"><ele>400.0</ele><time>2026-04-19T09:53:57.999Z</time></trkpt><trkpt lat="44.667171642127904" lon="10.183218837614366"><ele>398.0</ele><time>2026-04-19T09:53:58.999Z</time></trkpt><trkpt lat="44.66718461113946" lon="10.18336476511005"><ele>396.0</ele><time>2026-04-19T09:53:59.999Z</time></trkpt><trkpt lat="44.66719588763283" lon="10.183467518362168"><ele>394.0</ele><time>2026-04-19T09:54:00.999Z</time></trkpt><trkpt lat="44.66710490294555" lon="10.18359431843308"><ele>392.0</ele><time>2026-04-19T09:54:02.999Z</time></trkpt><trkpt lat="44.667024353416956" lon="10.18357019651304"><ele>392.0</ele><time>2026-04-19T09:54:03.999Z</time></trkpt><trkpt lat="44.66698230116189" lon="10.183432377846591"><ele>392.0</ele><time>2026-04-19T09:54:04.999Z</time></trkpt><trkpt lat="44.66691649580584" lon="10.183334447172532"><ele>392.0</ele><time>2026-04-19T09:54:05.999Z</time></trkpt><trkpt lat="44.666835602059415" lon="10.183235070108259"><ele>392.0</ele><time>2026-04-19T09:54:06.999Z</time></trkpt><trkpt lat="44.66674298644619" lon="10.183159851530556"><ele>392.0</ele><time>2026-04-19T09:54:07.999Z</time></trkpt><trkpt lat="44.66666339996334" lon="10.183080982099444"><ele>387.20000000000005</ele><time>2026-04-19T09:54:08.999Z</time></trkpt><trkpt lat="44.66658709199762" lon="10.183009584626305"><ele>382.4</ele><time>2026-04-19T09:54:09.999Z</time></trkpt><trkpt lat="44.66651286537694" lon="10.182934693444977"><ele>377.6</ele><time>2026-04-19T09:54:10.999Z</time></trkpt><trkpt lat="44.66642484120551" lon="10.182854792247491"><ele>372.79999999999995</ele><time>2026-04-19T09:54:11.999Z</time></trkpt><trkpt lat="44.6663476837136" lon="10.182744045287798"><ele>368.0</ele><time>2026-04-19T09:54:12.999Z</time></trkpt><trkpt lat="44.66627189072917" lon="10.182651882109342"><ele>368.0</ele><time>2026-04-19T09:54:13.999Z</time></trkpt><trkpt lat="44.66621043658995" lon="10.182562474545856"><ele>368.0</ele><time>2026-04-19T09:54:14.999Z</time></trkpt><trkpt lat="44.66615691333325" lon="10.18246997324193"><ele>368.0</ele><time>2026-04-19T09:54:15.999Z</time></trkpt><trkpt lat="44.66609039052107" lon="10.182394986381562"><ele>368.0</ele><time>2026-04-19T09:54:16.999Z</time></trkpt><trkpt lat="44.66604184702038" lon="10.182333711983665"><ele>368.0</ele><time>2026-04-19T09:54:17.999Z</time></trkpt><trkpt lat="44.66597885611225" lon="10.182302154729356"><ele>368.0</ele><time>2026-04-19T09:54:18.999Z</time></trkpt><trkpt lat="44.66590887868376" lon="10.182385191547706"><ele>363.59999999999997</ele><time>2026-04-19T09:54:19.999Z</time></trkpt><trkpt lat="44.66586149809712" lon="10.182512300452347"><ele>359.2</ele><time>2026-04-19T09:54:20.999Z</time></trkpt><trkpt lat="44.6658242935352" lon="10.18266677047461"><ele>354.8</ele><time>2026-04-19T09:54:21.999Z</time></trkpt><trkpt lat="44.665786693878275" lon="10.182817213445494"><ele>350.4</ele><time>2026-04-19T09:54:22.999Z</time></trkpt><trkpt lat="44.665752894527024" lon="10.182960771799788"><ele>346.0</ele><time>2026-04-19T09:54:23.999Z</time></trkpt><trkpt lat="44.665719707005614" lon="10.183105220278097"><ele>344.5</ele><time>2026-04-19T09:54:24.999Z</time></trkpt><trkpt lat="44.66571453506874" lon="10.183258535787102"><ele>343.0</ele><time>2026-04-19T09:54:25.999Z</time></trkpt><trkpt lat="44.66575173444675" lon="10.183401160619203"><ele>341.5</ele><time>2026-04-19T09:54:27Z</time></trkpt><trkpt lat="44.665828554297015" lon="10.18350983110154"><ele>340.0</ele><time>2026-04-19T09:54:28Z</time></trkpt><trkpt lat="44.66592797396707" lon="10.183612469354562"><ele>340.0</ele><time>2026-04-19T09:54:29Z</time></trkpt><trkpt lat="44.66600911964721" lon="10.183715085685067"><ele>340.0</ele><time>2026-04-19T09:54:30Z</time></trkpt><trkpt lat="44.66607444531354" lon="10.183824132448585"><ele>340.0</ele><time>2026-04-19T09:54:31Z</time></trkpt><trkpt lat="44.66614305465609" lon="10.183929283566773"><ele>340.0</ele><time>2026-04-19T09:54:32Z</time></trkpt><trkpt lat="44.66621516773211" lon="10.184022434772627"><ele>340.0</ele><time>2026-04-19T09:54:33Z</time></trkpt><trkpt lat="44.66628802970778" lon="10.184111440921132"><ele>341.16666666666663</ele><time>2026-04-19T09:54:34Z</time></trkpt><trkpt lat="44.66634194062223" lon="10.184216040216011"><ele>342.3333333333333</ele><time>2026-04-19T09:54:35Z</time></trkpt><trkpt lat="44.66637943912659" lon="10.184314839509952"><ele>343.5</ele><time>2026-04-19T09:54:36Z</time></trkpt><trkpt lat="44.66639089384948" lon="10.184408336103008"><ele>344.6666666666667</ele><time>2026-04-19T09:54:37Z</time></trkpt><trkpt lat="44.666348509248394" lon="10.184492264297383"><ele>345.83333333333337</ele><time>2026-04-19T09:54:38Z</time></trkpt><trkpt lat="44.66623778259454" lon="10.184508616537707"><ele>347.0</ele><time>2026-04-19T09:54:39Z</time></trkpt><trkpt lat="44.66614992205639" lon="10.184435011226777"><ele>342.8</ele><time>2026-04-19T09:54:40Z</time></trkpt><trkpt lat="44.66607357617839" lon="10.184332838741064"><ele>338.6</ele><time>2026-04-19T09:54:41Z</time></trkpt><trkpt lat="44.66597848793766" lon="10.184266736017596"><ele>334.40000000000003</ele><time>2026-04-19T09:54:42Z</time></trkpt><trkpt lat="44.665896346173795" lon="10.184188076115381"><ele>330.20000000000005</ele><time>2026-04-19T09:54:43Z</time></trkpt><trkpt lat="44.66582357115861" lon="10.184125262646788"><ele>326.0</ele><time>2026-04-19T09:54:44Z</time></trkpt><trkpt lat="44.66575568939891" lon="10.184059920161598"><ele>326.0</ele><time>2026-04-19T09:54:45Z</time></trkpt><trkpt lat="44.66569003121245" lon="10.183994416887161"><ele>326.0</ele><time>2026-04-19T09:54:46Z</time></trkpt><trkpt lat="44.66562557396226" lon="10.183941819345275"><ele>326.0</ele><time>2026-04-19T09:54:47Z</time></trkpt><trkpt lat="44.665560214898036" lon="10.183938143476142"><ele>326.0</ele><time>2026-04-19T09:54:48Z</time></trkpt><trkpt lat="44.66550173147173" lon="10.18399764267015"><ele>326.0</ele><time>2026-04-19T09:54:49Z</time></trkpt><trkpt lat="44.66546526789378" lon="10.184112192410804"><ele>326.0</ele><time>2026-04-19T09:54:50Z</time></trkpt><trkpt lat="44.66547874280167" lon="10.184238718488087"><ele>326.0</ele><time>2026-04-19T09:54:51Z</time></trkpt><trkpt lat="44.665532136099664" lon="10.184335754968865"><ele>326.0</ele><time>2026-04-19T09:54:52Z</time></trkpt><trkpt lat="44.66560483253835" lon="10.184412097486698"><ele>326.0</ele><time>2026-04-19T09:54:53Z</time></trkpt><trkpt lat="44.66568365193303" lon="10.184499623476368"><ele>326.0</ele><time>2026-04-19T09:54:54Z</time></trkpt><trkpt lat="44.66575564212753" lon="10.184595529287499"><ele>326.0</ele><time>2026-04-19T09:54:55Z</time></trkpt><trkpt lat="44.66582382687729" lon="10.184702097194261"><ele>326.0</ele><time>2026-04-19T09:54:56Z</time></trkpt><trkpt lat="44.66588596731878" lon="10.184811062843876"><ele>326.0</ele><time>2026-04-19T09:54:57Z</time></trkpt><trkpt lat="44.6659309993939" lon="10.184922760964932"><ele>326.0</ele><time>2026-04-19T09:54:58Z</time></trkpt><trkpt lat="44.665944623784405" lon="10.185061399040809"><ele>326.0</ele><time>2026-04-19T09:54:59Z</time></trkpt><trkpt lat="44.66592431616053" lon="10.1851940658763"><ele>326.0</ele><time>2026-04-19T09:55:00Z</time></trkpt><trkpt lat="44.66590929886635" lon="10.185326467236084"><ele>324.1666666666667</ele><time>2026-04-19T09:55:01Z</time></trkpt><trkpt lat="44.66591954945895" lon="10.18544819611058"><ele>322.33333333333337</ele><time>2026-04-19T09:55:02Z</time></trkpt><trkpt lat="44.66594573041114" lon="10.185569596268287"><ele>320.5</ele><time>2026-04-19T09:55:03Z</time></trkpt><trkpt lat="44.665976894258975" lon="10.185678023582167"><ele>318.6666666666667</ele><time>2026-04-19T09:55:04Z</time></trkpt><trkpt lat="44.66600913381846" lon="10.18578969970661"><ele>316.8333333333333</ele><time>2026-04-19T09:55:05Z</time></trkpt><trkpt lat="44.666047297904385" lon="10.185888526735605"><ele>315.0</ele><time>2026-04-19T09:55:06Z</time></trkpt><trkpt lat="44.666103392627925" lon="10.185965045042757"><ele>316.1666666666667</ele><time>2026-04-19T09:55:07Z</time></trkpt><trkpt lat="44.66617090746592" lon="10.186028418767194"><ele>317.3333333333333</ele><time>2026-04-19T09:55:08Z</time></trkpt><trkpt lat="44.66624479132034" lon="10.186085344006809"><ele>318.5</ele><time>2026-04-19T09:55:09Z</time></trkpt><trkpt lat="44.66631355273737" lon="10.186139404214101"><ele>319.66666666666663</ele><time>2026-04-19T09:55:10Z</time></trkpt><trkpt lat="44.666371228250746" lon="10.186198446181315"><ele>320.8333333333333</ele><time>2026-04-19T09:55:11Z</time></trkpt><trkpt lat="44.66642674549655" lon="10.186282454068342"><ele>322.0</ele><time>2026-04-19T09:55:12Z</time></trkpt><trkpt lat="44.66647676540768" lon="10.18637497188303"><ele>322.0</ele><time>2026-04-19T09:55:13Z</time></trkpt><trkpt lat="44.666516530451275" lon="10.186471076679819"><ele>322.0</ele><time>2026-04-19T09:55:14Z</time></trkpt><trkpt lat="44.66656941128569" lon="10.186568477768164"><ele>322.0</ele><time>2026-04-19T09:55:15Z</time></trkpt><trkpt lat="44.6666169050131" lon="10.186662232098513"><ele>322.0</ele><time>2026-04-19T09:55:16Z</time></trkpt><trkpt lat="44.666660553405194" lon="10.186759849073425"><ele>322.0</ele><time>2026-04-19T09:55:17Z</time></trkpt><trkpt lat="44.66670383799051" lon="10.186869309175021"><ele>322.0</ele><time>2026-04-19T09:55:18Z</time></trkpt><trkpt lat="44.66675633487626" lon="10.186972745496053"><ele>319.0</ele><time>2026-04-19T09:55:19Z</time></trkpt><trkpt lat="44.66681651138552" lon="10.187062424607866"><ele>316.0</ele><time>2026-04-19T09:55:20Z</time></trkpt><trkpt lat="44.66686406837976" lon="10.187164476288983"><ele>313.0</ele><time>2026-04-19T09:55:21Z</time></trkpt><trkpt lat="44.666917246248445" lon="10.187270196126894"><ele>310.0</ele><time>2026-04-19T09:55:22Z</time></trkpt><trkpt lat="44.66696626525023" lon="10.18735677722224"><ele>307.0</ele><time>2026-04-19T09:55:23Z</time></trkpt><trkpt lat="44.666991376120244" lon="10.187446316939399"><ele>304.0</ele><time>2026-04-19T09:55:24Z</time></trkpt><trkpt lat="44.66697488361429" lon="10.187553048514207"><ele>301.16666666666663</ele><time>2026-04-19T09:55:25Z</time></trkpt><trkpt lat="44.666922593005" lon="10.187643023344503"><ele>298.3333333333333</ele><time>2026-04-19T09:55:26Z</time></trkpt><trkpt lat="44.6668352840868" lon="10.187672249450959"><ele>295.5</ele><time>2026-04-19T09:55:27Z</time></trkpt><trkpt lat="44.66676287611013" lon="10.18774327027598"><ele>292.6666666666667</ele><time>2026-04-19T09:55:28Z</time></trkpt><trkpt lat="44.66668936296625" lon="10.187787036132866"><ele>289.83333333333337</ele><time>2026-04-19T09:55:29Z</time></trkpt><trkpt lat="44.66663753052587" lon="10.187852220964901"><ele>287.0</ele><time>2026-04-19T09:55:30Z</time></trkpt><trkpt lat="44.666532156047374" lon="10.187781518755719"><ele>287.0</ele><time>2026-04-19T09:55:31Z</time></trkpt><trkpt lat="44.66645151804392" lon="10.187776743179647"><ele>287.0</ele><time>2026-04-19T09:55:32Z</time></trkpt><trkpt lat="44.666369486281205" lon="10.18779729399253"><ele>287.0</ele><time>2026-04-19T09:55:33Z</time></trkpt><trkpt lat="44.66628181202277" lon="10.187801234269816"><ele>287.0</ele><time>2026-04-19T09:55:34Z</time></trkpt><trkpt lat="44.66619373719023" lon="10.187814149731022"><ele>287.0</ele><time>2026-04-19T09:55:34.999Z</time></trkpt><trkpt lat="44.66610840567515" lon="10.18783178309234"><ele>287.0</ele><time>2026-04-19T09:55:35.999Z</time></trkpt><trkpt lat="44.666020534102856" lon="10.187851363169699"><ele>285.2</ele><time>2026-04-19T09:55:36.999Z</time></trkpt><trkpt lat="44.665931524573516" lon="10.187874779990842"><ele>283.4</ele><time>2026-04-19T09:55:37.999Z</time></trkpt><trkpt lat="44.66584030393911" lon="10.187901907561402"><ele>281.6</ele><time>2026-04-19T09:55:38.999Z</time></trkpt><trkpt lat="44.66575194503401" lon="10.18793505335093"><ele>279.8</ele><time>2026-04-19T09:55:39.999Z</time></trkpt><trkpt lat="44.665667221548084" lon="10.187968370313694"><ele>278.0</ele><time>2026-04-19T09:55:40.999Z</time></trkpt><trkpt lat="44.66557792105909" lon="10.188003109120686"><ele>278.0</ele><time>2026-04-19T09:55:41.999Z</time></trkpt><trkpt lat="44.66549113108448" lon="10.188038979728095"><ele>278.0</ele><time>2026-04-19T09:55:42.999Z</time></trkpt><trkpt lat="44.66540312787486" lon="10.18806270441638"><ele>278.0</ele><time>2026-04-19T09:55:43.999Z</time></trkpt><trkpt lat="44.66531063538344" lon="10.188090170457851"><ele>278.0</ele><time>2026-04-19T09:55:44.999Z</time></trkpt><trkpt lat="44.66522098612092" lon="10.188121457965831"><ele>278.0</ele><time>2026-04-19T09:55:45.999Z</time></trkpt><trkpt lat="44.665128119921796" lon="10.18813167208278"><ele>275.8</ele><time>2026-04-19T09:55:46.999Z</time></trkpt><trkpt lat="44.66503433219532" lon="10.188156951893669"><ele>273.6</ele><time>2026-04-19T09:55:47.999Z</time></trkpt><trkpt lat="44.66494079785037" lon="10.188184201967408"><ele>271.4</ele><time>2026-04-19T09:55:48.999Z</time></trkpt><trkpt lat="44.664851163860995" lon="10.188216325060289"><ele>269.2</ele><time>2026-04-19T09:55:49.999Z</time></trkpt><trkpt lat="44.66476825922487" lon="10.188283008189682"><ele>267.0</ele><time>2026-04-19T09:55:50.999Z</time></trkpt><trkpt lat="44.66468574149995" lon="10.188332867069665"><ele>265.1666666666667</ele><time>2026-04-19T09:55:51.999Z</time></trkpt><trkpt lat="44.66461290788674" lon="10.188406724087441"><ele>263.3333333333333</ele><time>2026-04-19T09:55:52.999Z</time></trkpt><trkpt lat="44.664546483976814" lon="10.188490788502229"><ele>261.5</ele><time>2026-04-19T09:55:53.999Z</time></trkpt><trkpt lat="44.664488332997564" lon="10.188562829215254"><ele>259.66666666666663</ele><time>2026-04-19T09:55:54.999Z</time></trkpt><trkpt lat="44.664435139222206" lon="10.188630198413167"><ele>257.8333333333333</ele><time>2026-04-19T09:55:55.999Z</time></trkpt><trkpt lat="44.66438392340347" lon="10.188687785696894"><ele>256.0</ele><time>2026-04-19T09:55:56.999Z</time></trkpt><trkpt lat="44.66433377710895" lon="10.188745441142013"><ele>255.60000000000002</ele><time>2026-04-19T09:55:57.999Z</time></trkpt><trkpt lat="44.6642881292193" lon="10.18880934601707"><ele>255.20000000000002</ele><time>2026-04-19T09:55:58.999Z</time></trkpt><trkpt lat="44.66422214961047" lon="10.18890027021046"><ele>254.79999999999998</ele><time>2026-04-19T09:56:00.999Z</time></trkpt><trkpt lat="44.664166147449855" lon="10.188966271044013"><ele>254.39999999999998</ele><time>2026-04-19T09:56:04.999Z</time></trkpt><trkpt lat="44.66412226932288" lon="10.1890488955646"><ele>254.0</ele><time>2026-04-19T09:56:17.999Z</time></trkpt><trkpt lat="44.664248001261555" lon="10.1891990299395"><ele>253.25</ele><time>2026-04-19T09:56:18.999Z</time></trkpt><trkpt lat="44.66431494439812" lon="10.189282015599181"><ele>252.5</ele><time>2026-04-19T09:56:19.999Z</time></trkpt><trkpt lat="44.66440976616684" lon="10.189406468863897"><ele>251.75</ele><time>2026-04-19T09:56:20.999Z</time></trkpt><trkpt lat="44.66448903769284" lon="10.189518057889"><ele>251.0</ele><time>2026-04-19T09:56:21.999Z</time></trkpt><trkpt lat="44.66458155963665" lon="10.189638851558682"><ele>250.5</ele><time>2026-04-19T09:56:22.999Z</time></trkpt><trkpt lat="44.66467006685638" lon="10.189753176597064"><ele>250.0</ele><time>2026-04-19T09:56:23.999Z</time></trkpt><trkpt lat="44.664754007898125" lon="10.189867674490126"><ele>249.5</ele><time>2026-04-19T09:56:24.999Z</time></trkpt><trkpt lat="44.66483386838518" lon="10.189977348756459"><ele>249.0</ele><time>2026-04-19T09:56:25.999Z</time></trkpt><trkpt lat="44.664910618283926" lon="10.190085466624508"><ele>248.79999999999998</ele><time>2026-04-19T09:56:26.999Z</time></trkpt><trkpt lat="44.66499316322849" lon="10.1901948373481"><ele>248.59999999999997</ele><time>2026-04-19T09:56:27.999Z</time></trkpt><trkpt lat="44.665072532397495" lon="10.190305661359798"><ele>248.4</ele><time>2026-04-19T09:56:28.999Z</time></trkpt><trkpt lat="44.66515417025658" lon="10.190409519979475"><ele>248.2</ele><time>2026-04-19T09:56:29.999Z</time></trkpt><trkpt lat="44.66523473618474" lon="10.190518392057932"><ele>248.0</ele><time>2026-04-19T09:56:30.999Z</time></trkpt><trkpt lat="44.66531802731278" lon="10.19063207447909"><ele>248.0</ele><time>2026-04-19T09:56:31.999Z</time></trkpt><trkpt lat="44.6654028474495" lon="10.190747349700265"><ele>248.0</ele><time>2026-04-19T09:56:33Z</time></trkpt><trkpt lat="44.66548299712706" lon="10.190865670960212"><ele>248.0</ele><time>2026-04-19T09:56:34Z</time></trkpt><trkpt lat="44.66557067290707" lon="10.190989148865532"><ele>248.0</ele><time>2026-04-19T09:56:35Z</time></trkpt><trkpt lat="44.66566226727427" lon="10.191110575165137"><ele>248.0</ele><time>2026-04-19T09:56:36Z</time></trkpt><trkpt lat="44.66575418991967" lon="10.191228273926415"><ele>248.0</ele><time>2026-04-19T09:56:37Z</time></trkpt><trkpt lat="44.66585087498944" lon="10.191339891058188"><ele>248.0</ele><time>2026-04-19T09:56:38Z</time></trkpt><trkpt lat="44.66594153269295" lon="10.191458808763244"><ele>248.0</ele><time>2026-04-19T09:56:39Z</time></trkpt><trkpt lat="44.66604035551969" lon="10.191557802306054"><ele>248.25</ele><time>2026-04-19T09:56:40Z</time></trkpt><trkpt lat="44.666136457656755" lon="10.191675098405588"><ele>248.5</ele><time>2026-04-19T09:56:41Z</time></trkpt><trkpt lat="44.66624397163109" lon="10.191797034973215"><ele>248.75</ele><time>2026-04-19T09:56:42Z</time></trkpt><trkpt lat="44.66633505761286" lon="10.191916110415917"><ele>249.0</ele><time>2026-04-19T09:56:43Z</time></trkpt><trkpt lat="44.66643857497482" lon="10.192023025045785"><ele>249.0</ele><time>2026-04-19T09:56:44Z</time></trkpt><trkpt lat="44.66652772967521" lon="10.192122450417104"><ele>249.0</ele><time>2026-04-19T09:56:45Z</time></trkpt><trkpt lat="44.666591054931146" lon="10.192185725734793"><ele>249.0</ele><time>2026-04-19T09:56:46Z</time></trkpt><trkpt lat="44.666833185952626" lon="10.192462985526141"><ele>248.5</ele><time>2026-04-19T09:56:48Z</time></trkpt><trkpt lat="44.66693024730178" lon="10.192579941337277"><ele>248.0</ele><time>2026-04-19T09:56:49Z</time></trkpt><trkpt lat="44.667036731963805" lon="10.192689847497345"><ele>247.5</ele><time>2026-04-19T09:56:50Z</time></trkpt><trkpt lat="44.66713086435419" lon="10.19280110369333"><ele>247.0</ele><time>2026-04-19T09:56:51Z</time></trkpt><trkpt lat="44.66722177966432" lon="10.192898618274553"><ele>247.0</ele><time>2026-04-19T09:56:52Z</time></trkpt><trkpt lat="44.667306538942036" lon="10.19298978247655"><ele>247.0</ele><time>2026-04-19T09:56:53Z</time></trkpt><trkpt lat="44.66738583069615" lon="10.193072765554405"><ele>247.0</ele><time>2026-04-19T09:56:54Z</time></trkpt><trkpt lat="44.667459943106074" lon="10.19315264873671"><ele>247.0</ele><time>2026-04-19T09:56:55Z</time></trkpt><trkpt lat="44.667531549396315" lon="10.19322769163715"><ele>247.0</ele><time>2026-04-19T09:56:56Z</time></trkpt><trkpt lat="44.66761493089505" lon="10.19331746795"><ele>246.25</ele><time>2026-04-19T09:56:57Z</time></trkpt><trkpt lat="44.66770210972597" lon="10.193410672955642"><ele>245.5</ele><time>2026-04-19T09:56:58Z</time></trkpt><trkpt lat="44.66779128622503" lon="10.193502685508218"><ele>244.75</ele><time>2026-04-19T09:56:59Z</time></trkpt><trkpt lat="44.667884611891246" lon="10.19359808671471"><ele>244.0</ele><time>2026-04-19T09:57:00Z</time></trkpt><trkpt lat="44.6679894069019" lon="10.193706739925245"><ele>243.66666666666666</ele><time>2026-04-19T09:57:01Z</time></trkpt><trkpt lat="44.66810949428138" lon="10.193834876284214"><ele>243.33333333333331</ele><time>2026-04-19T09:57:02Z</time></trkpt><trkpt lat="44.668245476678024" lon="10.193974640997991"><ele>243.0</ele><time>2026-04-19T09:57:03Z</time></trkpt><trkpt lat="44.66839311340954" lon="10.194121915696494"><ele>243.0</ele><time>2026-04-19T09:57:04Z</time></trkpt><trkpt lat="44.668547248398234" lon="10.1942788304847"><ele>243.0</ele><time>2026-04-19T09:57:05Z</time></trkpt><trkpt lat="44.668706951292144" lon="10.194443130429796"><ele>243.0</ele><time>2026-04-19T09:57:06Z</time></trkpt><trkpt lat="44.66888919346028" lon="10.194618422249755"><ele>243.0</ele><time>2026-04-19T09:57:07Z</time></trkpt><trkpt lat="44.66906504614823" lon="10.194825824303168"><ele>243.0</ele><time>2026-04-19T09:57:08Z</time></trkpt><trkpt lat="44.66926422648574" lon="10.195009954903393"><ele>243.0</ele><time>2026-04-19T09:57:09Z</time></trkpt><trkpt lat="44.669439446515696" lon="10.19523342291102"><ele>243.0</ele><time>2026-04-19T09:57:10Z</time></trkpt><trkpt lat="44.669631884044826" lon="10.19543550777936"><ele>243.0</ele><time>2026-04-19T09:57:11Z</time></trkpt><trkpt lat="44.66981735582909" lon="10.195620858786123"><ele>243.0</ele><time>2026-04-19T09:57:12Z</time></trkpt><trkpt lat="44.669994886092695" lon="10.195801992303076"><ele>243.0</ele><time>2026-04-19T09:57:13Z</time></trkpt><trkpt lat="44.670165302527224" lon="10.195980897402931"><ele>242.0</ele><time>2026-04-19T09:57:14Z</time></trkpt><trkpt lat="44.67032950389324" lon="10.196152694557286"><ele>241.0</ele><time>2026-04-19T09:57:15Z</time></trkpt><trkpt lat="44.67049198397321" lon="10.196325512593424"><ele>240.0</ele><time>2026-04-19T09:57:16Z</time></trkpt><trkpt lat="44.67065440376433" lon="10.196496180464448"><ele>239.66666666666669</ele><time>2026-04-19T09:57:17Z</time></trkpt><trkpt lat="44.67082040249677" lon="10.196670646619742"><ele>239.33333333333334</ele><time>2026-04-19T09:57:18Z</time></trkpt><trkpt lat="44.67098495558436" lon="10.19685072151426"><ele>239.0</ele><time>2026-04-19T09:57:19Z</time></trkpt><trkpt lat="44.67114149890319" lon="10.197050172551549"><ele>239.0</ele><time>2026-04-19T09:57:20Z</time></trkpt><trkpt lat="44.67128693993578" lon="10.197271348028274"><ele>239.0</ele><time>2026-04-19T09:57:21Z</time></trkpt><trkpt lat="44.67142193964967" lon="10.197518397342346"><ele>239.0</ele><time>2026-04-19T09:57:22Z</time></trkpt><trkpt lat="44.67155371451977" lon="10.197774297503102"><ele>238.0</ele><time>2026-04-19T09:57:23Z</time></trkpt><trkpt lat="44.67168936968388" lon="10.198027513508993"><ele>237.0</ele><time>2026-04-19T09:57:24Z</time></trkpt><trkpt lat="44.67182739447062" lon="10.198282847987098"><ele>234.5</ele><time>2026-04-19T09:57:25Z</time></trkpt><trkpt lat="44.671968134725645" lon="10.198546026315338"><ele>232.0</ele><time>2026-04-19T09:57:26Z</time></trkpt><trkpt lat="44.67210402834772" lon="10.198794141483344"><ele>231.0</ele><time>2026-04-19T09:57:27Z</time></trkpt><trkpt lat="44.6722362230188" lon="10.199041996555037"><ele>230.0</ele><time>2026-04-19T09:57:28Z</time></trkpt><trkpt lat="44.67237559455725" lon="10.19929974147801"><ele>230.0</ele><time>2026-04-19T09:57:29Z</time></trkpt><trkpt lat="44.67251911007057" lon="10.199560337767346"><ele>230.0</ele><time>2026-04-19T09:57:30Z</time></trkpt><trkpt lat="44.67266387862588" lon="10.199824576643088"><ele>230.5</ele><time>2026-04-19T09:57:31Z</time></trkpt><trkpt lat="44.67280514997714" lon="10.200090161312502"><ele>231.0</ele><time>2026-04-19T09:57:32Z</time></trkpt><trkpt lat="44.672938793884946" lon="10.200348647808532"><ele>231.0</ele><time>2026-04-19T09:57:33Z</time></trkpt><trkpt lat="44.673073927061665" lon="10.200598487919745"><ele>231.0</ele><time>2026-04-19T09:57:34Z</time></trkpt><trkpt lat="44.67322011813289" lon="10.200839515912257"><ele>231.0</ele><time>2026-04-19T09:57:35Z</time></trkpt><trkpt lat="44.673378024436495" lon="10.201057765787407"><ele>231.0</ele><time>2026-04-19T09:57:36Z</time></trkpt><trkpt lat="44.67356538600324" lon="10.201247575463757"><ele>231.0</ele><time>2026-04-19T09:57:37Z</time></trkpt><trkpt lat="44.67378013556139" lon="10.201408987034144"><ele>229.5</ele><time>2026-04-19T09:57:38Z</time></trkpt><trkpt lat="44.673995313286014" lon="10.20155826308404"><ele>228.0</ele><time>2026-04-19T09:57:39Z</time></trkpt><trkpt lat="44.67420264268535" lon="10.201707454727712"><ele>228.0</ele><time>2026-04-19T09:57:39.999Z</time></trkpt><trkpt lat="44.674403309550044" lon="10.201864447573877"><ele>228.0</ele><time>2026-04-19T09:57:40.999Z</time></trkpt><trkpt lat="44.674605407152086" lon="10.2020182182672"><ele>227.33333333333331</ele><time>2026-04-19T09:57:41.999Z</time></trkpt><trkpt lat="44.67480263341588" lon="10.202167607892349"><ele>226.66666666666666</ele><time>2026-04-19T09:57:42.999Z</time></trkpt><trkpt lat="44.67499673430226" lon="10.202320045235272"><ele>226.0</ele><time>2026-04-19T09:57:43.999Z</time></trkpt><trkpt lat="44.67519070522877" lon="10.202472219654334"><ele>226.0</ele><time>2026-04-19T09:57:44.999Z</time></trkpt><trkpt lat="44.675387085289096" lon="10.202623754102124"><ele>226.0</ele><time>2026-04-19T09:57:45.999Z</time></trkpt><trkpt lat="44.675567997116126" lon="10.202759603818212"><ele>226.0</ele><time>2026-04-19T09:57:46.999Z</time></trkpt><trkpt lat="44.67575317497269" lon="10.202907252953636"><ele>226.0</ele><time>2026-04-19T09:57:47.999Z</time></trkpt><trkpt lat="44.67595606656988" lon="10.203073855049382"><ele>226.0</ele><time>2026-04-19T09:57:48.999Z</time></trkpt><trkpt lat="44.6761713789337" lon="10.203260675788808"><ele>227.5</ele><time>2026-04-19T09:57:49.999Z</time></trkpt><trkpt lat="44.67638358481721" lon="10.203460540548399"><ele>229.0</ele><time>2026-04-19T09:57:50.999Z</time></trkpt><trkpt lat="44.676595496086215" lon="10.203682541159425"><ele>229.0</ele><time>2026-04-19T09:57:51.999Z</time></trkpt><trkpt lat="44.67680928081634" lon="10.203913562546385"><ele>229.0</ele><time>2026-04-19T09:57:52.999Z</time></trkpt><trkpt lat="44.67703086430603" lon="10.204150408876355"><ele>227.5</ele><time>2026-04-19T09:57:53.999Z</time></trkpt><trkpt lat="44.67725802809665" lon="10.204386120439999"><ele>226.0</ele><time>2026-04-19T09:57:54.999Z</time></trkpt><trkpt lat="44.67749148227891" lon="10.204625943317309"><ele>226.0</ele><time>2026-04-19T09:57:55.999Z</time></trkpt><trkpt lat="44.67772385591688" lon="10.204872149416888"><ele>226.0</ele><time>2026-04-19T09:57:56.999Z</time></trkpt><trkpt lat="44.677956409991765" lon="10.205128135231433"><ele>226.0</ele><time>2026-04-19T09:57:57.999Z</time></trkpt><trkpt lat="44.67818664669193" lon="10.205370959137719"><ele>226.0</ele><time>2026-04-19T09:57:58.999Z</time></trkpt><trkpt lat="44.67842351988322" lon="10.205611376310577"><ele>223.5</ele><time>2026-04-19T09:57:59.999Z</time></trkpt><trkpt lat="44.67866009277842" lon="10.205850465698406"><ele>221.0</ele><time>2026-04-19T09:58:00.999Z</time></trkpt><trkpt lat="44.67889981817275" lon="10.20610092966869"><ele>221.0</ele><time>2026-04-19T09:58:01.999Z</time></trkpt><trkpt lat="44.67913444737334" lon="10.206348798480489"><ele>221.0</ele><time>2026-04-19T09:58:02.999Z</time></trkpt><trkpt lat="44.67937024094927" lon="10.206591020628068"><ele>220.0</ele><time>2026-04-19T09:58:03.999Z</time></trkpt><trkpt lat="44.679608496243496" lon="10.206839792977899"><ele>219.0</ele><time>2026-04-19T09:58:04.999Z</time></trkpt><trkpt lat="44.67984045190828" lon="10.207077164318932"><ele>219.0</ele><time>2026-04-19T09:58:05.999Z</time></trkpt><trkpt lat="44.68007589078902" lon="10.207324819393023"><ele>219.0</ele><time>2026-04-19T09:58:06.999Z</time></trkpt><trkpt lat="44.68030540444437" lon="10.20755625609121"><ele>218.0</ele><time>2026-04-19T09:58:07.999Z</time></trkpt><trkpt lat="44.68055125361028" lon="10.207807824006478"><ele>217.0</ele><time>2026-04-19T09:58:08.999Z</time></trkpt><trkpt lat="44.68079751698787" lon="10.208054305133434"><ele>215.5</ele><time>2026-04-19T09:58:09.999Z</time></trkpt><trkpt lat="44.68104108367026" lon="10.208302109468958"><ele>214.0</ele><time>2026-04-19T09:58:10.999Z</time></trkpt><trkpt lat="44.681283200848384" lon="10.208554792501863"><ele>214.0</ele><time>2026-04-19T09:58:11.999Z</time></trkpt><trkpt lat="44.68152915021992" lon="10.208806569022261"><ele>214.0</ele><time>2026-04-19T09:58:12.999Z</time></trkpt><trkpt lat="44.68177530597873" lon="10.209057137657537"><ele>215.0</ele><time>2026-04-19T09:58:13.999Z</time></trkpt><trkpt lat="44.68202543040825" lon="10.20931516203057"><ele>216.0</ele><time>2026-04-19T09:58:14.999Z</time></trkpt><trkpt lat="44.68228411343723" lon="10.209579656848545"><ele>213.5</ele><time>2026-04-19T09:58:15.999Z</time></trkpt><trkpt lat="44.682541905341566" lon="10.209838853375379"><ele>211.0</ele><time>2026-04-19T09:58:16.999Z</time></trkpt><trkpt lat="44.68277419617702" lon="10.210073824808248"><ele>211.0</ele><time>2026-04-19T09:58:17.999Z</time></trkpt><trkpt lat="44.6829897195895" lon="10.210294752300202"><ele>211.0</ele><time>2026-04-19T09:58:18.999Z</time></trkpt><trkpt lat="44.68319197225147" lon="10.210500660790228"><ele>211.0</ele><time>2026-04-19T09:58:19.999Z</time></trkpt><trkpt lat="44.68337673710323" lon="10.210689792752609"><ele>211.0</ele><time>2026-04-19T09:58:20.999Z</time></trkpt><trkpt lat="44.68353814319015" lon="10.210853036939392"><ele>211.0</ele><time>2026-04-19T09:58:21.999Z</time></trkpt><trkpt lat="44.68367948290479" lon="10.210995870207633"><ele>210.66666666666666</ele><time>2026-04-19T09:58:22.999Z</time></trkpt><trkpt lat="44.683822674952204" lon="10.211143661326743"><ele>210.33333333333331</ele><time>2026-04-19T09:58:23.999Z</time></trkpt><trkpt lat="44.6839856603927" lon="10.211286717423912"><ele>210.0</ele><time>2026-04-19T09:58:24.999Z</time></trkpt><trkpt lat="44.68416419273448" lon="10.211455237484188"><ele>210.33333333333331</ele><time>2026-04-19T09:58:25.999Z</time></trkpt><trkpt lat="44.68433589746803" lon="10.211647851183354"><ele>210.66666666666666</ele><time>2026-04-19T09:58:26.999Z</time></trkpt><trkpt lat="44.68450880921515" lon="10.211855078460616"><ele>211.0</ele><time>2026-04-19T09:58:27.999Z</time></trkpt><trkpt lat="44.684702732993024" lon="10.212060220161677"><ele>211.0</ele><time>2026-04-19T09:58:28.999Z</time></trkpt><trkpt lat="44.684906540775586" lon="10.212264145201566"><ele>211.0</ele><time>2026-04-19T09:58:29.999Z</time></trkpt><trkpt lat="44.68511808750682" lon="10.21247382744548"><ele>209.5</ele><time>2026-04-19T09:58:30.999Z</time></trkpt><trkpt lat="44.68533877041509" lon="10.212696160023379"><ele>208.0</ele><time>2026-04-19T09:58:31.999Z</time></trkpt><trkpt lat="44.68556514794742" lon="10.212935026988925"><ele>208.5</ele><time>2026-04-19T09:58:32.999Z</time></trkpt><trkpt lat="44.68579509817789" lon="10.213178366839475"><ele>209.0</ele><time>2026-04-19T09:58:33.999Z</time></trkpt><trkpt lat="44.686036820308935" lon="10.21342146930611"><ele>207.0</ele><time>2026-04-19T09:58:34.999Z</time></trkpt><trkpt lat="44.68628824728942" lon="10.21367907360772"><ele>205.0</ele><time>2026-04-19T09:58:35.999Z</time></trkpt><trkpt lat="44.68654622695067" lon="10.213943420019369"><ele>205.0</ele><time>2026-04-19T09:58:36.999Z</time></trkpt><trkpt lat="44.6867976461278" lon="10.214210283036714"><ele>205.0</ele><time>2026-04-19T09:58:37.999Z</time></trkpt><trkpt lat="44.68704982840049" lon="10.214477873239977"><ele>204.5</ele><time>2026-04-19T09:58:39Z</time></trkpt><trkpt lat="44.68729056878831" lon="10.214727122712508"><ele>204.0</ele><time>2026-04-19T09:58:40Z</time></trkpt><trkpt lat="44.68750788728531" lon="10.214958850305827"><ele>204.0</ele><time>2026-04-19T09:58:41Z</time></trkpt><trkpt lat="44.68771871351374" lon="10.215178501072048"><ele>204.0</ele><time>2026-04-19T09:58:42Z</time></trkpt><trkpt lat="44.687923241560206" lon="10.215387712623633"><ele>202.5</ele><time>2026-04-19T09:58:43Z</time></trkpt><trkpt lat="44.68813345949323" lon="10.215604151172807"><ele>201.0</ele><time>2026-04-19T09:58:44Z</time></trkpt><trkpt lat="44.688347278023166" lon="10.215812534376278"><ele>201.0</ele><time>2026-04-19T09:58:45Z</time></trkpt><trkpt lat="44.68856948382779" lon="10.216008215343779"><ele>201.0</ele><time>2026-04-19T09:58:46Z</time></trkpt><trkpt lat="44.688811452297664" lon="10.216190111418047"><ele>202.0</ele><time>2026-04-19T09:58:47Z</time></trkpt><trkpt lat="44.68906147863304" lon="10.216375264416001"><ele>203.0</ele><time>2026-04-19T09:58:48Z</time></trkpt><trkpt lat="44.689307452615935" lon="10.216556881894514"><ele>202.5</ele><time>2026-04-19T09:58:49Z</time></trkpt><trkpt lat="44.68955346774373" lon="10.216739889366114"><ele>202.0</ele><time>2026-04-19T09:58:50Z</time></trkpt><trkpt lat="44.6897990460024" lon="10.216921677878059"><ele>202.0</ele><time>2026-04-19T09:58:51Z</time></trkpt><trkpt lat="44.690049252787794" lon="10.217102494437933"><ele>202.0</ele><time>2026-04-19T09:58:52Z</time></trkpt><trkpt lat="44.69030134896663" lon="10.217288433312492"><ele>200.0</ele><time>2026-04-19T09:58:53Z</time></trkpt><trkpt lat="44.6905572759808" lon="10.217478824401237"><ele>198.0</ele><time>2026-04-19T09:58:54Z</time></trkpt><trkpt lat="44.69081753137098" lon="10.217673929221457"><ele>198.0</ele><time>2026-04-19T09:58:55Z</time></trkpt><trkpt lat="44.6910838469746" lon="10.21787422085383"><ele>198.0</ele><time>2026-04-19T09:58:56Z</time></trkpt><trkpt lat="44.69133131734277" lon="10.21805971688103"><ele>198.0</ele><time>2026-04-19T09:58:57Z</time></trkpt><trkpt lat="44.691588416580615" lon="10.218250756758946"><ele>198.0</ele><time>2026-04-19T09:58:58Z</time></trkpt><trkpt lat="44.6918508017976" lon="10.218443519187788"><ele>197.0</ele><time>2026-04-19T09:58:59Z</time></trkpt><trkpt lat="44.69210745785055" lon="10.218625944016425"><ele>196.0</ele><time>2026-04-19T09:59:00Z</time></trkpt><trkpt lat="44.69233898922503" lon="10.218795937553299"><ele>196.0</ele><time>2026-04-19T09:59:01Z</time></trkpt><trkpt lat="44.69255385164074" lon="10.218955127704644"><ele>196.0</ele><time>2026-04-19T09:59:02Z</time></trkpt><trkpt lat="44.692768191025465" lon="10.219115177048103"><ele>195.5</ele><time>2026-04-19T09:59:03Z</time></trkpt><trkpt lat="44.692992582083164" lon="10.219283891684722"><ele>195.0</ele><time>2026-04-19T09:59:04Z</time></trkpt><trkpt lat="44.693229467861784" lon="10.21945935270879"><ele>195.0</ele><time>2026-04-19T09:59:05Z</time></trkpt><trkpt lat="44.693466222241476" lon="10.219637649313146"><ele>195.0</ele><time>2026-04-19T09:59:06Z</time></trkpt><trkpt lat="44.69370360025737" lon="10.219816713048175"><ele>194.5</ele><time>2026-04-19T09:59:07Z</time></trkpt><trkpt lat="44.69394000375978" lon="10.219994310859704"><ele>194.0</ele><time>2026-04-19T09:59:08Z</time></trkpt><trkpt lat="44.69418047742263" lon="10.220172865246127"><ele>192.0</ele><time>2026-04-19T09:59:09Z</time></trkpt><trkpt lat="44.694432028073344" lon="10.220356080866637"><ele>190.0</ele><time>2026-04-19T09:59:10Z</time></trkpt><trkpt lat="44.69468283871068" lon="10.220534008449782"><ele>190.5</ele><time>2026-04-19T09:59:11Z</time></trkpt><trkpt lat="44.69493431218367" lon="10.22071554115738"><ele>191.0</ele><time>2026-04-19T09:59:12Z</time></trkpt><trkpt lat="44.69518070972051" lon="10.220896331152183"><ele>190.5</ele><time>2026-04-19T09:59:13Z</time></trkpt><trkpt lat="44.69542288646437" lon="10.221079813217427"><ele>190.0</ele><time>2026-04-19T09:59:14Z</time></trkpt><trkpt lat="44.69566593288011" lon="10.221260802747205"><ele>190.0</ele><time>2026-04-19T09:59:15Z</time></trkpt><trkpt lat="44.695897521866364" lon="10.221432433740883"><ele>190.0</ele><time>2026-04-19T09:59:16Z</time></trkpt><trkpt lat="44.69611187689067" lon="10.221598024653307"><ele>189.5</ele><time>2026-04-19T09:59:17Z</time></trkpt><trkpt lat="44.69633154940087" lon="10.221766795823111"><ele>189.0</ele><time>2026-04-19T09:59:18Z</time></trkpt><trkpt lat="44.69654511950997" lon="10.221922174925899"><ele>189.0</ele><time>2026-04-19T09:59:19Z</time></trkpt><trkpt lat="44.69675469560089" lon="10.222070360261071"><ele>189.0</ele><time>2026-04-19T09:59:20Z</time></trkpt><trkpt lat="44.696957794772594" lon="10.222218740386424"><ele>188.33333333333334</ele><time>2026-04-19T09:59:21Z</time></trkpt><trkpt lat="44.697155025086126" lon="10.222365197893804"><ele>187.66666666666669</ele><time>2026-04-19T09:59:22Z</time></trkpt><trkpt lat="44.69733295259688" lon="10.222500428064343"><ele>187.0</ele><time>2026-04-19T09:59:23Z</time></trkpt><trkpt lat="44.69749161242803" lon="10.222617427602856"><ele>187.0</ele><time>2026-04-19T09:59:24Z</time></trkpt><trkpt lat="44.69762946143614" lon="10.22271751694273"><ele>187.0</ele><time>2026-04-19T09:59:25Z</time></trkpt><trkpt lat="44.69774782683777" lon="10.222810246083485"><ele>187.0</ele><time>2026-04-19T09:59:26Z</time></trkpt><trkpt lat="44.69785277204821" lon="10.22288935746919"><ele>187.0</ele><time>2026-04-19T09:59:27Z</time></trkpt><trkpt lat="44.697944764467515" lon="10.222958817396938"><ele>186.39999999999998</ele><time>2026-04-19T09:59:28Z</time></trkpt><trkpt lat="44.69802405326833" lon="10.223018149331251"><ele>185.79999999999998</ele><time>2026-04-19T09:59:29Z</time></trkpt><trkpt lat="44.69809198858094" lon="10.22307852044339"><ele>185.2</ele><time>2026-04-19T09:59:31Z</time></trkpt><trkpt lat="44.698144335130955" lon="10.222929755257784"><ele>184.6</ele><time>2026-04-19T09:59:32Z</time></trkpt><trkpt lat="44.69818802159385" lon="10.222789524002394"><ele>184.0</ele><time>2026-04-19T09:59:33Z</time></trkpt><trkpt lat="44.69826517420799" lon="10.222619598897179"><ele>184.0</ele><time>2026-04-19T09:59:34Z</time></trkpt><trkpt lat="44.698321619177946" lon="10.222450663553698"><ele>184.0</ele><time>2026-04-19T09:59:35Z</time></trkpt><trkpt lat="44.698376811027224" lon="10.222269776913041"><ele>184.0</ele><time>2026-04-19T09:59:36Z</time></trkpt><trkpt lat="44.69842546882169" lon="10.22210263212152"><ele>184.0</ele><time>2026-04-19T09:59:37Z</time></trkpt><trkpt lat="44.69848686230027" lon="10.22197289257997"><ele>184.75</ele><time>2026-04-19T09:59:38Z</time></trkpt><trkpt lat="44.69856526526822" lon="10.221897998327945"><ele>185.5</ele><time>2026-04-19T09:59:39Z</time></trkpt><trkpt lat="44.698657180427105" lon="10.221917710322613"><ele>186.25</ele><time>2026-04-19T09:59:40Z</time></trkpt><trkpt lat="44.698784093984244" lon="10.221966527306716"><ele>187.0</ele><time>2026-04-19T09:59:41Z</time></trkpt><trkpt lat="44.698927143393824" lon="10.222040772755376"><ele>188.66666666666669</ele><time>2026-04-19T09:59:42Z</time></trkpt><trkpt lat="44.699075458021206" lon="10.222100571348644"><ele>190.33333333333334</ele><time>2026-04-19T09:59:43Z</time></trkpt><trkpt lat="44.69922693179307" lon="10.222153923331994"><ele>192.0</ele><time>2026-04-19T09:59:44Z</time></trkpt><trkpt lat="44.6993756849695" lon="10.222212298857052"><ele>191.75</ele><time>2026-04-19T09:59:45Z</time></trkpt><trkpt lat="44.699519027205284" lon="10.222267383777018"><ele>191.5</ele><time>2026-04-19T09:59:45.999Z</time></trkpt><trkpt lat="44.69965546905359" lon="10.222311411582153"><ele>191.25</ele><time>2026-04-19T09:59:46.999Z</time></trkpt><trkpt lat="44.69977353774819" lon="10.22234699604826"><ele>191.0</ele><time>2026-04-19T09:59:47.999Z</time></trkpt><trkpt lat="44.69989987395121" lon="10.222358716653899"><ele>191.0</ele><time>2026-04-19T09:59:48.999Z</time></trkpt><trkpt lat="44.700040949845494" lon="10.222351848432282"><ele>191.0</ele><time>2026-04-19T09:59:49.999Z</time></trkpt><trkpt lat="44.700185923055024" lon="10.222329025802443"><ele>191.0</ele><time>2026-04-19T09:59:50.999Z</time></trkpt><trkpt lat="44.700340578605115" lon="10.222289913822495"><ele>191.0</ele><time>2026-04-19T09:59:51.999Z</time></trkpt><trkpt lat="44.70050067517087" lon="10.222233448648788"><ele>191.0</ele><time>2026-04-19T09:59:52.999Z</time></trkpt><trkpt lat="44.70066161682621" lon="10.222173459664743"><ele>191.0</ele><time>2026-04-19T09:59:53.999Z</time></trkpt><trkpt lat="44.700815287552565" lon="10.222137227302523"><ele>191.0</ele><time>2026-04-19T09:59:54.999Z</time></trkpt><trkpt lat="44.70096636388417" lon="10.222165960454214"><ele>191.66666666666666</ele><time>2026-04-19T09:59:55.999Z</time></trkpt><trkpt lat="44.70112780640338" lon="10.222204690333196"><ele>192.33333333333331</ele><time>2026-04-19T09:59:56.999Z</time></trkpt><trkpt lat="44.70129713255676" lon="10.222257214698335"><ele>193.0</ele><time>2026-04-19T09:59:57.999Z</time></trkpt><trkpt lat="44.70148396341697" lon="10.222299865727242"><ele>192.33333333333331</ele><time>2026-04-19T09:59:58.999Z</time></trkpt><trkpt lat="44.701674896250246" lon="10.222366284731166"><ele>191.66666666666666</ele><time>2026-04-19T09:59:59.999Z</time></trkpt><trkpt lat="44.7018670820573" lon="10.222426203469986"><ele>191.0</ele><time>2026-04-19T10:00:00.999Z</time></trkpt><trkpt lat="44.70206933720319" lon="10.222490673440563"><ele>191.0</ele><time>2026-04-19T10:00:01.999Z</time></trkpt><trkpt lat="44.70226233055973" lon="10.222548791743629"><ele>191.0</ele><time>2026-04-19T10:00:02.999Z</time></trkpt><trkpt lat="44.70244453726705" lon="10.222648107451915"><ele>191.0</ele><time>2026-04-19T10:00:03.999Z</time></trkpt><trkpt lat="44.70262602846122" lon="10.222756635437891"><ele>192.33333333333331</ele><time>2026-04-19T10:00:04.999Z</time></trkpt><trkpt lat="44.70280541315037" lon="10.222866306005328"><ele>193.66666666666666</ele><time>2026-04-19T10:00:05.999Z</time></trkpt><trkpt lat="44.702975391738924" lon="10.222993877035643"><ele>195.0</ele><time>2026-04-19T10:00:06.999Z</time></trkpt><trkpt lat="44.703150046666316" lon="10.22310486788022"><ele>196.33333333333331</ele><time>2026-04-19T10:00:07.999Z</time></trkpt><trkpt lat="44.7033146163862" lon="10.223213784758338"><ele>197.66666666666666</ele><time>2026-04-19T10:00:08.999Z</time></trkpt><trkpt lat="44.70345696985547" lon="10.223339969983675"><ele>199.0</ele><time>2026-04-19T10:00:09.999Z</time></trkpt><trkpt lat="44.7036027271583" lon="10.223443066431543"><ele>199.0</ele><time>2026-04-19T10:00:10.999Z</time></trkpt><trkpt lat="44.70374356775967" lon="10.223521903620554"><ele>199.0</ele><time>2026-04-19T10:00:11.999Z</time></trkpt><trkpt lat="44.70387321407856" lon="10.223614587832376"><ele>199.0</ele><time>2026-04-19T10:00:12.999Z</time></trkpt><trkpt lat="44.70398381115225" lon="10.223705523235415"><ele>199.0</ele><time>2026-04-19T10:00:13.999Z</time></trkpt><trkpt lat="44.70408463204188" lon="10.223774823171363"><ele>199.0</ele><time>2026-04-19T10:00:14.999Z</time></trkpt><trkpt lat="44.70419270295826" lon="10.223831436611468"><ele>199.0</ele><time>2026-04-19T10:00:15.999Z</time></trkpt><trkpt lat="44.70431399188807" lon="10.22389143781634"><ele>199.0</ele><time>2026-04-19T10:00:16.999Z</time></trkpt><trkpt lat="44.70444437796684" lon="10.22393283371308"><ele>199.0</ele><time>2026-04-19T10:00:17.999Z</time></trkpt><trkpt lat="44.70459259201465" lon="10.223927706771327"><ele>198.0</ele><time>2026-04-19T10:00:18.999Z</time></trkpt><trkpt lat="44.70476241889017" lon="10.223942329243581"><ele>197.0</ele><time>2026-04-19T10:00:19.999Z</time></trkpt><trkpt lat="44.70492861074636" lon="10.223937213395725"><ele>196.0</ele><time>2026-04-19T10:00:20.999Z</time></trkpt><trkpt lat="44.70510096226689" lon="10.223937418859588"><ele>194.66666666666666</ele><time>2026-04-19T10:00:21.999Z</time></trkpt><trkpt lat="44.70527508454783" lon="10.223943559001667"><ele>193.33333333333331</ele><time>2026-04-19T10:00:22.999Z</time></trkpt><trkpt lat="44.705453222747494" lon="10.223952953457283"><ele>192.0</ele><time>2026-04-19T10:00:23.999Z</time></trkpt><trkpt lat="44.70563112390283" lon="10.223942354548942"><ele>192.0</ele><time>2026-04-19T10:00:24.999Z</time></trkpt><trkpt lat="44.70580856557647" lon="10.223958658017734"><ele>192.0</ele><time>2026-04-19T10:00:25.999Z</time></trkpt><trkpt lat="44.70599687629433" lon="10.224008280057143"><ele>192.0</ele><time>2026-04-19T10:00:26.999Z</time></trkpt><trkpt lat="44.70617512881673" lon="10.224035245820726"><ele>191.33333333333334</ele><time>2026-04-19T10:00:27.999Z</time></trkpt><trkpt lat="44.7063478018638" lon="10.224042487593202"><ele>190.66666666666669</ele><time>2026-04-19T10:00:28.999Z</time></trkpt><trkpt lat="44.706513042844534" lon="10.224064973107488"><ele>190.0</ele><time>2026-04-19T10:00:29.999Z</time></trkpt><trkpt lat="44.70667217509912" lon="10.224083776327666"><ele>190.0</ele><time>2026-04-19T10:00:30.999Z</time></trkpt><trkpt lat="44.70683706609089" lon="10.224104272779678"><ele>190.0</ele><time>2026-04-19T10:00:31.999Z</time></trkpt><trkpt lat="44.706994152005436" lon="10.224125962142674"><ele>190.0</ele><time>2026-04-19T10:00:32.999Z</time></trkpt><trkpt lat="44.70715426402012" lon="10.224168460614447"><ele>188.0</ele><time>2026-04-19T10:00:33.999Z</time></trkpt><trkpt lat="44.70731397502227" lon="10.224190023385063"><ele>186.0</ele><time>2026-04-19T10:00:34.999Z</time></trkpt><trkpt lat="44.707490854950905" lon="10.224213954549397"><ele>184.0</ele><time>2026-04-19T10:00:35.999Z</time></trkpt><trkpt lat="44.707668723020475" lon="10.224230267974114"><ele>182.66666666666669</ele><time>2026-04-19T10:00:36.999Z</time></trkpt><trkpt lat="44.707849750834754" lon="10.224268024953256"><ele>181.33333333333334</ele><time>2026-04-19T10:00:37.999Z</time></trkpt><trkpt lat="44.70803622364328" lon="10.22429120348873"><ele>180.0</ele><time>2026-04-19T10:00:38.999Z</time></trkpt><trkpt lat="44.70822672463645" lon="10.224313538105205"><ele>180.0</ele><time>2026-04-19T10:00:39.999Z</time></trkpt><trkpt lat="44.70842416341117" lon="10.224340625775787"><ele>180.0</ele><time>2026-04-19T10:00:40.999Z</time></trkpt><trkpt lat="44.70862093072831" lon="10.22436093062244"><ele>180.0</ele><time>2026-04-19T10:00:41.999Z</time></trkpt><trkpt lat="44.70880550098378" lon="10.224384146530374"><ele>179.66666666666666</ele><time>2026-04-19T10:00:42.999Z</time></trkpt><trkpt lat="44.7089944822732" lon="10.224403414195143"><ele>179.33333333333331</ele><time>2026-04-19T10:00:43.999Z</time></trkpt><trkpt lat="44.70917481628669" lon="10.224434915623812"><ele>179.0</ele><time>2026-04-19T10:00:45Z</time></trkpt><trkpt lat="44.70936884889412" lon="10.224462939968767"><ele>178.66666666666666</ele><time>2026-04-19T10:00:46Z</time></trkpt><trkpt lat="44.70956137297181" lon="10.224492545145111"><ele>178.33333333333334</ele><time>2026-04-19T10:00:47Z</time></trkpt><trkpt lat="44.70973389176877" lon="10.224512563720868"><ele>178.0</ele><time>2026-04-19T10:00:48Z</time></trkpt><trkpt lat="44.7098882558347" lon="10.224525857241966"><ele>178.0</ele><time>2026-04-19T10:00:49Z</time></trkpt><trkpt lat="44.71002959491473" lon="10.224548585020855"><ele>178.0</ele><time>2026-04-19T10:00:50Z</time></trkpt><trkpt lat="44.71016522001884" lon="10.224568799219487"><ele>178.0</ele><time>2026-04-19T10:00:51Z</time></trkpt><trkpt lat="44.710301125528716" lon="10.224588785860268"><ele>178.0</ele><time>2026-04-19T10:00:52Z</time></trkpt><trkpt lat="44.710438668084684" lon="10.224608321610347"><ele>178.0</ele><time>2026-04-19T10:00:53Z</time></trkpt><trkpt lat="44.71058491627727" lon="10.224631502248481"><ele>178.0</ele><time>2026-04-19T10:00:54Z</time></trkpt><trkpt lat="44.71073795206092" lon="10.224649700801313"><ele>178.0</ele><time>2026-04-19T10:00:55Z</time></trkpt><trkpt lat="44.71088728953108" lon="10.224671334575524"><ele>178.0</ele><time>2026-04-19T10:00:56Z</time></trkpt><trkpt lat="44.711061700134536" lon="10.22469627613173"><ele>178.0</ele><time>2026-04-19T10:00:57Z</time></trkpt><trkpt lat="44.71124308320359" lon="10.224720653804438"><ele>178.0</ele><time>2026-04-19T10:00:58Z</time></trkpt><trkpt lat="44.711407849311236" lon="10.224738581818618"><ele>177.66666666666669</ele><time>2026-04-19T10:00:59Z</time></trkpt><trkpt lat="44.71157345426382" lon="10.22477070463138"><ele>177.33333333333334</ele><time>2026-04-19T10:01:00Z</time></trkpt><trkpt lat="44.711738426431594" lon="10.2247932843458"><ele>177.0</ele><time>2026-04-19T10:01:01Z</time></trkpt><trkpt lat="44.7119046603355" lon="10.224812432027507"><ele>176.0</ele><time>2026-04-19T10:01:02Z</time></trkpt><trkpt lat="44.712080699474235" lon="10.224838009269472"><ele>175.0</ele><time>2026-04-19T10:01:03Z</time></trkpt><trkpt lat="44.712260626282934" lon="10.224860049758023"><ele>174.0</ele><time>2026-04-19T10:01:04Z</time></trkpt><trkpt lat="44.712436551054154" lon="10.224883792468804"><ele>174.0</ele><time>2026-04-19T10:01:05Z</time></trkpt><trkpt lat="44.71260173809263" lon="10.224905625399078"><ele>174.0</ele><time>2026-04-19T10:01:06Z</time></trkpt><trkpt lat="44.71276360934343" lon="10.22492424682914"><ele>174.0</ele><time>2026-04-19T10:01:07Z</time></trkpt><trkpt lat="44.712924694743045" lon="10.22494811521262"><ele>174.33333333333334</ele><time>2026-04-19T10:01:08Z</time></trkpt><trkpt lat="44.713088295571985" lon="10.224976727092246"><ele>174.66666666666669</ele><time>2026-04-19T10:01:09Z</time></trkpt><trkpt lat="44.71325735858814" lon="10.224997111278482"><ele>175.0</ele><time>2026-04-19T10:01:10Z</time></trkpt><trkpt lat="44.71342438151539" lon="10.22501763753177"><ele>174.75</ele><time>2026-04-19T10:01:11Z</time></trkpt><trkpt lat="44.713583158118304" lon="10.225034313808905"><ele>174.5</ele><time>2026-04-19T10:01:12Z</time></trkpt><trkpt lat="44.71373595573359" lon="10.225061632276196"><ele>174.25</ele><time>2026-04-19T10:01:13Z</time></trkpt><trkpt lat="44.7138678064297" lon="10.22507891351684"><ele>174.0</ele><time>2026-04-19T10:01:14Z</time></trkpt><trkpt lat="44.71398993200756" lon="10.225102000464531"><ele>174.0</ele><time>2026-04-19T10:01:15Z</time></trkpt><trkpt lat="44.714083764616724" lon="10.225115365922445"><ele>174.0</ele><time>2026-04-19T10:01:16Z</time></trkpt><trkpt lat="44.71415893230917" lon="10.22512507222082"><ele>174.0</ele><time>2026-04-19T10:01:17Z</time></trkpt><trkpt lat="44.714248488584325" lon="10.225187383290617"><ele>174.0</ele><time>2026-04-19T10:01:26Z</time></trkpt><trkpt lat="44.714353964283184" lon="10.225193260906394"><ele>174.0</ele><time>2026-04-19T10:01:27Z</time></trkpt><trkpt lat="44.714438541614285" lon="10.22520365221828"><ele>173.0</ele><time>2026-04-19T10:01:28Z</time></trkpt><trkpt lat="44.714544203383355" lon="10.225249120915443"><ele>172.0</ele><time>2026-04-19T10:01:29Z</time></trkpt><trkpt lat="44.71466835506747" lon="10.225270357751002"><ele>171.0</ele><time>2026-04-19T10:01:30Z</time></trkpt><trkpt lat="44.71479614288655" lon="10.22531665770193"><ele>170.0</ele><time>2026-04-19T10:01:31Z</time></trkpt><trkpt lat="44.7149135779631" lon="10.22534862956011"><ele>170.0</ele><time>2026-04-19T10:01:32Z</time></trkpt><trkpt lat="44.71503288073637" lon="10.22538336297159"><ele>170.0</ele><time>2026-04-19T10:01:33Z</time></trkpt><trkpt lat="44.71514322127235" lon="10.225419027627812"><ele>170.0</ele><time>2026-04-19T10:01:34Z</time></trkpt><trkpt lat="44.71524561542937" lon="10.225443207332923"><ele>170.0</ele><time>2026-04-19T10:01:35Z</time></trkpt><trkpt lat="44.715357612146505" lon="10.225487056237773"><ele>169.8</ele><time>2026-04-19T10:01:36Z</time></trkpt><trkpt lat="44.71545770820029" lon="10.22551825206938"><ele>169.6</ele><time>2026-04-19T10:01:37Z</time></trkpt><trkpt lat="44.71556723382533" lon="10.22555076249497"><ele>169.39999999999998</ele><time>2026-04-19T10:01:38Z</time></trkpt><trkpt lat="44.715674863719094" lon="10.225585981332394"><ele>169.2</ele><time>2026-04-19T10:01:39Z</time></trkpt><trkpt lat="44.715778123085904" lon="10.225613376601125"><ele>169.0</ele><time>2026-04-19T10:01:40Z</time></trkpt><trkpt lat="44.71587157765941" lon="10.225651539781003"><ele>169.0</ele><time>2026-04-19T10:01:41Z</time></trkpt><trkpt lat="44.715974872167905" lon="10.225676939458094"><ele>169.0</ele><time>2026-04-19T10:01:42Z</time></trkpt><trkpt lat="44.716071355498435" lon="10.225694469755615"><ele>169.0</ele><time>2026-04-19T10:01:43Z</time></trkpt><trkpt lat="44.716166814427474" lon="10.225725553602242"><ele>169.0</ele><time>2026-04-19T10:01:44Z</time></trkpt><trkpt lat="44.71625442651464" lon="10.225749220478352"><ele>169.0</ele><time>2026-04-19T10:01:45Z</time></trkpt><trkpt lat="44.71633793070328" lon="10.225792888389643"><ele>168.6</ele><time>2026-04-19T10:01:46Z</time></trkpt><trkpt lat="44.71643016756278" lon="10.225840657304282"><ele>168.2</ele><time>2026-04-19T10:01:47Z</time></trkpt><trkpt lat="44.71650852434521" lon="10.225939922222361"><ele>167.79999999999998</ele><time>2026-04-19T10:01:48Z</time></trkpt><trkpt lat="44.716570021041996" lon="10.226036079828841"><ele>167.39999999999998</ele><time>2026-04-19T10:01:49Z</time></trkpt><trkpt lat="44.71664056862756" lon="10.22612429508661"><ele>167.0</ele><time>2026-04-19T10:01:50Z</time></trkpt><trkpt lat="44.71672605044237" lon="10.22619436812638"><ele>167.0</ele><time>2026-04-19T10:01:51Z</time></trkpt><trkpt lat="44.716819513646676" lon="10.226259569441638"><ele>167.0</ele><time>2026-04-19T10:01:52Z</time></trkpt><trkpt lat="44.716899871073096" lon="10.226362818076689"><ele>167.0</ele><time>2026-04-19T10:01:53Z</time></trkpt><trkpt lat="44.716988389299445" lon="10.226478614901833"><ele>167.0</ele><time>2026-04-19T10:01:54Z</time></trkpt><trkpt lat="44.71708009926071" lon="10.226592039548454"><ele>167.0</ele><time>2026-04-19T10:01:55Z</time></trkpt><trkpt lat="44.71717613763018" lon="10.226705274700327"><ele>167.0</ele><time>2026-04-19T10:01:56Z</time></trkpt><trkpt lat="44.7172663013534" lon="10.22681774015451"><ele>167.0</ele><time>2026-04-19T10:01:56.999Z</time></trkpt><trkpt lat="44.71736076460708" lon="10.226935188504124"><ele>167.0</ele><time>2026-04-19T10:01:57.999Z</time></trkpt><trkpt lat="44.7174497892257" lon="10.227048802700159"><ele>167.0</ele><time>2026-04-19T10:01:58.999Z</time></trkpt><trkpt lat="44.717530930584864" lon="10.227164055632946"><ele>167.0</ele><time>2026-04-19T10:01:59.999Z</time></trkpt><trkpt lat="44.71763557200525" lon="10.227279283475234"><ele>167.0</ele><time>2026-04-19T10:02:00.999Z</time></trkpt><trkpt lat="44.71774124253562" lon="10.22739620497825"><ele>167.0</ele><time>2026-04-19T10:02:01.999Z</time></trkpt><trkpt lat="44.71785244411267" lon="10.227506283234542"><ele>167.5</ele><time>2026-04-19T10:02:02.999Z</time></trkpt><trkpt lat="44.7179603433013" lon="10.227592114368456"><ele>168.0</ele><time>2026-04-19T10:02:03.999Z</time></trkpt><trkpt lat="44.71807850026466" lon="10.227653095693148"><ele>168.5</ele><time>2026-04-19T10:02:04.999Z</time></trkpt><trkpt lat="44.71819813526456" lon="10.227687455924722"><ele>169.0</ele><time>2026-04-19T10:02:05.999Z</time></trkpt><trkpt lat="44.718322494273885" lon="10.22772301171237"><ele>169.0</ele><time>2026-04-19T10:02:06.999Z</time></trkpt><trkpt lat="44.71845112942132" lon="10.227746371857027"><ele>169.0</ele><time>2026-04-19T10:02:07.999Z</time></trkpt><trkpt lat="44.718576576959464" lon="10.227769823699276"><ele>169.0</ele><time>2026-04-19T10:02:08.999Z</time></trkpt><trkpt lat="44.71869975250751" lon="10.227802635597143"><ele>169.0</ele><time>2026-04-19T10:02:09.999Z</time></trkpt><trkpt lat="44.71882803213798" lon="10.22783823576404"><ele>168.75</ele><time>2026-04-19T10:02:10.999Z</time></trkpt><trkpt lat="44.718952046545596" lon="10.227870813146858"><ele>168.5</ele><time>2026-04-19T10:02:11.999Z</time></trkpt><trkpt lat="44.71907576729505" lon="10.227900396464054"><ele>168.25</ele><time>2026-04-19T10:02:12.999Z</time></trkpt><trkpt lat="44.71919824306338" lon="10.227925286911313"><ele>168.0</ele><time>2026-04-19T10:02:13.999Z</time></trkpt><trkpt lat="44.71932899540873" lon="10.227948949934957"><ele>167.0</ele><time>2026-04-19T10:02:14.999Z</time></trkpt><trkpt lat="44.719465623649604" lon="10.227963616063612"><ele>166.0</ele><time>2026-04-19T10:02:15.999Z</time></trkpt><trkpt lat="44.71960285758331" lon="10.227973718104161"><ele>165.0</ele><time>2026-04-19T10:02:16.999Z</time></trkpt><trkpt lat="44.719748488993105" lon="10.227980032190313"><ele>164.0</ele><time>2026-04-19T10:02:17.999Z</time></trkpt><trkpt lat="44.71989134000593" lon="10.227986040031986"><ele>164.0</ele><time>2026-04-19T10:02:18.999Z</time></trkpt><trkpt lat="44.720036879671525" lon="10.227990930936537"><ele>164.0</ele><time>2026-04-19T10:02:19.999Z</time></trkpt><trkpt lat="44.720186034140184" lon="10.227995106263691"><ele>164.0</ele><time>2026-04-19T10:02:20.999Z</time></trkpt><trkpt lat="44.720337009041046" lon="10.227997448268864"><ele>164.0</ele><time>2026-04-19T10:02:21.999Z</time></trkpt><trkpt lat="44.72048716790342" lon="10.227999171711001"><ele>163.0</ele><time>2026-04-19T10:02:22.999Z</time></trkpt><trkpt lat="44.720638065031615" lon="10.22800431790099"><ele>162.0</ele><time>2026-04-19T10:02:23.999Z</time></trkpt><trkpt lat="44.72078580790957" lon="10.228008766640494"><ele>161.0</ele><time>2026-04-19T10:02:24.999Z</time></trkpt><trkpt lat="44.72093942962004" lon="10.228019229009561"><ele>160.25</ele><time>2026-04-19T10:02:25.999Z</time></trkpt><trkpt lat="44.72108969516022" lon="10.22802258074244"><ele>159.5</ele><time>2026-04-19T10:02:26.999Z</time></trkpt><trkpt lat="44.72123725330065" lon="10.2280243395408"><ele>158.75</ele><time>2026-04-19T10:02:27.999Z</time></trkpt><trkpt lat="44.72138578299831" lon="10.228022491261"><ele>158.0</ele><time>2026-04-19T10:02:28.999Z</time></trkpt><trkpt lat="44.7215299253237" lon="10.228022293087694"><ele>158.0</ele><time>2026-04-19T10:02:29.999Z</time></trkpt><trkpt lat="44.721664213960395" lon="10.228026289359311"><ele>158.0</ele><time>2026-04-19T10:02:30.999Z</time></trkpt><trkpt lat="44.721803463629044" lon="10.228034685664824"><ele>158.0</ele><time>2026-04-19T10:02:31.999Z</time></trkpt><trkpt lat="44.721936613951506" lon="10.228049697047954"><ele>158.0</ele><time>2026-04-19T10:02:32.999Z</time></trkpt><trkpt lat="44.72205921134055" lon="10.228074854083884"><ele>157.66666666666666</ele><time>2026-04-19T10:02:33.999Z</time></trkpt><trkpt lat="44.722153188205574" lon="10.228106673129409"><ele>157.33333333333331</ele><time>2026-04-19T10:02:34.999Z</time></trkpt><trkpt lat="44.722215016247546" lon="10.228161284320848"><ele>157.0</ele><time>2026-04-19T10:02:35.999Z</time></trkpt><trkpt lat="44.72225519199441" lon="10.228241767641272"><ele>156.66666666666666</ele><time>2026-04-19T10:02:36.999Z</time></trkpt><trkpt lat="44.72228858551004" lon="10.22833681386962"><ele>156.33333333333334</ele><time>2026-04-19T10:02:37.999Z</time></trkpt><trkpt lat="44.7223235522087" lon="10.228452484595746"><ele>156.0</ele><time>2026-04-19T10:02:38.999Z</time></trkpt><trkpt lat="44.722337696777615" lon="10.228607958145139"><ele>156.0</ele><time>2026-04-19T10:02:39.999Z</time></trkpt><trkpt lat="44.722320086585384" lon="10.228763623110295"><ele>156.0</ele><time>2026-04-19T10:02:40.999Z</time></trkpt><trkpt lat="44.7222874920447" lon="10.228891640981805"><ele>156.0</ele><time>2026-04-19T10:02:41.999Z</time></trkpt><trkpt lat="44.722270246158324" lon="10.228991368354098"><ele>156.0</ele><time>2026-04-19T10:02:42.999Z</time></trkpt><trkpt lat="44.72226154315657" lon="10.229085537894871"><ele>156.0</ele><time>2026-04-19T10:02:46.999Z</time></trkpt><trkpt lat="44.722333677245054" lon="10.228858058117892"><ele>156.0</ele><time>2026-04-19T10:02:52Z</time></trkpt><trkpt lat="44.72234812308109" lon="10.228708133741545"><ele>156.0</ele><time>2026-04-19T10:02:53Z</time></trkpt><trkpt lat="44.722378833778514" lon="10.228542173968565"><ele>156.0</ele><time>2026-04-19T10:02:54Z</time></trkpt><trkpt lat="44.72244239612885" lon="10.228389240472046"><ele>156.0</ele><time>2026-04-19T10:02:55Z</time></trkpt><trkpt lat="44.722547481300175" lon="10.228249380845474"><ele>155.33333333333334</ele><time>2026-04-19T10:02:56Z</time></trkpt><trkpt lat="44.72267640727887" lon="10.228122380705187"><ele>154.66666666666669</ele><time>2026-04-19T10:02:57Z</time></trkpt><trkpt lat="44.722830494009116" lon="10.228052468297667"><ele>154.0</ele><time>2026-04-19T10:02:58Z</time></trkpt><trkpt lat="44.72299213747972" lon="10.228023728833332"><ele>154.0</ele><time>2026-04-19T10:02:59Z</time></trkpt><trkpt lat="44.72314863833937" lon="10.228024219542975"><ele>154.0</ele><time>2026-04-19T10:03:00Z</time></trkpt><trkpt lat="44.72329545828024" lon="10.227969124410041"><ele>154.0</ele><time>2026-04-19T10:03:01Z</time></trkpt><trkpt lat="44.723445972507484" lon="10.227938276227361"><ele>154.0</ele><time>2026-04-19T10:03:02Z</time></trkpt><trkpt lat="44.72359515085079" lon="10.227902473695092"><ele>154.0</ele><time>2026-04-19T10:03:03Z</time></trkpt><trkpt lat="44.723751093093384" lon="10.22786046651954"><ele>154.0</ele><time>2026-04-19T10:03:04Z</time></trkpt><trkpt lat="44.72390172273219" lon="10.227819731378894"><ele>154.0</ele><time>2026-04-19T10:03:05Z</time></trkpt><trkpt lat="44.72405285779729" lon="10.227782792812663"><ele>154.0</ele><time>2026-04-19T10:03:06Z</time></trkpt><trkpt lat="44.724213568702865" lon="10.227736786502799"><ele>154.0</ele><time>2026-04-19T10:03:07Z</time></trkpt><trkpt lat="44.72439703239299" lon="10.227712979703735"><ele>153.33333333333334</ele><time>2026-04-19T10:03:08Z</time></trkpt><trkpt lat="44.72458917458062" lon="10.227666465697038"><ele>152.66666666666666</ele><time>2026-04-19T10:03:09Z</time></trkpt><trkpt lat="44.72478912158518" lon="10.227618062322444"><ele>152.0</ele><time>2026-04-19T10:03:10Z</time></trkpt><trkpt lat="44.724981112992076" lon="10.227571584845345"><ele>152.0</ele><time>2026-04-19T10:03:11Z</time></trkpt><trkpt lat="44.72518395628874" lon="10.227522480302426"><ele>152.0</ele><time>2026-04-19T10:03:12Z</time></trkpt><trkpt lat="44.72537952746285" lon="10.227475136257162"><ele>152.0</ele><time>2026-04-19T10:03:13Z</time></trkpt><trkpt lat="44.72555927156532" lon="10.227431623621372"><ele>152.0</ele><time>2026-04-19T10:03:14Z</time></trkpt><trkpt lat="44.72573564086259" lon="10.227373071939958"><ele>152.0</ele><time>2026-04-19T10:03:15Z</time></trkpt><trkpt lat="44.725920102842444" lon="10.227332798396557"><ele>152.0</ele><time>2026-04-19T10:03:16Z</time></trkpt><trkpt lat="44.72609580352041" lon="10.227287421905318"><ele>150.66666666666666</ele><time>2026-04-19T10:03:17Z</time></trkpt><trkpt lat="44.72627680990273" lon="10.227240808260241"><ele>149.33333333333334</ele><time>2026-04-19T10:03:18Z</time></trkpt><trkpt lat="44.7264666097129" lon="10.22719373151047"><ele>148.0</ele><time>2026-04-19T10:03:19Z</time></trkpt><trkpt lat="44.7266509551714" lon="10.227147191726932"><ele>148.0</ele><time>2026-04-19T10:03:20Z</time></trkpt><trkpt lat="44.72683619899198" lon="10.227122123512789"><ele>148.0</ele><time>2026-04-19T10:03:21Z</time></trkpt><trkpt lat="44.727031609813366" lon="10.227062422410063"><ele>148.0</ele><time>2026-04-19T10:03:22Z</time></trkpt><trkpt lat="44.72722485399883" lon="10.227016768489442"><ele>148.33333333333334</ele><time>2026-04-19T10:03:23Z</time></trkpt><trkpt lat="44.72741232178806" lon="10.226976580634172"><ele>148.66666666666666</ele><time>2026-04-19T10:03:24Z</time></trkpt><trkpt lat="44.72761325864716" lon="10.22692672726231"><ele>149.0</ele><time>2026-04-19T10:03:25Z</time></trkpt><trkpt lat="44.72781303791605" lon="10.226878694292973"><ele>149.33333333333331</ele><time>2026-04-19T10:03:26Z</time></trkpt><trkpt lat="44.72801396548265" lon="10.226830850434283"><ele>149.66666666666666</ele><time>2026-04-19T10:03:27Z</time></trkpt><trkpt lat="44.72821657622122" lon="10.226776035246395"><ele>150.0</ele><time>2026-04-19T10:03:28Z</time></trkpt><trkpt lat="44.72842052140212" lon="10.226723538276229"><ele>148.0</ele><time>2026-04-19T10:03:29Z</time></trkpt><trkpt lat="44.728629429647334" lon="10.226678123055338"><ele>146.0</ele><time>2026-04-19T10:03:30Z</time></trkpt><trkpt lat="44.72883994348603" lon="10.226634269655294"><ele>144.0</ele><time>2026-04-19T10:03:31Z</time></trkpt><trkpt lat="44.729055522941536" lon="10.22659311656042"><ele>144.0</ele><time>2026-04-19T10:03:32Z</time></trkpt><trkpt lat="44.72926961212825" lon="10.226550194766478"><ele>144.0</ele><time>2026-04-19T10:03:33Z</time></trkpt><trkpt lat="44.72948608592486" lon="10.226517065557111"><ele>144.0</ele><time>2026-04-19T10:03:34Z</time></trkpt><trkpt lat="44.72970749509052" lon="10.226482026791741"><ele>144.0</ele><time>2026-04-19T10:03:35Z</time></trkpt><trkpt lat="44.729930146775274" lon="10.226444110740882"><ele>144.0</ele><time>2026-04-19T10:03:36Z</time></trkpt><trkpt lat="44.73015056414633" lon="10.226401475908688"><ele>144.0</ele><time>2026-04-19T10:03:37Z</time></trkpt><trkpt lat="44.73037267745477" lon="10.22635568928758"><ele>144.0</ele><time>2026-04-19T10:03:38Z</time></trkpt><trkpt lat="44.7305927222108" lon="10.226297096882618"><ele>144.0</ele><time>2026-04-19T10:03:39Z</time></trkpt><trkpt lat="44.730804772152645" lon="10.226214614693772"><ele>144.0</ele><time>2026-04-19T10:03:40Z</time></trkpt><trkpt lat="44.731012438462244" lon="10.226103774011628"><ele>144.33333333333334</ele><time>2026-04-19T10:03:41Z</time></trkpt><trkpt lat="44.73121794266816" lon="10.225973571642077"><ele>144.66666666666669</ele><time>2026-04-19T10:03:42Z</time></trkpt><trkpt lat="44.73143074783622" lon="10.225877686300006"><ele>145.0</ele><time>2026-04-19T10:03:43Z</time></trkpt><trkpt lat="44.731640663603685" lon="10.225761999859637"><ele>145.0</ele><time>2026-04-19T10:03:44Z</time></trkpt><trkpt lat="44.73186242165431" lon="10.22568487750667"><ele>145.0</ele><time>2026-04-19T10:03:45Z</time></trkpt><trkpt lat="44.732085360658246" lon="10.225672430582701"><ele>142.0</ele><time>2026-04-19T10:03:46Z</time></trkpt><trkpt lat="44.73231150559928" lon="10.225628074278196"><ele>139.0</ele><time>2026-04-19T10:03:47Z</time></trkpt><trkpt lat="44.73253764283307" lon="10.225618267114049"><ele>138.0</ele><time>2026-04-19T10:03:48Z</time></trkpt><trkpt lat="44.73276677610742" lon="10.225596787833442"><ele>137.0</ele><time>2026-04-19T10:03:49Z</time></trkpt><trkpt lat="44.7329892038116" lon="10.225574221917407"><ele>137.0</ele><time>2026-04-19T10:03:50Z</time></trkpt><trkpt lat="44.73321554667019" lon="10.225545990678201"><ele>137.0</ele><time>2026-04-19T10:03:51Z</time></trkpt><trkpt lat="44.733449559750134" lon="10.225524833987844"><ele>135.5</ele><time>2026-04-19T10:03:52Z</time></trkpt><trkpt lat="44.733681006854404" lon="10.225508721467973"><ele>134.0</ele><time>2026-04-19T10:03:53Z</time></trkpt><trkpt lat="44.733912871961934" lon="10.22549238637271"><ele>134.0</ele><time>2026-04-19T10:03:54Z</time></trkpt><trkpt lat="44.73414757859437" lon="10.225475234926101"><ele>134.0</ele><time>2026-04-19T10:03:55Z</time></trkpt><trkpt lat="44.73438084019798" lon="10.225460657800609"><ele>134.0</ele><time>2026-04-19T10:03:56Z</time></trkpt><trkpt lat="44.73460933416973" lon="10.22544640041494"><ele>134.0</ele><time>2026-04-19T10:03:57Z</time></trkpt><trkpt lat="44.734838076369414" lon="10.225430039000377"><ele>134.0</ele><time>2026-04-19T10:03:58Z</time></trkpt><trkpt lat="44.73506813590373" lon="10.225414105750671"><ele>134.0</ele><time>2026-04-19T10:03:59Z</time></trkpt><trkpt lat="44.73529684100952" lon="10.225396728806338"><ele>133.5</ele><time>2026-04-19T10:04:00Z</time></trkpt><trkpt lat="44.73552457752067" lon="10.225380272380226"><ele>133.0</ele><time>2026-04-19T10:04:01Z</time></trkpt><trkpt lat="44.73575522173146" lon="10.225367691053885"><ele>133.0</ele><time>2026-04-19T10:04:01.999Z</time></trkpt><trkpt lat="44.73598094503305" lon="10.225350836539292"><ele>133.0</ele><time>2026-04-19T10:04:02.999Z</time></trkpt><trkpt lat="44.73619741403749" lon="10.22533185763293"><ele>133.0</ele><time>2026-04-19T10:04:03.999Z</time></trkpt><trkpt lat="44.73641207181028" lon="10.225338080481244"><ele>132.66666666666669</ele><time>2026-04-19T10:04:04.999Z</time></trkpt><trkpt lat="44.736631676003526" lon="10.225301079245611"><ele>132.33333333333334</ele><time>2026-04-19T10:04:05.999Z</time></trkpt><trkpt lat="44.73685018603112" lon="10.225290454249338"><ele>132.0</ele><time>2026-04-19T10:04:06.999Z</time></trkpt><trkpt lat="44.7370745671092" lon="10.225276941813009"><ele>131.5</ele><time>2026-04-19T10:04:07.999Z</time></trkpt><trkpt lat="44.73729760114275" lon="10.225265006247792"><ele>131.0</ele><time>2026-04-19T10:04:08.999Z</time></trkpt><trkpt lat="44.737523998751726" lon="10.225255944597507"><ele>130.0</ele><time>2026-04-19T10:04:09.999Z</time></trkpt><trkpt lat="44.73774800494107" lon="10.225243819066847"><ele>129.0</ele><time>2026-04-19T10:04:10.999Z</time></trkpt><trkpt lat="44.73797291620394" lon="10.22522989672963"><ele>128.0</ele><time>2026-04-19T10:04:11.999Z</time></trkpt><trkpt lat="44.73819757720381" lon="10.225215412162092"><ele>128.0</ele><time>2026-04-19T10:04:12.999Z</time></trkpt><trkpt lat="44.73842645223025" lon="10.225202244802578"><ele>128.0</ele><time>2026-04-19T10:04:13.999Z</time></trkpt><trkpt lat="44.73865453575989" lon="10.225189523157704"><ele>127.5</ele><time>2026-04-19T10:04:14.999Z</time></trkpt><trkpt lat="44.73888211160001" lon="10.225178632776387"><ele>127.0</ele><time>2026-04-19T10:04:15.999Z</time></trkpt><trkpt lat="44.73911281345877" lon="10.225167413525076"><ele>127.0</ele><time>2026-04-19T10:04:16.999Z</time></trkpt><trkpt lat="44.73934248938531" lon="10.22515448790868"><ele>127.0</ele><time>2026-04-19T10:04:17.999Z</time></trkpt><trkpt lat="44.73957196998409" lon="10.22514293707938"><ele>127.5</ele><time>2026-04-19T10:04:18.999Z</time></trkpt><trkpt lat="44.739801860712014" lon="10.225129572880103"><ele>128.0</ele><time>2026-04-19T10:04:19.999Z</time></trkpt><trkpt lat="44.74002901333335" lon="10.225116031420413"><ele>128.0</ele><time>2026-04-19T10:04:20.999Z</time></trkpt><trkpt lat="44.74025849178161" lon="10.225102065353667"><ele>128.0</ele><time>2026-04-19T10:04:21.999Z</time></trkpt><trkpt lat="44.74048582614111" lon="10.225088904657403"><ele>128.0</ele><time>2026-04-19T10:04:22.999Z</time></trkpt><trkpt lat="44.74071695253916" lon="10.225076296617383"><ele>128.0</ele><time>2026-04-19T10:04:23.999Z</time></trkpt><trkpt lat="44.74094379572818" lon="10.225059767815967"><ele>127.5</ele><time>2026-04-19T10:04:24.999Z</time></trkpt><trkpt lat="44.74117050553864" lon="10.225048907174184"><ele>127.0</ele><time>2026-04-19T10:04:25.999Z</time></trkpt><trkpt lat="44.74139782655149" lon="10.22503342374422"><ele>127.0</ele><time>2026-04-19T10:04:26.999Z</time></trkpt><trkpt lat="44.7416189140038" lon="10.22502233200322"><ele>127.0</ele><time>2026-04-19T10:04:27.999Z</time></trkpt><trkpt lat="44.74184920983439" lon="10.225008649236488"><ele>126.66666666666667</ele><time>2026-04-19T10:04:28.999Z</time></trkpt><trkpt lat="44.74207522158542" lon="10.22499245948568"><ele>126.33333333333334</ele><time>2026-04-19T10:04:29.999Z</time></trkpt><trkpt lat="44.742293226741985" lon="10.224978626564004"><ele>126.0</ele><time>2026-04-19T10:04:30.999Z</time></trkpt><trkpt lat="44.74249346495638" lon="10.224969530933397"><ele>126.0</ele><time>2026-04-19T10:04:31.999Z</time></trkpt><trkpt lat="44.742686912117065" lon="10.224956762843384"><ele>126.0</ele><time>2026-04-19T10:04:32.999Z</time></trkpt><trkpt lat="44.74286543057134" lon="10.22494494498568"><ele>126.0</ele><time>2026-04-19T10:04:33.999Z</time></trkpt><trkpt lat="44.74304551154186" lon="10.224935371560031"><ele>125.33333333333334</ele><time>2026-04-19T10:04:34.999Z</time></trkpt><trkpt lat="44.74320497879214" lon="10.224926336307746"><ele>124.66666666666667</ele><time>2026-04-19T10:04:35.999Z</time></trkpt><trkpt lat="44.743377818706975" lon="10.224915320579905"><ele>124.0</ele><time>2026-04-19T10:04:36.999Z</time></trkpt><trkpt lat="44.743548288542925" lon="10.224904752300933"><ele>124.0</ele><time>2026-04-19T10:04:37.999Z</time></trkpt><trkpt lat="44.74370844581415" lon="10.224895885773606"><ele>124.0</ele><time>2026-04-19T10:04:38.999Z</time></trkpt><trkpt lat="44.7438524894967" lon="10.22488699810386"><ele>124.0</ele><time>2026-04-19T10:04:39.999Z</time></trkpt><trkpt lat="44.74395629708938" lon="10.224894473173823"><ele>124.0</ele><time>2026-04-19T10:04:40.999Z</time></trkpt><trkpt lat="44.74403878504185" lon="10.22491826033217"><ele>124.00000000000001</ele><time>2026-04-19T10:04:41.999Z</time></trkpt><trkpt lat="44.74410423918381" lon="10.224962345886995"><ele>124.0</ele><time>2026-04-19T10:04:42.999Z</time></trkpt><trkpt lat="44.74416439867484" lon="10.225003776642362"><ele>124.0</ele><time>2026-04-19T10:04:43.999Z</time></trkpt><trkpt lat="44.744230033470295" lon="10.225008765562746"><ele>124.0</ele><time>2026-04-19T10:04:44.999Z</time></trkpt><trkpt lat="44.744290632459816" lon="10.224960647723517"><ele>124.00000000000001</ele><time>2026-04-19T10:04:45.999Z</time></trkpt><trkpt lat="44.7443416298397" lon="10.224850618923712"><ele>124.0</ele><time>2026-04-19T10:04:46.999Z</time></trkpt><trkpt lat="44.744381548541746" lon="10.224726788144157"><ele>123.75</ele><time>2026-04-19T10:04:47.999Z</time></trkpt><trkpt lat="44.744490762170614" lon="10.224661874125282"><ele>123.5</ele><time>2026-04-19T10:04:48.999Z</time></trkpt><trkpt lat="44.744590645115785" lon="10.22456047324193"><ele>123.25</ele><time>2026-04-19T10:04:49.999Z</time></trkpt><trkpt lat="44.74470606732747" lon="10.224487266231435"><ele>123.0</ele><time>2026-04-19T10:04:50.999Z</time></trkpt><trkpt lat="44.744825974210556" lon="10.22440475666544"><ele>123.0</ele><time>2026-04-19T10:04:51.999Z</time></trkpt><trkpt lat="44.74494822240385" lon="10.224315617284416"><ele>123.0</ele><time>2026-04-19T10:04:52.999Z</time></trkpt><trkpt lat="44.74507148446836" lon="10.22422041265046"><ele>123.0</ele><time>2026-04-19T10:04:53.999Z</time></trkpt><trkpt lat="44.74519736123997" lon="10.224125937176982"><ele>123.0</ele><time>2026-04-19T10:04:54.999Z</time></trkpt><trkpt lat="44.74533025879752" lon="10.224031576802368"><ele>122.66666666666666</ele><time>2026-04-19T10:04:55.999Z</time></trkpt><trkpt lat="44.74547063758829" lon="10.223937408181822"><ele>122.33333333333333</ele><time>2026-04-19T10:04:57Z</time></trkpt><trkpt lat="44.745618081398874" lon="10.223851295452153"><ele>122.0</ele><time>2026-04-19T10:04:58Z</time></trkpt><trkpt lat="44.74576833949555" lon="10.223780808290265"><ele>122.0</ele><time>2026-04-19T10:04:59Z</time></trkpt><trkpt lat="44.74591607343484" lon="10.223727512704206"><ele>122.0</ele><time>2026-04-19T10:05:00Z</time></trkpt><trkpt lat="44.746085760327176" lon="10.223691446195206"><ele>122.0</ele><time>2026-04-19T10:05:01Z</time></trkpt><trkpt lat="44.746252973500255" lon="10.223665413099349"><ele>121.66666666666666</ele><time>2026-04-19T10:05:02Z</time></trkpt><trkpt lat="44.74642054988286" lon="10.22366559744284"><ele>121.33333333333334</ele><time>2026-04-19T10:05:03Z</time></trkpt><trkpt lat="44.74658723464218" lon="10.223682395096219"><ele>121.0</ele><time>2026-04-19T10:05:04Z</time></trkpt><trkpt lat="44.746757577526694" lon="10.223700063177754"><ele>121.0</ele><time>2026-04-19T10:05:05Z</time></trkpt><trkpt lat="44.746937399086" lon="10.223723425827231"><ele>121.0</ele><time>2026-04-19T10:05:06Z</time></trkpt><trkpt lat="44.7471046763586" lon="10.223743565589086"><ele>121.0</ele><time>2026-04-19T10:05:07Z</time></trkpt><trkpt lat="44.74726124177923" lon="10.223765779395809"><ele>121.0</ele><time>2026-04-19T10:05:08Z</time></trkpt><trkpt lat="44.7474133820697" lon="10.223782443358264"><ele>121.0</ele><time>2026-04-19T10:05:09Z</time></trkpt><trkpt lat="44.74755859969406" lon="10.223798194770264"><ele>121.0</ele><time>2026-04-19T10:05:10Z</time></trkpt><trkpt lat="44.747685928118266" lon="10.22381416668173"><ele>121.0</ele><time>2026-04-19T10:05:11Z</time></trkpt><trkpt lat="44.747788911935096" lon="10.223831328804787"><ele>120.6</ele><time>2026-04-19T10:05:12Z</time></trkpt><trkpt lat="44.74787332294769" lon="10.223845020794665"><ele>120.19999999999999</ele><time>2026-04-19T10:05:13Z</time></trkpt><trkpt lat="44.74796196502406" lon="10.223855030002587"><ele>119.80000000000001</ele><time>2026-04-19T10:05:14Z</time></trkpt><trkpt lat="44.748062729149645" lon="10.223864582795066"><ele>119.4</ele><time>2026-04-19T10:05:15Z</time></trkpt><trkpt lat="44.7481780081504" lon="10.223878151914743"><ele>119.0</ele><time>2026-04-19T10:05:16Z</time></trkpt><trkpt lat="44.748308684319625" lon="10.22389413270639"><ele>119.0</ele><time>2026-04-19T10:05:17Z</time></trkpt><trkpt lat="44.74845194364902" lon="10.223913169954358"><ele>119.0</ele><time>2026-04-19T10:05:18Z</time></trkpt><trkpt lat="44.7485966333104" lon="10.223934165715445"><ele>119.0</ele><time>2026-04-19T10:05:19Z</time></trkpt><trkpt lat="44.7487516097674" lon="10.223949211571565"><ele>119.0</ele><time>2026-04-19T10:05:20Z</time></trkpt><trkpt lat="44.74891691442998" lon="10.22396801563919"><ele>119.0</ele><time>2026-04-19T10:05:21Z</time></trkpt><trkpt lat="44.74909042765177" lon="10.223992240197578"><ele>119.0</ele><time>2026-04-19T10:05:22Z</time></trkpt><trkpt lat="44.749258624669494" lon="10.224017374638285"><ele>119.0</ele><time>2026-04-19T10:05:23Z</time></trkpt><trkpt lat="44.74943666271966" lon="10.22404289696182"><ele>118.33333333333333</ele><time>2026-04-19T10:05:24Z</time></trkpt><trkpt lat="44.749616158707575" lon="10.224066847845375"><ele>117.66666666666666</ele><time>2026-04-19T10:05:25Z</time></trkpt><trkpt lat="44.74979362266846" lon="10.22408813105579"><ele>117.0</ele><time>2026-04-19T10:05:26Z</time></trkpt><trkpt lat="44.74996649309543" lon="10.224109664758306"><ele>117.0</ele><time>2026-04-19T10:05:27Z</time></trkpt><trkpt lat="44.75013211545098" lon="10.224128843610506"><ele>117.0</ele><time>2026-04-19T10:05:28Z</time></trkpt><trkpt lat="44.75028400048549" lon="10.224147507875694"><ele>117.0</ele><time>2026-04-19T10:05:29Z</time></trkpt><trkpt lat="44.7504448250065" lon="10.224167300502904"><ele>117.0</ele><time>2026-04-19T10:05:30Z</time></trkpt><trkpt lat="44.75061021907239" lon="10.224188127074303"><ele>117.0</ele><time>2026-04-19T10:05:31Z</time></trkpt><trkpt lat="44.75078140996672" lon="10.22420535077693"><ele>117.0</ele><time>2026-04-19T10:05:32Z</time></trkpt><trkpt lat="44.750951254133234" lon="10.224225155185989"><ele>117.0</ele><time>2026-04-19T10:05:33Z</time></trkpt><trkpt lat="44.75111956996043" lon="10.224248651370369"><ele>117.0</ele><time>2026-04-19T10:05:34Z</time></trkpt><trkpt lat="44.75128474474892" lon="10.224273214495792"><ele>117.0</ele><time>2026-04-19T10:05:35Z</time></trkpt><trkpt lat="44.75144476943725" lon="10.224294009625385"><ele>117.0</ele><time>2026-04-19T10:05:36Z</time></trkpt><trkpt lat="44.75159852017121" lon="10.224315532396343"><ele>117.0</ele><time>2026-04-19T10:05:37Z</time></trkpt><trkpt lat="44.75174432799754" lon="10.224335500532618"><ele>117.0</ele><time>2026-04-19T10:05:38Z</time></trkpt><trkpt lat="44.75187948822107" lon="10.224351881756363"><ele>117.0</ele><time>2026-04-19T10:05:39Z</time></trkpt><trkpt lat="44.751987845699745" lon="10.224360861575946"><ele>116.8</ele><time>2026-04-19T10:05:40Z</time></trkpt><trkpt lat="44.75206436388006" lon="10.224370262625692"><ele>116.6</ele><time>2026-04-19T10:05:41Z</time></trkpt><trkpt lat="44.75217980434618" lon="10.224397527105653"><ele>116.39999999999999</ele><time>2026-04-19T10:05:43Z</time></trkpt><trkpt lat="44.75228165823658" lon="10.22446127961822"><ele>116.19999999999999</ele><time>2026-04-19T10:05:45Z</time></trkpt><trkpt lat="44.75237171441825" lon="10.224558792037186"><ele>116.0</ele><time>2026-04-19T10:05:47Z</time></trkpt><trkpt lat="44.75242978313079" lon="10.224616406744238"><ele>115.99999999999999</ele><time>2026-04-19T10:05:48Z</time></trkpt><trkpt lat="44.752494114700426" lon="10.224662792055543"><ele>116.0</ele><time>2026-04-19T10:05:49Z</time></trkpt><trkpt lat="44.75255746378274" lon="10.22469518526675"><ele>116.0</ele><time>2026-04-19T10:05:50Z</time></trkpt><trkpt lat="44.75262525076504" lon="10.224718596141395"><ele>116.0</ele><time>2026-04-19T10:05:51Z</time></trkpt><trkpt lat="44.752680044138295" lon="10.224813518778722"><ele>115.99999999999999</ele><time>2026-04-19T10:05:52Z</time></trkpt><trkpt lat="44.75272557798105" lon="10.22489269023337"><ele>116.0</ele><time>2026-04-19T10:05:53Z</time></trkpt><trkpt lat="44.752774022854716" lon="10.2249849576959"><ele>116.0</ele><time>2026-04-19T10:05:54Z</time></trkpt><trkpt lat="44.75282053212071" lon="10.225086746362047"><ele>116.0</ele><time>2026-04-19T10:05:55Z</time></trkpt><trkpt lat="44.752875522688896" lon="10.225199473954119"><ele>116.0</ele><time>2026-04-19T10:05:56Z</time></trkpt><trkpt lat="44.75292836359456" lon="10.22531288781136"><ele>116.0</ele><time>2026-04-19T10:05:57Z</time></trkpt><trkpt lat="44.7529861622875" lon="10.225424750977522"><ele>116.0</ele><time>2026-04-19T10:05:58Z</time></trkpt><trkpt lat="44.75304649157875" lon="10.225546516556138"><ele>116.19999999999999</ele><time>2026-04-19T10:05:59Z</time></trkpt><trkpt lat="44.75310282886485" lon="10.2256675319396"><ele>116.39999999999999</ele><time>2026-04-19T10:06:00Z</time></trkpt><trkpt lat="44.75316441487493" lon="10.225796365929707"><ele>116.6</ele><time>2026-04-19T10:06:01Z</time></trkpt><trkpt lat="44.75322628259692" lon="10.225930987235362"><ele>116.8</ele><time>2026-04-19T10:06:02Z</time></trkpt><trkpt lat="44.75328652425964" lon="10.226065413299981"><ele>117.0</ele><time>2026-04-19T10:06:03Z</time></trkpt><trkpt lat="44.75335018213459" lon="10.226192245170834"><ele>117.0</ele><time>2026-04-19T10:06:04Z</time></trkpt><trkpt lat="44.75340342600302" lon="10.226320610613957"><ele>116.99999999999999</ele><time>2026-04-19T10:06:05Z</time></trkpt><trkpt lat="44.75345229986362" lon="10.226439687881527"><ele>116.99999999999999</ele><time>2026-04-19T10:06:05.999Z</time></trkpt><trkpt lat="44.753505179762506" lon="10.226550503692053"><ele>117.0</ele><time>2026-04-19T10:06:06.999Z</time></trkpt><trkpt lat="44.75356380419424" lon="10.226664830952545"><ele>117.0</ele><time>2026-04-19T10:06:07.999Z</time></trkpt><trkpt lat="44.75360925505573" lon="10.226759098147529"><ele>116.66666666666667</ele><time>2026-04-19T10:06:08.999Z</time></trkpt><trkpt lat="44.75365556882707" lon="10.226854593348307"><ele>116.33333333333334</ele><time>2026-04-19T10:06:09.999Z</time></trkpt><trkpt lat="44.75370443470907" lon="10.22693789876107"><ele>116.0</ele><time>2026-04-19T10:06:10.999Z</time></trkpt><trkpt lat="44.75375340193948" lon="10.227007236916652"><ele>115.66666666666667</ele><time>2026-04-19T10:06:11.999Z</time></trkpt><trkpt lat="44.75380628794547" lon="10.22708938019528"><ele>115.33333333333334</ele><time>2026-04-19T10:06:12.999Z</time></trkpt><trkpt lat="44.75385844719947" lon="10.227186080566005"><ele>115.0</ele><time>2026-04-19T10:06:13.999Z</time></trkpt><trkpt lat="44.75390846789312" lon="10.22728642844894"><ele>114.8</ele><time>2026-04-19T10:06:14.999Z</time></trkpt><trkpt lat="44.75396460989832" lon="10.227394159359937"><ele>114.6</ele><time>2026-04-19T10:06:15.999Z</time></trkpt><trkpt lat="44.754019876840005" lon="10.227513615257655"><ele>114.4</ele><time>2026-04-19T10:06:16.999Z</time></trkpt><trkpt lat="44.7540699965277" lon="10.227654524409507"><ele>114.2</ele><time>2026-04-19T10:06:17.999Z</time></trkpt><trkpt lat="44.75411190992062" lon="10.227808342008577"><ele>114.0</ele><time>2026-04-19T10:06:18.999Z</time></trkpt><trkpt lat="44.75416995935296" lon="10.227959658420302"><ele>114.0</ele><time>2026-04-19T10:06:19.999Z</time></trkpt><trkpt lat="44.75423962599251" lon="10.228109757457792"><ele>114.0</ele><time>2026-04-19T10:06:20.999Z</time></trkpt><trkpt lat="44.75430991571968" lon="10.22826099927858"><ele>114.0</ele><time>2026-04-19T10:06:21.999Z</time></trkpt><trkpt lat="44.75437984763655" lon="10.228407112921968"><ele>114.0</ele><time>2026-04-19T10:06:22.999Z</time></trkpt><trkpt lat="44.75444915520403" lon="10.228556334393266"><ele>113.75</ele><time>2026-04-19T10:06:23.999Z</time></trkpt><trkpt lat="44.75451901734672" lon="10.22870758506475"><ele>113.5</ele><time>2026-04-19T10:06:24.999Z</time></trkpt><trkpt lat="44.75458892979694" lon="10.228859333325005"><ele>113.25</ele><time>2026-04-19T10:06:25.999Z</time></trkpt><trkpt lat="44.7546575539032" lon="10.229006448525972"><ele>113.0</ele><time>2026-04-19T10:06:26.999Z</time></trkpt><trkpt lat="44.754724850386594" lon="10.22915425425001"><ele>112.75</ele><time>2026-04-19T10:06:27.999Z</time></trkpt><trkpt lat="44.75479106006985" lon="10.229304653552722"><ele>112.5</ele><time>2026-04-19T10:06:28.999Z</time></trkpt><trkpt lat="44.75485792253527" lon="10.22945261562728"><ele>112.25</ele><time>2026-04-19T10:06:29.999Z</time></trkpt><trkpt lat="44.75492122389874" lon="10.229591344114212"><ele>112.0</ele><time>2026-04-19T10:06:30.999Z</time></trkpt><trkpt lat="44.75497941517624" lon="10.229718105218623"><ele>112.0</ele><time>2026-04-19T10:06:31.999Z</time></trkpt><trkpt lat="44.755033506353065" lon="10.229834747841876"><ele>111.99999999999999</ele><time>2026-04-19T10:06:32.999Z</time></trkpt><trkpt lat="44.755085302504924" lon="10.229944719806632"><ele>111.99999999999999</ele><time>2026-04-19T10:06:33.999Z</time></trkpt><trkpt lat="44.75513647566053" lon="10.230055865621267"><ele>112.0</ele><time>2026-04-19T10:06:34.999Z</time></trkpt><trkpt lat="44.75519029356416" lon="10.230170260858598"><ele>112.0</ele><time>2026-04-19T10:06:35.999Z</time></trkpt><trkpt lat="44.75524253347559" lon="10.230274446177496"><ele>112.0</ele><time>2026-04-19T10:06:36.999Z</time></trkpt><trkpt lat="44.75529447649166" lon="10.230371583455877"><ele>111.99999999999999</ele><time>2026-04-19T10:06:37.999Z</time></trkpt><trkpt lat="44.75535244438296" lon="10.230466821274286"><ele>111.99999999999999</ele><time>2026-04-19T10:06:38.999Z</time></trkpt><trkpt lat="44.75540359622974" lon="10.230555881552386"><ele>112.0</ele><time>2026-04-19T10:06:39.999Z</time></trkpt><trkpt lat="44.75544360814007" lon="10.230635461216716"><ele>112.0</ele><time>2026-04-19T10:06:40.999Z</time></trkpt><trkpt lat="44.75550506683659" lon="10.230789930058917"><ele>112.00000000000001</ele><time>2026-04-19T10:06:42.999Z</time></trkpt><trkpt lat="44.75554804962108" lon="10.230858165951132"><ele>112.0</ele><time>2026-04-19T10:06:43.999Z</time></trkpt><trkpt lat="44.755574261054" lon="10.230947237747792"><ele>112.0</ele><time>2026-04-19T10:06:44.999Z</time></trkpt><trkpt lat="44.75558339253855" lon="10.231062015006353"><ele>112.0</ele><time>2026-04-19T10:06:45.999Z</time></trkpt><trkpt lat="44.75561481205774" lon="10.231172595166239"><ele>112.00000000000001</ele><time>2026-04-19T10:06:46.999Z</time></trkpt><trkpt lat="44.7556601949747" lon="10.231290489714942"><ele>112.0</ele><time>2026-04-19T10:06:47.999Z</time></trkpt><trkpt lat="44.75572738296469" lon="10.231399135942379"><ele>111.6</ele><time>2026-04-19T10:06:48.999Z</time></trkpt><trkpt lat="44.755818611174945" lon="10.231484391795254"><ele>111.19999999999999</ele><time>2026-04-19T10:06:49.999Z</time></trkpt><trkpt lat="44.75591182744977" lon="10.2315545153861"><ele>110.8</ele><time>2026-04-19T10:06:50.999Z</time></trkpt><trkpt lat="44.75599792950507" lon="10.231642052348695"><ele>110.4</ele><time>2026-04-19T10:06:51.999Z</time></trkpt><trkpt lat="44.7560681513873" lon="10.231754698146142"><ele>110.0</ele><time>2026-04-19T10:06:52.999Z</time></trkpt><trkpt lat="44.75614256914197" lon="10.231850593455587"><ele>109.5</ele><time>2026-04-19T10:06:53.999Z</time></trkpt><trkpt lat="44.756159614744725" lon="10.232025222756434"><ele>109.0</ele><time>2026-04-19T10:06:54.999Z</time></trkpt><trkpt lat="44.75619268785399" lon="10.232166382016862"><ele>108.5</ele><time>2026-04-19T10:06:55.999Z</time></trkpt><trkpt lat="44.756223809568745" lon="10.232305945759782"><ele>108.0</ele><time>2026-04-19T10:06:56.999Z</time></trkpt><trkpt lat="44.75627058377808" lon="10.232464431800809"><ele>108.0</ele><time>2026-04-19T10:06:57.999Z</time></trkpt><trkpt lat="44.756326332522306" lon="10.232624795720906"><ele>108.0</ele><time>2026-04-19T10:06:58.999Z</time></trkpt><trkpt lat="44.75639026914104" lon="10.232786842043298"><ele>108.0</ele><time>2026-04-19T10:06:59.999Z</time></trkpt><trkpt lat="44.75646376624061" lon="10.23294011874188"><ele>108.0</ele><time>2026-04-19T10:07:00.999Z</time></trkpt><trkpt lat="44.75653856375312" lon="10.233092166183953"><ele>108.75</ele><time>2026-04-19T10:07:01.999Z</time></trkpt><trkpt lat="44.756608129619" lon="10.233232459069367"><ele>109.5</ele><time>2026-04-19T10:07:03Z</time></trkpt><trkpt lat="44.75667269641812" lon="10.233370732957434"><ele>110.25</ele><time>2026-04-19T10:07:04Z</time></trkpt><trkpt lat="44.75673914474921" lon="10.233507051306644"><ele>111.0</ele><time>2026-04-19T10:07:05Z</time></trkpt><trkpt lat="44.75681268110602" lon="10.233650801183273"><ele>111.0</ele><time>2026-04-19T10:07:06Z</time></trkpt><trkpt lat="44.75688632315842" lon="10.233799082367318"><ele>111.0</ele><time>2026-04-19T10:07:07Z</time></trkpt><trkpt lat="44.7569571232598" lon="10.233953176921828"><ele>111.0</ele><time>2026-04-19T10:07:08Z</time></trkpt><trkpt lat="44.75702069838386" lon="10.234107019925819"><ele>111.0</ele><time>2026-04-19T10:07:09Z</time></trkpt><trkpt lat="44.75708652145106" lon="10.234256577005286"><ele>111.0</ele><time>2026-04-19T10:07:10Z</time></trkpt><trkpt lat="44.7571593493533" lon="10.234405929036074"><ele>111.0</ele><time>2026-04-19T10:07:11Z</time></trkpt><trkpt lat="44.757234486503854" lon="10.234562024370632"><ele>111.0</ele><time>2026-04-19T10:07:12Z</time></trkpt><trkpt lat="44.75732141810461" lon="10.234727165444575"><ele>111.0</ele><time>2026-04-19T10:07:13Z</time></trkpt><trkpt lat="44.75740434742498" lon="10.234934526954074"><ele>111.0</ele><time>2026-04-19T10:07:14Z</time></trkpt><trkpt lat="44.75750310840253" lon="10.235148904163237"><ele>111.0</ele><time>2026-04-19T10:07:15Z</time></trkpt><trkpt lat="44.757613316002455" lon="10.235388128487871"><ele>111.0</ele><time>2026-04-19T10:07:16Z</time></trkpt><trkpt lat="44.757731263465836" lon="10.235644152959807"><ele>110.0</ele><time>2026-04-19T10:07:17Z</time></trkpt><trkpt lat="44.757849844060196" lon="10.235901552179229"><ele>109.0</ele><time>2026-04-19T10:07:18Z</time></trkpt><trkpt lat="44.75797594707102" lon="10.236138165229276"><ele>108.0</ele><time>2026-04-19T10:07:19Z</time></trkpt><trkpt lat="44.75808530386746" lon="10.236398254564698"><ele>108.0</ele><time>2026-04-19T10:07:20Z</time></trkpt><trkpt lat="44.75820046046984" lon="10.236654156054968"><ele>108.0</ele><time>2026-04-19T10:07:21Z</time></trkpt><trkpt lat="44.758307309835054" lon="10.236897029391853"><ele>108.0</ele><time>2026-04-19T10:07:22Z</time></trkpt><trkpt lat="44.75840674164572" lon="10.237117311339363"><ele>108.0</ele><time>2026-04-19T10:07:23Z</time></trkpt><trkpt lat="44.75850300315104" lon="10.237330814224809"><ele>108.0</ele><time>2026-04-19T10:07:24Z</time></trkpt><trkpt lat="44.75860195752348" lon="10.237543282514421"><ele>108.0</ele><time>2026-04-19T10:07:25Z</time></trkpt><trkpt lat="44.758704871849964" lon="10.237768594220702"><ele>108.0</ele><time>2026-04-19T10:07:26Z</time></trkpt><trkpt lat="44.75880080442418" lon="10.237987215857153"><ele>108.0</ele><time>2026-04-19T10:07:27Z</time></trkpt><trkpt lat="44.758847904031356" lon="10.238159564196742"><ele>108.0</ele><time>2026-04-19T10:07:28Z</time></trkpt><trkpt lat="44.7590078425134" lon="10.23844590451623"><ele>108.0</ele><time>2026-04-19T10:07:29Z</time></trkpt><trkpt lat="44.75911092385861" lon="10.238667479577598"><ele>108.0</ele><time>2026-04-19T10:07:30Z</time></trkpt><trkpt lat="44.75921226550921" lon="10.23888634164914"><ele>108.0</ele><time>2026-04-19T10:07:31Z</time></trkpt><trkpt lat="44.75931265658777" lon="10.23910533079401"><ele>107.66666666666666</ele><time>2026-04-19T10:07:32Z</time></trkpt><trkpt lat="44.759414516143636" lon="10.239322296997408"><ele>107.33333333333333</ele><time>2026-04-19T10:07:33Z</time></trkpt><trkpt lat="44.75951284632876" lon="10.239536214523252"><ele>107.0</ele><time>2026-04-19T10:07:34Z</time></trkpt><trkpt lat="44.75961318979335" lon="10.239748688643308"><ele>108.66666666666666</ele><time>2026-04-19T10:07:35Z</time></trkpt><trkpt lat="44.75971687669437" lon="10.239966789902608"><ele>110.33333333333334</ele><time>2026-04-19T10:07:36Z</time></trkpt><trkpt lat="44.75981718273572" lon="10.240184142238759"><ele>112.0</ele><time>2026-04-19T10:07:37Z</time></trkpt><trkpt lat="44.7599118023162" lon="10.240395645720579"><ele>112.0</ele><time>2026-04-19T10:07:38Z</time></trkpt><trkpt lat="44.760010244631765" lon="10.240612415150643"><ele>112.0</ele><time>2026-04-19T10:07:39Z</time></trkpt><trkpt lat="44.7601086231609" lon="10.2408294208081"><ele>112.0</ele><time>2026-04-19T10:07:40Z</time></trkpt><trkpt lat="44.760210170753595" lon="10.241044724383443"><ele>111.33333333333334</ele><time>2026-04-19T10:07:41Z</time></trkpt><trkpt lat="44.76030909295115" lon="10.241261940747629"><ele>110.66666666666666</ele><time>2026-04-19T10:07:42Z</time></trkpt><trkpt lat="44.760411012796105" lon="10.241489198520139"><ele>110.0</ele><time>2026-04-19T10:07:43Z</time></trkpt><trkpt lat="44.760512772112605" lon="10.241711519899829"><ele>109.66666666666666</ele><time>2026-04-19T10:07:44Z</time></trkpt><trkpt lat="44.76061777391089" lon="10.241936979359751"><ele>109.33333333333334</ele><time>2026-04-19T10:07:45Z</time></trkpt><trkpt lat="44.760721352290325" lon="10.242163112840052"><ele>109.0</ele><time>2026-04-19T10:07:46Z</time></trkpt><trkpt lat="44.76082886190894" lon="10.242394537733247"><ele>109.0</ele><time>2026-04-19T10:07:47Z</time></trkpt><trkpt lat="44.76093606311864" lon="10.24262281810837"><ele>109.0</ele><time>2026-04-19T10:07:48Z</time></trkpt><trkpt lat="44.76104027204707" lon="10.242838960853808"><ele>109.0</ele><time>2026-04-19T10:07:49Z</time></trkpt><trkpt lat="44.76114247032125" lon="10.243042305458617"><ele>107.0</ele><time>2026-04-19T10:07:50Z</time></trkpt><trkpt lat="44.76124046677554" lon="10.243248524865713"><ele>105.0</ele><time>2026-04-19T10:07:51Z</time></trkpt><trkpt lat="44.76133237994544" lon="10.24345984534262"><ele>103.0</ele><time>2026-04-19T10:07:52Z</time></trkpt><trkpt lat="44.76142479313785" lon="10.243667660012042"><ele>103.0</ele><time>2026-04-19T10:07:53Z</time></trkpt><trkpt lat="44.76151244196167" lon="10.243870949742975"><ele>103.0</ele><time>2026-04-19T10:07:54Z</time></trkpt><trkpt lat="44.761601799060294" lon="10.244069439872497"><ele>103.0</ele><time>2026-04-19T10:07:55Z</time></trkpt><trkpt lat="44.76169145116955" lon="10.24425531914962"><ele>102.66666666666667</ele><time>2026-04-19T10:07:56Z</time></trkpt><trkpt lat="44.761780885080576" lon="10.244442274518011"><ele>102.33333333333334</ele><time>2026-04-19T10:07:57Z</time></trkpt><trkpt lat="44.76187225254887" lon="10.244629881562261"><ele>102.0</ele><time>2026-04-19T10:07:58Z</time></trkpt><trkpt lat="44.76196235658059" lon="10.244812744007088"><ele>102.0</ele><time>2026-04-19T10:07:59Z</time></trkpt><trkpt lat="44.762053946945365" lon="10.245004130666318"><ele>102.0</ele><time>2026-04-19T10:08:00Z</time></trkpt><trkpt lat="44.76214697577973" lon="10.24520270472345"><ele>102.0</ele><time>2026-04-19T10:08:01Z</time></trkpt><trkpt lat="44.76223482346109" lon="10.24539170404554"><ele>102.0</ele><time>2026-04-19T10:08:02Z</time></trkpt><trkpt lat="44.76232580673887" lon="10.245592079089135"><ele>102.0</ele><time>2026-04-19T10:08:03Z</time></trkpt><trkpt lat="44.76241956086697" lon="10.245786087271105"><ele>102.0</ele><time>2026-04-19T10:08:04Z</time></trkpt><trkpt lat="44.76251114741396" lon="10.2459745090366"><ele>102.33333333333334</ele><time>2026-04-19T10:08:05Z</time></trkpt><trkpt lat="44.762604569887216" lon="10.24616898239082"><ele>102.66666666666667</ele><time>2026-04-19T10:08:06Z</time></trkpt><trkpt lat="44.76269513620776" lon="10.246364974305465"><ele>103.0</ele><time>2026-04-19T10:08:07Z</time></trkpt><trkpt lat="44.76278364437804" lon="10.246550415051368"><ele>103.0</ele><time>2026-04-19T10:08:08Z</time></trkpt><trkpt lat="44.76286855819561" lon="10.246734942441915"><ele>103.0</ele><time>2026-04-19T10:08:09Z</time></trkpt><trkpt lat="44.762955884238046" lon="10.246925005349159"><ele>103.0</ele><time>2026-04-19T10:08:10Z</time></trkpt><trkpt lat="44.76304761996599" lon="10.247122663272226"><ele>103.66666666666667</ele><time>2026-04-19T10:08:11Z</time></trkpt><trkpt lat="44.763140270086375" lon="10.247310232814229"><ele>104.33333333333334</ele><time>2026-04-19T10:08:11.999Z</time></trkpt><trkpt lat="44.76323029277547" lon="10.247489284423771"><ele>105.0</ele><time>2026-04-19T10:08:12.999Z</time></trkpt><trkpt lat="44.76331378933358" lon="10.247660816960986"><ele>105.0</ele><time>2026-04-19T10:08:13.999Z</time></trkpt><trkpt lat="44.76339645426791" lon="10.24782792672765"><ele>105.0</ele><time>2026-04-19T10:08:14.999Z</time></trkpt><trkpt lat="44.76348428295152" lon="10.248009862611555"><ele>105.0</ele><time>2026-04-19T10:08:15.999Z</time></trkpt><trkpt lat="44.76357057849508" lon="10.248201322241194"><ele>103.66666666666666</ele><time>2026-04-19T10:08:16.999Z</time></trkpt><trkpt lat="44.76365666267426" lon="10.248390348056782"><ele>102.33333333333333</ele><time>2026-04-19T10:08:17.999Z</time></trkpt><trkpt lat="44.76374236638112" lon="10.248577765252797"><ele>101.0</ele><time>2026-04-19T10:08:18.999Z</time></trkpt><trkpt lat="44.763829181764265" lon="10.248761832635303"><ele>101.0</ele><time>2026-04-19T10:08:19.999Z</time></trkpt><trkpt lat="44.76391869792104" lon="10.248952133764206"><ele>101.0</ele><time>2026-04-19T10:08:20.999Z</time></trkpt><trkpt lat="44.764006974601386" lon="10.24913764425408"><ele>101.0</ele><time>2026-04-19T10:08:21.999Z</time></trkpt><trkpt lat="44.764100276054485" lon="10.249322341462793"><ele>101.33333333333333</ele><time>2026-04-19T10:08:22.999Z</time></trkpt><trkpt lat="44.76419401056701" lon="10.249516166358674"><ele>101.66666666666666</ele><time>2026-04-19T10:08:23.999Z</time></trkpt><trkpt lat="44.764283940839874" lon="10.249704118707122"><ele>102.0</ele><time>2026-04-19T10:08:24.999Z</time></trkpt><trkpt lat="44.76436627270721" lon="10.249885008128938"><ele>100.66666666666666</ele><time>2026-04-19T10:08:25.999Z</time></trkpt><trkpt lat="44.764447171609" lon="10.25006764773413"><ele>99.33333333333333</ele><time>2026-04-19T10:08:26.999Z</time></trkpt><trkpt lat="44.76453291096157" lon="10.250258478516617"><ele>98.0</ele><time>2026-04-19T10:08:27.999Z</time></trkpt><trkpt lat="44.76461965285816" lon="10.250449534666965"><ele>98.0</ele><time>2026-04-19T10:08:28.999Z</time></trkpt><trkpt lat="44.76471074429208" lon="10.250648167272802"><ele>98.0</ele><time>2026-04-19T10:08:29.999Z</time></trkpt><trkpt lat="44.7648011259024" lon="10.250842712111057"><ele>98.0</ele><time>2026-04-19T10:08:30.999Z</time></trkpt><trkpt lat="44.764889347624326" lon="10.251041923597956"><ele>98.0</ele><time>2026-04-19T10:08:31.999Z</time></trkpt><trkpt lat="44.764977800662805" lon="10.251242842339233"><ele>98.0</ele><time>2026-04-19T10:08:32.999Z</time></trkpt><trkpt lat="44.7650678925682" lon="10.251445718453006"><ele>98.0</ele><time>2026-04-19T10:08:33.999Z</time></trkpt><trkpt lat="44.765157785010906" lon="10.25164148687269"><ele>97.66666666666666</ele><time>2026-04-19T10:08:34.999Z</time></trkpt><trkpt lat="44.765247127825795" lon="10.251832790575264"><ele>97.33333333333334</ele><time>2026-04-19T10:08:35.999Z</time></trkpt><trkpt lat="44.765338959796004" lon="10.252027014766004"><ele>97.0</ele><time>2026-04-19T10:08:36.999Z</time></trkpt><trkpt lat="44.76542995138746" lon="10.252223443991705"><ele>97.33333333333334</ele><time>2026-04-19T10:08:37.999Z</time></trkpt><trkpt lat="44.765521633639196" lon="10.252418534367715"><ele>97.66666666666666</ele><time>2026-04-19T10:08:38.999Z</time></trkpt><trkpt lat="44.76560824658677" lon="10.252612085312244"><ele>98.0</ele><time>2026-04-19T10:08:39.999Z</time></trkpt><trkpt lat="44.76569473947387" lon="10.25280894166826"><ele>98.0</ele><time>2026-04-19T10:08:40.999Z</time></trkpt><trkpt lat="44.76577669303885" lon="10.253002238888943"><ele>98.0</ele><time>2026-04-19T10:08:41.999Z</time></trkpt><trkpt lat="44.76585977727306" lon="10.253194080979727"><ele>98.0</ele><time>2026-04-19T10:08:42.999Z</time></trkpt><trkpt lat="44.76594596818892" lon="10.253382753239281"><ele>98.25</ele><time>2026-04-19T10:08:43.999Z</time></trkpt><trkpt lat="44.766029473654946" lon="10.253557383045829"><ele>98.5</ele><time>2026-04-19T10:08:44.999Z</time></trkpt><trkpt lat="44.76610844367078" lon="10.253725143582031"><ele>98.75</ele><time>2026-04-19T10:08:45.999Z</time></trkpt><trkpt lat="44.76618028773476" lon="10.253878874936094"><ele>99.0</ele><time>2026-04-19T10:08:46.999Z</time></trkpt><trkpt lat="44.76623841954646" lon="10.254004530905817"><ele>98.4</ele><time>2026-04-19T10:08:47.999Z</time></trkpt><trkpt lat="44.766277131086945" lon="10.2540897089216"><ele>97.80000000000001</ele><time>2026-04-19T10:08:48.999Z</time></trkpt><trkpt lat="44.7663286108879" lon="10.254190679543347"><ele>97.19999999999999</ele><time>2026-04-19T10:08:50.999Z</time></trkpt><trkpt lat="44.766363749607756" lon="10.254270856350772"><ele>96.6</ele><time>2026-04-19T10:08:52.999Z</time></trkpt><trkpt lat="44.76648674636038" lon="10.254136249221922"><ele>96.0</ele><time>2026-04-19T10:08:53.999Z</time></trkpt><trkpt lat="44.76657376659904" lon="10.25411007552441"><ele>96.0</ele><time>2026-04-19T10:08:54.999Z</time></trkpt><trkpt lat="44.76667377617456" lon="10.254060927987402"><ele>96.0</ele><time>2026-04-19T10:08:55.999Z</time></trkpt><trkpt lat="44.76678710019694" lon="10.25405887078751"><ele>96.0</ele><time>2026-04-19T10:08:56.999Z</time></trkpt><trkpt lat="44.76691284445091" lon="10.254101443360016"><ele>96.0</ele><time>2026-04-19T10:08:57.999Z</time></trkpt><trkpt lat="44.7670340542273" lon="10.254151664337222"><ele>96.0</ele><time>2026-04-19T10:08:58.999Z</time></trkpt><trkpt lat="44.76714348445477" lon="10.25418388384936"><ele>96.0</ele><time>2026-04-19T10:08:59.999Z</time></trkpt><trkpt lat="44.767252905401484" lon="10.254211216670093"><ele>96.0</ele><time>2026-04-19T10:09:00.999Z</time></trkpt><trkpt lat="44.767375413771425" lon="10.254247211499194"><ele>96.0</ele><time>2026-04-19T10:09:01.999Z</time></trkpt><trkpt lat="44.767510697275426" lon="10.254285344725757"><ele>96.0</ele><time>2026-04-19T10:09:02.999Z</time></trkpt><trkpt lat="44.76764874384046" lon="10.254332276983844"><ele>96.0</ele><time>2026-04-19T10:09:03.999Z</time></trkpt><trkpt lat="44.767796766182975" lon="10.254379801492831"><ele>96.0</ele><time>2026-04-19T10:09:04.999Z</time></trkpt><trkpt lat="44.76795008951933" lon="10.254419816227665"><ele>96.0</ele><time>2026-04-19T10:09:05.999Z</time></trkpt><trkpt lat="44.7681071119802" lon="10.254458649224306"><ele>96.0</ele><time>2026-04-19T10:09:06.999Z</time></trkpt><trkpt lat="44.76824742591312" lon="10.254502710749758"><ele>96.0</ele><time>2026-04-19T10:09:07.999Z</time></trkpt><trkpt lat="44.7683617665484" lon="10.254537699848274"><ele>96.0</ele><time>2026-04-19T10:09:09Z</time></trkpt><trkpt lat="44.768458953247276" lon="10.254559926855077"><ele>96.0</ele><time>2026-04-19T10:09:10Z</time></trkpt><trkpt lat="44.76852899184399" lon="10.254598820757627"><ele>96.0</ele><time>2026-04-19T10:09:12Z</time></trkpt><trkpt lat="44.76848134925757" lon="10.254763868872704"><ele>96.0</ele><time>2026-04-19T10:09:14Z</time></trkpt><trkpt lat="44.76835711268745" lon="10.2546630674536"><ele>96.0</ele><time>2026-04-19T10:09:19Z</time></trkpt><trkpt lat="44.76826809400708" lon="10.254636074102315"><ele>96.0</ele><time>2026-04-19T10:09:22Z</time></trkpt><trkpt lat="44.768203047356735" lon="10.254616349834007"><ele>96.0</ele><time>2026-04-19T10:09:25Z</time></trkpt><trkpt lat="44.76811019281102" lon="10.254588193298662"><ele>96.0</ele><time>2026-04-19T10:09:27Z</time></trkpt><trkpt lat="44.768025836562444" lon="10.254582674073"><ele>96.0</ele><time>2026-04-19T10:09:28Z</time></trkpt><trkpt lat="44.76794420771665" lon="10.25453786122511"><ele>96.0</ele><time>2026-04-19T10:09:29Z</time></trkpt><trkpt lat="44.767864158962105" lon="10.254529228103035"><ele>96.0</ele><time>2026-04-19T10:09:30Z</time></trkpt><trkpt lat="44.767779974626585" lon="10.254505146467432"><ele>96.0</ele><time>2026-04-19T10:09:31Z</time></trkpt><trkpt lat="44.76769516617014" lon="10.254480629289514"><ele>96.0</ele><time>2026-04-19T10:09:32Z</time></trkpt><trkpt lat="44.767625651509725" lon="10.254459494190415"><ele>96.0</ele><time>2026-04-19T10:09:33Z</time></trkpt><trkpt lat="44.76756257447275" lon="10.254441206004776"><ele>96.0</ele><time>2026-04-19T10:09:34Z</time></trkpt><trkpt lat="44.76745300946372" lon="10.254470674855176"><ele>96.0</ele><time>2026-04-19T10:09:36Z</time></trkpt><trkpt lat="44.7674180716501" lon="10.254560288401963"><ele>96.0</ele><time>2026-04-19T10:09:37Z</time></trkpt><trkpt lat="44.76740965632803" lon="10.25465034722899"><ele>96.0</ele><time>2026-04-19T10:09:38Z</time></trkpt><trkpt lat="44.7674100867013" lon="10.254773718616454"><ele>95.75</ele><time>2026-04-19T10:09:43Z</time></trkpt><trkpt lat="44.76737994282449" lon="10.254927890143247"><ele>95.5</ele><time>2026-04-19T10:09:45Z</time></trkpt><trkpt lat="44.76734685268315" lon="10.255084474736146"><ele>95.25</ele><time>2026-04-19T10:09:47Z</time></trkpt><trkpt lat="44.76730806333153" lon="10.255242367981197"><ele>95.0</ele><time>2026-04-19T10:09:49Z</time></trkpt><trkpt lat="44.767278678063036" lon="10.255386564451598"><ele>95.0</ele><time>2026-04-19T10:09:51Z</time></trkpt><trkpt lat="44.76723325952369" lon="10.255519822332522"><ele>95.0</ele><time>2026-04-19T10:09:53Z</time></trkpt><trkpt lat="44.7672260040795" lon="10.255621516311038"><ele>95.0</ele><time>2026-04-19T10:09:55Z</time></trkpt><trkpt lat="44.76721401353178" lon="10.255518796796903"><ele>95.0</ele><time>2026-04-19T10:10:02Z</time></trkpt><trkpt lat="44.76731470997199" lon="10.255360915029621"><ele>95.0</ele><time>2026-04-19T10:10:05Z</time></trkpt><trkpt lat="44.76733230821785" lon="10.255247026529267"><ele>95.0</ele><time>2026-04-19T10:10:07Z</time></trkpt><trkpt lat="44.767363980251645" lon="10.25510746396015"><ele>95.0</ele><time>2026-04-19T10:10:09Z</time></trkpt><trkpt lat="44.76738609441564" lon="10.254999431407295"><ele>95.0</ele><time>2026-04-19T10:10:11Z</time></trkpt><trkpt lat="44.76741955877985" lon="10.25487555997788"><ele>95.0</ele><time>2026-04-19T10:10:22.999Z</time></trkpt><trkpt lat="44.767441256821904" lon="10.254711532111134"><ele>95.0</ele><time>2026-04-19T10:10:24.999Z</time></trkpt><trkpt lat="44.76746576429731" lon="10.254580438919788"><ele>95.16666666666667</ele><time>2026-04-19T10:10:26.999Z</time></trkpt><trkpt lat="44.767495935308055" lon="10.254461687310952"><ele>95.33333333333334</ele><time>2026-04-19T10:10:28.999Z</time></trkpt><trkpt lat="44.767594691648995" lon="10.254461975340488"><ele>95.5</ele><time>2026-04-19T10:10:30.999Z</time></trkpt><trkpt lat="44.76766070556686" lon="10.254511345365827"><ele>95.66666666666667</ele><time>2026-04-19T10:10:31.999Z</time></trkpt><trkpt lat="44.76773209713292" lon="10.254534801400517"><ele>95.83333333333333</ele><time>2026-04-19T10:10:32.999Z</time></trkpt><trkpt lat="44.767812099066575" lon="10.254554120903434"><ele>96.0</ele><time>2026-04-19T10:10:33.999Z</time></trkpt><trkpt lat="44.76789537142882" lon="10.254576348645285"><ele>96.0</ele><time>2026-04-19T10:10:34.999Z</time></trkpt><trkpt lat="44.767985570698414" lon="10.254597555207408"><ele>96.0</ele><time>2026-04-19T10:10:35.999Z</time></trkpt><trkpt lat="44.76806836729812" lon="10.25461779846365"><ele>96.0</ele><time>2026-04-19T10:10:36.999Z</time></trkpt><trkpt lat="44.7681434521625" lon="10.254636258500007"><ele>96.0</ele><time>2026-04-19T10:10:37.999Z</time></trkpt><trkpt lat="44.76821668270924" lon="10.25465465220294"><ele>96.0</ele><time>2026-04-19T10:10:38.999Z</time></trkpt><trkpt lat="44.768294611797735" lon="10.254683349027193"><ele>96.0</ele><time>2026-04-19T10:10:39.999Z</time></trkpt><trkpt lat="44.76835867078627" lon="10.254704235364311"><ele>96.0</ele><time>2026-04-19T10:10:40.999Z</time></trkpt><trkpt lat="44.76846850106934" lon="10.254718062504292"><ele>96.0</ele><time>2026-04-19T10:10:42.999Z</time></trkpt><trkpt lat="44.76853907853562" lon="10.254601310928015"><ele>96.0</ele><time>2026-04-19T10:10:44.999Z</time></trkpt><trkpt lat="44.76862090969296" lon="10.254599278975036"><ele>96.0</ele><time>2026-04-19T10:10:46.999Z</time></trkpt><trkpt lat="44.76871525765914" lon="10.254627841284861"><ele>96.0</ele><time>2026-04-19T10:10:47.999Z</time></trkpt><trkpt lat="44.76881794919839" lon="10.254660884687908"><ele>95.5</ele><time>2026-04-19T10:10:48.999Z</time></trkpt><trkpt lat="44.76894058561568" lon="10.254688065604064"><ele>95.0</ele><time>2026-04-19T10:10:49.999Z</time></trkpt><trkpt lat="44.769078134592306" lon="10.254718980195985"><ele>94.5</ele><time>2026-04-19T10:10:50.999Z</time></trkpt><trkpt lat="44.769207982685245" lon="10.254763795424672"><ele>94.0</ele><time>2026-04-19T10:10:51.999Z</time></trkpt><trkpt lat="44.76933983295967" lon="10.254800387679307"><ele>93.5</ele><time>2026-04-19T10:10:52.999Z</time></trkpt><trkpt lat="44.769478336929815" lon="10.254837483112743"><ele>93.0</ele><time>2026-04-19T10:10:53.999Z</time></trkpt><trkpt lat="44.76961442615581" lon="10.254877082844752"><ele>92.5</ele><time>2026-04-19T10:10:54.999Z</time></trkpt><trkpt lat="44.76974892824426" lon="10.254914884572948"><ele>92.0</ele><time>2026-04-19T10:10:55.999Z</time></trkpt><trkpt lat="44.76988036499179" lon="10.254952318372851"><ele>92.0</ele><time>2026-04-19T10:10:56.999Z</time></trkpt><trkpt lat="44.77000636499185" lon="10.25499007046205"><ele>92.0</ele><time>2026-04-19T10:10:57.999Z</time></trkpt><trkpt lat="44.770127682284276" lon="10.255020639160374"><ele>92.0</ele><time>2026-04-19T10:10:58.999Z</time></trkpt><trkpt lat="44.7702346332433" lon="10.255050084663184"><ele>92.0</ele><time>2026-04-19T10:10:59.999Z</time></trkpt><trkpt lat="44.77033822887117" lon="10.255081315608225"><ele>92.0</ele><time>2026-04-19T10:11:00.999Z</time></trkpt><trkpt lat="44.770440715129965" lon="10.255109975635726"><ele>92.0</ele><time>2026-04-19T10:11:01.999Z</time></trkpt><trkpt lat="44.77054705616725" lon="10.255140981959102"><ele>92.0</ele><time>2026-04-19T10:11:02.999Z</time></trkpt><trkpt lat="44.77063720178588" lon="10.255203965185974"><ele>92.0</ele><time>2026-04-19T10:11:03.999Z</time></trkpt><trkpt lat="44.770707951018984" lon="10.255205197116114"><ele>92.0</ele><time>2026-04-19T10:11:04.999Z</time></trkpt><trkpt lat="44.77070710138906" lon="10.255500755433053"><ele>92.0</ele><time>2026-04-19T10:11:05.999Z</time></trkpt><trkpt lat="44.77066729257035" lon="10.255682004530964"><ele>92.0</ele><time>2026-04-19T10:11:06.999Z</time></trkpt><trkpt lat="44.77065088813274" lon="10.25586695579088"><ele>92.0</ele><time>2026-04-19T10:11:07.999Z</time></trkpt><trkpt lat="44.77061730897589" lon="10.256051453002646"><ele>92.0</ele><time>2026-04-19T10:11:08.999Z</time></trkpt><trkpt lat="44.77058914957327" lon="10.256228288802124"><ele>92.0</ele><time>2026-04-19T10:11:09.999Z</time></trkpt><trkpt lat="44.77056766170303" lon="10.256385131590319"><ele>92.0</ele><time>2026-04-19T10:11:10.999Z</time></trkpt><trkpt lat="44.770548451210715" lon="10.256530774140383"><ele>92.0</ele><time>2026-04-19T10:11:11.999Z</time></trkpt><trkpt lat="44.7705423193434" lon="10.256668840875166"><ele>92.0</ele><time>2026-04-19T10:11:12.999Z</time></trkpt><trkpt lat="44.77056733107021" lon="10.256804779239765"><ele>92.0</ele><time>2026-04-19T10:11:13.999Z</time></trkpt><trkpt lat="44.77062373825046" lon="10.256941623983225"><ele>92.0</ele><time>2026-04-19T10:11:15Z</time></trkpt><trkpt lat="44.770694721015026" lon="10.25708024653984"><ele>92.0</ele><time>2026-04-19T10:11:16Z</time></trkpt><trkpt lat="44.77076987470997" lon="10.257225247545119"><ele>92.0</ele><time>2026-04-19T10:11:17Z</time></trkpt><trkpt lat="44.77084405622763" lon="10.257378927034186"><ele>92.0</ele><time>2026-04-19T10:11:18Z</time></trkpt><trkpt lat="44.77091772981081" lon="10.257539658594187"><ele>91.75</ele><time>2026-04-19T10:11:19Z</time></trkpt><trkpt lat="44.7709976160473" lon="10.257704788941574"><ele>91.5</ele><time>2026-04-19T10:11:20Z</time></trkpt><trkpt lat="44.7710799190134" lon="10.257872498342023"><ele>91.25</ele><time>2026-04-19T10:11:21Z</time></trkpt><trkpt lat="44.77116586350275" lon="10.258050367638432"><ele>91.0</ele><time>2026-04-19T10:11:22Z</time></trkpt><trkpt lat="44.77124988698734" lon="10.25822489431608"><ele>90.0</ele><time>2026-04-19T10:11:23Z</time></trkpt><trkpt lat="44.77133424942012" lon="10.258400835325666"><ele>89.0</ele><time>2026-04-19T10:11:24Z</time></trkpt><trkpt lat="44.77142114613787" lon="10.25858706873994"><ele>88.0</ele><time>2026-04-19T10:11:25Z</time></trkpt><trkpt lat="44.77151025513374" lon="10.258768899848128"><ele>89.0</ele><time>2026-04-19T10:11:26Z</time></trkpt><trkpt lat="44.77159634315069" lon="10.258951434820105"><ele>90.0</ele><time>2026-04-19T10:11:27Z</time></trkpt><trkpt lat="44.771685975852144" lon="10.2591371436343"><ele>91.0</ele><time>2026-04-19T10:11:28Z</time></trkpt><trkpt lat="44.77177236022111" lon="10.259322676630992"><ele>90.0</ele><time>2026-04-19T10:11:29Z</time></trkpt><trkpt lat="44.771863077245634" lon="10.259512883020818"><ele>89.0</ele><time>2026-04-19T10:11:30Z</time></trkpt><trkpt lat="44.77195311442855" lon="10.259697460296985"><ele>88.0</ele><time>2026-04-19T10:11:31Z</time></trkpt><trkpt lat="44.77203504512904" lon="10.259876250885535"><ele>88.0</ele><time>2026-04-19T10:11:32Z</time></trkpt><trkpt lat="44.77211745002244" lon="10.260058381248033"><ele>88.0</ele><time>2026-04-19T10:11:33Z</time></trkpt><trkpt lat="44.77219948064379" lon="10.260244007257947"><ele>88.0</ele><time>2026-04-19T10:11:34Z</time></trkpt><trkpt lat="44.772287286345716" lon="10.26042929212357"><ele>88.0</ele><time>2026-04-19T10:11:35Z</time></trkpt><trkpt lat="44.77236915650534" lon="10.260601617170947"><ele>88.0</ele><time>2026-04-19T10:11:36Z</time></trkpt><trkpt lat="44.772454659595816" lon="10.260774861047299"><ele>88.0</ele><time>2026-04-19T10:11:37Z</time></trkpt><trkpt lat="44.77253622646472" lon="10.26094075986769"><ele>88.0</ele><time>2026-04-19T10:11:38Z</time></trkpt><trkpt lat="44.77261775662416" lon="10.261110597462642"><ele>88.0</ele><time>2026-04-19T10:11:39Z</time></trkpt><trkpt lat="44.7726945618276" lon="10.261277399519853"><ele>88.0</ele><time>2026-04-19T10:11:40Z</time></trkpt><trkpt lat="44.77277259618391" lon="10.261449635878716"><ele>88.0</ele><time>2026-04-19T10:11:41Z</time></trkpt><trkpt lat="44.77285360868115" lon="10.261618572359808"><ele>88.0</ele><time>2026-04-19T10:11:42Z</time></trkpt><trkpt lat="44.772936229247996" lon="10.261787676374148"><ele>88.0</ele><time>2026-04-19T10:11:43Z</time></trkpt><trkpt lat="44.773013897120606" lon="10.261944795446569"><ele>88.0</ele><time>2026-04-19T10:11:44Z</time></trkpt><trkpt lat="44.77309241936318" lon="10.262105566280576"><ele>88.0</ele><time>2026-04-19T10:11:45Z</time></trkpt><trkpt lat="44.77317142719393" lon="10.262264612957058"><ele>88.0</ele><time>2026-04-19T10:11:46Z</time></trkpt><trkpt lat="44.7732471767494" lon="10.262419643163609"><ele>88.0</ele><time>2026-04-19T10:11:47Z</time></trkpt><trkpt lat="44.77332233771636" lon="10.262580794130729"><ele>88.0</ele><time>2026-04-19T10:11:48Z</time></trkpt><trkpt lat="44.77339552466512" lon="10.262740678324635"><ele>88.0</ele><time>2026-04-19T10:11:49Z</time></trkpt><trkpt lat="44.77346894153217" lon="10.262897428923912"><ele>88.0</ele><time>2026-04-19T10:11:50Z</time></trkpt><trkpt lat="44.773537119112056" lon="10.263049635014452"><ele>87.4</ele><time>2026-04-19T10:11:51Z</time></trkpt><trkpt lat="44.77360544414574" lon="10.263200061966112"><ele>86.80000000000001</ele><time>2026-04-19T10:11:52Z</time></trkpt><trkpt lat="44.77366410364288" lon="10.263335486339242"><ele>86.2</ele><time>2026-04-19T10:11:53Z</time></trkpt><trkpt lat="44.77372389623277" lon="10.26345331532301"><ele>85.6</ele><time>2026-04-19T10:11:54Z</time></trkpt><trkpt lat="44.77377935576253" lon="10.263554114754152"><ele>85.0</ele><time>2026-04-19T10:11:55Z</time></trkpt><trkpt lat="44.77383754068106" lon="10.263618471146458"><ele>85.0</ele><time>2026-04-19T10:11:56Z</time></trkpt><trkpt lat="44.77397019820285" lon="10.263479840950842"><ele>85.0</ele><time>2026-04-19T10:11:59Z</time></trkpt><trkpt lat="44.773976011197824" lon="10.263345322318902"><ele>85.0</ele><time>2026-04-19T10:12:01Z</time></trkpt><trkpt lat="44.773987515157195" lon="10.263245769797965"><ele>85.0</ele><time>2026-04-19T10:12:03Z</time></trkpt><trkpt lat="44.77401421814056" lon="10.26315505348883"><ele>85.0</ele><time>2026-04-19T10:12:23.999Z</time></trkpt><trkpt lat="44.774001986752346" lon="10.263058202396554"><ele>85.2</ele><time>2026-04-19T10:12:25.999Z</time></trkpt><trkpt lat="44.77390907511125" lon="10.263063336618693"><ele>85.4</ele><time>2026-04-19T10:12:26.999Z</time></trkpt><trkpt lat="44.7738104043506" lon="10.263023396619984"><ele>85.6</ele><time>2026-04-19T10:12:28.999Z</time></trkpt><trkpt lat="44.773715342711846" lon="10.26298491688538"><ele>85.8</ele><time>2026-04-19T10:12:30.999Z</time></trkpt><trkpt lat="44.773696371833275" lon="10.262900359990665"><ele>86.0</ele><time>2026-04-19T10:12:31.999Z</time></trkpt><trkpt lat="44.773637754822666" lon="10.262777337526032"><ele>86.0</ele><time>2026-04-19T10:12:33.999Z</time></trkpt><trkpt lat="44.77358462105536" lon="10.262665820799047"><ele>86.0</ele><time>2026-04-19T10:12:35.999Z</time></trkpt><trkpt lat="44.77362361252729" lon="10.262595872055014"><ele>86.0</ele><time>2026-04-19T10:12:39.999Z</time></trkpt><trkpt lat="44.77366134413392" lon="10.262439933776806"><ele>86.0</ele><time>2026-04-19T10:12:44.999Z</time></trkpt><trkpt lat="44.77367855441219" lon="10.262346391100918"><ele>86.0</ele><time>2026-04-19T10:12:45.999Z</time></trkpt><trkpt lat="44.77369844303509" lon="10.262248759108992"><ele>86.0</ele><time>2026-04-19T10:12:46.999Z</time></trkpt><trkpt lat="44.7737365570335" lon="10.262137127588217"><ele>86.00000000000001</ele><time>2026-04-19T10:12:49.999Z</time></trkpt><trkpt lat="44.773749356001055" lon="10.262225896622201"><ele>86.0</ele><time>2026-04-19T10:12:50.999Z</time></trkpt><trkpt lat="44.773811865494245" lon="10.262240059094147"><ele>86.0</ele><time>2026-04-19T10:12:53.999Z</time></trkpt><trkpt lat="44.77387923838432" lon="10.26225532344229"><ele>86.0</ele><time>2026-04-19T10:12:55.999Z</time></trkpt><trkpt lat="44.773942412954575" lon="10.262250753537323"><ele>86.0</ele><time>2026-04-19T10:12:58.999Z</time></trkpt><trkpt lat="44.77387536930632" lon="10.262248227794275"><ele>86.00000000000001</ele><time>2026-04-19T10:13:02.999Z</time></trkpt><trkpt lat="44.77382809611756" lon="10.26218583787867"><ele>86.0</ele><time>2026-04-19T10:13:03.999Z</time></trkpt><trkpt lat="44.77373367794645" lon="10.262162338293718"><ele>86.0</ele><time>2026-04-19T10:13:05.999Z</time></trkpt><trkpt lat="44.77366271556904" lon="10.262232982986784"><ele>86.0</ele><time>2026-04-19T10:13:07.999Z</time></trkpt><trkpt lat="44.77364084121891" lon="10.262393634851028"><ele>86.0</ele><time>2026-04-19T10:13:09.999Z</time></trkpt><trkpt lat="44.77361807232772" lon="10.262495828438583"><ele>86.0</ele><time>2026-04-19T10:13:10.999Z</time></trkpt><trkpt lat="44.773586793235104" lon="10.262630631328499"><ele>86.0</ele><time>2026-04-19T10:13:12.999Z</time></trkpt><trkpt lat="44.773580517129105" lon="10.262724352983422"><ele>86.0</ele><time>2026-04-19T10:13:15.999Z</time></trkpt><trkpt lat="44.77362250785188" lon="10.262624880704072"><ele>86.0</ele><time>2026-04-19T10:13:16.999Z</time></trkpt><trkpt lat="44.77362608261058" lon="10.262506490618842"><ele>86.0</ele><time>2026-04-19T10:16:06Z</time></trkpt><trkpt lat="44.77363311186131" lon="10.262344850082085"><ele>86.0</ele><time>2026-04-19T10:16:08Z</time></trkpt><trkpt lat="44.77366470712456" lon="10.262218246061503"><ele>86.0</ele><time>2026-04-19T10:16:10Z</time></trkpt><trkpt lat="44.77372137451859" lon="10.26214681665267"><ele>86.0</ele><time>2026-04-19T10:16:12Z</time></trkpt><trkpt lat="44.773751387111915" lon="10.262226356770496"><ele>86.0</ele><time>2026-04-19T10:16:13Z</time></trkpt><trkpt lat="44.773813648160974" lon="10.262240462962351"><ele>86.0</ele><time>2026-04-19T10:16:16Z</time></trkpt><trkpt lat="44.77388763686991" lon="10.262257226225637"><ele>86.0</ele><time>2026-04-19T10:20:17Z</time></trkpt><trkpt lat="44.773821625831935" lon="10.262242270438422"><ele>86.0</ele><time>2026-04-19T10:20:22Z</time></trkpt><trkpt lat="44.77374850837398" lon="10.262225704377489"><ele>86.0</ele><time>2026-04-19T10:20:24Z</time></trkpt><trkpt lat="44.7739786696227" lon="10.262233861622478"><ele>86.0</ele><time>2026-04-19T10:20:27Z</time></trkpt><trkpt lat="44.77397777815448" lon="10.26233201884287"><ele>86.0</ele><time>2026-04-19T10:20:29Z</time></trkpt><trkpt lat="44.77397657328895" lon="10.262465925505113"><ele>86.0</ele><time>2026-04-19T10:20:32Z</time></trkpt><trkpt lat="44.77397131240106" lon="10.262597559083428"><ele>86.0</ele><time>2026-04-19T10:20:35Z</time></trkpt><trkpt lat="44.7739344113235" lon="10.262675922620714"><ele>86.0</ele><time>2026-04-19T10:20:38Z</time></trkpt><trkpt lat="44.77362518009663" lon="10.262611463356425"><ele>86.0</ele><time>2026-04-19T10:20:46Z</time></trkpt><trkpt lat="44.77360604096447" lon="10.262707593463691"><ele>86.0</ele><time>2026-04-19T10:23:34.999Z</time></trkpt><trkpt lat="44.77359716332558" lon="10.262800583218082"><ele>86.0</ele><time>2026-04-19T10:23:48.999Z</time></trkpt></trkseg></trk></gpx>